<?xml version='1.0' encoding='UTF-8'?><gpx version="1.1" creator="JPX - https://github.com/jenetics/jpx" xmlns="http://www.topografix.com/GPX/1/1"><trk><trkseg><trkpt lat="44.5231967" lon="11.374315"><ele>36.00000000000001</ele><time>2026-05-01T05:40:44.442Z</time></trkpt><trkpt lat="44.523245" lon="11.3743883"><ele>36.0</ele><time>2026-05-01T05:40:50.441Z</time></trkpt><trkpt lat="44.5233083" lon="11.3743967"><ele>36.0</ele><time>2026-05-01T05:41:00.44Z</time></trkpt><trkpt lat="44.5233767" lon="11.3744267"><ele>36.0</ele><time>2026-05-01T05:41:23.44Z</time></trkpt><trkpt lat="44.5233221" lon="11.3743798"><ele>36.0</ele><time>2026-05-01T05:47:44.442Z</time></trkpt><trkpt lat="44.523291" lon="11.3744614"><ele>36.00000000000001</ele><time>2026-05-01T05:56:00.443Z</time></trkpt><trkpt lat="44.5232295" lon="11.3744418"><ele>36.0</ele><time>2026-05-01T05:56:09.443Z</time></trkpt><trkpt lat="44.5231989" lon="11.3745289"><ele>36.00000000000001</ele><time>2026-05-01T05:56:38.444Z</time></trkpt><trkpt lat="44.5232817" lon="11.3745517"><ele>36.0</ele><time>2026-05-01T06:08:45.442Z</time></trkpt><trkpt lat="44.5233533" lon="11.3745833"><ele>36.0</ele><time>2026-05-01T06:08:55.444Z</time></trkpt><trkpt lat="44.52343" lon="11.37462"><ele>36.0</ele><time>2026-05-01T06:08:59.443Z</time></trkpt><trkpt lat="44.5234933" lon="11.3746383"><ele>36.0</ele><time>2026-05-01T06:09:02.443Z</time></trkpt><trkpt lat="44.5235483" lon="11.374595"><ele>36.00000000000001</ele><time>2026-05-01T06:09:08.441Z</time></trkpt><trkpt lat="44.5235967" lon="11.37452"><ele>36.0</ele><time>2026-05-01T06:09:15.444Z</time></trkpt><trkpt lat="44.5236217" lon="11.3744283"><ele>36.00000000000001</ele><time>2026-05-01T06:09:24.444Z</time></trkpt><trkpt lat="44.523655" lon="11.3743417"><ele>36.0</ele><time>2026-05-01T06:09:34.444Z</time></trkpt><trkpt lat="44.5236883" lon="11.374255"><ele>36.0</ele><time>2026-05-01T06:09:43.444Z</time></trkpt><trkpt lat="44.523675" lon="11.374155"><ele>36.0</ele><time>2026-05-01T06:09:53.443Z</time></trkpt><trkpt lat="44.523615" lon="11.3741267"><ele>36.0</ele><time>2026-05-01T06:10:01.443Z</time></trkpt><trkpt lat="44.5235433" lon="11.3741417"><ele>36.00000000000001</ele><time>2026-05-01T06:10:10.443Z</time></trkpt><trkpt lat="44.5234833" lon="11.3740917"><ele>36.0</ele><time>2026-05-01T06:10:17.443Z</time></trkpt><trkpt lat="44.5234167" lon="11.3740267"><ele>36.00000000000001</ele><time>2026-05-01T06:10:21.441Z</time></trkpt><trkpt lat="44.523415" lon="11.3739267"><ele>36.0</ele><time>2026-05-01T06:10:24.443Z</time></trkpt><trkpt lat="44.5234317" lon="11.3738267"><ele>36.0</ele><time>2026-05-01T06:10:27.444Z</time></trkpt><trkpt lat="44.5234617" lon="11.3737"><ele>36.0</ele><time>2026-05-01T06:10:30.443Z</time></trkpt><trkpt lat="44.5234567" lon="11.3736083"><ele>36.0</ele><time>2026-05-01T06:10:32.442Z</time></trkpt><trkpt lat="44.5234133" lon="11.3735333"><ele>36.00000000000001</ele><time>2026-05-01T06:10:34.442Z</time></trkpt><trkpt lat="44.5233633" lon="11.373475"><ele>36.0</ele><time>2026-05-01T06:10:36.443Z</time></trkpt><trkpt lat="44.5232833" lon="11.3734033"><ele>36.333333333333336</ele><time>2026-05-01T06:10:39.439Z</time></trkpt><trkpt lat="44.523225" lon="11.3733683"><ele>36.666666666666664</ele><time>2026-05-01T06:10:41.443Z</time></trkpt><trkpt lat="44.5231667" lon="11.373325"><ele>37.0</ele><time>2026-05-01T06:10:43.443Z</time></trkpt><trkpt lat="44.523085" lon="11.3732683"><ele>37.33333333333333</ele><time>2026-05-01T06:10:46.442Z</time></trkpt><trkpt lat="44.5230017" lon="11.3732033"><ele>37.666666666666664</ele><time>2026-05-01T06:10:49.439Z</time></trkpt><trkpt lat="44.52294" lon="11.37316"><ele>38.0</ele><time>2026-05-01T06:10:51.44Z</time></trkpt><trkpt lat="44.522855" lon="11.3731033"><ele>38.0</ele><time>2026-05-01T06:10:54.44Z</time></trkpt><trkpt lat="44.52279" lon="11.37306"><ele>38.0</ele><time>2026-05-01T06:10:56.443Z</time></trkpt><trkpt lat="44.5227217" lon="11.3730217"><ele>38.0</ele><time>2026-05-01T06:10:58.44Z</time></trkpt><trkpt lat="44.5226533" lon="11.3729867"><ele>38.0</ele><time>2026-05-01T06:11:00.444Z</time></trkpt><trkpt lat="44.522575" lon="11.3729183"><ele>38.0</ele><time>2026-05-01T06:11:03.443Z</time></trkpt><trkpt lat="44.5225533" lon="11.372795"><ele>38.0</ele><time>2026-05-01T06:11:06.441Z</time></trkpt><trkpt lat="44.522585" lon="11.37271"><ele>38.0</ele><time>2026-05-01T06:11:08.442Z</time></trkpt><trkpt lat="44.522615" lon="11.37262"><ele>38.0</ele><time>2026-05-01T06:11:10.444Z</time></trkpt><trkpt lat="44.5226433" lon="11.3725367"><ele>38.0</ele><time>2026-05-01T06:11:12.442Z</time></trkpt><trkpt lat="44.5226733" lon="11.3724433"><ele>38.0</ele><time>2026-05-01T06:11:14.444Z</time></trkpt><trkpt lat="44.5227" lon="11.3723433"><ele>38.0</ele><time>2026-05-01T06:11:16.443Z</time></trkpt><trkpt lat="44.5227317" lon="11.372255"><ele>38.0</ele><time>2026-05-01T06:11:18.441Z</time></trkpt><trkpt lat="44.5227783" lon="11.3721717"><ele>38.0</ele><time>2026-05-01T06:11:20.441Z</time></trkpt><trkpt lat="44.5228383" lon="11.37212"><ele>37.83333333333333</ele><time>2026-05-01T06:11:22.442Z</time></trkpt><trkpt lat="44.5229217" lon="11.3721"><ele>37.666666666666664</ele><time>2026-05-01T06:11:24.441Z</time></trkpt><trkpt lat="44.523005" lon="11.37207"><ele>37.5</ele><time>2026-05-01T06:11:26.443Z</time></trkpt><trkpt lat="44.52308" lon="11.3720367"><ele>37.333333333333336</ele><time>2026-05-01T06:11:28.443Z</time></trkpt><trkpt lat="44.52315" lon="11.372005"><ele>37.16666666666667</ele><time>2026-05-01T06:11:30.441Z</time></trkpt><trkpt lat="44.52322" lon="11.3719767"><ele>37.0</ele><time>2026-05-01T06:11:32.442Z</time></trkpt><trkpt lat="44.523295" lon="11.3719517"><ele>37.0</ele><time>2026-05-01T06:11:34.443Z</time></trkpt><trkpt lat="44.5233733" lon="11.3719267"><ele>37.0</ele><time>2026-05-01T06:11:36.443Z</time></trkpt><trkpt lat="44.5234583" lon="11.371885"><ele>37.0</ele><time>2026-05-01T06:11:38.443Z</time></trkpt><trkpt lat="44.5235417" lon="11.371835"><ele>37.0</ele><time>2026-05-01T06:11:40.443Z</time></trkpt><trkpt lat="44.52362" lon="11.37177"><ele>37.0</ele><time>2026-05-01T06:11:42.442Z</time></trkpt><trkpt lat="44.5236967" lon="11.3717017"><ele>37.0</ele><time>2026-05-01T06:11:44.443Z</time></trkpt><trkpt lat="44.5237817" lon="11.371645"><ele>36.800000000000004</ele><time>2026-05-01T06:11:46.443Z</time></trkpt><trkpt lat="44.5238633" lon="11.3715833"><ele>36.6</ele><time>2026-05-01T06:11:48.438Z</time></trkpt><trkpt lat="44.52394" lon="11.3715233"><ele>36.400000000000006</ele><time>2026-05-01T06:11:50.442Z</time></trkpt><trkpt lat="44.524025" lon="11.371455"><ele>36.2</ele><time>2026-05-01T06:11:52.441Z</time></trkpt><trkpt lat="44.5241117" lon="11.37138"><ele>36.0</ele><time>2026-05-01T06:11:54.441Z</time></trkpt><trkpt lat="44.52418" lon="11.3712833"><ele>36.0</ele><time>2026-05-01T06:11:56.443Z</time></trkpt><trkpt lat="44.5242283" lon="11.3711617"><ele>36.0</ele><time>2026-05-01T06:11:58.443Z</time></trkpt><trkpt lat="44.5242433" lon="11.3710217"><ele>36.0</ele><time>2026-05-01T06:12:00.443Z</time></trkpt><trkpt lat="44.5242267" lon="11.37089"><ele>36.0</ele><time>2026-05-01T06:12:02.443Z</time></trkpt><trkpt lat="44.5242" lon="11.3707917"><ele>36.0</ele><time>2026-05-01T06:12:04.441Z</time></trkpt><trkpt lat="44.524165" lon="11.3706983"><ele>36.0</ele><time>2026-05-01T06:12:06.443Z</time></trkpt><trkpt lat="44.5241267" lon="11.3706083"><ele>35.666666666666664</ele><time>2026-05-01T06:12:08.444Z</time></trkpt><trkpt lat="44.524095" lon="11.370505"><ele>35.333333333333336</ele><time>2026-05-01T06:12:10.444Z</time></trkpt><trkpt lat="44.5240633" lon="11.370405"><ele>35.0</ele><time>2026-05-01T06:12:12.443Z</time></trkpt><trkpt lat="44.5240367" lon="11.3702983"><ele>34.66666666666667</ele><time>2026-05-01T06:12:14.443Z</time></trkpt><trkpt lat="44.52402" lon="11.37019"><ele>34.333333333333336</ele><time>2026-05-01T06:12:16.444Z</time></trkpt><trkpt lat="44.5240017" lon="11.3700617"><ele>34.0</ele><time>2026-05-01T06:12:18.441Z</time></trkpt><trkpt lat="44.5240117" lon="11.36994"><ele>34.0</ele><time>2026-05-01T06:12:20.441Z</time></trkpt><trkpt lat="44.5240567" lon="11.3698217"><ele>34.0</ele><time>2026-05-01T06:12:22.441Z</time></trkpt><trkpt lat="44.524135" lon="11.3697117"><ele>34.0</ele><time>2026-05-01T06:12:24.442Z</time></trkpt><trkpt lat="44.5242383" lon="11.3696317"><ele>34.0</ele><time>2026-05-01T06:12:26.442Z</time></trkpt><trkpt lat="44.5243483" lon="11.3695817"><ele>34.0</ele><time>2026-05-01T06:12:28.442Z</time></trkpt><trkpt lat="44.524465" lon="11.369555"><ele>34.75</ele><time>2026-05-01T06:12:30.443Z</time></trkpt><trkpt lat="44.5245817" lon="11.3695417"><ele>35.5</ele><time>2026-05-01T06:12:32.443Z</time></trkpt><trkpt lat="44.5246933" lon="11.36951"><ele>36.25</ele><time>2026-05-01T06:12:34.443Z</time></trkpt><trkpt lat="44.5248067" lon="11.3694833"><ele>37.0</ele><time>2026-05-01T06:12:36.441Z</time></trkpt><trkpt lat="44.5249233" lon="11.3694633"><ele>37.0</ele><time>2026-05-01T06:12:38.439Z</time></trkpt><trkpt lat="44.525035" lon="11.3694483"><ele>37.0</ele><time>2026-05-01T06:12:40.44Z</time></trkpt><trkpt lat="44.5251383" lon="11.3694267"><ele>37.0</ele><time>2026-05-01T06:12:42.441Z</time></trkpt><trkpt lat="44.5252467" lon="11.3694183"><ele>37.0</ele><time>2026-05-01T06:12:44.443Z</time></trkpt><trkpt lat="44.5253617" lon="11.36941"><ele>37.0</ele><time>2026-05-01T06:12:46.444Z</time></trkpt><trkpt lat="44.525475" lon="11.3693933"><ele>37.25</ele><time>2026-05-01T06:12:48.44Z</time></trkpt><trkpt lat="44.5255883" lon="11.3693533"><ele>37.5</ele><time>2026-05-01T06:12:50.441Z</time></trkpt><trkpt lat="44.5257" lon="11.36929"><ele>37.75</ele><time>2026-05-01T06:12:52.442Z</time></trkpt><trkpt lat="44.52579" lon="11.3692117"><ele>38.0</ele><time>2026-05-01T06:12:54.441Z</time></trkpt><trkpt lat="44.52589" lon="11.369135"><ele>38.0</ele><time>2026-05-01T06:12:56.44Z</time></trkpt><trkpt lat="44.5259917" lon="11.369065"><ele>38.0</ele><time>2026-05-01T06:12:58.443Z</time></trkpt><trkpt lat="44.5260833" lon="11.3690133"><ele>38.0</ele><time>2026-05-01T06:13:00.442Z</time></trkpt><trkpt lat="44.526185" lon="11.3689633"><ele>38.0</ele><time>2026-05-01T06:13:02.439Z</time></trkpt><trkpt lat="44.526295" lon="11.3689217"><ele>38.0</ele><time>2026-05-01T06:13:04.442Z</time></trkpt><trkpt lat="44.5263983" lon="11.3689"><ele>38.0</ele><time>2026-05-01T06:13:06.442Z</time></trkpt><trkpt lat="44.5265133" lon="11.3688867"><ele>38.0</ele><time>2026-05-01T06:13:08.442Z</time></trkpt><trkpt lat="44.5266267" lon="11.3688783"><ele>38.0</ele><time>2026-05-01T06:13:10.443Z</time></trkpt><trkpt lat="44.5267367" lon="11.3688767"><ele>38.0</ele><time>2026-05-01T06:13:12.443Z</time></trkpt><trkpt lat="44.5268483" lon="11.36887"><ele>38.0</ele><time>2026-05-01T06:13:14.44Z</time></trkpt><trkpt lat="44.5269617" lon="11.3688333"><ele>38.0</ele><time>2026-05-01T06:13:16.442Z</time></trkpt><trkpt lat="44.5270717" lon="11.3687667"><ele>38.0</ele><time>2026-05-01T06:13:18.44Z</time></trkpt><trkpt lat="44.5271733" lon="11.368695"><ele>38.0</ele><time>2026-05-01T06:13:20.441Z</time></trkpt><trkpt lat="44.5272667" lon="11.3686217"><ele>37.8</ele><time>2026-05-01T06:13:22.441Z</time></trkpt><trkpt lat="44.52736" lon="11.3685333"><ele>37.599999999999994</ele><time>2026-05-01T06:13:24.44Z</time></trkpt><trkpt lat="44.5274483" lon="11.3684467"><ele>37.400000000000006</ele><time>2026-05-01T06:13:26.443Z</time></trkpt><trkpt lat="44.527535" lon="11.368355"><ele>37.2</ele><time>2026-05-01T06:13:28.443Z</time></trkpt><trkpt lat="44.5276283" lon="11.368265"><ele>37.0</ele><time>2026-05-01T06:13:30.442Z</time></trkpt><trkpt lat="44.5277183" lon="11.3681783"><ele>37.0</ele><time>2026-05-01T06:13:32.443Z</time></trkpt><trkpt lat="44.527795" lon="11.3680667"><ele>37.0</ele><time>2026-05-01T06:13:34.442Z</time></trkpt><trkpt lat="44.5278217" lon="11.367925"><ele>37.0</ele><time>2026-05-01T06:13:36.443Z</time></trkpt><trkpt lat="44.5277983" lon="11.3677883"><ele>37.0</ele><time>2026-05-01T06:13:38.442Z</time></trkpt><trkpt lat="44.5277567" lon="11.3676633"><ele>37.0</ele><time>2026-05-01T06:13:40.446Z</time></trkpt><trkpt lat="44.5277083" lon="11.36756"><ele>36.85714285714286</ele><time>2026-05-01T06:13:42.443Z</time></trkpt><trkpt lat="44.5276667" lon="11.36746"><ele>36.714285714285715</ele><time>2026-05-01T06:13:44.443Z</time></trkpt><trkpt lat="44.5276383" lon="11.3673533"><ele>36.57142857142857</ele><time>2026-05-01T06:13:46.443Z</time></trkpt><trkpt lat="44.527615" lon="11.3672483"><ele>36.42857142857143</ele><time>2026-05-01T06:13:48.442Z</time></trkpt><trkpt lat="44.5276567" lon="11.3671617"><ele>36.285714285714285</ele><time>2026-05-01T06:13:50.442Z</time></trkpt><trkpt lat="44.5277183" lon="11.367125"><ele>36.142857142857146</ele><time>2026-05-01T06:13:52.443Z</time></trkpt><trkpt lat="44.5277817" lon="11.36711"><ele>36.0</ele><time>2026-05-01T06:13:54.442Z</time></trkpt><trkpt lat="44.5278617" lon="11.3670733"><ele>36.00000000000001</ele><time>2026-05-01T06:13:56.443Z</time></trkpt><trkpt lat="44.52792" lon="11.3669933"><ele>36.0</ele><time>2026-05-01T06:13:58.441Z</time></trkpt><trkpt lat="44.52796" lon="11.36692"><ele>36.0</ele><time>2026-05-01T06:14:02.442Z</time></trkpt><trkpt lat="44.5279283" lon="11.3668067"><ele>36.0</ele><time>2026-05-01T06:14:07.442Z</time></trkpt><trkpt lat="44.527865" lon="11.3667717"><ele>36.0</ele><time>2026-05-01T06:14:10.443Z</time></trkpt><trkpt lat="44.52786" lon="11.3666683"><ele>36.00000000000001</ele><time>2026-05-01T06:14:15.439Z</time></trkpt><trkpt lat="44.527905" lon="11.3666017"><ele>36.0</ele><time>2026-05-01T06:14:18.442Z</time></trkpt><trkpt lat="44.5279317" lon="11.3665"><ele>36.0</ele><time>2026-05-01T06:14:22.443Z</time></trkpt><trkpt lat="44.527935" lon="11.3663983"><ele>36.0</ele><time>2026-05-01T06:14:25.44Z</time></trkpt><trkpt lat="44.527955" lon="11.3662767"><ele>36.0</ele><time>2026-05-01T06:14:28.441Z</time></trkpt><trkpt lat="44.52796" lon="11.3661667"><ele>36.0</ele><time>2026-05-01T06:14:30.439Z</time></trkpt><trkpt lat="44.527945" lon="11.3660133"><ele>36.0</ele><time>2026-05-01T06:14:32.442Z</time></trkpt><trkpt lat="44.52789" lon="11.365885"><ele>35.8</ele><time>2026-05-01T06:14:34.439Z</time></trkpt><trkpt lat="44.52781" lon="11.3657783"><ele>35.6</ele><time>2026-05-01T06:14:36.44Z</time></trkpt><trkpt lat="44.5277317" lon="11.365665"><ele>35.4</ele><time>2026-05-01T06:14:38.439Z</time></trkpt><trkpt lat="44.5276483" lon="11.365555"><ele>35.2</ele><time>2026-05-01T06:14:40.44Z</time></trkpt><trkpt lat="44.5275667" lon="11.3654567"><ele>35.0</ele><time>2026-05-01T06:14:42.44Z</time></trkpt><trkpt lat="44.5274967" lon="11.36535"><ele>35.0</ele><time>2026-05-01T06:14:44.439Z</time></trkpt><trkpt lat="44.5274317" lon="11.3652333"><ele>35.0</ele><time>2026-05-01T06:14:46.443Z</time></trkpt><trkpt lat="44.5273717" lon="11.3651233"><ele>35.0</ele><time>2026-05-01T06:14:48.443Z</time></trkpt><trkpt lat="44.5273033" lon="11.3650167"><ele>35.0</ele><time>2026-05-01T06:14:50.442Z</time></trkpt><trkpt lat="44.5272317" lon="11.3649133"><ele>35.0</ele><time>2026-05-01T06:14:52.441Z</time></trkpt><trkpt lat="44.5271617" lon="11.3648017"><ele>35.2</ele><time>2026-05-01T06:14:54.439Z</time></trkpt><trkpt lat="44.5270983" lon="11.3646883"><ele>35.4</ele><time>2026-05-01T06:14:56.439Z</time></trkpt><trkpt lat="44.5270333" lon="11.3645733"><ele>35.6</ele><time>2026-05-01T06:14:58.443Z</time></trkpt><trkpt lat="44.52697" lon="11.3644533"><ele>35.8</ele><time>2026-05-01T06:15:00.442Z</time></trkpt><trkpt lat="44.5269" lon="11.364345"><ele>36.0</ele><time>2026-05-01T06:15:02.443Z</time></trkpt><trkpt lat="44.526835" lon="11.3642333"><ele>36.0</ele><time>2026-05-01T06:15:04.443Z</time></trkpt><trkpt lat="44.5267683" lon="11.364125"><ele>36.0</ele><time>2026-05-01T06:15:06.443Z</time></trkpt><trkpt lat="44.5267033" lon="11.3640083"><ele>36.0</ele><time>2026-05-01T06:15:08.443Z</time></trkpt><trkpt lat="44.5266383" lon="11.3639017"><ele>36.0</ele><time>2026-05-01T06:15:10.442Z</time></trkpt><trkpt lat="44.52657" lon="11.3637933"><ele>36.0</ele><time>2026-05-01T06:15:12.442Z</time></trkpt><trkpt lat="44.526505" lon="11.363685"><ele>36.0</ele><time>2026-05-01T06:15:14.443Z</time></trkpt><trkpt lat="44.5264617" lon="11.363565"><ele>36.0</ele><time>2026-05-01T06:15:16.443Z</time></trkpt><trkpt lat="44.52646" lon="11.3634267"><ele>36.0</ele><time>2026-05-01T06:15:18.44Z</time></trkpt><trkpt lat="44.5264567" lon="11.3632767"><ele>36.0</ele><time>2026-05-01T06:15:20.441Z</time></trkpt><trkpt lat="44.5264117" lon="11.3631433"><ele>36.0</ele><time>2026-05-01T06:15:22.441Z</time></trkpt><trkpt lat="44.52632" lon="11.363065"><ele>36.166666666666664</ele><time>2026-05-01T06:15:24.44Z</time></trkpt><trkpt lat="44.5262267" lon="11.363045"><ele>36.333333333333336</ele><time>2026-05-01T06:15:26.441Z</time></trkpt><trkpt lat="44.5261533" lon="11.36303"><ele>36.5</ele><time>2026-05-01T06:15:28.442Z</time></trkpt><trkpt lat="44.526085" lon="11.3629733"><ele>36.66666666666667</ele><time>2026-05-01T06:15:31.441Z</time></trkpt><trkpt lat="44.5260133" lon="11.362975"><ele>36.833333333333336</ele><time>2026-05-01T06:15:34.44Z</time></trkpt><trkpt lat="44.525955" lon="11.3630183"><ele>37.0</ele><time>2026-05-01T06:15:37.443Z</time></trkpt><trkpt lat="44.5258967" lon="11.362945"><ele>37.0</ele><time>2026-05-01T06:15:40.441Z</time></trkpt><trkpt lat="44.525865" lon="11.3628617"><ele>37.0</ele><time>2026-05-01T06:15:42.443Z</time></trkpt><trkpt lat="44.5258283" lon="11.3627583"><ele>37.0</ele><time>2026-05-01T06:15:44.44Z</time></trkpt><trkpt lat="44.5257767" lon="11.362665"><ele>37.0</ele><time>2026-05-01T06:15:46.442Z</time></trkpt><trkpt lat="44.52572" lon="11.3625617"><ele>37.0</ele><time>2026-05-01T06:15:48.443Z</time></trkpt><trkpt lat="44.5256617" lon="11.362465"><ele>37.0</ele><time>2026-05-01T06:15:50.44Z</time></trkpt><trkpt lat="44.525605" lon="11.3623667"><ele>37.0</ele><time>2026-05-01T06:15:52.44Z</time></trkpt><trkpt lat="44.5255433" lon="11.36227"><ele>37.0</ele><time>2026-05-01T06:15:54.44Z</time></trkpt><trkpt lat="44.5254783" lon="11.3621733"><ele>37.0</ele><time>2026-05-01T06:15:56.439Z</time></trkpt><trkpt lat="44.5254033" lon="11.3621167"><ele>37.0</ele><time>2026-05-01T06:15:58.439Z</time></trkpt><trkpt lat="44.52534" lon="11.362035"><ele>37.0</ele><time>2026-05-01T06:16:00.442Z</time></trkpt><trkpt lat="44.5252733" lon="11.3619583"><ele>37.0</ele><time>2026-05-01T06:16:02.443Z</time></trkpt><trkpt lat="44.5252067" lon="11.361875"><ele>36.6</ele><time>2026-05-01T06:16:04.442Z</time></trkpt><trkpt lat="44.525135" lon="11.3617733"><ele>36.2</ele><time>2026-05-01T06:16:06.442Z</time></trkpt><trkpt lat="44.525055" lon="11.361675"><ele>35.8</ele><time>2026-05-01T06:16:08.442Z</time></trkpt><trkpt lat="44.5249733" lon="11.3615717"><ele>35.4</ele><time>2026-05-01T06:16:10.443Z</time></trkpt><trkpt lat="44.5248867" lon="11.3614717"><ele>35.0</ele><time>2026-05-01T06:16:12.439Z</time></trkpt><trkpt lat="44.5248017" lon="11.3613667"><ele>35.25</ele><time>2026-05-01T06:16:14.442Z</time></trkpt><trkpt lat="44.5247117" lon="11.3612517"><ele>35.5</ele><time>2026-05-01T06:16:16.44Z</time></trkpt><trkpt lat="44.52462" lon="11.3611567"><ele>35.75</ele><time>2026-05-01T06:16:18.443Z</time></trkpt><trkpt lat="44.5245283" lon="11.361055"><ele>36.0</ele><time>2026-05-01T06:16:20.439Z</time></trkpt><trkpt lat="44.52444" lon="11.3609517"><ele>36.2</ele><time>2026-05-01T06:16:22.441Z</time></trkpt><trkpt lat="44.5243483" lon="11.3608617"><ele>36.400000000000006</ele><time>2026-05-01T06:16:24.44Z</time></trkpt><trkpt lat="44.5242583" lon="11.3607817"><ele>36.6</ele><time>2026-05-01T06:16:26.441Z</time></trkpt><trkpt lat="44.5242033" lon="11.36073"><ele>36.800000000000004</ele><time>2026-05-01T06:16:27.441Z</time></trkpt><trkpt lat="44.5241467" lon="11.360685"><ele>37.0</ele><time>2026-05-01T06:16:28.441Z</time></trkpt><trkpt lat="44.5240483" lon="11.360595"><ele>37.2</ele><time>2026-05-01T06:16:30.443Z</time></trkpt><trkpt lat="44.5239483" lon="11.3605"><ele>37.400000000000006</ele><time>2026-05-01T06:16:32.443Z</time></trkpt><trkpt lat="44.5238533" lon="11.3604083"><ele>37.599999999999994</ele><time>2026-05-01T06:16:34.442Z</time></trkpt><trkpt lat="44.5237967" lon="11.3603667"><ele>37.8</ele><time>2026-05-01T06:16:35.44Z</time></trkpt><trkpt lat="44.5236983" lon="11.36029"><ele>38.0</ele><time>2026-05-01T06:16:37.439Z</time></trkpt><trkpt lat="44.5236083" lon="11.3602083"><ele>37.199999999999996</ele><time>2026-05-01T06:16:39.439Z</time></trkpt><trkpt lat="44.523515" lon="11.3601283"><ele>36.4</ele><time>2026-05-01T06:16:41.44Z</time></trkpt><trkpt lat="44.523435" lon="11.3600367"><ele>35.599999999999994</ele><time>2026-05-01T06:16:43.443Z</time></trkpt><trkpt lat="44.523345" lon="11.3599417"><ele>34.8</ele><time>2026-05-01T06:16:45.439Z</time></trkpt><trkpt lat="44.5232683" lon="11.3598833"><ele>34.0</ele><time>2026-05-01T06:16:47.442Z</time></trkpt><trkpt lat="44.52317" lon="11.3598083"><ele>34.0</ele><time>2026-05-01T06:16:49.44Z</time></trkpt><trkpt lat="44.523085" lon="11.3597283"><ele>34.0</ele><time>2026-05-01T06:16:51.44Z</time></trkpt><trkpt lat="44.522985" lon="11.3596683"><ele>34.0</ele><time>2026-05-01T06:16:53.439Z</time></trkpt><trkpt lat="44.522905" lon="11.3595983"><ele>34.0</ele><time>2026-05-01T06:16:55.439Z</time></trkpt><trkpt lat="44.52284" lon="11.3595167"><ele>34.0</ele><time>2026-05-01T06:16:57.44Z</time></trkpt><trkpt lat="44.522785" lon="11.359405"><ele>34.2</ele><time>2026-05-01T06:16:59.446Z</time></trkpt><trkpt lat="44.5227083" lon="11.3593183"><ele>34.4</ele><time>2026-05-01T06:17:01.443Z</time></trkpt><trkpt lat="44.5226233" lon="11.3592383"><ele>34.6</ele><time>2026-05-01T06:17:03.443Z</time></trkpt><trkpt lat="44.52254" lon="11.359165"><ele>34.8</ele><time>2026-05-01T06:17:05.443Z</time></trkpt><trkpt lat="44.5224517" lon="11.3590867"><ele>35.0</ele><time>2026-05-01T06:17:07.44Z</time></trkpt><trkpt lat="44.5223617" lon="11.3590083"><ele>35.0</ele><time>2026-05-01T06:17:09.443Z</time></trkpt><trkpt lat="44.5222717" lon="11.35893"><ele>35.0</ele><time>2026-05-01T06:17:11.44Z</time></trkpt><trkpt lat="44.5221667" lon="11.35887"><ele>35.0</ele><time>2026-05-01T06:17:13.443Z</time></trkpt><trkpt lat="44.5220483" lon="11.3587933"><ele>35.0</ele><time>2026-05-01T06:17:15.44Z</time></trkpt><trkpt lat="44.521985" lon="11.3587533"><ele>35.0</ele><time>2026-05-01T06:17:16.443Z</time></trkpt><trkpt lat="44.521925" lon="11.358715"><ele>35.33333333333333</ele><time>2026-05-01T06:17:17.44Z</time></trkpt><trkpt lat="44.5218667" lon="11.3586717"><ele>35.666666666666664</ele><time>2026-05-01T06:17:18.44Z</time></trkpt><trkpt lat="44.52181" lon="11.3586317"><ele>36.0</ele><time>2026-05-01T06:17:19.439Z</time></trkpt><trkpt lat="44.5217083" lon="11.3585667"><ele>36.333333333333336</ele><time>2026-05-01T06:17:21.44Z</time></trkpt><trkpt lat="44.5215933" lon="11.358495"><ele>36.66666666666667</ele><time>2026-05-01T06:17:23.44Z</time></trkpt><trkpt lat="44.5215333" lon="11.35846"><ele>37.0</ele><time>2026-05-01T06:17:24.44Z</time></trkpt><trkpt lat="44.521475" lon="11.358415"><ele>37.0</ele><time>2026-05-01T06:17:25.443Z</time></trkpt><trkpt lat="44.5213633" lon="11.3583383"><ele>37.0</ele><time>2026-05-01T06:17:27.443Z</time></trkpt><trkpt lat="44.5212583" lon="11.3582683"><ele>37.0</ele><time>2026-05-01T06:17:29.439Z</time></trkpt><trkpt lat="44.52115" lon="11.35821"><ele>37.0</ele><time>2026-05-01T06:17:31.443Z</time></trkpt><trkpt lat="44.5210533" lon="11.3581467"><ele>37.2</ele><time>2026-05-01T06:17:33.442Z</time></trkpt><trkpt lat="44.52096" lon="11.3580833"><ele>37.400000000000006</ele><time>2026-05-01T06:17:35.443Z</time></trkpt><trkpt lat="44.5208717" lon="11.358015"><ele>37.599999999999994</ele><time>2026-05-01T06:17:37.443Z</time></trkpt><trkpt lat="44.52078" lon="11.3579533"><ele>37.8</ele><time>2026-05-01T06:17:39.442Z</time></trkpt><trkpt lat="44.5206883" lon="11.3578817"><ele>38.0</ele><time>2026-05-01T06:17:41.443Z</time></trkpt><trkpt lat="44.5205933" lon="11.3578233"><ele>38.0</ele><time>2026-05-01T06:17:43.443Z</time></trkpt><trkpt lat="44.5204967" lon="11.3577683"><ele>38.0</ele><time>2026-05-01T06:17:45.442Z</time></trkpt><trkpt lat="44.5204" lon="11.357705"><ele>38.0</ele><time>2026-05-01T06:17:47.443Z</time></trkpt><trkpt lat="44.5203017" lon="11.35764"><ele>38.0</ele><time>2026-05-01T06:17:49.44Z</time></trkpt><trkpt lat="44.5202033" lon="11.357585"><ele>38.0</ele><time>2026-05-01T06:17:51.441Z</time></trkpt><trkpt lat="44.5201167" lon="11.3575233"><ele>37.6</ele><time>2026-05-01T06:17:53.44Z</time></trkpt><trkpt lat="44.52002" lon="11.35747"><ele>37.199999999999996</ele><time>2026-05-01T06:17:55.444Z</time></trkpt><trkpt lat="44.519925" lon="11.3574067"><ele>36.8</ele><time>2026-05-01T06:17:57.442Z</time></trkpt><trkpt lat="44.519825" lon="11.35735"><ele>36.4</ele><time>2026-05-01T06:17:59.442Z</time></trkpt><trkpt lat="44.519735" lon="11.3573083"><ele>36.0</ele><time>2026-05-01T06:18:01.441Z</time></trkpt><trkpt lat="44.519645" lon="11.35725"><ele>36.666666666666664</ele><time>2026-05-01T06:18:03.442Z</time></trkpt><trkpt lat="44.5195617" lon="11.35719"><ele>37.333333333333336</ele><time>2026-05-01T06:18:05.442Z</time></trkpt><trkpt lat="44.5194833" lon="11.3571133"><ele>38.0</ele><time>2026-05-01T06:18:07.443Z</time></trkpt><trkpt lat="44.5194083" lon="11.3570633"><ele>38.66666666666667</ele><time>2026-05-01T06:18:09.443Z</time></trkpt><trkpt lat="44.5193283" lon="11.35701"><ele>39.333333333333336</ele><time>2026-05-01T06:18:11.443Z</time></trkpt><trkpt lat="44.51926" lon="11.3569567"><ele>40.0</ele><time>2026-05-01T06:18:13.44Z</time></trkpt><trkpt lat="44.5191733" lon="11.3568983"><ele>40.0</ele><time>2026-05-01T06:18:15.443Z</time></trkpt><trkpt lat="44.5190867" lon="11.3568467"><ele>40.0</ele><time>2026-05-01T06:18:17.441Z</time></trkpt><trkpt lat="44.519005" lon="11.3568033"><ele>40.0</ele><time>2026-05-01T06:18:19.443Z</time></trkpt><trkpt lat="44.5189417" lon="11.3567667"><ele>40.0</ele><time>2026-05-01T06:18:21.443Z</time></trkpt><trkpt lat="44.5188783" lon="11.3567267"><ele>40.0</ele><time>2026-05-01T06:18:24.44Z</time></trkpt><trkpt lat="44.5188067" lon="11.3566933"><ele>40.0</ele><time>2026-05-01T06:18:29.44Z</time></trkpt><trkpt lat="44.51873" lon="11.3566583"><ele>40.16666666666667</ele><time>2026-05-01T06:18:34.44Z</time></trkpt><trkpt lat="44.51865" lon="11.3566067"><ele>40.333333333333336</ele><time>2026-05-01T06:18:38.44Z</time></trkpt><trkpt lat="44.5185683" lon="11.3565417"><ele>40.5</ele><time>2026-05-01T06:18:41.443Z</time></trkpt><trkpt lat="44.5185067" lon="11.3564767"><ele>40.666666666666664</ele><time>2026-05-01T06:18:43.443Z</time></trkpt><trkpt lat="44.5184417" lon="11.3564333"><ele>40.83333333333333</ele><time>2026-05-01T06:18:45.442Z</time></trkpt><trkpt lat="44.51837" lon="11.3563933"><ele>41.0</ele><time>2026-05-01T06:18:47.442Z</time></trkpt><trkpt lat="44.51829" lon="11.3563433"><ele>40.599999999999994</ele><time>2026-05-01T06:18:49.443Z</time></trkpt><trkpt lat="44.5182067" lon="11.356285"><ele>40.199999999999996</ele><time>2026-05-01T06:18:51.44Z</time></trkpt><trkpt lat="44.5181317" lon="11.3562133"><ele>39.8</ele><time>2026-05-01T06:18:53.442Z</time></trkpt><trkpt lat="44.5180583" lon="11.3561583"><ele>39.4</ele><time>2026-05-01T06:18:55.443Z</time></trkpt><trkpt lat="44.5179733" lon="11.3561033"><ele>39.0</ele><time>2026-05-01T06:18:57.442Z</time></trkpt><trkpt lat="44.5178933" lon="11.35603"><ele>39.0</ele><time>2026-05-01T06:18:59.442Z</time></trkpt><trkpt lat="44.51781" lon="11.3559617"><ele>39.0</ele><time>2026-05-01T06:19:01.442Z</time></trkpt><trkpt lat="44.5177383" lon="11.3558883"><ele>39.0</ele><time>2026-05-01T06:19:03.443Z</time></trkpt><trkpt lat="44.5176633" lon="11.3558217"><ele>39.0</ele><time>2026-05-01T06:19:05.44Z</time></trkpt><trkpt lat="44.5175867" lon="11.3557583"><ele>39.0</ele><time>2026-05-01T06:19:07.443Z</time></trkpt><trkpt lat="44.5175133" lon="11.3556867"><ele>39.0</ele><time>2026-05-01T06:19:09.443Z</time></trkpt><trkpt lat="44.517435" lon="11.3556233"><ele>39.0</ele><time>2026-05-01T06:19:11.443Z</time></trkpt><trkpt lat="44.5173617" lon="11.355555"><ele>39.0</ele><time>2026-05-01T06:19:13.443Z</time></trkpt><trkpt lat="44.5172933" lon="11.3554883"><ele>39.0</ele><time>2026-05-01T06:19:15.443Z</time></trkpt><trkpt lat="44.5172217" lon="11.3554267"><ele>39.0</ele><time>2026-05-01T06:19:17.443Z</time></trkpt><trkpt lat="44.517145" lon="11.3553633"><ele>39.0</ele><time>2026-05-01T06:19:19.439Z</time></trkpt><trkpt lat="44.5170733" lon="11.355295"><ele>39.2</ele><time>2026-05-01T06:19:21.439Z</time></trkpt><trkpt lat="44.5169883" lon="11.3552267"><ele>39.4</ele><time>2026-05-01T06:19:23.443Z</time></trkpt><trkpt lat="44.5168967" lon="11.3551517"><ele>39.6</ele><time>2026-05-01T06:19:25.439Z</time></trkpt><trkpt lat="44.5167967" lon="11.355075"><ele>39.8</ele><time>2026-05-01T06:19:27.443Z</time></trkpt><trkpt lat="44.5167017" lon="11.3550083"><ele>40.0</ele><time>2026-05-01T06:19:29.443Z</time></trkpt><trkpt lat="44.51661" lon="11.3549367"><ele>40.0</ele><time>2026-05-01T06:19:31.443Z</time></trkpt><trkpt lat="44.5165183" lon="11.3548533"><ele>40.0</ele><time>2026-05-01T06:19:33.441Z</time></trkpt><trkpt lat="44.5164283" lon="11.3547717"><ele>40.0</ele><time>2026-05-01T06:19:35.444Z</time></trkpt><trkpt lat="44.5163283" lon="11.3547033"><ele>40.0</ele><time>2026-05-01T06:19:37.442Z</time></trkpt><trkpt lat="44.5162217" lon="11.354655"><ele>40.0</ele><time>2026-05-01T06:19:39.442Z</time></trkpt><trkpt lat="44.51611" lon="11.3546233"><ele>40.0</ele><time>2026-05-01T06:19:41.442Z</time></trkpt><trkpt lat="44.5160033" lon="11.3545883"><ele>40.0</ele><time>2026-05-01T06:19:43.439Z</time></trkpt><trkpt lat="44.5159" lon="11.354565"><ele>40.0</ele><time>2026-05-01T06:19:45.443Z</time></trkpt><trkpt lat="44.5158067" lon="11.3545467"><ele>40.0</ele><time>2026-05-01T06:19:47.442Z</time></trkpt><trkpt lat="44.515715" lon="11.35454"><ele>40.0</ele><time>2026-05-01T06:19:49.441Z</time></trkpt><trkpt lat="44.51562" lon="11.3545317"><ele>40.0</ele><time>2026-05-01T06:19:51.442Z</time></trkpt><trkpt lat="44.5155167" lon="11.35453"><ele>40.0</ele><time>2026-05-01T06:19:53.443Z</time></trkpt><trkpt lat="44.5154183" lon="11.3545083"><ele>40.0</ele><time>2026-05-01T06:19:55.44Z</time></trkpt><trkpt lat="44.5153217" lon="11.3544883"><ele>40.0</ele><time>2026-05-01T06:19:57.443Z</time></trkpt><trkpt lat="44.51523" lon="11.35448"><ele>40.0</ele><time>2026-05-01T06:19:59.443Z</time></trkpt><trkpt lat="44.5151367" lon="11.35447"><ele>40.4</ele><time>2026-05-01T06:20:01.443Z</time></trkpt><trkpt lat="44.515035" lon="11.3544667"><ele>40.8</ele><time>2026-05-01T06:20:03.443Z</time></trkpt><trkpt lat="44.5149317" lon="11.3544667"><ele>41.2</ele><time>2026-05-01T06:20:05.443Z</time></trkpt><trkpt lat="44.5148233" lon="11.3544717"><ele>41.6</ele><time>2026-05-01T06:20:07.442Z</time></trkpt><trkpt lat="44.5147167" lon="11.35447"><ele>42.0</ele><time>2026-05-01T06:20:09.442Z</time></trkpt><trkpt lat="44.51461" lon="11.3544617"><ele>42.2</ele><time>2026-05-01T06:20:11.441Z</time></trkpt><trkpt lat="44.5145083" lon="11.3544417"><ele>42.400000000000006</ele><time>2026-05-01T06:20:13.443Z</time></trkpt><trkpt lat="44.5144117" lon="11.35442"><ele>42.599999999999994</ele><time>2026-05-01T06:20:15.443Z</time></trkpt><trkpt lat="44.5143133" lon="11.3544"><ele>42.8</ele><time>2026-05-01T06:20:17.44Z</time></trkpt><trkpt lat="44.5142183" lon="11.35438"><ele>43.0</ele><time>2026-05-01T06:20:19.442Z</time></trkpt><trkpt lat="44.5141233" lon="11.3543483"><ele>43.0</ele><time>2026-05-01T06:20:21.439Z</time></trkpt><trkpt lat="44.5140283" lon="11.3543133"><ele>43.0</ele><time>2026-05-01T06:20:23.442Z</time></trkpt><trkpt lat="44.5139317" lon="11.3542683"><ele>43.0</ele><time>2026-05-01T06:20:25.443Z</time></trkpt><trkpt lat="44.5138383" lon="11.3542033"><ele>43.0</ele><time>2026-05-01T06:20:27.443Z</time></trkpt><trkpt lat="44.5137467" lon="11.3541483"><ele>43.0</ele><time>2026-05-01T06:20:29.443Z</time></trkpt><trkpt lat="44.5136433" lon="11.35409"><ele>43.0</ele><time>2026-05-01T06:20:31.439Z</time></trkpt><trkpt lat="44.5135483" lon="11.354025"><ele>43.0</ele><time>2026-05-01T06:20:33.443Z</time></trkpt><trkpt lat="44.5134583" lon="11.353975"><ele>43.0</ele><time>2026-05-01T06:20:35.44Z</time></trkpt><trkpt lat="44.5133683" lon="11.3539267"><ele>43.0</ele><time>2026-05-01T06:20:37.442Z</time></trkpt><trkpt lat="44.5132733" lon="11.3538933"><ele>43.0</ele><time>2026-05-01T06:20:39.44Z</time></trkpt><trkpt lat="44.51319" lon="11.3538517"><ele>43.0</ele><time>2026-05-01T06:20:41.442Z</time></trkpt><trkpt lat="44.5131017" lon="11.3538117"><ele>43.0</ele><time>2026-05-01T06:20:43.441Z</time></trkpt><trkpt lat="44.51301" lon="11.353765"><ele>43.0</ele><time>2026-05-01T06:20:45.443Z</time></trkpt><trkpt lat="44.5129233" lon="11.3537133"><ele>43.0</ele><time>2026-05-01T06:20:47.442Z</time></trkpt><trkpt lat="44.51284" lon="11.35367"><ele>43.0</ele><time>2026-05-01T06:20:49.442Z</time></trkpt><trkpt lat="44.5127567" lon="11.353635"><ele>43.0</ele><time>2026-05-01T06:20:51.44Z</time></trkpt><trkpt lat="44.5126683" lon="11.3535967"><ele>43.0</ele><time>2026-05-01T06:20:53.438Z</time></trkpt><trkpt lat="44.51257" lon="11.353555"><ele>43.0</ele><time>2026-05-01T06:20:55.444Z</time></trkpt><trkpt lat="44.51247" lon="11.3535"><ele>43.0</ele><time>2026-05-01T06:20:57.439Z</time></trkpt><trkpt lat="44.5123767" lon="11.3534633"><ele>43.0</ele><time>2026-05-01T06:20:59.44Z</time></trkpt><trkpt lat="44.5122867" lon="11.3534233"><ele>43.0</ele><time>2026-05-01T06:21:01.44Z</time></trkpt><trkpt lat="44.5121883" lon="11.3533783"><ele>43.0</ele><time>2026-05-01T06:21:03.44Z</time></trkpt><trkpt lat="44.5120917" lon="11.35332"><ele>43.0</ele><time>2026-05-01T06:21:05.44Z</time></trkpt><trkpt lat="44.5119917" lon="11.3532667"><ele>43.0</ele><time>2026-05-01T06:21:07.441Z</time></trkpt><trkpt lat="44.51189" lon="11.3532267"><ele>43.0</ele><time>2026-05-01T06:21:09.442Z</time></trkpt><trkpt lat="44.5117983" lon="11.3531817"><ele>43.2</ele><time>2026-05-01T06:21:11.44Z</time></trkpt><trkpt lat="44.511705" lon="11.353135"><ele>43.4</ele><time>2026-05-01T06:21:13.441Z</time></trkpt><trkpt lat="44.5116083" lon="11.3530883"><ele>43.6</ele><time>2026-05-01T06:21:15.443Z</time></trkpt><trkpt lat="44.511515" lon="11.3530417"><ele>43.800000000000004</ele><time>2026-05-01T06:21:17.442Z</time></trkpt><trkpt lat="44.5114117" lon="11.3530017"><ele>44.0</ele><time>2026-05-01T06:21:19.443Z</time></trkpt><trkpt lat="44.5113167" lon="11.3529483"><ele>44.2</ele><time>2026-05-01T06:21:21.442Z</time></trkpt><trkpt lat="44.5112367" lon="11.3528917"><ele>44.400000000000006</ele><time>2026-05-01T06:21:23.442Z</time></trkpt><trkpt lat="44.5111617" lon="11.352845"><ele>44.6</ele><time>2026-05-01T06:21:25.443Z</time></trkpt><trkpt lat="44.511065" lon="11.3528117"><ele>44.8</ele><time>2026-05-01T06:21:27.443Z</time></trkpt><trkpt lat="44.51098" lon="11.352765"><ele>45.0</ele><time>2026-05-01T06:21:29.44Z</time></trkpt><trkpt lat="44.5108983" lon="11.3527183"><ele>45.0</ele><time>2026-05-01T06:21:31.442Z</time></trkpt><trkpt lat="44.5108117" lon="11.3526733"><ele>45.0</ele><time>2026-05-01T06:21:33.443Z</time></trkpt><trkpt lat="44.5107133" lon="11.352625"><ele>45.0</ele><time>2026-05-01T06:21:35.442Z</time></trkpt><trkpt lat="44.5106217" lon="11.3525783"><ele>45.0</ele><time>2026-05-01T06:21:37.442Z</time></trkpt><trkpt lat="44.5105317" lon="11.3525367"><ele>45.0</ele><time>2026-05-01T06:21:39.441Z</time></trkpt><trkpt lat="44.5104483" lon="11.3524867"><ele>45.166666666666664</ele><time>2026-05-01T06:21:41.442Z</time></trkpt><trkpt lat="44.5103717" lon="11.352445"><ele>45.333333333333336</ele><time>2026-05-01T06:21:43.443Z</time></trkpt><trkpt lat="44.510295" lon="11.352405"><ele>45.5</ele><time>2026-05-01T06:21:45.442Z</time></trkpt><trkpt lat="44.5102117" lon="11.3523617"><ele>45.66666666666667</ele><time>2026-05-01T06:21:47.443Z</time></trkpt><trkpt lat="44.5101333" lon="11.3523183"><ele>45.833333333333336</ele><time>2026-05-01T06:21:49.44Z</time></trkpt><trkpt lat="44.5100483" lon="11.3523017"><ele>46.0</ele><time>2026-05-01T06:21:51.439Z</time></trkpt><trkpt lat="44.509965" lon="11.3522733"><ele>46.0</ele><time>2026-05-01T06:21:53.439Z</time></trkpt><trkpt lat="44.5098717" lon="11.3522317"><ele>46.0</ele><time>2026-05-01T06:21:55.44Z</time></trkpt><trkpt lat="44.5097783" lon="11.3521817"><ele>46.0</ele><time>2026-05-01T06:21:57.439Z</time></trkpt><trkpt lat="44.5096833" lon="11.3521533"><ele>46.0</ele><time>2026-05-01T06:21:59.439Z</time></trkpt><trkpt lat="44.5095917" lon="11.352125"><ele>46.0</ele><time>2026-05-01T06:22:01.44Z</time></trkpt><trkpt lat="44.5094867" lon="11.3520767"><ele>45.8</ele><time>2026-05-01T06:22:03.444Z</time></trkpt><trkpt lat="44.5093933" lon="11.3520417"><ele>45.599999999999994</ele><time>2026-05-01T06:22:05.443Z</time></trkpt><trkpt lat="44.5093067" lon="11.3519883"><ele>45.4</ele><time>2026-05-01T06:22:07.44Z</time></trkpt><trkpt lat="44.5092183" lon="11.3519233"><ele>45.2</ele><time>2026-05-01T06:22:09.442Z</time></trkpt><trkpt lat="44.509155" lon="11.35187"><ele>45.0</ele><time>2026-05-01T06:22:11.44Z</time></trkpt><trkpt lat="44.509075" lon="11.3518183"><ele>45.0</ele><time>2026-05-01T06:22:13.44Z</time></trkpt><trkpt lat="44.508995" lon="11.3517517"><ele>45.0</ele><time>2026-05-01T06:22:15.443Z</time></trkpt><trkpt lat="44.5089083" lon="11.3517083"><ele>45.0</ele><time>2026-05-01T06:22:17.439Z</time></trkpt><trkpt lat="44.5088317" lon="11.3516567"><ele>45.0</ele><time>2026-05-01T06:22:19.441Z</time></trkpt><trkpt lat="44.5087533" lon="11.3516133"><ele>45.0</ele><time>2026-05-01T06:22:21.44Z</time></trkpt><trkpt lat="44.50867" lon="11.35158"><ele>45.0</ele><time>2026-05-01T06:22:23.439Z</time></trkpt><trkpt lat="44.5085917" lon="11.35155"><ele>45.0</ele><time>2026-05-01T06:22:25.44Z</time></trkpt><trkpt lat="44.5085233" lon="11.3515133"><ele>45.0</ele><time>2026-05-01T06:22:28.441Z</time></trkpt><trkpt lat="44.5084517" lon="11.35149"><ele>45.0</ele><time>2026-05-01T06:22:31.439Z</time></trkpt><trkpt lat="44.5083733" lon="11.3514783"><ele>45.0</ele><time>2026-05-01T06:22:34.441Z</time></trkpt><trkpt lat="44.5083067" lon="11.35153"><ele>45.0</ele><time>2026-05-01T06:22:36.443Z</time></trkpt><trkpt lat="44.5082733" lon="11.35165"><ele>45.0</ele><time>2026-05-01T06:22:38.439Z</time></trkpt><trkpt lat="44.5082533" lon="11.3517983"><ele>45.0</ele><time>2026-05-01T06:22:40.44Z</time></trkpt><trkpt lat="44.5082317" lon="11.3519567"><ele>45.0</ele><time>2026-05-01T06:22:42.44Z</time></trkpt><trkpt lat="44.5082117" lon="11.352105"><ele>45.0</ele><time>2026-05-01T06:22:44.44Z</time></trkpt><trkpt lat="44.508185" lon="11.3522567"><ele>45.0</ele><time>2026-05-01T06:22:46.443Z</time></trkpt><trkpt lat="44.5081467" lon="11.352415"><ele>44.6</ele><time>2026-05-01T06:22:48.44Z</time></trkpt><trkpt lat="44.50812" lon="11.35258"><ele>44.2</ele><time>2026-05-01T06:22:50.44Z</time></trkpt><trkpt lat="44.5080917" lon="11.3527383"><ele>43.8</ele><time>2026-05-01T06:22:52.44Z</time></trkpt><trkpt lat="44.50807" lon="11.3528833"><ele>43.4</ele><time>2026-05-01T06:22:54.44Z</time></trkpt><trkpt lat="44.508045" lon="11.3530033"><ele>43.0</ele><time>2026-05-01T06:22:56.441Z</time></trkpt><trkpt lat="44.5080183" lon="11.3531333"><ele>43.0</ele><time>2026-05-01T06:22:58.443Z</time></trkpt><trkpt lat="44.507995" lon="11.3532683"><ele>43.0</ele><time>2026-05-01T06:23:00.44Z</time></trkpt><trkpt lat="44.507995" lon="11.35342"><ele>43.0</ele><time>2026-05-01T06:23:02.442Z</time></trkpt><trkpt lat="44.5079817" lon="11.353575"><ele>43.0</ele><time>2026-05-01T06:23:04.443Z</time></trkpt><trkpt lat="44.5079617" lon="11.3537383"><ele>43.0</ele><time>2026-05-01T06:23:06.446Z</time></trkpt><trkpt lat="44.5079433" lon="11.3539017"><ele>43.0</ele><time>2026-05-01T06:23:08.44Z</time></trkpt><trkpt lat="44.507915" lon="11.354055"><ele>43.0</ele><time>2026-05-01T06:23:10.442Z</time></trkpt><trkpt lat="44.507885" lon="11.3542017"><ele>43.0</ele><time>2026-05-01T06:23:12.443Z</time></trkpt><trkpt lat="44.5078633" lon="11.3543617"><ele>43.0</ele><time>2026-05-01T06:23:14.443Z</time></trkpt><trkpt lat="44.5078583" lon="11.35445"><ele>43.0</ele><time>2026-05-01T06:23:15.443Z</time></trkpt><trkpt lat="44.507845" lon="11.3545383"><ele>43.599999999999994</ele><time>2026-05-01T06:23:16.442Z</time></trkpt><trkpt lat="44.50782" lon="11.3547067"><ele>44.199999999999996</ele><time>2026-05-01T06:23:18.439Z</time></trkpt><trkpt lat="44.5077917" lon="11.3548483"><ele>44.8</ele><time>2026-05-01T06:23:20.439Z</time></trkpt><trkpt lat="44.507775" lon="11.354975"><ele>45.4</ele><time>2026-05-01T06:23:22.44Z</time></trkpt><trkpt lat="44.5077583" lon="11.3550933"><ele>46.0</ele><time>2026-05-01T06:23:24.44Z</time></trkpt><trkpt lat="44.50774" lon="11.3552083"><ele>46.0</ele><time>2026-05-01T06:23:26.442Z</time></trkpt><trkpt lat="44.5077233" lon="11.3553217"><ele>46.0</ele><time>2026-05-01T06:23:29.442Z</time></trkpt><trkpt lat="44.5076367" lon="11.3553367"><ele>46.0</ele><time>2026-05-01T06:23:34.439Z</time></trkpt><trkpt lat="44.507565" lon="11.3553083"><ele>46.0</ele><time>2026-05-01T06:23:36.443Z</time></trkpt><trkpt lat="44.50748" lon="11.3552867"><ele>46.0</ele><time>2026-05-01T06:23:38.443Z</time></trkpt><trkpt lat="44.50739" lon="11.35526"><ele>46.0</ele><time>2026-05-01T06:23:40.443Z</time></trkpt><trkpt lat="44.507295" lon="11.35522"><ele>46.0</ele><time>2026-05-01T06:23:42.442Z</time></trkpt><trkpt lat="44.5072017" lon="11.3551733"><ele>46.0</ele><time>2026-05-01T06:23:44.442Z</time></trkpt><trkpt lat="44.50711" lon="11.355135"><ele>46.0</ele><time>2026-05-01T06:23:46.442Z</time></trkpt><trkpt lat="44.507015" lon="11.35508"><ele>46.0</ele><time>2026-05-01T06:23:48.439Z</time></trkpt><trkpt lat="44.50691" lon="11.3550367"><ele>46.0</ele><time>2026-05-01T06:23:50.441Z</time></trkpt><trkpt lat="44.5068167" lon="11.3549983"><ele>45.4</ele><time>2026-05-01T06:23:52.442Z</time></trkpt><trkpt lat="44.506715" lon="11.3549483"><ele>44.8</ele><time>2026-05-01T06:23:54.439Z</time></trkpt><trkpt lat="44.5066133" lon="11.3548967"><ele>44.199999999999996</ele><time>2026-05-01T06:23:56.442Z</time></trkpt><trkpt lat="44.5065133" lon="11.354855"><ele>43.599999999999994</ele><time>2026-05-01T06:23:58.443Z</time></trkpt><trkpt lat="44.5064167" lon="11.354795"><ele>43.0</ele><time>2026-05-01T06:24:00.443Z</time></trkpt><trkpt lat="44.5063233" lon="11.35474"><ele>43.0</ele><time>2026-05-01T06:24:02.441Z</time></trkpt><trkpt lat="44.5062333" lon="11.3546917"><ele>43.0</ele><time>2026-05-01T06:24:04.443Z</time></trkpt><trkpt lat="44.5061467" lon="11.3546467"><ele>43.0</ele><time>2026-05-01T06:24:06.439Z</time></trkpt><trkpt lat="44.5060633" lon="11.3546"><ele>43.0</ele><time>2026-05-01T06:24:08.443Z</time></trkpt><trkpt lat="44.50597" lon="11.354565"><ele>43.0</ele><time>2026-05-01T06:24:10.444Z</time></trkpt><trkpt lat="44.50588" lon="11.3545233"><ele>43.0</ele><time>2026-05-01T06:24:12.443Z</time></trkpt><trkpt lat="44.5058017" lon="11.3544817"><ele>43.0</ele><time>2026-05-01T06:24:14.439Z</time></trkpt><trkpt lat="44.505735" lon="11.3544417"><ele>43.0</ele><time>2026-05-01T06:24:16.443Z</time></trkpt><trkpt lat="44.5056633" lon="11.354405"><ele>43.0</ele><time>2026-05-01T06:24:18.44Z</time></trkpt><trkpt lat="44.505585" lon="11.35438"><ele>43.0</ele><time>2026-05-01T06:24:20.439Z</time></trkpt><trkpt lat="44.5055133" lon="11.354345"><ele>43.0</ele><time>2026-05-01T06:24:22.44Z</time></trkpt><trkpt lat="44.50545" lon="11.3543067"><ele>43.333333333333336</ele><time>2026-05-01T06:24:24.44Z</time></trkpt><trkpt lat="44.5053817" lon="11.35429"><ele>43.66666666666667</ele><time>2026-05-01T06:24:26.442Z</time></trkpt><trkpt lat="44.50532" lon="11.35426"><ele>44.0</ele><time>2026-05-01T06:24:28.442Z</time></trkpt><trkpt lat="44.5052417" lon="11.3542133"><ele>44.333333333333336</ele><time>2026-05-01T06:24:31.438Z</time></trkpt><trkpt lat="44.505155" lon="11.3541667"><ele>44.666666666666664</ele><time>2026-05-01T06:24:34.443Z</time></trkpt><trkpt lat="44.5050717" lon="11.3541117"><ele>45.0</ele><time>2026-05-01T06:24:37.441Z</time></trkpt><trkpt lat="44.5050083" lon="11.3540783"><ele>45.0</ele><time>2026-05-01T06:24:39.441Z</time></trkpt><trkpt lat="44.5049417" lon="11.3540417"><ele>45.0</ele><time>2026-05-01T06:24:41.443Z</time></trkpt><trkpt lat="44.5048783" lon="11.354015"><ele>45.0</ele><time>2026-05-01T06:24:43.443Z</time></trkpt><trkpt lat="44.50479" lon="11.3539783"><ele>45.0</ele><time>2026-05-01T06:24:46.442Z</time></trkpt><trkpt lat="44.5047033" lon="11.3539383"><ele>45.0</ele><time>2026-05-01T06:24:49.439Z</time></trkpt><trkpt lat="44.5046383" lon="11.3539117"><ele>45.0</ele><time>2026-05-01T06:24:51.44Z</time></trkpt><trkpt lat="44.5045767" lon="11.3538767"><ele>44.833333333333336</ele><time>2026-05-01T06:24:53.44Z</time></trkpt><trkpt lat="44.504485" lon="11.3538533"><ele>44.666666666666664</ele><time>2026-05-01T06:24:56.44Z</time></trkpt><trkpt lat="44.5044" lon="11.3538117"><ele>44.5</ele><time>2026-05-01T06:24:59.439Z</time></trkpt><trkpt lat="44.5043183" lon="11.3537633"><ele>44.33333333333333</ele><time>2026-05-01T06:25:02.44Z</time></trkpt><trkpt lat="44.5042583" lon="11.353735"><ele>44.166666666666664</ele><time>2026-05-01T06:25:04.44Z</time></trkpt><trkpt lat="44.5041717" lon="11.3536917"><ele>44.0</ele><time>2026-05-01T06:25:07.44Z</time></trkpt><trkpt lat="44.5040817" lon="11.35365"><ele>44.0</ele><time>2026-05-01T06:25:10.442Z</time></trkpt><trkpt lat="44.5040017" lon="11.3536233"><ele>44.0</ele><time>2026-05-01T06:25:12.443Z</time></trkpt><trkpt lat="44.5039217" lon="11.35358"><ele>44.0</ele><time>2026-05-01T06:25:14.442Z</time></trkpt><trkpt lat="44.503845" lon="11.3535367"><ele>44.0</ele><time>2026-05-01T06:25:16.443Z</time></trkpt><trkpt lat="44.503775" lon="11.3535017"><ele>44.0</ele><time>2026-05-01T06:25:18.44Z</time></trkpt><trkpt lat="44.50368" lon="11.3534567"><ele>44.0</ele><time>2026-05-01T06:25:20.439Z</time></trkpt><trkpt lat="44.5035767" lon="11.3534067"><ele>44.5</ele><time>2026-05-01T06:25:22.44Z</time></trkpt><trkpt lat="44.5034667" lon="11.3533517"><ele>45.0</ele><time>2026-05-01T06:25:24.44Z</time></trkpt><trkpt lat="44.50335" lon="11.3532883"><ele>45.5</ele><time>2026-05-01T06:25:26.443Z</time></trkpt><trkpt lat="44.503285" lon="11.3532583"><ele>46.0</ele><time>2026-05-01T06:25:27.442Z</time></trkpt><trkpt lat="44.503225" lon="11.3532283"><ele>46.5</ele><time>2026-05-01T06:25:28.443Z</time></trkpt><trkpt lat="44.5031617" lon="11.353195"><ele>47.0</ele><time>2026-05-01T06:25:29.442Z</time></trkpt><trkpt lat="44.5030967" lon="11.3531617"><ele>47.0</ele><time>2026-05-01T06:25:30.442Z</time></trkpt><trkpt lat="44.5030367" lon="11.35313"><ele>47.0</ele><time>2026-05-01T06:25:31.443Z</time></trkpt><trkpt lat="44.5029217" lon="11.3530683"><ele>47.0</ele><time>2026-05-01T06:25:33.443Z</time></trkpt><trkpt lat="44.5028067" lon="11.3530133"><ele>47.0</ele><time>2026-05-01T06:25:35.443Z</time></trkpt><trkpt lat="44.5026933" lon="11.3529567"><ele>47.0</ele><time>2026-05-01T06:25:37.443Z</time></trkpt><trkpt lat="44.5025917" lon="11.3529117"><ele>47.166666666666664</ele><time>2026-05-01T06:25:39.442Z</time></trkpt><trkpt lat="44.5025167" lon="11.3528517"><ele>47.33333333333333</ele><time>2026-05-01T06:25:41.439Z</time></trkpt><trkpt lat="44.5024683" lon="11.35276"><ele>47.5</ele><time>2026-05-01T06:25:43.443Z</time></trkpt><trkpt lat="44.5024733" lon="11.3526367"><ele>47.666666666666664</ele><time>2026-05-01T06:25:45.442Z</time></trkpt><trkpt lat="44.50251" lon="11.3525433"><ele>47.833333333333336</ele><time>2026-05-01T06:25:47.439Z</time></trkpt><trkpt lat="44.5025517" lon="11.3524517"><ele>48.0</ele><time>2026-05-01T06:25:49.442Z</time></trkpt><trkpt lat="44.5026017" lon="11.3523533"><ele>48.0</ele><time>2026-05-01T06:25:51.443Z</time></trkpt><trkpt lat="44.5026533" lon="11.3522333"><ele>48.0</ele><time>2026-05-01T06:25:53.442Z</time></trkpt><trkpt lat="44.5026967" lon="11.3521067"><ele>48.0</ele><time>2026-05-01T06:25:55.441Z</time></trkpt><trkpt lat="44.5027483" lon="11.3519917"><ele>48.0</ele><time>2026-05-01T06:25:57.442Z</time></trkpt><trkpt lat="44.5028033" lon="11.3518767"><ele>48.0</ele><time>2026-05-01T06:25:59.443Z</time></trkpt><trkpt lat="44.50285" lon="11.35175"><ele>48.0</ele><time>2026-05-01T06:26:01.441Z</time></trkpt><trkpt lat="44.5029" lon="11.3516283"><ele>48.0</ele><time>2026-05-01T06:26:03.439Z</time></trkpt><trkpt lat="44.50295" lon="11.3515167"><ele>48.0</ele><time>2026-05-01T06:26:05.439Z</time></trkpt><trkpt lat="44.502995" lon="11.3514067"><ele>48.0</ele><time>2026-05-01T06:26:07.441Z</time></trkpt><trkpt lat="44.503035" lon="11.3513083"><ele>48.0</ele><time>2026-05-01T06:26:09.44Z</time></trkpt><trkpt lat="44.5030717" lon="11.3512083"><ele>48.0</ele><time>2026-05-01T06:26:12.441Z</time></trkpt><trkpt lat="44.5031133" lon="11.3510767"><ele>48.0</ele><time>2026-05-01T06:26:58.442Z</time></trkpt><trkpt lat="44.503075" lon="11.3510033"><ele>48.0</ele><time>2026-05-01T06:27:03.44Z</time></trkpt><trkpt lat="44.503015" lon="11.3509417"><ele>48.0</ele><time>2026-05-01T06:27:09.439Z</time></trkpt><trkpt lat="44.5030233" lon="11.3508333"><ele>48.0</ele><time>2026-05-01T06:27:13.441Z</time></trkpt><trkpt lat="44.5030217" lon="11.3507283"><ele>48.0</ele><time>2026-05-01T06:27:15.44Z</time></trkpt><trkpt lat="44.5029867" lon="11.350645"><ele>48.0</ele><time>2026-05-01T06:27:17.442Z</time></trkpt><trkpt lat="44.502925" lon="11.350545"><ele>48.833333333333336</ele><time>2026-05-01T06:27:20.442Z</time></trkpt><trkpt lat="44.5028633" lon="11.35049"><ele>49.66666666666667</ele><time>2026-05-01T06:27:22.442Z</time></trkpt><trkpt lat="44.5027983" lon="11.3504617"><ele>50.5</ele><time>2026-05-01T06:27:24.439Z</time></trkpt><trkpt lat="44.5027167" lon="11.3504617"><ele>51.333333333333336</ele><time>2026-05-01T06:27:26.439Z</time></trkpt><trkpt lat="44.502625" lon="11.350495"><ele>52.16666666666667</ele><time>2026-05-01T06:27:28.439Z</time></trkpt><trkpt lat="44.50254" lon="11.3505433"><ele>53.0</ele><time>2026-05-01T06:27:30.443Z</time></trkpt><trkpt lat="44.5024683" lon="11.3505883"><ele>53.00000000000001</ele><time>2026-05-01T06:27:32.44Z</time></trkpt><trkpt lat="44.5023717" lon="11.3505733"><ele>53.0</ele><time>2026-05-01T06:27:34.441Z</time></trkpt><trkpt lat="44.50229" lon="11.3505367"><ele>53.0</ele><time>2026-05-01T06:27:36.44Z</time></trkpt><trkpt lat="44.502225" lon="11.3504917"><ele>53.0</ele><time>2026-05-01T06:27:38.44Z</time></trkpt><trkpt lat="44.50217" lon="11.3504367"><ele>53.00000000000001</ele><time>2026-05-01T06:27:40.439Z</time></trkpt><trkpt lat="44.5021167" lon="11.35038"><ele>53.0</ele><time>2026-05-01T06:27:42.44Z</time></trkpt><trkpt lat="44.5020383" lon="11.3503083"><ele>53.00000000000001</ele><time>2026-05-01T06:27:45.439Z</time></trkpt><trkpt lat="44.5019767" lon="11.35025"><ele>53.0</ele><time>2026-05-01T06:27:47.44Z</time></trkpt><trkpt lat="44.5019217" lon="11.35018"><ele>53.0</ele><time>2026-05-01T06:27:49.441Z</time></trkpt><trkpt lat="44.5018317" lon="11.350115"><ele>53.0</ele><time>2026-05-01T06:27:52.439Z</time></trkpt><trkpt lat="44.5017517" lon="11.350085"><ele>53.00000000000001</ele><time>2026-05-01T06:27:54.442Z</time></trkpt><trkpt lat="44.5016683" lon="11.3500433"><ele>53.0</ele><time>2026-05-01T06:27:56.442Z</time></trkpt><trkpt lat="44.5015783" lon="11.3499717"><ele>53.0</ele><time>2026-05-01T06:27:58.44Z</time></trkpt><trkpt lat="44.5014817" lon="11.3499083"><ele>53.0</ele><time>2026-05-01T06:28:00.442Z</time></trkpt><trkpt lat="44.50139" lon="11.3498467"><ele>53.0</ele><time>2026-05-01T06:28:02.442Z</time></trkpt><trkpt lat="44.5013067" lon="11.349785"><ele>53.0</ele><time>2026-05-01T06:28:04.44Z</time></trkpt><trkpt lat="44.5012467" lon="11.349735"><ele>53.0</ele><time>2026-05-01T06:28:06.441Z</time></trkpt><trkpt lat="44.501175" lon="11.3496867"><ele>53.833333333333336</ele><time>2026-05-01T06:28:08.442Z</time></trkpt><trkpt lat="44.5011" lon="11.3496467"><ele>54.66666666666667</ele><time>2026-05-01T06:28:10.442Z</time></trkpt><trkpt lat="44.5010267" lon="11.349595"><ele>55.5</ele><time>2026-05-01T06:28:12.441Z</time></trkpt><trkpt lat="44.5009633" lon="11.34954"><ele>56.33333333333333</ele><time>2026-05-01T06:28:14.441Z</time></trkpt><trkpt lat="44.5008967" lon="11.3494917"><ele>57.166666666666664</ele><time>2026-05-01T06:28:16.442Z</time></trkpt><trkpt lat="44.5008033" lon="11.3494467"><ele>58.0</ele><time>2026-05-01T06:28:18.439Z</time></trkpt><trkpt lat="44.5007067" lon="11.3494183"><ele>57.99999999999999</ele><time>2026-05-01T06:28:20.44Z</time></trkpt><trkpt lat="44.500625" lon="11.34937"><ele>58.0</ele><time>2026-05-01T06:28:22.44Z</time></trkpt><trkpt lat="44.500545" lon="11.34931"><ele>58.0</ele><time>2026-05-01T06:28:24.44Z</time></trkpt><trkpt lat="44.500475" lon="11.3492533"><ele>58.0</ele><time>2026-05-01T06:28:26.441Z</time></trkpt><trkpt lat="44.50042" lon="11.3492033"><ele>57.99999999999999</ele><time>2026-05-01T06:28:28.439Z</time></trkpt><trkpt lat="44.5003717" lon="11.3491283"><ele>58.0</ele><time>2026-05-01T06:28:31.44Z</time></trkpt><trkpt lat="44.50031" lon="11.3490967"><ele>58.166666666666664</ele><time>2026-05-01T06:28:34.44Z</time></trkpt><trkpt lat="44.50025" lon="11.34901"><ele>58.33333333333333</ele><time>2026-05-01T06:28:37.439Z</time></trkpt><trkpt lat="44.50023" lon="11.3489133"><ele>58.5</ele><time>2026-05-01T06:28:39.443Z</time></trkpt><trkpt lat="44.5002467" lon="11.3487867"><ele>58.66666666666667</ele><time>2026-05-01T06:28:42.44Z</time></trkpt><trkpt lat="44.5002733" lon="11.3486533"><ele>58.833333333333336</ele><time>2026-05-01T06:28:45.44Z</time></trkpt><trkpt lat="44.50031" lon="11.348555"><ele>59.0</ele><time>2026-05-01T06:28:47.441Z</time></trkpt><trkpt lat="44.5003433" lon="11.3484717"><ele>59.0</ele><time>2026-05-01T06:28:49.442Z</time></trkpt><trkpt lat="44.5003733" lon="11.3483667"><ele>59.00000000000001</ele><time>2026-05-01T06:28:51.44Z</time></trkpt><trkpt lat="44.5003883" lon="11.348215"><ele>59.00000000000001</ele><time>2026-05-01T06:28:53.441Z</time></trkpt><trkpt lat="44.5004217" lon="11.3480917"><ele>59.0</ele><time>2026-05-01T06:28:55.441Z</time></trkpt><trkpt lat="44.5004483" lon="11.347975"><ele>59.0</ele><time>2026-05-01T06:28:57.442Z</time></trkpt><trkpt lat="44.5004817" lon="11.347865"><ele>58.00000000000001</ele><time>2026-05-01T06:28:59.441Z</time></trkpt><trkpt lat="44.5005" lon="11.3477617"><ele>57.0</ele><time>2026-05-01T06:29:01.44Z</time></trkpt><trkpt lat="44.5005383" lon="11.34767"><ele>56.0</ele><time>2026-05-01T06:29:03.441Z</time></trkpt><trkpt lat="44.5005717" lon="11.3475717"><ele>55.0</ele><time>2026-05-01T06:29:06.441Z</time></trkpt><trkpt lat="44.500605" lon="11.3474767"><ele>54.00000000000001</ele><time>2026-05-01T06:29:09.442Z</time></trkpt><trkpt lat="44.50064" lon="11.3473683"><ele>53.0</ele><time>2026-05-01T06:29:12.441Z</time></trkpt><trkpt lat="44.5006517" lon="11.347265"><ele>53.599999999999994</ele><time>2026-05-01T06:29:14.442Z</time></trkpt><trkpt lat="44.5006833" lon="11.3471567"><ele>54.199999999999996</ele><time>2026-05-01T06:29:16.443Z</time></trkpt><trkpt lat="44.5007067" lon="11.347025"><ele>54.8</ele><time>2026-05-01T06:29:18.441Z</time></trkpt><trkpt lat="44.50073" lon="11.3468817"><ele>55.4</ele><time>2026-05-01T06:29:20.441Z</time></trkpt><trkpt lat="44.5007533" lon="11.3467367"><ele>56.0</ele><time>2026-05-01T06:29:22.441Z</time></trkpt><trkpt lat="44.5007717" lon="11.346595"><ele>56.0</ele><time>2026-05-01T06:29:24.44Z</time></trkpt><trkpt lat="44.5007933" lon="11.3464683"><ele>55.99999999999999</ele><time>2026-05-01T06:29:26.443Z</time></trkpt><trkpt lat="44.5008167" lon="11.34635"><ele>55.99999999999999</ele><time>2026-05-01T06:29:28.442Z</time></trkpt><trkpt lat="44.500835" lon="11.346225"><ele>56.0</ele><time>2026-05-01T06:29:30.442Z</time></trkpt><trkpt lat="44.5008667" lon="11.3461083"><ele>56.0</ele><time>2026-05-01T06:29:32.441Z</time></trkpt><trkpt lat="44.5008917" lon="11.3459817"><ele>55.0</ele><time>2026-05-01T06:29:34.44Z</time></trkpt><trkpt lat="44.500915" lon="11.3458467"><ele>53.99999999999999</ele><time>2026-05-01T06:29:36.442Z</time></trkpt><trkpt lat="44.50094" lon="11.34571"><ele>53.0</ele><time>2026-05-01T06:29:38.441Z</time></trkpt><trkpt lat="44.500965" lon="11.3455733"><ele>52.0</ele><time>2026-05-01T06:29:40.439Z</time></trkpt><trkpt lat="44.5009917" lon="11.3454467"><ele>51.0</ele><time>2026-05-01T06:29:42.44Z</time></trkpt><trkpt lat="44.50101" lon="11.3453417"><ele>51.0</ele><time>2026-05-01T06:29:44.443Z</time></trkpt><trkpt lat="44.5010267" lon="11.345245"><ele>51.0</ele><time>2026-05-01T06:29:46.441Z</time></trkpt><trkpt lat="44.5010483" lon="11.3451467"><ele>51.0</ele><time>2026-05-01T06:29:48.44Z</time></trkpt><trkpt lat="44.5010617" lon="11.3450583"><ele>51.0</ele><time>2026-05-01T06:29:50.439Z</time></trkpt><trkpt lat="44.5010867" lon="11.3449633"><ele>51.0</ele><time>2026-05-01T06:29:52.44Z</time></trkpt><trkpt lat="44.5011" lon="11.3448617"><ele>51.0</ele><time>2026-05-01T06:29:54.44Z</time></trkpt><trkpt lat="44.5011267" lon="11.3447417"><ele>51.0</ele><time>2026-05-01T06:29:57.442Z</time></trkpt><trkpt lat="44.5011417" lon="11.3446533"><ele>52.0</ele><time>2026-05-01T06:29:59.438Z</time></trkpt><trkpt lat="44.5011483" lon="11.3445633"><ele>53.0</ele><time>2026-05-01T06:30:02.439Z</time></trkpt><trkpt lat="44.5011167" lon="11.3444567"><ele>54.0</ele><time>2026-05-01T06:30:08.44Z</time></trkpt><trkpt lat="44.5010967" lon="11.34437"><ele>55.0</ele><time>2026-05-01T06:30:13.443Z</time></trkpt><trkpt lat="44.5010433" lon="11.3443167"><ele>56.0</ele><time>2026-05-01T06:30:17.443Z</time></trkpt><trkpt lat="44.5009733" lon="11.3442533"><ele>57.0</ele><time>2026-05-01T06:30:20.441Z</time></trkpt><trkpt lat="44.5008867" lon="11.344205"><ele>57.0</ele><time>2026-05-01T06:30:23.44Z</time></trkpt><trkpt lat="44.5008217" lon="11.3441817"><ele>56.99999999999999</ele><time>2026-05-01T06:30:25.441Z</time></trkpt><trkpt lat="44.50076" lon="11.3441617"><ele>57.0</ele><time>2026-05-01T06:30:27.442Z</time></trkpt><trkpt lat="44.5006967" lon="11.3441483"><ele>57.0</ele><time>2026-05-01T06:30:29.439Z</time></trkpt><trkpt lat="44.5006117" lon="11.3441283"><ele>56.99999999999999</ele><time>2026-05-01T06:30:32.441Z</time></trkpt><trkpt lat="44.50055" lon="11.34409"><ele>57.0</ele><time>2026-05-01T06:30:34.442Z</time></trkpt><trkpt lat="44.50049" lon="11.34405"><ele>57.0</ele><time>2026-05-01T06:30:36.44Z</time></trkpt><trkpt lat="44.5004017" lon="11.3440067"><ele>57.42857142857142</ele><time>2026-05-01T06:30:39.439Z</time></trkpt><trkpt lat="44.5003367" lon="11.343995"><ele>57.85714285714285</ele><time>2026-05-01T06:30:41.441Z</time></trkpt><trkpt lat="44.5002617" lon="11.3439533"><ele>58.285714285714285</ele><time>2026-05-01T06:30:45.441Z</time></trkpt><trkpt lat="44.5002067" lon="11.3438917"><ele>58.71428571428571</ele><time>2026-05-01T06:30:50.439Z</time></trkpt><trkpt lat="44.500135" lon="11.3438833"><ele>59.14285714285714</ele><time>2026-05-01T06:30:54.44Z</time></trkpt><trkpt lat="44.5000483" lon="11.3438733"><ele>59.57142857142857</ele><time>2026-05-01T06:30:57.442Z</time></trkpt><trkpt lat="44.4999817" lon="11.3438467"><ele>60.0</ele><time>2026-05-01T06:30:59.44Z</time></trkpt><trkpt lat="44.49991" lon="11.3438183"><ele>60.2</ele><time>2026-05-01T06:31:01.439Z</time></trkpt><trkpt lat="44.499825" lon="11.3438133"><ele>60.4</ele><time>2026-05-01T06:31:03.44Z</time></trkpt><trkpt lat="44.49973" lon="11.3438133"><ele>60.599999999999994</ele><time>2026-05-01T06:31:05.438Z</time></trkpt><trkpt lat="44.4996417" lon="11.3438017"><ele>60.8</ele><time>2026-05-01T06:31:07.44Z</time></trkpt><trkpt lat="44.499555" lon="11.3437917"><ele>61.0</ele><time>2026-05-01T06:31:09.439Z</time></trkpt><trkpt lat="44.4994617" lon="11.3437783"><ele>60.99999999999999</ele><time>2026-05-01T06:31:11.44Z</time></trkpt><trkpt lat="44.4993733" lon="11.343775"><ele>61.0</ele><time>2026-05-01T06:31:13.439Z</time></trkpt><trkpt lat="44.4993017" lon="11.3437517"><ele>61.0</ele><time>2026-05-01T06:31:15.44Z</time></trkpt><trkpt lat="44.4992067" lon="11.343715"><ele>61.0</ele><time>2026-05-01T06:31:18.44Z</time></trkpt><trkpt lat="44.4991467" lon="11.3436833"><ele>60.99999999999999</ele><time>2026-05-01T06:31:20.44Z</time></trkpt><trkpt lat="44.499075" lon="11.343665"><ele>61.0</ele><time>2026-05-01T06:31:22.442Z</time></trkpt><trkpt lat="44.4989983" lon="11.3436467"><ele>61.0</ele><time>2026-05-01T06:31:24.44Z</time></trkpt><trkpt lat="44.49891" lon="11.3436167"><ele>60.99999999999999</ele><time>2026-05-01T06:31:26.44Z</time></trkpt><trkpt lat="44.49881" lon="11.3435683"><ele>60.99999999999999</ele><time>2026-05-01T06:31:28.44Z</time></trkpt><trkpt lat="44.4987183" lon="11.3435433"><ele>61.0</ele><time>2026-05-01T06:31:30.439Z</time></trkpt><trkpt lat="44.4986233" lon="11.3435217"><ele>61.0</ele><time>2026-05-01T06:31:32.44Z</time></trkpt><trkpt lat="44.4985367" lon="11.34349"><ele>61.49999999999999</ele><time>2026-05-01T06:31:34.439Z</time></trkpt><trkpt lat="44.49845" lon="11.34346"><ele>62.0</ele><time>2026-05-01T06:31:36.439Z</time></trkpt><trkpt lat="44.4983633" lon="11.34343"><ele>62.5</ele><time>2026-05-01T06:31:38.44Z</time></trkpt><trkpt lat="44.4982883" lon="11.3434133"><ele>63.0</ele><time>2026-05-01T06:31:40.439Z</time></trkpt><trkpt lat="44.4982067" lon="11.3433933"><ele>63.49999999999999</ele><time>2026-05-01T06:31:42.44Z</time></trkpt><trkpt lat="44.4981217" lon="11.3433717"><ele>64.0</ele><time>2026-05-01T06:31:44.44Z</time></trkpt><trkpt lat="44.498035" lon="11.343345"><ele>63.99999999999999</ele><time>2026-05-01T06:31:46.441Z</time></trkpt><trkpt lat="44.49795" lon="11.3433283"><ele>64.0</ele><time>2026-05-01T06:31:48.44Z</time></trkpt><trkpt lat="44.4978517" lon="11.343305"><ele>64.0</ele><time>2026-05-01T06:31:50.441Z</time></trkpt><trkpt lat="44.4977683" lon="11.3432783"><ele>64.0</ele><time>2026-05-01T06:31:52.442Z</time></trkpt><trkpt lat="44.4977067" lon="11.3431933"><ele>63.99999999999999</ele><time>2026-05-01T06:31:54.44Z</time></trkpt><trkpt lat="44.4976217" lon="11.3431967"><ele>64.0</ele><time>2026-05-01T06:31:57.439Z</time></trkpt><trkpt lat="44.4975433" lon="11.343175"><ele>64.5</ele><time>2026-05-01T06:31:59.439Z</time></trkpt><trkpt lat="44.4974567" lon="11.3431483"><ele>65.0</ele><time>2026-05-01T06:32:01.44Z</time></trkpt><trkpt lat="44.4973633" lon="11.34312"><ele>65.5</ele><time>2026-05-01T06:32:03.439Z</time></trkpt><trkpt lat="44.4972717" lon="11.343095"><ele>66.0</ele><time>2026-05-01T06:32:05.439Z</time></trkpt><trkpt lat="44.49719" lon="11.3430733"><ele>66.5</ele><time>2026-05-01T06:32:07.441Z</time></trkpt><trkpt lat="44.4971117" lon="11.3430667"><ele>67.0</ele><time>2026-05-01T06:32:09.44Z</time></trkpt><trkpt lat="44.4970367" lon="11.3430517"><ele>67.57142857142857</ele><time>2026-05-01T06:32:11.439Z</time></trkpt><trkpt lat="44.49697" lon="11.343035"><ele>68.14285714285714</ele><time>2026-05-01T06:32:13.441Z</time></trkpt><trkpt lat="44.4968983" lon="11.3430167"><ele>68.71428571428571</ele><time>2026-05-01T06:32:15.44Z</time></trkpt><trkpt lat="44.496815" lon="11.34299"><ele>69.28571428571428</ele><time>2026-05-01T06:32:17.44Z</time></trkpt><trkpt lat="44.4967517" lon="11.34297"><ele>69.85714285714285</ele><time>2026-05-01T06:32:19.44Z</time></trkpt><trkpt lat="44.496685" lon="11.34295"><ele>70.42857142857143</ele><time>2026-05-01T06:32:21.441Z</time></trkpt><trkpt lat="44.4966133" lon="11.342935"><ele>71.0</ele><time>2026-05-01T06:32:23.439Z</time></trkpt><trkpt lat="44.4965433" lon="11.3429217"><ele>71.0</ele><time>2026-05-01T06:32:25.441Z</time></trkpt><trkpt lat="44.4964683" lon="11.3429233"><ele>71.0</ele><time>2026-05-01T06:32:27.44Z</time></trkpt><trkpt lat="44.4964033" lon="11.342905"><ele>71.0</ele><time>2026-05-01T06:32:29.441Z</time></trkpt><trkpt lat="44.4963233" lon="11.3428883"><ele>71.0</ele><time>2026-05-01T06:32:31.439Z</time></trkpt><trkpt lat="44.49624" lon="11.3428517"><ele>71.0</ele><time>2026-05-01T06:32:33.44Z</time></trkpt><trkpt lat="44.4961683" lon="11.3428233"><ele>71.0</ele><time>2026-05-01T06:32:35.44Z</time></trkpt><trkpt lat="44.4960983" lon="11.3427933"><ele>71.0</ele><time>2026-05-01T06:32:37.442Z</time></trkpt><trkpt lat="44.4960117" lon="11.342765"><ele>71.0</ele><time>2026-05-01T06:32:39.441Z</time></trkpt><trkpt lat="44.4959367" lon="11.3427367"><ele>71.0</ele><time>2026-05-01T06:32:41.44Z</time></trkpt><trkpt lat="44.495865" lon="11.3427217"><ele>71.0</ele><time>2026-05-01T06:32:43.442Z</time></trkpt><trkpt lat="44.495785" lon="11.3426967"><ele>71.0</ele><time>2026-05-01T06:32:45.441Z</time></trkpt><trkpt lat="44.4957033" lon="11.342685"><ele>71.0</ele><time>2026-05-01T06:32:47.439Z</time></trkpt><trkpt lat="44.495615" lon="11.3426333"><ele>71.0</ele><time>2026-05-01T06:32:49.439Z</time></trkpt><trkpt lat="44.4955367" lon="11.3426167"><ele>71.0</ele><time>2026-05-01T06:32:51.44Z</time></trkpt><trkpt lat="44.4954683" lon="11.3425933"><ele>71.0</ele><time>2026-05-01T06:32:53.443Z</time></trkpt><trkpt lat="44.495395" lon="11.34257"><ele>71.0</ele><time>2026-05-01T06:32:55.44Z</time></trkpt><trkpt lat="44.4953217" lon="11.34258"><ele>71.0</ele><time>2026-05-01T06:32:57.442Z</time></trkpt><trkpt lat="44.4952517" lon="11.342575"><ele>71.0</ele><time>2026-05-01T06:32:59.44Z</time></trkpt><trkpt lat="44.495185" lon="11.34257"><ele>71.0</ele><time>2026-05-01T06:33:01.44Z</time></trkpt><trkpt lat="44.4951067" lon="11.3425583"><ele>71.16666666666667</ele><time>2026-05-01T06:33:03.441Z</time></trkpt><trkpt lat="44.4950433" lon="11.3425617"><ele>71.33333333333334</ele><time>2026-05-01T06:33:05.441Z</time></trkpt><trkpt lat="44.49496" lon="11.342605"><ele>71.5</ele><time>2026-05-01T06:33:08.439Z</time></trkpt><trkpt lat="44.4948917" lon="11.342665"><ele>71.66666666666667</ele><time>2026-05-01T06:33:11.44Z</time></trkpt><trkpt lat="44.49482" lon="11.3426633"><ele>71.83333333333333</ele><time>2026-05-01T06:33:14.441Z</time></trkpt><trkpt lat="44.494755" lon="11.3426033"><ele>72.0</ele><time>2026-05-01T06:33:17.442Z</time></trkpt><trkpt lat="44.4946933" lon="11.3425517"><ele>72.00000000000001</ele><time>2026-05-01T06:33:20.443Z</time></trkpt><trkpt lat="44.4946167" lon="11.3425883"><ele>72.0</ele><time>2026-05-01T06:33:22.442Z</time></trkpt><trkpt lat="44.4945467" lon="11.3426083"><ele>72.0</ele><time>2026-05-01T06:33:24.442Z</time></trkpt><trkpt lat="44.4944767" lon="11.3426133"><ele>72.0</ele><time>2026-05-01T06:33:26.441Z</time></trkpt><trkpt lat="44.4944033" lon="11.3425883"><ele>72.0</ele><time>2026-05-01T06:33:28.442Z</time></trkpt><trkpt lat="44.4943333" lon="11.3425517"><ele>72.00000000000001</ele><time>2026-05-01T06:33:30.442Z</time></trkpt><trkpt lat="44.4942633" lon="11.3425417"><ele>72.0</ele><time>2026-05-01T06:33:32.44Z</time></trkpt><trkpt lat="44.49418" lon="11.3425533"><ele>71.83333333333333</ele><time>2026-05-01T06:33:35.44Z</time></trkpt><trkpt lat="44.4941033" lon="11.342595"><ele>71.66666666666667</ele><time>2026-05-01T06:33:38.441Z</time></trkpt><trkpt lat="44.4940417" lon="11.3426683"><ele>71.5</ele><time>2026-05-01T06:33:40.44Z</time></trkpt><trkpt lat="44.4940033" lon="11.3427467"><ele>71.33333333333334</ele><time>2026-05-01T06:33:42.44Z</time></trkpt><trkpt lat="44.49398" lon="11.34285"><ele>71.16666666666667</ele><time>2026-05-01T06:33:45.44Z</time></trkpt><trkpt lat="44.493965" lon="11.3429667"><ele>71.0</ele><time>2026-05-01T06:33:48.44Z</time></trkpt><trkpt lat="44.4939583" lon="11.34307"><ele>71.0</ele><time>2026-05-01T06:33:51.44Z</time></trkpt><trkpt lat="44.4939167" lon="11.3431583"><ele>71.0</ele><time>2026-05-01T06:33:55.445Z</time></trkpt><trkpt lat="44.493885" lon="11.3432367"><ele>71.0</ele><time>2026-05-01T06:33:58.441Z</time></trkpt><trkpt lat="44.4938633" lon="11.3433333"><ele>71.0</ele><time>2026-05-01T06:34:00.442Z</time></trkpt><trkpt lat="44.4938483" lon="11.3434333"><ele>71.0</ele><time>2026-05-01T06:34:02.44Z</time></trkpt><trkpt lat="44.4938283" lon="11.3435233"><ele>71.0</ele><time>2026-05-01T06:34:04.441Z</time></trkpt><trkpt lat="44.4937667" lon="11.3435867"><ele>71.0</ele><time>2026-05-01T06:34:07.44Z</time></trkpt><trkpt lat="44.4936933" lon="11.3435917"><ele>71.83333333333334</ele><time>2026-05-01T06:34:12.441Z</time></trkpt><trkpt lat="44.4936183" lon="11.3436283"><ele>72.66666666666667</ele><time>2026-05-01T06:34:15.442Z</time></trkpt><trkpt lat="44.4935417" lon="11.3436867"><ele>73.5</ele><time>2026-05-01T06:34:18.44Z</time></trkpt><trkpt lat="44.4934533" lon="11.3436867"><ele>74.33333333333333</ele><time>2026-05-01T06:34:21.44Z</time></trkpt><trkpt lat="44.493385" lon="11.3436767"><ele>75.16666666666666</ele><time>2026-05-01T06:34:23.44Z</time></trkpt><trkpt lat="44.493295" lon="11.3436967"><ele>76.0</ele><time>2026-05-01T06:34:26.439Z</time></trkpt><trkpt lat="44.4932317" lon="11.3437033"><ele>76.0</ele><time>2026-05-01T06:34:28.44Z</time></trkpt><trkpt lat="44.4931567" lon="11.343685"><ele>76.0</ele><time>2026-05-01T06:34:30.44Z</time></trkpt><trkpt lat="44.4930817" lon="11.343665"><ele>76.0</ele><time>2026-05-01T06:34:32.44Z</time></trkpt><trkpt lat="44.4930083" lon="11.34364"><ele>76.0</ele><time>2026-05-01T06:34:34.441Z</time></trkpt><trkpt lat="44.49294" lon="11.3436233"><ele>76.0</ele><time>2026-05-01T06:34:36.44Z</time></trkpt><trkpt lat="44.4928733" lon="11.3436133"><ele>76.0</ele><time>2026-05-01T06:34:38.44Z</time></trkpt><trkpt lat="44.4928033" lon="11.3435767"><ele>76.0</ele><time>2026-05-01T06:34:40.439Z</time></trkpt><trkpt lat="44.4927333" lon="11.3435417"><ele>76.33333333333333</ele><time>2026-05-01T06:34:42.44Z</time></trkpt><trkpt lat="44.4926633" lon="11.3435133"><ele>76.66666666666666</ele><time>2026-05-01T06:34:44.441Z</time></trkpt><trkpt lat="44.4925967" lon="11.3434767"><ele>77.0</ele><time>2026-05-01T06:34:46.439Z</time></trkpt><trkpt lat="44.49252" lon="11.3434417"><ele>77.33333333333333</ele><time>2026-05-01T06:34:48.44Z</time></trkpt><trkpt lat="44.4924383" lon="11.3434083"><ele>77.66666666666667</ele><time>2026-05-01T06:34:50.439Z</time></trkpt><trkpt lat="44.4923517" lon="11.3433767"><ele>78.0</ele><time>2026-05-01T06:34:52.44Z</time></trkpt><trkpt lat="44.49227" lon="11.3433467"><ele>78.0</ele><time>2026-05-01T06:34:54.439Z</time></trkpt><trkpt lat="44.4921767" lon="11.3433067"><ele>78.0</ele><time>2026-05-01T06:34:56.44Z</time></trkpt><trkpt lat="44.4920833" lon="11.3433083"><ele>78.0</ele><time>2026-05-01T06:34:58.44Z</time></trkpt><trkpt lat="44.491975" lon="11.3432883"><ele>78.0</ele><time>2026-05-01T06:35:00.441Z</time></trkpt><trkpt lat="44.4918833" lon="11.343265"><ele>78.0</ele><time>2026-05-01T06:35:02.44Z</time></trkpt><trkpt lat="44.491815" lon="11.3432683"><ele>76.83333333333333</ele><time>2026-05-01T06:35:04.44Z</time></trkpt><trkpt lat="44.4917167" lon="11.3432383"><ele>75.66666666666667</ele><time>2026-05-01T06:35:06.442Z</time></trkpt><trkpt lat="44.4916217" lon="11.343235"><ele>74.5</ele><time>2026-05-01T06:35:08.442Z</time></trkpt><trkpt lat="44.4915417" lon="11.3432817"><ele>73.33333333333334</ele><time>2026-05-01T06:35:10.439Z</time></trkpt><trkpt lat="44.491455" lon="11.3433167"><ele>72.16666666666667</ele><time>2026-05-01T06:35:13.44Z</time></trkpt><trkpt lat="44.4913833" lon="11.343305"><ele>71.0</ele><time>2026-05-01T06:35:22.44Z</time></trkpt><trkpt lat="44.491375" lon="11.3433983"><ele>71.0</ele><time>2026-05-01T06:35:25.44Z</time></trkpt><trkpt lat="44.49141" lon="11.3435233"><ele>71.0</ele><time>2026-05-01T06:35:28.439Z</time></trkpt><trkpt lat="44.4914417" lon="11.343615"><ele>71.0</ele><time>2026-05-01T06:35:30.44Z</time></trkpt><trkpt lat="44.4914517" lon="11.3437133"><ele>71.0</ele><time>2026-05-01T06:35:46.44Z</time></trkpt><trkpt lat="44.491465" lon="11.343825"><ele>71.0</ele><time>2026-05-01T06:35:48.441Z</time></trkpt><trkpt lat="44.4914683" lon="11.3439483"><ele>71.0</ele><time>2026-05-01T06:35:50.441Z</time></trkpt><trkpt lat="44.491485" lon="11.3440667"><ele>71.0</ele><time>2026-05-01T06:35:52.44Z</time></trkpt><trkpt lat="44.49149" lon="11.3442183"><ele>71.0</ele><time>2026-05-01T06:35:54.44Z</time></trkpt><trkpt lat="44.4914883" lon="11.344385"><ele>71.0</ele><time>2026-05-01T06:35:56.44Z</time></trkpt><trkpt lat="44.4914867" lon="11.34457"><ele>71.0</ele><time>2026-05-01T06:35:58.439Z</time></trkpt><trkpt lat="44.4914917" lon="11.344665"><ele>71.0</ele><time>2026-05-01T06:35:59.44Z</time></trkpt><trkpt lat="44.491515" lon="11.3448333"><ele>71.0</ele><time>2026-05-01T06:36:01.441Z</time></trkpt><trkpt lat="44.4914717" lon="11.3449983"><ele>71.0</ele><time>2026-05-01T06:36:03.44Z</time></trkpt><trkpt lat="44.49148" lon="11.3451583"><ele>71.0</ele><time>2026-05-01T06:36:05.44Z</time></trkpt><trkpt lat="44.491515" lon="11.3453183"><ele>71.0</ele><time>2026-05-01T06:36:07.44Z</time></trkpt><trkpt lat="44.49152" lon="11.3454067"><ele>71.0</ele><time>2026-05-01T06:36:08.44Z</time></trkpt><trkpt lat="44.4915067" lon="11.3455733"><ele>71.33333333333334</ele><time>2026-05-01T06:36:10.439Z</time></trkpt><trkpt lat="44.4915083" lon="11.3457133"><ele>71.66666666666667</ele><time>2026-05-01T06:36:12.442Z</time></trkpt><trkpt lat="44.4915083" lon="11.3458567"><ele>72.0</ele><time>2026-05-01T06:36:14.44Z</time></trkpt><trkpt lat="44.491525" lon="11.3459833"><ele>72.33333333333333</ele><time>2026-05-01T06:36:16.439Z</time></trkpt><trkpt lat="44.4915317" lon="11.34608"><ele>72.66666666666666</ele><time>2026-05-01T06:36:18.44Z</time></trkpt><trkpt lat="44.491565" lon="11.346185"><ele>73.0</ele><time>2026-05-01T06:36:47.44Z</time></trkpt><trkpt lat="44.4916283" lon="11.3462267"><ele>73.0</ele><time>2026-05-01T06:36:49.441Z</time></trkpt><trkpt lat="44.491645" lon="11.346315"><ele>73.0</ele><time>2026-05-01T06:36:52.441Z</time></trkpt><trkpt lat="44.4916417" lon="11.3464167"><ele>73.0</ele><time>2026-05-01T06:36:55.441Z</time></trkpt><trkpt lat="44.4915567" lon="11.3464583"><ele>73.0</ele><time>2026-05-01T06:36:59.44Z</time></trkpt><trkpt lat="44.491465" lon="11.3464667"><ele>73.0</ele><time>2026-05-01T06:37:01.441Z</time></trkpt><trkpt lat="44.4913733" lon="11.3464717"><ele>73.0</ele><time>2026-05-01T06:37:03.439Z</time></trkpt><trkpt lat="44.491275" lon="11.3464917"><ele>72.6</ele><time>2026-05-01T06:37:05.442Z</time></trkpt><trkpt lat="44.49117" lon="11.3465033"><ele>72.19999999999999</ele><time>2026-05-01T06:37:07.439Z</time></trkpt><trkpt lat="44.4910817" lon="11.346515"><ele>71.8</ele><time>2026-05-01T06:37:09.44Z</time></trkpt><trkpt lat="44.490985" lon="11.3465233"><ele>71.39999999999999</ele><time>2026-05-01T06:37:11.441Z</time></trkpt><trkpt lat="44.4908883" lon="11.3465233"><ele>71.0</ele><time>2026-05-01T06:37:13.44Z</time></trkpt><trkpt lat="44.4907683" lon="11.346515"><ele>71.0</ele><time>2026-05-01T06:37:15.44Z</time></trkpt><trkpt lat="44.4906633" lon="11.3465317"><ele>71.0</ele><time>2026-05-01T06:37:17.44Z</time></trkpt><trkpt lat="44.4905767" lon="11.3465267"><ele>71.0</ele><time>2026-05-01T06:37:19.44Z</time></trkpt><trkpt lat="44.490485" lon="11.34654"><ele>71.0</ele><time>2026-05-01T06:37:21.439Z</time></trkpt><trkpt lat="44.4903783" lon="11.3465533"><ele>71.0</ele><time>2026-05-01T06:37:23.439Z</time></trkpt><trkpt lat="44.490285" lon="11.3465767"><ele>71.0</ele><time>2026-05-01T06:37:25.44Z</time></trkpt><trkpt lat="44.490195" lon="11.346595"><ele>71.0</ele><time>2026-05-01T06:37:27.44Z</time></trkpt><trkpt lat="44.49014" lon="11.3465367"><ele>71.0</ele><time>2026-05-01T06:37:28.439Z</time></trkpt><trkpt lat="44.49005" lon="11.3465517"><ele>71.0</ele><time>2026-05-01T06:37:30.44Z</time></trkpt><trkpt lat="44.489955" lon="11.3465833"><ele>71.0</ele><time>2026-05-01T06:37:32.44Z</time></trkpt><trkpt lat="44.4898633" lon="11.3466467"><ele>71.0</ele><time>2026-05-01T06:37:34.439Z</time></trkpt><trkpt lat="44.4897883" lon="11.3467333"><ele>71.0</ele><time>2026-05-01T06:37:36.441Z</time></trkpt><trkpt lat="44.4897067" lon="11.3467933"><ele>71.0</ele><time>2026-05-01T06:37:38.44Z</time></trkpt><trkpt lat="44.4896217" lon="11.3469117"><ele>71.0</ele><time>2026-05-01T06:37:40.44Z</time></trkpt><trkpt lat="44.4895283" lon="11.3470633"><ele>71.0</ele><time>2026-05-01T06:37:42.439Z</time></trkpt><trkpt lat="44.4894317" lon="11.34715"><ele>71.0</ele><time>2026-05-01T06:37:44.44Z</time></trkpt><trkpt lat="44.48935" lon="11.3471917"><ele>71.0</ele><time>2026-05-01T06:37:46.44Z</time></trkpt><trkpt lat="44.48926" lon="11.34722"><ele>71.0</ele><time>2026-05-01T06:37:48.44Z</time></trkpt><trkpt lat="44.4891767" lon="11.347245"><ele>71.0</ele><time>2026-05-01T06:37:50.44Z</time></trkpt><trkpt lat="44.4891" lon="11.3472633"><ele>71.16666666666667</ele><time>2026-05-01T06:37:52.44Z</time></trkpt><trkpt lat="44.4890183" lon="11.3473017"><ele>71.33333333333334</ele><time>2026-05-01T06:37:54.441Z</time></trkpt><trkpt lat="44.4889267" lon="11.3473383"><ele>71.5</ele><time>2026-05-01T06:37:56.441Z</time></trkpt><trkpt lat="44.4888483" lon="11.3473883"><ele>71.66666666666667</ele><time>2026-05-01T06:37:58.44Z</time></trkpt><trkpt lat="44.48878" lon="11.3474533"><ele>71.83333333333333</ele><time>2026-05-01T06:38:00.441Z</time></trkpt><trkpt lat="44.488705" lon="11.34748"><ele>72.0</ele><time>2026-05-01T06:38:02.441Z</time></trkpt><trkpt lat="44.4886433" lon="11.34753"><ele>72.33333333333333</ele><time>2026-05-01T06:38:04.441Z</time></trkpt><trkpt lat="44.4885767" lon="11.347575"><ele>72.66666666666667</ele><time>2026-05-01T06:38:06.44Z</time></trkpt><trkpt lat="44.488495" lon="11.3476483"><ele>73.0</ele><time>2026-05-01T06:38:08.44Z</time></trkpt><trkpt lat="44.4884117" lon="11.3476917"><ele>73.33333333333334</ele><time>2026-05-01T06:38:10.44Z</time></trkpt><trkpt lat="44.4883167" lon="11.3476717"><ele>73.66666666666667</ele><time>2026-05-01T06:38:12.441Z</time></trkpt><trkpt lat="44.488255" lon="11.3477017"><ele>74.0</ele><time>2026-05-01T06:38:14.44Z</time></trkpt><trkpt lat="44.4881867" lon="11.3477383"><ele>74.0</ele><time>2026-05-01T06:38:16.44Z</time></trkpt><trkpt lat="44.4881167" lon="11.3477733"><ele>74.0</ele><time>2026-05-01T06:38:18.441Z</time></trkpt><trkpt lat="44.48804" lon="11.3477983"><ele>74.0</ele><time>2026-05-01T06:38:20.44Z</time></trkpt><trkpt lat="44.4879583" lon="11.347815"><ele>74.0</ele><time>2026-05-01T06:38:22.441Z</time></trkpt><trkpt lat="44.487865" lon="11.347845"><ele>74.0</ele><time>2026-05-01T06:38:24.441Z</time></trkpt><trkpt lat="44.4877683" lon="11.3478567"><ele>74.0</ele><time>2026-05-01T06:38:26.441Z</time></trkpt><trkpt lat="44.4876733" lon="11.34788"><ele>74.0</ele><time>2026-05-01T06:38:28.441Z</time></trkpt><trkpt lat="44.4875817" lon="11.3479117"><ele>74.0</ele><time>2026-05-01T06:38:30.441Z</time></trkpt><trkpt lat="44.4874883" lon="11.347945"><ele>74.0</ele><time>2026-05-01T06:38:32.439Z</time></trkpt><trkpt lat="44.4873933" lon="11.347965"><ele>74.0</ele><time>2026-05-01T06:38:34.44Z</time></trkpt><trkpt lat="44.4872983" lon="11.34796"><ele>74.0</ele><time>2026-05-01T06:38:36.441Z</time></trkpt><trkpt lat="44.4872017" lon="11.3479717"><ele>74.0</ele><time>2026-05-01T06:38:38.44Z</time></trkpt><trkpt lat="44.4871" lon="11.34797"><ele>74.0</ele><time>2026-05-01T06:38:40.441Z</time></trkpt><trkpt lat="44.4870067" lon="11.34806"><ele>74.0</ele><time>2026-05-01T06:38:42.44Z</time></trkpt><trkpt lat="44.4869217" lon="11.348085"><ele>74.0</ele><time>2026-05-01T06:38:44.44Z</time></trkpt><trkpt lat="44.4868233" lon="11.3481083"><ele>74.0</ele><time>2026-05-01T06:38:46.44Z</time></trkpt><trkpt lat="44.4867267" lon="11.348115"><ele>74.2</ele><time>2026-05-01T06:38:48.441Z</time></trkpt><trkpt lat="44.48663" lon="11.34813"><ele>74.4</ele><time>2026-05-01T06:38:50.44Z</time></trkpt><trkpt lat="44.4865317" lon="11.3481333"><ele>74.6</ele><time>2026-05-01T06:38:52.44Z</time></trkpt><trkpt lat="44.4864333" lon="11.34815"><ele>74.8</ele><time>2026-05-01T06:38:54.44Z</time></trkpt><trkpt lat="44.486335" lon="11.34816"><ele>75.0</ele><time>2026-05-01T06:38:56.442Z</time></trkpt><trkpt lat="44.4862383" lon="11.3481683"><ele>74.66666666666667</ele><time>2026-05-01T06:38:58.443Z</time></trkpt><trkpt lat="44.4861417" lon="11.3481883"><ele>74.33333333333333</ele><time>2026-05-01T06:39:00.441Z</time></trkpt><trkpt lat="44.486045" lon="11.3481917"><ele>74.0</ele><time>2026-05-01T06:39:02.442Z</time></trkpt><trkpt lat="44.4859583" lon="11.3481717"><ele>73.66666666666666</ele><time>2026-05-01T06:39:04.44Z</time></trkpt><trkpt lat="44.48588" lon="11.34815"><ele>73.33333333333333</ele><time>2026-05-01T06:39:06.442Z</time></trkpt><trkpt lat="44.485805" lon="11.3481433"><ele>73.0</ele><time>2026-05-01T06:39:08.441Z</time></trkpt><trkpt lat="44.4857367" lon="11.3481367"><ele>73.0</ele><time>2026-05-01T06:39:10.441Z</time></trkpt><trkpt lat="44.4856717" lon="11.348075"><ele>73.0</ele><time>2026-05-01T06:39:13.442Z</time></trkpt><trkpt lat="44.4855933" lon="11.348005"><ele>73.0</ele><time>2026-05-01T06:40:24.439Z</time></trkpt><trkpt lat="44.4855083" lon="11.3480267"><ele>73.0</ele><time>2026-05-01T06:40:28.44Z</time></trkpt><trkpt lat="44.485445" lon="11.3481183"><ele>73.0</ele><time>2026-05-01T06:40:31.44Z</time></trkpt><trkpt lat="44.4853933" lon="11.3481933"><ele>73.0</ele><time>2026-05-01T06:40:33.439Z</time></trkpt><trkpt lat="44.485345" lon="11.3482583"><ele>73.16666666666666</ele><time>2026-05-01T06:40:35.439Z</time></trkpt><trkpt lat="44.485285" lon="11.3483317"><ele>73.33333333333333</ele><time>2026-05-01T06:40:38.442Z</time></trkpt><trkpt lat="44.48528" lon="11.3484233"><ele>73.5</ele><time>2026-05-01T06:40:41.442Z</time></trkpt><trkpt lat="44.4852617" lon="11.3485267"><ele>73.66666666666667</ele><time>2026-05-01T06:40:45.443Z</time></trkpt><trkpt lat="44.4851933" lon="11.348615"><ele>73.83333333333334</ele><time>2026-05-01T06:40:48.44Z</time></trkpt><trkpt lat="44.4851517" lon="11.3487067"><ele>74.0</ele><time>2026-05-01T06:40:50.439Z</time></trkpt><trkpt lat="44.4851217" lon="11.348825"><ele>73.66666666666667</ele><time>2026-05-01T06:40:52.438Z</time></trkpt><trkpt lat="44.4851" lon="11.3489367"><ele>73.33333333333334</ele><time>2026-05-01T06:40:54.439Z</time></trkpt><trkpt lat="44.4850883" lon="11.34906"><ele>73.0</ele><time>2026-05-01T06:40:56.439Z</time></trkpt><trkpt lat="44.4850917" lon="11.349185"><ele>72.66666666666667</ele><time>2026-05-01T06:40:58.44Z</time></trkpt><trkpt lat="44.4850917" lon="11.3492933"><ele>72.33333333333333</ele><time>2026-05-01T06:41:00.439Z</time></trkpt><trkpt lat="44.4850733" lon="11.3493917"><ele>72.0</ele><time>2026-05-01T06:41:02.44Z</time></trkpt><trkpt lat="44.48506" lon="11.3495017"><ele>72.0</ele><time>2026-05-01T06:41:05.439Z</time></trkpt><trkpt lat="44.4850233" lon="11.349615"><ele>72.0</ele><time>2026-05-01T06:41:08.439Z</time></trkpt><trkpt lat="44.4849833" lon="11.34971"><ele>72.0</ele><time>2026-05-01T06:41:10.439Z</time></trkpt><trkpt lat="44.48495" lon="11.3497933"><ele>72.0</ele><time>2026-05-01T06:41:12.439Z</time></trkpt><trkpt lat="44.4849233" lon="11.3498733"><ele>72.0</ele><time>2026-05-01T06:41:14.439Z</time></trkpt><trkpt lat="44.4848983" lon="11.3499667"><ele>72.0</ele><time>2026-05-01T06:41:16.439Z</time></trkpt><trkpt lat="44.484855" lon="11.3500667"><ele>72.14285714285715</ele><time>2026-05-01T06:41:18.439Z</time></trkpt><trkpt lat="44.4848117" lon="11.350145"><ele>72.28571428571429</ele><time>2026-05-01T06:41:20.441Z</time></trkpt><trkpt lat="44.4847683" lon="11.3502317"><ele>72.42857142857143</ele><time>2026-05-01T06:41:22.438Z</time></trkpt><trkpt lat="44.484725" lon="11.3503217"><ele>72.57142857142858</ele><time>2026-05-01T06:41:24.438Z</time></trkpt><trkpt lat="44.4846717" lon="11.350385"><ele>72.71428571428572</ele><time>2026-05-01T06:41:26.441Z</time></trkpt><trkpt lat="44.484615" lon="11.3504533"><ele>72.85714285714286</ele><time>2026-05-01T06:41:28.442Z</time></trkpt><trkpt lat="44.4845433" lon="11.3505033"><ele>73.0</ele><time>2026-05-01T06:41:30.441Z</time></trkpt><trkpt lat="44.4844767" lon="11.350505"><ele>73.5</ele><time>2026-05-01T06:41:32.443Z</time></trkpt><trkpt lat="44.4843933" lon="11.3504633"><ele>74.0</ele><time>2026-05-01T06:41:34.442Z</time></trkpt><trkpt lat="44.4843083" lon="11.3504117"><ele>74.5</ele><time>2026-05-01T06:41:36.44Z</time></trkpt><trkpt lat="44.4842233" lon="11.350355"><ele>75.0</ele><time>2026-05-01T06:41:38.443Z</time></trkpt><trkpt lat="44.4841533" lon="11.3503033"><ele>75.5</ele><time>2026-05-01T06:41:40.439Z</time></trkpt><trkpt lat="44.48408" lon="11.3502767"><ele>76.0</ele><time>2026-05-01T06:41:42.44Z</time></trkpt><trkpt lat="44.483995" lon="11.3502517"><ele>76.0</ele><time>2026-05-01T06:41:44.438Z</time></trkpt><trkpt lat="44.4839117" lon="11.3502367"><ele>76.0</ele><time>2026-05-01T06:41:46.438Z</time></trkpt><trkpt lat="44.4838317" lon="11.3502317"><ele>76.0</ele><time>2026-05-01T06:41:48.438Z</time></trkpt><trkpt lat="44.4837467" lon="11.3502217"><ele>76.0</ele><time>2026-05-01T06:41:50.44Z</time></trkpt><trkpt lat="44.4836733" lon="11.3502183"><ele>76.0</ele><time>2026-05-01T06:41:52.439Z</time></trkpt><trkpt lat="44.4836083" lon="11.3502467"><ele>76.0</ele><time>2026-05-01T06:41:54.439Z</time></trkpt><trkpt lat="44.4835267" lon="11.3503033"><ele>76.39999999999999</ele><time>2026-05-01T06:41:57.442Z</time></trkpt><trkpt lat="44.4834783" lon="11.3504"><ele>76.8</ele><time>2026-05-01T06:42:00.442Z</time></trkpt><trkpt lat="44.4834917" lon="11.3505083"><ele>77.19999999999999</ele><time>2026-05-01T06:42:02.442Z</time></trkpt><trkpt lat="44.4835267" lon="11.35063"><ele>77.6</ele><time>2026-05-01T06:42:04.439Z</time></trkpt><trkpt lat="44.4835667" lon="11.350765"><ele>78.0</ele><time>2026-05-01T06:42:06.441Z</time></trkpt><trkpt lat="44.4836033" lon="11.3509"><ele>78.0</ele><time>2026-05-01T06:42:08.442Z</time></trkpt><trkpt lat="44.4836483" lon="11.3510533"><ele>78.0</ele><time>2026-05-01T06:42:10.443Z</time></trkpt><trkpt lat="44.4836767" lon="11.3512067"><ele>78.0</ele><time>2026-05-01T06:42:12.442Z</time></trkpt><trkpt lat="44.4836783" lon="11.3513733"><ele>78.0</ele><time>2026-05-01T06:42:14.443Z</time></trkpt><trkpt lat="44.4836633" lon="11.3515267"><ele>78.5</ele><time>2026-05-01T06:42:16.439Z</time></trkpt><trkpt lat="44.483625" lon="11.3516633"><ele>79.0</ele><time>2026-05-01T06:42:18.439Z</time></trkpt><trkpt lat="44.4835783" lon="11.3518067"><ele>79.5</ele><time>2026-05-01T06:42:20.443Z</time></trkpt><trkpt lat="44.4835367" lon="11.351965"><ele>80.0</ele><time>2026-05-01T06:42:22.438Z</time></trkpt><trkpt lat="44.48347" lon="11.3521067"><ele>80.0</ele><time>2026-05-01T06:42:24.442Z</time></trkpt><trkpt lat="44.4834317" lon="11.35218"><ele>80.0</ele><time>2026-05-01T06:42:25.442Z</time></trkpt><trkpt lat="44.4833733" lon="11.352325"><ele>80.0</ele><time>2026-05-01T06:42:27.441Z</time></trkpt><trkpt lat="44.4833067" lon="11.35246"><ele>80.0</ele><time>2026-05-01T06:42:29.443Z</time></trkpt><trkpt lat="44.4832333" lon="11.3525833"><ele>80.0</ele><time>2026-05-01T06:42:31.442Z</time></trkpt><trkpt lat="44.4831583" lon="11.3527"><ele>79.8</ele><time>2026-05-01T06:42:33.442Z</time></trkpt><trkpt lat="44.483085" lon="11.3528233"><ele>79.6</ele><time>2026-05-01T06:42:35.442Z</time></trkpt><trkpt lat="44.4830233" lon="11.3529467"><ele>79.4</ele><time>2026-05-01T06:42:37.439Z</time></trkpt><trkpt lat="44.4829617" lon="11.3530733"><ele>79.2</ele><time>2026-05-01T06:42:39.441Z</time></trkpt><trkpt lat="44.4828967" lon="11.3531933"><ele>79.0</ele><time>2026-05-01T06:42:41.443Z</time></trkpt><trkpt lat="44.4828467" lon="11.35333"><ele>79.0</ele><time>2026-05-01T06:42:43.442Z</time></trkpt><trkpt lat="44.4827933" lon="11.35347"><ele>79.0</ele><time>2026-05-01T06:42:45.443Z</time></trkpt><trkpt lat="44.4827667" lon="11.3535567"><ele>79.0</ele><time>2026-05-01T06:42:46.443Z</time></trkpt><trkpt lat="44.4827533" lon="11.353655"><ele>79.0</ele><time>2026-05-01T06:42:47.442Z</time></trkpt><trkpt lat="44.48274" lon="11.353815"><ele>79.0</ele><time>2026-05-01T06:42:49.443Z</time></trkpt><trkpt lat="44.4827383" lon="11.35397"><ele>79.0</ele><time>2026-05-01T06:42:51.443Z</time></trkpt><trkpt lat="44.482745" lon="11.3541217"><ele>79.0</ele><time>2026-05-01T06:42:53.441Z</time></trkpt><trkpt lat="44.4827533" lon="11.35428"><ele>79.0</ele><time>2026-05-01T06:42:55.44Z</time></trkpt><trkpt lat="44.4827717" lon="11.3544467"><ele>79.0</ele><time>2026-05-01T06:42:57.443Z</time></trkpt><trkpt lat="44.4827833" lon="11.3545983"><ele>78.2</ele><time>2026-05-01T06:42:59.44Z</time></trkpt><trkpt lat="44.48277" lon="11.3547433"><ele>77.4</ele><time>2026-05-01T06:43:01.44Z</time></trkpt><trkpt lat="44.4827317" lon="11.35488"><ele>76.6</ele><time>2026-05-01T06:43:03.44Z</time></trkpt><trkpt lat="44.4826617" lon="11.3549833"><ele>75.8</ele><time>2026-05-01T06:43:05.441Z</time></trkpt><trkpt lat="44.4825817" lon="11.35506"><ele>75.0</ele><time>2026-05-01T06:43:07.44Z</time></trkpt><trkpt lat="44.4824917" lon="11.3551017"><ele>75.0</ele><time>2026-05-01T06:43:09.443Z</time></trkpt><trkpt lat="44.4823917" lon="11.3551167"><ele>75.0</ele><time>2026-05-01T06:43:11.442Z</time></trkpt><trkpt lat="44.4823" lon="11.3551267"><ele>75.0</ele><time>2026-05-01T06:43:13.443Z</time></trkpt><trkpt lat="44.4822033" lon="11.3551417"><ele>75.0</ele><time>2026-05-01T06:43:15.443Z</time></trkpt><trkpt lat="44.4821167" lon="11.3551417"><ele>75.0</ele><time>2026-05-01T06:43:17.442Z</time></trkpt><trkpt lat="44.482025" lon="11.3551567"><ele>75.8</ele><time>2026-05-01T06:43:19.442Z</time></trkpt><trkpt lat="44.481935" lon="11.3551717"><ele>76.6</ele><time>2026-05-01T06:43:21.44Z</time></trkpt><trkpt lat="44.4818433" lon="11.3551867"><ele>77.4</ele><time>2026-05-01T06:43:23.44Z</time></trkpt><trkpt lat="44.4817467" lon="11.355195"><ele>78.2</ele><time>2026-05-01T06:43:25.443Z</time></trkpt><trkpt lat="44.48165" lon="11.3551967"><ele>79.0</ele><time>2026-05-01T06:43:27.443Z</time></trkpt><trkpt lat="44.4815533" lon="11.3551833"><ele>79.0</ele><time>2026-05-01T06:43:29.442Z</time></trkpt><trkpt lat="44.481465" lon="11.3551517"><ele>79.0</ele><time>2026-05-01T06:43:31.442Z</time></trkpt><trkpt lat="44.4813767" lon="11.3551117"><ele>79.0</ele><time>2026-05-01T06:43:33.439Z</time></trkpt><trkpt lat="44.4812883" lon="11.3550617"><ele>79.0</ele><time>2026-05-01T06:43:35.443Z</time></trkpt><trkpt lat="44.4812083" lon="11.3550033"><ele>79.0</ele><time>2026-05-01T06:43:37.44Z</time></trkpt><trkpt lat="44.481135" lon="11.3549633"><ele>79.0</ele><time>2026-05-01T06:43:39.44Z</time></trkpt><trkpt lat="44.4810567" lon="11.35493"><ele>78.83333333333333</ele><time>2026-05-01T06:43:41.442Z</time></trkpt><trkpt lat="44.4809683" lon="11.3548983"><ele>78.66666666666666</ele><time>2026-05-01T06:43:43.443Z</time></trkpt><trkpt lat="44.480875" lon="11.3548583"><ele>78.5</ele><time>2026-05-01T06:43:45.441Z</time></trkpt><trkpt lat="44.4807883" lon="11.3548067"><ele>78.33333333333333</ele><time>2026-05-01T06:43:47.44Z</time></trkpt><trkpt lat="44.48072" lon="11.3547433"><ele>78.16666666666667</ele><time>2026-05-01T06:43:49.44Z</time></trkpt><trkpt lat="44.4806467" lon="11.3546967"><ele>78.0</ele><time>2026-05-01T06:43:52.443Z</time></trkpt><trkpt lat="44.4805883" lon="11.3546633"><ele>78.0</ele><time>2026-05-01T06:43:55.442Z</time></trkpt><trkpt lat="44.4805267" lon="11.3546867"><ele>78.0</ele><time>2026-05-01T06:43:59.441Z</time></trkpt><trkpt lat="44.4805383" lon="11.35479"><ele>78.0</ele><time>2026-05-01T06:44:03.443Z</time></trkpt><trkpt lat="44.4805983" lon="11.3548217"><ele>78.0</ele><time>2026-05-01T06:44:07.443Z</time></trkpt><trkpt lat="44.4807067" lon="11.35484"><ele>78.0</ele><time>2026-05-01T06:44:16.439Z</time></trkpt><trkpt lat="44.48079" lon="11.3548933"><ele>78.0</ele><time>2026-05-01T06:44:18.441Z</time></trkpt><trkpt lat="44.4808933" lon="11.354955"><ele>78.0</ele><time>2026-05-01T06:44:20.439Z</time></trkpt><trkpt lat="44.4809567" lon="11.3549883"><ele>78.0</ele><time>2026-05-01T06:44:21.443Z</time></trkpt><trkpt lat="44.481015" lon="11.3550217"><ele>78.0</ele><time>2026-05-01T06:44:22.442Z</time></trkpt><trkpt lat="44.4811283" lon="11.355085"><ele>78.0</ele><time>2026-05-01T06:44:24.441Z</time></trkpt><trkpt lat="44.48124" lon="11.3551383"><ele>78.0</ele><time>2026-05-01T06:44:26.438Z</time></trkpt><trkpt lat="44.4813267" lon="11.3551717"><ele>78.16666666666667</ele><time>2026-05-01T06:44:28.441Z</time></trkpt><trkpt lat="44.4813983" lon="11.3552217"><ele>78.33333333333333</ele><time>2026-05-01T06:44:30.441Z</time></trkpt><trkpt lat="44.48148" lon="11.35527"><ele>78.5</ele><time>2026-05-01T06:44:32.439Z</time></trkpt><trkpt lat="44.481545" lon="11.3553633"><ele>78.66666666666666</ele><time>2026-05-01T06:44:34.441Z</time></trkpt><trkpt lat="44.4815683" lon="11.3554767"><ele>78.83333333333333</ele><time>2026-05-01T06:44:36.442Z</time></trkpt><trkpt lat="44.481505" lon="11.3555333"><ele>79.0</ele><time>2026-05-01T06:44:38.442Z</time></trkpt><trkpt lat="44.4813917" lon="11.3555483"><ele>79.0</ele><time>2026-05-01T06:44:40.438Z</time></trkpt><trkpt lat="44.4812983" lon="11.35559"><ele>79.0</ele><time>2026-05-01T06:44:42.442Z</time></trkpt><trkpt lat="44.4812367" lon="11.3556117"><ele>79.0</ele><time>2026-05-01T06:44:43.44Z</time></trkpt><trkpt lat="44.4811433" lon="11.3556233"><ele>79.0</ele><time>2026-05-01T06:44:45.439Z</time></trkpt><trkpt lat="44.4810483" lon="11.3556267"><ele>79.0</ele><time>2026-05-01T06:44:47.438Z</time></trkpt><trkpt lat="44.48098" lon="11.3556933"><ele>79.0</ele><time>2026-05-01T06:44:49.44Z</time></trkpt><trkpt lat="44.4809533" lon="11.3558067"><ele>78.83333333333333</ele><time>2026-05-01T06:44:51.438Z</time></trkpt><trkpt lat="44.480915" lon="11.3559167"><ele>78.66666666666666</ele><time>2026-05-01T06:44:53.44Z</time></trkpt><trkpt lat="44.4808783" lon="11.3559967"><ele>78.5</ele><time>2026-05-01T06:44:55.441Z</time></trkpt><trkpt lat="44.4808217" lon="11.35605"><ele>78.33333333333333</ele><time>2026-05-01T06:44:58.44Z</time></trkpt><trkpt lat="44.4807433" lon="11.3559817"><ele>78.16666666666667</ele><time>2026-05-01T06:45:01.439Z</time></trkpt><trkpt lat="44.480685" lon="11.3558817"><ele>78.0</ele><time>2026-05-01T06:45:03.441Z</time></trkpt><trkpt lat="44.4806267" lon="11.3557733"><ele>78.0</ele><time>2026-05-01T06:45:05.439Z</time></trkpt><trkpt lat="44.48057" lon="11.3556783"><ele>78.0</ele><time>2026-05-01T06:45:07.44Z</time></trkpt><trkpt lat="44.4805217" lon="11.355585"><ele>78.0</ele><time>2026-05-01T06:45:09.443Z</time></trkpt><trkpt lat="44.480465" lon="11.3555083"><ele>78.0</ele><time>2026-05-01T06:45:11.442Z</time></trkpt><trkpt lat="44.4803917" lon="11.3554417"><ele>78.0</ele><time>2026-05-01T06:45:13.44Z</time></trkpt><trkpt lat="44.48032" lon="11.3554383"><ele>78.0</ele><time>2026-05-01T06:45:15.441Z</time></trkpt><trkpt lat="44.4802583" lon="11.3555183"><ele>78.5</ele><time>2026-05-01T06:45:17.441Z</time></trkpt><trkpt lat="44.4802" lon="11.3556217"><ele>79.0</ele><time>2026-05-01T06:45:19.441Z</time></trkpt><trkpt lat="44.4801417" lon="11.3557167"><ele>79.5</ele><time>2026-05-01T06:45:21.442Z</time></trkpt><trkpt lat="44.4800833" lon="11.3558"><ele>80.0</ele><time>2026-05-01T06:45:23.443Z</time></trkpt><trkpt lat="44.4800367" lon="11.3558867"><ele>80.5</ele><time>2026-05-01T06:45:25.442Z</time></trkpt><trkpt lat="44.479985" lon="11.3559683"><ele>81.0</ele><time>2026-05-01T06:45:27.439Z</time></trkpt><trkpt lat="44.4799233" lon="11.3560633"><ele>81.0</ele><time>2026-05-01T06:45:29.438Z</time></trkpt><trkpt lat="44.4798617" lon="11.356145"><ele>81.0</ele><time>2026-05-01T06:45:31.44Z</time></trkpt><trkpt lat="44.4797933" lon="11.3562217"><ele>81.0</ele><time>2026-05-01T06:45:33.443Z</time></trkpt><trkpt lat="44.4797333" lon="11.3562967"><ele>81.0</ele><time>2026-05-01T06:45:35.438Z</time></trkpt><trkpt lat="44.4796867" lon="11.3563883"><ele>81.0</ele><time>2026-05-01T06:45:37.439Z</time></trkpt><trkpt lat="44.479655" lon="11.3564733"><ele>81.0</ele><time>2026-05-01T06:45:39.439Z</time></trkpt><trkpt lat="44.4796033" lon="11.3565667"><ele>81.16666666666667</ele><time>2026-05-01T06:45:42.439Z</time></trkpt><trkpt lat="44.4795567" lon="11.3566367"><ele>81.33333333333333</ele><time>2026-05-01T06:45:44.439Z</time></trkpt><trkpt lat="44.479515" lon="11.3567183"><ele>81.5</ele><time>2026-05-01T06:45:46.441Z</time></trkpt><trkpt lat="44.4794683" lon="11.3568083"><ele>81.66666666666666</ele><time>2026-05-01T06:45:48.44Z</time></trkpt><trkpt lat="44.4794233" lon="11.3569083"><ele>81.83333333333333</ele><time>2026-05-01T06:45:50.441Z</time></trkpt><trkpt lat="44.4793617" lon="11.3569967"><ele>82.0</ele><time>2026-05-01T06:45:52.438Z</time></trkpt><trkpt lat="44.4793" lon="11.3570883"><ele>82.0</ele><time>2026-05-01T06:45:54.441Z</time></trkpt><trkpt lat="44.4792433" lon="11.357185"><ele>82.0</ele><time>2026-05-01T06:45:56.442Z</time></trkpt><trkpt lat="44.4791883" lon="11.3572767"><ele>82.0</ele><time>2026-05-01T06:45:58.439Z</time></trkpt><trkpt lat="44.4791433" lon="11.3573633"><ele>82.0</ele><time>2026-05-01T06:46:00.442Z</time></trkpt><trkpt lat="44.4791033" lon="11.3574433"><ele>82.0</ele><time>2026-05-01T06:46:02.439Z</time></trkpt><trkpt lat="44.4790633" lon="11.3575133"><ele>82.0</ele><time>2026-05-01T06:46:04.443Z</time></trkpt><trkpt lat="44.478995" lon="11.3575333"><ele>82.0</ele><time>2026-05-01T06:46:06.439Z</time></trkpt><trkpt lat="44.4789217" lon="11.3574933"><ele>82.0</ele><time>2026-05-01T06:46:08.442Z</time></trkpt><trkpt lat="44.478845" lon="11.3574167"><ele>82.0</ele><time>2026-05-01T06:46:10.442Z</time></trkpt><trkpt lat="44.4787717" lon="11.35734"><ele>82.0</ele><time>2026-05-01T06:46:12.442Z</time></trkpt><trkpt lat="44.4786967" lon="11.3572633"><ele>82.0</ele><time>2026-05-01T06:46:14.44Z</time></trkpt><trkpt lat="44.4786233" lon="11.3572"><ele>82.0</ele><time>2026-05-01T06:46:16.442Z</time></trkpt><trkpt lat="44.4785633" lon="11.3571133"><ele>82.83333333333333</ele><time>2026-05-01T06:46:18.439Z</time></trkpt><trkpt lat="44.4785067" lon="11.3570333"><ele>83.66666666666666</ele><time>2026-05-01T06:46:20.439Z</time></trkpt><trkpt lat="44.478445" lon="11.3569417"><ele>84.5</ele><time>2026-05-01T06:46:22.44Z</time></trkpt><trkpt lat="44.4783817" lon="11.3568483"><ele>85.33333333333333</ele><time>2026-05-01T06:46:24.439Z</time></trkpt><trkpt lat="44.4783167" lon="11.356765"><ele>86.16666666666667</ele><time>2026-05-01T06:46:26.44Z</time></trkpt><trkpt lat="44.478255" lon="11.3566817"><ele>87.0</ele><time>2026-05-01T06:46:28.439Z</time></trkpt><trkpt lat="44.4781967" lon="11.3566067"><ele>87.0</ele><time>2026-05-01T06:46:30.44Z</time></trkpt><trkpt lat="44.4781367" lon="11.35653"><ele>87.0</ele><time>2026-05-01T06:46:32.44Z</time></trkpt><trkpt lat="44.4780767" lon="11.3564617"><ele>87.0</ele><time>2026-05-01T06:46:34.443Z</time></trkpt><trkpt lat="44.4780133" lon="11.3563967"><ele>87.0</ele><time>2026-05-01T06:46:36.441Z</time></trkpt><trkpt lat="44.4779467" lon="11.3563233"><ele>87.0</ele><time>2026-05-01T06:46:38.443Z</time></trkpt><trkpt lat="44.4778867" lon="11.35624"><ele>87.0</ele><time>2026-05-01T06:46:40.439Z</time></trkpt><trkpt lat="44.4778267" lon="11.3561667"><ele>87.83333333333333</ele><time>2026-05-01T06:46:42.439Z</time></trkpt><trkpt lat="44.47777" lon="11.3560933"><ele>88.66666666666667</ele><time>2026-05-01T06:46:44.439Z</time></trkpt><trkpt lat="44.4777017" lon="11.3560217"><ele>89.5</ele><time>2026-05-01T06:46:46.443Z</time></trkpt><trkpt lat="44.4776383" lon="11.3559433"><ele>90.33333333333334</ele><time>2026-05-01T06:46:48.438Z</time></trkpt><trkpt lat="44.4775767" lon="11.3558483"><ele>91.16666666666667</ele><time>2026-05-01T06:46:50.439Z</time></trkpt><trkpt lat="44.4775083" lon="11.35577"><ele>92.0</ele><time>2026-05-01T06:46:52.44Z</time></trkpt><trkpt lat="44.4774417" lon="11.3556883"><ele>92.0</ele><time>2026-05-01T06:46:54.44Z</time></trkpt><trkpt lat="44.4773817" lon="11.3556267"><ele>92.0</ele><time>2026-05-01T06:46:56.439Z</time></trkpt><trkpt lat="44.4773267" lon="11.355575"><ele>92.0</ele><time>2026-05-01T06:46:58.44Z</time></trkpt><trkpt lat="44.4772367" lon="11.3555483"><ele>92.0</ele><time>2026-05-01T06:47:01.44Z</time></trkpt><trkpt lat="44.47717" lon="11.3555783"><ele>92.0</ele><time>2026-05-01T06:47:03.442Z</time></trkpt><trkpt lat="44.4771033" lon="11.355695"><ele>92.0</ele><time>2026-05-01T06:47:05.443Z</time></trkpt><trkpt lat="44.4770583" lon="11.355845"><ele>91.66666666666667</ele><time>2026-05-01T06:47:07.443Z</time></trkpt><trkpt lat="44.477025" lon="11.3560067"><ele>91.33333333333334</ele><time>2026-05-01T06:47:09.442Z</time></trkpt><trkpt lat="44.4770033" lon="11.356095"><ele>91.0</ele><time>2026-05-01T06:47:10.44Z</time></trkpt><trkpt lat="44.4769783" lon="11.3561783"><ele>90.66666666666667</ele><time>2026-05-01T06:47:11.442Z</time></trkpt><trkpt lat="44.47696" lon="11.3562683"><ele>90.33333333333333</ele><time>2026-05-01T06:47:12.439Z</time></trkpt><trkpt lat="44.47694" lon="11.35636"><ele>90.0</ele><time>2026-05-01T06:47:13.439Z</time></trkpt><trkpt lat="44.47689" lon="11.3565167"><ele>90.0</ele><time>2026-05-01T06:47:15.442Z</time></trkpt><trkpt lat="44.4768683" lon="11.3566"><ele>90.0</ele><time>2026-05-01T06:47:16.439Z</time></trkpt><trkpt lat="44.4768467" lon="11.3566833"><ele>90.0</ele><time>2026-05-01T06:47:17.441Z</time></trkpt><trkpt lat="44.4768183" lon="11.3568517"><ele>90.0</ele><time>2026-05-01T06:47:19.439Z</time></trkpt><trkpt lat="44.4767917" lon="11.3570183"><ele>90.0</ele><time>2026-05-01T06:47:21.44Z</time></trkpt><trkpt lat="44.476775" lon="11.357105"><ele>90.0</ele><time>2026-05-01T06:47:22.44Z</time></trkpt><trkpt lat="44.4767533" lon="11.3572733"><ele>90.0</ele><time>2026-05-01T06:47:24.441Z</time></trkpt><trkpt lat="44.4767317" lon="11.357435"><ele>90.0</ele><time>2026-05-01T06:47:26.44Z</time></trkpt><trkpt lat="44.4767133" lon="11.3576"><ele>90.0</ele><time>2026-05-01T06:47:28.44Z</time></trkpt><trkpt lat="44.4767033" lon="11.35777"><ele>90.0</ele><time>2026-05-01T06:47:30.44Z</time></trkpt><trkpt lat="44.4766867" lon="11.357935"><ele>90.4</ele><time>2026-05-01T06:47:32.442Z</time></trkpt><trkpt lat="44.4766783" lon="11.3581067"><ele>90.8</ele><time>2026-05-01T06:47:34.443Z</time></trkpt><trkpt lat="44.47667" lon="11.358285"><ele>91.19999999999999</ele><time>2026-05-01T06:47:36.445Z</time></trkpt><trkpt lat="44.476665" lon="11.358375"><ele>91.6</ele><time>2026-05-01T06:47:37.442Z</time></trkpt><trkpt lat="44.47666" lon="11.3585367"><ele>92.0</ele><time>2026-05-01T06:47:39.439Z</time></trkpt><trkpt lat="44.4766533" lon="11.3586317"><ele>92.0</ele><time>2026-05-01T06:47:40.44Z</time></trkpt><trkpt lat="44.47665" lon="11.35873"><ele>92.0</ele><time>2026-05-01T06:47:41.441Z</time></trkpt><trkpt lat="44.4766417" lon="11.3588283"><ele>92.0</ele><time>2026-05-01T06:47:42.441Z</time></trkpt><trkpt lat="44.476635" lon="11.35893"><ele>92.0</ele><time>2026-05-01T06:47:43.442Z</time></trkpt><trkpt lat="44.4766267" lon="11.3590267"><ele>92.0</ele><time>2026-05-01T06:47:44.441Z</time></trkpt><trkpt lat="44.476615" lon="11.3591233"><ele>92.0</ele><time>2026-05-01T06:47:45.441Z</time></trkpt><trkpt lat="44.4766" lon="11.3592233"><ele>92.0</ele><time>2026-05-01T06:47:46.441Z</time></trkpt><trkpt lat="44.47658" lon="11.35933"><ele>91.71428571428572</ele><time>2026-05-01T06:47:47.441Z</time></trkpt><trkpt lat="44.4765583" lon="11.3594367"><ele>91.42857142857142</ele><time>2026-05-01T06:47:48.441Z</time></trkpt><trkpt lat="44.4765383" lon="11.35954"><ele>91.14285714285714</ele><time>2026-05-01T06:47:49.442Z</time></trkpt><trkpt lat="44.4765183" lon="11.35964"><ele>90.85714285714286</ele><time>2026-05-01T06:47:50.441Z</time></trkpt><trkpt lat="44.47649" lon="11.3597317"><ele>90.57142857142858</ele><time>2026-05-01T06:47:51.44Z</time></trkpt><trkpt lat="44.47646" lon="11.3598183"><ele>90.28571428571428</ele><time>2026-05-01T06:47:52.442Z</time></trkpt><trkpt lat="44.476425" lon="11.359905"><ele>90.0</ele><time>2026-05-01T06:47:53.439Z</time></trkpt><trkpt lat="44.4763883" lon="11.35999"><ele>89.83333333333333</ele><time>2026-05-01T06:47:54.442Z</time></trkpt><trkpt lat="44.4763467" lon="11.3600617"><ele>89.66666666666667</ele><time>2026-05-01T06:47:55.441Z</time></trkpt><trkpt lat="44.476305" lon="11.36014"><ele>89.5</ele><time>2026-05-01T06:47:56.441Z</time></trkpt><trkpt lat="44.4762617" lon="11.3602183"><ele>89.33333333333334</ele><time>2026-05-01T06:47:57.441Z</time></trkpt><trkpt lat="44.4762217" lon="11.3602967"><ele>89.16666666666667</ele><time>2026-05-01T06:47:58.44Z</time></trkpt><trkpt lat="44.476185" lon="11.3603717"><ele>89.0</ele><time>2026-05-01T06:47:59.44Z</time></trkpt><trkpt lat="44.476105" lon="11.36051"><ele>89.75</ele><time>2026-05-01T06:48:01.442Z</time></trkpt><trkpt lat="44.4760317" lon="11.3606467"><ele>90.5</ele><time>2026-05-01T06:48:03.439Z</time></trkpt><trkpt lat="44.4759617" lon="11.3607867"><ele>91.25</ele><time>2026-05-01T06:48:05.439Z</time></trkpt><trkpt lat="44.4758967" lon="11.3609217"><ele>92.0</ele><time>2026-05-01T06:48:07.44Z</time></trkpt><trkpt lat="44.4758317" lon="11.36106"><ele>92.0</ele><time>2026-05-01T06:48:09.442Z</time></trkpt><trkpt lat="44.4757683" lon="11.3611983"><ele>92.0</ele><time>2026-05-01T06:48:11.439Z</time></trkpt><trkpt lat="44.47569" lon="11.3613333"><ele>92.0</ele><time>2026-05-01T06:48:13.44Z</time></trkpt><trkpt lat="44.4756083" lon="11.3614667"><ele>92.0</ele><time>2026-05-01T06:48:15.439Z</time></trkpt><trkpt lat="44.47554" lon="11.3616017"><ele>91.39999999999999</ele><time>2026-05-01T06:48:17.441Z</time></trkpt><trkpt lat="44.4754767" lon="11.3617283"><ele>90.8</ele><time>2026-05-01T06:48:19.44Z</time></trkpt><trkpt lat="44.4754133" lon="11.36185"><ele>90.2</ele><time>2026-05-01T06:48:21.44Z</time></trkpt><trkpt lat="44.4753583" lon="11.3619583"><ele>89.6</ele><time>2026-05-01T06:48:23.439Z</time></trkpt><trkpt lat="44.475305" lon="11.36206"><ele>89.0</ele><time>2026-05-01T06:48:25.44Z</time></trkpt><trkpt lat="44.4752467" lon="11.3621667"><ele>90.4</ele><time>2026-05-01T06:48:27.442Z</time></trkpt><trkpt lat="44.4751833" lon="11.3622633"><ele>91.80000000000001</ele><time>2026-05-01T06:48:29.439Z</time></trkpt><trkpt lat="44.4751167" lon="11.362375"><ele>93.19999999999999</ele><time>2026-05-01T06:48:31.44Z</time></trkpt><trkpt lat="44.47506" lon="11.3624967"><ele>94.6</ele><time>2026-05-01T06:48:33.441Z</time></trkpt><trkpt lat="44.4749967" lon="11.3626183"><ele>96.0</ele><time>2026-05-01T06:48:35.439Z</time></trkpt><trkpt lat="44.4749333" lon="11.36274"><ele>96.0</ele><time>2026-05-01T06:48:37.442Z</time></trkpt><trkpt lat="44.4748667" lon="11.3628533"><ele>96.0</ele><time>2026-05-01T06:48:39.438Z</time></trkpt><trkpt lat="44.4747983" lon="11.3629733"><ele>96.0</ele><time>2026-05-01T06:48:41.443Z</time></trkpt><trkpt lat="44.4747317" lon="11.3630967"><ele>96.0</ele><time>2026-05-01T06:48:43.44Z</time></trkpt><trkpt lat="44.4746633" lon="11.3632133"><ele>96.0</ele><time>2026-05-01T06:48:45.44Z</time></trkpt><trkpt lat="44.474595" lon="11.3633267"><ele>96.19999999999999</ele><time>2026-05-01T06:48:47.44Z</time></trkpt><trkpt lat="44.4745167" lon="11.3634317"><ele>96.39999999999999</ele><time>2026-05-01T06:48:49.44Z</time></trkpt><trkpt lat="44.4744333" lon="11.3635483"><ele>96.6</ele><time>2026-05-01T06:48:51.44Z</time></trkpt><trkpt lat="44.4743533" lon="11.3636617"><ele>96.8</ele><time>2026-05-01T06:48:53.439Z</time></trkpt><trkpt lat="44.4742917" lon="11.3637517"><ele>97.0</ele><time>2026-05-01T06:48:55.439Z</time></trkpt><trkpt lat="44.4742367" lon="11.36383"><ele>96.39999999999999</ele><time>2026-05-01T06:48:57.439Z</time></trkpt><trkpt lat="44.4741817" lon="11.3639117"><ele>95.8</ele><time>2026-05-01T06:48:59.44Z</time></trkpt><trkpt lat="44.4741067" lon="11.3640067"><ele>95.2</ele><time>2026-05-01T06:49:01.442Z</time></trkpt><trkpt lat="44.4740267" lon="11.3640867"><ele>94.6</ele><time>2026-05-01T06:49:03.44Z</time></trkpt><trkpt lat="44.4739383" lon="11.3641583"><ele>94.0</ele><time>2026-05-01T06:49:05.44Z</time></trkpt><trkpt lat="44.4738417" lon="11.3642333"><ele>96.2</ele><time>2026-05-01T06:49:07.44Z</time></trkpt><trkpt lat="44.473755" lon="11.3642983"><ele>98.4</ele><time>2026-05-01T06:49:09.44Z</time></trkpt><trkpt lat="44.4736733" lon="11.3643533"><ele>100.6</ele><time>2026-05-01T06:49:11.439Z</time></trkpt><trkpt lat="44.473595" lon="11.3644183"><ele>102.8</ele><time>2026-05-01T06:49:13.438Z</time></trkpt><trkpt lat="44.47351" lon="11.3644833"><ele>105.0</ele><time>2026-05-01T06:49:15.44Z</time></trkpt><trkpt lat="44.47342" lon="11.36454"><ele>105.0</ele><time>2026-05-01T06:49:17.439Z</time></trkpt><trkpt lat="44.4733417" lon="11.3646"><ele>105.0</ele><time>2026-05-01T06:49:19.44Z</time></trkpt><trkpt lat="44.4732633" lon="11.3646767"><ele>105.0</ele><time>2026-05-01T06:49:21.44Z</time></trkpt><trkpt lat="44.4731983" lon="11.3647533"><ele>105.0</ele><time>2026-05-01T06:49:23.439Z</time></trkpt><trkpt lat="44.4731317" lon="11.36483"><ele>105.0</ele><time>2026-05-01T06:49:25.439Z</time></trkpt><trkpt lat="44.47307" lon="11.364945"><ele>105.4</ele><time>2026-05-01T06:49:27.44Z</time></trkpt><trkpt lat="44.4730133" lon="11.3650833"><ele>105.8</ele><time>2026-05-01T06:49:29.439Z</time></trkpt><trkpt lat="44.472965" lon="11.3652017"><ele>106.19999999999999</ele><time>2026-05-01T06:49:31.44Z</time></trkpt><trkpt lat="44.47291" lon="11.3653483"><ele>106.6</ele><time>2026-05-01T06:49:33.443Z</time></trkpt><trkpt lat="44.4728583" lon="11.3654817"><ele>107.0</ele><time>2026-05-01T06:49:35.439Z</time></trkpt><trkpt lat="44.47281" lon="11.3656067"><ele>107.0</ele><time>2026-05-01T06:49:37.442Z</time></trkpt><trkpt lat="44.4727617" lon="11.36571"><ele>106.99999999999999</ele><time>2026-05-01T06:49:39.442Z</time></trkpt><trkpt lat="44.4727217" lon="11.365825"><ele>106.99999999999999</ele><time>2026-05-01T06:49:41.442Z</time></trkpt><trkpt lat="44.4726867" lon="11.3659383"><ele>107.0</ele><time>2026-05-01T06:49:43.443Z</time></trkpt><trkpt lat="44.4726467" lon="11.3660517"><ele>107.0</ele><time>2026-05-01T06:49:45.443Z</time></trkpt><trkpt lat="44.4726067" lon="11.3661783"><ele>107.0</ele><time>2026-05-01T06:49:47.44Z</time></trkpt><trkpt lat="44.4725617" lon="11.3663017"><ele>106.99999999999999</ele><time>2026-05-01T06:49:49.441Z</time></trkpt><trkpt lat="44.472505" lon="11.3664167"><ele>106.99999999999999</ele><time>2026-05-01T06:49:51.439Z</time></trkpt><trkpt lat="44.472445" lon="11.366555"><ele>107.0</ele><time>2026-05-01T06:49:53.44Z</time></trkpt><trkpt lat="44.47241" lon="11.366635"><ele>107.0</ele><time>2026-05-01T06:49:54.442Z</time></trkpt><trkpt lat="44.472375" lon="11.36673"><ele>106.33333333333333</ele><time>2026-05-01T06:49:55.441Z</time></trkpt><trkpt lat="44.4723367" lon="11.36682"><ele>105.66666666666666</ele><time>2026-05-01T06:49:56.442Z</time></trkpt><trkpt lat="44.4722967" lon="11.366915"><ele>105.0</ele><time>2026-05-01T06:49:57.442Z</time></trkpt><trkpt lat="44.4722583" lon="11.3670133"><ele>104.33333333333334</ele><time>2026-05-01T06:49:58.441Z</time></trkpt><trkpt lat="44.4722217" lon="11.3671133"><ele>103.66666666666667</ele><time>2026-05-01T06:49:59.44Z</time></trkpt><trkpt lat="44.47218" lon="11.3672167"><ele>103.0</ele><time>2026-05-01T06:50:00.442Z</time></trkpt><trkpt lat="44.472145" lon="11.3673167"><ele>102.83333333333334</ele><time>2026-05-01T06:50:01.442Z</time></trkpt><trkpt lat="44.4721117" lon="11.3674117"><ele>102.66666666666667</ele><time>2026-05-01T06:50:02.442Z</time></trkpt><trkpt lat="44.472075" lon="11.3675117"><ele>102.5</ele><time>2026-05-01T06:50:03.442Z</time></trkpt><trkpt lat="44.47204" lon="11.36762"><ele>102.33333333333334</ele><time>2026-05-01T06:50:04.442Z</time></trkpt><trkpt lat="44.472015" lon="11.3677383"><ele>102.16666666666667</ele><time>2026-05-01T06:50:05.439Z</time></trkpt><trkpt lat="44.472" lon="11.3678617"><ele>102.0</ele><time>2026-05-01T06:50:06.439Z</time></trkpt><trkpt lat="44.4720033" lon="11.367985"><ele>100.66666666666667</ele><time>2026-05-01T06:50:07.439Z</time></trkpt><trkpt lat="44.47202" lon="11.3681033"><ele>99.33333333333333</ele><time>2026-05-01T06:50:08.439Z</time></trkpt><trkpt lat="44.47205" lon="11.3682267"><ele>98.0</ele><time>2026-05-01T06:50:09.438Z</time></trkpt><trkpt lat="44.4721017" lon="11.3683317"><ele>96.66666666666666</ele><time>2026-05-01T06:50:10.439Z</time></trkpt><trkpt lat="44.4721733" lon="11.368395"><ele>95.33333333333333</ele><time>2026-05-01T06:50:11.439Z</time></trkpt><trkpt lat="44.4722467" lon="11.36845"><ele>94.0</ele><time>2026-05-01T06:50:12.439Z</time></trkpt><trkpt lat="44.47232" lon="11.368495"><ele>93.0</ele><time>2026-05-01T06:50:13.439Z</time></trkpt><trkpt lat="44.4723883" lon="11.3685433"><ele>92.0</ele><time>2026-05-01T06:50:14.44Z</time></trkpt><trkpt lat="44.4724533" lon="11.3685867"><ele>91.0</ele><time>2026-05-01T06:50:15.439Z</time></trkpt><trkpt lat="44.4725067" lon="11.3686383"><ele>90.0</ele><time>2026-05-01T06:50:16.439Z</time></trkpt><trkpt lat="44.4725533" lon="11.3687"><ele>89.0</ele><time>2026-05-01T06:50:17.443Z</time></trkpt><trkpt lat="44.4725667" lon="11.3687917"><ele>88.0</ele><time>2026-05-01T06:50:18.441Z</time></trkpt><trkpt lat="44.47257" lon="11.3689517"><ele>87.33333333333333</ele><time>2026-05-01T06:50:20.442Z</time></trkpt><trkpt lat="44.47257" lon="11.3690633"><ele>86.66666666666666</ele><time>2026-05-01T06:50:22.442Z</time></trkpt><trkpt lat="44.4725717" lon="11.3691567"><ele>86.0</ele><time>2026-05-01T06:50:24.441Z</time></trkpt><trkpt lat="44.4725717" lon="11.369245"><ele>85.33333333333333</ele><time>2026-05-01T06:50:27.438Z</time></trkpt><trkpt lat="44.4725917" lon="11.3693433"><ele>84.66666666666667</ele><time>2026-05-01T06:51:45.443Z</time></trkpt><trkpt lat="44.4726033" lon="11.3694783"><ele>84.0</ele><time>2026-05-01T06:51:48.442Z</time></trkpt><trkpt lat="44.4725933" lon="11.369595"><ele>83.33333333333333</ele><time>2026-05-01T06:51:50.439Z</time></trkpt><trkpt lat="44.4726117" lon="11.36971"><ele>82.66666666666667</ele><time>2026-05-01T06:51:52.44Z</time></trkpt><trkpt lat="44.4726533" lon="11.3698217"><ele>82.0</ele><time>2026-05-01T06:51:54.44Z</time></trkpt><trkpt lat="44.4726933" lon="11.3699333"><ele>81.33333333333334</ele><time>2026-05-01T06:51:56.439Z</time></trkpt><trkpt lat="44.47268" lon="11.370045"><ele>80.66666666666667</ele><time>2026-05-01T06:51:58.439Z</time></trkpt><trkpt lat="44.472625" lon="11.370135"><ele>80.0</ele><time>2026-05-01T06:52:00.44Z</time></trkpt><trkpt lat="44.472575" lon="11.3702233"><ele>80.0</ele><time>2026-05-01T06:52:02.439Z</time></trkpt><trkpt lat="44.4725483" lon="11.3703283"><ele>80.0</ele><time>2026-05-01T06:52:04.44Z</time></trkpt><trkpt lat="44.4725333" lon="11.3704317"><ele>80.0</ele><time>2026-05-01T06:52:06.44Z</time></trkpt><trkpt lat="44.4725117" lon="11.370535"><ele>80.0</ele><time>2026-05-01T06:52:08.439Z</time></trkpt><trkpt lat="44.4724967" lon="11.3706283"><ele>80.0</ele><time>2026-05-01T06:52:10.439Z</time></trkpt><trkpt lat="44.4724017" lon="11.3706683"><ele>80.0</ele><time>2026-05-01T06:52:13.44Z</time></trkpt><trkpt lat="44.4723133" lon="11.370665"><ele>79.8</ele><time>2026-05-01T06:52:15.439Z</time></trkpt><trkpt lat="44.4722467" lon="11.3707217"><ele>79.6</ele><time>2026-05-01T06:52:17.442Z</time></trkpt><trkpt lat="44.4722067" lon="11.3708367"><ele>79.4</ele><time>2026-05-01T06:52:19.44Z</time></trkpt><trkpt lat="44.47217" lon="11.3709533"><ele>79.2</ele><time>2026-05-01T06:52:21.438Z</time></trkpt><trkpt lat="44.472135" lon="11.3710767"><ele>79.0</ele><time>2026-05-01T06:52:23.438Z</time></trkpt><trkpt lat="44.4720883" lon="11.3712033"><ele>79.0</ele><time>2026-05-01T06:52:25.44Z</time></trkpt><trkpt lat="44.47205" lon="11.371325"><ele>79.0</ele><time>2026-05-01T06:52:27.438Z</time></trkpt><trkpt lat="44.4720083" lon="11.3714367"><ele>79.0</ele><time>2026-05-01T06:52:29.438Z</time></trkpt><trkpt lat="44.4719267" lon="11.3715367"><ele>79.0</ele><time>2026-05-01T06:52:31.44Z</time></trkpt><trkpt lat="44.47185" lon="11.371645"><ele>79.0</ele><time>2026-05-01T06:52:33.442Z</time></trkpt><trkpt lat="44.47176" lon="11.3717383"><ele>79.0</ele><time>2026-05-01T06:52:35.44Z</time></trkpt><trkpt lat="44.4716867" lon="11.3718317"><ele>79.0</ele><time>2026-05-01T06:52:37.441Z</time></trkpt><trkpt lat="44.4716117" lon="11.3719283"><ele>79.0</ele><time>2026-05-01T06:52:39.439Z</time></trkpt><trkpt lat="44.471535" lon="11.3720283"><ele>79.0</ele><time>2026-05-01T06:52:41.44Z</time></trkpt><trkpt lat="44.47146" lon="11.37214"><ele>79.0</ele><time>2026-05-01T06:52:43.442Z</time></trkpt><trkpt lat="44.47139" lon="11.372255"><ele>78.5</ele><time>2026-05-01T06:52:45.44Z</time></trkpt><trkpt lat="44.4713067" lon="11.3723633"><ele>78.0</ele><time>2026-05-01T06:52:47.439Z</time></trkpt><trkpt lat="44.4712267" lon="11.3724783"><ele>77.5</ele><time>2026-05-01T06:52:49.439Z</time></trkpt><trkpt lat="44.471145" lon="11.372595"><ele>77.0</ele><time>2026-05-01T06:52:51.438Z</time></trkpt><trkpt lat="44.4710567" lon="11.3726967"><ele>77.6</ele><time>2026-05-01T06:52:53.439Z</time></trkpt><trkpt lat="44.4709817" lon="11.372815"><ele>78.2</ele><time>2026-05-01T06:52:55.44Z</time></trkpt><trkpt lat="44.4709067" lon="11.372925"><ele>78.8</ele><time>2026-05-01T06:52:57.44Z</time></trkpt><trkpt lat="44.4708217" lon="11.37303"><ele>79.4</ele><time>2026-05-01T06:52:59.44Z</time></trkpt><trkpt lat="44.47074" lon="11.3731417"><ele>80.0</ele><time>2026-05-01T06:53:01.44Z</time></trkpt><trkpt lat="44.470655" lon="11.373255"><ele>80.0</ele><time>2026-05-01T06:53:03.443Z</time></trkpt><trkpt lat="44.4705867" lon="11.3733733"><ele>80.0</ele><time>2026-05-01T06:53:05.443Z</time></trkpt><trkpt lat="44.4705017" lon="11.373485"><ele>80.0</ele><time>2026-05-01T06:53:07.441Z</time></trkpt><trkpt lat="44.4704283" lon="11.373605"><ele>80.0</ele><time>2026-05-01T06:53:09.443Z</time></trkpt><trkpt lat="44.4703617" lon="11.373715"><ele>80.0</ele><time>2026-05-01T06:53:11.438Z</time></trkpt><trkpt lat="44.4702917" lon="11.3738217"><ele>80.2</ele><time>2026-05-01T06:53:13.439Z</time></trkpt><trkpt lat="44.4702167" lon="11.3739217"><ele>80.4</ele><time>2026-05-01T06:53:15.439Z</time></trkpt><trkpt lat="44.47015" lon="11.3740217"><ele>80.6</ele><time>2026-05-01T06:53:17.44Z</time></trkpt><trkpt lat="44.47009" lon="11.374135"><ele>80.8</ele><time>2026-05-01T06:53:19.441Z</time></trkpt><trkpt lat="44.47002" lon="11.37424"><ele>81.0</ele><time>2026-05-01T06:53:21.44Z</time></trkpt><trkpt lat="44.4699583" lon="11.374355"><ele>81.0</ele><time>2026-05-01T06:53:23.441Z</time></trkpt><trkpt lat="44.4699133" lon="11.374495"><ele>81.0</ele><time>2026-05-01T06:53:25.44Z</time></trkpt><trkpt lat="44.469905" lon="11.3746583"><ele>81.0</ele><time>2026-05-01T06:53:27.441Z</time></trkpt><trkpt lat="44.469905" lon="11.3748217"><ele>81.0</ele><time>2026-05-01T06:53:29.442Z</time></trkpt><trkpt lat="44.4698967" lon="11.374985"><ele>81.19999999999999</ele><time>2026-05-01T06:53:31.44Z</time></trkpt><trkpt lat="44.469885" lon="11.3751333"><ele>81.39999999999999</ele><time>2026-05-01T06:53:33.44Z</time></trkpt><trkpt lat="44.4698683" lon="11.375255"><ele>81.6</ele><time>2026-05-01T06:53:35.44Z</time></trkpt><trkpt lat="44.4697933" lon="11.375325"><ele>81.8</ele><time>2026-05-01T06:53:37.439Z</time></trkpt><trkpt lat="44.469695" lon="11.375295"><ele>82.0</ele><time>2026-05-01T06:53:39.442Z</time></trkpt><trkpt lat="44.4695917" lon="11.37527"><ele>82.0</ele><time>2026-05-01T06:53:41.44Z</time></trkpt><trkpt lat="44.4694917" lon="11.3752633"><ele>82.0</ele><time>2026-05-01T06:53:43.44Z</time></trkpt><trkpt lat="44.4694" lon="11.3752583"><ele>82.0</ele><time>2026-05-01T06:53:45.443Z</time></trkpt><trkpt lat="44.4693" lon="11.37524"><ele>82.0</ele><time>2026-05-01T06:53:47.442Z</time></trkpt><trkpt lat="44.4692033" lon="11.3752183"><ele>82.0</ele><time>2026-05-01T06:53:49.44Z</time></trkpt><trkpt lat="44.4691067" lon="11.3751933"><ele>82.0</ele><time>2026-05-01T06:53:51.439Z</time></trkpt><trkpt lat="44.46901" lon="11.3751583"><ele>82.0</ele><time>2026-05-01T06:53:53.439Z</time></trkpt><trkpt lat="44.4689" lon="11.3751267"><ele>82.0</ele><time>2026-05-01T06:53:55.439Z</time></trkpt><trkpt lat="44.468795" lon="11.3750867"><ele>82.0</ele><time>2026-05-01T06:53:57.44Z</time></trkpt><trkpt lat="44.4686917" lon="11.375055"><ele>82.0</ele><time>2026-05-01T06:53:59.438Z</time></trkpt><trkpt lat="44.468595" lon="11.3750217"><ele>82.39999999999999</ele><time>2026-05-01T06:54:01.44Z</time></trkpt><trkpt lat="44.4685033" lon="11.3749833"><ele>82.8</ele><time>2026-05-01T06:54:03.44Z</time></trkpt><trkpt lat="44.468405" lon="11.3749467"><ele>83.2</ele><time>2026-05-01T06:54:05.442Z</time></trkpt><trkpt lat="44.4683117" lon="11.3749117"><ele>83.6</ele><time>2026-05-01T06:54:07.44Z</time></trkpt><trkpt lat="44.468225" lon="11.3748817"><ele>84.0</ele><time>2026-05-01T06:54:09.441Z</time></trkpt><trkpt lat="44.468145" lon="11.3748583"><ele>84.0</ele><time>2026-05-01T06:54:11.44Z</time></trkpt><trkpt lat="44.46806" lon="11.37483"><ele>84.0</ele><time>2026-05-01T06:54:14.44Z</time></trkpt><trkpt lat="44.4679867" lon="11.374825"><ele>84.0</ele><time>2026-05-01T06:54:17.438Z</time></trkpt><trkpt lat="44.4679267" lon="11.37487"><ele>84.0</ele><time>2026-05-01T06:54:19.439Z</time></trkpt><trkpt lat="44.46786" lon="11.3749683"><ele>84.0</ele><time>2026-05-01T06:54:21.439Z</time></trkpt><trkpt lat="44.467815" lon="11.375115"><ele>84.0</ele><time>2026-05-01T06:54:23.442Z</time></trkpt><trkpt lat="44.467805" lon="11.3752717"><ele>83.80000000000001</ele><time>2026-05-01T06:54:25.442Z</time></trkpt><trkpt lat="44.4678117" lon="11.3754333"><ele>83.60000000000001</ele><time>2026-05-01T06:54:27.443Z</time></trkpt><trkpt lat="44.467815" lon="11.3755933"><ele>83.4</ele><time>2026-05-01T06:54:29.442Z</time></trkpt><trkpt lat="44.4678083" lon="11.3757533"><ele>83.2</ele><time>2026-05-01T06:54:31.442Z</time></trkpt><trkpt lat="44.4677967" lon="11.3758967"><ele>83.0</ele><time>2026-05-01T06:54:33.442Z</time></trkpt><trkpt lat="44.4677817" lon="11.3760083"><ele>82.83333333333334</ele><time>2026-05-01T06:54:35.442Z</time></trkpt><trkpt lat="44.4677667" lon="11.376105"><ele>82.66666666666667</ele><time>2026-05-01T06:54:38.439Z</time></trkpt><trkpt lat="44.4677717" lon="11.37621"><ele>82.5</ele><time>2026-05-01T06:55:40.44Z</time></trkpt><trkpt lat="44.4677567" lon="11.376335"><ele>82.33333333333333</ele><time>2026-05-01T06:55:44.439Z</time></trkpt><trkpt lat="44.4677283" lon="11.3764367"><ele>82.16666666666666</ele><time>2026-05-01T06:55:46.44Z</time></trkpt><trkpt lat="44.4676833" lon="11.3765533"><ele>82.0</ele><time>2026-05-01T06:55:48.442Z</time></trkpt><trkpt lat="44.4676483" lon="11.3766733"><ele>82.39999999999999</ele><time>2026-05-01T06:55:50.441Z</time></trkpt><trkpt lat="44.467615" lon="11.3767983"><ele>82.8</ele><time>2026-05-01T06:55:52.443Z</time></trkpt><trkpt lat="44.4675917" lon="11.37692"><ele>83.2</ele><time>2026-05-01T06:55:54.442Z</time></trkpt><trkpt lat="44.4675517" lon="11.377045"><ele>83.6</ele><time>2026-05-01T06:55:56.441Z</time></trkpt><trkpt lat="44.467505" lon="11.3771767"><ele>84.0</ele><time>2026-05-01T06:55:58.44Z</time></trkpt><trkpt lat="44.4674483" lon="11.377305"><ele>84.6</ele><time>2026-05-01T06:56:00.442Z</time></trkpt><trkpt lat="44.4673933" lon="11.3774383"><ele>85.2</ele><time>2026-05-01T06:56:02.442Z</time></trkpt><trkpt lat="44.46734" lon="11.3775783"><ele>85.8</ele><time>2026-05-01T06:56:04.44Z</time></trkpt><trkpt lat="44.4672933" lon="11.3777083"><ele>86.39999999999999</ele><time>2026-05-01T06:56:06.44Z</time></trkpt><trkpt lat="44.4672433" lon="11.3778367"><ele>87.0</ele><time>2026-05-01T06:56:08.442Z</time></trkpt><trkpt lat="44.4671967" lon="11.3779617"><ele>86.39999999999999</ele><time>2026-05-01T06:56:10.44Z</time></trkpt><trkpt lat="44.4671467" lon="11.3780783"><ele>85.8</ele><time>2026-05-01T06:56:12.441Z</time></trkpt><trkpt lat="44.467085" lon="11.3781433"><ele>85.2</ele><time>2026-05-01T06:56:14.438Z</time></trkpt><trkpt lat="44.466995" lon="11.3780933"><ele>84.6</ele><time>2026-05-01T06:56:16.442Z</time></trkpt><trkpt lat="44.4669067" lon="11.37801"><ele>84.0</ele><time>2026-05-01T06:56:18.443Z</time></trkpt><trkpt lat="44.46682" lon="11.37794"><ele>83.2</ele><time>2026-05-01T06:56:20.443Z</time></trkpt><trkpt lat="44.4667267" lon="11.3778783"><ele>82.4</ele><time>2026-05-01T06:56:22.439Z</time></trkpt><trkpt lat="44.4666267" lon="11.377815"><ele>81.6</ele><time>2026-05-01T06:56:24.442Z</time></trkpt><trkpt lat="44.466535" lon="11.3777583"><ele>80.8</ele><time>2026-05-01T06:56:26.442Z</time></trkpt><trkpt lat="44.466445" lon="11.3776883"><ele>80.0</ele><time>2026-05-01T06:56:28.44Z</time></trkpt><trkpt lat="44.4663517" lon="11.3776183"><ele>80.6</ele><time>2026-05-01T06:56:30.44Z</time></trkpt><trkpt lat="44.4662567" lon="11.3775567"><ele>81.2</ele><time>2026-05-01T06:56:32.44Z</time></trkpt><trkpt lat="44.4661667" lon="11.37748"><ele>81.80000000000001</ele><time>2026-05-01T06:56:34.439Z</time></trkpt><trkpt lat="44.46607" lon="11.3774283"><ele>82.4</ele><time>2026-05-01T06:56:36.439Z</time></trkpt><trkpt lat="44.465995" lon="11.3773967"><ele>83.0</ele><time>2026-05-01T06:56:38.441Z</time></trkpt><trkpt lat="44.4659267" lon="11.3773883"><ele>83.0</ele><time>2026-05-01T06:56:42.44Z</time></trkpt><trkpt lat="44.465855" lon="11.377415"><ele>83.0</ele><time>2026-05-01T06:56:45.44Z</time></trkpt><trkpt lat="44.4657883" lon="11.3774767"><ele>83.0</ele><time>2026-05-01T06:56:47.441Z</time></trkpt><trkpt lat="44.465725" lon="11.3775583"><ele>83.0</ele><time>2026-05-01T06:56:49.44Z</time></trkpt><trkpt lat="44.465655" lon="11.3776483"><ele>83.0</ele><time>2026-05-01T06:56:51.442Z</time></trkpt><trkpt lat="44.4655867" lon="11.3777467"><ele>83.0</ele><time>2026-05-01T06:56:53.442Z</time></trkpt><trkpt lat="44.4655" lon="11.3778"><ele>82.4</ele><time>2026-05-01T06:56:55.441Z</time></trkpt><trkpt lat="44.465395" lon="11.3777533"><ele>81.80000000000001</ele><time>2026-05-01T06:56:57.44Z</time></trkpt><trkpt lat="44.465295" lon="11.377665"><ele>81.2</ele><time>2026-05-01T06:56:59.439Z</time></trkpt><trkpt lat="44.4652067" lon="11.3775883"><ele>80.6</ele><time>2026-05-01T06:57:01.44Z</time></trkpt><trkpt lat="44.46512" lon="11.3775217"><ele>80.0</ele><time>2026-05-01T06:57:03.441Z</time></trkpt><trkpt lat="44.4650383" lon="11.3774617"><ele>80.0</ele><time>2026-05-01T06:57:05.44Z</time></trkpt><trkpt lat="44.4649617" lon="11.3773933"><ele>80.0</ele><time>2026-05-01T06:57:07.441Z</time></trkpt><trkpt lat="44.46493" lon="11.3772867"><ele>80.0</ele><time>2026-05-01T06:57:09.443Z</time></trkpt><trkpt lat="44.4649167" lon="11.3772"><ele>80.0</ele><time>2026-05-01T06:57:11.438Z</time></trkpt><trkpt lat="44.4648833" lon="11.3771133"><ele>80.0</ele><time>2026-05-01T06:57:14.442Z</time></trkpt><trkpt lat="44.46482" lon="11.3770533"><ele>80.0</ele><time>2026-05-01T06:57:17.442Z</time></trkpt><trkpt lat="44.46474" lon="11.3770033"><ele>80.4</ele><time>2026-05-01T06:57:19.439Z</time></trkpt><trkpt lat="44.4646483" lon="11.3769467"><ele>80.8</ele><time>2026-05-01T06:57:21.44Z</time></trkpt><trkpt lat="44.4645533" lon="11.376895"><ele>81.19999999999999</ele><time>2026-05-01T06:57:23.443Z</time></trkpt><trkpt lat="44.464465" lon="11.3768367"><ele>81.6</ele><time>2026-05-01T06:57:25.439Z</time></trkpt><trkpt lat="44.464375" lon="11.3767817"><ele>82.0</ele><time>2026-05-01T06:57:27.442Z</time></trkpt><trkpt lat="44.4643017" lon="11.3767317"><ele>82.0</ele><time>2026-05-01T06:57:29.439Z</time></trkpt><trkpt lat="44.464225" lon="11.3766883"><ele>82.0</ele><time>2026-05-01T06:57:31.443Z</time></trkpt><trkpt lat="44.4641433" lon="11.3766467"><ele>82.0</ele><time>2026-05-01T06:57:33.44Z</time></trkpt><trkpt lat="44.4640733" lon="11.3766183"><ele>82.0</ele><time>2026-05-01T06:57:35.439Z</time></trkpt><trkpt lat="44.4639933" lon="11.3765917"><ele>82.0</ele><time>2026-05-01T06:57:38.44Z</time></trkpt><trkpt lat="44.46393" lon="11.3766567"><ele>82.0</ele><time>2026-05-01T06:57:41.443Z</time></trkpt><trkpt lat="44.4638967" lon="11.3767583"><ele>82.0</ele><time>2026-05-01T06:57:43.441Z</time></trkpt><trkpt lat="44.4638583" lon="11.37688"><ele>82.0</ele><time>2026-05-01T06:57:45.44Z</time></trkpt><trkpt lat="44.4638067" lon="11.3770167"><ele>82.0</ele><time>2026-05-01T06:57:47.44Z</time></trkpt><trkpt lat="44.463735" lon="11.3771567"><ele>82.0</ele><time>2026-05-01T06:57:49.44Z</time></trkpt><trkpt lat="44.4636717" lon="11.3772833"><ele>82.0</ele><time>2026-05-01T06:57:51.44Z</time></trkpt><trkpt lat="44.4636183" lon="11.3774"><ele>81.6</ele><time>2026-05-01T06:57:53.44Z</time></trkpt><trkpt lat="44.4635767" lon="11.3775"><ele>81.19999999999999</ele><time>2026-05-01T06:57:55.442Z</time></trkpt><trkpt lat="44.4635133" lon="11.3775567"><ele>80.8</ele><time>2026-05-01T06:57:57.44Z</time></trkpt><trkpt lat="44.4634367" lon="11.3775233"><ele>80.4</ele><time>2026-05-01T06:57:59.439Z</time></trkpt><trkpt lat="44.463335" lon="11.3774817"><ele>80.0</ele><time>2026-05-01T06:58:01.441Z</time></trkpt><trkpt lat="44.4632383" lon="11.377405"><ele>80.0</ele><time>2026-05-01T06:58:03.441Z</time></trkpt><trkpt lat="44.4631517" lon="11.3773167"><ele>80.0</ele><time>2026-05-01T06:58:05.441Z</time></trkpt><trkpt lat="44.463055" lon="11.3772317"><ele>80.0</ele><time>2026-05-01T06:58:07.444Z</time></trkpt><trkpt lat="44.462955" lon="11.3771733"><ele>80.0</ele><time>2026-05-01T06:58:09.441Z</time></trkpt><trkpt lat="44.4628533" lon="11.3770967"><ele>80.0</ele><time>2026-05-01T06:58:11.441Z</time></trkpt><trkpt lat="44.4627667" lon="11.377015"><ele>80.0</ele><time>2026-05-01T06:58:13.443Z</time></trkpt><trkpt lat="44.462685" lon="11.3769233"><ele>80.0</ele><time>2026-05-01T06:58:15.44Z</time></trkpt><trkpt lat="44.4625983" lon="11.37687"><ele>80.0</ele><time>2026-05-01T06:58:17.44Z</time></trkpt><trkpt lat="44.4625183" lon="11.3768433"><ele>80.0</ele><time>2026-05-01T06:58:19.441Z</time></trkpt><trkpt lat="44.4624283" lon="11.3768367"><ele>80.0</ele><time>2026-05-01T06:58:21.44Z</time></trkpt><trkpt lat="44.4623567" lon="11.3768983"><ele>80.0</ele><time>2026-05-01T06:58:23.44Z</time></trkpt><trkpt lat="44.4623067" lon="11.3770133"><ele>80.0</ele><time>2026-05-01T06:58:25.442Z</time></trkpt><trkpt lat="44.4622517" lon="11.377135"><ele>80.0</ele><time>2026-05-01T06:58:27.443Z</time></trkpt><trkpt lat="44.4621983" lon="11.377235"><ele>80.0</ele><time>2026-05-01T06:58:29.44Z</time></trkpt><trkpt lat="44.4621433" lon="11.3773383"><ele>80.0</ele><time>2026-05-01T06:58:31.442Z</time></trkpt><trkpt lat="44.4621083" lon="11.37744"><ele>79.66666666666667</ele><time>2026-05-01T06:58:33.44Z</time></trkpt><trkpt lat="44.4620933" lon="11.3775383"><ele>79.33333333333334</ele><time>2026-05-01T06:58:36.443Z</time></trkpt><trkpt lat="44.462035" lon="11.37762"><ele>79.0</ele><time>2026-05-01T06:58:39.444Z</time></trkpt><trkpt lat="44.4619833" lon="11.3777083"><ele>78.66666666666667</ele><time>2026-05-01T06:58:41.444Z</time></trkpt><trkpt lat="44.4619317" lon="11.3777817"><ele>78.33333333333333</ele><time>2026-05-01T06:58:43.444Z</time></trkpt><trkpt lat="44.4618733" lon="11.3778483"><ele>78.0</ele><time>2026-05-01T06:58:46.443Z</time></trkpt><trkpt lat="44.461815" lon="11.37791"><ele>78.0</ele><time>2026-05-01T06:58:49.441Z</time></trkpt><trkpt lat="44.4617883" lon="11.3779933"><ele>78.0</ele><time>2026-05-01T06:58:52.442Z</time></trkpt><trkpt lat="44.4617533" lon="11.378095"><ele>78.0</ele><time>2026-05-01T06:58:55.441Z</time></trkpt><trkpt lat="44.4617317" lon="11.378185"><ele>78.0</ele><time>2026-05-01T06:58:57.441Z</time></trkpt><trkpt lat="44.4617417" lon="11.3782967"><ele>78.0</ele><time>2026-05-01T06:59:00.443Z</time></trkpt><trkpt lat="44.4617717" lon="11.378395"><ele>78.0</ele><time>2026-05-01T06:59:03.441Z</time></trkpt><trkpt lat="44.4617883" lon="11.3785083"><ele>77.85714285714286</ele><time>2026-05-01T06:59:06.44Z</time></trkpt><trkpt lat="44.4618" lon="11.3786233"><ele>77.71428571428571</ele><time>2026-05-01T06:59:09.441Z</time></trkpt><trkpt lat="44.4617483" lon="11.3787117"><ele>77.57142857142857</ele><time>2026-05-01T06:59:12.443Z</time></trkpt><trkpt lat="44.4616833" lon="11.3787017"><ele>77.42857142857143</ele><time>2026-05-01T06:59:14.441Z</time></trkpt><trkpt lat="44.46162" lon="11.378655"><ele>77.28571428571428</ele><time>2026-05-01T06:59:16.442Z</time></trkpt><trkpt lat="44.4615617" lon="11.3786"><ele>77.14285714285714</ele><time>2026-05-01T06:59:18.44Z</time></trkpt><trkpt lat="44.461505" lon="11.3785567"><ele>77.0</ele><time>2026-05-01T06:59:20.44Z</time></trkpt><trkpt lat="44.4614433" lon="11.3785317"><ele>77.0</ele><time>2026-05-01T06:59:22.441Z</time></trkpt><trkpt lat="44.4613617" lon="11.37857"><ele>77.0</ele><time>2026-05-01T06:59:25.442Z</time></trkpt><trkpt lat="44.46131" lon="11.3786567"><ele>77.0</ele><time>2026-05-01T06:59:28.442Z</time></trkpt><trkpt lat="44.4612617" lon="11.378735"><ele>77.0</ele><time>2026-05-01T06:59:33.441Z</time></trkpt><trkpt lat="44.4612483" lon="11.3788367"><ele>77.0</ele><time>2026-05-01T06:59:36.441Z</time></trkpt><trkpt lat="44.4612833" lon="11.3789233"><ele>77.0</ele><time>2026-05-01T06:59:38.441Z</time></trkpt><trkpt lat="44.4613183" lon="11.379015"><ele>76.66666666666667</ele><time>2026-05-01T06:59:40.441Z</time></trkpt><trkpt lat="44.4613367" lon="11.3791083"><ele>76.33333333333334</ele><time>2026-05-01T06:59:42.442Z</time></trkpt><trkpt lat="44.461335" lon="11.37921"><ele>76.0</ele><time>2026-05-01T06:59:44.443Z</time></trkpt><trkpt lat="44.4613333" lon="11.37931"><ele>75.66666666666667</ele><time>2026-05-01T06:59:46.444Z</time></trkpt><trkpt lat="44.46132" lon="11.3794217"><ele>75.33333333333333</ele><time>2026-05-01T06:59:49.441Z</time></trkpt><trkpt lat="44.4612767" lon="11.3795217"><ele>75.0</ele><time>2026-05-01T06:59:53.441Z</time></trkpt><trkpt lat="44.4612283" lon="11.379605"><ele>75.0</ele><time>2026-05-01T06:59:57.441Z</time></trkpt><trkpt lat="44.46122" lon="11.3797233"><ele>75.0</ele><time>2026-05-01T07:00:00.442Z</time></trkpt><trkpt lat="44.4612233" lon="11.3798267"><ele>75.0</ele><time>2026-05-01T07:00:03.442Z</time></trkpt><trkpt lat="44.4612917" lon="11.379925"><ele>75.0</ele><time>2026-05-01T07:00:07.44Z</time></trkpt><trkpt lat="44.4613717" lon="11.37999"><ele>75.0</ele><time>2026-05-01T07:00:09.442Z</time></trkpt><trkpt lat="44.4614617" lon="11.3800433"><ele>75.0</ele><time>2026-05-01T07:00:11.442Z</time></trkpt><trkpt lat="44.4615483" lon="11.3800933"><ele>74.5</ele><time>2026-05-01T07:00:13.443Z</time></trkpt><trkpt lat="44.4616117" lon="11.3801533"><ele>74.0</ele><time>2026-05-01T07:00:15.442Z</time></trkpt><trkpt lat="44.46162" lon="11.3802517"><ele>73.5</ele><time>2026-05-01T07:00:18.442Z</time></trkpt><trkpt lat="44.4616" lon="11.3803483"><ele>73.0</ele><time>2026-05-01T07:00:20.441Z</time></trkpt><trkpt lat="44.4615567" lon="11.38046"><ele>72.5</ele><time>2026-05-01T07:00:22.442Z</time></trkpt><trkpt lat="44.4615083" lon="11.3805717"><ele>72.0</ele><time>2026-05-01T07:00:24.442Z</time></trkpt><trkpt lat="44.46147" lon="11.3806833"><ele>71.66666666666667</ele><time>2026-05-01T07:00:26.442Z</time></trkpt><trkpt lat="44.461435" lon="11.3807933"><ele>71.33333333333333</ele><time>2026-05-01T07:00:28.443Z</time></trkpt><trkpt lat="44.4614067" lon="11.3808817"><ele>71.0</ele><time>2026-05-01T07:00:30.442Z</time></trkpt><trkpt lat="44.46137" lon="11.3809933"><ele>70.66666666666666</ele><time>2026-05-01T07:00:33.441Z</time></trkpt><trkpt lat="44.46133" lon="11.38109"><ele>70.33333333333333</ele><time>2026-05-01T07:00:35.442Z</time></trkpt><trkpt lat="44.4612867" lon="11.3811883"><ele>70.0</ele><time>2026-05-01T07:00:37.443Z</time></trkpt><trkpt lat="44.46124" lon="11.3812983"><ele>70.83333333333333</ele><time>2026-05-01T07:00:39.442Z</time></trkpt><trkpt lat="44.4611983" lon="11.3814017"><ele>71.66666666666666</ele><time>2026-05-01T07:00:41.442Z</time></trkpt><trkpt lat="44.4611517" lon="11.3815217"><ele>72.5</ele><time>2026-05-01T07:00:43.441Z</time></trkpt><trkpt lat="44.4611083" lon="11.3816283"><ele>73.33333333333333</ele><time>2026-05-01T07:00:45.444Z</time></trkpt><trkpt lat="44.46106" lon="11.3817183"><ele>74.16666666666667</ele><time>2026-05-01T07:00:47.442Z</time></trkpt><trkpt lat="44.4610317" lon="11.3818017"><ele>75.0</ele><time>2026-05-01T07:00:49.441Z</time></trkpt><trkpt lat="44.460955" lon="11.38185"><ele>75.0</ele><time>2026-05-01T07:00:52.442Z</time></trkpt><trkpt lat="44.46089" lon="11.3818017"><ele>75.0</ele><time>2026-05-01T07:00:55.443Z</time></trkpt><trkpt lat="44.4608367" lon="11.38173"><ele>75.0</ele><time>2026-05-01T07:00:58.443Z</time></trkpt><trkpt lat="44.4607783" lon="11.38165"><ele>75.0</ele><time>2026-05-01T07:01:01.441Z</time></trkpt><trkpt lat="44.4607133" lon="11.3815717"><ele>75.0</ele><time>2026-05-01T07:01:04.442Z</time></trkpt><trkpt lat="44.4606433" lon="11.3815083"><ele>75.0</ele><time>2026-05-01T07:01:07.442Z</time></trkpt><trkpt lat="44.4605567" lon="11.3815117"><ele>75.0</ele><time>2026-05-01T07:01:10.441Z</time></trkpt><trkpt lat="44.4604883" lon="11.3815683"><ele>75.0</ele><time>2026-05-01T07:01:13.442Z</time></trkpt><trkpt lat="44.4604833" lon="11.3816683"><ele>75.0</ele><time>2026-05-01T07:01:16.443Z</time></trkpt><trkpt lat="44.4605317" lon="11.3817733"><ele>75.0</ele><time>2026-05-01T07:01:19.442Z</time></trkpt><trkpt lat="44.46059" lon="11.38187"><ele>75.0</ele><time>2026-05-01T07:01:22.442Z</time></trkpt><trkpt lat="44.460635" lon="11.381935"><ele>75.0</ele><time>2026-05-01T07:01:24.441Z</time></trkpt><trkpt lat="44.460675" lon="11.38201"><ele>75.0</ele><time>2026-05-01T07:01:26.443Z</time></trkpt><trkpt lat="44.4607067" lon="11.38209"><ele>75.0</ele><time>2026-05-01T07:01:28.444Z</time></trkpt><trkpt lat="44.4607333" lon="11.3821733"><ele>75.0</ele><time>2026-05-01T07:01:30.441Z</time></trkpt><trkpt lat="44.46072" lon="11.3822933"><ele>75.0</ele><time>2026-05-01T07:01:33.441Z</time></trkpt><trkpt lat="44.4607167" lon="11.3824083"><ele>75.0</ele><time>2026-05-01T07:01:36.442Z</time></trkpt><trkpt lat="44.4607133" lon="11.3824983"><ele>75.0</ele><time>2026-05-01T07:01:38.441Z</time></trkpt><trkpt lat="44.4607117" lon="11.3826217"><ele>75.66666666666667</ele><time>2026-05-01T07:01:41.442Z</time></trkpt><trkpt lat="44.4607183" lon="11.3827367"><ele>76.33333333333333</ele><time>2026-05-01T07:01:44.441Z</time></trkpt><trkpt lat="44.4607283" lon="11.382845"><ele>77.0</ele><time>2026-05-01T07:01:47.442Z</time></trkpt><trkpt lat="44.4607283" lon="11.3829383"><ele>77.66666666666666</ele><time>2026-05-01T07:01:49.443Z</time></trkpt><trkpt lat="44.46076" lon="11.3830517"><ele>78.33333333333333</ele><time>2026-05-01T07:01:53.441Z</time></trkpt><trkpt lat="44.46081" lon="11.3831283"><ele>79.0</ele><time>2026-05-01T07:01:56.444Z</time></trkpt><trkpt lat="44.4608967" lon="11.3832017"><ele>79.83333333333333</ele><time>2026-05-01T07:01:59.442Z</time></trkpt><trkpt lat="44.460965" lon="11.3832683"><ele>80.66666666666666</ele><time>2026-05-01T07:02:01.442Z</time></trkpt><trkpt lat="44.4610283" lon="11.38333"><ele>81.5</ele><time>2026-05-01T07:02:03.442Z</time></trkpt><trkpt lat="44.4610967" lon="11.3834017"><ele>82.33333333333333</ele><time>2026-05-01T07:02:05.441Z</time></trkpt><trkpt lat="44.4611517" lon="11.38348"><ele>83.16666666666667</ele><time>2026-05-01T07:02:07.441Z</time></trkpt><trkpt lat="44.461185" lon="11.3835817"><ele>84.0</ele><time>2026-05-01T07:02:09.441Z</time></trkpt><trkpt lat="44.4612233" lon="11.383675"><ele>84.0</ele><time>2026-05-01T07:02:11.441Z</time></trkpt><trkpt lat="44.4612983" lon="11.3837667"><ele>84.0</ele><time>2026-05-01T07:02:13.442Z</time></trkpt><trkpt lat="44.4613867" lon="11.3838533"><ele>84.0</ele><time>2026-05-01T07:02:15.44Z</time></trkpt><trkpt lat="44.4614383" lon="11.3839167"><ele>84.0</ele><time>2026-05-01T07:02:18.444Z</time></trkpt><trkpt lat="44.4613833" lon="11.3838567"><ele>84.0</ele><time>2026-05-01T07:02:32.441Z</time></trkpt><trkpt lat="44.4613333" lon="11.3837983"><ele>84.0</ele><time>2026-05-01T07:02:35.441Z</time></trkpt><trkpt lat="44.461255" lon="11.3837417"><ele>84.0</ele><time>2026-05-01T07:02:38.441Z</time></trkpt><trkpt lat="44.4611833" lon="11.38368"><ele>84.0</ele><time>2026-05-01T07:02:41.441Z</time></trkpt><trkpt lat="44.46112" lon="11.3836233"><ele>84.0</ele><time>2026-05-01T07:02:44.442Z</time></trkpt><trkpt lat="44.4611283" lon="11.3837233"><ele>84.0</ele><time>2026-05-01T07:02:54.444Z</time></trkpt><trkpt lat="44.4611533" lon="11.3838117"><ele>84.0</ele><time>2026-05-01T07:02:57.442Z</time></trkpt><trkpt lat="44.4611667" lon="11.3839217"><ele>84.0</ele><time>2026-05-01T07:03:01.443Z</time></trkpt><trkpt lat="44.4611617" lon="11.3840267"><ele>85.83333333333333</ele><time>2026-05-01T07:03:05.441Z</time></trkpt><trkpt lat="44.461155" lon="11.38414"><ele>87.66666666666667</ele><time>2026-05-01T07:03:09.442Z</time></trkpt><trkpt lat="44.461165" lon="11.3842317"><ele>89.5</ele><time>2026-05-01T07:03:12.441Z</time></trkpt><trkpt lat="44.46118" lon="11.3843367"><ele>91.33333333333334</ele><time>2026-05-01T07:03:15.444Z</time></trkpt><trkpt lat="44.4612" lon="11.3844367"><ele>93.16666666666667</ele><time>2026-05-01T07:03:18.443Z</time></trkpt><trkpt lat="44.4612267" lon="11.384535"><ele>95.0</ele><time>2026-05-01T07:03:21.441Z</time></trkpt><trkpt lat="44.4612633" lon="11.3846333"><ele>94.0</ele><time>2026-05-01T07:03:24.443Z</time></trkpt><trkpt lat="44.461305" lon="11.384735"><ele>93.0</ele><time>2026-05-01T07:03:27.442Z</time></trkpt><trkpt lat="44.4613617" lon="11.3848383"><ele>92.0</ele><time>2026-05-01T07:03:30.442Z</time></trkpt><trkpt lat="44.46142" lon="11.3849117"><ele>91.0</ele><time>2026-05-01T07:03:33.442Z</time></trkpt><trkpt lat="44.4614833" lon="11.3849717"><ele>90.0</ele><time>2026-05-01T07:03:36.443Z</time></trkpt><trkpt lat="44.4615617" lon="11.3850283"><ele>89.0</ele><time>2026-05-01T07:03:39.442Z</time></trkpt><trkpt lat="44.4616417" lon="11.3850683"><ele>89.0</ele><time>2026-05-01T07:03:42.441Z</time></trkpt><trkpt lat="44.4617167" lon="11.3851317"><ele>89.0</ele><time>2026-05-01T07:03:45.442Z</time></trkpt><trkpt lat="44.4618" lon="11.3851567"><ele>89.0</ele><time>2026-05-01T07:03:48.442Z</time></trkpt><trkpt lat="44.4618683" lon="11.3851717"><ele>89.0</ele><time>2026-05-01T07:03:51.442Z</time></trkpt><trkpt lat="44.46194" lon="11.385205"><ele>89.0</ele><time>2026-05-01T07:03:54.442Z</time></trkpt><trkpt lat="44.46201" lon="11.385255"><ele>89.0</ele><time>2026-05-01T07:03:57.441Z</time></trkpt><trkpt lat="44.462085" lon="11.3852917"><ele>89.14285714285714</ele><time>2026-05-01T07:04:01.442Z</time></trkpt><trkpt lat="44.462145" lon="11.3853317"><ele>89.28571428571428</ele><time>2026-05-01T07:04:05.441Z</time></trkpt><trkpt lat="44.4622133" lon="11.3853817"><ele>89.42857142857142</ele><time>2026-05-01T07:04:08.441Z</time></trkpt><trkpt lat="44.4622667" lon="11.3854483"><ele>89.57142857142857</ele><time>2026-05-01T07:04:11.441Z</time></trkpt><trkpt lat="44.4623083" lon="11.3855483"><ele>89.71428571428572</ele><time>2026-05-01T07:04:14.442Z</time></trkpt><trkpt lat="44.4623167" lon="11.3856383"><ele>89.85714285714285</ele><time>2026-05-01T07:04:17.444Z</time></trkpt><trkpt lat="44.462305" lon="11.385755"><ele>90.0</ele><time>2026-05-01T07:04:20.442Z</time></trkpt><trkpt lat="44.46228" lon="11.3858983"><ele>90.0</ele><time>2026-05-01T07:04:26.442Z</time></trkpt><trkpt lat="44.4622617" lon="11.3859867"><ele>90.0</ele><time>2026-05-01T07:04:29.441Z</time></trkpt><trkpt lat="44.462235" lon="11.3860767"><ele>90.0</ele><time>2026-05-01T07:04:32.442Z</time></trkpt><trkpt lat="44.4622117" lon="11.3861667"><ele>90.0</ele><time>2026-05-01T07:04:35.442Z</time></trkpt><trkpt lat="44.4621917" lon="11.3862567"><ele>90.0</ele><time>2026-05-01T07:04:38.441Z</time></trkpt><trkpt lat="44.4621533" lon="11.3863667"><ele>90.0</ele><time>2026-05-01T07:04:41.441Z</time></trkpt><trkpt lat="44.4621267" lon="11.386455"><ele>90.0</ele><time>2026-05-01T07:04:43.442Z</time></trkpt><trkpt lat="44.4620967" lon="11.386555"><ele>91.33333333333333</ele><time>2026-05-01T07:04:45.442Z</time></trkpt><trkpt lat="44.4620733" lon="11.3866617"><ele>92.66666666666666</ele><time>2026-05-01T07:04:47.442Z</time></trkpt><trkpt lat="44.4620417" lon="11.3867833"><ele>94.0</ele><time>2026-05-01T07:04:49.442Z</time></trkpt><trkpt lat="44.462015" lon="11.386905"><ele>95.33333333333333</ele><time>2026-05-01T07:04:51.442Z</time></trkpt><trkpt lat="44.46198" lon="11.3870283"><ele>96.66666666666666</ele><time>2026-05-01T07:04:53.441Z</time></trkpt><trkpt lat="44.4619417" lon="11.3871433"><ele>98.0</ele><time>2026-05-01T07:04:55.442Z</time></trkpt><trkpt lat="44.4619117" lon="11.3872633"><ele>98.0</ele><time>2026-05-01T07:04:57.442Z</time></trkpt><trkpt lat="44.4618633" lon="11.3873667"><ele>98.0</ele><time>2026-05-01T07:04:59.442Z</time></trkpt><trkpt lat="44.4618117" lon="11.3874583"><ele>98.0</ele><time>2026-05-01T07:05:01.441Z</time></trkpt><trkpt lat="44.4617533" lon="11.387545"><ele>98.0</ele><time>2026-05-01T07:05:03.444Z</time></trkpt><trkpt lat="44.4616833" lon="11.3876417"><ele>98.0</ele><time>2026-05-01T07:05:05.441Z</time></trkpt><trkpt lat="44.46161" lon="11.3877433"><ele>97.99999999999999</ele><time>2026-05-01T07:05:07.442Z</time></trkpt><trkpt lat="44.46156" lon="11.3878333"><ele>98.0</ele><time>2026-05-01T07:05:09.441Z</time></trkpt><trkpt lat="44.46152" lon="11.3879133"><ele>98.0</ele><time>2026-05-01T07:05:11.442Z</time></trkpt><trkpt lat="44.4614733" lon="11.38799"><ele>98.0</ele><time>2026-05-01T07:05:13.444Z</time></trkpt><trkpt lat="44.4614067" lon="11.3880383"><ele>97.99999999999999</ele><time>2026-05-01T07:05:15.441Z</time></trkpt><trkpt lat="44.46133" lon="11.3880533"><ele>98.0</ele><time>2026-05-01T07:05:17.444Z</time></trkpt><trkpt lat="44.4612467" lon="11.3880633"><ele>97.83333333333333</ele><time>2026-05-01T07:05:19.442Z</time></trkpt><trkpt lat="44.4611817" lon="11.3881083"><ele>97.66666666666666</ele><time>2026-05-01T07:05:21.441Z</time></trkpt><trkpt lat="44.4611283" lon="11.3881683"><ele>97.5</ele><time>2026-05-01T07:05:23.441Z</time></trkpt><trkpt lat="44.46111" lon="11.3882683"><ele>97.33333333333334</ele><time>2026-05-01T07:05:25.445Z</time></trkpt><trkpt lat="44.4610833" lon="11.38838"><ele>97.16666666666667</ele><time>2026-05-01T07:05:27.444Z</time></trkpt><trkpt lat="44.4610733" lon="11.38849"><ele>97.0</ele><time>2026-05-01T07:05:29.442Z</time></trkpt><trkpt lat="44.461055" lon="11.3886067"><ele>97.00000000000001</ele><time>2026-05-01T07:05:31.442Z</time></trkpt><trkpt lat="44.4610433" lon="11.3887267"><ele>97.0</ele><time>2026-05-01T07:05:33.442Z</time></trkpt><trkpt lat="44.46104" lon="11.3888583"><ele>97.0</ele><time>2026-05-01T07:05:35.442Z</time></trkpt><trkpt lat="44.46104" lon="11.388985"><ele>97.0</ele><time>2026-05-01T07:05:37.442Z</time></trkpt><trkpt lat="44.4610483" lon="11.3890967"><ele>97.00000000000001</ele><time>2026-05-01T07:05:39.441Z</time></trkpt><trkpt lat="44.4610433" lon="11.38923"><ele>97.0</ele><time>2026-05-01T07:05:41.442Z</time></trkpt><trkpt lat="44.4610617" lon="11.3893817"><ele>97.19999999999999</ele><time>2026-05-01T07:05:43.441Z</time></trkpt><trkpt lat="44.4610817" lon="11.3895217"><ele>97.4</ele><time>2026-05-01T07:05:45.441Z</time></trkpt><trkpt lat="44.4611067" lon="11.389655"><ele>97.6</ele><time>2026-05-01T07:05:47.443Z</time></trkpt><trkpt lat="44.461145" lon="11.3897883"><ele>97.80000000000001</ele><time>2026-05-01T07:05:49.441Z</time></trkpt><trkpt lat="44.4611983" lon="11.3899217"><ele>98.0</ele><time>2026-05-01T07:05:51.441Z</time></trkpt><trkpt lat="44.4612417" lon="11.3900417"><ele>97.83333333333333</ele><time>2026-05-01T07:05:53.442Z</time></trkpt><trkpt lat="44.4612883" lon="11.3901483"><ele>97.66666666666666</ele><time>2026-05-01T07:05:55.44Z</time></trkpt><trkpt lat="44.46135" lon="11.39022"><ele>97.5</ele><time>2026-05-01T07:05:57.443Z</time></trkpt><trkpt lat="44.4614283" lon="11.3903117"><ele>97.33333333333334</ele><time>2026-05-01T07:05:59.44Z</time></trkpt><trkpt lat="44.46147" lon="11.390395"><ele>97.16666666666667</ele><time>2026-05-01T07:06:01.441Z</time></trkpt><trkpt lat="44.46155" lon="11.3904667"><ele>97.0</ele><time>2026-05-01T07:06:03.441Z</time></trkpt><trkpt lat="44.4616517" lon="11.390495"><ele>97.00000000000001</ele><time>2026-05-01T07:06:05.441Z</time></trkpt><trkpt lat="44.4617833" lon="11.3904717"><ele>97.0</ele><time>2026-05-01T07:06:07.443Z</time></trkpt><trkpt lat="44.46185" lon="11.3904367"><ele>97.0</ele><time>2026-05-01T07:06:08.441Z</time></trkpt><trkpt lat="44.4619167" lon="11.3904083"><ele>97.0</ele><time>2026-05-01T07:06:09.442Z</time></trkpt><trkpt lat="44.4619817" lon="11.3903883"><ele>97.00000000000001</ele><time>2026-05-01T07:06:10.442Z</time></trkpt><trkpt lat="44.4620533" lon="11.3903783"><ele>97.0</ele><time>2026-05-01T07:06:11.44Z</time></trkpt><trkpt lat="44.4621267" lon="11.3903817"><ele>97.0</ele><time>2026-05-01T07:06:12.441Z</time></trkpt><trkpt lat="44.4621917" lon="11.390415"><ele>97.0</ele><time>2026-05-01T07:06:13.441Z</time></trkpt><trkpt lat="44.4622417" lon="11.3904783"><ele>97.0</ele><time>2026-05-01T07:06:14.44Z</time></trkpt><trkpt lat="44.46228" lon="11.3905617"><ele>97.0</ele><time>2026-05-01T07:06:15.442Z</time></trkpt><trkpt lat="44.462315" lon="11.39064"><ele>97.0</ele><time>2026-05-01T07:06:16.444Z</time></trkpt><trkpt lat="44.4623433" lon="11.39072"><ele>97.0</ele><time>2026-05-01T07:06:17.443Z</time></trkpt><trkpt lat="44.462365" lon="11.3908067"><ele>97.0</ele><time>2026-05-01T07:06:18.444Z</time></trkpt><trkpt lat="44.4623783" lon="11.3908933"><ele>97.50000000000001</ele><time>2026-05-01T07:06:19.442Z</time></trkpt><trkpt lat="44.4623933" lon="11.390985"><ele>98.0</ele><time>2026-05-01T07:06:20.443Z</time></trkpt><trkpt lat="44.4624183" lon="11.391075"><ele>98.5</ele><time>2026-05-01T07:06:21.439Z</time></trkpt><trkpt lat="44.4624467" lon="11.3911617"><ele>99.0</ele><time>2026-05-01T07:06:22.443Z</time></trkpt><trkpt lat="44.4624767" lon="11.39124"><ele>99.50000000000001</ele><time>2026-05-01T07:06:23.443Z</time></trkpt><trkpt lat="44.4625333" lon="11.3913833"><ele>100.0</ele><time>2026-05-01T07:06:25.441Z</time></trkpt><trkpt lat="44.4625683" lon="11.3915433"><ele>100.33333333333334</ele><time>2026-05-01T07:06:27.441Z</time></trkpt><trkpt lat="44.4625767" lon="11.391635"><ele>100.66666666666667</ele><time>2026-05-01T07:06:28.441Z</time></trkpt><trkpt lat="44.4625917" lon="11.3917267"><ele>101.0</ele><time>2026-05-01T07:06:29.442Z</time></trkpt><trkpt lat="44.4626233" lon="11.3918083"><ele>101.33333333333334</ele><time>2026-05-01T07:06:30.442Z</time></trkpt><trkpt lat="44.462655" lon="11.3918883"><ele>101.66666666666667</ele><time>2026-05-01T07:06:31.442Z</time></trkpt><trkpt lat="44.46274" lon="11.3920067"><ele>102.0</ele><time>2026-05-01T07:06:33.441Z</time></trkpt><trkpt lat="44.4628483" lon="11.3921017"><ele>100.39999999999999</ele><time>2026-05-01T07:06:35.44Z</time></trkpt><trkpt lat="44.4629583" lon="11.3921767"><ele>98.8</ele><time>2026-05-01T07:06:37.441Z</time></trkpt><trkpt lat="44.463085" lon="11.3922433"><ele>97.2</ele><time>2026-05-01T07:06:39.442Z</time></trkpt><trkpt lat="44.4631517" lon="11.392275"><ele>95.6</ele><time>2026-05-01T07:06:40.441Z</time></trkpt><trkpt lat="44.4632133" lon="11.3923167"><ele>94.0</ele><time>2026-05-01T07:06:41.442Z</time></trkpt><trkpt lat="44.4632733" lon="11.3923633"><ele>94.0</ele><time>2026-05-01T07:06:42.442Z</time></trkpt><trkpt lat="44.4633317" lon="11.3924083"><ele>94.0</ele><time>2026-05-01T07:06:43.442Z</time></trkpt><trkpt lat="44.4633817" lon="11.392465"><ele>94.0</ele><time>2026-05-01T07:06:44.442Z</time></trkpt><trkpt lat="44.4634317" lon="11.3925367"><ele>94.0</ele><time>2026-05-01T07:06:45.442Z</time></trkpt><trkpt lat="44.4634767" lon="11.3926117"><ele>94.0</ele><time>2026-05-01T07:06:46.445Z</time></trkpt><trkpt lat="44.4635183" lon="11.3926833"><ele>94.0</ele><time>2026-05-01T07:06:47.444Z</time></trkpt><trkpt lat="44.4635783" lon="11.3928183"><ele>94.0</ele><time>2026-05-01T07:06:49.443Z</time></trkpt><trkpt lat="44.4636183" lon="11.3928917"><ele>94.0</ele><time>2026-05-01T07:06:50.442Z</time></trkpt><trkpt lat="44.46366" lon="11.392965"><ele>94.0</ele><time>2026-05-01T07:06:51.444Z</time></trkpt><trkpt lat="44.4637017" lon="11.3930317"><ele>94.0</ele><time>2026-05-01T07:06:52.443Z</time></trkpt><trkpt lat="44.463795" lon="11.3931633"><ele>94.0</ele><time>2026-05-01T07:06:54.44Z</time></trkpt><trkpt lat="44.463845" lon="11.39323"><ele>94.0</ele><time>2026-05-01T07:06:55.441Z</time></trkpt><trkpt lat="44.46393" lon="11.3933533"><ele>93.83333333333333</ele><time>2026-05-01T07:06:57.44Z</time></trkpt><trkpt lat="44.463995" lon="11.3934567"><ele>93.66666666666666</ele><time>2026-05-01T07:06:59.44Z</time></trkpt><trkpt lat="44.4640367" lon="11.39355"><ele>93.5</ele><time>2026-05-01T07:07:02.442Z</time></trkpt><trkpt lat="44.4639583" lon="11.3936067"><ele>93.33333333333333</ele><time>2026-05-01T07:07:06.441Z</time></trkpt><trkpt lat="44.463875" lon="11.39365"><ele>93.16666666666667</ele><time>2026-05-01T07:07:09.442Z</time></trkpt><trkpt lat="44.463815" lon="11.3937017"><ele>93.0</ele><time>2026-05-01T07:07:11.441Z</time></trkpt><trkpt lat="44.4637633" lon="11.3938117"><ele>93.14285714285715</ele><time>2026-05-01T07:07:14.442Z</time></trkpt><trkpt lat="44.46373" lon="11.39389"><ele>93.28571428571429</ele><time>2026-05-01T07:07:16.443Z</time></trkpt><trkpt lat="44.4636833" lon="11.3939917"><ele>93.42857142857143</ele><time>2026-05-01T07:07:19.442Z</time></trkpt><trkpt lat="44.46364" lon="11.3940617"><ele>93.57142857142858</ele><time>2026-05-01T07:07:22.441Z</time></trkpt><trkpt lat="44.4636667" lon="11.3941467"><ele>93.71428571428571</ele><time>2026-05-01T07:07:25.441Z</time></trkpt><trkpt lat="44.463715" lon="11.39423"><ele>93.85714285714286</ele><time>2026-05-01T07:07:27.441Z</time></trkpt><trkpt lat="44.463775" lon="11.3943133"><ele>94.0</ele><time>2026-05-01T07:07:29.442Z</time></trkpt><trkpt lat="44.4638483" lon="11.3944083"><ele>94.0</ele><time>2026-05-01T07:07:31.441Z</time></trkpt><trkpt lat="44.463915" lon="11.3945067"><ele>94.0</ele><time>2026-05-01T07:07:33.442Z</time></trkpt><trkpt lat="44.46395" lon="11.3946217"><ele>94.0</ele><time>2026-05-01T07:07:35.442Z</time></trkpt><trkpt lat="44.4639333" lon="11.3947233"><ele>94.0</ele><time>2026-05-01T07:07:37.441Z</time></trkpt><trkpt lat="44.463875" lon="11.394795"><ele>94.0</ele><time>2026-05-01T07:07:39.442Z</time></trkpt><trkpt lat="44.4638" lon="11.39486"><ele>94.0</ele><time>2026-05-01T07:07:41.441Z</time></trkpt><trkpt lat="44.46372" lon="11.394915"><ele>93.66666666666666</ele><time>2026-05-01T07:07:43.441Z</time></trkpt><trkpt lat="44.46364" lon="11.394985"><ele>93.33333333333333</ele><time>2026-05-01T07:07:45.442Z</time></trkpt><trkpt lat="44.4635633" lon="11.3950483"><ele>93.0</ele><time>2026-05-01T07:07:47.441Z</time></trkpt><trkpt lat="44.46349" lon="11.3951117"><ele>92.66666666666667</ele><time>2026-05-01T07:07:49.442Z</time></trkpt><trkpt lat="44.4634383" lon="11.3951867"><ele>92.33333333333334</ele><time>2026-05-01T07:07:51.443Z</time></trkpt><trkpt lat="44.4633917" lon="11.3952983"><ele>92.0</ele><time>2026-05-01T07:07:53.444Z</time></trkpt><trkpt lat="44.4633267" lon="11.3954083"><ele>91.8</ele><time>2026-05-01T07:07:55.442Z</time></trkpt><trkpt lat="44.46326" lon="11.3955067"><ele>91.6</ele><time>2026-05-01T07:07:57.442Z</time></trkpt><trkpt lat="44.463215" lon="11.3956117"><ele>91.39999999999999</ele><time>2026-05-01T07:07:59.443Z</time></trkpt><trkpt lat="44.4631617" lon="11.3957283"><ele>91.19999999999999</ele><time>2026-05-01T07:08:01.442Z</time></trkpt><trkpt lat="44.4630917" lon="11.395845"><ele>91.0</ele><time>2026-05-01T07:08:03.442Z</time></trkpt><trkpt lat="44.4630217" lon="11.3959683"><ele>91.5</ele><time>2026-05-01T07:08:05.441Z</time></trkpt><trkpt lat="44.4629417" lon="11.3960767"><ele>92.0</ele><time>2026-05-01T07:08:07.442Z</time></trkpt><trkpt lat="44.4628567" lon="11.3962033"><ele>92.5</ele><time>2026-05-01T07:08:09.442Z</time></trkpt><trkpt lat="44.4627733" lon="11.396325"><ele>93.0</ele><time>2026-05-01T07:08:11.442Z</time></trkpt><trkpt lat="44.46269" lon="11.3964467"><ele>92.2</ele><time>2026-05-01T07:08:13.444Z</time></trkpt><trkpt lat="44.4626083" lon="11.3965633"><ele>91.4</ele><time>2026-05-01T07:08:15.442Z</time></trkpt><trkpt lat="44.4625283" lon="11.3966767"><ele>90.60000000000001</ele><time>2026-05-01T07:08:17.443Z</time></trkpt><trkpt lat="44.4624433" lon="11.396795"><ele>89.80000000000001</ele><time>2026-05-01T07:08:19.443Z</time></trkpt><trkpt lat="44.4623983" lon="11.39686"><ele>89.0</ele><time>2026-05-01T07:08:20.443Z</time></trkpt><trkpt lat="44.4623533" lon="11.3969217"><ele>89.0</ele><time>2026-05-01T07:08:21.442Z</time></trkpt><trkpt lat="44.4623033" lon="11.39698"><ele>89.0</ele><time>2026-05-01T07:08:22.443Z</time></trkpt><trkpt lat="44.462215" lon="11.3970967"><ele>89.0</ele><time>2026-05-01T07:08:24.442Z</time></trkpt><trkpt lat="44.4621383" lon="11.3972217"><ele>89.0</ele><time>2026-05-01T07:08:26.442Z</time></trkpt><trkpt lat="44.4620583" lon="11.397335"><ele>89.0</ele><time>2026-05-01T07:08:28.441Z</time></trkpt><trkpt lat="44.4619833" lon="11.3974317"><ele>89.16666666666667</ele><time>2026-05-01T07:08:30.442Z</time></trkpt><trkpt lat="44.4619333" lon="11.3974983"><ele>89.33333333333334</ele><time>2026-05-01T07:08:32.442Z</time></trkpt><trkpt lat="44.46191" lon="11.3975883"><ele>89.5</ele><time>2026-05-01T07:08:34.441Z</time></trkpt><trkpt lat="44.461985" lon="11.397695"><ele>89.66666666666667</ele><time>2026-05-01T07:08:36.442Z</time></trkpt><trkpt lat="44.4620367" lon="11.39776"><ele>89.83333333333333</ele><time>2026-05-01T07:08:37.442Z</time></trkpt><trkpt lat="44.4620867" lon="11.39783"><ele>90.0</ele><time>2026-05-01T07:08:38.442Z</time></trkpt><trkpt lat="44.4621433" lon="11.3979033"><ele>89.5</ele><time>2026-05-01T07:08:39.441Z</time></trkpt><trkpt lat="44.4622017" lon="11.397975"><ele>89.0</ele><time>2026-05-01T07:08:40.442Z</time></trkpt><trkpt lat="44.4622617" lon="11.3980467"><ele>88.5</ele><time>2026-05-01T07:08:41.44Z</time></trkpt><trkpt lat="44.462325" lon="11.3981167"><ele>88.0</ele><time>2026-05-01T07:08:42.442Z</time></trkpt><trkpt lat="44.4623867" lon="11.39819"><ele>87.5</ele><time>2026-05-01T07:08:43.442Z</time></trkpt><trkpt lat="44.462445" lon="11.39827"><ele>87.0</ele><time>2026-05-01T07:08:44.441Z</time></trkpt><trkpt lat="44.4625067" lon="11.39835"><ele>86.83333333333333</ele><time>2026-05-01T07:08:45.442Z</time></trkpt><trkpt lat="44.46257" lon="11.3984233"><ele>86.66666666666667</ele><time>2026-05-01T07:08:46.442Z</time></trkpt><trkpt lat="44.462635" lon="11.398495"><ele>86.5</ele><time>2026-05-01T07:08:47.443Z</time></trkpt><trkpt lat="44.4627" lon="11.39857"><ele>86.33333333333334</ele><time>2026-05-01T07:08:48.443Z</time></trkpt><trkpt lat="44.4627633" lon="11.3986383"><ele>86.16666666666667</ele><time>2026-05-01T07:08:49.444Z</time></trkpt><trkpt lat="44.4628267" lon="11.39871"><ele>86.0</ele><time>2026-05-01T07:08:50.444Z</time></trkpt><trkpt lat="44.46289" lon="11.3987833"><ele>85.83333333333334</ele><time>2026-05-01T07:08:51.443Z</time></trkpt><trkpt lat="44.4629533" lon="11.3988567"><ele>85.66666666666667</ele><time>2026-05-01T07:08:52.443Z</time></trkpt><trkpt lat="44.4630183" lon="11.3989317"><ele>85.5</ele><time>2026-05-01T07:08:53.442Z</time></trkpt><trkpt lat="44.463085" lon="11.39901"><ele>85.33333333333333</ele><time>2026-05-01T07:08:54.441Z</time></trkpt><trkpt lat="44.463155" lon="11.39908"><ele>85.16666666666666</ele><time>2026-05-01T07:08:55.441Z</time></trkpt><trkpt lat="44.4632233" lon="11.3991483"><ele>85.0</ele><time>2026-05-01T07:08:56.442Z</time></trkpt><trkpt lat="44.4632917" lon="11.3992167"><ele>85.0</ele><time>2026-05-01T07:08:57.441Z</time></trkpt><trkpt lat="44.463355" lon="11.3992817"><ele>85.0</ele><time>2026-05-01T07:08:58.442Z</time></trkpt><trkpt lat="44.463415" lon="11.3993483"><ele>85.0</ele><time>2026-05-01T07:08:59.44Z</time></trkpt><trkpt lat="44.4634767" lon="11.3994167"><ele>85.0</ele><time>2026-05-01T07:09:00.441Z</time></trkpt><trkpt lat="44.4635367" lon="11.3994783"><ele>85.0</ele><time>2026-05-01T07:09:01.442Z</time></trkpt><trkpt lat="44.4635917" lon="11.3995433"><ele>85.0</ele><time>2026-05-01T07:09:02.442Z</time></trkpt><trkpt lat="44.4636517" lon="11.399605"><ele>84.66666666666666</ele><time>2026-05-01T07:09:03.441Z</time></trkpt><trkpt lat="44.4637083" lon="11.3996683"><ele>84.33333333333333</ele><time>2026-05-01T07:09:04.441Z</time></trkpt><trkpt lat="44.4637633" lon="11.3997267"><ele>84.0</ele><time>2026-05-01T07:09:05.442Z</time></trkpt><trkpt lat="44.4638417" lon="11.3998267"><ele>83.66666666666667</ele><time>2026-05-01T07:09:07.441Z</time></trkpt><trkpt lat="44.463905" lon="11.3998967"><ele>83.33333333333334</ele><time>2026-05-01T07:09:09.441Z</time></trkpt><trkpt lat="44.4639683" lon="11.39997"><ele>83.0</ele><time>2026-05-01T07:09:11.44Z</time></trkpt><trkpt lat="44.4640433" lon="11.40005"><ele>82.5</ele><time>2026-05-01T07:09:13.442Z</time></trkpt><trkpt lat="44.4641183" lon="11.400125"><ele>82.0</ele><time>2026-05-01T07:09:15.442Z</time></trkpt><trkpt lat="44.4641817" lon="11.40018"><ele>81.5</ele><time>2026-05-01T07:09:17.442Z</time></trkpt><trkpt lat="44.4642317" lon="11.4002833"><ele>81.0</ele><time>2026-05-01T07:09:20.443Z</time></trkpt><trkpt lat="44.4642117" lon="11.4003867"><ele>80.5</ele><time>2026-05-01T07:09:22.443Z</time></trkpt><trkpt lat="44.4641433" lon="11.4005083"><ele>80.0</ele><time>2026-05-01T07:09:24.444Z</time></trkpt><trkpt lat="44.4641017" lon="11.4005783"><ele>80.0</ele><time>2026-05-01T07:09:25.442Z</time></trkpt><trkpt lat="44.4640567" lon="11.400645"><ele>80.0</ele><time>2026-05-01T07:09:26.442Z</time></trkpt><trkpt lat="44.46401" lon="11.4007133"><ele>80.0</ele><time>2026-05-01T07:09:27.441Z</time></trkpt><trkpt lat="44.46396" lon="11.4007683"><ele>80.0</ele><time>2026-05-01T07:09:28.441Z</time></trkpt><trkpt lat="44.4639117" lon="11.4008283"><ele>80.0</ele><time>2026-05-01T07:09:29.441Z</time></trkpt><trkpt lat="44.4638617" lon="11.40089"><ele>80.0</ele><time>2026-05-01T07:09:30.442Z</time></trkpt><trkpt lat="44.4638133" lon="11.4009583"><ele>80.0</ele><time>2026-05-01T07:09:31.442Z</time></trkpt><trkpt lat="44.46376" lon="11.4010233"><ele>80.14285714285714</ele><time>2026-05-01T07:09:32.442Z</time></trkpt><trkpt lat="44.4637067" lon="11.40109"><ele>80.28571428571429</ele><time>2026-05-01T07:09:33.442Z</time></trkpt><trkpt lat="44.4636533" lon="11.4011617"><ele>80.42857142857143</ele><time>2026-05-01T07:09:34.442Z</time></trkpt><trkpt lat="44.4636017" lon="11.4012317"><ele>80.57142857142857</ele><time>2026-05-01T07:09:35.442Z</time></trkpt><trkpt lat="44.46355" lon="11.4013017"><ele>80.71428571428571</ele><time>2026-05-01T07:09:36.442Z</time></trkpt><trkpt lat="44.4635" lon="11.4013733"><ele>80.85714285714286</ele><time>2026-05-01T07:09:37.441Z</time></trkpt><trkpt lat="44.46345" lon="11.401445"><ele>81.0</ele><time>2026-05-01T07:09:38.441Z</time></trkpt><trkpt lat="44.4634033" lon="11.4015183"><ele>80.57142857142857</ele><time>2026-05-01T07:09:39.442Z</time></trkpt><trkpt lat="44.4633583" lon="11.4015967"><ele>80.14285714285714</ele><time>2026-05-01T07:09:40.441Z</time></trkpt><trkpt lat="44.4633183" lon="11.4016733"><ele>79.71428571428572</ele><time>2026-05-01T07:09:41.442Z</time></trkpt><trkpt lat="44.4632833" lon="11.40175"><ele>79.28571428571428</ele><time>2026-05-01T07:09:42.441Z</time></trkpt><trkpt lat="44.4632517" lon="11.4018267"><ele>78.85714285714285</ele><time>2026-05-01T07:09:43.442Z</time></trkpt><trkpt lat="44.4632183" lon="11.4019017"><ele>78.42857142857143</ele><time>2026-05-01T07:09:44.442Z</time></trkpt><trkpt lat="44.4631817" lon="11.4019767"><ele>78.0</ele><time>2026-05-01T07:09:45.441Z</time></trkpt><trkpt lat="44.4631483" lon="11.4020583"><ele>78.0</ele><time>2026-05-01T07:09:46.444Z</time></trkpt><trkpt lat="44.463115" lon="11.4021467"><ele>78.0</ele><time>2026-05-01T07:09:47.441Z</time></trkpt><trkpt lat="44.4630783" lon="11.4022267"><ele>78.0</ele><time>2026-05-01T07:09:48.442Z</time></trkpt><trkpt lat="44.463015" lon="11.402345"><ele>78.0</ele><time>2026-05-01T07:09:50.441Z</time></trkpt><trkpt lat="44.4629617" lon="11.40244"><ele>78.0</ele><time>2026-05-01T07:09:52.44Z</time></trkpt><trkpt lat="44.462925" lon="11.4025133"><ele>78.0</ele><time>2026-05-01T07:09:54.441Z</time></trkpt><trkpt lat="44.4628833" lon="11.4025917"><ele>78.0</ele><time>2026-05-01T07:09:57.441Z</time></trkpt><trkpt lat="44.4628417" lon="11.4026667"><ele>78.0</ele><time>2026-05-01T07:10:01.442Z</time></trkpt><trkpt lat="44.4627917" lon="11.4027717"><ele>78.0</ele><time>2026-05-01T07:10:06.441Z</time></trkpt><trkpt lat="44.4627433" lon="11.4028683"><ele>78.0</ele><time>2026-05-01T07:10:08.44Z</time></trkpt><trkpt lat="44.462695" lon="11.4029667"><ele>78.0</ele><time>2026-05-01T07:10:10.441Z</time></trkpt><trkpt lat="44.4626533" lon="11.4030667"><ele>78.0</ele><time>2026-05-01T07:10:12.441Z</time></trkpt><trkpt lat="44.4626117" lon="11.40316"><ele>78.16666666666667</ele><time>2026-05-01T07:10:14.441Z</time></trkpt><trkpt lat="44.462565" lon="11.40325"><ele>78.33333333333333</ele><time>2026-05-01T07:10:16.442Z</time></trkpt><trkpt lat="44.46251" lon="11.4033417"><ele>78.5</ele><time>2026-05-01T07:10:18.441Z</time></trkpt><trkpt lat="44.4624533" lon="11.4034283"><ele>78.66666666666666</ele><time>2026-05-01T07:10:20.442Z</time></trkpt><trkpt lat="44.46239" lon="11.4035"><ele>78.83333333333333</ele><time>2026-05-01T07:10:22.441Z</time></trkpt><trkpt lat="44.4623233" lon="11.4035667"><ele>79.0</ele><time>2026-05-01T07:10:24.441Z</time></trkpt><trkpt lat="44.4622383" lon="11.4036367"><ele>79.0</ele><time>2026-05-01T07:10:26.442Z</time></trkpt><trkpt lat="44.4621533" lon="11.4036883"><ele>79.0</ele><time>2026-05-01T07:10:28.441Z</time></trkpt><trkpt lat="44.46207" lon="11.4037217"><ele>79.0</ele><time>2026-05-01T07:10:30.442Z</time></trkpt><trkpt lat="44.4619867" lon="11.403755"><ele>79.0</ele><time>2026-05-01T07:10:32.441Z</time></trkpt><trkpt lat="44.4619033" lon="11.4037867"><ele>79.0</ele><time>2026-05-01T07:10:34.442Z</time></trkpt><trkpt lat="44.4618167" lon="11.403825"><ele>79.0</ele><time>2026-05-01T07:10:36.441Z</time></trkpt><trkpt lat="44.461725" lon="11.4038683"><ele>80.2</ele><time>2026-05-01T07:10:38.44Z</time></trkpt><trkpt lat="44.4616333" lon="11.403905"><ele>81.4</ele><time>2026-05-01T07:10:40.441Z</time></trkpt><trkpt lat="44.4615383" lon="11.4039633"><ele>82.6</ele><time>2026-05-01T07:10:42.442Z</time></trkpt><trkpt lat="44.4614483" lon="11.4040083"><ele>83.8</ele><time>2026-05-01T07:10:44.44Z</time></trkpt><trkpt lat="44.4613583" lon="11.404035"><ele>85.0</ele><time>2026-05-01T07:10:46.442Z</time></trkpt><trkpt lat="44.461265" lon="11.404085"><ele>85.0</ele><time>2026-05-01T07:10:48.441Z</time></trkpt><trkpt lat="44.4611817" lon="11.40412"><ele>85.0</ele><time>2026-05-01T07:10:50.441Z</time></trkpt><trkpt lat="44.4610967" lon="11.404165"><ele>85.0</ele><time>2026-05-01T07:10:52.441Z</time></trkpt><trkpt lat="44.4610083" lon="11.4041983"><ele>85.0</ele><time>2026-05-01T07:10:54.44Z</time></trkpt><trkpt lat="44.4609183" lon="11.4042333"><ele>85.0</ele><time>2026-05-01T07:10:56.441Z</time></trkpt><trkpt lat="44.4608217" lon="11.404285"><ele>85.0</ele><time>2026-05-01T07:10:58.441Z</time></trkpt><trkpt lat="44.4607383" lon="11.40435"><ele>85.0</ele><time>2026-05-01T07:11:00.44Z</time></trkpt><trkpt lat="44.460645" lon="11.4044167"><ele>85.0</ele><time>2026-05-01T07:11:02.441Z</time></trkpt><trkpt lat="44.4605483" lon="11.404485"><ele>85.0</ele><time>2026-05-01T07:11:04.44Z</time></trkpt><trkpt lat="44.4604533" lon="11.4045533"><ele>85.0</ele><time>2026-05-01T07:11:06.442Z</time></trkpt><trkpt lat="44.46036" lon="11.40463"><ele>85.4</ele><time>2026-05-01T07:11:08.442Z</time></trkpt><trkpt lat="44.4602667" lon="11.404715"><ele>85.8</ele><time>2026-05-01T07:11:10.442Z</time></trkpt><trkpt lat="44.46017" lon="11.4047867"><ele>86.19999999999999</ele><time>2026-05-01T07:11:12.442Z</time></trkpt><trkpt lat="44.46008" lon="11.40487"><ele>86.6</ele><time>2026-05-01T07:11:14.442Z</time></trkpt><trkpt lat="44.4599917" lon="11.404945"><ele>87.0</ele><time>2026-05-01T07:11:16.443Z</time></trkpt><trkpt lat="44.45989" lon="11.4050217"><ele>87.0</ele><time>2026-05-01T07:11:18.441Z</time></trkpt><trkpt lat="44.459785" lon="11.405095"><ele>87.0</ele><time>2026-05-01T07:11:20.442Z</time></trkpt><trkpt lat="44.4596733" lon="11.4051617"><ele>87.0</ele><time>2026-05-01T07:11:22.44Z</time></trkpt><trkpt lat="44.4595617" lon="11.405215"><ele>87.0</ele><time>2026-05-01T07:11:24.441Z</time></trkpt><trkpt lat="44.4594433" lon="11.40525"><ele>87.5</ele><time>2026-05-01T07:11:26.44Z</time></trkpt><trkpt lat="44.45932" lon="11.4052733"><ele>88.0</ele><time>2026-05-01T07:11:28.441Z</time></trkpt><trkpt lat="44.4592567" lon="11.4052817"><ele>88.5</ele><time>2026-05-01T07:11:29.441Z</time></trkpt><trkpt lat="44.4591917" lon="11.4052967"><ele>89.0</ele><time>2026-05-01T07:11:30.441Z</time></trkpt><trkpt lat="44.4591267" lon="11.4053117"><ele>89.5</ele><time>2026-05-01T07:11:31.442Z</time></trkpt><trkpt lat="44.45906" lon="11.4053317"><ele>90.0</ele><time>2026-05-01T07:11:32.441Z</time></trkpt><trkpt lat="44.45899" lon="11.4053517"><ele>90.0</ele><time>2026-05-01T07:11:33.441Z</time></trkpt><trkpt lat="44.4589217" lon="11.4053717"><ele>90.0</ele><time>2026-05-01T07:11:34.442Z</time></trkpt><trkpt lat="44.4588533" lon="11.405385"><ele>90.0</ele><time>2026-05-01T07:11:35.44Z</time></trkpt><trkpt lat="44.4587867" lon="11.4054033"><ele>90.0</ele><time>2026-05-01T07:11:36.44Z</time></trkpt><trkpt lat="44.45872" lon="11.4054183"><ele>90.0</ele><time>2026-05-01T07:11:37.44Z</time></trkpt><trkpt lat="44.4586533" lon="11.4054333"><ele>90.0</ele><time>2026-05-01T07:11:38.441Z</time></trkpt><trkpt lat="44.4585883" lon="11.4054567"><ele>90.0</ele><time>2026-05-01T07:11:39.441Z</time></trkpt><trkpt lat="44.4585267" lon="11.405475"><ele>90.0</ele><time>2026-05-01T07:11:40.439Z</time></trkpt><trkpt lat="44.458465" lon="11.4054933"><ele>90.0</ele><time>2026-05-01T07:11:41.441Z</time></trkpt><trkpt lat="44.4583417" lon="11.4055267"><ele>90.0</ele><time>2026-05-01T07:11:43.44Z</time></trkpt><trkpt lat="44.4582183" lon="11.4055517"><ele>90.0</ele><time>2026-05-01T07:11:45.441Z</time></trkpt><trkpt lat="44.4581033" lon="11.4055717"><ele>90.0</ele><time>2026-05-01T07:11:47.442Z</time></trkpt><trkpt lat="44.45799" lon="11.4056067"><ele>89.5</ele><time>2026-05-01T07:11:49.442Z</time></trkpt><trkpt lat="44.4578883" lon="11.40565"><ele>89.0</ele><time>2026-05-01T07:11:51.441Z</time></trkpt><trkpt lat="44.4577867" lon="11.405705"><ele>88.5</ele><time>2026-05-01T07:11:53.441Z</time></trkpt><trkpt lat="44.4576767" lon="11.40573"><ele>88.0</ele><time>2026-05-01T07:11:55.441Z</time></trkpt><trkpt lat="44.4575567" lon="11.4057817"><ele>88.0</ele><time>2026-05-01T07:11:57.439Z</time></trkpt><trkpt lat="44.457495" lon="11.4058133"><ele>88.0</ele><time>2026-05-01T07:11:58.439Z</time></trkpt><trkpt lat="44.457425" lon="11.4058333"><ele>88.0</ele><time>2026-05-01T07:11:59.441Z</time></trkpt><trkpt lat="44.4573533" lon="11.4058267"><ele>88.0</ele><time>2026-05-01T07:12:00.442Z</time></trkpt><trkpt lat="44.45728" lon="11.40581"><ele>88.0</ele><time>2026-05-01T07:12:01.44Z</time></trkpt><trkpt lat="44.4572083" lon="11.4057933"><ele>88.0</ele><time>2026-05-01T07:12:02.442Z</time></trkpt><trkpt lat="44.4571383" lon="11.405785"><ele>88.0</ele><time>2026-05-01T07:12:03.44Z</time></trkpt><trkpt lat="44.4570683" lon="11.4057833"><ele>87.85714285714286</ele><time>2026-05-01T07:12:04.44Z</time></trkpt><trkpt lat="44.457" lon="11.4057933"><ele>87.71428571428571</ele><time>2026-05-01T07:12:05.441Z</time></trkpt><trkpt lat="44.4569333" lon="11.4058033"><ele>87.57142857142857</ele><time>2026-05-01T07:12:06.442Z</time></trkpt><trkpt lat="44.45687" lon="11.4058133"><ele>87.42857142857143</ele><time>2026-05-01T07:12:07.442Z</time></trkpt><trkpt lat="44.4568067" lon="11.4058267"><ele>87.28571428571429</ele><time>2026-05-01T07:12:08.441Z</time></trkpt><trkpt lat="44.4567433" lon="11.4058333"><ele>87.14285714285714</ele><time>2026-05-01T07:12:09.44Z</time></trkpt><trkpt lat="44.4566767" lon="11.4058533"><ele>87.0</ele><time>2026-05-01T07:12:10.44Z</time></trkpt><trkpt lat="44.4566083" lon="11.4058733"><ele>87.0</ele><time>2026-05-01T07:12:11.441Z</time></trkpt><trkpt lat="44.4565383" lon="11.4058917"><ele>87.0</ele><time>2026-05-01T07:12:12.443Z</time></trkpt><trkpt lat="44.45647" lon="11.4059083"><ele>87.0</ele><time>2026-05-01T07:12:13.44Z</time></trkpt><trkpt lat="44.4564017" lon="11.40592"><ele>87.0</ele><time>2026-05-01T07:12:14.441Z</time></trkpt><trkpt lat="44.456335" lon="11.405935"><ele>87.0</ele><time>2026-05-01T07:12:15.441Z</time></trkpt><trkpt lat="44.4562667" lon="11.4059483"><ele>87.0</ele><time>2026-05-01T07:12:16.443Z</time></trkpt><trkpt lat="44.4561983" lon="11.40596"><ele>87.0</ele><time>2026-05-01T07:12:17.443Z</time></trkpt><trkpt lat="44.4561317" lon="11.4059683"><ele>87.28571428571428</ele><time>2026-05-01T07:12:18.44Z</time></trkpt><trkpt lat="44.4560633" lon="11.40598"><ele>87.57142857142857</ele><time>2026-05-01T07:12:19.441Z</time></trkpt><trkpt lat="44.4559933" lon="11.405995"><ele>87.85714285714286</ele><time>2026-05-01T07:12:20.44Z</time></trkpt><trkpt lat="44.4559233" lon="11.4060083"><ele>88.14285714285714</ele><time>2026-05-01T07:12:21.44Z</time></trkpt><trkpt lat="44.455855" lon="11.4060233"><ele>88.42857142857143</ele><time>2026-05-01T07:12:22.44Z</time></trkpt><trkpt lat="44.4557883" lon="11.4060417"><ele>88.71428571428571</ele><time>2026-05-01T07:12:23.44Z</time></trkpt><trkpt lat="44.4557183" lon="11.4060617"><ele>89.0</ele><time>2026-05-01T07:12:24.441Z</time></trkpt><trkpt lat="44.45565" lon="11.4060783"><ele>88.99999999999999</ele><time>2026-05-01T07:12:25.441Z</time></trkpt><trkpt lat="44.4555817" lon="11.4060883"><ele>89.0</ele><time>2026-05-01T07:12:26.442Z</time></trkpt><trkpt lat="44.455515" lon="11.4061"><ele>89.0</ele><time>2026-05-01T07:12:27.44Z</time></trkpt><trkpt lat="44.4554467" lon="11.4061133"><ele>89.0</ele><time>2026-05-01T07:12:28.44Z</time></trkpt><trkpt lat="44.4553783" lon="11.406125"><ele>89.0</ele><time>2026-05-01T07:12:29.441Z</time></trkpt><trkpt lat="44.4553083" lon="11.4061417"><ele>88.99999999999999</ele><time>2026-05-01T07:12:30.441Z</time></trkpt><trkpt lat="44.4552333" lon="11.40616"><ele>89.0</ele><time>2026-05-01T07:12:31.441Z</time></trkpt><trkpt lat="44.4551583" lon="11.4061817"><ele>88.5</ele><time>2026-05-01T07:12:32.441Z</time></trkpt><trkpt lat="44.4550833" lon="11.4062033"><ele>88.0</ele><time>2026-05-01T07:12:33.439Z</time></trkpt><trkpt lat="44.4550067" lon="11.4062217"><ele>87.5</ele><time>2026-05-01T07:12:34.442Z</time></trkpt><trkpt lat="44.45493" lon="11.4062483"><ele>87.0</ele><time>2026-05-01T07:12:35.441Z</time></trkpt><trkpt lat="44.4548533" lon="11.4062717"><ele>86.5</ele><time>2026-05-01T07:12:36.441Z</time></trkpt><trkpt lat="44.4547783" lon="11.4062917"><ele>86.0</ele><time>2026-05-01T07:12:37.441Z</time></trkpt><trkpt lat="44.4547033" lon="11.4063133"><ele>85.57142857142858</ele><time>2026-05-01T07:12:38.44Z</time></trkpt><trkpt lat="44.45463" lon="11.4063333"><ele>85.14285714285714</ele><time>2026-05-01T07:12:39.44Z</time></trkpt><trkpt lat="44.4545567" lon="11.4063617"><ele>84.71428571428572</ele><time>2026-05-01T07:12:40.44Z</time></trkpt><trkpt lat="44.454485" lon="11.4063917"><ele>84.28571428571429</ele><time>2026-05-01T07:12:41.441Z</time></trkpt><trkpt lat="44.4544133" lon="11.4064183"><ele>83.85714285714286</ele><time>2026-05-01T07:12:42.442Z</time></trkpt><trkpt lat="44.4543433" lon="11.406445"><ele>83.42857142857143</ele><time>2026-05-01T07:12:43.441Z</time></trkpt><trkpt lat="44.454275" lon="11.4064767"><ele>83.0</ele><time>2026-05-01T07:12:44.441Z</time></trkpt><trkpt lat="44.4542067" lon="11.4065033"><ele>83.0</ele><time>2026-05-01T07:12:45.44Z</time></trkpt><trkpt lat="44.4541383" lon="11.4065333"><ele>83.0</ele><time>2026-05-01T07:12:46.442Z</time></trkpt><trkpt lat="44.4540717" lon="11.4065667"><ele>83.0</ele><time>2026-05-01T07:12:47.442Z</time></trkpt><trkpt lat="44.4540067" lon="11.4066017"><ele>83.0</ele><time>2026-05-01T07:12:48.44Z</time></trkpt><trkpt lat="44.453945" lon="11.4066333"><ele>83.0</ele><time>2026-05-01T07:12:49.442Z</time></trkpt><trkpt lat="44.4538833" lon="11.406665"><ele>83.0</ele><time>2026-05-01T07:12:50.44Z</time></trkpt><trkpt lat="44.4537617" lon="11.4067267"><ele>83.57142857142857</ele><time>2026-05-01T07:12:52.441Z</time></trkpt><trkpt lat="44.4536983" lon="11.4067583"><ele>84.14285714285715</ele><time>2026-05-01T07:12:53.441Z</time></trkpt><trkpt lat="44.4536367" lon="11.40679"><ele>84.71428571428572</ele><time>2026-05-01T07:12:54.44Z</time></trkpt><trkpt lat="44.4535717" lon="11.40682"><ele>85.28571428571428</ele><time>2026-05-01T07:12:55.44Z</time></trkpt><trkpt lat="44.45351" lon="11.4068467"><ele>85.85714285714286</ele><time>2026-05-01T07:12:56.44Z</time></trkpt><trkpt lat="44.453445" lon="11.406875"><ele>86.42857142857143</ele><time>2026-05-01T07:12:57.439Z</time></trkpt><trkpt lat="44.4533833" lon="11.4069117"><ele>87.0</ele><time>2026-05-01T07:12:58.441Z</time></trkpt><trkpt lat="44.4533233" lon="11.4069417"><ele>87.0</ele><time>2026-05-01T07:12:59.44Z</time></trkpt><trkpt lat="44.4532633" lon="11.4069767"><ele>87.0</ele><time>2026-05-01T07:13:00.442Z</time></trkpt><trkpt lat="44.4532017" lon="11.4070133"><ele>87.0</ele><time>2026-05-01T07:13:01.44Z</time></trkpt><trkpt lat="44.4531367" lon="11.4070417"><ele>87.0</ele><time>2026-05-01T07:13:02.441Z</time></trkpt><trkpt lat="44.45307" lon="11.4070717"><ele>87.0</ele><time>2026-05-01T07:13:03.44Z</time></trkpt><trkpt lat="44.453005" lon="11.4071017"><ele>87.0</ele><time>2026-05-01T07:13:04.44Z</time></trkpt><trkpt lat="44.45294" lon="11.40712"><ele>87.0</ele><time>2026-05-01T07:13:05.44Z</time></trkpt><trkpt lat="44.452815" lon="11.4071483"><ele>86.8</ele><time>2026-05-01T07:13:07.442Z</time></trkpt><trkpt lat="44.4526917" lon="11.40717"><ele>86.6</ele><time>2026-05-01T07:13:09.441Z</time></trkpt><trkpt lat="44.4525633" lon="11.4071867"><ele>86.39999999999999</ele><time>2026-05-01T07:13:11.441Z</time></trkpt><trkpt lat="44.4525" lon="11.407195"><ele>86.19999999999999</ele><time>2026-05-01T07:13:12.441Z</time></trkpt><trkpt lat="44.4524333" lon="11.4072117"><ele>86.0</ele><time>2026-05-01T07:13:13.441Z</time></trkpt><trkpt lat="44.4523667" lon="11.407225"><ele>86.00000000000001</ele><time>2026-05-01T07:13:14.441Z</time></trkpt><trkpt lat="44.4523" lon="11.4072367"><ele>86.0</ele><time>2026-05-01T07:13:15.441Z</time></trkpt><trkpt lat="44.4522333" lon="11.4072467"><ele>86.0</ele><time>2026-05-01T07:13:16.443Z</time></trkpt><trkpt lat="44.4521667" lon="11.4072617"><ele>86.0</ele><time>2026-05-01T07:13:17.443Z</time></trkpt><trkpt lat="44.4521017" lon="11.4072717"><ele>86.0</ele><time>2026-05-01T07:13:18.441Z</time></trkpt><trkpt lat="44.4520383" lon="11.407285"><ele>86.00000000000001</ele><time>2026-05-01T07:13:19.441Z</time></trkpt><trkpt lat="44.4519733" lon="11.4072933"><ele>86.0</ele><time>2026-05-01T07:13:20.441Z</time></trkpt><trkpt lat="44.4518517" lon="11.407305"><ele>85.8</ele><time>2026-05-01T07:13:22.441Z</time></trkpt><trkpt lat="44.4517383" lon="11.40732"><ele>85.6</ele><time>2026-05-01T07:13:24.439Z</time></trkpt><trkpt lat="44.45163" lon="11.4073383"><ele>85.4</ele><time>2026-05-01T07:13:26.441Z</time></trkpt><trkpt lat="44.4515283" lon="11.40737"><ele>85.2</ele><time>2026-05-01T07:13:28.441Z</time></trkpt><trkpt lat="44.4514267" lon="11.4073933"><ele>85.0</ele><time>2026-05-01T07:13:30.442Z</time></trkpt><trkpt lat="44.4513183" lon="11.40741"><ele>85.6</ele><time>2026-05-01T07:13:32.441Z</time></trkpt><trkpt lat="44.4512183" lon="11.4074917"><ele>86.2</ele><time>2026-05-01T07:13:34.44Z</time></trkpt><trkpt lat="44.4511833" lon="11.4076417"><ele>86.80000000000001</ele><time>2026-05-01T07:13:36.442Z</time></trkpt><trkpt lat="44.4511867" lon="11.40773"><ele>87.4</ele><time>2026-05-01T07:13:37.442Z</time></trkpt><trkpt lat="44.4511667" lon="11.407875"><ele>88.0</ele><time>2026-05-01T07:13:39.441Z</time></trkpt><trkpt lat="44.4511317" lon="11.408025"><ele>88.0</ele><time>2026-05-01T07:13:41.441Z</time></trkpt><trkpt lat="44.4511183" lon="11.4081767"><ele>88.0</ele><time>2026-05-01T07:13:43.441Z</time></trkpt><trkpt lat="44.4511117" lon="11.4083367"><ele>88.0</ele><time>2026-05-01T07:13:45.441Z</time></trkpt><trkpt lat="44.4510933" lon="11.4085"><ele>88.0</ele><time>2026-05-01T07:13:47.44Z</time></trkpt><trkpt lat="44.4510783" lon="11.4086667"><ele>88.4</ele><time>2026-05-01T07:13:49.442Z</time></trkpt><trkpt lat="44.4510683" lon="11.408835"><ele>88.80000000000001</ele><time>2026-05-01T07:13:51.443Z</time></trkpt><trkpt lat="44.4510667" lon="11.4090033"><ele>89.2</ele><time>2026-05-01T07:13:53.441Z</time></trkpt><trkpt lat="44.4510683" lon="11.4091633"><ele>89.6</ele><time>2026-05-01T07:13:55.44Z</time></trkpt><trkpt lat="44.4510517" lon="11.409275"><ele>90.0</ele><time>2026-05-01T07:13:57.44Z</time></trkpt><trkpt lat="44.4509667" lon="11.4092817"><ele>90.0</ele><time>2026-05-01T07:13:59.441Z</time></trkpt><trkpt lat="44.450855" lon="11.409245"><ele>90.0</ele><time>2026-05-01T07:14:01.441Z</time></trkpt><trkpt lat="44.4507467" lon="11.409215"><ele>90.0</ele><time>2026-05-01T07:14:03.439Z</time></trkpt><trkpt lat="44.4506367" lon="11.409185"><ele>90.0</ele><time>2026-05-01T07:14:05.441Z</time></trkpt><trkpt lat="44.450535" lon="11.4091667"><ele>90.0</ele><time>2026-05-01T07:14:07.44Z</time></trkpt><trkpt lat="44.450425" lon="11.4091617"><ele>90.5</ele><time>2026-05-01T07:14:09.438Z</time></trkpt><trkpt lat="44.4503483" lon="11.4091267"><ele>91.0</ele><time>2026-05-01T07:14:11.439Z</time></trkpt><trkpt lat="44.4502767" lon="11.4090967"><ele>91.5</ele><time>2026-05-01T07:14:15.439Z</time></trkpt><trkpt lat="44.4502" lon="11.409045"><ele>92.0</ele><time>2026-05-01T07:14:23.44Z</time></trkpt><trkpt lat="44.4501017" lon="11.4090967"><ele>92.5</ele><time>2026-05-01T07:14:35.44Z</time></trkpt><trkpt lat="44.4500383" lon="11.4091433"><ele>93.0</ele><time>2026-05-01T07:14:40.442Z</time></trkpt><trkpt lat="44.4500033" lon="11.4092217"><ele>93.00000000000001</ele><time>2026-05-01T07:14:44.442Z</time></trkpt><trkpt lat="44.449955" lon="11.4093"><ele>93.0</ele><time>2026-05-01T07:14:48.441Z</time></trkpt><trkpt lat="44.4498933" lon="11.4093533"><ele>93.0</ele><time>2026-05-01T07:14:52.442Z</time></trkpt><trkpt lat="44.4498417" lon="11.4094217"><ele>93.0</ele><time>2026-05-01T07:14:56.441Z</time></trkpt><trkpt lat="44.4497917" lon="11.4095183"><ele>93.0</ele><time>2026-05-01T07:15:03.441Z</time></trkpt><trkpt lat="44.449735" lon="11.409595"><ele>93.00000000000001</ele><time>2026-05-01T07:15:06.441Z</time></trkpt><trkpt lat="44.44968" lon="11.4096417"><ele>93.0</ele><time>2026-05-01T07:15:09.442Z</time></trkpt><trkpt lat="44.4496233" lon="11.4096967"><ele>93.16666666666667</ele><time>2026-05-01T07:15:12.441Z</time></trkpt><trkpt lat="44.4495567" lon="11.4097067"><ele>93.33333333333333</ele><time>2026-05-01T07:15:15.441Z</time></trkpt><trkpt lat="44.449465" lon="11.4096633"><ele>93.5</ele><time>2026-05-01T07:15:18.443Z</time></trkpt><trkpt lat="44.4493933" lon="11.4096317"><ele>93.66666666666666</ele><time>2026-05-01T07:15:20.441Z</time></trkpt><trkpt lat="44.4493133" lon="11.4095983"><ele>93.83333333333333</ele><time>2026-05-01T07:15:22.442Z</time></trkpt><trkpt lat="44.44923" lon="11.4095617"><ele>94.0</ele><time>2026-05-01T07:15:24.443Z</time></trkpt><trkpt lat="44.4491567" lon="11.40953"><ele>94.0</ele><time>2026-05-01T07:15:26.443Z</time></trkpt><trkpt lat="44.4490883" lon="11.409495"><ele>94.0</ele><time>2026-05-01T07:15:28.441Z</time></trkpt><trkpt lat="44.4489883" lon="11.4094533"><ele>94.0</ele><time>2026-05-01T07:15:31.443Z</time></trkpt><trkpt lat="44.4488817" lon="11.4094317"><ele>94.0</ele><time>2026-05-01T07:15:33.442Z</time></trkpt><trkpt lat="44.4487683" lon="11.4094117"><ele>94.0</ele><time>2026-05-01T07:15:35.442Z</time></trkpt><trkpt lat="44.4486733" lon="11.4093733"><ele>93.6</ele><time>2026-05-01T07:15:37.442Z</time></trkpt><trkpt lat="44.4485833" lon="11.40935"><ele>93.2</ele><time>2026-05-01T07:15:39.442Z</time></trkpt><trkpt lat="44.4484833" lon="11.4093083"><ele>92.8</ele><time>2026-05-01T07:15:41.441Z</time></trkpt><trkpt lat="44.4483767" lon="11.4092733"><ele>92.39999999999999</ele><time>2026-05-01T07:15:43.443Z</time></trkpt><trkpt lat="44.4482717" lon="11.4092383"><ele>92.0</ele><time>2026-05-01T07:15:45.442Z</time></trkpt><trkpt lat="44.4481683" lon="11.4091983"><ele>92.0</ele><time>2026-05-01T07:15:47.444Z</time></trkpt><trkpt lat="44.4480633" lon="11.40916"><ele>92.0</ele><time>2026-05-01T07:15:49.441Z</time></trkpt><trkpt lat="44.447955" lon="11.409125"><ele>92.0</ele><time>2026-05-01T07:15:51.443Z</time></trkpt><trkpt lat="44.44785" lon="11.4090883"><ele>92.0</ele><time>2026-05-01T07:15:53.441Z</time></trkpt><trkpt lat="44.447745" lon="11.4090517"><ele>92.0</ele><time>2026-05-01T07:15:55.442Z</time></trkpt><trkpt lat="44.447635" lon="11.4090067"><ele>92.0</ele><time>2026-05-01T07:15:57.441Z</time></trkpt><trkpt lat="44.4475283" lon="11.40896"><ele>92.0</ele><time>2026-05-01T07:15:59.442Z</time></trkpt><trkpt lat="44.4474217" lon="11.4089167"><ele>92.0</ele><time>2026-05-01T07:16:01.442Z</time></trkpt><trkpt lat="44.4473" lon="11.4088767"><ele>92.0</ele><time>2026-05-01T07:16:03.442Z</time></trkpt><trkpt lat="44.4472317" lon="11.4088533"><ele>92.0</ele><time>2026-05-01T07:16:04.443Z</time></trkpt><trkpt lat="44.44716" lon="11.4088333"><ele>92.5</ele><time>2026-05-01T07:16:05.441Z</time></trkpt><trkpt lat="44.4470883" lon="11.408815"><ele>93.0</ele><time>2026-05-01T07:16:06.441Z</time></trkpt><trkpt lat="44.4470133" lon="11.4087917"><ele>93.5</ele><time>2026-05-01T07:16:07.442Z</time></trkpt><trkpt lat="44.4469383" lon="11.4087667"><ele>94.0</ele><time>2026-05-01T07:16:08.441Z</time></trkpt><trkpt lat="44.4468667" lon="11.408735"><ele>94.5</ele><time>2026-05-01T07:16:09.442Z</time></trkpt><trkpt lat="44.446795" lon="11.4087083"><ele>95.0</ele><time>2026-05-01T07:16:10.443Z</time></trkpt><trkpt lat="44.4467233" lon="11.4086833"><ele>95.0</ele><time>2026-05-01T07:16:11.441Z</time></trkpt><trkpt lat="44.4466517" lon="11.4086583"><ele>95.0</ele><time>2026-05-01T07:16:12.441Z</time></trkpt><trkpt lat="44.4465783" lon="11.4086333"><ele>95.0</ele><time>2026-05-01T07:16:13.442Z</time></trkpt><trkpt lat="44.446505" lon="11.408615"><ele>95.0</ele><time>2026-05-01T07:16:14.441Z</time></trkpt><trkpt lat="44.4464367" lon="11.4085933"><ele>95.0</ele><time>2026-05-01T07:16:15.442Z</time></trkpt><trkpt lat="44.4463667" lon="11.4085633"><ele>95.0</ele><time>2026-05-01T07:16:16.441Z</time></trkpt><trkpt lat="44.4463" lon="11.4085317"><ele>95.0</ele><time>2026-05-01T07:16:17.441Z</time></trkpt><trkpt lat="44.4462317" lon="11.4085067"><ele>94.85714285714286</ele><time>2026-05-01T07:16:18.442Z</time></trkpt><trkpt lat="44.44616" lon="11.40848"><ele>94.71428571428572</ele><time>2026-05-01T07:16:19.441Z</time></trkpt><trkpt lat="44.44609" lon="11.40845"><ele>94.57142857142857</ele><time>2026-05-01T07:16:20.441Z</time></trkpt><trkpt lat="44.4460217" lon="11.4084267"><ele>94.42857142857143</ele><time>2026-05-01T07:16:21.442Z</time></trkpt><trkpt lat="44.44595" lon="11.4083967"><ele>94.28571428571428</ele><time>2026-05-01T07:16:22.441Z</time></trkpt><trkpt lat="44.4458733" lon="11.4083667"><ele>94.14285714285714</ele><time>2026-05-01T07:16:23.441Z</time></trkpt><trkpt lat="44.4457983" lon="11.408345"><ele>94.0</ele><time>2026-05-01T07:16:24.442Z</time></trkpt><trkpt lat="44.4457317" lon="11.40833"><ele>94.0</ele><time>2026-05-01T07:16:25.442Z</time></trkpt><trkpt lat="44.44566" lon="11.408305"><ele>94.0</ele><time>2026-05-01T07:16:26.442Z</time></trkpt><trkpt lat="44.4455867" lon="11.408285"><ele>94.0</ele><time>2026-05-01T07:16:27.441Z</time></trkpt><trkpt lat="44.4455133" lon="11.4082667"><ele>94.0</ele><time>2026-05-01T07:16:28.441Z</time></trkpt><trkpt lat="44.4454417" lon="11.408245"><ele>94.0</ele><time>2026-05-01T07:16:29.442Z</time></trkpt><trkpt lat="44.4453683" lon="11.40822"><ele>94.0</ele><time>2026-05-01T07:16:30.442Z</time></trkpt><trkpt lat="44.445295" lon="11.4081917"><ele>94.0</ele><time>2026-05-01T07:16:31.441Z</time></trkpt><trkpt lat="44.4452233" lon="11.4081633"><ele>93.85714285714286</ele><time>2026-05-01T07:16:32.442Z</time></trkpt><trkpt lat="44.4451467" lon="11.408135"><ele>93.71428571428571</ele><time>2026-05-01T07:16:33.442Z</time></trkpt><trkpt lat="44.4450783" lon="11.40811"><ele>93.57142857142858</ele><time>2026-05-01T07:16:34.442Z</time></trkpt><trkpt lat="44.445005" lon="11.4080817"><ele>93.42857142857143</ele><time>2026-05-01T07:16:35.441Z</time></trkpt><trkpt lat="44.4449333" lon="11.4080583"><ele>93.28571428571429</ele><time>2026-05-01T07:16:36.442Z</time></trkpt><trkpt lat="44.4448683" lon="11.4080333"><ele>93.14285714285715</ele><time>2026-05-01T07:16:37.441Z</time></trkpt><trkpt lat="44.4448033" lon="11.40801"><ele>93.0</ele><time>2026-05-01T07:16:38.441Z</time></trkpt><trkpt lat="44.4447367" lon="11.4079833"><ele>93.28571428571429</ele><time>2026-05-01T07:16:39.442Z</time></trkpt><trkpt lat="44.4446733" lon="11.4079567"><ele>93.57142857142857</ele><time>2026-05-01T07:16:40.442Z</time></trkpt><trkpt lat="44.4446067" lon="11.4079333"><ele>93.85714285714286</ele><time>2026-05-01T07:16:41.442Z</time></trkpt><trkpt lat="44.4445367" lon="11.4079083"><ele>94.14285714285714</ele><time>2026-05-01T07:16:42.441Z</time></trkpt><trkpt lat="44.4444667" lon="11.4078833"><ele>94.42857142857143</ele><time>2026-05-01T07:16:43.442Z</time></trkpt><trkpt lat="44.4443967" lon="11.4078583"><ele>94.71428571428572</ele><time>2026-05-01T07:16:44.442Z</time></trkpt><trkpt lat="44.4443267" lon="11.4078317"><ele>95.0</ele><time>2026-05-01T07:16:45.441Z</time></trkpt><trkpt lat="44.444255" lon="11.4078033"><ele>95.0</ele><time>2026-05-01T07:16:46.443Z</time></trkpt><trkpt lat="44.444185" lon="11.4077767"><ele>95.0</ele><time>2026-05-01T07:16:47.444Z</time></trkpt><trkpt lat="44.4441133" lon="11.4077533"><ele>95.0</ele><time>2026-05-01T07:16:48.442Z</time></trkpt><trkpt lat="44.4440433" lon="11.4077317"><ele>95.0</ele><time>2026-05-01T07:16:49.443Z</time></trkpt><trkpt lat="44.443975" lon="11.4077067"><ele>95.0</ele><time>2026-05-01T07:16:50.442Z</time></trkpt><trkpt lat="44.4439083" lon="11.4076783"><ele>95.0</ele><time>2026-05-01T07:16:51.442Z</time></trkpt><trkpt lat="44.44384" lon="11.407655"><ele>95.0</ele><time>2026-05-01T07:16:52.441Z</time></trkpt><trkpt lat="44.4437733" lon="11.4076317"><ele>94.42857142857143</ele><time>2026-05-01T07:16:53.441Z</time></trkpt><trkpt lat="44.4437067" lon="11.40761"><ele>93.85714285714286</ele><time>2026-05-01T07:16:54.442Z</time></trkpt><trkpt lat="44.4436383" lon="11.4075917"><ele>93.28571428571428</ele><time>2026-05-01T07:16:55.442Z</time></trkpt><trkpt lat="44.4435667" lon="11.4075667"><ele>92.71428571428572</ele><time>2026-05-01T07:16:56.441Z</time></trkpt><trkpt lat="44.4434967" lon="11.40754"><ele>92.14285714285714</ele><time>2026-05-01T07:16:57.442Z</time></trkpt><trkpt lat="44.443425" lon="11.4075133"><ele>91.57142857142857</ele><time>2026-05-01T07:16:58.441Z</time></trkpt><trkpt lat="44.4433517" lon="11.4074883"><ele>91.0</ele><time>2026-05-01T07:16:59.442Z</time></trkpt><trkpt lat="44.4432783" lon="11.4074633"><ele>91.0</ele><time>2026-05-01T07:17:00.442Z</time></trkpt><trkpt lat="44.443205" lon="11.4074383"><ele>91.0</ele><time>2026-05-01T07:17:01.441Z</time></trkpt><trkpt lat="44.4431317" lon="11.4074133"><ele>91.0</ele><time>2026-05-01T07:17:02.44Z</time></trkpt><trkpt lat="44.44306" lon="11.4073867"><ele>91.0</ele><time>2026-05-01T07:17:03.442Z</time></trkpt><trkpt lat="44.4429883" lon="11.4073617"><ele>91.0</ele><time>2026-05-01T07:17:04.442Z</time></trkpt><trkpt lat="44.4429183" lon="11.40734"><ele>91.0</ele><time>2026-05-01T07:17:05.442Z</time></trkpt><trkpt lat="44.44285" lon="11.4073183"><ele>91.0</ele><time>2026-05-01T07:17:06.443Z</time></trkpt><trkpt lat="44.4427817" lon="11.4073017"><ele>90.71428571428571</ele><time>2026-05-01T07:17:07.443Z</time></trkpt><trkpt lat="44.4427133" lon="11.40729"><ele>90.42857142857143</ele><time>2026-05-01T07:17:08.442Z</time></trkpt><trkpt lat="44.4426467" lon="11.4072717"><ele>90.14285714285714</ele><time>2026-05-01T07:17:09.442Z</time></trkpt><trkpt lat="44.44258" lon="11.40725"><ele>89.85714285714286</ele><time>2026-05-01T07:17:10.442Z</time></trkpt><trkpt lat="44.442515" lon="11.4072267"><ele>89.57142857142857</ele><time>2026-05-01T07:17:11.442Z</time></trkpt><trkpt lat="44.4424467" lon="11.4072067"><ele>89.28571428571428</ele><time>2026-05-01T07:17:12.442Z</time></trkpt><trkpt lat="44.4423783" lon="11.4071867"><ele>89.0</ele><time>2026-05-01T07:17:13.442Z</time></trkpt><trkpt lat="44.44231" lon="11.4071633"><ele>89.14285714285714</ele><time>2026-05-01T07:17:14.442Z</time></trkpt><trkpt lat="44.4422383" lon="11.4071367"><ele>89.28571428571428</ele><time>2026-05-01T07:17:15.443Z</time></trkpt><trkpt lat="44.442165" lon="11.4071117"><ele>89.42857142857142</ele><time>2026-05-01T07:17:16.444Z</time></trkpt><trkpt lat="44.4420933" lon="11.4070833"><ele>89.57142857142857</ele><time>2026-05-01T07:17:17.443Z</time></trkpt><trkpt lat="44.4420217" lon="11.4070567"><ele>89.71428571428572</ele><time>2026-05-01T07:17:18.442Z</time></trkpt><trkpt lat="44.4419533" lon="11.4070317"><ele>89.85714285714285</ele><time>2026-05-01T07:17:19.442Z</time></trkpt><trkpt lat="44.4418833" lon="11.40701"><ele>90.0</ele><time>2026-05-01T07:17:20.441Z</time></trkpt><trkpt lat="44.4418133" lon="11.406985"><ele>90.0</ele><time>2026-05-01T07:17:21.442Z</time></trkpt><trkpt lat="44.4417433" lon="11.4069617"><ele>90.0</ele><time>2026-05-01T07:17:22.442Z</time></trkpt><trkpt lat="44.4416783" lon="11.40694"><ele>90.0</ele><time>2026-05-01T07:17:23.442Z</time></trkpt><trkpt lat="44.4416167" lon="11.4069133"><ele>90.0</ele><time>2026-05-01T07:17:24.442Z</time></trkpt><trkpt lat="44.441555" lon="11.4068917"><ele>90.0</ele><time>2026-05-01T07:17:25.442Z</time></trkpt><trkpt lat="44.441435" lon="11.4068517"><ele>90.0</ele><time>2026-05-01T07:17:27.441Z</time></trkpt><trkpt lat="44.4413733" lon="11.4068283"><ele>90.0</ele><time>2026-05-01T07:17:28.441Z</time></trkpt><trkpt lat="44.4413083" lon="11.406805"><ele>90.0</ele><time>2026-05-01T07:17:29.442Z</time></trkpt><trkpt lat="44.4412433" lon="11.406785"><ele>90.0</ele><time>2026-05-01T07:17:30.441Z</time></trkpt><trkpt lat="44.44118" lon="11.40676"><ele>90.0</ele><time>2026-05-01T07:17:31.442Z</time></trkpt><trkpt lat="44.4411167" lon="11.4067367"><ele>90.0</ele><time>2026-05-01T07:17:32.441Z</time></trkpt><trkpt lat="44.4410483" lon="11.4067133"><ele>90.0</ele><time>2026-05-01T07:17:33.442Z</time></trkpt><trkpt lat="44.44098" lon="11.4066933"><ele>90.0</ele><time>2026-05-01T07:17:34.442Z</time></trkpt><trkpt lat="44.44091" lon="11.406685"><ele>89.57142857142857</ele><time>2026-05-01T07:17:35.442Z</time></trkpt><trkpt lat="44.4408417" lon="11.4066933"><ele>89.14285714285715</ele><time>2026-05-01T07:17:36.44Z</time></trkpt><trkpt lat="44.4407767" lon="11.40673"><ele>88.71428571428572</ele><time>2026-05-01T07:17:37.442Z</time></trkpt><trkpt lat="44.4407233" lon="11.4067917"><ele>88.28571428571428</ele><time>2026-05-01T07:17:38.442Z</time></trkpt><trkpt lat="44.4406783" lon="11.4068717"><ele>87.85714285714286</ele><time>2026-05-01T07:17:39.441Z</time></trkpt><trkpt lat="44.4406433" lon="11.40696"><ele>87.42857142857143</ele><time>2026-05-01T07:17:40.442Z</time></trkpt><trkpt lat="44.4406117" lon="11.40705"><ele>87.0</ele><time>2026-05-01T07:17:41.442Z</time></trkpt><trkpt lat="44.4405783" lon="11.4071383"><ele>87.0</ele><time>2026-05-01T07:17:42.441Z</time></trkpt><trkpt lat="44.44055" lon="11.4072317"><ele>87.0</ele><time>2026-05-01T07:17:43.441Z</time></trkpt><trkpt lat="44.44052" lon="11.40732"><ele>87.0</ele><time>2026-05-01T07:17:44.441Z</time></trkpt><trkpt lat="44.4404917" lon="11.4074083"><ele>87.0</ele><time>2026-05-01T07:17:45.441Z</time></trkpt><trkpt lat="44.44046" lon="11.407495"><ele>87.0</ele><time>2026-05-01T07:17:46.441Z</time></trkpt><trkpt lat="44.4404283" lon="11.4075817"><ele>87.0</ele><time>2026-05-01T07:17:47.44Z</time></trkpt><trkpt lat="44.4403983" lon="11.4076633"><ele>87.0</ele><time>2026-05-01T07:17:48.442Z</time></trkpt><trkpt lat="44.44037" lon="11.4077433"><ele>87.0</ele><time>2026-05-01T07:17:49.443Z</time></trkpt><trkpt lat="44.44034" lon="11.4078283"><ele>87.0</ele><time>2026-05-01T07:17:50.441Z</time></trkpt><trkpt lat="44.4403133" lon="11.407915"><ele>87.0</ele><time>2026-05-01T07:17:51.441Z</time></trkpt><trkpt lat="44.440285" lon="11.4079967"><ele>87.0</ele><time>2026-05-01T07:17:52.442Z</time></trkpt><trkpt lat="44.4402567" lon="11.40808"><ele>87.0</ele><time>2026-05-01T07:17:53.442Z</time></trkpt><trkpt lat="44.44023" lon="11.408165"><ele>87.0</ele><time>2026-05-01T07:17:54.442Z</time></trkpt><trkpt lat="44.4402033" lon="11.4082517"><ele>87.0</ele><time>2026-05-01T07:17:55.443Z</time></trkpt><trkpt lat="44.440175" lon="11.4083367"><ele>87.0</ele><time>2026-05-01T07:17:56.44Z</time></trkpt><trkpt lat="44.4401417" lon="11.408415"><ele>87.0</ele><time>2026-05-01T07:17:57.441Z</time></trkpt><trkpt lat="44.440105" lon="11.4084883"><ele>87.0</ele><time>2026-05-01T07:17:58.442Z</time></trkpt><trkpt lat="44.440055" lon="11.4085517"><ele>87.0</ele><time>2026-05-01T07:17:59.442Z</time></trkpt><trkpt lat="44.439995" lon="11.4086017"><ele>87.0</ele><time>2026-05-01T07:18:00.442Z</time></trkpt><trkpt lat="44.4399283" lon="11.40863"><ele>87.0</ele><time>2026-05-01T07:18:01.442Z</time></trkpt><trkpt lat="44.4398517" lon="11.4086467"><ele>87.0</ele><time>2026-05-01T07:18:02.441Z</time></trkpt><trkpt lat="44.439775" lon="11.40865"><ele>87.0</ele><time>2026-05-01T07:18:03.442Z</time></trkpt><trkpt lat="44.439695" lon="11.40865"><ele>87.0</ele><time>2026-05-01T07:18:04.442Z</time></trkpt><trkpt lat="44.4396183" lon="11.4086433"><ele>87.0</ele><time>2026-05-01T07:18:05.441Z</time></trkpt><trkpt lat="44.439535" lon="11.4086267"><ele>87.0</ele><time>2026-05-01T07:18:06.44Z</time></trkpt><trkpt lat="44.439455" lon="11.4086167"><ele>87.0</ele><time>2026-05-01T07:18:07.442Z</time></trkpt><trkpt lat="44.439375" lon="11.4086067"><ele>87.0</ele><time>2026-05-01T07:18:08.442Z</time></trkpt><trkpt lat="44.4392967" lon="11.4085917"><ele>86.5</ele><time>2026-05-01T07:18:09.44Z</time></trkpt><trkpt lat="44.439215" lon="11.4085767"><ele>86.0</ele><time>2026-05-01T07:18:10.442Z</time></trkpt><trkpt lat="44.4391367" lon="11.4085583"><ele>85.5</ele><time>2026-05-01T07:18:11.441Z</time></trkpt><trkpt lat="44.4390583" lon="11.40854"><ele>85.0</ele><time>2026-05-01T07:18:12.442Z</time></trkpt><trkpt lat="44.43898" lon="11.408525"><ele>84.5</ele><time>2026-05-01T07:18:13.442Z</time></trkpt><trkpt lat="44.4389017" lon="11.4085067"><ele>84.0</ele><time>2026-05-01T07:18:14.442Z</time></trkpt><trkpt lat="44.4388233" lon="11.4084883"><ele>83.83333333333333</ele><time>2026-05-01T07:18:15.44Z</time></trkpt><trkpt lat="44.4387417" lon="11.4084683"><ele>83.66666666666667</ele><time>2026-05-01T07:18:16.445Z</time></trkpt><trkpt lat="44.4386617" lon="11.4084533"><ele>83.5</ele><time>2026-05-01T07:18:17.444Z</time></trkpt><trkpt lat="44.4385817" lon="11.40844"><ele>83.33333333333334</ele><time>2026-05-01T07:18:18.443Z</time></trkpt><trkpt lat="44.4385033" lon="11.408425"><ele>83.16666666666667</ele><time>2026-05-01T07:18:19.44Z</time></trkpt><trkpt lat="44.4384317" lon="11.4084017"><ele>83.0</ele><time>2026-05-01T07:18:20.444Z</time></trkpt><trkpt lat="44.4383567" lon="11.408375"><ele>83.0</ele><time>2026-05-01T07:18:21.443Z</time></trkpt><trkpt lat="44.43828" lon="11.4083567"><ele>83.0</ele><time>2026-05-01T07:18:22.443Z</time></trkpt><trkpt lat="44.4382033" lon="11.40834"><ele>83.0</ele><time>2026-05-01T07:18:23.444Z</time></trkpt><trkpt lat="44.4381233" lon="11.4083217"><ele>83.0</ele><time>2026-05-01T07:18:24.444Z</time></trkpt><trkpt lat="44.4380433" lon="11.4082983"><ele>83.0</ele><time>2026-05-01T07:18:25.441Z</time></trkpt><trkpt lat="44.4379617" lon="11.4082733"><ele>83.0</ele><time>2026-05-01T07:18:26.441Z</time></trkpt><trkpt lat="44.43788" lon="11.4082467"><ele>83.0</ele><time>2026-05-01T07:18:27.442Z</time></trkpt><trkpt lat="44.4378017" lon="11.4082133"><ele>83.0</ele><time>2026-05-01T07:18:28.441Z</time></trkpt><trkpt lat="44.4377217" lon="11.4081883"><ele>83.0</ele><time>2026-05-01T07:18:29.441Z</time></trkpt><trkpt lat="44.43764" lon="11.4081583"><ele>83.0</ele><time>2026-05-01T07:18:30.441Z</time></trkpt><trkpt lat="44.4375583" lon="11.4081233"><ele>83.0</ele><time>2026-05-01T07:18:31.442Z</time></trkpt><trkpt lat="44.437475" lon="11.40809"><ele>83.0</ele><time>2026-05-01T07:18:32.442Z</time></trkpt><trkpt lat="44.437395" lon="11.4080517"><ele>83.0</ele><time>2026-05-01T07:18:33.442Z</time></trkpt><trkpt lat="44.4373117" lon="11.4080083"><ele>83.0</ele><time>2026-05-01T07:18:34.441Z</time></trkpt><trkpt lat="44.437225" lon="11.407965"><ele>83.0</ele><time>2026-05-01T07:18:35.442Z</time></trkpt><trkpt lat="44.437145" lon="11.40792"><ele>83.0</ele><time>2026-05-01T07:18:36.442Z</time></trkpt><trkpt lat="44.437065" lon="11.4078717"><ele>83.0</ele><time>2026-05-01T07:18:37.443Z</time></trkpt><trkpt lat="44.4369883" lon="11.4078233"><ele>83.0</ele><time>2026-05-01T07:18:38.441Z</time></trkpt><trkpt lat="44.4369133" lon="11.4077733"><ele>82.5</ele><time>2026-05-01T07:18:39.442Z</time></trkpt><trkpt lat="44.43684" lon="11.40772"><ele>82.0</ele><time>2026-05-01T07:18:40.443Z</time></trkpt><trkpt lat="44.4367683" lon="11.40766"><ele>81.5</ele><time>2026-05-01T07:18:41.441Z</time></trkpt><trkpt lat="44.4367" lon="11.4075983"><ele>81.0</ele><time>2026-05-01T07:18:42.442Z</time></trkpt><trkpt lat="44.436635" lon="11.407535"><ele>80.5</ele><time>2026-05-01T07:18:43.443Z</time></trkpt><trkpt lat="44.436575" lon="11.4074683"><ele>80.0</ele><time>2026-05-01T07:18:44.442Z</time></trkpt><trkpt lat="44.4365183" lon="11.4073967"><ele>80.0</ele><time>2026-05-01T07:18:45.442Z</time></trkpt><trkpt lat="44.4364617" lon="11.407325"><ele>80.0</ele><time>2026-05-01T07:18:46.443Z</time></trkpt><trkpt lat="44.436405" lon="11.4072533"><ele>80.0</ele><time>2026-05-01T07:18:47.444Z</time></trkpt><trkpt lat="44.43635" lon="11.4071783"><ele>80.0</ele><time>2026-05-01T07:18:48.443Z</time></trkpt><trkpt lat="44.4362983" lon="11.407105"><ele>80.0</ele><time>2026-05-01T07:18:49.444Z</time></trkpt><trkpt lat="44.4362483" lon="11.40703"><ele>80.0</ele><time>2026-05-01T07:18:50.443Z</time></trkpt><trkpt lat="44.4362" lon="11.4069583"><ele>80.0</ele><time>2026-05-01T07:18:51.444Z</time></trkpt><trkpt lat="44.4361517" lon="11.4068917"><ele>80.42857142857143</ele><time>2026-05-01T07:18:52.441Z</time></trkpt><trkpt lat="44.436105" lon="11.4068217"><ele>80.85714285714286</ele><time>2026-05-01T07:18:53.442Z</time></trkpt><trkpt lat="44.4360583" lon="11.4067483"><ele>81.28571428571428</ele><time>2026-05-01T07:18:54.442Z</time></trkpt><trkpt lat="44.4360083" lon="11.4066733"><ele>81.71428571428572</ele><time>2026-05-01T07:18:55.441Z</time></trkpt><trkpt lat="44.43596" lon="11.4065933"><ele>82.14285714285715</ele><time>2026-05-01T07:18:56.442Z</time></trkpt><trkpt lat="44.4359117" lon="11.4065117"><ele>82.57142857142857</ele><time>2026-05-01T07:18:57.442Z</time></trkpt><trkpt lat="44.4358667" lon="11.4064283"><ele>83.0</ele><time>2026-05-01T07:18:58.442Z</time></trkpt><trkpt lat="44.4358167" lon="11.40635"><ele>83.28571428571428</ele><time>2026-05-01T07:18:59.441Z</time></trkpt><trkpt lat="44.4357683" lon="11.4062733"><ele>83.57142857142858</ele><time>2026-05-01T07:19:00.441Z</time></trkpt><trkpt lat="44.4357183" lon="11.4061983"><ele>83.85714285714286</ele><time>2026-05-01T07:19:01.443Z</time></trkpt><trkpt lat="44.43567" lon="11.4061233"><ele>84.14285714285714</ele><time>2026-05-01T07:19:02.441Z</time></trkpt><trkpt lat="44.4356233" lon="11.40605"><ele>84.42857142857142</ele><time>2026-05-01T07:19:03.441Z</time></trkpt><trkpt lat="44.4355783" lon="11.40598"><ele>84.71428571428572</ele><time>2026-05-01T07:19:04.442Z</time></trkpt><trkpt lat="44.4355333" lon="11.4059067"><ele>85.0</ele><time>2026-05-01T07:19:05.442Z</time></trkpt><trkpt lat="44.4354867" lon="11.4058383"><ele>85.57142857142857</ele><time>2026-05-01T07:19:06.442Z</time></trkpt><trkpt lat="44.435435" lon="11.4057767"><ele>86.14285714285714</ele><time>2026-05-01T07:19:07.441Z</time></trkpt><trkpt lat="44.435375" lon="11.4057217"><ele>86.71428571428571</ele><time>2026-05-01T07:19:08.441Z</time></trkpt><trkpt lat="44.4353183" lon="11.4056633"><ele>87.28571428571428</ele><time>2026-05-01T07:19:09.44Z</time></trkpt><trkpt lat="44.4352617" lon="11.4056083"><ele>87.85714285714286</ele><time>2026-05-01T07:19:10.441Z</time></trkpt><trkpt lat="44.4351983" lon="11.405555"><ele>88.42857142857142</ele><time>2026-05-01T07:19:11.442Z</time></trkpt><trkpt lat="44.435135" lon="11.4055133"><ele>89.0</ele><time>2026-05-01T07:19:12.442Z</time></trkpt><trkpt lat="44.4350733" lon="11.4054667"><ele>88.99999999999999</ele><time>2026-05-01T07:19:13.443Z</time></trkpt><trkpt lat="44.435005" lon="11.40543"><ele>89.0</ele><time>2026-05-01T07:19:14.441Z</time></trkpt><trkpt lat="44.43494" lon="11.4053967"><ele>89.0</ele><time>2026-05-01T07:19:15.441Z</time></trkpt><trkpt lat="44.4348733" lon="11.4053667"><ele>89.0</ele><time>2026-05-01T07:19:16.441Z</time></trkpt><trkpt lat="44.4348033" lon="11.405335"><ele>89.0</ele><time>2026-05-01T07:19:17.44Z</time></trkpt><trkpt lat="44.4347367" lon="11.405305"><ele>88.99999999999999</ele><time>2026-05-01T07:19:18.444Z</time></trkpt><trkpt lat="44.434675" lon="11.405275"><ele>89.0</ele><time>2026-05-01T07:19:19.444Z</time></trkpt><trkpt lat="44.43461" lon="11.40525"><ele>90.2</ele><time>2026-05-01T07:19:20.441Z</time></trkpt><trkpt lat="44.434495" lon="11.4051917"><ele>91.4</ele><time>2026-05-01T07:19:22.442Z</time></trkpt><trkpt lat="44.434385" lon="11.4051317"><ele>92.6</ele><time>2026-05-01T07:19:24.442Z</time></trkpt><trkpt lat="44.4342767" lon="11.40506"><ele>93.8</ele><time>2026-05-01T07:19:26.442Z</time></trkpt><trkpt lat="44.43422" lon="11.405015"><ele>95.0</ele><time>2026-05-01T07:19:27.441Z</time></trkpt><trkpt lat="44.434165" lon="11.404965"><ele>95.0</ele><time>2026-05-01T07:19:28.441Z</time></trkpt><trkpt lat="44.4341083" lon="11.404915"><ele>95.0</ele><time>2026-05-01T07:19:29.441Z</time></trkpt><trkpt lat="44.4340517" lon="11.4048717"><ele>95.0</ele><time>2026-05-01T07:19:30.442Z</time></trkpt><trkpt lat="44.4339933" lon="11.404835"><ele>95.0</ele><time>2026-05-01T07:19:31.442Z</time></trkpt><trkpt lat="44.4339383" lon="11.40479"><ele>95.0</ele><time>2026-05-01T07:19:32.442Z</time></trkpt><trkpt lat="44.433835" lon="11.4046983"><ele>95.0</ele><time>2026-05-01T07:19:34.442Z</time></trkpt><trkpt lat="44.433785" lon="11.4046433"><ele>95.0</ele><time>2026-05-01T07:19:35.442Z</time></trkpt><trkpt lat="44.43373" lon="11.404595"><ele>95.5</ele><time>2026-05-01T07:19:36.442Z</time></trkpt><trkpt lat="44.4336217" lon="11.4044917"><ele>96.0</ele><time>2026-05-01T07:19:38.441Z</time></trkpt><trkpt lat="44.4335633" lon="11.4044383"><ele>96.5</ele><time>2026-05-01T07:19:39.441Z</time></trkpt><trkpt lat="44.433505" lon="11.4043883"><ele>97.0</ele><time>2026-05-01T07:19:40.442Z</time></trkpt><trkpt lat="44.43345" lon="11.4043333"><ele>97.49999999999999</ele><time>2026-05-01T07:19:41.441Z</time></trkpt><trkpt lat="44.4333933" lon="11.4042833"><ele>98.0</ele><time>2026-05-01T07:19:42.441Z</time></trkpt><trkpt lat="44.43334" lon="11.4042317"><ele>98.0</ele><time>2026-05-01T07:19:43.441Z</time></trkpt><trkpt lat="44.4332867" lon="11.4041817"><ele>98.0</ele><time>2026-05-01T07:19:44.441Z</time></trkpt><trkpt lat="44.4332333" lon="11.404135"><ele>98.0</ele><time>2026-05-01T07:19:45.442Z</time></trkpt><trkpt lat="44.4331367" lon="11.4040367"><ele>98.0</ele><time>2026-05-01T07:19:47.441Z</time></trkpt><trkpt lat="44.4330367" lon="11.4039483"><ele>98.0</ele><time>2026-05-01T07:19:49.442Z</time></trkpt><trkpt lat="44.4329417" lon="11.4038467"><ele>96.25</ele><time>2026-05-01T07:19:51.442Z</time></trkpt><trkpt lat="44.432845" lon="11.4037567"><ele>94.5</ele><time>2026-05-01T07:19:53.442Z</time></trkpt><trkpt lat="44.432745" lon="11.4036867"><ele>92.75</ele><time>2026-05-01T07:19:55.442Z</time></trkpt><trkpt lat="44.43264" lon="11.40361"><ele>91.0</ele><time>2026-05-01T07:19:57.442Z</time></trkpt><trkpt lat="44.4325317" lon="11.403515"><ele>91.0</ele><time>2026-05-01T07:19:59.441Z</time></trkpt><trkpt lat="44.4324783" lon="11.4034617"><ele>91.0</ele><time>2026-05-01T07:20:00.444Z</time></trkpt><trkpt lat="44.4324267" lon="11.4034067"><ele>91.0</ele><time>2026-05-01T07:20:01.441Z</time></trkpt><trkpt lat="44.4323767" lon="11.40335"><ele>91.0</ele><time>2026-05-01T07:20:02.442Z</time></trkpt><trkpt lat="44.4323283" lon="11.4032933"><ele>91.0</ele><time>2026-05-01T07:20:03.441Z</time></trkpt><trkpt lat="44.4322783" lon="11.403235"><ele>91.0</ele><time>2026-05-01T07:20:04.442Z</time></trkpt><trkpt lat="44.4322283" lon="11.4031717"><ele>91.0</ele><time>2026-05-01T07:20:05.442Z</time></trkpt><trkpt lat="44.4321817" lon="11.4031083"><ele>91.14285714285714</ele><time>2026-05-01T07:20:06.442Z</time></trkpt><trkpt lat="44.4321333" lon="11.4030433"><ele>91.28571428571428</ele><time>2026-05-01T07:20:07.441Z</time></trkpt><trkpt lat="44.4320833" lon="11.4029767"><ele>91.42857142857143</ele><time>2026-05-01T07:20:08.442Z</time></trkpt><trkpt lat="44.4320333" lon="11.402905"><ele>91.57142857142857</ele><time>2026-05-01T07:20:09.442Z</time></trkpt><trkpt lat="44.43198" lon="11.4028267"><ele>91.71428571428571</ele><time>2026-05-01T07:20:10.441Z</time></trkpt><trkpt lat="44.4319233" lon="11.4027517"><ele>91.85714285714286</ele><time>2026-05-01T07:20:11.442Z</time></trkpt><trkpt lat="44.431865" lon="11.402685"><ele>92.0</ele><time>2026-05-01T07:20:12.444Z</time></trkpt><trkpt lat="44.4318033" lon="11.4026317"><ele>92.0</ele><time>2026-05-01T07:20:13.442Z</time></trkpt><trkpt lat="44.43174" lon="11.4025733"><ele>92.0</ele><time>2026-05-01T07:20:14.441Z</time></trkpt><trkpt lat="44.4316783" lon="11.4025167"><ele>92.0</ele><time>2026-05-01T07:20:15.442Z</time></trkpt><trkpt lat="44.431615" lon="11.4024617"><ele>92.0</ele><time>2026-05-01T07:20:16.441Z</time></trkpt><trkpt lat="44.4315517" lon="11.4024083"><ele>92.0</ele><time>2026-05-01T07:20:17.442Z</time></trkpt><trkpt lat="44.43149" lon="11.402355"><ele>92.0</ele><time>2026-05-01T07:20:18.441Z</time></trkpt><trkpt lat="44.43143" lon="11.402305"><ele>92.0</ele><time>2026-05-01T07:20:19.44Z</time></trkpt><trkpt lat="44.43137" lon="11.4022583"><ele>92.0</ele><time>2026-05-01T07:20:20.442Z</time></trkpt><trkpt lat="44.4313117" lon="11.4022117"><ele>92.0</ele><time>2026-05-01T07:20:21.442Z</time></trkpt><trkpt lat="44.4312533" lon="11.4021667"><ele>92.0</ele><time>2026-05-01T07:20:22.444Z</time></trkpt><trkpt lat="44.4311417" lon="11.40208"><ele>92.0</ele><time>2026-05-01T07:20:24.442Z</time></trkpt><trkpt lat="44.4310817" lon="11.4020333"><ele>92.0</ele><time>2026-05-01T07:20:25.441Z</time></trkpt><trkpt lat="44.43102" lon="11.4019883"><ele>92.0</ele><time>2026-05-01T07:20:26.441Z</time></trkpt><trkpt lat="44.4309567" lon="11.4019433"><ele>91.85714285714286</ele><time>2026-05-01T07:20:27.442Z</time></trkpt><trkpt lat="44.4308933" lon="11.4019017"><ele>91.71428571428571</ele><time>2026-05-01T07:20:28.442Z</time></trkpt><trkpt lat="44.43083" lon="11.4018567"><ele>91.57142857142857</ele><time>2026-05-01T07:20:29.44Z</time></trkpt><trkpt lat="44.4307667" lon="11.4018083"><ele>91.42857142857143</ele><time>2026-05-01T07:20:30.441Z</time></trkpt><trkpt lat="44.4307067" lon="11.401765"><ele>91.28571428571428</ele><time>2026-05-01T07:20:31.442Z</time></trkpt><trkpt lat="44.4306467" lon="11.4017117"><ele>91.14285714285714</ele><time>2026-05-01T07:20:32.442Z</time></trkpt><trkpt lat="44.430585" lon="11.40166"><ele>91.0</ele><time>2026-05-01T07:20:33.442Z</time></trkpt><trkpt lat="44.430525" lon="11.4016083"><ele>90.85714285714286</ele><time>2026-05-01T07:20:34.44Z</time></trkpt><trkpt lat="44.4304633" lon="11.401555"><ele>90.71428571428572</ele><time>2026-05-01T07:20:35.441Z</time></trkpt><trkpt lat="44.4304" lon="11.401505"><ele>90.57142857142857</ele><time>2026-05-01T07:20:36.442Z</time></trkpt><trkpt lat="44.4303367" lon="11.4014533"><ele>90.42857142857143</ele><time>2026-05-01T07:20:37.441Z</time></trkpt><trkpt lat="44.4302717" lon="11.4014067"><ele>90.28571428571429</ele><time>2026-05-01T07:20:38.442Z</time></trkpt><trkpt lat="44.4302083" lon="11.401355"><ele>90.14285714285714</ele><time>2026-05-01T07:20:39.441Z</time></trkpt><trkpt lat="44.4301483" lon="11.4013017"><ele>90.0</ele><time>2026-05-01T07:20:40.442Z</time></trkpt><trkpt lat="44.43009" lon="11.4012517"><ele>90.0</ele><time>2026-05-01T07:20:41.442Z</time></trkpt><trkpt lat="44.4300333" lon="11.4012"><ele>90.0</ele><time>2026-05-01T07:20:42.442Z</time></trkpt><trkpt lat="44.429975" lon="11.40115"><ele>90.0</ele><time>2026-05-01T07:20:43.441Z</time></trkpt><trkpt lat="44.4299183" lon="11.4011017"><ele>90.0</ele><time>2026-05-01T07:20:44.441Z</time></trkpt><trkpt lat="44.4298583" lon="11.4010483"><ele>90.0</ele><time>2026-05-01T07:20:45.442Z</time></trkpt><trkpt lat="44.4298033" lon="11.4009967"><ele>90.0</ele><time>2026-05-01T07:20:46.441Z</time></trkpt><trkpt lat="44.4297467" lon="11.400945"><ele>90.0</ele><time>2026-05-01T07:20:47.442Z</time></trkpt><trkpt lat="44.42969" lon="11.4008917"><ele>91.14285714285714</ele><time>2026-05-01T07:20:48.444Z</time></trkpt><trkpt lat="44.4296333" lon="11.40084"><ele>92.28571428571429</ele><time>2026-05-01T07:20:49.443Z</time></trkpt><trkpt lat="44.4295783" lon="11.4007817"><ele>93.42857142857143</ele><time>2026-05-01T07:20:50.444Z</time></trkpt><trkpt lat="44.429525" lon="11.4007217"><ele>94.57142857142857</ele><time>2026-05-01T07:20:51.442Z</time></trkpt><trkpt lat="44.42947" lon="11.4006667"><ele>95.71428571428572</ele><time>2026-05-01T07:20:52.442Z</time></trkpt><trkpt lat="44.4294117" lon="11.40061"><ele>96.85714285714286</ele><time>2026-05-01T07:20:53.44Z</time></trkpt><trkpt lat="44.4293483" lon="11.40056"><ele>98.0</ele><time>2026-05-01T07:20:54.444Z</time></trkpt><trkpt lat="44.42929" lon="11.4005067"><ele>96.60000000000001</ele><time>2026-05-01T07:20:55.44Z</time></trkpt><trkpt lat="44.4292333" lon="11.4004533"><ele>95.2</ele><time>2026-05-01T07:20:56.442Z</time></trkpt><trkpt lat="44.4291783" lon="11.400405"><ele>93.8</ele><time>2026-05-01T07:20:57.441Z</time></trkpt><trkpt lat="44.4290733" lon="11.4003117"><ele>92.4</ele><time>2026-05-01T07:20:59.442Z</time></trkpt><trkpt lat="44.4289633" lon="11.40022"><ele>91.0</ele><time>2026-05-01T07:21:01.443Z</time></trkpt><trkpt lat="44.4289033" lon="11.400175"><ele>91.0</ele><time>2026-05-01T07:21:02.44Z</time></trkpt><trkpt lat="44.4288467" lon="11.4001233"><ele>91.0</ele><time>2026-05-01T07:21:03.442Z</time></trkpt><trkpt lat="44.4287867" lon="11.4000717"><ele>91.0</ele><time>2026-05-01T07:21:04.441Z</time></trkpt><trkpt lat="44.4287267" lon="11.4000267"><ele>91.0</ele><time>2026-05-01T07:21:05.441Z</time></trkpt><trkpt lat="44.4286633" lon="11.3999867"><ele>91.0</ele><time>2026-05-01T07:21:06.442Z</time></trkpt><trkpt lat="44.4286017" lon="11.399955"><ele>91.0</ele><time>2026-05-01T07:21:07.442Z</time></trkpt><trkpt lat="44.42854" lon="11.3999183"><ele>91.0</ele><time>2026-05-01T07:21:08.442Z</time></trkpt><trkpt lat="44.428475" lon="11.3998833"><ele>91.0</ele><time>2026-05-01T07:21:09.442Z</time></trkpt><trkpt lat="44.42836" lon="11.3998533"><ele>91.0</ele><time>2026-05-01T07:21:11.441Z</time></trkpt><trkpt lat="44.4282567" lon="11.3998183"><ele>91.0</ele><time>2026-05-01T07:21:13.441Z</time></trkpt><trkpt lat="44.428155" lon="11.39978"><ele>91.0</ele><time>2026-05-01T07:21:15.441Z</time></trkpt><trkpt lat="44.4280533" lon="11.3997417"><ele>91.0</ele><time>2026-05-01T07:21:17.443Z</time></trkpt><trkpt lat="44.4279483" lon="11.3997"><ele>91.0</ele><time>2026-05-01T07:21:19.443Z</time></trkpt><trkpt lat="44.427845" lon="11.3996433"><ele>91.0</ele><time>2026-05-01T07:21:21.444Z</time></trkpt><trkpt lat="44.427745" lon="11.3995783"><ele>91.0</ele><time>2026-05-01T07:21:23.443Z</time></trkpt><trkpt lat="44.4276483" lon="11.3995183"><ele>91.0</ele><time>2026-05-01T07:21:25.441Z</time></trkpt><trkpt lat="44.427555" lon="11.399455"><ele>91.0</ele><time>2026-05-01T07:21:27.44Z</time></trkpt><trkpt lat="44.4274633" lon="11.3993917"><ele>91.0</ele><time>2026-05-01T07:21:29.442Z</time></trkpt><trkpt lat="44.4273717" lon="11.3993267"><ele>91.0</ele><time>2026-05-01T07:21:31.441Z</time></trkpt><trkpt lat="44.4272717" lon="11.3993067"><ele>91.0</ele><time>2026-05-01T07:21:33.442Z</time></trkpt><trkpt lat="44.4271733" lon="11.3993817"><ele>91.0</ele><time>2026-05-01T07:21:35.441Z</time></trkpt><trkpt lat="44.4270967" lon="11.3995267"><ele>91.0</ele><time>2026-05-01T07:21:37.441Z</time></trkpt><trkpt lat="44.4270683" lon="11.3996117"><ele>91.14285714285714</ele><time>2026-05-01T07:21:38.442Z</time></trkpt><trkpt lat="44.42704" lon="11.3996967"><ele>91.28571428571428</ele><time>2026-05-01T07:21:39.442Z</time></trkpt><trkpt lat="44.4270133" lon="11.39978"><ele>91.42857142857143</ele><time>2026-05-01T07:21:40.441Z</time></trkpt><trkpt lat="44.4269783" lon="11.3998617"><ele>91.57142857142857</ele><time>2026-05-01T07:21:41.441Z</time></trkpt><trkpt lat="44.4269383" lon="11.399945"><ele>91.71428571428571</ele><time>2026-05-01T07:21:42.441Z</time></trkpt><trkpt lat="44.426895" lon="11.4000267"><ele>91.85714285714286</ele><time>2026-05-01T07:21:43.442Z</time></trkpt><trkpt lat="44.42685" lon="11.4001033"><ele>92.0</ele><time>2026-05-01T07:21:44.442Z</time></trkpt><trkpt lat="44.4268033" lon="11.4001833"><ele>92.0</ele><time>2026-05-01T07:21:45.442Z</time></trkpt><trkpt lat="44.426755" lon="11.40025"><ele>92.0</ele><time>2026-05-01T07:21:46.444Z</time></trkpt><trkpt lat="44.4267033" lon="11.4003133"><ele>92.0</ele><time>2026-05-01T07:21:47.444Z</time></trkpt><trkpt lat="44.4266483" lon="11.400375"><ele>92.0</ele><time>2026-05-01T07:21:48.44Z</time></trkpt><trkpt lat="44.42659" lon="11.4004367"><ele>92.0</ele><time>2026-05-01T07:21:49.44Z</time></trkpt><trkpt lat="44.426525" lon="11.4004967"><ele>92.0</ele><time>2026-05-01T07:21:50.442Z</time></trkpt><trkpt lat="44.42646" lon="11.40055"><ele>92.0</ele><time>2026-05-01T07:21:51.442Z</time></trkpt><trkpt lat="44.4263933" lon="11.4006033"><ele>92.14285714285715</ele><time>2026-05-01T07:21:52.44Z</time></trkpt><trkpt lat="44.4263233" lon="11.4006467"><ele>92.28571428571428</ele><time>2026-05-01T07:21:53.442Z</time></trkpt><trkpt lat="44.426255" lon="11.400685"><ele>92.42857142857143</ele><time>2026-05-01T07:21:54.441Z</time></trkpt><trkpt lat="44.4261833" lon="11.4007217"><ele>92.57142857142858</ele><time>2026-05-01T07:21:55.441Z</time></trkpt><trkpt lat="44.42611" lon="11.4007533"><ele>92.71428571428572</ele><time>2026-05-01T07:21:56.442Z</time></trkpt><trkpt lat="44.42604" lon="11.4007783"><ele>92.85714285714286</ele><time>2026-05-01T07:21:57.442Z</time></trkpt><trkpt lat="44.42597" lon="11.4008017"><ele>93.0</ele><time>2026-05-01T07:21:58.442Z</time></trkpt><trkpt lat="44.4258967" lon="11.4008167"><ele>92.85714285714286</ele><time>2026-05-01T07:21:59.442Z</time></trkpt><trkpt lat="44.425825" lon="11.400825"><ele>92.71428571428572</ele><time>2026-05-01T07:22:00.442Z</time></trkpt><trkpt lat="44.4257517" lon="11.40083"><ele>92.57142857142858</ele><time>2026-05-01T07:22:01.442Z</time></trkpt><trkpt lat="44.42568" lon="11.400825"><ele>92.42857142857143</ele><time>2026-05-01T07:22:02.441Z</time></trkpt><trkpt lat="44.4256083" lon="11.40082"><ele>92.28571428571428</ele><time>2026-05-01T07:22:03.442Z</time></trkpt><trkpt lat="44.4255367" lon="11.4008133"><ele>92.14285714285715</ele><time>2026-05-01T07:22:04.442Z</time></trkpt><trkpt lat="44.4254667" lon="11.4007933"><ele>92.0</ele><time>2026-05-01T07:22:05.442Z</time></trkpt><trkpt lat="44.4254" lon="11.4007667"><ele>92.0</ele><time>2026-05-01T07:22:06.443Z</time></trkpt><trkpt lat="44.4253317" lon="11.400745"><ele>92.0</ele><time>2026-05-01T07:22:07.442Z</time></trkpt><trkpt lat="44.4252633" lon="11.400725"><ele>92.0</ele><time>2026-05-01T07:22:08.442Z</time></trkpt><trkpt lat="44.4251983" lon="11.4007033"><ele>92.0</ele><time>2026-05-01T07:22:09.441Z</time></trkpt><trkpt lat="44.425135" lon="11.4006783"><ele>92.0</ele><time>2026-05-01T07:22:10.441Z</time></trkpt><trkpt lat="44.4250733" lon="11.400655"><ele>92.0</ele><time>2026-05-01T07:22:11.441Z</time></trkpt><trkpt lat="44.4250117" lon="11.4006333"><ele>92.0</ele><time>2026-05-01T07:22:12.441Z</time></trkpt><trkpt lat="44.4248933" lon="11.4005883"><ele>92.0</ele><time>2026-05-01T07:22:14.442Z</time></trkpt><trkpt lat="44.4247683" lon="11.400545"><ele>92.0</ele><time>2026-05-01T07:22:16.443Z</time></trkpt><trkpt lat="44.424705" lon="11.4005233"><ele>92.0</ele><time>2026-05-01T07:22:17.442Z</time></trkpt><trkpt lat="44.4245833" lon="11.4004883"><ele>92.0</ele><time>2026-05-01T07:22:19.442Z</time></trkpt><trkpt lat="44.42452" lon="11.4004683"><ele>92.0</ele><time>2026-05-01T07:22:20.442Z</time></trkpt><trkpt lat="44.4244" lon="11.40043"><ele>92.0</ele><time>2026-05-01T07:22:22.441Z</time></trkpt><trkpt lat="44.42428" lon="11.4003817"><ele>92.0</ele><time>2026-05-01T07:22:24.44Z</time></trkpt><trkpt lat="44.4241667" lon="11.40032"><ele>92.0</ele><time>2026-05-01T07:22:26.441Z</time></trkpt><trkpt lat="44.4240567" lon="11.4002583"><ele>92.0</ele><time>2026-05-01T07:22:28.442Z</time></trkpt><trkpt lat="44.4239467" lon="11.400185"><ele>92.0</ele><time>2026-05-01T07:22:30.441Z</time></trkpt><trkpt lat="44.4238917" lon="11.4001417"><ele>92.0</ele><time>2026-05-01T07:22:31.441Z</time></trkpt><trkpt lat="44.42378" lon="11.4000533"><ele>92.0</ele><time>2026-05-01T07:22:33.442Z</time></trkpt><trkpt lat="44.4237233" lon="11.400005"><ele>92.0</ele><time>2026-05-01T07:22:34.441Z</time></trkpt><trkpt lat="44.4236167" lon="11.3999083"><ele>92.0</ele><time>2026-05-01T07:22:36.441Z</time></trkpt><trkpt lat="44.4235167" lon="11.399815"><ele>92.75</ele><time>2026-05-01T07:22:38.442Z</time></trkpt><trkpt lat="44.4234133" lon="11.39972"><ele>93.5</ele><time>2026-05-01T07:22:40.442Z</time></trkpt><trkpt lat="44.4233133" lon="11.3996233"><ele>94.25</ele><time>2026-05-01T07:22:42.441Z</time></trkpt><trkpt lat="44.423215" lon="11.3995283"><ele>95.0</ele><time>2026-05-01T07:22:44.441Z</time></trkpt><trkpt lat="44.4231217" lon="11.399435"><ele>95.0</ele><time>2026-05-01T07:22:46.442Z</time></trkpt><trkpt lat="44.4230283" lon="11.39933"><ele>95.0</ele><time>2026-05-01T07:22:48.442Z</time></trkpt><trkpt lat="44.4229867" lon="11.3992633"><ele>95.0</ele><time>2026-05-01T07:22:49.441Z</time></trkpt><trkpt lat="44.4229117" lon="11.39913"><ele>95.0</ele><time>2026-05-01T07:22:51.442Z</time></trkpt><trkpt lat="44.422855" lon="11.3989933"><ele>95.0</ele><time>2026-05-01T07:22:53.442Z</time></trkpt><trkpt lat="44.42281" lon="11.39885"><ele>96.25</ele><time>2026-05-01T07:22:55.442Z</time></trkpt><trkpt lat="44.4227733" lon="11.398695"><ele>97.5</ele><time>2026-05-01T07:22:57.442Z</time></trkpt><trkpt lat="44.4227333" lon="11.3985367"><ele>98.75</ele><time>2026-05-01T07:22:59.441Z</time></trkpt><trkpt lat="44.422705" lon="11.3983717"><ele>100.0</ele><time>2026-05-01T07:23:01.442Z</time></trkpt><trkpt lat="44.4226783" lon="11.39822"><ele>100.0</ele><time>2026-05-01T07:23:03.44Z</time></trkpt><trkpt lat="44.4226483" lon="11.39808"><ele>100.0</ele><time>2026-05-01T07:23:05.441Z</time></trkpt><trkpt lat="44.42262" lon="11.3979433"><ele>100.0</ele><time>2026-05-01T07:23:07.442Z</time></trkpt><trkpt lat="44.422595" lon="11.3978033"><ele>100.0</ele><time>2026-05-01T07:23:09.44Z</time></trkpt><trkpt lat="44.4225683" lon="11.39768"><ele>100.0</ele><time>2026-05-01T07:23:11.441Z</time></trkpt><trkpt lat="44.4225533" lon="11.3975417"><ele>100.2</ele><time>2026-05-01T07:23:13.441Z</time></trkpt><trkpt lat="44.4225333" lon="11.397405"><ele>100.4</ele><time>2026-05-01T07:23:15.44Z</time></trkpt><trkpt lat="44.42251" lon="11.3972833"><ele>100.6</ele><time>2026-05-01T07:23:17.443Z</time></trkpt><trkpt lat="44.4224717" lon="11.39716"><ele>100.8</ele><time>2026-05-01T07:23:19.442Z</time></trkpt><trkpt lat="44.4224083" lon="11.3970383"><ele>101.0</ele><time>2026-05-01T07:23:21.442Z</time></trkpt><trkpt lat="44.4223317" lon="11.3969017"><ele>101.0</ele><time>2026-05-01T07:23:23.442Z</time></trkpt><trkpt lat="44.4222967" lon="11.39682"><ele>101.0</ele><time>2026-05-01T07:23:24.442Z</time></trkpt><trkpt lat="44.4222583" lon="11.39674"><ele>101.0</ele><time>2026-05-01T07:23:25.441Z</time></trkpt><trkpt lat="44.42222" lon="11.3966633"><ele>101.0</ele><time>2026-05-01T07:23:26.442Z</time></trkpt><trkpt lat="44.422175" lon="11.3965883"><ele>101.0</ele><time>2026-05-01T07:23:27.442Z</time></trkpt><trkpt lat="44.4221283" lon="11.3965167"><ele>101.0</ele><time>2026-05-01T07:23:28.442Z</time></trkpt><trkpt lat="44.4220783" lon="11.3964483"><ele>101.0</ele><time>2026-05-01T07:23:29.442Z</time></trkpt><trkpt lat="44.4220233" lon="11.3963817"><ele>102.0</ele><time>2026-05-01T07:23:30.441Z</time></trkpt><trkpt lat="44.421965" lon="11.3963183"><ele>103.0</ele><time>2026-05-01T07:23:31.442Z</time></trkpt><trkpt lat="44.4219083" lon="11.3962533"><ele>104.0</ele><time>2026-05-01T07:23:32.441Z</time></trkpt><trkpt lat="44.4218483" lon="11.3961867"><ele>105.0</ele><time>2026-05-01T07:23:33.442Z</time></trkpt><trkpt lat="44.42179" lon="11.39612"><ele>106.0</ele><time>2026-05-01T07:23:34.441Z</time></trkpt><trkpt lat="44.4217283" lon="11.3960617"><ele>107.0</ele><time>2026-05-01T07:23:35.441Z</time></trkpt><trkpt lat="44.4216633" lon="11.3960067"><ele>108.0</ele><time>2026-05-01T07:23:36.442Z</time></trkpt><trkpt lat="44.4215967" lon="11.395955"><ele>108.0</ele><time>2026-05-01T07:23:37.441Z</time></trkpt><trkpt lat="44.4215283" lon="11.395915"><ele>108.0</ele><time>2026-05-01T07:23:38.441Z</time></trkpt><trkpt lat="44.421455" lon="11.3958717"><ele>108.0</ele><time>2026-05-01T07:23:39.441Z</time></trkpt><trkpt lat="44.4213833" lon="11.39583"><ele>108.0</ele><time>2026-05-01T07:23:40.442Z</time></trkpt><trkpt lat="44.4213167" lon="11.3957767"><ele>108.0</ele><time>2026-05-01T07:23:41.442Z</time></trkpt><trkpt lat="44.4212517" lon="11.3957217"><ele>108.0</ele><time>2026-05-01T07:23:42.443Z</time></trkpt><trkpt lat="44.4211867" lon="11.395675"><ele>107.71428571428571</ele><time>2026-05-01T07:23:43.442Z</time></trkpt><trkpt lat="44.4211283" lon="11.3956183"><ele>107.42857142857142</ele><time>2026-05-01T07:23:44.442Z</time></trkpt><trkpt lat="44.4210683" lon="11.39557"><ele>107.14285714285714</ele><time>2026-05-01T07:23:45.442Z</time></trkpt><trkpt lat="44.42101" lon="11.3955183"><ele>106.85714285714286</ele><time>2026-05-01T07:23:46.442Z</time></trkpt><trkpt lat="44.4209533" lon="11.395465"><ele>106.57142857142857</ele><time>2026-05-01T07:23:47.44Z</time></trkpt><trkpt lat="44.4208967" lon="11.395415"><ele>106.28571428571429</ele><time>2026-05-01T07:23:48.441Z</time></trkpt><trkpt lat="44.4208417" lon="11.39536"><ele>106.0</ele><time>2026-05-01T07:23:49.441Z</time></trkpt><trkpt lat="44.4207867" lon="11.395305"><ele>106.0</ele><time>2026-05-01T07:23:50.442Z</time></trkpt><trkpt lat="44.4207367" lon="11.3952433"><ele>106.0</ele><time>2026-05-01T07:23:51.44Z</time></trkpt><trkpt lat="44.4206867" lon="11.395175"><ele>106.0</ele><time>2026-05-01T07:23:52.442Z</time></trkpt><trkpt lat="44.4206383" lon="11.3951083"><ele>106.0</ele><time>2026-05-01T07:23:53.44Z</time></trkpt><trkpt lat="44.4205883" lon="11.3950417"><ele>106.0</ele><time>2026-05-01T07:23:54.441Z</time></trkpt><trkpt lat="44.4205383" lon="11.394975"><ele>106.0</ele><time>2026-05-01T07:23:55.442Z</time></trkpt><trkpt lat="44.4204833" lon="11.3949117"><ele>106.0</ele><time>2026-05-01T07:23:56.441Z</time></trkpt><trkpt lat="44.4204233" lon="11.3948617"><ele>105.57142857142857</ele><time>2026-05-01T07:23:57.441Z</time></trkpt><trkpt lat="44.4203567" lon="11.3948133"><ele>105.14285714285714</ele><time>2026-05-01T07:23:58.441Z</time></trkpt><trkpt lat="44.42029" lon="11.3947783"><ele>104.71428571428571</ele><time>2026-05-01T07:23:59.442Z</time></trkpt><trkpt lat="44.42022" lon="11.3947533"><ele>104.28571428571428</ele><time>2026-05-01T07:24:00.441Z</time></trkpt><trkpt lat="44.4201533" lon="11.3947217"><ele>103.85714285714286</ele><time>2026-05-01T07:24:01.441Z</time></trkpt><trkpt lat="44.420085" lon="11.394695"><ele>103.42857142857142</ele><time>2026-05-01T07:24:02.442Z</time></trkpt><trkpt lat="44.4200167" lon="11.3946783"><ele>103.0</ele><time>2026-05-01T07:24:03.441Z</time></trkpt><trkpt lat="44.4199483" lon="11.3946617"><ele>103.71428571428571</ele><time>2026-05-01T07:24:04.441Z</time></trkpt><trkpt lat="44.4198783" lon="11.3946517"><ele>104.42857142857143</ele><time>2026-05-01T07:24:05.44Z</time></trkpt><trkpt lat="44.41981" lon="11.3946433"><ele>105.14285714285714</ele><time>2026-05-01T07:24:06.441Z</time></trkpt><trkpt lat="44.4197417" lon="11.394635"><ele>105.85714285714286</ele><time>2026-05-01T07:24:07.442Z</time></trkpt><trkpt lat="44.419675" lon="11.39463"><ele>106.57142857142857</ele><time>2026-05-01T07:24:08.442Z</time></trkpt><trkpt lat="44.4196067" lon="11.3946267"><ele>107.28571428571428</ele><time>2026-05-01T07:24:09.442Z</time></trkpt><trkpt lat="44.4195383" lon="11.394625"><ele>108.0</ele><time>2026-05-01T07:24:10.441Z</time></trkpt><trkpt lat="44.41947" lon="11.39462"><ele>108.0</ele><time>2026-05-01T07:24:11.442Z</time></trkpt><trkpt lat="44.4194017" lon="11.3946133"><ele>108.0</ele><time>2026-05-01T07:24:12.442Z</time></trkpt><trkpt lat="44.4193333" lon="11.3945983"><ele>108.0</ele><time>2026-05-01T07:24:13.442Z</time></trkpt><trkpt lat="44.4192667" lon="11.3945733"><ele>108.0</ele><time>2026-05-01T07:24:14.441Z</time></trkpt><trkpt lat="44.4192" lon="11.3945417"><ele>108.0</ele><time>2026-05-01T07:24:15.441Z</time></trkpt><trkpt lat="44.4191333" lon="11.3945067"><ele>108.0</ele><time>2026-05-01T07:24:16.443Z</time></trkpt><trkpt lat="44.41907" lon="11.39447"><ele>108.0</ele><time>2026-05-01T07:24:17.443Z</time></trkpt><trkpt lat="44.419005" lon="11.3944283"><ele>108.0</ele><time>2026-05-01T07:24:18.441Z</time></trkpt><trkpt lat="44.41894" lon="11.3943833"><ele>108.0</ele><time>2026-05-01T07:24:19.441Z</time></trkpt><trkpt lat="44.4188767" lon="11.394335"><ele>108.0</ele><time>2026-05-01T07:24:20.441Z</time></trkpt><trkpt lat="44.418815" lon="11.3942867"><ele>108.0</ele><time>2026-05-01T07:24:21.441Z</time></trkpt><trkpt lat="44.418755" lon="11.3942367"><ele>108.0</ele><time>2026-05-01T07:24:22.442Z</time></trkpt><trkpt lat="44.418695" lon="11.3941917"><ele>108.0</ele><time>2026-05-01T07:24:23.441Z</time></trkpt><trkpt lat="44.4186367" lon="11.3941383"><ele>108.0</ele><time>2026-05-01T07:24:24.441Z</time></trkpt><trkpt lat="44.4185817" lon="11.3940833"><ele>107.5</ele><time>2026-05-01T07:24:25.441Z</time></trkpt><trkpt lat="44.4185267" lon="11.3940333"><ele>107.0</ele><time>2026-05-01T07:24:26.442Z</time></trkpt><trkpt lat="44.41847" lon="11.393985"><ele>106.5</ele><time>2026-05-01T07:24:27.442Z</time></trkpt><trkpt lat="44.4184167" lon="11.3939367"><ele>106.0</ele><time>2026-05-01T07:24:28.441Z</time></trkpt><trkpt lat="44.4183267" lon="11.3938183"><ele>105.5</ele><time>2026-05-01T07:24:30.439Z</time></trkpt><trkpt lat="44.41824" lon="11.393695"><ele>105.0</ele><time>2026-05-01T07:24:32.442Z</time></trkpt><trkpt lat="44.4181567" lon="11.393575"><ele>105.2</ele><time>2026-05-01T07:24:34.44Z</time></trkpt><trkpt lat="44.4180733" lon="11.3934633"><ele>105.4</ele><time>2026-05-01T07:24:36.441Z</time></trkpt><trkpt lat="44.4179867" lon="11.39336"><ele>105.6</ele><time>2026-05-01T07:24:38.442Z</time></trkpt><trkpt lat="44.417895" lon="11.3932717"><ele>105.8</ele><time>2026-05-01T07:24:40.441Z</time></trkpt><trkpt lat="44.417805" lon="11.3931933"><ele>106.0</ele><time>2026-05-01T07:24:42.442Z</time></trkpt><trkpt lat="44.4177283" lon="11.3931183"><ele>106.00000000000001</ele><time>2026-05-01T07:24:44.442Z</time></trkpt><trkpt lat="44.41765" lon="11.393045"><ele>106.0</ele><time>2026-05-01T07:24:46.441Z</time></trkpt><trkpt lat="44.4175667" lon="11.393005"><ele>106.0</ele><time>2026-05-01T07:24:48.442Z</time></trkpt><trkpt lat="44.4175017" lon="11.3930217"><ele>106.0</ele><time>2026-05-01T07:24:50.442Z</time></trkpt><trkpt lat="44.4174483" lon="11.3930717"><ele>106.00000000000001</ele><time>2026-05-01T07:24:52.441Z</time></trkpt><trkpt lat="44.4174367" lon="11.3931783"><ele>106.0</ele><time>2026-05-01T07:24:57.442Z</time></trkpt><trkpt lat="44.4174167" lon="11.3932717"><ele>106.00000000000001</ele><time>2026-05-01T07:25:00.441Z</time></trkpt><trkpt lat="44.417405" lon="11.3933867"><ele>106.0</ele><time>2026-05-01T07:25:04.442Z</time></trkpt><trkpt lat="44.4174" lon="11.3935083"><ele>106.0</ele><time>2026-05-01T07:25:07.442Z</time></trkpt><trkpt lat="44.41744" lon="11.3936083"><ele>106.0</ele><time>2026-05-01T07:25:10.441Z</time></trkpt><trkpt lat="44.4175117" lon="11.39368"><ele>106.00000000000001</ele><time>2026-05-01T07:25:13.443Z</time></trkpt><trkpt lat="44.4175667" lon="11.393725"><ele>106.0</ele><time>2026-05-01T07:25:15.439Z</time></trkpt><trkpt lat="44.4176067" lon="11.3938133"><ele>107.14285714285714</ele><time>2026-05-01T07:25:18.44Z</time></trkpt><trkpt lat="44.41765" lon="11.3938867"><ele>108.28571428571428</ele><time>2026-05-01T07:25:21.44Z</time></trkpt><trkpt lat="44.41771" lon="11.3939483"><ele>109.42857142857142</ele><time>2026-05-01T07:25:24.438Z</time></trkpt><trkpt lat="44.417755" lon="11.394025"><ele>110.57142857142857</ele><time>2026-05-01T07:25:27.441Z</time></trkpt><trkpt lat="44.4177867" lon="11.3941033"><ele>111.7142857142857</ele><time>2026-05-01T07:25:30.442Z</time></trkpt><trkpt lat="44.4177817" lon="11.394195"><ele>112.85714285714285</ele><time>2026-05-01T07:25:33.44Z</time></trkpt><trkpt lat="44.4177133" lon="11.3942067"><ele>114.0</ele><time>2026-05-01T07:25:37.441Z</time></trkpt><trkpt lat="44.4176633" lon="11.3941467"><ele>114.0</ele><time>2026-05-01T07:25:41.44Z</time></trkpt><trkpt lat="44.4176" lon="11.3941117"><ele>113.99999999999999</ele><time>2026-05-01T07:25:45.44Z</time></trkpt><trkpt lat="44.4175333" lon="11.39409"><ele>114.0</ele><time>2026-05-01T07:25:49.442Z</time></trkpt><trkpt lat="44.4174717" lon="11.3940717"><ele>114.0</ele><time>2026-05-01T07:25:53.443Z</time></trkpt><trkpt lat="44.4173967" lon="11.3940567"><ele>113.99999999999999</ele><time>2026-05-01T07:25:58.441Z</time></trkpt><trkpt lat="44.417325" lon="11.3940733"><ele>114.0</ele><time>2026-05-01T07:26:02.442Z</time></trkpt><trkpt lat="44.417255" lon="11.3940717"><ele>114.0</ele><time>2026-05-01T07:26:07.442Z</time></trkpt><trkpt lat="44.4171967" lon="11.3941167"><ele>114.0</ele><time>2026-05-01T07:26:11.44Z</time></trkpt><trkpt lat="44.4172167" lon="11.3942117"><ele>113.99999999999999</ele><time>2026-05-01T07:26:17.443Z</time></trkpt><trkpt lat="44.4172633" lon="11.394285"><ele>114.0</ele><time>2026-05-01T07:26:22.441Z</time></trkpt><trkpt lat="44.4173083" lon="11.39436"><ele>114.0</ele><time>2026-05-01T07:26:27.441Z</time></trkpt><trkpt lat="44.41736" lon="11.3944433"><ele>113.99999999999999</ele><time>2026-05-01T07:26:32.442Z</time></trkpt><trkpt lat="44.4173783" lon="11.3945417"><ele>114.0</ele><time>2026-05-01T07:26:37.442Z</time></trkpt><trkpt lat="44.4173667" lon="11.3946367"><ele>114.0</ele><time>2026-05-01T07:26:42.441Z</time></trkpt><trkpt lat="44.41731" lon="11.3946867"><ele>114.0</ele><time>2026-05-01T07:26:47.441Z</time></trkpt><trkpt lat="44.4172417" lon="11.394675"><ele>113.99999999999999</ele><time>2026-05-01T07:26:51.442Z</time></trkpt><trkpt lat="44.4171667" lon="11.394635"><ele>114.0</ele><time>2026-05-01T07:26:56.44Z</time></trkpt><trkpt lat="44.4170983" lon="11.3946067"><ele>114.0</ele><time>2026-05-01T07:27:00.441Z</time></trkpt><trkpt lat="44.4170367" lon="11.3945833"><ele>113.99999999999999</ele><time>2026-05-01T07:27:04.441Z</time></trkpt><trkpt lat="44.4169633" lon="11.394595"><ele>114.0</ele><time>2026-05-01T07:27:08.441Z</time></trkpt><trkpt lat="44.4168967" lon="11.3945583"><ele>114.0</ele><time>2026-05-01T07:27:13.441Z</time></trkpt><trkpt lat="44.4168233" lon="11.3945333"><ele>116.28571428571428</ele><time>2026-05-01T07:27:19.44Z</time></trkpt><trkpt lat="44.416755" lon="11.3945133"><ele>118.57142857142856</ele><time>2026-05-01T07:27:24.441Z</time></trkpt><trkpt lat="44.4166783" lon="11.3945067"><ele>120.85714285714286</ele><time>2026-05-01T07:27:29.44Z</time></trkpt><trkpt lat="44.4166" lon="11.3944833"><ele>123.14285714285714</ele><time>2026-05-01T07:27:34.441Z</time></trkpt><trkpt lat="44.4165317" lon="11.3944683"><ele>125.42857142857143</ele><time>2026-05-01T07:27:38.441Z</time></trkpt><trkpt lat="44.4164667" lon="11.3944633"><ele>127.71428571428572</ele><time>2026-05-01T07:27:42.441Z</time></trkpt><trkpt lat="44.4163983" lon="11.3944567"><ele>130.0</ele><time>2026-05-01T07:27:46.442Z</time></trkpt><trkpt lat="44.4163367" lon="11.3944367"><ele>132.14285714285717</ele><time>2026-05-01T07:27:50.441Z</time></trkpt><trkpt lat="44.416265" lon="11.3944167"><ele>134.28571428571428</ele><time>2026-05-01T07:27:56.44Z</time></trkpt><trkpt lat="44.4161883" lon="11.3944067"><ele>136.42857142857144</ele><time>2026-05-01T07:28:02.442Z</time></trkpt><trkpt lat="44.4161867" lon="11.3945083"><ele>138.57142857142858</ele><time>2026-05-01T07:29:46.442Z</time></trkpt><trkpt lat="44.4162183" lon="11.3946033"><ele>140.71428571428572</ele><time>2026-05-01T07:29:50.442Z</time></trkpt><trkpt lat="44.4162633" lon="11.394675"><ele>142.85714285714286</ele><time>2026-05-01T07:29:54.441Z</time></trkpt><trkpt lat="44.416315" lon="11.3947583"><ele>145.0</ele><time>2026-05-01T07:29:59.441Z</time></trkpt><trkpt lat="44.4163717" lon="11.394835"><ele>145.0</ele><time>2026-05-01T07:30:04.442Z</time></trkpt><trkpt lat="44.4164183" lon="11.394895"><ele>145.0</ele><time>2026-05-01T07:30:08.443Z</time></trkpt><trkpt lat="44.4164633" lon="11.39496"><ele>145.0</ele><time>2026-05-01T07:30:12.441Z</time></trkpt><trkpt lat="44.41652" lon="11.3950367"><ele>145.0</ele><time>2026-05-01T07:30:17.442Z</time></trkpt><trkpt lat="44.4165683" lon="11.3951067"><ele>145.0</ele><time>2026-05-01T07:30:21.442Z</time></trkpt><trkpt lat="44.4166183" lon="11.3951767"><ele>145.0</ele><time>2026-05-01T07:30:25.441Z</time></trkpt><trkpt lat="44.4166767" lon="11.3952567"><ele>145.0</ele><time>2026-05-01T07:30:29.441Z</time></trkpt><trkpt lat="44.4167083" lon="11.395355"><ele>145.0</ele><time>2026-05-01T07:30:33.44Z</time></trkpt><trkpt lat="44.4167517" lon="11.3954333"><ele>145.0</ele><time>2026-05-01T07:30:37.442Z</time></trkpt><trkpt lat="44.416805" lon="11.3955017"><ele>145.0</ele><time>2026-05-01T07:30:41.441Z</time></trkpt><trkpt lat="44.4168633" lon="11.39555"><ele>145.0</ele><time>2026-05-01T07:30:45.442Z</time></trkpt><trkpt lat="44.41692" lon="11.3956167"><ele>145.0</ele><time>2026-05-01T07:30:50.442Z</time></trkpt><trkpt lat="44.4169817" lon="11.395675"><ele>145.0</ele><time>2026-05-01T07:30:55.44Z</time></trkpt><trkpt lat="44.41703" lon="11.395745"><ele>145.0</ele><time>2026-05-01T07:30:59.441Z</time></trkpt><trkpt lat="44.4170783" lon="11.3958283"><ele>145.14285714285714</ele><time>2026-05-01T07:31:03.441Z</time></trkpt><trkpt lat="44.4171233" lon="11.3959"><ele>145.2857142857143</ele><time>2026-05-01T07:31:06.442Z</time></trkpt><trkpt lat="44.417165" lon="11.395975"><ele>145.42857142857144</ele><time>2026-05-01T07:31:09.441Z</time></trkpt><trkpt lat="44.417205" lon="11.3960533"><ele>145.57142857142858</ele><time>2026-05-01T07:31:12.443Z</time></trkpt><trkpt lat="44.4172533" lon="11.39613"><ele>145.71428571428572</ele><time>2026-05-01T07:31:15.44Z</time></trkpt><trkpt lat="44.41731" lon="11.396185"><ele>145.85714285714286</ele><time>2026-05-01T07:31:18.443Z</time></trkpt><trkpt lat="44.41738" lon="11.3962367"><ele>146.0</ele><time>2026-05-01T07:31:21.442Z</time></trkpt><trkpt lat="44.4174367" lon="11.396295"><ele>148.83333333333331</ele><time>2026-05-01T07:31:24.442Z</time></trkpt><trkpt lat="44.4174917" lon="11.39638"><ele>151.66666666666666</ele><time>2026-05-01T07:31:27.44Z</time></trkpt><trkpt lat="44.417535" lon="11.396485"><ele>154.5</ele><time>2026-05-01T07:31:30.44Z</time></trkpt><trkpt lat="44.4175767" lon="11.39658"><ele>157.33333333333334</ele><time>2026-05-01T07:31:33.44Z</time></trkpt><trkpt lat="44.4176367" lon="11.396665"><ele>160.16666666666669</ele><time>2026-05-01T07:31:36.442Z</time></trkpt><trkpt lat="44.4176917" lon="11.3967367"><ele>163.0</ele><time>2026-05-01T07:31:39.442Z</time></trkpt><trkpt lat="44.4177483" lon="11.396785"><ele>163.0</ele><time>2026-05-01T07:31:42.441Z</time></trkpt><trkpt lat="44.4178117" lon="11.396835"><ele>163.0</ele><time>2026-05-01T07:31:45.44Z</time></trkpt><trkpt lat="44.4178767" lon="11.3968767"><ele>163.0</ele><time>2026-05-01T07:31:48.441Z</time></trkpt><trkpt lat="44.4179583" lon="11.396905"><ele>163.0</ele><time>2026-05-01T07:31:52.44Z</time></trkpt><trkpt lat="44.4180183" lon="11.3969333"><ele>163.0</ele><time>2026-05-01T07:31:55.441Z</time></trkpt><trkpt lat="44.4180767" lon="11.396985"><ele>163.0</ele><time>2026-05-01T07:31:58.441Z</time></trkpt><trkpt lat="44.4181433" lon="11.397025"><ele>163.0</ele><time>2026-05-01T07:32:01.441Z</time></trkpt><trkpt lat="44.418215" lon="11.3970867"><ele>164.14285714285714</ele><time>2026-05-01T07:32:05.441Z</time></trkpt><trkpt lat="44.4182717" lon="11.3971483"><ele>165.28571428571428</ele><time>2026-05-01T07:32:09.44Z</time></trkpt><trkpt lat="44.4183217" lon="11.3972083"><ele>166.42857142857142</ele><time>2026-05-01T07:32:13.442Z</time></trkpt><trkpt lat="44.418385" lon="11.39726"><ele>167.57142857142856</ele><time>2026-05-01T07:32:17.44Z</time></trkpt><trkpt lat="44.418445" lon="11.3972967"><ele>168.71428571428572</ele><time>2026-05-01T07:32:22.441Z</time></trkpt><trkpt lat="44.4184983" lon="11.3973467"><ele>169.85714285714283</ele><time>2026-05-01T07:32:27.441Z</time></trkpt><trkpt lat="44.4185417" lon="11.3974367"><ele>171.0</ele><time>2026-05-01T07:32:32.442Z</time></trkpt><trkpt lat="44.4185517" lon="11.39753"><ele>170.99999999999997</ele><time>2026-05-01T07:32:36.442Z</time></trkpt><trkpt lat="44.41857" lon="11.39762"><ele>171.0</ele><time>2026-05-01T07:32:41.441Z</time></trkpt><trkpt lat="44.4185783" lon="11.3977317"><ele>171.0</ele><time>2026-05-01T07:32:46.443Z</time></trkpt><trkpt lat="44.4185833" lon="11.397825"><ele>171.0</ele><time>2026-05-01T07:32:50.443Z</time></trkpt><trkpt lat="44.418595" lon="11.3979167"><ele>171.0</ele><time>2026-05-01T07:32:54.443Z</time></trkpt><trkpt lat="44.418595" lon="11.3980233"><ele>170.99999999999997</ele><time>2026-05-01T07:32:58.441Z</time></trkpt><trkpt lat="44.4186" lon="11.3981283"><ele>171.0</ele><time>2026-05-01T07:33:02.441Z</time></trkpt><trkpt lat="44.418625" lon="11.3982167"><ele>170.99999999999997</ele><time>2026-05-01T07:33:06.441Z</time></trkpt><trkpt lat="44.4186617" lon="11.3982983"><ele>171.0</ele><time>2026-05-01T07:33:10.441Z</time></trkpt><trkpt lat="44.418715" lon="11.398375"><ele>171.0</ele><time>2026-05-01T07:33:14.44Z</time></trkpt><trkpt lat="44.4187683" lon="11.3984483"><ele>171.0</ele><time>2026-05-01T07:33:19.441Z</time></trkpt><trkpt lat="44.4188267" lon="11.3985217"><ele>171.0</ele><time>2026-05-01T07:33:24.44Z</time></trkpt><trkpt lat="44.4188917" lon="11.39858"><ele>170.99999999999997</ele><time>2026-05-01T07:33:29.441Z</time></trkpt><trkpt lat="44.418945" lon="11.3986283"><ele>171.0</ele><time>2026-05-01T07:33:33.44Z</time></trkpt><trkpt lat="44.4189967" lon="11.3986883"><ele>170.99999999999997</ele><time>2026-05-01T07:33:38.441Z</time></trkpt><trkpt lat="44.41906" lon="11.398735"><ele>171.0</ele><time>2026-05-01T07:33:44.442Z</time></trkpt><trkpt lat="44.4191267" lon="11.3987883"><ele>171.0</ele><time>2026-05-01T07:33:50.443Z</time></trkpt><trkpt lat="44.4191817" lon="11.3988383"><ele>171.0</ele><time>2026-05-01T07:33:55.441Z</time></trkpt><trkpt lat="44.419245" lon="11.398885"><ele>171.0</ele><time>2026-05-01T07:34:00.442Z</time></trkpt><trkpt lat="44.41923" lon="11.3989767"><ele>170.99999999999997</ele><time>2026-05-01T07:34:05.441Z</time></trkpt><trkpt lat="44.41916" lon="11.39901"><ele>171.0</ele><time>2026-05-01T07:34:09.442Z</time></trkpt><trkpt lat="44.41909" lon="11.3990367"><ele>174.0</ele><time>2026-05-01T07:34:13.442Z</time></trkpt><trkpt lat="44.4190267" lon="11.399045"><ele>177.0</ele><time>2026-05-01T07:34:18.443Z</time></trkpt><trkpt lat="44.41895" lon="11.3990567"><ele>180.0</ele><time>2026-05-01T07:34:24.442Z</time></trkpt><trkpt lat="44.4188817" lon="11.399085"><ele>183.0</ele><time>2026-05-01T07:34:29.442Z</time></trkpt><trkpt lat="44.41881" lon="11.3990983"><ele>186.0</ele><time>2026-05-01T07:34:34.443Z</time></trkpt><trkpt lat="44.418745" lon="11.3991067"><ele>189.0</ele><time>2026-05-01T07:34:39.441Z</time></trkpt><trkpt lat="44.4186417" lon="11.3991417"><ele>190.57142857142858</ele><time>2026-05-01T07:34:48.441Z</time></trkpt><trkpt lat="44.4185783" lon="11.3991617"><ele>192.14285714285714</ele><time>2026-05-01T07:34:53.441Z</time></trkpt><trkpt lat="44.4185067" lon="11.399155"><ele>193.71428571428572</ele><time>2026-05-01T07:34:59.442Z</time></trkpt><trkpt lat="44.41843" lon="11.3991533"><ele>195.28571428571428</ele><time>2026-05-01T07:35:05.441Z</time></trkpt><trkpt lat="44.4183683" lon="11.3991783"><ele>196.85714285714286</ele><time>2026-05-01T07:35:10.441Z</time></trkpt><trkpt lat="44.4183067" lon="11.3992033"><ele>198.42857142857144</ele><time>2026-05-01T07:35:15.442Z</time></trkpt><trkpt lat="44.4182433" lon="11.3992083"><ele>200.0</ele><time>2026-05-01T07:35:20.444Z</time></trkpt><trkpt lat="44.4181717" lon="11.399205"><ele>200.00000000000003</ele><time>2026-05-01T07:35:26.444Z</time></trkpt><trkpt lat="44.4181067" lon="11.3992117"><ele>200.0</ele><time>2026-05-01T07:35:31.442Z</time></trkpt><trkpt lat="44.4180317" lon="11.3992317"><ele>200.0</ele><time>2026-05-01T07:35:36.443Z</time></trkpt><trkpt lat="44.4179633" lon="11.399245"><ele>200.0</ele><time>2026-05-01T07:35:41.442Z</time></trkpt><trkpt lat="44.4179" lon="11.399245"><ele>200.0</ele><time>2026-05-01T07:35:45.442Z</time></trkpt><trkpt lat="44.4178267" lon="11.3992483"><ele>200.00000000000003</ele><time>2026-05-01T07:35:50.442Z</time></trkpt><trkpt lat="44.4177633" lon="11.399245"><ele>200.0</ele><time>2026-05-01T07:35:54.441Z</time></trkpt><trkpt lat="44.4176917" lon="11.3992133"><ele>201.71428571428572</ele><time>2026-05-01T07:35:59.441Z</time></trkpt><trkpt lat="44.4176317" lon="11.3991783"><ele>203.42857142857144</ele><time>2026-05-01T07:36:04.441Z</time></trkpt><trkpt lat="44.4175717" lon="11.3991267"><ele>205.14285714285717</ele><time>2026-05-01T07:36:09.44Z</time></trkpt><trkpt lat="44.4175133" lon="11.3990633"><ele>206.85714285714286</ele><time>2026-05-01T07:36:14.442Z</time></trkpt><trkpt lat="44.4174533" lon="11.3990017"><ele>208.57142857142856</ele><time>2026-05-01T07:36:19.442Z</time></trkpt><trkpt lat="44.41739" lon="11.39894"><ele>210.2857142857143</ele><time>2026-05-01T07:36:24.442Z</time></trkpt><trkpt lat="44.4173333" lon="11.39889"><ele>212.0</ele><time>2026-05-01T07:36:28.441Z</time></trkpt><trkpt lat="44.41726" lon="11.3988567"><ele>212.0</ele><time>2026-05-01T07:36:33.441Z</time></trkpt><trkpt lat="44.41719" lon="11.3988233"><ele>212.0</ele><time>2026-05-01T07:36:37.443Z</time></trkpt><trkpt lat="44.4171267" lon="11.398805"><ele>212.0</ele><time>2026-05-01T07:36:40.441Z</time></trkpt><trkpt lat="44.417065" lon="11.398785"><ele>212.0</ele><time>2026-05-01T07:36:43.442Z</time></trkpt><trkpt lat="44.41699" lon="11.3987667"><ele>212.0</ele><time>2026-05-01T07:36:47.444Z</time></trkpt><trkpt lat="44.41692" lon="11.3987633"><ele>212.0</ele><time>2026-05-01T07:36:51.441Z</time></trkpt><trkpt lat="44.4168467" lon="11.3987417"><ele>212.0</ele><time>2026-05-01T07:36:55.442Z</time></trkpt><trkpt lat="44.4167817" lon="11.3987133"><ele>212.0</ele><time>2026-05-01T07:36:59.442Z</time></trkpt><trkpt lat="44.4167067" lon="11.3986767"><ele>212.0</ele><time>2026-05-01T07:37:03.441Z</time></trkpt><trkpt lat="44.41664" lon="11.3986583"><ele>212.0</ele><time>2026-05-01T07:37:07.442Z</time></trkpt><trkpt lat="44.4165667" lon="11.3986417"><ele>212.0</ele><time>2026-05-01T07:37:12.441Z</time></trkpt><trkpt lat="44.416505" lon="11.3986183"><ele>212.0</ele><time>2026-05-01T07:37:15.442Z</time></trkpt><trkpt lat="44.416425" lon="11.3986133"><ele>212.0</ele><time>2026-05-01T07:37:19.441Z</time></trkpt><trkpt lat="44.4163433" lon="11.3985883"><ele>212.0</ele><time>2026-05-01T07:37:23.441Z</time></trkpt><trkpt lat="44.4162683" lon="11.398565"><ele>212.85714285714286</ele><time>2026-05-01T07:37:27.443Z</time></trkpt><trkpt lat="44.4161967" lon="11.3985667"><ele>213.7142857142857</ele><time>2026-05-01T07:37:30.441Z</time></trkpt><trkpt lat="44.41613" lon="11.398555"><ele>214.57142857142856</ele><time>2026-05-01T07:37:33.441Z</time></trkpt><trkpt lat="44.416065" lon="11.3985583"><ele>215.42857142857144</ele><time>2026-05-01T07:37:36.441Z</time></trkpt><trkpt lat="44.416" lon="11.398555"><ele>216.28571428571428</ele><time>2026-05-01T07:37:40.442Z</time></trkpt><trkpt lat="44.4159433" lon="11.3986017"><ele>217.14285714285714</ele><time>2026-05-01T07:37:45.442Z</time></trkpt><trkpt lat="44.4159633" lon="11.3986983"><ele>218.0</ele><time>2026-05-01T07:37:51.442Z</time></trkpt><trkpt lat="44.41602" lon="11.3987517"><ele>218.0</ele><time>2026-05-01T07:37:56.441Z</time></trkpt><trkpt lat="44.4160683" lon="11.398815"><ele>218.0</ele><time>2026-05-01T07:38:01.442Z</time></trkpt><trkpt lat="44.4161233" lon="11.39887"><ele>218.0</ele><time>2026-05-01T07:38:05.442Z</time></trkpt><trkpt lat="44.4161817" lon="11.3989233"><ele>218.0</ele><time>2026-05-01T07:38:10.441Z</time></trkpt><trkpt lat="44.41623" lon="11.3989817"><ele>218.0</ele><time>2026-05-01T07:38:15.442Z</time></trkpt><trkpt lat="44.416275" lon="11.399045"><ele>218.0</ele><time>2026-05-01T07:38:20.442Z</time></trkpt><trkpt lat="44.41632" lon="11.3991233"><ele>218.0</ele><time>2026-05-01T07:38:25.442Z</time></trkpt><trkpt lat="44.4163683" lon="11.3991917"><ele>219.57142857142858</ele><time>2026-05-01T07:38:29.441Z</time></trkpt><trkpt lat="44.41639" lon="11.399275"><ele>221.14285714285717</ele><time>2026-05-01T07:38:34.441Z</time></trkpt><trkpt lat="44.4164217" lon="11.399355"><ele>222.71428571428572</ele><time>2026-05-01T07:38:38.442Z</time></trkpt><trkpt lat="44.4164533" lon="11.3994433"><ele>224.28571428571428</ele><time>2026-05-01T07:38:43.442Z</time></trkpt><trkpt lat="44.4164933" lon="11.399525"><ele>225.85714285714286</ele><time>2026-05-01T07:38:48.441Z</time></trkpt><trkpt lat="44.4165267" lon="11.3996033"><ele>227.42857142857142</ele><time>2026-05-01T07:38:52.443Z</time></trkpt><trkpt lat="44.4165483" lon="11.3996933"><ele>229.0</ele><time>2026-05-01T07:38:56.442Z</time></trkpt><trkpt lat="44.4165833" lon="11.3997683"><ele>230.42857142857142</ele><time>2026-05-01T07:39:00.442Z</time></trkpt><trkpt lat="44.4166083" lon="11.3998633"><ele>231.8571428571429</ele><time>2026-05-01T07:39:04.442Z</time></trkpt><trkpt lat="44.4166033" lon="11.3999733"><ele>233.2857142857143</ele><time>2026-05-01T07:39:08.441Z</time></trkpt><trkpt lat="44.41658" lon="11.4000683"><ele>234.71428571428572</ele><time>2026-05-01T07:39:12.441Z</time></trkpt><trkpt lat="44.4165667" lon="11.40017"><ele>236.14285714285717</ele><time>2026-05-01T07:39:17.443Z</time></trkpt><trkpt lat="44.4165917" lon="11.4002617"><ele>237.5714285714286</ele><time>2026-05-01T07:39:22.44Z</time></trkpt><trkpt lat="44.4166317" lon="11.4003383"><ele>239.00000000000003</ele><time>2026-05-01T07:39:25.439Z</time></trkpt><trkpt lat="44.4166867" lon="11.400415"><ele>239.00000000000003</ele><time>2026-05-01T07:39:28.439Z</time></trkpt><trkpt lat="44.4167367" lon="11.40047"><ele>239.0</ele><time>2026-05-01T07:39:31.44Z</time></trkpt><trkpt lat="44.4167783" lon="11.4005383"><ele>239.0</ele><time>2026-05-01T07:39:34.44Z</time></trkpt><trkpt lat="44.41682" lon="11.4006317"><ele>239.0</ele><time>2026-05-01T07:39:38.442Z</time></trkpt><trkpt lat="44.4168717" lon="11.40073"><ele>239.00000000000003</ele><time>2026-05-01T07:39:41.441Z</time></trkpt><trkpt lat="44.4169233" lon="11.4008233"><ele>239.0</ele><time>2026-05-01T07:39:44.442Z</time></trkpt><trkpt lat="44.4169883" lon="11.4008817"><ele>240.42857142857144</ele><time>2026-05-01T07:39:47.442Z</time></trkpt><trkpt lat="44.4170367" lon="11.4009517"><ele>241.85714285714286</ele><time>2026-05-01T07:39:50.44Z</time></trkpt><trkpt lat="44.4170833" lon="11.40102"><ele>243.28571428571428</ele><time>2026-05-01T07:39:53.441Z</time></trkpt><trkpt lat="44.4171083" lon="11.401115"><ele>244.71428571428572</ele><time>2026-05-01T07:39:56.44Z</time></trkpt><trkpt lat="44.417105" lon="11.4012133"><ele>246.1428571428571</ele><time>2026-05-01T07:39:59.44Z</time></trkpt><trkpt lat="44.41709" lon="11.401305"><ele>247.57142857142856</ele><time>2026-05-01T07:40:02.44Z</time></trkpt><trkpt lat="44.4170567" lon="11.40139"><ele>249.0</ele><time>2026-05-01T07:40:05.442Z</time></trkpt><trkpt lat="44.4170167" lon="11.40147"><ele>249.28571428571428</ele><time>2026-05-01T07:40:08.443Z</time></trkpt><trkpt lat="44.4169633" lon="11.401545"><ele>249.57142857142856</ele><time>2026-05-01T07:40:12.443Z</time></trkpt><trkpt lat="44.4169133" lon="11.4016333"><ele>249.85714285714283</ele><time>2026-05-01T07:40:16.442Z</time></trkpt><trkpt lat="44.4168633" lon="11.4017083"><ele>250.1428571428571</ele><time>2026-05-01T07:40:19.44Z</time></trkpt><trkpt lat="44.4168133" lon="11.401775"><ele>250.42857142857142</ele><time>2026-05-01T07:40:23.439Z</time></trkpt><trkpt lat="44.4167683" lon="11.401845"><ele>250.71428571428567</ele><time>2026-05-01T07:40:27.44Z</time></trkpt><trkpt lat="44.4167167" lon="11.401905"><ele>250.99999999999997</ele><time>2026-05-01T07:40:31.439Z</time></trkpt><trkpt lat="44.416665" lon="11.4019633"><ele>250.99999999999997</ele><time>2026-05-01T07:40:35.439Z</time></trkpt><trkpt lat="44.4166183" lon="11.402025"><ele>251.0</ele><time>2026-05-01T07:40:39.439Z</time></trkpt><trkpt lat="44.416575" lon="11.4021133"><ele>250.99999999999997</ele><time>2026-05-01T07:40:44.443Z</time></trkpt><trkpt lat="44.41652" lon="11.4021933"><ele>250.99999999999997</ele><time>2026-05-01T07:40:49.442Z</time></trkpt><trkpt lat="44.4164833" lon="11.40229"><ele>251.0</ele><time>2026-05-01T07:40:54.442Z</time></trkpt><trkpt lat="44.4164633" lon="11.4023817"><ele>250.99999999999997</ele><time>2026-05-01T07:40:58.442Z</time></trkpt><trkpt lat="44.4164317" lon="11.40248"><ele>250.99999999999997</ele><time>2026-05-01T07:41:02.442Z</time></trkpt><trkpt lat="44.4164" lon="11.4025717"><ele>251.0</ele><time>2026-05-01T07:41:05.442Z</time></trkpt><trkpt lat="44.416375" lon="11.4026967"><ele>251.00000000000003</ele><time>2026-05-01T07:41:08.441Z</time></trkpt><trkpt lat="44.4163517" lon="11.4027967"><ele>251.00000000000003</ele><time>2026-05-01T07:41:10.441Z</time></trkpt><trkpt lat="44.4163233" lon="11.4029233"><ele>251.0</ele><time>2026-05-01T07:41:12.44Z</time></trkpt><trkpt lat="44.4163" lon="11.4030667"><ele>251.0</ele><time>2026-05-01T07:41:14.44Z</time></trkpt><trkpt lat="44.4162717" lon="11.40322"><ele>253.83333333333334</ele><time>2026-05-01T07:41:16.444Z</time></trkpt><trkpt lat="44.4162567" lon="11.4033067"><ele>256.6666666666667</ele><time>2026-05-01T07:41:17.441Z</time></trkpt><trkpt lat="44.41621" lon="11.40344"><ele>259.5</ele><time>2026-05-01T07:41:19.443Z</time></trkpt><trkpt lat="44.4161667" lon="11.4035433"><ele>262.3333333333333</ele><time>2026-05-01T07:41:21.441Z</time></trkpt><trkpt lat="44.41613" lon="11.40364"><ele>265.16666666666663</ele><time>2026-05-01T07:41:23.442Z</time></trkpt><trkpt lat="44.4161117" lon="11.40373"><ele>268.0</ele><time>2026-05-01T07:41:25.443Z</time></trkpt><trkpt lat="44.416095" lon="11.4038233"><ele>267.3333333333333</ele><time>2026-05-01T07:41:27.442Z</time></trkpt><trkpt lat="44.4160917" lon="11.4039467"><ele>266.66666666666663</ele><time>2026-05-01T07:41:30.443Z</time></trkpt><trkpt lat="44.4161117" lon="11.4040617"><ele>266.0</ele><time>2026-05-01T07:41:33.442Z</time></trkpt><trkpt lat="44.4161217" lon="11.40418"><ele>265.3333333333333</ele><time>2026-05-01T07:41:36.443Z</time></trkpt><trkpt lat="44.4161317" lon="11.40429"><ele>264.6666666666667</ele><time>2026-05-01T07:41:39.442Z</time></trkpt><trkpt lat="44.4161383" lon="11.4043933"><ele>264.0</ele><time>2026-05-01T07:41:42.442Z</time></trkpt><trkpt lat="44.416155" lon="11.40449"><ele>264.0</ele><time>2026-05-01T07:41:45.441Z</time></trkpt><trkpt lat="44.4161617" lon="11.4045783"><ele>264.0</ele><time>2026-05-01T07:41:48.44Z</time></trkpt><trkpt lat="44.416165" lon="11.40468"><ele>264.0</ele><time>2026-05-01T07:41:51.44Z</time></trkpt><trkpt lat="44.41618" lon="11.4047817"><ele>264.0</ele><time>2026-05-01T07:41:54.441Z</time></trkpt><trkpt lat="44.41619" lon="11.40487"><ele>264.0</ele><time>2026-05-01T07:41:57.44Z</time></trkpt><trkpt lat="44.4162033" lon="11.4049817"><ele>264.0</ele><time>2026-05-01T07:42:01.441Z</time></trkpt><trkpt lat="44.4162033" lon="11.40508"><ele>264.0</ele><time>2026-05-01T07:42:04.438Z</time></trkpt><trkpt lat="44.4161833" lon="11.405175"><ele>263.7142857142857</ele><time>2026-05-01T07:42:07.439Z</time></trkpt><trkpt lat="44.4161567" lon="11.405285"><ele>263.42857142857144</ele><time>2026-05-01T07:42:11.44Z</time></trkpt><trkpt lat="44.41614" lon="11.4053717"><ele>263.14285714285717</ele><time>2026-05-01T07:42:14.439Z</time></trkpt><trkpt lat="44.4161417" lon="11.405465"><ele>262.8571428571429</ele><time>2026-05-01T07:42:17.443Z</time></trkpt><trkpt lat="44.4161567" lon="11.4055517"><ele>262.5714285714286</ele><time>2026-05-01T07:42:20.443Z</time></trkpt><trkpt lat="44.4161883" lon="11.4056383"><ele>262.2857142857143</ele><time>2026-05-01T07:42:23.443Z</time></trkpt><trkpt lat="44.41621" lon="11.4057217"><ele>262.0</ele><time>2026-05-01T07:42:26.441Z</time></trkpt><trkpt lat="44.4162417" lon="11.405825"><ele>261.8571428571429</ele><time>2026-05-01T07:42:30.44Z</time></trkpt><trkpt lat="44.4162417" lon="11.40592"><ele>261.7142857142857</ele><time>2026-05-01T07:42:34.44Z</time></trkpt><trkpt lat="44.4162717" lon="11.40602"><ele>261.57142857142856</ele><time>2026-05-01T07:42:38.44Z</time></trkpt><trkpt lat="44.41631" lon="11.406095"><ele>261.42857142857144</ele><time>2026-05-01T07:42:41.441Z</time></trkpt><trkpt lat="44.41635" lon="11.4061917"><ele>261.2857142857143</ele><time>2026-05-01T07:42:45.439Z</time></trkpt><trkpt lat="44.4163867" lon="11.4062667"><ele>261.14285714285717</ele><time>2026-05-01T07:42:48.443Z</time></trkpt><trkpt lat="44.4164267" lon="11.4063667"><ele>261.0</ele><time>2026-05-01T07:42:52.443Z</time></trkpt><trkpt lat="44.4164733" lon="11.4064667"><ele>262.42857142857144</ele><time>2026-05-01T07:42:56.439Z</time></trkpt><trkpt lat="44.4165067" lon="11.4065483"><ele>263.85714285714283</ele><time>2026-05-01T07:42:59.44Z</time></trkpt><trkpt lat="44.416545" lon="11.406625"><ele>265.2857142857143</ele><time>2026-05-01T07:43:02.439Z</time></trkpt><trkpt lat="44.4165883" lon="11.4067083"><ele>266.7142857142857</ele><time>2026-05-01T07:43:06.439Z</time></trkpt><trkpt lat="44.416635" lon="11.4067833"><ele>268.14285714285717</ele><time>2026-05-01T07:43:10.441Z</time></trkpt><trkpt lat="44.41669" lon="11.4068567"><ele>269.57142857142856</ele><time>2026-05-01T07:43:14.44Z</time></trkpt><trkpt lat="44.416745" lon="11.4069417"><ele>271.0</ele><time>2026-05-01T07:43:18.442Z</time></trkpt><trkpt lat="44.4167967" lon="11.40703"><ele>271.0</ele><time>2026-05-01T07:43:22.443Z</time></trkpt><trkpt lat="44.4168433" lon="11.407115"><ele>271.0</ele><time>2026-05-01T07:43:26.441Z</time></trkpt><trkpt lat="44.4168833" lon="11.4071983"><ele>271.0</ele><time>2026-05-01T07:43:30.443Z</time></trkpt><trkpt lat="44.4169417" lon="11.40726"><ele>271.0</ele><time>2026-05-01T07:43:34.442Z</time></trkpt><trkpt lat="44.4169833" lon="11.4073383"><ele>271.0</ele><time>2026-05-01T07:43:38.443Z</time></trkpt><trkpt lat="44.41703" lon="11.40741"><ele>271.0</ele><time>2026-05-01T07:43:42.44Z</time></trkpt><trkpt lat="44.4170883" lon="11.407485"><ele>271.0</ele><time>2026-05-01T07:43:46.443Z</time></trkpt><trkpt lat="44.4171267" lon="11.4075817"><ele>272.57142857142856</ele><time>2026-05-01T07:43:50.441Z</time></trkpt><trkpt lat="44.4171583" lon="11.40768"><ele>274.14285714285717</ele><time>2026-05-01T07:43:54.443Z</time></trkpt><trkpt lat="44.4171933" lon="11.4077683"><ele>275.7142857142857</ele><time>2026-05-01T07:43:58.44Z</time></trkpt><trkpt lat="44.41724" lon="11.407845"><ele>277.2857142857143</ele><time>2026-05-01T07:44:02.44Z</time></trkpt><trkpt lat="44.417285" lon="11.407935"><ele>278.85714285714283</ele><time>2026-05-01T07:44:06.44Z</time></trkpt><trkpt lat="44.417335" lon="11.4080217"><ele>280.42857142857144</ele><time>2026-05-01T07:44:10.443Z</time></trkpt><trkpt lat="44.4173717" lon="11.4080983"><ele>282.0</ele><time>2026-05-01T07:44:14.44Z</time></trkpt><trkpt lat="44.417425" lon="11.4081683"><ele>282.0</ele><time>2026-05-01T07:44:18.443Z</time></trkpt><trkpt lat="44.41749" lon="11.4082133"><ele>282.0</ele><time>2026-05-01T07:44:22.443Z</time></trkpt><trkpt lat="44.4175533" lon="11.4082633"><ele>282.0</ele><time>2026-05-01T07:44:26.441Z</time></trkpt><trkpt lat="44.417625" lon="11.4082983"><ele>282.0</ele><time>2026-05-01T07:44:30.443Z</time></trkpt><trkpt lat="44.4176983" lon="11.4083217"><ele>282.0</ele><time>2026-05-01T07:44:34.44Z</time></trkpt><trkpt lat="44.4177617" lon="11.4083533"><ele>282.0</ele><time>2026-05-01T07:44:37.44Z</time></trkpt><trkpt lat="44.4178217" lon="11.4083917"><ele>282.0</ele><time>2026-05-01T07:44:40.441Z</time></trkpt><trkpt lat="44.417885" lon="11.4084533"><ele>282.0</ele><time>2026-05-01T07:44:43.439Z</time></trkpt><trkpt lat="44.4179517" lon="11.4085133"><ele>282.0</ele><time>2026-05-01T07:44:46.44Z</time></trkpt><trkpt lat="44.4180067" lon="11.4085717"><ele>282.0</ele><time>2026-05-01T07:44:49.443Z</time></trkpt><trkpt lat="44.4180567" lon="11.408635"><ele>282.0</ele><time>2026-05-01T07:44:52.443Z</time></trkpt><trkpt lat="44.4181083" lon="11.40869"><ele>282.0</ele><time>2026-05-01T07:45:17.443Z</time></trkpt><trkpt lat="44.41817" lon="11.408735"><ele>282.0</ele><time>2026-05-01T07:45:20.443Z</time></trkpt><trkpt lat="44.4182233" lon="11.40881"><ele>282.0</ele><time>2026-05-01T07:45:23.443Z</time></trkpt><trkpt lat="44.418275" lon="11.40891"><ele>283.0</ele><time>2026-05-01T07:45:26.441Z</time></trkpt><trkpt lat="44.4183217" lon="11.4090083"><ele>284.0</ele><time>2026-05-01T07:45:29.44Z</time></trkpt><trkpt lat="44.4183633" lon="11.4091017"><ele>285.0</ele><time>2026-05-01T07:45:32.439Z</time></trkpt><trkpt lat="44.41841" lon="11.4092017"><ele>286.0</ele><time>2026-05-01T07:45:35.441Z</time></trkpt><trkpt lat="44.41846" lon="11.409295"><ele>287.0</ele><time>2026-05-01T07:45:38.44Z</time></trkpt><trkpt lat="44.4185167" lon="11.4093667"><ele>288.0</ele><time>2026-05-01T07:45:41.439Z</time></trkpt><trkpt lat="44.4185783" lon="11.4094183"><ele>288.0</ele><time>2026-05-01T07:45:43.44Z</time></trkpt><trkpt lat="44.4186667" lon="11.4094417"><ele>288.0</ele><time>2026-05-01T07:45:45.443Z</time></trkpt><trkpt lat="44.4187767" lon="11.4094567"><ele>288.0</ele><time>2026-05-01T07:45:47.442Z</time></trkpt><trkpt lat="44.418845" lon="11.40946"><ele>288.0</ele><time>2026-05-01T07:45:48.442Z</time></trkpt><trkpt lat="44.4189167" lon="11.4094633"><ele>288.0</ele><time>2026-05-01T07:45:49.444Z</time></trkpt><trkpt lat="44.4189983" lon="11.4094717"><ele>288.0</ele><time>2026-05-01T07:45:50.441Z</time></trkpt><trkpt lat="44.4190933" lon="11.4094783"><ele>287.2</ele><time>2026-05-01T07:45:51.442Z</time></trkpt><trkpt lat="44.4191917" lon="11.4094883"><ele>286.4</ele><time>2026-05-01T07:45:52.442Z</time></trkpt><trkpt lat="44.4192867" lon="11.409505"><ele>285.59999999999997</ele><time>2026-05-01T07:45:53.442Z</time></trkpt><trkpt lat="44.4193867" lon="11.4095317"><ele>284.8</ele><time>2026-05-01T07:45:54.442Z</time></trkpt><trkpt lat="44.4194833" lon="11.40956"><ele>284.0</ele><time>2026-05-01T07:45:55.445Z</time></trkpt><trkpt lat="44.4195733" lon="11.4095733"><ele>282.6666666666667</ele><time>2026-05-01T07:45:56.445Z</time></trkpt><trkpt lat="44.4196633" lon="11.4095817"><ele>281.33333333333337</ele><time>2026-05-01T07:45:57.443Z</time></trkpt><trkpt lat="44.41975" lon="11.40958"><ele>280.0</ele><time>2026-05-01T07:45:58.442Z</time></trkpt><trkpt lat="44.4198317" lon="11.4095783"><ele>278.6666666666667</ele><time>2026-05-01T07:45:59.442Z</time></trkpt><trkpt lat="44.419905" lon="11.4095767"><ele>277.3333333333333</ele><time>2026-05-01T07:46:00.44Z</time></trkpt><trkpt lat="44.419975" lon="11.40957"><ele>276.0</ele><time>2026-05-01T07:46:01.441Z</time></trkpt><trkpt lat="44.420045" lon="11.4095617"><ele>276.0</ele><time>2026-05-01T07:46:02.442Z</time></trkpt><trkpt lat="44.4201133" lon="11.4095533"><ele>276.0</ele><time>2026-05-01T07:46:03.442Z</time></trkpt><trkpt lat="44.4201817" lon="11.40954"><ele>276.0</ele><time>2026-05-01T07:46:04.441Z</time></trkpt><trkpt lat="44.4202483" lon="11.4095133"><ele>276.0</ele><time>2026-05-01T07:46:05.438Z</time></trkpt><trkpt lat="44.4203117" lon="11.4094667"><ele>276.0</ele><time>2026-05-01T07:46:06.441Z</time></trkpt><trkpt lat="44.4203783" lon="11.4094083"><ele>276.0</ele><time>2026-05-01T07:46:07.443Z</time></trkpt><trkpt lat="44.42045" lon="11.409345"><ele>276.0</ele><time>2026-05-01T07:46:08.442Z</time></trkpt><trkpt lat="44.4205267" lon="11.4092767"><ele>274.8</ele><time>2026-05-01T07:46:09.441Z</time></trkpt><trkpt lat="44.42061" lon="11.4092133"><ele>273.6</ele><time>2026-05-01T07:46:10.442Z</time></trkpt><trkpt lat="44.42069" lon="11.40915"><ele>272.4</ele><time>2026-05-01T07:46:11.442Z</time></trkpt><trkpt lat="44.4207633" lon="11.40909"><ele>271.2</ele><time>2026-05-01T07:46:12.439Z</time></trkpt><trkpt lat="44.4208467" lon="11.4090267"><ele>270.0</ele><time>2026-05-01T07:46:13.439Z</time></trkpt><trkpt lat="44.4209383" lon="11.40896"><ele>270.0</ele><time>2026-05-01T07:46:14.439Z</time></trkpt><trkpt lat="44.4210333" lon="11.4088967"><ele>270.0</ele><time>2026-05-01T07:46:15.441Z</time></trkpt><trkpt lat="44.4211283" lon="11.4088267"><ele>270.0</ele><time>2026-05-01T07:46:16.443Z</time></trkpt><trkpt lat="44.4212167" lon="11.4087567"><ele>270.0</ele><time>2026-05-01T07:46:17.443Z</time></trkpt><trkpt lat="44.421305" lon="11.4086917"><ele>270.0</ele><time>2026-05-01T07:46:18.443Z</time></trkpt><trkpt lat="44.4213933" lon="11.40863"><ele>268.4</ele><time>2026-05-01T07:46:19.442Z</time></trkpt><trkpt lat="44.4214867" lon="11.4085583"><ele>266.8</ele><time>2026-05-01T07:46:20.44Z</time></trkpt><trkpt lat="44.421585" lon="11.4084867"><ele>265.2</ele><time>2026-05-01T07:46:21.443Z</time></trkpt><trkpt lat="44.4216767" lon="11.4084133"><ele>263.6</ele><time>2026-05-01T07:46:22.44Z</time></trkpt><trkpt lat="44.421765" lon="11.4083433"><ele>262.0</ele><time>2026-05-01T07:46:23.44Z</time></trkpt><trkpt lat="44.4218483" lon="11.40828"><ele>262.0</ele><time>2026-05-01T07:46:24.442Z</time></trkpt><trkpt lat="44.4219267" lon="11.40822"><ele>262.0</ele><time>2026-05-01T07:46:25.441Z</time></trkpt><trkpt lat="44.42201" lon="11.408165"><ele>262.0</ele><time>2026-05-01T07:46:26.44Z</time></trkpt><trkpt lat="44.4221017" lon="11.40811"><ele>262.0</ele><time>2026-05-01T07:46:27.44Z</time></trkpt><trkpt lat="44.4221917" lon="11.4080617"><ele>262.0</ele><time>2026-05-01T07:46:28.44Z</time></trkpt><trkpt lat="44.42227" lon="11.4080217"><ele>259.16666666666663</ele><time>2026-05-01T07:46:29.439Z</time></trkpt><trkpt lat="44.422345" lon="11.4079883"><ele>256.3333333333333</ele><time>2026-05-01T07:46:30.441Z</time></trkpt><trkpt lat="44.4224067" lon="11.407965"><ele>253.5</ele><time>2026-05-01T07:46:31.441Z</time></trkpt><trkpt lat="44.4224967" lon="11.4079567"><ele>250.66666666666669</ele><time>2026-05-01T07:46:33.439Z</time></trkpt><trkpt lat="44.4225817" lon="11.4079633"><ele>247.83333333333334</ele><time>2026-05-01T07:46:36.441Z</time></trkpt><trkpt lat="44.4226683" lon="11.4079483"><ele>245.0</ele><time>2026-05-01T07:46:39.44Z</time></trkpt><trkpt lat="44.4227333" lon="11.407945"><ele>245.0</ele><time>2026-05-01T07:46:41.439Z</time></trkpt><trkpt lat="44.4228267" lon="11.4079033"><ele>245.0</ele><time>2026-05-01T07:46:43.44Z</time></trkpt><trkpt lat="44.4229367" lon="11.4078833"><ele>245.0</ele><time>2026-05-01T07:46:45.44Z</time></trkpt><trkpt lat="44.4230567" lon="11.4079017"><ele>245.0</ele><time>2026-05-01T07:46:47.443Z</time></trkpt><trkpt lat="44.423125" lon="11.40791"><ele>245.0</ele><time>2026-05-01T07:46:48.443Z</time></trkpt><trkpt lat="44.4231983" lon="11.4079183"><ele>244.66666666666669</ele><time>2026-05-01T07:46:49.442Z</time></trkpt><trkpt lat="44.4232767" lon="11.4079283"><ele>244.33333333333334</ele><time>2026-05-01T07:46:50.442Z</time></trkpt><trkpt lat="44.4233617" lon="11.40794"><ele>244.0</ele><time>2026-05-01T07:46:51.442Z</time></trkpt><trkpt lat="44.423445" lon="11.407955"><ele>243.66666666666669</ele><time>2026-05-01T07:46:52.442Z</time></trkpt><trkpt lat="44.4235283" lon="11.4079683"><ele>243.33333333333334</ele><time>2026-05-01T07:46:53.442Z</time></trkpt><trkpt lat="44.4236133" lon="11.40798"><ele>243.0</ele><time>2026-05-01T07:46:54.44Z</time></trkpt><trkpt lat="44.4237" lon="11.4079917"><ele>243.4</ele><time>2026-05-01T07:46:55.442Z</time></trkpt><trkpt lat="44.4237867" lon="11.408005"><ele>243.8</ele><time>2026-05-01T07:46:56.442Z</time></trkpt><trkpt lat="44.423875" lon="11.4080233"><ele>244.2</ele><time>2026-05-01T07:46:57.442Z</time></trkpt><trkpt lat="44.4239667" lon="11.408045"><ele>244.6</ele><time>2026-05-01T07:46:58.44Z</time></trkpt><trkpt lat="44.4240633" lon="11.4080883"><ele>245.0</ele><time>2026-05-01T07:46:59.443Z</time></trkpt><trkpt lat="44.424145" lon="11.4081633"><ele>245.0</ele><time>2026-05-01T07:47:00.444Z</time></trkpt><trkpt lat="44.4242217" lon="11.40825"><ele>245.0</ele><time>2026-05-01T07:47:01.443Z</time></trkpt><trkpt lat="44.4242917" lon="11.40834"><ele>245.0</ele><time>2026-05-01T07:47:02.44Z</time></trkpt><trkpt lat="44.42436" lon="11.408435"><ele>245.0</ele><time>2026-05-01T07:47:03.442Z</time></trkpt><trkpt lat="44.424425" lon="11.4085283"><ele>245.0</ele><time>2026-05-01T07:47:04.442Z</time></trkpt><trkpt lat="44.42448" lon="11.40862"><ele>245.00000000000003</ele><time>2026-05-01T07:47:05.442Z</time></trkpt><trkpt lat="44.4245433" lon="11.4087033"><ele>245.0</ele><time>2026-05-01T07:47:06.441Z</time></trkpt><trkpt lat="44.424605" lon="11.4087767"><ele>245.0</ele><time>2026-05-01T07:47:07.442Z</time></trkpt><trkpt lat="44.4246683" lon="11.4088233"><ele>245.0</ele><time>2026-05-01T07:47:08.443Z</time></trkpt><trkpt lat="44.42473" lon="11.4088517"><ele>245.00000000000003</ele><time>2026-05-01T07:47:09.442Z</time></trkpt><trkpt lat="44.4248217" lon="11.4088567"><ele>245.0</ele><time>2026-05-01T07:47:11.442Z</time></trkpt><trkpt lat="44.4248783" lon="11.408815"><ele>244.66666666666669</ele><time>2026-05-01T07:47:14.444Z</time></trkpt><trkpt lat="44.4249567" lon="11.4087967"><ele>244.33333333333334</ele><time>2026-05-01T07:47:18.442Z</time></trkpt><trkpt lat="44.425035" lon="11.40875"><ele>244.0</ele><time>2026-05-01T07:47:21.442Z</time></trkpt><trkpt lat="44.4251017" lon="11.4087367"><ele>243.66666666666669</ele><time>2026-05-01T07:47:24.443Z</time></trkpt><trkpt lat="44.4251817" lon="11.4087317"><ele>243.33333333333334</ele><time>2026-05-01T07:47:28.443Z</time></trkpt><trkpt lat="44.425245" lon="11.4086983"><ele>243.0</ele><time>2026-05-01T07:47:30.443Z</time></trkpt><trkpt lat="44.425325" lon="11.4086467"><ele>243.0</ele><time>2026-05-01T07:47:32.444Z</time></trkpt><trkpt lat="44.4254133" lon="11.4085883"><ele>243.0</ele><time>2026-05-01T07:47:34.444Z</time></trkpt><trkpt lat="44.4254867" lon="11.408525"><ele>243.0</ele><time>2026-05-01T07:47:36.443Z</time></trkpt><trkpt lat="44.42556" lon="11.408465"><ele>243.0</ele><time>2026-05-01T07:47:38.444Z</time></trkpt><trkpt lat="44.425615" lon="11.4084017"><ele>243.0</ele><time>2026-05-01T07:47:40.443Z</time></trkpt><trkpt lat="44.42568" lon="11.4083417"><ele>243.0</ele><time>2026-05-01T07:47:42.442Z</time></trkpt><trkpt lat="44.4257517" lon="11.4082733"><ele>244.0</ele><time>2026-05-01T07:47:44.443Z</time></trkpt><trkpt lat="44.4258283" lon="11.408225"><ele>245.0</ele><time>2026-05-01T07:47:46.444Z</time></trkpt><trkpt lat="44.4259317" lon="11.40821"><ele>246.0</ele><time>2026-05-01T07:47:48.44Z</time></trkpt><trkpt lat="44.426035" lon="11.4082333"><ele>247.0</ele><time>2026-05-01T07:47:50.442Z</time></trkpt><trkpt lat="44.4261383" lon="11.40827"><ele>248.0</ele><time>2026-05-01T07:47:52.44Z</time></trkpt><trkpt lat="44.4262383" lon="11.4082767"><ele>247.83333333333334</ele><time>2026-05-01T07:47:54.441Z</time></trkpt><trkpt lat="44.42634" lon="11.4082783"><ele>247.66666666666669</ele><time>2026-05-01T07:47:56.441Z</time></trkpt><trkpt lat="44.4264333" lon="11.4082733"><ele>247.5</ele><time>2026-05-01T07:47:58.441Z</time></trkpt><trkpt lat="44.4265183" lon="11.408285"><ele>247.33333333333331</ele><time>2026-05-01T07:48:00.441Z</time></trkpt><trkpt lat="44.42659" lon="11.408315"><ele>247.16666666666666</ele><time>2026-05-01T07:48:02.442Z</time></trkpt><trkpt lat="44.426665" lon="11.40832"><ele>247.0</ele><time>2026-05-01T07:48:05.441Z</time></trkpt><trkpt lat="44.4267417" lon="11.40835"><ele>247.0</ele><time>2026-05-01T07:48:10.442Z</time></trkpt><trkpt lat="44.4268183" lon="11.4083633"><ele>247.0</ele><time>2026-05-01T07:48:14.442Z</time></trkpt><trkpt lat="44.4268883" lon="11.4083983"><ele>247.0</ele><time>2026-05-01T07:48:18.441Z</time></trkpt><trkpt lat="44.4269633" lon="11.4084217"><ele>247.0</ele><time>2026-05-01T07:48:23.442Z</time></trkpt><trkpt lat="44.427035" lon="11.408435"><ele>247.0</ele><time>2026-05-01T07:48:28.442Z</time></trkpt><trkpt lat="44.4271067" lon="11.40848"><ele>247.0</ele><time>2026-05-01T07:48:33.443Z</time></trkpt><trkpt lat="44.4271517" lon="11.4085467"><ele>247.0</ele><time>2026-05-01T07:48:36.442Z</time></trkpt><trkpt lat="44.4271983" lon="11.4086483"><ele>246.66666666666666</ele><time>2026-05-01T07:48:40.443Z</time></trkpt><trkpt lat="44.4271983" lon="11.4087483"><ele>246.33333333333331</ele><time>2026-05-01T07:48:44.443Z</time></trkpt><trkpt lat="44.4271533" lon="11.408845"><ele>246.0</ele><time>2026-05-01T07:48:48.442Z</time></trkpt><trkpt lat="44.4271167" lon="11.4089583"><ele>245.66666666666669</ele><time>2026-05-01T07:48:51.441Z</time></trkpt><trkpt lat="44.4270883" lon="11.4090417"><ele>245.33333333333334</ele><time>2026-05-01T07:48:53.443Z</time></trkpt><trkpt lat="44.4270467" lon="11.40914"><ele>245.0</ele><time>2026-05-01T07:48:55.441Z</time></trkpt><trkpt lat="44.426995" lon="11.4092517"><ele>245.85714285714286</ele><time>2026-05-01T07:48:57.442Z</time></trkpt><trkpt lat="44.4269617" lon="11.409335"><ele>246.71428571428572</ele><time>2026-05-01T07:48:59.442Z</time></trkpt><trkpt lat="44.42693" lon="11.4094167"><ele>247.57142857142856</ele><time>2026-05-01T07:49:01.443Z</time></trkpt><trkpt lat="44.4268933" lon="11.4094983"><ele>248.42857142857142</ele><time>2026-05-01T07:49:03.442Z</time></trkpt><trkpt lat="44.4268517" lon="11.409595"><ele>249.28571428571428</ele><time>2026-05-01T07:49:05.442Z</time></trkpt><trkpt lat="44.4268167" lon="11.4096833"><ele>250.1428571428571</ele><time>2026-05-01T07:49:07.442Z</time></trkpt><trkpt lat="44.4267617" lon="11.4097383"><ele>250.99999999999997</ele><time>2026-05-01T07:49:09.441Z</time></trkpt><trkpt lat="44.426695" lon="11.4097933"><ele>251.00000000000003</ele><time>2026-05-01T07:49:12.442Z</time></trkpt><trkpt lat="44.426635" lon="11.4098517"><ele>251.0</ele><time>2026-05-01T07:49:16.444Z</time></trkpt><trkpt lat="44.4265817" lon="11.4099183"><ele>251.0</ele><time>2026-05-01T07:49:20.442Z</time></trkpt><trkpt lat="44.4265383" lon="11.4099833"><ele>251.0</ele><time>2026-05-01T07:49:23.441Z</time></trkpt><trkpt lat="44.4264867" lon="11.4100517"><ele>251.00000000000003</ele><time>2026-05-01T07:49:26.439Z</time></trkpt><trkpt lat="44.4264467" lon="11.410155"><ele>251.0</ele><time>2026-05-01T07:49:30.44Z</time></trkpt><trkpt lat="44.4264533" lon="11.4102917"><ele>251.00000000000003</ele><time>2026-05-01T07:49:33.44Z</time></trkpt><trkpt lat="44.426505" lon="11.4103667"><ele>251.0</ele><time>2026-05-01T07:49:35.439Z</time></trkpt><trkpt lat="44.4265717" lon="11.4104367"><ele>251.0</ele><time>2026-05-01T07:49:38.441Z</time></trkpt><trkpt lat="44.4266283" lon="11.4105133"><ele>251.0</ele><time>2026-05-01T07:49:41.442Z</time></trkpt><trkpt lat="44.4266633" lon="11.4106017"><ele>251.00000000000003</ele><time>2026-05-01T07:49:44.44Z</time></trkpt><trkpt lat="44.426685" lon="11.4106883"><ele>251.0</ele><time>2026-05-01T07:49:46.441Z</time></trkpt><trkpt lat="44.4267117" lon="11.41079"><ele>251.66666666666669</ele><time>2026-05-01T07:49:48.441Z</time></trkpt><trkpt lat="44.4267517" lon="11.4108817"><ele>252.33333333333334</ele><time>2026-05-01T07:49:51.44Z</time></trkpt><trkpt lat="44.4268267" lon="11.41093"><ele>253.0</ele><time>2026-05-01T07:49:54.441Z</time></trkpt><trkpt lat="44.4269" lon="11.4109617"><ele>253.66666666666669</ele><time>2026-05-01T07:49:56.441Z</time></trkpt><trkpt lat="44.4269733" lon="11.4109833"><ele>254.33333333333334</ele><time>2026-05-01T07:49:58.441Z</time></trkpt><trkpt lat="44.427065" lon="11.4109683"><ele>255.0</ele><time>2026-05-01T07:50:01.441Z</time></trkpt><trkpt lat="44.4271417" lon="11.41094"><ele>251.33333333333334</ele><time>2026-05-01T07:50:05.44Z</time></trkpt><trkpt lat="44.4272167" lon="11.4109117"><ele>247.66666666666669</ele><time>2026-05-01T07:50:09.443Z</time></trkpt><trkpt lat="44.4272883" lon="11.41094"><ele>244.0</ele><time>2026-05-01T07:50:15.442Z</time></trkpt><trkpt lat="44.4273317" lon="11.4110167"><ele>240.33333333333334</ele><time>2026-05-01T07:50:20.44Z</time></trkpt><trkpt lat="44.4273583" lon="11.4111383"><ele>236.66666666666669</ele><time>2026-05-01T07:50:23.443Z</time></trkpt><trkpt lat="44.427385" lon="11.41123"><ele>233.0</ele><time>2026-05-01T07:50:25.441Z</time></trkpt><trkpt lat="44.42742" lon="11.4113233"><ele>235.50000000000003</ele><time>2026-05-01T07:50:27.441Z</time></trkpt><trkpt lat="44.42746" lon="11.41141"><ele>238.0</ele><time>2026-05-01T07:50:29.441Z</time></trkpt><trkpt lat="44.4275017" lon="11.4115117"><ele>240.5</ele><time>2026-05-01T07:50:32.441Z</time></trkpt><trkpt lat="44.42755" lon="11.4115733"><ele>243.0</ele><time>2026-05-01T07:50:34.442Z</time></trkpt><trkpt lat="44.4276333" lon="11.41163"><ele>245.50000000000003</ele><time>2026-05-01T07:50:37.443Z</time></trkpt><trkpt lat="44.4277067" lon="11.4116917"><ele>248.0</ele><time>2026-05-01T07:50:40.441Z</time></trkpt><trkpt lat="44.4277817" lon="11.41174"><ele>248.00000000000003</ele><time>2026-05-01T07:50:43.441Z</time></trkpt><trkpt lat="44.4278267" lon="11.4118133"><ele>248.0</ele><time>2026-05-01T07:50:46.441Z</time></trkpt><trkpt lat="44.4278817" lon="11.4119183"><ele>248.0</ele><time>2026-05-01T07:50:49.442Z</time></trkpt><trkpt lat="44.4279317" lon="11.411985"><ele>248.0</ele><time>2026-05-01T07:50:51.441Z</time></trkpt><trkpt lat="44.4279917" lon="11.41205"><ele>248.00000000000003</ele><time>2026-05-01T07:50:53.443Z</time></trkpt><trkpt lat="44.42803" lon="11.41212"><ele>248.0</ele><time>2026-05-01T07:50:55.442Z</time></trkpt><trkpt lat="44.4280733" lon="11.4122267"><ele>245.66666666666669</ele><time>2026-05-01T07:50:58.441Z</time></trkpt><trkpt lat="44.4281133" lon="11.4123117"><ele>243.33333333333334</ele><time>2026-05-01T07:51:00.442Z</time></trkpt><trkpt lat="44.42815" lon="11.41239"><ele>241.0</ele><time>2026-05-01T07:51:02.441Z</time></trkpt><trkpt lat="44.4281967" lon="11.412485"><ele>238.66666666666669</ele><time>2026-05-01T07:51:05.442Z</time></trkpt><trkpt lat="44.4282283" lon="11.41261"><ele>236.33333333333334</ele><time>2026-05-01T07:51:08.442Z</time></trkpt><trkpt lat="44.428245" lon="11.4127067"><ele>234.0</ele><time>2026-05-01T07:51:10.442Z</time></trkpt><trkpt lat="44.42826" lon="11.412825"><ele>234.0</ele><time>2026-05-01T07:51:12.442Z</time></trkpt><trkpt lat="44.428265" lon="11.412935"><ele>234.0</ele><time>2026-05-01T07:51:14.442Z</time></trkpt><trkpt lat="44.4282733" lon="11.41304"><ele>234.0</ele><time>2026-05-01T07:51:16.442Z</time></trkpt><trkpt lat="44.4282817" lon="11.413135"><ele>234.0</ele><time>2026-05-01T07:51:18.442Z</time></trkpt><trkpt lat="44.4282883" lon="11.4132283"><ele>234.0</ele><time>2026-05-01T07:51:20.443Z</time></trkpt><trkpt lat="44.4282917" lon="11.4133417"><ele>234.0</ele><time>2026-05-01T07:51:23.442Z</time></trkpt><trkpt lat="44.42833" lon="11.4134483"><ele>234.33333333333334</ele><time>2026-05-01T07:51:26.443Z</time></trkpt><trkpt lat="44.4283767" lon="11.4135517"><ele>234.66666666666669</ele><time>2026-05-01T07:51:29.442Z</time></trkpt><trkpt lat="44.4284267" lon="11.4136483"><ele>235.0</ele><time>2026-05-01T07:51:32.441Z</time></trkpt><trkpt lat="44.42848" lon="11.4136967"><ele>235.33333333333334</ele><time>2026-05-01T07:51:35.442Z</time></trkpt><trkpt lat="44.4285467" lon="11.4137167"><ele>235.66666666666669</ele><time>2026-05-01T07:51:38.442Z</time></trkpt><trkpt lat="44.4286233" lon="11.4137233"><ele>236.0</ele><time>2026-05-01T07:51:41.442Z</time></trkpt><trkpt lat="44.428705" lon="11.4137467"><ele>236.00000000000003</ele><time>2026-05-01T07:51:44.442Z</time></trkpt><trkpt lat="44.42878" lon="11.41378"><ele>236.0</ele><time>2026-05-01T07:51:47.443Z</time></trkpt><trkpt lat="44.4288417" lon="11.413855"><ele>236.0</ele><time>2026-05-01T07:51:50.441Z</time></trkpt><trkpt lat="44.4288967" lon="11.4139517"><ele>236.0</ele><time>2026-05-01T07:51:53.441Z</time></trkpt><trkpt lat="44.42892" lon="11.4140617"><ele>236.00000000000003</ele><time>2026-05-01T07:51:55.441Z</time></trkpt><trkpt lat="44.4289217" lon="11.414185"><ele>236.0</ele><time>2026-05-01T07:51:57.442Z</time></trkpt><trkpt lat="44.4289367" lon="11.4143"><ele>234.0</ele><time>2026-05-01T07:51:59.441Z</time></trkpt><trkpt lat="44.4289767" lon="11.414415"><ele>232.00000000000003</ele><time>2026-05-01T07:52:01.442Z</time></trkpt><trkpt lat="44.4290133" lon="11.4145383"><ele>230.00000000000003</ele><time>2026-05-01T07:52:03.443Z</time></trkpt><trkpt lat="44.4290483" lon="11.4146583"><ele>228.0</ele><time>2026-05-01T07:52:05.442Z</time></trkpt><trkpt lat="44.4291017" lon="11.414765"><ele>226.0</ele><time>2026-05-01T07:52:07.439Z</time></trkpt><trkpt lat="44.429165" lon="11.4148517"><ele>226.14285714285717</ele><time>2026-05-01T07:52:09.44Z</time></trkpt><trkpt lat="44.42923" lon="11.4148983"><ele>226.28571428571428</ele><time>2026-05-01T07:52:11.44Z</time></trkpt><trkpt lat="44.429295" lon="11.414925"><ele>226.42857142857144</ele><time>2026-05-01T07:52:13.441Z</time></trkpt><trkpt lat="44.4293783" lon="11.4149467"><ele>226.57142857142858</ele><time>2026-05-01T07:52:16.44Z</time></trkpt><trkpt lat="44.429445" lon="11.4149467"><ele>226.71428571428572</ele><time>2026-05-01T07:52:19.441Z</time></trkpt><trkpt lat="44.4295117" lon="11.4149383"><ele>226.85714285714286</ele><time>2026-05-01T07:52:23.44Z</time></trkpt><trkpt lat="44.4295783" lon="11.4149383"><ele>227.0</ele><time>2026-05-01T07:52:28.44Z</time></trkpt><trkpt lat="44.4296483" lon="11.4149433"><ele>227.00000000000003</ele><time>2026-05-01T07:52:31.441Z</time></trkpt><trkpt lat="44.4297217" lon="11.41494"><ele>227.0</ele><time>2026-05-01T07:52:34.44Z</time></trkpt><trkpt lat="44.429795" lon="11.4149233"><ele>227.0</ele><time>2026-05-01T07:52:37.44Z</time></trkpt><trkpt lat="44.42986" lon="11.4149167"><ele>227.0</ele><time>2026-05-01T07:52:39.442Z</time></trkpt><trkpt lat="44.4299517" lon="11.4149"><ele>227.00000000000003</ele><time>2026-05-01T07:52:42.441Z</time></trkpt><trkpt lat="44.4300433" lon="11.414905"><ele>227.0</ele><time>2026-05-01T07:52:45.442Z</time></trkpt><trkpt lat="44.4301067" lon="11.4149083"><ele>227.00000000000003</ele><time>2026-05-01T07:52:47.441Z</time></trkpt><trkpt lat="44.4301833" lon="11.41493"><ele>227.0</ele><time>2026-05-01T07:52:50.441Z</time></trkpt><trkpt lat="44.4302533" lon="11.41498"><ele>227.0</ele><time>2026-05-01T07:52:53.442Z</time></trkpt><trkpt lat="44.4303333" lon="11.4150417"><ele>227.0</ele><time>2026-05-01T07:52:56.442Z</time></trkpt><trkpt lat="44.430385" lon="11.4150983"><ele>227.00000000000003</ele><time>2026-05-01T07:52:58.441Z</time></trkpt><trkpt lat="44.4304417" lon="11.4151433"><ele>227.0</ele><time>2026-05-01T07:53:00.442Z</time></trkpt><trkpt lat="44.4305117" lon="11.4151783"><ele>226.71428571428572</ele><time>2026-05-01T07:53:03.442Z</time></trkpt><trkpt lat="44.4305667" lon="11.4152217"><ele>226.42857142857144</ele><time>2026-05-01T07:53:06.443Z</time></trkpt><trkpt lat="44.43062" lon="11.4152733"><ele>226.14285714285717</ele><time>2026-05-01T07:53:09.441Z</time></trkpt><trkpt lat="44.430675" lon="11.4153333"><ele>225.8571428571429</ele><time>2026-05-01T07:53:12.441Z</time></trkpt><trkpt lat="44.4307317" lon="11.4153817"><ele>225.57142857142858</ele><time>2026-05-01T07:53:15.441Z</time></trkpt><trkpt lat="44.4307833" lon="11.4154517"><ele>225.28571428571433</ele><time>2026-05-01T07:53:19.442Z</time></trkpt><trkpt lat="44.4308233" lon="11.4155467"><ele>225.00000000000003</ele><time>2026-05-01T07:53:23.441Z</time></trkpt><trkpt lat="44.4308467" lon="11.4156417"><ele>225.0</ele><time>2026-05-01T07:53:26.443Z</time></trkpt><trkpt lat="44.4308817" lon="11.4157683"><ele>225.0</ele><time>2026-05-01T07:53:29.443Z</time></trkpt><trkpt lat="44.430905" lon="11.4158533"><ele>225.0</ele><time>2026-05-01T07:53:31.44Z</time></trkpt><trkpt lat="44.4309417" lon="11.4159583"><ele>225.0</ele><time>2026-05-01T07:53:34.441Z</time></trkpt><trkpt lat="44.43098" lon="11.416075"><ele>225.0</ele><time>2026-05-01T07:53:37.441Z</time></trkpt><trkpt lat="44.43099" lon="11.41618"><ele>225.0</ele><time>2026-05-01T07:53:39.441Z</time></trkpt><trkpt lat="44.4310017" lon="11.416275"><ele>224.14285714285717</ele><time>2026-05-01T07:53:41.44Z</time></trkpt><trkpt lat="44.4310267" lon="11.4163817"><ele>223.28571428571428</ele><time>2026-05-01T07:53:43.442Z</time></trkpt><trkpt lat="44.4310533" lon="11.4164783"><ele>222.42857142857144</ele><time>2026-05-01T07:53:45.443Z</time></trkpt><trkpt lat="44.43109" lon="11.4165717"><ele>221.57142857142858</ele><time>2026-05-01T07:53:47.44Z</time></trkpt><trkpt lat="44.4311233" lon="11.4166717"><ele>220.71428571428572</ele><time>2026-05-01T07:53:49.441Z</time></trkpt><trkpt lat="44.43115" lon="11.4167533"><ele>219.85714285714286</ele><time>2026-05-01T07:53:51.44Z</time></trkpt><trkpt lat="44.4311583" lon="11.4168467"><ele>219.0</ele><time>2026-05-01T07:53:53.44Z</time></trkpt><trkpt lat="44.4311133" lon="11.4169633"><ele>219.0</ele><time>2026-05-01T07:53:55.44Z</time></trkpt><trkpt lat="44.43104" lon="11.417085"><ele>218.99999999999997</ele><time>2026-05-01T07:53:57.441Z</time></trkpt><trkpt lat="44.4310017" lon="11.4171567"><ele>218.99999999999997</ele><time>2026-05-01T07:53:58.44Z</time></trkpt><trkpt lat="44.430945" lon="11.4173133"><ele>219.0</ele><time>2026-05-01T07:54:00.439Z</time></trkpt><trkpt lat="44.4309033" lon="11.4174683"><ele>219.0</ele><time>2026-05-01T07:54:02.439Z</time></trkpt><trkpt lat="44.4308567" lon="11.417625"><ele>219.0</ele><time>2026-05-01T07:54:04.439Z</time></trkpt><trkpt lat="44.4308117" lon="11.4177767"><ele>218.99999999999997</ele><time>2026-05-01T07:54:06.441Z</time></trkpt><trkpt lat="44.4307717" lon="11.41793"><ele>218.99999999999997</ele><time>2026-05-01T07:54:08.44Z</time></trkpt><trkpt lat="44.43074" lon="11.4180633"><ele>219.0</ele><time>2026-05-01T07:54:10.44Z</time></trkpt><trkpt lat="44.430715" lon="11.4182017"><ele>219.0</ele><time>2026-05-01T07:54:12.442Z</time></trkpt><trkpt lat="44.430715" lon="11.4183317"><ele>219.0</ele><time>2026-05-01T07:54:14.441Z</time></trkpt><trkpt lat="44.43073" lon="11.4184433"><ele>219.0</ele><time>2026-05-01T07:54:16.443Z</time></trkpt><trkpt lat="44.430745" lon="11.4185467"><ele>219.0</ele><time>2026-05-01T07:54:18.443Z</time></trkpt><trkpt lat="44.4307617" lon="11.418655"><ele>219.0</ele><time>2026-05-01T07:54:20.441Z</time></trkpt><trkpt lat="44.4307783" lon="11.4187667"><ele>219.0</ele><time>2026-05-01T07:54:22.444Z</time></trkpt><trkpt lat="44.4307933" lon="11.418875"><ele>219.0</ele><time>2026-05-01T07:54:24.44Z</time></trkpt><trkpt lat="44.4308067" lon="11.41898"><ele>220.14285714285717</ele><time>2026-05-01T07:54:26.439Z</time></trkpt><trkpt lat="44.4308217" lon="11.419085"><ele>221.28571428571428</ele><time>2026-05-01T07:54:28.441Z</time></trkpt><trkpt lat="44.4308383" lon="11.41919"><ele>222.42857142857144</ele><time>2026-05-01T07:54:30.441Z</time></trkpt><trkpt lat="44.4308467" lon="11.4192983"><ele>223.57142857142858</ele><time>2026-05-01T07:54:32.441Z</time></trkpt><trkpt lat="44.4308517" lon="11.4194"><ele>224.71428571428572</ele><time>2026-05-01T07:54:34.441Z</time></trkpt><trkpt lat="44.43087" lon="11.4194883"><ele>225.85714285714286</ele><time>2026-05-01T07:54:36.439Z</time></trkpt><trkpt lat="44.4309083" lon="11.419565"><ele>227.0</ele><time>2026-05-01T07:54:38.44Z</time></trkpt><trkpt lat="44.43096" lon="11.4196317"><ele>227.83333333333334</ele><time>2026-05-01T07:54:40.441Z</time></trkpt><trkpt lat="44.4310283" lon="11.4197183"><ele>228.66666666666669</ele><time>2026-05-01T07:54:43.441Z</time></trkpt><trkpt lat="44.4310817" lon="11.419775"><ele>229.5</ele><time>2026-05-01T07:54:45.44Z</time></trkpt><trkpt lat="44.43113" lon="11.4198517"><ele>230.33333333333331</ele><time>2026-05-01T07:54:47.443Z</time></trkpt><trkpt lat="44.4311533" lon="11.41995"><ele>231.16666666666666</ele><time>2026-05-01T07:54:49.443Z</time></trkpt><trkpt lat="44.431145" lon="11.42007"><ele>232.0</ele><time>2026-05-01T07:54:51.443Z</time></trkpt><trkpt lat="44.4311" lon="11.4202017"><ele>231.99999999999997</ele><time>2026-05-01T07:54:53.443Z</time></trkpt><trkpt lat="44.4310367" lon="11.42035"><ele>232.0</ele><time>2026-05-01T07:54:55.441Z</time></trkpt><trkpt lat="44.430995" lon="11.4204433"><ele>232.0</ele><time>2026-05-01T07:54:56.443Z</time></trkpt><trkpt lat="44.4309567" lon="11.420545"><ele>232.0</ele><time>2026-05-01T07:54:57.439Z</time></trkpt><trkpt lat="44.430915" lon="11.4206433"><ele>231.99999999999997</ele><time>2026-05-01T07:54:58.44Z</time></trkpt><trkpt lat="44.4308717" lon="11.4207333"><ele>232.0</ele><time>2026-05-01T07:54:59.439Z</time></trkpt><trkpt lat="44.43083" lon="11.4208267"><ele>230.49999999999997</ele><time>2026-05-01T07:55:00.441Z</time></trkpt><trkpt lat="44.430795" lon="11.4209217"><ele>229.0</ele><time>2026-05-01T07:55:01.44Z</time></trkpt><trkpt lat="44.4307667" lon="11.4210233"><ele>227.5</ele><time>2026-05-01T07:55:02.439Z</time></trkpt><trkpt lat="44.430755" lon="11.4211317"><ele>226.0</ele><time>2026-05-01T07:55:03.439Z</time></trkpt><trkpt lat="44.430755" lon="11.4212467"><ele>224.49999999999997</ele><time>2026-05-01T07:55:04.439Z</time></trkpt><trkpt lat="44.4307583" lon="11.4213683"><ele>223.0</ele><time>2026-05-01T07:55:05.44Z</time></trkpt><trkpt lat="44.4307617" lon="11.4214833"><ele>221.99999999999997</ele><time>2026-05-01T07:55:06.441Z</time></trkpt><trkpt lat="44.430765" lon="11.4216017"><ele>221.0</ele><time>2026-05-01T07:55:07.44Z</time></trkpt><trkpt lat="44.43077" lon="11.4217167"><ele>220.0</ele><time>2026-05-01T07:55:08.44Z</time></trkpt><trkpt lat="44.4307717" lon="11.42183"><ele>219.0</ele><time>2026-05-01T07:55:09.441Z</time></trkpt><trkpt lat="44.43078" lon="11.4219417"><ele>217.99999999999997</ele><time>2026-05-01T07:55:10.439Z</time></trkpt><trkpt lat="44.4307983" lon="11.4220467"><ele>217.0</ele><time>2026-05-01T07:55:11.441Z</time></trkpt><trkpt lat="44.4308217" lon="11.4221467"><ele>216.42857142857142</ele><time>2026-05-01T07:55:12.441Z</time></trkpt><trkpt lat="44.430855" lon="11.42224"><ele>215.85714285714286</ele><time>2026-05-01T07:55:13.44Z</time></trkpt><trkpt lat="44.4308917" lon="11.422325"><ele>215.28571428571428</ele><time>2026-05-01T07:55:14.442Z</time></trkpt><trkpt lat="44.4309267" lon="11.4224067"><ele>214.71428571428572</ele><time>2026-05-01T07:55:15.439Z</time></trkpt><trkpt lat="44.430965" lon="11.4224883"><ele>214.14285714285714</ele><time>2026-05-01T07:55:16.44Z</time></trkpt><trkpt lat="44.431005" lon="11.4225633"><ele>213.57142857142856</ele><time>2026-05-01T07:55:17.442Z</time></trkpt><trkpt lat="44.431045" lon="11.4226383"><ele>213.0</ele><time>2026-05-01T07:55:18.442Z</time></trkpt><trkpt lat="44.43109" lon="11.4227083"><ele>212.99999999999997</ele><time>2026-05-01T07:55:19.44Z</time></trkpt><trkpt lat="44.431135" lon="11.4227733"><ele>213.0</ele><time>2026-05-01T07:55:20.44Z</time></trkpt><trkpt lat="44.4311833" lon="11.4228467"><ele>213.0</ele><time>2026-05-01T07:55:21.442Z</time></trkpt><trkpt lat="44.4312333" lon="11.42292"><ele>213.0</ele><time>2026-05-01T07:55:22.442Z</time></trkpt><trkpt lat="44.4312767" lon="11.4229933"><ele>213.0</ele><time>2026-05-01T07:55:23.44Z</time></trkpt><trkpt lat="44.4313217" lon="11.4230683"><ele>212.99999999999997</ele><time>2026-05-01T07:55:24.44Z</time></trkpt><trkpt lat="44.4313617" lon="11.4231467"><ele>213.0</ele><time>2026-05-01T07:55:25.441Z</time></trkpt><trkpt lat="44.4314017" lon="11.4232267"><ele>212.8</ele><time>2026-05-01T07:55:26.44Z</time></trkpt><trkpt lat="44.4314783" lon="11.42336"><ele>212.60000000000002</ele><time>2026-05-01T07:55:28.44Z</time></trkpt><trkpt lat="44.43157" lon="11.4234517"><ele>212.39999999999998</ele><time>2026-05-01T07:55:30.441Z</time></trkpt><trkpt lat="44.4316667" lon="11.4235033"><ele>212.2</ele><time>2026-05-01T07:55:32.441Z</time></trkpt><trkpt lat="44.4317583" lon="11.42356"><ele>212.0</ele><time>2026-05-01T07:55:34.439Z</time></trkpt><trkpt lat="44.4318583" lon="11.4236217"><ele>212.0</ele><time>2026-05-01T07:55:36.44Z</time></trkpt><trkpt lat="44.43196" lon="11.4236967"><ele>212.0</ele><time>2026-05-01T07:55:38.441Z</time></trkpt><trkpt lat="44.4320583" lon="11.4237817"><ele>212.0</ele><time>2026-05-01T07:55:40.441Z</time></trkpt><trkpt lat="44.4321533" lon="11.42385"><ele>212.0</ele><time>2026-05-01T07:55:42.441Z</time></trkpt><trkpt lat="44.4322083" lon="11.423895"><ele>212.0</ele><time>2026-05-01T07:55:43.441Z</time></trkpt><trkpt lat="44.4323217" lon="11.4239767"><ele>209.8</ele><time>2026-05-01T07:55:45.44Z</time></trkpt><trkpt lat="44.4323883" lon="11.4240117"><ele>207.6</ele><time>2026-05-01T07:55:46.44Z</time></trkpt><trkpt lat="44.4324583" lon="11.4240217"><ele>205.4</ele><time>2026-05-01T07:55:47.439Z</time></trkpt><trkpt lat="44.4325283" lon="11.4240317"><ele>203.20000000000002</ele><time>2026-05-01T07:55:48.441Z</time></trkpt><trkpt lat="44.4326483" lon="11.4240583"><ele>201.0</ele><time>2026-05-01T07:55:50.441Z</time></trkpt><trkpt lat="44.4327667" lon="11.4240683"><ele>201.0</ele><time>2026-05-01T07:55:52.439Z</time></trkpt><trkpt lat="44.4328783" lon="11.4240333"><ele>201.0</ele><time>2026-05-01T07:55:54.443Z</time></trkpt><trkpt lat="44.4329683" lon="11.423995"><ele>201.0</ele><time>2026-05-01T07:55:56.441Z</time></trkpt><trkpt lat="44.4330767" lon="11.4239883"><ele>201.0</ele><time>2026-05-01T07:55:58.441Z</time></trkpt><trkpt lat="44.43321" lon="11.4240017"><ele>198.16666666666666</ele><time>2026-05-01T07:56:00.44Z</time></trkpt><trkpt lat="44.433285" lon="11.4240117"><ele>195.33333333333334</ele><time>2026-05-01T07:56:01.441Z</time></trkpt><trkpt lat="44.433365" lon="11.424025"><ele>192.5</ele><time>2026-05-01T07:56:02.441Z</time></trkpt><trkpt lat="44.4334483" lon="11.4240433"><ele>189.66666666666669</ele><time>2026-05-01T07:56:03.441Z</time></trkpt><trkpt lat="44.4335267" lon="11.42407"><ele>186.83333333333334</ele><time>2026-05-01T07:56:04.44Z</time></trkpt><trkpt lat="44.433605" lon="11.4241033"><ele>184.0</ele><time>2026-05-01T07:56:05.441Z</time></trkpt><trkpt lat="44.4336883" lon="11.42414"><ele>184.0</ele><time>2026-05-01T07:56:06.442Z</time></trkpt><trkpt lat="44.4337733" lon="11.4241867"><ele>184.0</ele><time>2026-05-01T07:56:07.441Z</time></trkpt><trkpt lat="44.4338583" lon="11.42423"><ele>184.0</ele><time>2026-05-01T07:56:08.442Z</time></trkpt><trkpt lat="44.4339367" lon="11.4242817"><ele>184.0</ele><time>2026-05-01T07:56:09.442Z</time></trkpt><trkpt lat="44.4340117" lon="11.4243417"><ele>184.0</ele><time>2026-05-01T07:56:10.441Z</time></trkpt><trkpt lat="44.4340783" lon="11.4244067"><ele>184.0</ele><time>2026-05-01T07:56:11.441Z</time></trkpt><trkpt lat="44.4341417" lon="11.4244817"><ele>181.6</ele><time>2026-05-01T07:56:12.441Z</time></trkpt><trkpt lat="44.4341917" lon="11.4245533"><ele>179.2</ele><time>2026-05-01T07:56:13.441Z</time></trkpt><trkpt lat="44.4342717" lon="11.424655"><ele>176.79999999999998</ele><time>2026-05-01T07:56:15.441Z</time></trkpt><trkpt lat="44.4343417" lon="11.4247333"><ele>174.39999999999998</ele><time>2026-05-01T07:56:17.443Z</time></trkpt><trkpt lat="44.43441" lon="11.424815"><ele>172.0</ele><time>2026-05-01T07:56:19.44Z</time></trkpt><trkpt lat="44.4344867" lon="11.4248833"><ele>171.6</ele><time>2026-05-01T07:56:21.44Z</time></trkpt><trkpt lat="44.43457" lon="11.42495"><ele>171.2</ele><time>2026-05-01T07:56:23.44Z</time></trkpt><trkpt lat="44.4346617" lon="11.4250233"><ele>170.8</ele><time>2026-05-01T07:56:25.441Z</time></trkpt><trkpt lat="44.43477" lon="11.4250767"><ele>170.4</ele><time>2026-05-01T07:56:27.44Z</time></trkpt><trkpt lat="44.43488" lon="11.42511"><ele>170.0</ele><time>2026-05-01T07:56:29.441Z</time></trkpt><trkpt lat="44.434995" lon="11.42513"><ele>168.2</ele><time>2026-05-01T07:56:31.44Z</time></trkpt><trkpt lat="44.4351017" lon="11.4251617"><ele>166.4</ele><time>2026-05-01T07:56:33.44Z</time></trkpt><trkpt lat="44.4352083" lon="11.42521"><ele>164.60000000000002</ele><time>2026-05-01T07:56:35.44Z</time></trkpt><trkpt lat="44.435325" lon="11.425275"><ele>162.8</ele><time>2026-05-01T07:56:37.441Z</time></trkpt><trkpt lat="44.4353917" lon="11.4253217"><ele>161.0</ele><time>2026-05-01T07:56:38.441Z</time></trkpt><trkpt lat="44.4354617" lon="11.4253767"><ele>158.0</ele><time>2026-05-01T07:56:39.44Z</time></trkpt><trkpt lat="44.435535" lon="11.4254467"><ele>155.0</ele><time>2026-05-01T07:56:40.441Z</time></trkpt><trkpt lat="44.4356167" lon="11.42552"><ele>152.0</ele><time>2026-05-01T07:56:41.44Z</time></trkpt><trkpt lat="44.43569" lon="11.4255917"><ele>149.0</ele><time>2026-05-01T07:56:42.441Z</time></trkpt><trkpt lat="44.435755" lon="11.4256417"><ele>146.0</ele><time>2026-05-01T07:56:43.441Z</time></trkpt><trkpt lat="44.4358133" lon="11.4256867"><ele>143.0</ele><time>2026-05-01T07:56:44.443Z</time></trkpt><trkpt lat="44.4359233" lon="11.425775"><ele>142.6</ele><time>2026-05-01T07:56:46.441Z</time></trkpt><trkpt lat="44.4359817" lon="11.4258267"><ele>142.20000000000002</ele><time>2026-05-01T07:56:47.44Z</time></trkpt><trkpt lat="44.436075" lon="11.42592"><ele>141.8</ele><time>2026-05-01T07:56:49.441Z</time></trkpt><trkpt lat="44.4361467" lon="11.4260133"><ele>141.4</ele><time>2026-05-01T07:56:51.44Z</time></trkpt><trkpt lat="44.4362183" lon="11.4261617"><ele>141.0</ele><time>2026-05-01T07:56:53.444Z</time></trkpt><trkpt lat="44.4362517" lon="11.42624"><ele>139.16666666666666</ele><time>2026-05-01T07:56:54.441Z</time></trkpt><trkpt lat="44.4362917" lon="11.4263267"><ele>137.33333333333334</ele><time>2026-05-01T07:56:55.441Z</time></trkpt><trkpt lat="44.4363333" lon="11.42642"><ele>135.5</ele><time>2026-05-01T07:56:56.44Z</time></trkpt><trkpt lat="44.4363733" lon="11.4265133"><ele>133.66666666666669</ele><time>2026-05-01T07:56:57.441Z</time></trkpt><trkpt lat="44.436415" lon="11.4266133"><ele>131.83333333333334</ele><time>2026-05-01T07:56:58.442Z</time></trkpt><trkpt lat="44.4364483" lon="11.42672"><ele>130.0</ele><time>2026-05-01T07:56:59.44Z</time></trkpt><trkpt lat="44.436485" lon="11.4268133"><ele>129.42857142857144</ele><time>2026-05-01T07:57:00.441Z</time></trkpt><trkpt lat="44.4365217" lon="11.4269017"><ele>128.85714285714286</ele><time>2026-05-01T07:57:01.441Z</time></trkpt><trkpt lat="44.4365583" lon="11.4269917"><ele>128.28571428571428</ele><time>2026-05-01T07:57:02.443Z</time></trkpt><trkpt lat="44.4365933" lon="11.4270733"><ele>127.71428571428572</ele><time>2026-05-01T07:57:03.44Z</time></trkpt><trkpt lat="44.436625" lon="11.4271517"><ele>127.14285714285714</ele><time>2026-05-01T07:57:04.44Z</time></trkpt><trkpt lat="44.436655" lon="11.4272333"><ele>126.57142857142857</ele><time>2026-05-01T07:57:05.443Z</time></trkpt><trkpt lat="44.4366817" lon="11.4273133"><ele>126.0</ele><time>2026-05-01T07:57:06.44Z</time></trkpt><trkpt lat="44.4367" lon="11.4274"><ele>124.85714285714286</ele><time>2026-05-01T07:57:07.44Z</time></trkpt><trkpt lat="44.436715" lon="11.4275017"><ele>123.71428571428572</ele><time>2026-05-01T07:57:08.439Z</time></trkpt><trkpt lat="44.4367267" lon="11.427605"><ele>122.57142857142857</ele><time>2026-05-01T07:57:09.443Z</time></trkpt><trkpt lat="44.4367367" lon="11.4277083"><ele>121.42857142857143</ele><time>2026-05-01T07:57:10.44Z</time></trkpt><trkpt lat="44.43674" lon="11.4278067"><ele>120.28571428571429</ele><time>2026-05-01T07:57:11.438Z</time></trkpt><trkpt lat="44.4367483" lon="11.4279117"><ele>119.14285714285714</ele><time>2026-05-01T07:57:12.44Z</time></trkpt><trkpt lat="44.4367567" lon="11.42802"><ele>118.0</ele><time>2026-05-01T07:57:13.441Z</time></trkpt><trkpt lat="44.436765" lon="11.42812"><ele>117.50000000000001</ele><time>2026-05-01T07:57:14.44Z</time></trkpt><trkpt lat="44.4367767" lon="11.428225"><ele>117.0</ele><time>2026-05-01T07:57:15.443Z</time></trkpt><trkpt lat="44.4367917" lon="11.4283317"><ele>116.5</ele><time>2026-05-01T07:57:16.442Z</time></trkpt><trkpt lat="44.4368" lon="11.4284383"><ele>116.0</ele><time>2026-05-01T07:57:17.442Z</time></trkpt><trkpt lat="44.4368117" lon="11.42854"><ele>115.50000000000001</ele><time>2026-05-01T07:57:18.443Z</time></trkpt><trkpt lat="44.4368167" lon="11.428645"><ele>115.0</ele><time>2026-05-01T07:57:19.442Z</time></trkpt><trkpt lat="44.436815" lon="11.4287567"><ele>114.66666666666667</ele><time>2026-05-01T07:57:20.442Z</time></trkpt><trkpt lat="44.43682" lon="11.4288617"><ele>114.33333333333334</ele><time>2026-05-01T07:57:21.44Z</time></trkpt><trkpt lat="44.4368267" lon="11.42897"><ele>114.0</ele><time>2026-05-01T07:57:22.442Z</time></trkpt><trkpt lat="44.436835" lon="11.4290833"><ele>113.66666666666666</ele><time>2026-05-01T07:57:23.44Z</time></trkpt><trkpt lat="44.4368383" lon="11.4292017"><ele>113.33333333333333</ele><time>2026-05-01T07:57:24.442Z</time></trkpt><trkpt lat="44.4368383" lon="11.4293183"><ele>113.0</ele><time>2026-05-01T07:57:25.44Z</time></trkpt><trkpt lat="44.4368383" lon="11.429435"><ele>112.99999999999999</ele><time>2026-05-01T07:57:26.441Z</time></trkpt><trkpt lat="44.4368383" lon="11.4295467"><ele>113.0</ele><time>2026-05-01T07:57:27.441Z</time></trkpt><trkpt lat="44.436835" lon="11.4296517"><ele>113.0</ele><time>2026-05-01T07:57:28.439Z</time></trkpt><trkpt lat="44.436845" lon="11.4297533"><ele>113.0</ele><time>2026-05-01T07:57:29.44Z</time></trkpt><trkpt lat="44.4368517" lon="11.4298567"><ele>112.99999999999999</ele><time>2026-05-01T07:57:30.441Z</time></trkpt><trkpt lat="44.43685" lon="11.4299617"><ele>113.0</ele><time>2026-05-01T07:57:31.443Z</time></trkpt><trkpt lat="44.43685" lon="11.4300667"><ele>112.16666666666666</ele><time>2026-05-01T07:57:32.44Z</time></trkpt><trkpt lat="44.436845" lon="11.43018"><ele>111.33333333333333</ele><time>2026-05-01T07:57:33.44Z</time></trkpt><trkpt lat="44.4368483" lon="11.4302917"><ele>110.5</ele><time>2026-05-01T07:57:34.44Z</time></trkpt><trkpt lat="44.4368467" lon="11.4304067"><ele>109.66666666666666</ele><time>2026-05-01T07:57:35.44Z</time></trkpt><trkpt lat="44.43685" lon="11.4305267"><ele>108.83333333333333</ele><time>2026-05-01T07:57:36.441Z</time></trkpt><trkpt lat="44.4368567" lon="11.430655"><ele>108.0</ele><time>2026-05-01T07:57:37.441Z</time></trkpt><trkpt lat="44.4368533" lon="11.4307833"><ele>106.33333333333333</ele><time>2026-05-01T07:57:38.441Z</time></trkpt><trkpt lat="44.436855" lon="11.4308983"><ele>104.66666666666666</ele><time>2026-05-01T07:57:39.441Z</time></trkpt><trkpt lat="44.4368583" lon="11.431"><ele>103.0</ele><time>2026-05-01T07:57:40.441Z</time></trkpt><trkpt lat="44.43687" lon="11.4311617"><ele>101.33333333333333</ele><time>2026-05-01T07:57:42.44Z</time></trkpt><trkpt lat="44.4368633" lon="11.4312783"><ele>99.66666666666666</ele><time>2026-05-01T07:57:44.441Z</time></trkpt><trkpt lat="44.43686" lon="11.4313783"><ele>98.0</ele><time>2026-05-01T07:57:46.442Z</time></trkpt><trkpt lat="44.4368883" lon="11.4314867"><ele>97.60000000000001</ele><time>2026-05-01T07:57:49.441Z</time></trkpt><trkpt lat="44.4369583" lon="11.4315167"><ele>97.2</ele><time>2026-05-01T07:57:51.441Z</time></trkpt><trkpt lat="44.4370733" lon="11.431525"><ele>96.8</ele><time>2026-05-01T07:57:53.439Z</time></trkpt><trkpt lat="44.4371817" lon="11.4315267"><ele>96.4</ele><time>2026-05-01T07:57:55.441Z</time></trkpt><trkpt lat="44.4372833" lon="11.4315417"><ele>96.0</ele><time>2026-05-01T07:57:57.44Z</time></trkpt><trkpt lat="44.4373833" lon="11.431585"><ele>96.0</ele><time>2026-05-01T07:57:59.441Z</time></trkpt><trkpt lat="44.4375033" lon="11.4316133"><ele>96.0</ele><time>2026-05-01T07:58:01.441Z</time></trkpt><trkpt lat="44.4375667" lon="11.43162"><ele>96.0</ele><time>2026-05-01T07:58:02.441Z</time></trkpt><trkpt lat="44.43768" lon="11.4316517"><ele>96.0</ele><time>2026-05-01T07:58:04.439Z</time></trkpt><trkpt lat="44.4377733" lon="11.431665"><ele>96.0</ele><time>2026-05-01T07:58:06.44Z</time></trkpt><trkpt lat="44.4378833" lon="11.43168"><ele>96.66666666666667</ele><time>2026-05-01T07:58:08.441Z</time></trkpt><trkpt lat="44.4379783" lon="11.431685"><ele>97.33333333333334</ele><time>2026-05-01T07:58:10.439Z</time></trkpt><trkpt lat="44.4380633" lon="11.4316917"><ele>98.0</ele><time>2026-05-01T07:58:12.441Z</time></trkpt><trkpt lat="44.4381467" lon="11.4316967"><ele>98.66666666666667</ele><time>2026-05-01T07:58:14.439Z</time></trkpt><trkpt lat="44.4382317" lon="11.4316917"><ele>99.33333333333334</ele><time>2026-05-01T07:58:16.439Z</time></trkpt><trkpt lat="44.438315" lon="11.4317067"><ele>100.0</ele><time>2026-05-01T07:58:18.443Z</time></trkpt><trkpt lat="44.4383983" lon="11.4317283"><ele>100.00000000000001</ele><time>2026-05-01T07:58:20.441Z</time></trkpt><trkpt lat="44.4384783" lon="11.4317583"><ele>100.0</ele><time>2026-05-01T07:58:22.441Z</time></trkpt><trkpt lat="44.4385383" lon="11.43181"><ele>100.0</ele><time>2026-05-01T07:58:24.443Z</time></trkpt><trkpt lat="44.438595" lon="11.431855"><ele>100.0</ele><time>2026-05-01T07:58:26.443Z</time></trkpt><trkpt lat="44.4386533" lon="11.4319533"><ele>100.0</ele><time>2026-05-01T07:58:29.443Z</time></trkpt><trkpt lat="44.438705" lon="11.4320133"><ele>100.00000000000001</ele><time>2026-05-01T07:58:31.441Z</time></trkpt><trkpt lat="44.4387667" lon="11.4320633"><ele>100.0</ele><time>2026-05-01T07:58:33.441Z</time></trkpt><trkpt lat="44.43883" lon="11.4320983"><ele>98.8</ele><time>2026-05-01T07:58:35.442Z</time></trkpt><trkpt lat="44.4389083" lon="11.4321567"><ele>97.6</ele><time>2026-05-01T07:58:37.441Z</time></trkpt><trkpt lat="44.439" lon="11.4322133"><ele>96.4</ele><time>2026-05-01T07:58:39.44Z</time></trkpt><trkpt lat="44.4391033" lon="11.4322683"><ele>95.2</ele><time>2026-05-01T07:58:41.44Z</time></trkpt><trkpt lat="44.4392017" lon="11.432325"><ele>94.0</ele><time>2026-05-01T07:58:43.44Z</time></trkpt><trkpt lat="44.4393017" lon="11.4323833"><ele>94.0</ele><time>2026-05-01T07:58:45.442Z</time></trkpt><trkpt lat="44.4393983" lon="11.4324367"><ele>94.0</ele><time>2026-05-01T07:58:47.441Z</time></trkpt><trkpt lat="44.4394917" lon="11.4324883"><ele>94.0</ele><time>2026-05-01T07:58:49.441Z</time></trkpt><trkpt lat="44.43959" lon="11.43254"><ele>94.0</ele><time>2026-05-01T07:58:51.441Z</time></trkpt><trkpt lat="44.4396433" lon="11.4325883"><ele>94.0</ele><time>2026-05-01T07:58:52.441Z</time></trkpt><trkpt lat="44.4396967" lon="11.43264"><ele>94.0</ele><time>2026-05-01T07:58:53.44Z</time></trkpt><trkpt lat="44.4397533" lon="11.4326883"><ele>94.28571428571428</ele><time>2026-05-01T07:58:54.441Z</time></trkpt><trkpt lat="44.43981" lon="11.4327367"><ele>94.57142857142857</ele><time>2026-05-01T07:58:55.44Z</time></trkpt><trkpt lat="44.439865" lon="11.4327867"><ele>94.85714285714286</ele><time>2026-05-01T07:58:56.441Z</time></trkpt><trkpt lat="44.4399183" lon="11.432835"><ele>95.14285714285714</ele><time>2026-05-01T07:58:57.442Z</time></trkpt><trkpt lat="44.4400183" lon="11.4329283"><ele>95.42857142857143</ele><time>2026-05-01T07:58:59.44Z</time></trkpt><trkpt lat="44.4400667" lon="11.432985"><ele>95.71428571428571</ele><time>2026-05-01T07:59:00.441Z</time></trkpt><trkpt lat="44.4401167" lon="11.433045"><ele>96.0</ele><time>2026-05-01T07:59:01.44Z</time></trkpt><trkpt lat="44.4401717" lon="11.4331"><ele>95.83333333333333</ele><time>2026-05-01T07:59:02.441Z</time></trkpt><trkpt lat="44.4402267" lon="11.4331467"><ele>95.66666666666667</ele><time>2026-05-01T07:59:03.442Z</time></trkpt><trkpt lat="44.4403317" lon="11.4332433"><ele>95.5</ele><time>2026-05-01T07:59:05.442Z</time></trkpt><trkpt lat="44.4403967" lon="11.4332833"><ele>95.33333333333334</ele><time>2026-05-01T07:59:06.44Z</time></trkpt><trkpt lat="44.440465" lon="11.4333267"><ele>95.16666666666667</ele><time>2026-05-01T07:59:07.445Z</time></trkpt><trkpt lat="44.440535" lon="11.4333733"><ele>95.0</ele><time>2026-05-01T07:59:08.441Z</time></trkpt><trkpt lat="44.4406017" lon="11.433415"><ele>95.0</ele><time>2026-05-01T07:59:09.441Z</time></trkpt><trkpt lat="44.4406733" lon="11.43346"><ele>95.0</ele><time>2026-05-01T07:59:10.441Z</time></trkpt><trkpt lat="44.4407433" lon="11.4335167"><ele>95.0</ele><time>2026-05-01T07:59:11.44Z</time></trkpt><trkpt lat="44.4408117" lon="11.43357"><ele>95.0</ele><time>2026-05-01T07:59:12.44Z</time></trkpt><trkpt lat="44.4408783" lon="11.43362"><ele>95.0</ele><time>2026-05-01T07:59:13.44Z</time></trkpt><trkpt lat="44.4409433" lon="11.4336667"><ele>95.0</ele><time>2026-05-01T07:59:14.44Z</time></trkpt><trkpt lat="44.4410033" lon="11.4337133"><ele>95.0</ele><time>2026-05-01T07:59:15.442Z</time></trkpt><trkpt lat="44.4410583" lon="11.43376"><ele>95.0</ele><time>2026-05-01T07:59:16.441Z</time></trkpt><trkpt lat="44.4411233" lon="11.43382"><ele>95.0</ele><time>2026-05-01T07:59:17.441Z</time></trkpt><trkpt lat="44.4411883" lon="11.4338767"><ele>95.0</ele><time>2026-05-01T07:59:18.441Z</time></trkpt><trkpt lat="44.4412483" lon="11.4339333"><ele>95.0</ele><time>2026-05-01T07:59:19.441Z</time></trkpt><trkpt lat="44.44131" lon="11.4339967"><ele>95.0</ele><time>2026-05-01T07:59:20.441Z</time></trkpt><trkpt lat="44.4413667" lon="11.43405"><ele>95.0</ele><time>2026-05-01T07:59:21.44Z</time></trkpt><trkpt lat="44.4414317" lon="11.4341017"><ele>94.16666666666667</ele><time>2026-05-01T07:59:22.441Z</time></trkpt><trkpt lat="44.4414917" lon="11.4341533"><ele>93.33333333333334</ele><time>2026-05-01T07:59:23.441Z</time></trkpt><trkpt lat="44.441565" lon="11.4341933"><ele>92.5</ele><time>2026-05-01T07:59:24.44Z</time></trkpt><trkpt lat="44.44165" lon="11.4342167"><ele>91.66666666666667</ele><time>2026-05-01T07:59:25.44Z</time></trkpt><trkpt lat="44.4417317" lon="11.4342383"><ele>90.83333333333333</ele><time>2026-05-01T07:59:26.441Z</time></trkpt><trkpt lat="44.4418083" lon="11.434265"><ele>90.0</ele><time>2026-05-01T07:59:27.442Z</time></trkpt><trkpt lat="44.44189" lon="11.4342917"><ele>90.0</ele><time>2026-05-01T07:59:28.442Z</time></trkpt><trkpt lat="44.441975" lon="11.4343183"><ele>90.0</ele><time>2026-05-01T07:59:29.441Z</time></trkpt><trkpt lat="44.44206" lon="11.43434"><ele>90.0</ele><time>2026-05-01T07:59:30.44Z</time></trkpt><trkpt lat="44.4421483" lon="11.4343683"><ele>90.0</ele><time>2026-05-01T07:59:31.44Z</time></trkpt><trkpt lat="44.4422333" lon="11.4343983"><ele>90.0</ele><time>2026-05-01T07:59:32.441Z</time></trkpt><trkpt lat="44.4423183" lon="11.434435"><ele>90.0</ele><time>2026-05-01T07:59:33.44Z</time></trkpt><trkpt lat="44.4423983" lon="11.4344717"><ele>89.0</ele><time>2026-05-01T07:59:34.441Z</time></trkpt><trkpt lat="44.4424783" lon="11.4345183"><ele>88.0</ele><time>2026-05-01T07:59:35.44Z</time></trkpt><trkpt lat="44.4425617" lon="11.43456"><ele>87.0</ele><time>2026-05-01T07:59:36.44Z</time></trkpt><trkpt lat="44.4426417" lon="11.434605"><ele>86.0</ele><time>2026-05-01T07:59:37.442Z</time></trkpt><trkpt lat="44.4427033" lon="11.4346467"><ele>85.0</ele><time>2026-05-01T07:59:38.441Z</time></trkpt><trkpt lat="44.4427733" lon="11.434685"><ele>84.0</ele><time>2026-05-01T07:59:39.441Z</time></trkpt><trkpt lat="44.4428817" lon="11.4347367"><ele>84.0</ele><time>2026-05-01T07:59:41.441Z</time></trkpt><trkpt lat="44.4429583" lon="11.43478"><ele>84.0</ele><time>2026-05-01T07:59:43.44Z</time></trkpt><trkpt lat="44.443025" lon="11.4348267"><ele>84.0</ele><time>2026-05-01T07:59:45.443Z</time></trkpt><trkpt lat="44.443125" lon="11.434895"><ele>84.0</ele><time>2026-05-01T07:59:47.443Z</time></trkpt><trkpt lat="44.443235" lon="11.434965"><ele>84.0</ele><time>2026-05-01T07:59:49.441Z</time></trkpt><trkpt lat="44.4432967" lon="11.4350067"><ele>82.71428571428571</ele><time>2026-05-01T07:59:50.442Z</time></trkpt><trkpt lat="44.44336" lon="11.435045"><ele>81.42857142857143</ele><time>2026-05-01T07:59:51.442Z</time></trkpt><trkpt lat="44.4434233" lon="11.43508"><ele>80.14285714285714</ele><time>2026-05-01T07:59:52.441Z</time></trkpt><trkpt lat="44.4434917" lon="11.43511"><ele>78.85714285714286</ele><time>2026-05-01T07:59:53.441Z</time></trkpt><trkpt lat="44.4435617" lon="11.4351483"><ele>77.57142857142857</ele><time>2026-05-01T07:59:54.441Z</time></trkpt><trkpt lat="44.4436283" lon="11.43519"><ele>76.28571428571428</ele><time>2026-05-01T07:59:55.441Z</time></trkpt><trkpt lat="44.4436967" lon="11.4352317"><ele>75.0</ele><time>2026-05-01T07:59:56.442Z</time></trkpt><trkpt lat="44.4437633" lon="11.4352683"><ele>74.99999999999999</ele><time>2026-05-01T07:59:57.44Z</time></trkpt><trkpt lat="44.4438267" lon="11.4353017"><ele>75.0</ele><time>2026-05-01T07:59:58.44Z</time></trkpt><trkpt lat="44.44389" lon="11.4353383"><ele>75.0</ele><time>2026-05-01T07:59:59.44Z</time></trkpt><trkpt lat="44.4439483" lon="11.4353867"><ele>75.0</ele><time>2026-05-01T08:00:00.441Z</time></trkpt><trkpt lat="44.4439983" lon="11.4354483"><ele>75.0</ele><time>2026-05-01T08:00:01.442Z</time></trkpt><trkpt lat="44.4440417" lon="11.4355133"><ele>74.99999999999999</ele><time>2026-05-01T08:00:02.441Z</time></trkpt><trkpt lat="44.4440817" lon="11.4355983"><ele>75.0</ele><time>2026-05-01T08:00:03.44Z</time></trkpt><trkpt lat="44.4441217" lon="11.4356883"><ele>75.0</ele><time>2026-05-01T08:00:04.44Z</time></trkpt><trkpt lat="44.4441533" lon="11.435785"><ele>75.0</ele><time>2026-05-01T08:00:05.439Z</time></trkpt><trkpt lat="44.4441783" lon="11.4358867"><ele>75.0</ele><time>2026-05-01T08:00:06.44Z</time></trkpt><trkpt lat="44.4441983" lon="11.4359883"><ele>75.0</ele><time>2026-05-01T08:00:07.441Z</time></trkpt><trkpt lat="44.44421" lon="11.436095"><ele>75.0</ele><time>2026-05-01T08:00:08.44Z</time></trkpt><trkpt lat="44.4442133" lon="11.436205"><ele>75.0</ele><time>2026-05-01T08:00:09.441Z</time></trkpt><trkpt lat="44.444205" lon="11.436315"><ele>74.0</ele><time>2026-05-01T08:00:10.439Z</time></trkpt><trkpt lat="44.4441833" lon="11.4364217"><ele>73.0</ele><time>2026-05-01T08:00:11.44Z</time></trkpt><trkpt lat="44.4441567" lon="11.4365333"><ele>72.0</ele><time>2026-05-01T08:00:12.441Z</time></trkpt><trkpt lat="44.4441233" lon="11.4366483"><ele>71.0</ele><time>2026-05-01T08:00:13.441Z</time></trkpt><trkpt lat="44.4440917" lon="11.4367583"><ele>70.0</ele><time>2026-05-01T08:00:14.441Z</time></trkpt><trkpt lat="44.4440583" lon="11.4368717"><ele>69.0</ele><time>2026-05-01T08:00:15.441Z</time></trkpt><trkpt lat="44.4440333" lon="11.436985"><ele>69.0</ele><time>2026-05-01T08:00:16.443Z</time></trkpt><trkpt lat="44.4440167" lon="11.4370983"><ele>69.0</ele><time>2026-05-01T08:00:17.441Z</time></trkpt><trkpt lat="44.4440117" lon="11.43721"><ele>69.0</ele><time>2026-05-01T08:00:18.441Z</time></trkpt><trkpt lat="44.4440183" lon="11.43732"><ele>69.0</ele><time>2026-05-01T08:00:19.442Z</time></trkpt><trkpt lat="44.4440333" lon="11.4374283"><ele>69.0</ele><time>2026-05-01T08:00:20.441Z</time></trkpt><trkpt lat="44.44405" lon="11.4375333"><ele>69.0</ele><time>2026-05-01T08:00:21.443Z</time></trkpt><trkpt lat="44.4440667" lon="11.4376367"><ele>68.71428571428572</ele><time>2026-05-01T08:00:22.441Z</time></trkpt><trkpt lat="44.4440867" lon="11.4377417"><ele>68.42857142857143</ele><time>2026-05-01T08:00:23.442Z</time></trkpt><trkpt lat="44.4441067" lon="11.4378433"><ele>68.14285714285714</ele><time>2026-05-01T08:00:24.441Z</time></trkpt><trkpt lat="44.44413" lon="11.4379433"><ele>67.85714285714286</ele><time>2026-05-01T08:00:25.442Z</time></trkpt><trkpt lat="44.44415" lon="11.4380433"><ele>67.57142857142857</ele><time>2026-05-01T08:00:26.442Z</time></trkpt><trkpt lat="44.4441667" lon="11.4381433"><ele>67.28571428571429</ele><time>2026-05-01T08:00:27.441Z</time></trkpt><trkpt lat="44.4441817" lon="11.43824"><ele>67.0</ele><time>2026-05-01T08:00:28.441Z</time></trkpt><trkpt lat="44.4441967" lon="11.4383367"><ele>67.0</ele><time>2026-05-01T08:00:29.442Z</time></trkpt><trkpt lat="44.4442133" lon="11.43843"><ele>67.0</ele><time>2026-05-01T08:00:30.443Z</time></trkpt><trkpt lat="44.4442317" lon="11.43852"><ele>67.0</ele><time>2026-05-01T08:00:31.443Z</time></trkpt><trkpt lat="44.44425" lon="11.43861"><ele>67.0</ele><time>2026-05-01T08:00:32.443Z</time></trkpt><trkpt lat="44.4442617" lon="11.4387"><ele>67.0</ele><time>2026-05-01T08:00:33.441Z</time></trkpt><trkpt lat="44.444285" lon="11.4388617"><ele>67.0</ele><time>2026-05-01T08:00:35.441Z</time></trkpt><trkpt lat="44.4443033" lon="11.439005"><ele>67.0</ele><time>2026-05-01T08:00:37.443Z</time></trkpt><trkpt lat="44.4443083" lon="11.43911"><ele>67.0</ele><time>2026-05-01T08:00:39.442Z</time></trkpt><trkpt lat="44.4443133" lon="11.4392133"><ele>67.0</ele><time>2026-05-01T08:00:41.441Z</time></trkpt><trkpt lat="44.4443283" lon="11.4393083"><ele>67.0</ele><time>2026-05-01T08:00:43.441Z</time></trkpt><trkpt lat="44.4443767" lon="11.4393867"><ele>67.0</ele><time>2026-05-01T08:00:45.441Z</time></trkpt><trkpt lat="44.4444417" lon="11.43947"><ele>67.0</ele><time>2026-05-01T08:00:47.443Z</time></trkpt><trkpt lat="44.4445067" lon="11.4395517"><ele>67.16666666666666</ele><time>2026-05-01T08:00:49.441Z</time></trkpt><trkpt lat="44.44457" lon="11.4396367"><ele>67.33333333333333</ele><time>2026-05-01T08:00:51.44Z</time></trkpt><trkpt lat="44.4446283" lon="11.4397133"><ele>67.5</ele><time>2026-05-01T08:00:53.439Z</time></trkpt><trkpt lat="44.444675" lon="11.4397767"><ele>67.66666666666667</ele><time>2026-05-01T08:00:55.44Z</time></trkpt><trkpt lat="44.4447217" lon="11.4398383"><ele>67.83333333333334</ele><time>2026-05-01T08:00:57.441Z</time></trkpt><trkpt lat="44.444735" lon="11.4399683"><ele>68.0</ele><time>2026-05-01T08:01:00.441Z</time></trkpt><trkpt lat="44.4447033" lon="11.44008"><ele>68.0</ele><time>2026-05-01T08:01:02.441Z</time></trkpt><trkpt lat="44.4446667" lon="11.4401967"><ele>68.0</ele><time>2026-05-01T08:01:04.441Z</time></trkpt><trkpt lat="44.44464" lon="11.4403083"><ele>68.0</ele><time>2026-05-01T08:01:06.441Z</time></trkpt><trkpt lat="44.4445983" lon="11.4404183"><ele>68.0</ele><time>2026-05-01T08:01:08.441Z</time></trkpt><trkpt lat="44.444555" lon="11.4405467"><ele>68.0</ele><time>2026-05-01T08:01:10.442Z</time></trkpt><trkpt lat="44.4445183" lon="11.440685"><ele>68.2</ele><time>2026-05-01T08:01:12.442Z</time></trkpt><trkpt lat="44.4444783" lon="11.4408083"><ele>68.4</ele><time>2026-05-01T08:01:14.44Z</time></trkpt><trkpt lat="44.44443" lon="11.440925"><ele>68.60000000000001</ele><time>2026-05-01T08:01:16.441Z</time></trkpt><trkpt lat="44.4443767" lon="11.4410583"><ele>68.8</ele><time>2026-05-01T08:01:18.441Z</time></trkpt><trkpt lat="44.4443317" lon="11.4411867"><ele>69.0</ele><time>2026-05-01T08:01:20.441Z</time></trkpt><trkpt lat="44.4442883" lon="11.4413267"><ele>70.0</ele><time>2026-05-01T08:01:22.441Z</time></trkpt><trkpt lat="44.4442467" lon="11.4414483"><ele>71.0</ele><time>2026-05-01T08:01:24.441Z</time></trkpt><trkpt lat="44.4442333" lon="11.4415533"><ele>72.0</ele><time>2026-05-01T08:01:26.441Z</time></trkpt><trkpt lat="44.44425" lon="11.4416567"><ele>73.0</ele><time>2026-05-01T08:01:30.442Z</time></trkpt><trkpt lat="44.44425" lon="11.441555"><ele>74.0</ele><time>2026-05-01T08:01:45.44Z</time></trkpt><trkpt lat="44.444265" lon="11.4414683"><ele>75.0</ele><time>2026-05-01T08:01:47.44Z</time></trkpt><trkpt lat="44.4442817" lon="11.44137"><ele>74.0</ele><time>2026-05-01T08:01:49.44Z</time></trkpt><trkpt lat="44.4443133" lon="11.441265"><ele>73.0</ele><time>2026-05-01T08:01:51.443Z</time></trkpt><trkpt lat="44.4443467" lon="11.4411567"><ele>72.0</ele><time>2026-05-01T08:01:53.439Z</time></trkpt><trkpt lat="44.44438" lon="11.441055"><ele>71.0</ele><time>2026-05-01T08:01:55.44Z</time></trkpt><trkpt lat="44.4444367" lon="11.4409433"><ele>70.0</ele><time>2026-05-01T08:01:57.44Z</time></trkpt><trkpt lat="44.4444717" lon="11.44084"><ele>69.0</ele><time>2026-05-01T08:01:59.443Z</time></trkpt><trkpt lat="44.4445067" lon="11.44073"><ele>69.0</ele><time>2026-05-01T08:02:01.44Z</time></trkpt><trkpt lat="44.44453" lon="11.44062"><ele>69.0</ele><time>2026-05-01T08:02:03.441Z</time></trkpt><trkpt lat="44.4445317" lon="11.44051"><ele>69.0</ele><time>2026-05-01T08:02:05.439Z</time></trkpt><trkpt lat="44.4444983" lon="11.4404283"><ele>69.0</ele><time>2026-05-01T08:02:08.441Z</time></trkpt><trkpt lat="44.4444633" lon="11.4405483"><ele>69.0</ele><time>2026-05-01T08:02:12.441Z</time></trkpt><trkpt lat="44.44444" lon="11.4406417"><ele>69.0</ele><time>2026-05-01T08:02:14.441Z</time></trkpt><trkpt lat="44.444415" lon="11.440745"><ele>69.0</ele><time>2026-05-01T08:02:16.441Z</time></trkpt><trkpt lat="44.4443983" lon="11.4408567"><ele>69.0</ele><time>2026-05-01T08:02:18.441Z</time></trkpt><trkpt lat="44.4443683" lon="11.4409633"><ele>69.0</ele><time>2026-05-01T08:02:20.44Z</time></trkpt><trkpt lat="44.4443317" lon="11.4410583"><ele>69.0</ele><time>2026-05-01T08:02:22.439Z</time></trkpt><trkpt lat="44.444295" lon="11.4411483"><ele>69.0</ele><time>2026-05-01T08:02:24.441Z</time></trkpt><trkpt lat="44.4442667" lon="11.4412467"><ele>69.0</ele><time>2026-05-01T08:02:26.441Z</time></trkpt><trkpt lat="44.4442367" lon="11.44134"><ele>69.85714285714286</ele><time>2026-05-01T08:02:28.44Z</time></trkpt><trkpt lat="44.44421" lon="11.4414217"><ele>70.71428571428572</ele><time>2026-05-01T08:02:30.44Z</time></trkpt><trkpt lat="44.4441783" lon="11.44152"><ele>71.57142857142857</ele><time>2026-05-01T08:02:33.442Z</time></trkpt><trkpt lat="44.4441217" lon="11.44161"><ele>72.42857142857143</ele><time>2026-05-01T08:02:36.442Z</time></trkpt><trkpt lat="44.444065" lon="11.4417033"><ele>73.28571428571428</ele><time>2026-05-01T08:02:39.442Z</time></trkpt><trkpt lat="44.4440283" lon="11.44178"><ele>74.14285714285714</ele><time>2026-05-01T08:02:41.442Z</time></trkpt><trkpt lat="44.4439983" lon="11.44186"><ele>75.0</ele><time>2026-05-01T08:02:43.442Z</time></trkpt><trkpt lat="44.4439667" lon="11.4419383"><ele>75.0</ele><time>2026-05-01T08:02:45.442Z</time></trkpt><trkpt lat="44.443925" lon="11.4420233"><ele>75.0</ele><time>2026-05-01T08:02:47.444Z</time></trkpt><trkpt lat="44.4438783" lon="11.4421367"><ele>75.0</ele><time>2026-05-01T08:02:50.441Z</time></trkpt><trkpt lat="44.4438417" lon="11.44222"><ele>75.0</ele><time>2026-05-01T08:02:52.442Z</time></trkpt><trkpt lat="44.4437967" lon="11.4423233"><ele>75.0</ele><time>2026-05-01T08:02:55.441Z</time></trkpt><trkpt lat="44.4437567" lon="11.4423933"><ele>75.0</ele><time>2026-05-01T08:02:57.441Z</time></trkpt><trkpt lat="44.4437283" lon="11.4424767"><ele>74.66666666666667</ele><time>2026-05-01T08:02:59.441Z</time></trkpt><trkpt lat="44.4437" lon="11.4425617"><ele>74.33333333333333</ele><time>2026-05-01T08:03:01.442Z</time></trkpt><trkpt lat="44.443665" lon="11.4426567"><ele>74.0</ele><time>2026-05-01T08:03:03.441Z</time></trkpt><trkpt lat="44.443625" lon="11.442745"><ele>73.66666666666666</ele><time>2026-05-01T08:03:05.442Z</time></trkpt><trkpt lat="44.4435783" lon="11.442835"><ele>73.33333333333333</ele><time>2026-05-01T08:03:07.442Z</time></trkpt><trkpt lat="44.44353" lon="11.4429317"><ele>73.0</ele><time>2026-05-01T08:03:09.441Z</time></trkpt><trkpt lat="44.44348" lon="11.443035"><ele>73.0</ele><time>2026-05-01T08:03:11.442Z</time></trkpt><trkpt lat="44.4434333" lon="11.443135"><ele>73.0</ele><time>2026-05-01T08:03:13.441Z</time></trkpt><trkpt lat="44.4434" lon="11.4432217"><ele>73.0</ele><time>2026-05-01T08:03:15.441Z</time></trkpt><trkpt lat="44.4433783" lon="11.4433217"><ele>73.0</ele><time>2026-05-01T08:03:17.442Z</time></trkpt><trkpt lat="44.4433783" lon="11.4434267"><ele>73.0</ele><time>2026-05-01T08:03:19.442Z</time></trkpt><trkpt lat="44.44341" lon="11.4435133"><ele>73.0</ele><time>2026-05-01T08:03:21.442Z</time></trkpt><trkpt lat="44.443465" lon="11.443575"><ele>73.0</ele><time>2026-05-01T08:03:23.442Z</time></trkpt><trkpt lat="44.4435333" lon="11.4436317"><ele>73.0</ele><time>2026-05-01T08:03:25.44Z</time></trkpt><trkpt lat="44.4436217" lon="11.4436933"><ele>73.0</ele><time>2026-05-01T08:03:27.445Z</time></trkpt><trkpt lat="44.4436817" lon="11.4437783"><ele>73.0</ele><time>2026-05-01T08:03:29.442Z</time></trkpt><trkpt lat="44.4437483" lon="11.443855"><ele>73.0</ele><time>2026-05-01T08:03:31.441Z</time></trkpt><trkpt lat="44.4438283" lon="11.4439433"><ele>73.0</ele><time>2026-05-01T08:03:33.44Z</time></trkpt><trkpt lat="44.4439067" lon="11.4440217"><ele>73.5</ele><time>2026-05-01T08:03:35.44Z</time></trkpt><trkpt lat="44.4439867" lon="11.4440867"><ele>74.0</ele><time>2026-05-01T08:03:37.441Z</time></trkpt><trkpt lat="44.4440417" lon="11.444155"><ele>74.5</ele><time>2026-05-01T08:03:39.441Z</time></trkpt><trkpt lat="44.444025" lon="11.4442867"><ele>75.0</ele><time>2026-05-01T08:03:42.442Z</time></trkpt><trkpt lat="44.4439733" lon="11.4443883"><ele>75.5</ele><time>2026-05-01T08:03:44.443Z</time></trkpt><trkpt lat="44.44392" lon="11.4444717"><ele>76.0</ele><time>2026-05-01T08:03:46.443Z</time></trkpt><trkpt lat="44.4438567" lon="11.4445433"><ele>75.66666666666666</ele><time>2026-05-01T08:03:48.442Z</time></trkpt><trkpt lat="44.4437867" lon="11.4445933"><ele>75.33333333333333</ele><time>2026-05-01T08:03:50.441Z</time></trkpt><trkpt lat="44.4437133" lon="11.4446383"><ele>75.0</ele><time>2026-05-01T08:03:52.441Z</time></trkpt><trkpt lat="44.4436583" lon="11.4447"><ele>74.66666666666667</ele><time>2026-05-01T08:03:54.442Z</time></trkpt><trkpt lat="44.4436583" lon="11.4448267"><ele>74.33333333333334</ele><time>2026-05-01T08:03:57.441Z</time></trkpt><trkpt lat="44.443685" lon="11.4449333"><ele>74.0</ele><time>2026-05-01T08:04:00.44Z</time></trkpt><trkpt lat="44.4436533" lon="11.4450517"><ele>74.0</ele><time>2026-05-01T08:04:03.44Z</time></trkpt><trkpt lat="44.4436017" lon="11.445125"><ele>74.0</ele><time>2026-05-01T08:04:05.44Z</time></trkpt><trkpt lat="44.4435667" lon="11.4452083"><ele>74.0</ele><time>2026-05-01T08:04:07.442Z</time></trkpt><trkpt lat="44.4435217" lon="11.4452917"><ele>74.0</ele><time>2026-05-01T08:04:09.44Z</time></trkpt><trkpt lat="44.4434967" lon="11.4453917"><ele>74.0</ele><time>2026-05-01T08:04:11.441Z</time></trkpt><trkpt lat="44.4434933" lon="11.44551"><ele>74.0</ele><time>2026-05-01T08:04:13.442Z</time></trkpt><trkpt lat="44.4434917" lon="11.445615"><ele>74.0</ele><time>2026-05-01T08:04:15.441Z</time></trkpt><trkpt lat="44.443485" lon="11.4457083"><ele>74.0</ele><time>2026-05-01T08:04:17.44Z</time></trkpt><trkpt lat="44.443455" lon="11.445815"><ele>74.0</ele><time>2026-05-01T08:04:20.443Z</time></trkpt><trkpt lat="44.4434783" lon="11.4459067"><ele>74.0</ele><time>2026-05-01T08:04:24.442Z</time></trkpt><trkpt lat="44.443555" lon="11.4459667"><ele>74.0</ele><time>2026-05-01T08:04:27.441Z</time></trkpt><trkpt lat="44.4436083" lon="11.44602"><ele>74.0</ele><time>2026-05-01T08:04:29.441Z</time></trkpt><trkpt lat="44.443685" lon="11.4461083"><ele>74.0</ele><time>2026-05-01T08:04:32.442Z</time></trkpt><trkpt lat="44.443765" lon="11.4461583"><ele>74.0</ele><time>2026-05-01T08:04:35.443Z</time></trkpt><trkpt lat="44.4438267" lon="11.4462233"><ele>74.0</ele><time>2026-05-01T08:04:39.441Z</time></trkpt><trkpt lat="44.4438433" lon="11.4463233"><ele>74.0</ele><time>2026-05-01T08:04:43.442Z</time></trkpt><trkpt lat="44.4438317" lon="11.4464233"><ele>74.0</ele><time>2026-05-01T08:04:47.443Z</time></trkpt><trkpt lat="44.4438083" lon="11.4465167"><ele>74.0</ele><time>2026-05-01T08:04:52.441Z</time></trkpt><trkpt lat="44.443785" lon="11.4466067"><ele>74.0</ele><time>2026-05-01T08:04:55.441Z</time></trkpt><trkpt lat="44.4437883" lon="11.4467233"><ele>74.0</ele><time>2026-05-01T08:04:58.442Z</time></trkpt><trkpt lat="44.4438483" lon="11.44676"><ele>74.0</ele><time>2026-05-01T08:05:01.442Z</time></trkpt><trkpt lat="44.4438833" lon="11.446835"><ele>74.0</ele><time>2026-05-01T08:05:05.442Z</time></trkpt><trkpt lat="44.4439133" lon="11.4469767"><ele>74.0</ele><time>2026-05-01T08:05:13.441Z</time></trkpt><trkpt lat="44.4438883" lon="11.4470767"><ele>74.0</ele><time>2026-05-01T08:05:18.441Z</time></trkpt><trkpt lat="44.4439267" lon="11.4471683"><ele>74.0</ele><time>2026-05-01T08:05:26.443Z</time></trkpt><trkpt lat="44.443935" lon="11.4472617"><ele>74.16666666666667</ele><time>2026-05-01T08:05:28.44Z</time></trkpt><trkpt lat="44.4439317" lon="11.447355"><ele>74.33333333333334</ele><time>2026-05-01T08:05:30.44Z</time></trkpt><trkpt lat="44.4439217" lon="11.4474883"><ele>74.5</ele><time>2026-05-01T08:05:33.44Z</time></trkpt><trkpt lat="44.4439283" lon="11.4476"><ele>74.66666666666667</ele><time>2026-05-01T08:05:35.44Z</time></trkpt><trkpt lat="44.443955" lon="11.44773"><ele>74.83333333333333</ele><time>2026-05-01T08:05:37.44Z</time></trkpt><trkpt lat="44.4439917" lon="11.44787"><ele>75.0</ele><time>2026-05-01T08:05:39.441Z</time></trkpt><trkpt lat="44.4440283" lon="11.4480083"><ele>75.0</ele><time>2026-05-01T08:05:41.44Z</time></trkpt><trkpt lat="44.4440667" lon="11.44816"><ele>75.0</ele><time>2026-05-01T08:05:43.439Z</time></trkpt><trkpt lat="44.44411" lon="11.448315"><ele>75.0</ele><time>2026-05-01T08:05:45.441Z</time></trkpt><trkpt lat="44.4441483" lon="11.4484717"><ele>75.0</ele><time>2026-05-01T08:05:47.442Z</time></trkpt><trkpt lat="44.4441867" lon="11.4486283"><ele>75.0</ele><time>2026-05-01T08:05:49.441Z</time></trkpt><trkpt lat="44.4442133" lon="11.4487867"><ele>75.0</ele><time>2026-05-01T08:05:51.44Z</time></trkpt><trkpt lat="44.444205" lon="11.4489567"><ele>75.0</ele><time>2026-05-01T08:05:53.441Z</time></trkpt><trkpt lat="44.44415" lon="11.4491083"><ele>75.0</ele><time>2026-05-01T08:05:55.442Z</time></trkpt><trkpt lat="44.4440867" lon="11.4492583"><ele>74.25</ele><time>2026-05-01T08:05:57.442Z</time></trkpt><trkpt lat="44.4440267" lon="11.4494117"><ele>73.5</ele><time>2026-05-01T08:05:59.441Z</time></trkpt><trkpt lat="44.4439733" lon="11.4495667"><ele>72.75</ele><time>2026-05-01T08:06:01.441Z</time></trkpt><trkpt lat="44.44392" lon="11.449725"><ele>72.0</ele><time>2026-05-01T08:06:03.442Z</time></trkpt><trkpt lat="44.443865" lon="11.4498767"><ele>72.0</ele><time>2026-05-01T08:06:05.442Z</time></trkpt><trkpt lat="44.44381" lon="11.4500183"><ele>72.0</ele><time>2026-05-01T08:06:07.442Z</time></trkpt><trkpt lat="44.4437533" lon="11.45016"><ele>72.0</ele><time>2026-05-01T08:06:09.441Z</time></trkpt><trkpt lat="44.443695" lon="11.4503083"><ele>72.0</ele><time>2026-05-01T08:06:11.442Z</time></trkpt><trkpt lat="44.4436433" lon="11.450465"><ele>72.5</ele><time>2026-05-01T08:06:13.442Z</time></trkpt><trkpt lat="44.4435967" lon="11.4506167"><ele>73.0</ele><time>2026-05-01T08:06:15.441Z</time></trkpt><trkpt lat="44.4435417" lon="11.4507617"><ele>73.5</ele><time>2026-05-01T08:06:17.442Z</time></trkpt><trkpt lat="44.4434883" lon="11.4509017"><ele>74.0</ele><time>2026-05-01T08:06:19.443Z</time></trkpt><trkpt lat="44.4434383" lon="11.45104"><ele>74.0</ele><time>2026-05-01T08:06:21.443Z</time></trkpt><trkpt lat="44.4433833" lon="11.4511733"><ele>74.0</ele><time>2026-05-01T08:06:23.442Z</time></trkpt><trkpt lat="44.4433267" lon="11.45132"><ele>74.0</ele><time>2026-05-01T08:06:25.44Z</time></trkpt><trkpt lat="44.4432717" lon="11.4514667"><ele>74.0</ele><time>2026-05-01T08:06:27.441Z</time></trkpt><trkpt lat="44.4432217" lon="11.4516183"><ele>74.5</ele><time>2026-05-01T08:06:29.441Z</time></trkpt><trkpt lat="44.44317" lon="11.451765"><ele>75.0</ele><time>2026-05-01T08:06:31.441Z</time></trkpt><trkpt lat="44.4431183" lon="11.4519167"><ele>75.5</ele><time>2026-05-01T08:06:33.441Z</time></trkpt><trkpt lat="44.4430717" lon="11.4520617"><ele>76.0</ele><time>2026-05-01T08:06:35.441Z</time></trkpt><trkpt lat="44.4430167" lon="11.4522"><ele>76.0</ele><time>2026-05-01T08:06:37.441Z</time></trkpt><trkpt lat="44.4429667" lon="11.452335"><ele>76.0</ele><time>2026-05-01T08:06:39.441Z</time></trkpt><trkpt lat="44.4429133" lon="11.4524633"><ele>76.0</ele><time>2026-05-01T08:06:41.442Z</time></trkpt><trkpt lat="44.442865" lon="11.4525917"><ele>76.0</ele><time>2026-05-01T08:06:43.441Z</time></trkpt><trkpt lat="44.4428" lon="11.452675"><ele>76.0</ele><time>2026-05-01T08:06:45.441Z</time></trkpt><trkpt lat="44.442715" lon="11.4526317"><ele>76.0</ele><time>2026-05-01T08:06:47.442Z</time></trkpt><trkpt lat="44.4426317" lon="11.4525483"><ele>76.0</ele><time>2026-05-01T08:06:49.443Z</time></trkpt><trkpt lat="44.4425517" lon="11.45247"><ele>76.0</ele><time>2026-05-01T08:06:51.443Z</time></trkpt><trkpt lat="44.4424717" lon="11.4523867"><ele>76.0</ele><time>2026-05-01T08:06:53.44Z</time></trkpt><trkpt lat="44.4423867" lon="11.45232"><ele>76.0</ele><time>2026-05-01T08:06:55.441Z</time></trkpt><trkpt lat="44.4423033" lon="11.4522517"><ele>76.0</ele><time>2026-05-01T08:06:57.44Z</time></trkpt><trkpt lat="44.4422183" lon="11.452175"><ele>76.0</ele><time>2026-05-01T08:06:59.441Z</time></trkpt><trkpt lat="44.4421333" lon="11.452095"><ele>76.0</ele><time>2026-05-01T08:07:01.441Z</time></trkpt><trkpt lat="44.4420467" lon="11.4520217"><ele>76.0</ele><time>2026-05-01T08:07:03.441Z</time></trkpt><trkpt lat="44.4419633" lon="11.4519483"><ele>76.0</ele><time>2026-05-01T08:07:05.441Z</time></trkpt><trkpt lat="44.4418817" lon="11.4518683"><ele>76.39999999999999</ele><time>2026-05-01T08:07:07.441Z</time></trkpt><trkpt lat="44.4417933" lon="11.4518017"><ele>76.8</ele><time>2026-05-01T08:07:09.442Z</time></trkpt><trkpt lat="44.441715" lon="11.451735"><ele>77.19999999999999</ele><time>2026-05-01T08:07:11.441Z</time></trkpt><trkpt lat="44.4416433" lon="11.4516683"><ele>77.6</ele><time>2026-05-01T08:07:13.44Z</time></trkpt><trkpt lat="44.4415617" lon="11.4516"><ele>78.0</ele><time>2026-05-01T08:07:15.442Z</time></trkpt><trkpt lat="44.4414783" lon="11.45153"><ele>78.0</ele><time>2026-05-01T08:07:17.443Z</time></trkpt><trkpt lat="44.4413967" lon="11.45148"><ele>78.0</ele><time>2026-05-01T08:07:19.442Z</time></trkpt><trkpt lat="44.4413167" lon="11.4514583"><ele>78.0</ele><time>2026-05-01T08:07:21.443Z</time></trkpt><trkpt lat="44.4412483" lon="11.451475"><ele>78.0</ele><time>2026-05-01T08:07:23.442Z</time></trkpt><trkpt lat="44.44118" lon="11.451505"><ele>78.0</ele><time>2026-05-01T08:07:25.442Z</time></trkpt><trkpt lat="44.44112" lon="11.45157"><ele>78.0</ele><time>2026-05-01T08:07:27.442Z</time></trkpt><trkpt lat="44.441075" lon="11.4516717"><ele>77.8</ele><time>2026-05-01T08:07:29.441Z</time></trkpt><trkpt lat="44.44103" lon="11.4517933"><ele>77.6</ele><time>2026-05-01T08:07:31.444Z</time></trkpt><trkpt lat="44.4409867" lon="11.4519167"><ele>77.4</ele><time>2026-05-01T08:07:33.441Z</time></trkpt><trkpt lat="44.440945" lon="11.4520417"><ele>77.2</ele><time>2026-05-01T08:07:35.44Z</time></trkpt><trkpt lat="44.4409033" lon="11.4521633"><ele>77.0</ele><time>2026-05-01T08:07:37.442Z</time></trkpt><trkpt lat="44.4408633" lon="11.452285"><ele>77.0</ele><time>2026-05-01T08:07:39.441Z</time></trkpt><trkpt lat="44.44083" lon="11.4524117"><ele>77.0</ele><time>2026-05-01T08:07:41.442Z</time></trkpt><trkpt lat="44.4407883" lon="11.4525467"><ele>77.0</ele><time>2026-05-01T08:07:43.44Z</time></trkpt><trkpt lat="44.4407433" lon="11.452685"><ele>77.0</ele><time>2026-05-01T08:07:45.442Z</time></trkpt><trkpt lat="44.4406917" lon="11.45282"><ele>77.0</ele><time>2026-05-01T08:07:47.442Z</time></trkpt><trkpt lat="44.4406433" lon="11.4529517"><ele>77.4</ele><time>2026-05-01T08:07:49.443Z</time></trkpt><trkpt lat="44.440595" lon="11.4530867"><ele>77.80000000000001</ele><time>2026-05-01T08:07:51.443Z</time></trkpt><trkpt lat="44.4405533" lon="11.4532233"><ele>78.2</ele><time>2026-05-01T08:07:53.443Z</time></trkpt><trkpt lat="44.44051" lon="11.4533533"><ele>78.60000000000001</ele><time>2026-05-01T08:07:55.439Z</time></trkpt><trkpt lat="44.4404717" lon="11.453485"><ele>79.0</ele><time>2026-05-01T08:07:57.44Z</time></trkpt><trkpt lat="44.4404317" lon="11.45361"><ele>79.16666666666666</ele><time>2026-05-01T08:07:59.441Z</time></trkpt><trkpt lat="44.4403917" lon="11.4537333"><ele>79.33333333333333</ele><time>2026-05-01T08:08:01.44Z</time></trkpt><trkpt lat="44.4403583" lon="11.4538583"><ele>79.5</ele><time>2026-05-01T08:08:03.441Z</time></trkpt><trkpt lat="44.440325" lon="11.45396"><ele>79.66666666666667</ele><time>2026-05-01T08:08:05.442Z</time></trkpt><trkpt lat="44.4402833" lon="11.4540317"><ele>79.83333333333334</ele><time>2026-05-01T08:08:07.442Z</time></trkpt><trkpt lat="44.44026" lon="11.4541267"><ele>80.0</ele><time>2026-05-01T08:08:09.442Z</time></trkpt><trkpt lat="44.4402333" lon="11.4542533"><ele>80.0</ele><time>2026-05-01T08:08:11.442Z</time></trkpt><trkpt lat="44.4401967" lon="11.4544083"><ele>80.0</ele><time>2026-05-01T08:08:13.442Z</time></trkpt><trkpt lat="44.4401567" lon="11.4545733"><ele>80.0</ele><time>2026-05-01T08:08:15.442Z</time></trkpt><trkpt lat="44.44014" lon="11.45466"><ele>80.0</ele><time>2026-05-01T08:08:16.443Z</time></trkpt><trkpt lat="44.44012" lon="11.4547483"><ele>80.0</ele><time>2026-05-01T08:08:17.444Z</time></trkpt><trkpt lat="44.4400983" lon="11.454835"><ele>80.0</ele><time>2026-05-01T08:08:18.443Z</time></trkpt><trkpt lat="44.44008" lon="11.45492"><ele>80.0</ele><time>2026-05-01T08:08:19.443Z</time></trkpt><trkpt lat="44.4400583" lon="11.455005"><ele>80.0</ele><time>2026-05-01T08:08:20.444Z</time></trkpt><trkpt lat="44.4400333" lon="11.45509"><ele>80.0</ele><time>2026-05-01T08:08:21.443Z</time></trkpt><trkpt lat="44.4400117" lon="11.4551767"><ele>80.0</ele><time>2026-05-01T08:08:22.444Z</time></trkpt><trkpt lat="44.43999" lon="11.4552617"><ele>80.0</ele><time>2026-05-01T08:08:23.443Z</time></trkpt><trkpt lat="44.439955" lon="11.4554167"><ele>80.0</ele><time>2026-05-01T08:08:25.442Z</time></trkpt><trkpt lat="44.4399283" lon="11.455535"><ele>80.2</ele><time>2026-05-01T08:08:27.441Z</time></trkpt><trkpt lat="44.4399" lon="11.4556533"><ele>80.4</ele><time>2026-05-01T08:08:29.442Z</time></trkpt><trkpt lat="44.4398733" lon="11.4557783"><ele>80.6</ele><time>2026-05-01T08:08:31.44Z</time></trkpt><trkpt lat="44.4398433" lon="11.4559083"><ele>80.8</ele><time>2026-05-01T08:08:33.442Z</time></trkpt><trkpt lat="44.4398167" lon="11.4560433"><ele>81.0</ele><time>2026-05-01T08:08:35.44Z</time></trkpt><trkpt lat="44.43979" lon="11.4561783"><ele>81.19999999999999</ele><time>2026-05-01T08:08:37.443Z</time></trkpt><trkpt lat="44.4397567" lon="11.4563217"><ele>81.39999999999999</ele><time>2026-05-01T08:08:39.442Z</time></trkpt><trkpt lat="44.4397133" lon="11.456465"><ele>81.6</ele><time>2026-05-01T08:08:41.441Z</time></trkpt><trkpt lat="44.43968" lon="11.4566067"><ele>81.8</ele><time>2026-05-01T08:08:43.44Z</time></trkpt><trkpt lat="44.4396483" lon="11.4567383"><ele>82.0</ele><time>2026-05-01T08:08:45.441Z</time></trkpt><trkpt lat="44.4396217" lon="11.456865"><ele>82.19999999999999</ele><time>2026-05-01T08:08:47.444Z</time></trkpt><trkpt lat="44.4395933" lon="11.4569933"><ele>82.4</ele><time>2026-05-01T08:08:49.444Z</time></trkpt><trkpt lat="44.4395683" lon="11.45712"><ele>82.6</ele><time>2026-05-01T08:08:51.443Z</time></trkpt><trkpt lat="44.4395383" lon="11.4572483"><ele>82.80000000000001</ele><time>2026-05-01T08:08:53.443Z</time></trkpt><trkpt lat="44.4395083" lon="11.4573767"><ele>83.0</ele><time>2026-05-01T08:08:55.44Z</time></trkpt><trkpt lat="44.4394783" lon="11.4574867"><ele>83.0</ele><time>2026-05-01T08:08:57.442Z</time></trkpt><trkpt lat="44.4394633" lon="11.4576033"><ele>83.0</ele><time>2026-05-01T08:08:59.442Z</time></trkpt><trkpt lat="44.4394317" lon="11.4577267"><ele>83.0</ele><time>2026-05-01T08:09:01.442Z</time></trkpt><trkpt lat="44.4394067" lon="11.457855"><ele>83.0</ele><time>2026-05-01T08:09:03.442Z</time></trkpt><trkpt lat="44.4393783" lon="11.45798"><ele>83.0</ele><time>2026-05-01T08:09:05.441Z</time></trkpt><trkpt lat="44.4393533" lon="11.45811"><ele>83.60000000000001</ele><time>2026-05-01T08:09:07.442Z</time></trkpt><trkpt lat="44.43932" lon="11.4582383"><ele>84.2</ele><time>2026-05-01T08:09:09.441Z</time></trkpt><trkpt lat="44.4392883" lon="11.45837"><ele>84.8</ele><time>2026-05-01T08:09:11.442Z</time></trkpt><trkpt lat="44.43925" lon="11.4584983"><ele>85.4</ele><time>2026-05-01T08:09:13.442Z</time></trkpt><trkpt lat="44.43922" lon="11.45862"><ele>86.0</ele><time>2026-05-01T08:09:15.442Z</time></trkpt><trkpt lat="44.4391917" lon="11.458745"><ele>86.0</ele><time>2026-05-01T08:09:17.443Z</time></trkpt><trkpt lat="44.4391583" lon="11.4588733"><ele>86.0</ele><time>2026-05-01T08:09:19.443Z</time></trkpt><trkpt lat="44.4391283" lon="11.45901"><ele>86.0</ele><time>2026-05-01T08:09:21.444Z</time></trkpt><trkpt lat="44.4390983" lon="11.4591383"><ele>86.0</ele><time>2026-05-01T08:09:23.443Z</time></trkpt><trkpt lat="44.439065" lon="11.4592517"><ele>86.0</ele><time>2026-05-01T08:09:25.441Z</time></trkpt><trkpt lat="44.4390283" lon="11.4593767"><ele>86.0</ele><time>2026-05-01T08:09:27.441Z</time></trkpt><trkpt lat="44.4389917" lon="11.459505"><ele>86.0</ele><time>2026-05-01T08:09:29.442Z</time></trkpt><trkpt lat="44.4389517" lon="11.4596367"><ele>86.0</ele><time>2026-05-01T08:09:31.442Z</time></trkpt><trkpt lat="44.4389117" lon="11.45976"><ele>86.0</ele><time>2026-05-01T08:09:33.441Z</time></trkpt><trkpt lat="44.4388883" lon="11.4598867"><ele>86.0</ele><time>2026-05-01T08:09:35.442Z</time></trkpt><trkpt lat="44.438845" lon="11.4600167"><ele>85.4</ele><time>2026-05-01T08:09:37.44Z</time></trkpt><trkpt lat="44.438795" lon="11.4601517"><ele>84.8</ele><time>2026-05-01T08:09:39.442Z</time></trkpt><trkpt lat="44.4387417" lon="11.4602833"><ele>84.2</ele><time>2026-05-01T08:09:41.442Z</time></trkpt><trkpt lat="44.4386867" lon="11.4604217"><ele>83.60000000000001</ele><time>2026-05-01T08:09:43.443Z</time></trkpt><trkpt lat="44.438635" lon="11.4605517"><ele>83.0</ele><time>2026-05-01T08:09:45.442Z</time></trkpt><trkpt lat="44.4385783" lon="11.4606733"><ele>83.0</ele><time>2026-05-01T08:09:47.444Z</time></trkpt><trkpt lat="44.4384967" lon="11.4607883"><ele>83.0</ele><time>2026-05-01T08:09:49.443Z</time></trkpt><trkpt lat="44.43841" lon="11.4608833"><ele>83.0</ele><time>2026-05-01T08:09:51.442Z</time></trkpt><trkpt lat="44.43833" lon="11.4609817"><ele>83.0</ele><time>2026-05-01T08:09:53.442Z</time></trkpt><trkpt lat="44.4382467" lon="11.4610833"><ele>83.0</ele><time>2026-05-01T08:09:55.443Z</time></trkpt><trkpt lat="44.4381617" lon="11.4611783"><ele>83.0</ele><time>2026-05-01T08:09:57.443Z</time></trkpt><trkpt lat="44.4380733" lon="11.4612767"><ele>83.0</ele><time>2026-05-01T08:09:59.442Z</time></trkpt><trkpt lat="44.4379833" lon="11.4613633"><ele>83.0</ele><time>2026-05-01T08:10:01.442Z</time></trkpt><trkpt lat="44.4378883" lon="11.461445"><ele>83.0</ele><time>2026-05-01T08:10:03.443Z</time></trkpt><trkpt lat="44.4377933" lon="11.46152"><ele>83.0</ele><time>2026-05-01T08:10:05.444Z</time></trkpt><trkpt lat="44.4377" lon="11.4615967"><ele>82.4</ele><time>2026-05-01T08:10:07.445Z</time></trkpt><trkpt lat="44.4376083" lon="11.461685"><ele>81.80000000000001</ele><time>2026-05-01T08:10:09.443Z</time></trkpt><trkpt lat="44.4375217" lon="11.4617783"><ele>81.2</ele><time>2026-05-01T08:10:11.442Z</time></trkpt><trkpt lat="44.4374433" lon="11.4618783"><ele>80.6</ele><time>2026-05-01T08:10:13.442Z</time></trkpt><trkpt lat="44.4373733" lon="11.4619883"><ele>80.0</ele><time>2026-05-01T08:10:15.443Z</time></trkpt><trkpt lat="44.437315" lon="11.4621"><ele>79.6</ele><time>2026-05-01T08:10:17.444Z</time></trkpt><trkpt lat="44.4372617" lon="11.4622017"><ele>79.2</ele><time>2026-05-01T08:10:19.443Z</time></trkpt><trkpt lat="44.43721" lon="11.4623117"><ele>78.8</ele><time>2026-05-01T08:10:21.442Z</time></trkpt><trkpt lat="44.437155" lon="11.4624283"><ele>78.4</ele><time>2026-05-01T08:10:23.441Z</time></trkpt><trkpt lat="44.4370933" lon="11.4625483"><ele>78.0</ele><time>2026-05-01T08:10:25.442Z</time></trkpt><trkpt lat="44.437035" lon="11.4626717"><ele>79.0</ele><time>2026-05-01T08:10:27.442Z</time></trkpt><trkpt lat="44.43698" lon="11.4627883"><ele>80.0</ele><time>2026-05-01T08:10:29.442Z</time></trkpt><trkpt lat="44.4369267" lon="11.4629"><ele>81.0</ele><time>2026-05-01T08:10:31.441Z</time></trkpt><trkpt lat="44.4368783" lon="11.4630067"><ele>82.0</ele><time>2026-05-01T08:10:33.441Z</time></trkpt><trkpt lat="44.4368167" lon="11.4631083"><ele>83.0</ele><time>2026-05-01T08:10:35.442Z</time></trkpt><trkpt lat="44.4367283" lon="11.4631533"><ele>83.0</ele><time>2026-05-01T08:10:37.442Z</time></trkpt><trkpt lat="44.4366567" lon="11.4631217"><ele>83.0</ele><time>2026-05-01T08:10:39.441Z</time></trkpt><trkpt lat="44.436605" lon="11.4630383"><ele>83.0</ele><time>2026-05-01T08:10:41.442Z</time></trkpt><trkpt lat="44.4365683" lon="11.462965"><ele>83.0</ele><time>2026-05-01T08:10:43.444Z</time></trkpt><trkpt lat="44.4365383" lon="11.4628783"><ele>83.0</ele><time>2026-05-01T08:10:45.441Z</time></trkpt><trkpt lat="44.436495" lon="11.4628"><ele>83.0</ele><time>2026-05-01T08:10:47.444Z</time></trkpt><trkpt lat="44.43644" lon="11.462715"><ele>83.0</ele><time>2026-05-01T08:10:49.442Z</time></trkpt><trkpt lat="44.43638" lon="11.4626083"><ele>83.0</ele><time>2026-05-01T08:10:51.441Z</time></trkpt><trkpt lat="44.4363367" lon="11.4624917"><ele>83.0</ele><time>2026-05-01T08:10:53.442Z</time></trkpt><trkpt lat="44.4362917" lon="11.4624083"><ele>83.0</ele><time>2026-05-01T08:10:55.443Z</time></trkpt><trkpt lat="44.436255" lon="11.4623117"><ele>83.0</ele><time>2026-05-01T08:10:57.441Z</time></trkpt><trkpt lat="44.43621" lon="11.4622117"><ele>83.0</ele><time>2026-05-01T08:10:59.441Z</time></trkpt><trkpt lat="44.4361683" lon="11.4621317"><ele>83.0</ele><time>2026-05-01T08:11:01.442Z</time></trkpt><trkpt lat="44.4361233" lon="11.4620483"><ele>84.14285714285714</ele><time>2026-05-01T08:11:03.442Z</time></trkpt><trkpt lat="44.4360833" lon="11.461965"><ele>85.28571428571429</ele><time>2026-05-01T08:11:05.441Z</time></trkpt><trkpt lat="44.4360383" lon="11.4619017"><ele>86.42857142857143</ele><time>2026-05-01T08:11:07.443Z</time></trkpt><trkpt lat="44.43599" lon="11.461835"><ele>87.57142857142857</ele><time>2026-05-01T08:11:09.442Z</time></trkpt><trkpt lat="44.4359333" lon="11.461775"><ele>88.71428571428572</ele><time>2026-05-01T08:11:11.442Z</time></trkpt><trkpt lat="44.4358683" lon="11.4617183"><ele>89.85714285714286</ele><time>2026-05-01T08:11:13.443Z</time></trkpt><trkpt lat="44.4358067" lon="11.4616667"><ele>91.0</ele><time>2026-05-01T08:11:15.442Z</time></trkpt><trkpt lat="44.435755" lon="11.4616117"><ele>91.0</ele><time>2026-05-01T08:11:17.442Z</time></trkpt><trkpt lat="44.4356817" lon="11.4615417"><ele>91.0</ele><time>2026-05-01T08:11:20.443Z</time></trkpt><trkpt lat="44.4356017" lon="11.4614767"><ele>91.0</ele><time>2026-05-01T08:11:23.442Z</time></trkpt><trkpt lat="44.4355333" lon="11.46139"><ele>91.0</ele><time>2026-05-01T08:11:26.442Z</time></trkpt><trkpt lat="44.4354667" lon="11.4613083"><ele>91.0</ele><time>2026-05-01T08:11:29.442Z</time></trkpt><trkpt lat="44.4354033" lon="11.46123"><ele>91.0</ele><time>2026-05-01T08:11:32.442Z</time></trkpt><trkpt lat="44.435335" lon="11.4611633"><ele>92.0</ele><time>2026-05-01T08:11:35.442Z</time></trkpt><trkpt lat="44.435265" lon="11.4610817"><ele>93.0</ele><time>2026-05-01T08:11:38.441Z</time></trkpt><trkpt lat="44.4352" lon="11.4609983"><ele>94.0</ele><time>2026-05-01T08:11:41.442Z</time></trkpt><trkpt lat="44.435145" lon="11.46095"><ele>95.0</ele><time>2026-05-01T08:11:43.442Z</time></trkpt><trkpt lat="44.4350883" lon="11.4608583"><ele>96.00000000000001</ele><time>2026-05-01T08:11:46.442Z</time></trkpt><trkpt lat="44.4350383" lon="11.4607633"><ele>97.0</ele><time>2026-05-01T08:11:49.44Z</time></trkpt><trkpt lat="44.434985" lon="11.46067"><ele>97.00000000000001</ele><time>2026-05-01T08:11:52.441Z</time></trkpt><trkpt lat="44.4349233" lon="11.460585"><ele>97.0</ele><time>2026-05-01T08:11:55.442Z</time></trkpt><trkpt lat="44.4348617" lon="11.4604983"><ele>97.0</ele><time>2026-05-01T08:11:58.441Z</time></trkpt><trkpt lat="44.4348017" lon="11.4604117"><ele>97.0</ele><time>2026-05-01T08:12:01.441Z</time></trkpt><trkpt lat="44.43474" lon="11.460335"><ele>97.00000000000001</ele><time>2026-05-01T08:12:04.442Z</time></trkpt><trkpt lat="44.434685" lon="11.46026"><ele>97.0</ele><time>2026-05-01T08:12:07.442Z</time></trkpt><trkpt lat="44.4346317" lon="11.4601883"><ele>98.66666666666667</ele><time>2026-05-01T08:12:10.442Z</time></trkpt><trkpt lat="44.4345783" lon="11.4601183"><ele>100.33333333333334</ele><time>2026-05-01T08:12:13.442Z</time></trkpt><trkpt lat="44.434525" lon="11.4600367"><ele>102.0</ele><time>2026-05-01T08:12:16.443Z</time></trkpt><trkpt lat="44.434465" lon="11.4599617"><ele>103.66666666666666</ele><time>2026-05-01T08:12:19.441Z</time></trkpt><trkpt lat="44.4344083" lon="11.459885"><ele>105.33333333333333</ele><time>2026-05-01T08:12:22.441Z</time></trkpt><trkpt lat="44.434355" lon="11.4598017"><ele>107.0</ele><time>2026-05-01T08:12:25.441Z</time></trkpt><trkpt lat="44.4343" lon="11.459725"><ele>106.99999999999999</ele><time>2026-05-01T08:12:28.441Z</time></trkpt><trkpt lat="44.4342383" lon="11.4596567"><ele>107.0</ele><time>2026-05-01T08:12:31.44Z</time></trkpt><trkpt lat="44.434185" lon="11.4595833"><ele>107.0</ele><time>2026-05-01T08:12:34.442Z</time></trkpt><trkpt lat="44.4341217" lon="11.4595233"><ele>107.0</ele><time>2026-05-01T08:12:37.442Z</time></trkpt><trkpt lat="44.4340517" lon="11.4594667"><ele>106.99999999999999</ele><time>2026-05-01T08:12:40.442Z</time></trkpt><trkpt lat="44.4339817" lon="11.4594133"><ele>107.0</ele><time>2026-05-01T08:12:43.442Z</time></trkpt><trkpt lat="44.43392" lon="11.4593483"><ele>107.33333333333333</ele><time>2026-05-01T08:12:46.443Z</time></trkpt><trkpt lat="44.433845" lon="11.4593017"><ele>107.66666666666666</ele><time>2026-05-01T08:12:49.441Z</time></trkpt><trkpt lat="44.43377" lon="11.4592533"><ele>108.0</ele><time>2026-05-01T08:12:52.442Z</time></trkpt><trkpt lat="44.43369" lon="11.4591917"><ele>108.33333333333334</ele><time>2026-05-01T08:12:55.443Z</time></trkpt><trkpt lat="44.4336117" lon="11.459135"><ele>108.66666666666667</ele><time>2026-05-01T08:12:58.441Z</time></trkpt><trkpt lat="44.4335317" lon="11.4590867"><ele>109.0</ele><time>2026-05-01T08:13:01.44Z</time></trkpt><trkpt lat="44.4334733" lon="11.4590483"><ele>109.50000000000001</ele><time>2026-05-01T08:13:03.445Z</time></trkpt><trkpt lat="44.433425" lon="11.458985"><ele>110.0</ele><time>2026-05-01T08:13:05.44Z</time></trkpt><trkpt lat="44.4333433" lon="11.4589133"><ele>110.5</ele><time>2026-05-01T08:13:08.441Z</time></trkpt><trkpt lat="44.433285" lon="11.4588733"><ele>111.0</ele><time>2026-05-01T08:13:10.441Z</time></trkpt><trkpt lat="44.433235" lon="11.4588183"><ele>111.50000000000001</ele><time>2026-05-01T08:13:12.441Z</time></trkpt><trkpt lat="44.4331633" lon="11.4587367"><ele>112.0</ele><time>2026-05-01T08:13:15.44Z</time></trkpt><trkpt lat="44.43309" lon="11.4586717"><ele>112.28571428571428</ele><time>2026-05-01T08:13:18.44Z</time></trkpt><trkpt lat="44.433035" lon="11.4586217"><ele>112.57142857142857</ele><time>2026-05-01T08:13:20.442Z</time></trkpt><trkpt lat="44.43298" lon="11.4585717"><ele>112.85714285714286</ele><time>2026-05-01T08:13:22.441Z</time></trkpt><trkpt lat="44.4328983" lon="11.4585117"><ele>113.14285714285714</ele><time>2026-05-01T08:13:25.439Z</time></trkpt><trkpt lat="44.4328417" lon="11.45847"><ele>113.42857142857142</ele><time>2026-05-01T08:13:27.441Z</time></trkpt><trkpt lat="44.4327833" lon="11.4584183"><ele>113.71428571428571</ele><time>2026-05-01T08:13:29.439Z</time></trkpt><trkpt lat="44.4327267" lon="11.458365"><ele>114.0</ele><time>2026-05-01T08:13:31.44Z</time></trkpt><trkpt lat="44.4326683" lon="11.45832"><ele>114.14285714285714</ele><time>2026-05-01T08:13:33.44Z</time></trkpt><trkpt lat="44.4325867" lon="11.458255"><ele>114.28571428571428</ele><time>2026-05-01T08:13:36.441Z</time></trkpt><trkpt lat="44.4325283" lon="11.4582083"><ele>114.42857142857142</ele><time>2026-05-01T08:13:38.441Z</time></trkpt><trkpt lat="44.4324667" lon="11.4581683"><ele>114.57142857142856</ele><time>2026-05-01T08:13:40.439Z</time></trkpt><trkpt lat="44.43241" lon="11.4581233"><ele>114.71428571428571</ele><time>2026-05-01T08:13:42.439Z</time></trkpt><trkpt lat="44.432355" lon="11.4580733"><ele>114.85714285714283</ele><time>2026-05-01T08:13:44.441Z</time></trkpt><trkpt lat="44.4322983" lon="11.4580333"><ele>114.99999999999999</ele><time>2026-05-01T08:13:46.442Z</time></trkpt><trkpt lat="44.4322433" lon="11.4579867"><ele>115.42857142857142</ele><time>2026-05-01T08:13:48.443Z</time></trkpt><trkpt lat="44.4321867" lon="11.4579383"><ele>115.85714285714286</ele><time>2026-05-01T08:13:50.443Z</time></trkpt><trkpt lat="44.4321283" lon="11.4578967"><ele>116.28571428571428</ele><time>2026-05-01T08:13:52.443Z</time></trkpt><trkpt lat="44.4320717" lon="11.457855"><ele>116.71428571428571</ele><time>2026-05-01T08:13:54.442Z</time></trkpt><trkpt lat="44.4320117" lon="11.4578067"><ele>117.14285714285714</ele><time>2026-05-01T08:13:56.442Z</time></trkpt><trkpt lat="44.4319533" lon="11.45776"><ele>117.57142857142857</ele><time>2026-05-01T08:13:58.441Z</time></trkpt><trkpt lat="44.431895" lon="11.4577067"><ele>118.0</ele><time>2026-05-01T08:14:00.441Z</time></trkpt><trkpt lat="44.4318383" lon="11.4576617"><ele>118.0</ele><time>2026-05-01T08:14:02.44Z</time></trkpt><trkpt lat="44.43178" lon="11.45762"><ele>118.0</ele><time>2026-05-01T08:14:04.441Z</time></trkpt><trkpt lat="44.4317233" lon="11.4575783"><ele>118.0</ele><time>2026-05-01T08:14:06.441Z</time></trkpt><trkpt lat="44.43167" lon="11.4575217"><ele>118.0</ele><time>2026-05-01T08:14:08.44Z</time></trkpt><trkpt lat="44.4316167" lon="11.4574717"><ele>118.0</ele><time>2026-05-01T08:14:10.442Z</time></trkpt><trkpt lat="44.4315617" lon="11.4574283"><ele>118.0</ele><time>2026-05-01T08:14:12.441Z</time></trkpt><trkpt lat="44.4315033" lon="11.4573833"><ele>118.0</ele><time>2026-05-01T08:14:14.44Z</time></trkpt><trkpt lat="44.4314433" lon="11.4573433"><ele>118.00000000000001</ele><time>2026-05-01T08:14:16.443Z</time></trkpt><trkpt lat="44.4313883" lon="11.4572883"><ele>118.0</ele><time>2026-05-01T08:14:18.443Z</time></trkpt><trkpt lat="44.4313317" lon="11.4572383"><ele>118.0</ele><time>2026-05-01T08:14:20.443Z</time></trkpt><trkpt lat="44.4312567" lon="11.457175"><ele>118.0</ele><time>2026-05-01T08:14:23.442Z</time></trkpt><trkpt lat="44.4311817" lon="11.457115"><ele>118.00000000000001</ele><time>2026-05-01T08:14:26.441Z</time></trkpt><trkpt lat="44.4311067" lon="11.4570483"><ele>118.0</ele><time>2026-05-01T08:14:29.441Z</time></trkpt><trkpt lat="44.4310267" lon="11.4569883"><ele>118.33333333333334</ele><time>2026-05-01T08:14:32.441Z</time></trkpt><trkpt lat="44.4309517" lon="11.4569267"><ele>118.66666666666667</ele><time>2026-05-01T08:14:35.441Z</time></trkpt><trkpt lat="44.430875" lon="11.4568817"><ele>119.0</ele><time>2026-05-01T08:14:38.44Z</time></trkpt><trkpt lat="44.430815" lon="11.4568"><ele>119.33333333333334</ele><time>2026-05-01T08:14:41.441Z</time></trkpt><trkpt lat="44.4307483" lon="11.45674"><ele>119.66666666666667</ele><time>2026-05-01T08:14:44.441Z</time></trkpt><trkpt lat="44.4306817" lon="11.4566867"><ele>120.0</ele><time>2026-05-01T08:14:47.443Z</time></trkpt><trkpt lat="44.430615" lon="11.4566383"><ele>120.0</ele><time>2026-05-01T08:14:50.442Z</time></trkpt><trkpt lat="44.4305417" lon="11.45658"><ele>120.0</ele><time>2026-05-01T08:14:53.443Z</time></trkpt><trkpt lat="44.4304767" lon="11.4565033"><ele>120.0</ele><time>2026-05-01T08:14:56.442Z</time></trkpt><trkpt lat="44.4304083" lon="11.4564533"><ele>120.0</ele><time>2026-05-01T08:14:59.442Z</time></trkpt><trkpt lat="44.4303467" lon="11.4563967"><ele>120.0</ele><time>2026-05-01T08:15:02.442Z</time></trkpt><trkpt lat="44.4302817" lon="11.4563383"><ele>120.0</ele><time>2026-05-01T08:15:05.442Z</time></trkpt><trkpt lat="44.4302183" lon="11.4562667"><ele>121.28571428571429</ele><time>2026-05-01T08:15:08.442Z</time></trkpt><trkpt lat="44.430165" lon="11.4562167"><ele>122.57142857142856</ele><time>2026-05-01T08:15:11.442Z</time></trkpt><trkpt lat="44.4301067" lon="11.4561783"><ele>123.85714285714285</ele><time>2026-05-01T08:15:14.442Z</time></trkpt><trkpt lat="44.4300333" lon="11.45613"><ele>125.14285714285714</ele><time>2026-05-01T08:15:18.444Z</time></trkpt><trkpt lat="44.4299783" lon="11.4560867"><ele>126.42857142857142</ele><time>2026-05-01T08:15:21.442Z</time></trkpt><trkpt lat="44.4299033" lon="11.456035"><ele>127.7142857142857</ele><time>2026-05-01T08:15:25.442Z</time></trkpt><trkpt lat="44.4298483" lon="11.4559833"><ele>129.0</ele><time>2026-05-01T08:15:28.442Z</time></trkpt><trkpt lat="44.4297933" lon="11.4559383"><ele>128.99999999999997</ele><time>2026-05-01T08:15:31.442Z</time></trkpt><trkpt lat="44.4297383" lon="11.455885"><ele>129.0</ele><time>2026-05-01T08:15:34.441Z</time></trkpt><trkpt lat="44.429695" lon="11.4558183"><ele>129.0</ele><time>2026-05-01T08:15:37.443Z</time></trkpt><trkpt lat="44.429635" lon="11.455755"><ele>129.0</ele><time>2026-05-01T08:15:41.442Z</time></trkpt><trkpt lat="44.429585" lon="11.4557"><ele>129.0</ele><time>2026-05-01T08:15:44.442Z</time></trkpt><trkpt lat="44.4295283" lon="11.4556567"><ele>128.99999999999997</ele><time>2026-05-01T08:15:47.444Z</time></trkpt><trkpt lat="44.42946" lon="11.4556033"><ele>129.0</ele><time>2026-05-01T08:15:51.442Z</time></trkpt><trkpt lat="44.429385" lon="11.455565"><ele>130.83333333333334</ele><time>2026-05-01T08:15:55.442Z</time></trkpt><trkpt lat="44.4293083" lon="11.4555417"><ele>132.66666666666666</ele><time>2026-05-01T08:15:59.441Z</time></trkpt><trkpt lat="44.429235" lon="11.4555483"><ele>134.5</ele><time>2026-05-01T08:16:03.441Z</time></trkpt><trkpt lat="44.4291567" lon="11.455555"><ele>136.33333333333331</ele><time>2026-05-01T08:16:07.442Z</time></trkpt><trkpt lat="44.4290933" lon="11.4555783"><ele>138.16666666666666</ele><time>2026-05-01T08:16:10.442Z</time></trkpt><trkpt lat="44.4290133" lon="11.4556033"><ele>140.0</ele><time>2026-05-01T08:16:14.442Z</time></trkpt><trkpt lat="44.4289417" lon="11.4556333"><ele>140.0</ele><time>2026-05-01T08:16:18.444Z</time></trkpt><trkpt lat="44.42886" lon="11.45566"><ele>140.0</ele><time>2026-05-01T08:16:22.441Z</time></trkpt><trkpt lat="44.428795" lon="11.45568"><ele>140.0</ele><time>2026-05-01T08:16:25.443Z</time></trkpt><trkpt lat="44.4287233" lon="11.4556833"><ele>140.0</ele><time>2026-05-01T08:16:28.443Z</time></trkpt><trkpt lat="44.4286467" lon="11.455655"><ele>140.0</ele><time>2026-05-01T08:16:31.444Z</time></trkpt><trkpt lat="44.4285717" lon="11.4556367"><ele>140.0</ele><time>2026-05-01T08:16:34.441Z</time></trkpt><trkpt lat="44.428485" lon="11.4556117"><ele>140.28571428571428</ele><time>2026-05-01T08:16:37.443Z</time></trkpt><trkpt lat="44.4283967" lon="11.4555733"><ele>140.57142857142856</ele><time>2026-05-01T08:16:40.441Z</time></trkpt><trkpt lat="44.4283367" lon="11.4555433"><ele>140.85714285714286</ele><time>2026-05-01T08:16:42.443Z</time></trkpt><trkpt lat="44.4282717" lon="11.4555167"><ele>141.14285714285714</ele><time>2026-05-01T08:16:44.439Z</time></trkpt><trkpt lat="44.4282067" lon="11.4554883"><ele>141.42857142857142</ele><time>2026-05-01T08:16:46.443Z</time></trkpt><trkpt lat="44.428135" lon="11.45547"><ele>141.71428571428572</ele><time>2026-05-01T08:16:48.441Z</time></trkpt><trkpt lat="44.428065" lon="11.4554467"><ele>142.0</ele><time>2026-05-01T08:16:50.442Z</time></trkpt><trkpt lat="44.4279867" lon="11.4554167"><ele>142.66666666666669</ele><time>2026-05-01T08:16:52.442Z</time></trkpt><trkpt lat="44.427905" lon="11.455385"><ele>143.33333333333334</ele><time>2026-05-01T08:16:54.442Z</time></trkpt><trkpt lat="44.4278217" lon="11.4553533"><ele>144.0</ele><time>2026-05-01T08:16:56.443Z</time></trkpt><trkpt lat="44.427735" lon="11.4553167"><ele>144.66666666666666</ele><time>2026-05-01T08:16:58.442Z</time></trkpt><trkpt lat="44.427645" lon="11.455285"><ele>145.33333333333331</ele><time>2026-05-01T08:17:00.441Z</time></trkpt><trkpt lat="44.42756" lon="11.45525"><ele>146.0</ele><time>2026-05-01T08:17:02.443Z</time></trkpt><trkpt lat="44.4274667" lon="11.455215"><ele>146.0</ele><time>2026-05-01T08:17:04.443Z</time></trkpt><trkpt lat="44.42737" lon="11.4551817"><ele>146.0</ele><time>2026-05-01T08:17:06.443Z</time></trkpt><trkpt lat="44.4272733" lon="11.45516"><ele>146.0</ele><time>2026-05-01T08:17:08.442Z</time></trkpt><trkpt lat="44.42718" lon="11.4551317"><ele>146.0</ele><time>2026-05-01T08:17:10.443Z</time></trkpt><trkpt lat="44.4270917" lon="11.4551033"><ele>146.0</ele><time>2026-05-01T08:17:12.443Z</time></trkpt><trkpt lat="44.42701" lon="11.4550833"><ele>146.5</ele><time>2026-05-01T08:17:14.443Z</time></trkpt><trkpt lat="44.4269317" lon="11.4550517"><ele>147.0</ele><time>2026-05-01T08:17:16.443Z</time></trkpt><trkpt lat="44.4268517" lon="11.455025"><ele>147.5</ele><time>2026-05-01T08:17:18.441Z</time></trkpt><trkpt lat="44.4267783" lon="11.4549883"><ele>148.0</ele><time>2026-05-01T08:17:20.443Z</time></trkpt><trkpt lat="44.4267117" lon="11.4549283"><ele>148.5</ele><time>2026-05-01T08:17:22.442Z</time></trkpt><trkpt lat="44.4266467" lon="11.45487"><ele>149.0</ele><time>2026-05-01T08:17:24.441Z</time></trkpt><trkpt lat="44.42658" lon="11.454805"><ele>149.0</ele><time>2026-05-01T08:17:26.441Z</time></trkpt><trkpt lat="44.4265133" lon="11.454745"><ele>149.0</ele><time>2026-05-01T08:17:28.442Z</time></trkpt><trkpt lat="44.42645" lon="11.4546883"><ele>149.0</ele><time>2026-05-01T08:17:30.442Z</time></trkpt><trkpt lat="44.4263833" lon="11.4546417"><ele>149.0</ele><time>2026-05-01T08:17:32.442Z</time></trkpt><trkpt lat="44.4263167" lon="11.4546017"><ele>149.0</ele><time>2026-05-01T08:17:34.443Z</time></trkpt><trkpt lat="44.4262533" lon="11.4545683"><ele>149.0</ele><time>2026-05-01T08:17:36.442Z</time></trkpt><trkpt lat="44.4261933" lon="11.4545317"><ele>149.0</ele><time>2026-05-01T08:17:38.439Z</time></trkpt><trkpt lat="44.4261267" lon="11.4545017"><ele>149.28571428571428</ele><time>2026-05-01T08:17:40.441Z</time></trkpt><trkpt lat="44.426065" lon="11.45448"><ele>149.57142857142856</ele><time>2026-05-01T08:17:42.44Z</time></trkpt><trkpt lat="44.426" lon="11.4544733"><ele>149.85714285714286</ele><time>2026-05-01T08:17:44.441Z</time></trkpt><trkpt lat="44.42592" lon="11.4544567"><ele>150.14285714285714</ele><time>2026-05-01T08:17:47.441Z</time></trkpt><trkpt lat="44.4258417" lon="11.4544667"><ele>150.42857142857144</ele><time>2026-05-01T08:17:50.441Z</time></trkpt><trkpt lat="44.4257733" lon="11.4544467"><ele>150.71428571428572</ele><time>2026-05-01T08:17:52.441Z</time></trkpt><trkpt lat="44.425705" lon="11.4544317"><ele>151.0</ele><time>2026-05-01T08:17:54.441Z</time></trkpt><trkpt lat="44.4256283" lon="11.4544367"><ele>151.0</ele><time>2026-05-01T08:17:57.44Z</time></trkpt><trkpt lat="44.425555" lon="11.4544317"><ele>151.0</ele><time>2026-05-01T08:18:00.441Z</time></trkpt><trkpt lat="44.425475" lon="11.4544433"><ele>151.0</ele><time>2026-05-01T08:18:04.44Z</time></trkpt><trkpt lat="44.4254" lon="11.4544317"><ele>151.0</ele><time>2026-05-01T08:18:08.438Z</time></trkpt><trkpt lat="44.4253317" lon="11.4544317"><ele>151.0</ele><time>2026-05-01T08:18:12.439Z</time></trkpt><trkpt lat="44.4252583" lon="11.4544317"><ele>151.0</ele><time>2026-05-01T08:18:15.443Z</time></trkpt><trkpt lat="44.4251767" lon="11.4544467"><ele>152.2857142857143</ele><time>2026-05-01T08:18:18.44Z</time></trkpt><trkpt lat="44.4251017" lon="11.4544383"><ele>153.57142857142858</ele><time>2026-05-01T08:18:21.441Z</time></trkpt><trkpt lat="44.4250367" lon="11.4544433"><ele>154.85714285714286</ele><time>2026-05-01T08:18:24.44Z</time></trkpt><trkpt lat="44.4249667" lon="11.4544733"><ele>156.14285714285717</ele><time>2026-05-01T08:18:30.441Z</time></trkpt><trkpt lat="44.4249" lon="11.4544583"><ele>157.42857142857144</ele><time>2026-05-01T08:18:37.44Z</time></trkpt><trkpt lat="44.4248267" lon="11.4544617"><ele>158.71428571428572</ele><time>2026-05-01T08:18:42.439Z</time></trkpt><trkpt lat="44.42476" lon="11.4544333"><ele>160.0</ele><time>2026-05-01T08:18:47.441Z</time></trkpt><trkpt lat="44.4246933" lon="11.4544383"><ele>162.42857142857142</ele><time>2026-05-01T08:18:52.44Z</time></trkpt><trkpt lat="44.424625" lon="11.4544417"><ele>164.85714285714286</ele><time>2026-05-01T08:18:57.441Z</time></trkpt><trkpt lat="44.4245567" lon="11.4544683"><ele>167.28571428571428</ele><time>2026-05-01T08:19:02.44Z</time></trkpt><trkpt lat="44.4244917" lon="11.45451"><ele>169.71428571428572</ele><time>2026-05-01T08:19:08.439Z</time></trkpt><trkpt lat="44.42444" lon="11.454575"><ele>172.14285714285714</ele><time>2026-05-01T08:19:13.44Z</time></trkpt><trkpt lat="44.4243617" lon="11.45462"><ele>174.57142857142858</ele><time>2026-05-01T08:19:20.442Z</time></trkpt><trkpt lat="44.4242933" lon="11.4546367"><ele>177.0</ele><time>2026-05-01T08:19:24.44Z</time></trkpt><trkpt lat="44.42424" lon="11.4546967"><ele>177.2857142857143</ele><time>2026-05-01T08:19:28.44Z</time></trkpt><trkpt lat="44.4241983" lon="11.454765"><ele>177.57142857142856</ele><time>2026-05-01T08:19:33.441Z</time></trkpt><trkpt lat="44.4241367" lon="11.4548633"><ele>177.85714285714286</ele><time>2026-05-01T08:19:42.44Z</time></trkpt><trkpt lat="44.4240867" lon="11.454925"><ele>178.14285714285717</ele><time>2026-05-01T08:19:46.442Z</time></trkpt><trkpt lat="44.424055" lon="11.45502"><ele>178.42857142857144</ele><time>2026-05-01T08:19:52.442Z</time></trkpt><trkpt lat="44.4240017" lon="11.4550983"><ele>178.71428571428572</ele><time>2026-05-01T08:19:58.441Z</time></trkpt><trkpt lat="44.4239717" lon="11.4551833"><ele>179.0</ele><time>2026-05-01T08:20:03.439Z</time></trkpt><trkpt lat="44.4239583" lon="11.45528"><ele>179.0</ele><time>2026-05-01T08:20:08.44Z</time></trkpt><trkpt lat="44.42392" lon="11.4553817"><ele>179.0</ele><time>2026-05-01T08:20:12.44Z</time></trkpt><trkpt lat="44.42389" lon="11.4554833"><ele>179.0</ele><time>2026-05-01T08:20:15.44Z</time></trkpt><trkpt lat="44.4238583" lon="11.45557"><ele>179.0</ele><time>2026-05-01T08:20:17.443Z</time></trkpt><trkpt lat="44.42382" lon="11.45566"><ele>179.0</ele><time>2026-05-01T08:20:19.44Z</time></trkpt><trkpt lat="44.4237583" lon="11.4557567"><ele>179.0</ele><time>2026-05-01T08:20:21.44Z</time></trkpt><trkpt lat="44.4237117" lon="11.455825"><ele>178.5</ele><time>2026-05-01T08:20:22.439Z</time></trkpt><trkpt lat="44.42366" lon="11.4558967"><ele>178.0</ele><time>2026-05-01T08:20:23.443Z</time></trkpt><trkpt lat="44.4236083" lon="11.455975"><ele>177.5</ele><time>2026-05-01T08:20:24.442Z</time></trkpt><trkpt lat="44.4235533" lon="11.4560583"><ele>177.0</ele><time>2026-05-01T08:20:25.44Z</time></trkpt><trkpt lat="44.4235017" lon="11.45614"><ele>176.5</ele><time>2026-05-01T08:20:26.44Z</time></trkpt><trkpt lat="44.4234517" lon="11.4562333"><ele>176.0</ele><time>2026-05-01T08:20:27.439Z</time></trkpt><trkpt lat="44.4233933" lon="11.4563283"><ele>176.0</ele><time>2026-05-01T08:20:28.44Z</time></trkpt><trkpt lat="44.4233433" lon="11.4564183"><ele>176.0</ele><time>2026-05-01T08:20:29.44Z</time></trkpt><trkpt lat="44.4232817" lon="11.4565083"><ele>176.0</ele><time>2026-05-01T08:20:30.44Z</time></trkpt><trkpt lat="44.4232167" lon="11.45659"><ele>176.0</ele><time>2026-05-01T08:20:31.442Z</time></trkpt><trkpt lat="44.4231517" lon="11.4566667"><ele>176.0</ele><time>2026-05-01T08:20:32.44Z</time></trkpt><trkpt lat="44.423095" lon="11.4567367"><ele>176.0</ele><time>2026-05-01T08:20:33.44Z</time></trkpt><trkpt lat="44.4230417" lon="11.4568083"><ele>176.0</ele><time>2026-05-01T08:20:34.44Z</time></trkpt><trkpt lat="44.4229917" lon="11.456875"><ele>176.0</ele><time>2026-05-01T08:20:35.44Z</time></trkpt><trkpt lat="44.4229417" lon="11.4569367"><ele>176.0</ele><time>2026-05-01T08:20:36.441Z</time></trkpt><trkpt lat="44.42286" lon="11.45705"><ele>176.0</ele><time>2026-05-01T08:20:38.44Z</time></trkpt><trkpt lat="44.4227867" lon="11.4571433"><ele>176.0</ele><time>2026-05-01T08:20:40.439Z</time></trkpt><trkpt lat="44.422725" lon="11.4572283"><ele>176.0</ele><time>2026-05-01T08:20:42.441Z</time></trkpt><trkpt lat="44.4226717" lon="11.457315"><ele>176.71428571428572</ele><time>2026-05-01T08:20:44.44Z</time></trkpt><trkpt lat="44.4226217" lon="11.4574"><ele>177.42857142857142</ele><time>2026-05-01T08:20:46.443Z</time></trkpt><trkpt lat="44.4225683" lon="11.4574817"><ele>178.14285714285714</ele><time>2026-05-01T08:20:48.443Z</time></trkpt><trkpt lat="44.422515" lon="11.4575533"><ele>178.85714285714286</ele><time>2026-05-01T08:20:50.442Z</time></trkpt><trkpt lat="44.4224667" lon="11.457625"><ele>179.57142857142856</ele><time>2026-05-01T08:20:52.443Z</time></trkpt><trkpt lat="44.4224167" lon="11.4576883"><ele>180.28571428571428</ele><time>2026-05-01T08:20:54.443Z</time></trkpt><trkpt lat="44.4223717" lon="11.4577517"><ele>181.0</ele><time>2026-05-01T08:20:56.44Z</time></trkpt><trkpt lat="44.4223283" lon="11.4578183"><ele>181.0</ele><time>2026-05-01T08:20:58.439Z</time></trkpt><trkpt lat="44.4222833" lon="11.457885"><ele>181.0</ele><time>2026-05-01T08:21:00.441Z</time></trkpt><trkpt lat="44.422225" lon="11.4579783"><ele>181.0</ele><time>2026-05-01T08:21:03.439Z</time></trkpt><trkpt lat="44.4221517" lon="11.45806"><ele>181.0</ele><time>2026-05-01T08:21:06.44Z</time></trkpt><trkpt lat="44.42209" lon="11.4581433"><ele>181.0</ele><time>2026-05-01T08:21:09.44Z</time></trkpt><trkpt lat="44.4220333" lon="11.4582317"><ele>181.0</ele><time>2026-05-01T08:21:12.44Z</time></trkpt><trkpt lat="44.4219783" lon="11.4583183"><ele>182.0</ele><time>2026-05-01T08:21:15.439Z</time></trkpt><trkpt lat="44.42191" lon="11.45836"><ele>183.0</ele><time>2026-05-01T08:21:18.443Z</time></trkpt><trkpt lat="44.4218367" lon="11.45835"><ele>184.0</ele><time>2026-05-01T08:21:22.443Z</time></trkpt><trkpt lat="44.421785" lon="11.4582867"><ele>185.0</ele><time>2026-05-01T08:21:26.441Z</time></trkpt><trkpt lat="44.42174" lon="11.4582183"><ele>186.0</ele><time>2026-05-01T08:21:30.44Z</time></trkpt><trkpt lat="44.4217033" lon="11.4581333"><ele>187.0</ele><time>2026-05-01T08:21:35.44Z</time></trkpt><trkpt lat="44.4216917" lon="11.4580217"><ele>188.0</ele><time>2026-05-01T08:21:42.443Z</time></trkpt><trkpt lat="44.4217217" lon="11.4579317"><ele>190.42857142857142</ele><time>2026-05-01T08:21:47.443Z</time></trkpt><trkpt lat="44.4217567" lon="11.4578583"><ele>192.85714285714283</ele><time>2026-05-01T08:21:52.439Z</time></trkpt><trkpt lat="44.4217983" lon="11.45777"><ele>195.28571428571428</ele><time>2026-05-01T08:21:58.44Z</time></trkpt><trkpt lat="44.42183" lon="11.4576783"><ele>197.71428571428572</ele><time>2026-05-01T08:22:03.44Z</time></trkpt><trkpt lat="44.42186" lon="11.45759"><ele>200.14285714285714</ele><time>2026-05-01T08:22:08.439Z</time></trkpt><trkpt lat="44.421895" lon="11.4575083"><ele>202.57142857142858</ele><time>2026-05-01T08:22:13.441Z</time></trkpt><trkpt lat="44.4219167" lon="11.4574183"><ele>205.0</ele><time>2026-05-01T08:22:18.439Z</time></trkpt><trkpt lat="44.4219317" lon="11.45732"><ele>205.0</ele><time>2026-05-01T08:22:23.439Z</time></trkpt><trkpt lat="44.4219533" lon="11.4572167"><ele>205.0</ele><time>2026-05-01T08:22:30.44Z</time></trkpt><trkpt lat="44.42199" lon="11.45714"><ele>205.0</ele><time>2026-05-01T08:22:35.44Z</time></trkpt><trkpt lat="44.4220117" lon="11.4570517"><ele>205.0</ele><time>2026-05-01T08:22:40.44Z</time></trkpt><trkpt lat="44.422015" lon="11.4569517"><ele>205.0</ele><time>2026-05-01T08:22:45.441Z</time></trkpt><trkpt lat="44.42203" lon="11.45686"><ele>205.0</ele><time>2026-05-01T08:22:51.441Z</time></trkpt><trkpt lat="44.42205" lon="11.456775"><ele>205.0</ele><time>2026-05-01T08:22:56.441Z</time></trkpt><trkpt lat="44.42207" lon="11.4566783"><ele>206.71428571428572</ele><time>2026-05-01T08:23:00.439Z</time></trkpt><trkpt lat="44.4220917" lon="11.4565883"><ele>208.42857142857142</ele><time>2026-05-01T08:23:04.44Z</time></trkpt><trkpt lat="44.422105" lon="11.4564867"><ele>210.14285714285714</ele><time>2026-05-01T08:23:09.44Z</time></trkpt><trkpt lat="44.42212" lon="11.4563967"><ele>211.85714285714286</ele><time>2026-05-01T08:23:14.44Z</time></trkpt><trkpt lat="44.4221467" lon="11.456305"><ele>213.57142857142856</ele><time>2026-05-01T08:23:21.44Z</time></trkpt><trkpt lat="44.4221667" lon="11.4562133"><ele>215.28571428571428</ele><time>2026-05-01T08:23:28.439Z</time></trkpt><trkpt lat="44.4221833" lon="11.456125"><ele>217.0</ele><time>2026-05-01T08:23:34.44Z</time></trkpt><trkpt lat="44.4222183" lon="11.4560517"><ele>217.0</ele><time>2026-05-01T08:23:39.442Z</time></trkpt><trkpt lat="44.4222033" lon="11.4559633"><ele>217.0</ele><time>2026-05-01T08:23:45.439Z</time></trkpt><trkpt lat="44.4221383" lon="11.45599"><ele>217.0</ele><time>2026-05-01T08:23:51.441Z</time></trkpt><trkpt lat="44.42209" lon="11.4560667"><ele>217.0</ele><time>2026-05-01T08:23:55.442Z</time></trkpt><trkpt lat="44.4220417" lon="11.4561233"><ele>217.0</ele><time>2026-05-01T08:23:58.441Z</time></trkpt><trkpt lat="44.4219867" lon="11.4561867"><ele>217.0</ele><time>2026-05-01T08:24:02.441Z</time></trkpt><trkpt lat="44.4219367" lon="11.4562483"><ele>217.0</ele><time>2026-05-01T08:24:07.441Z</time></trkpt><trkpt lat="44.42188" lon="11.4562917"><ele>217.57142857142858</ele><time>2026-05-01T08:24:10.44Z</time></trkpt><trkpt lat="44.4218233" lon="11.4563483"><ele>218.14285714285714</ele><time>2026-05-01T08:24:13.44Z</time></trkpt><trkpt lat="44.4217717" lon="11.4564033"><ele>218.71428571428572</ele><time>2026-05-01T08:24:16.44Z</time></trkpt><trkpt lat="44.4217117" lon="11.4564533"><ele>219.28571428571428</ele><time>2026-05-01T08:24:19.44Z</time></trkpt><trkpt lat="44.42166" lon="11.45653"><ele>219.85714285714286</ele><time>2026-05-01T08:24:23.44Z</time></trkpt><trkpt lat="44.4216283" lon="11.456625"><ele>220.42857142857144</ele><time>2026-05-01T08:24:27.44Z</time></trkpt><trkpt lat="44.4215883" lon="11.4567017"><ele>221.0</ele><time>2026-05-01T08:24:30.441Z</time></trkpt><trkpt lat="44.42154" lon="11.4567933"><ele>221.00000000000003</ele><time>2026-05-01T08:24:33.439Z</time></trkpt><trkpt lat="44.421505" lon="11.4569067"><ele>221.0</ele><time>2026-05-01T08:24:37.44Z</time></trkpt><trkpt lat="44.42144" lon="11.456975"><ele>221.0</ele><time>2026-05-01T08:24:40.44Z</time></trkpt><trkpt lat="44.4213783" lon="11.4570517"><ele>221.0</ele><time>2026-05-01T08:24:43.44Z</time></trkpt><trkpt lat="44.42132" lon="11.457095"><ele>221.00000000000003</ele><time>2026-05-01T08:24:46.44Z</time></trkpt><trkpt lat="44.4212483" lon="11.4571033"><ele>221.0</ele><time>2026-05-01T08:24:50.439Z</time></trkpt><trkpt lat="44.421175" lon="11.4571267"><ele>223.0</ele><time>2026-05-01T08:24:54.44Z</time></trkpt><trkpt lat="44.421095" lon="11.457115"><ele>225.0</ele><time>2026-05-01T08:24:58.44Z</time></trkpt><trkpt lat="44.4210183" lon="11.4570817"><ele>227.0</ele><time>2026-05-01T08:25:02.44Z</time></trkpt><trkpt lat="44.4209517" lon="11.4570733"><ele>229.0</ele><time>2026-05-01T08:25:05.441Z</time></trkpt><trkpt lat="44.42089" lon="11.4570317"><ele>230.99999999999997</ele><time>2026-05-01T08:25:08.441Z</time></trkpt><trkpt lat="44.420825" lon="11.4569633"><ele>233.0</ele><time>2026-05-01T08:25:12.44Z</time></trkpt><trkpt lat="44.42077" lon="11.45692"><ele>235.0</ele><time>2026-05-01T08:25:15.44Z</time></trkpt><trkpt lat="44.420715" lon="11.456865"><ele>235.0</ele><time>2026-05-01T08:25:18.439Z</time></trkpt><trkpt lat="44.4206533" lon="11.4567983"><ele>234.99999999999997</ele><time>2026-05-01T08:25:21.44Z</time></trkpt><trkpt lat="44.4205883" lon="11.4567433"><ele>235.0</ele><time>2026-05-01T08:25:24.443Z</time></trkpt><trkpt lat="44.4205433" lon="11.4566767"><ele>235.0</ele><time>2026-05-01T08:25:27.44Z</time></trkpt><trkpt lat="44.4204917" lon="11.4565967"><ele>234.99999999999997</ele><time>2026-05-01T08:25:31.439Z</time></trkpt><trkpt lat="44.4204333" lon="11.45653"><ele>235.0</ele><time>2026-05-01T08:25:35.441Z</time></trkpt><trkpt lat="44.4203783" lon="11.4564583"><ele>235.0</ele><time>2026-05-01T08:25:40.44Z</time></trkpt><trkpt lat="44.4203267" lon="11.4563717"><ele>237.7142857142857</ele><time>2026-05-01T08:25:44.441Z</time></trkpt><trkpt lat="44.42028" lon="11.4562767"><ele>240.4285714285714</ele><time>2026-05-01T08:25:48.444Z</time></trkpt><trkpt lat="44.42023" lon="11.45621"><ele>243.14285714285714</ele><time>2026-05-01T08:25:52.444Z</time></trkpt><trkpt lat="44.4201717" lon="11.4561683"><ele>245.85714285714283</ele><time>2026-05-01T08:25:57.439Z</time></trkpt><trkpt lat="44.4201033" lon="11.4561333"><ele>248.57142857142856</ele><time>2026-05-01T08:26:02.439Z</time></trkpt><trkpt lat="44.4200333" lon="11.4560967"><ele>251.28571428571428</ele><time>2026-05-01T08:26:06.442Z</time></trkpt><trkpt lat="44.4199717" lon="11.4560733"><ele>254.0</ele><time>2026-05-01T08:26:09.44Z</time></trkpt><trkpt lat="44.419905" lon="11.456035"><ele>254.0</ele><time>2026-05-01T08:26:13.44Z</time></trkpt><trkpt lat="44.4198317" lon="11.4560167"><ele>254.0</ele><time>2026-05-01T08:26:18.443Z</time></trkpt><trkpt lat="44.41976" lon="11.4559867"><ele>254.0</ele><time>2026-05-01T08:26:23.442Z</time></trkpt><trkpt lat="44.4197083" lon="11.4559267"><ele>254.0</ele><time>2026-05-01T08:26:28.443Z</time></trkpt><trkpt lat="44.4196517" lon="11.4558733"><ele>254.0</ele><time>2026-05-01T08:26:32.441Z</time></trkpt><trkpt lat="44.419585" lon="11.4558283"><ele>254.0</ele><time>2026-05-01T08:26:36.442Z</time></trkpt><trkpt lat="44.41953" lon="11.455765"><ele>254.0</ele><time>2026-05-01T08:26:40.441Z</time></trkpt><trkpt lat="44.41948" lon="11.4556967"><ele>252.57142857142858</ele><time>2026-05-01T08:26:45.441Z</time></trkpt><trkpt lat="44.4194283" lon="11.4556317"><ele>251.1428571428571</ele><time>2026-05-01T08:26:51.441Z</time></trkpt><trkpt lat="44.4193817" lon="11.4555667"><ele>249.7142857142857</ele><time>2026-05-01T08:26:56.441Z</time></trkpt><trkpt lat="44.419335" lon="11.455495"><ele>248.28571428571428</ele><time>2026-05-01T08:27:01.441Z</time></trkpt><trkpt lat="44.41926" lon="11.4554517"><ele>246.85714285714283</ele><time>2026-05-01T08:27:05.442Z</time></trkpt><trkpt lat="44.4191833" lon="11.4554333"><ele>245.4285714285714</ele><time>2026-05-01T08:27:09.44Z</time></trkpt><trkpt lat="44.4191233" lon="11.455385"><ele>243.99999999999997</ele><time>2026-05-01T08:27:14.441Z</time></trkpt><trkpt lat="44.4190467" lon="11.4553483"><ele>246.85714285714283</ele><time>2026-05-01T08:27:19.443Z</time></trkpt><trkpt lat="44.4189883" lon="11.4553083"><ele>249.71428571428572</ele><time>2026-05-01T08:27:23.44Z</time></trkpt><trkpt lat="44.4189267" lon="11.455285"><ele>252.57142857142856</ele><time>2026-05-01T08:27:26.442Z</time></trkpt><trkpt lat="44.418855" lon="11.4552583"><ele>255.42857142857142</ele><time>2026-05-01T08:27:30.441Z</time></trkpt><trkpt lat="44.4188017" lon="11.455195"><ele>258.2857142857143</ele><time>2026-05-01T08:27:34.44Z</time></trkpt><trkpt lat="44.418745" lon="11.4551333"><ele>261.1428571428571</ele><time>2026-05-01T08:27:39.44Z</time></trkpt><trkpt lat="44.4186817" lon="11.4550917"><ele>264.0</ele><time>2026-05-01T08:27:44.44Z</time></trkpt><trkpt lat="44.418615" lon="11.4550483"><ele>264.0</ele><time>2026-05-01T08:27:48.44Z</time></trkpt><trkpt lat="44.4185533" lon="11.4549967"><ele>264.0</ele><time>2026-05-01T08:27:52.44Z</time></trkpt><trkpt lat="44.4184867" lon="11.4549667"><ele>264.0</ele><time>2026-05-01T08:27:57.44Z</time></trkpt><trkpt lat="44.418425" lon="11.45491"><ele>264.0</ele><time>2026-05-01T08:28:01.441Z</time></trkpt><trkpt lat="44.4183683" lon="11.4548417"><ele>264.0</ele><time>2026-05-01T08:28:05.441Z</time></trkpt><trkpt lat="44.4183233" lon="11.4547733"><ele>264.0</ele><time>2026-05-01T08:28:09.442Z</time></trkpt><trkpt lat="44.4182833" lon="11.45469"><ele>264.0</ele><time>2026-05-01T08:28:13.441Z</time></trkpt><trkpt lat="44.4182517" lon="11.4546083"><ele>266.3333333333333</ele><time>2026-05-01T08:28:17.443Z</time></trkpt><trkpt lat="44.41821" lon="11.4544633"><ele>268.6666666666667</ele><time>2026-05-01T08:28:25.442Z</time></trkpt><trkpt lat="44.4181883" lon="11.4543633"><ele>271.0</ele><time>2026-05-01T08:28:31.441Z</time></trkpt><trkpt lat="44.41815" lon="11.454265"><ele>273.33333333333337</ele><time>2026-05-01T08:28:37.442Z</time></trkpt><trkpt lat="44.41812" lon="11.4541733"><ele>275.6666666666667</ele><time>2026-05-01T08:28:42.441Z</time></trkpt><trkpt lat="44.4180983" lon="11.4540717"><ele>278.0</ele><time>2026-05-01T08:28:48.44Z</time></trkpt><trkpt lat="44.4180667" lon="11.453995"><ele>278.0</ele><time>2026-05-01T08:28:52.44Z</time></trkpt><trkpt lat="44.4180417" lon="11.4539017"><ele>278.0</ele><time>2026-05-01T08:28:57.441Z</time></trkpt><trkpt lat="44.4180083" lon="11.453825"><ele>278.0</ele><time>2026-05-01T08:29:02.444Z</time></trkpt><trkpt lat="44.41797" lon="11.4537483"><ele>278.0</ele><time>2026-05-01T08:29:07.442Z</time></trkpt><trkpt lat="44.4179233" lon="11.4536867"><ele>278.0</ele><time>2026-05-01T08:29:12.44Z</time></trkpt><trkpt lat="44.4178617" lon="11.453645"><ele>278.0</ele><time>2026-05-01T08:29:16.443Z</time></trkpt><trkpt lat="44.41778" lon="11.4536117"><ele>278.0</ele><time>2026-05-01T08:29:21.44Z</time></trkpt><trkpt lat="44.4177067" lon="11.453585"><ele>278.85714285714283</ele><time>2026-05-01T08:29:25.443Z</time></trkpt><trkpt lat="44.4176267" lon="11.4535667"><ele>279.7142857142857</ele><time>2026-05-01T08:29:30.44Z</time></trkpt><trkpt lat="44.4175617" lon="11.4535467"><ele>280.57142857142856</ele><time>2026-05-01T08:29:33.44Z</time></trkpt><trkpt lat="44.4174967" lon="11.4535133"><ele>281.42857142857144</ele><time>2026-05-01T08:29:35.44Z</time></trkpt><trkpt lat="44.4174333" lon="11.4534667"><ele>282.2857142857143</ele><time>2026-05-01T08:29:38.44Z</time></trkpt><trkpt lat="44.4173617" lon="11.453445"><ele>283.1428571428571</ele><time>2026-05-01T08:29:41.44Z</time></trkpt><trkpt lat="44.4172817" lon="11.45341"><ele>284.0</ele><time>2026-05-01T08:29:45.44Z</time></trkpt><trkpt lat="44.4172067" lon="11.4533967"><ele>283.6666666666667</ele><time>2026-05-01T08:29:48.442Z</time></trkpt><trkpt lat="44.417135" lon="11.45337"><ele>283.33333333333337</ele><time>2026-05-01T08:29:51.442Z</time></trkpt><trkpt lat="44.4170583" lon="11.4533533"><ele>283.0</ele><time>2026-05-01T08:29:54.44Z</time></trkpt><trkpt lat="44.4169783" lon="11.4533283"><ele>282.6666666666667</ele><time>2026-05-01T08:29:57.439Z</time></trkpt><trkpt lat="44.4168883" lon="11.4533167"><ele>282.3333333333333</ele><time>2026-05-01T08:30:00.441Z</time></trkpt><trkpt lat="44.41679" lon="11.4532833"><ele>282.0</ele><time>2026-05-01T08:30:03.441Z</time></trkpt><trkpt lat="44.416695" lon="11.4532267"><ele>282.0</ele><time>2026-05-01T08:30:05.441Z</time></trkpt><trkpt lat="44.4166333" lon="11.4531883"><ele>282.0</ele><time>2026-05-01T08:30:06.442Z</time></trkpt><trkpt lat="44.4165633" lon="11.4531433"><ele>282.0</ele><time>2026-05-01T08:30:07.441Z</time></trkpt><trkpt lat="44.4164883" lon="11.453095"><ele>282.0</ele><time>2026-05-01T08:30:08.44Z</time></trkpt><trkpt lat="44.416405" lon="11.4530433"><ele>282.0</ele><time>2026-05-01T08:30:09.44Z</time></trkpt><trkpt lat="44.4163167" lon="11.45299"><ele>282.0</ele><time>2026-05-01T08:30:10.442Z</time></trkpt><trkpt lat="44.4162283" lon="11.4529283"><ele>282.5</ele><time>2026-05-01T08:30:11.439Z</time></trkpt><trkpt lat="44.416135" lon="11.4528683"><ele>283.0</ele><time>2026-05-01T08:30:12.44Z</time></trkpt><trkpt lat="44.4160433" lon="11.4528117"><ele>283.5</ele><time>2026-05-01T08:30:13.443Z</time></trkpt><trkpt lat="44.4159533" lon="11.45274"><ele>284.0</ele><time>2026-05-01T08:30:14.439Z</time></trkpt><trkpt lat="44.4172817" lon="11.45341"><ele>284.0</ele><time>2026-05-01T08:29:45.44Z</time></trkpt><trkpt lat="44.4172067" lon="11.4533967"><ele>284.0</ele><time>2026-05-01T08:29:48.442Z</time></trkpt><trkpt lat="44.417135" lon="11.45337"><ele>284.0</ele><time>2026-05-01T08:29:51.442Z</time></trkpt><trkpt lat="44.4170583" lon="11.4533533"><ele>284.0</ele><time>2026-05-01T08:29:54.44Z</time></trkpt><trkpt lat="44.4169783" lon="11.4533283"><ele>284.0</ele><time>2026-05-01T08:29:57.439Z</time></trkpt><trkpt lat="44.4168883" lon="11.4533167"><ele>284.0</ele><time>2026-05-01T08:30:00.441Z</time></trkpt><trkpt lat="44.41679" lon="11.4532833"><ele>283.6666666666667</ele><time>2026-05-01T08:30:03.441Z</time></trkpt><trkpt lat="44.416695" lon="11.4532267"><ele>283.33333333333337</ele><time>2026-05-01T08:30:05.441Z</time></trkpt><trkpt lat="44.4166333" lon="11.4531883"><ele>283.0</ele><time>2026-05-01T08:30:06.442Z</time></trkpt><trkpt lat="44.4165633" lon="11.4531433"><ele>282.6666666666667</ele><time>2026-05-01T08:30:07.441Z</time></trkpt><trkpt lat="44.4164883" lon="11.453095"><ele>282.3333333333333</ele><time>2026-05-01T08:30:08.44Z</time></trkpt><trkpt lat="44.416405" lon="11.4530433"><ele>282.0</ele><time>2026-05-01T08:30:09.44Z</time></trkpt><trkpt lat="44.4163167" lon="11.45299"><ele>280.2</ele><time>2026-05-01T08:30:10.442Z</time></trkpt><trkpt lat="44.4162283" lon="11.4529283"><ele>278.4</ele><time>2026-05-01T08:30:11.439Z</time></trkpt><trkpt lat="44.416135" lon="11.4528683"><ele>276.6</ele><time>2026-05-01T08:30:12.44Z</time></trkpt><trkpt lat="44.4160433" lon="11.4528117"><ele>274.8</ele><time>2026-05-01T08:30:13.443Z</time></trkpt><trkpt lat="44.4159533" lon="11.45274"><ele>273.0</ele><time>2026-05-01T08:30:14.439Z</time></trkpt><trkpt lat="44.4158717" lon="11.45268"><ele>273.0</ele><time>2026-05-01T08:30:15.442Z</time></trkpt><trkpt lat="44.415795" lon="11.4526233"><ele>273.0</ele><time>2026-05-01T08:30:16.441Z</time></trkpt><trkpt lat="44.415725" lon="11.4525617"><ele>273.0</ele><time>2026-05-01T08:30:17.443Z</time></trkpt><trkpt lat="44.41566" lon="11.4524817"><ele>273.0</ele><time>2026-05-01T08:30:18.443Z</time></trkpt><trkpt lat="44.4156117" lon="11.4524"><ele>273.0</ele><time>2026-05-01T08:30:19.441Z</time></trkpt><trkpt lat="44.41557" lon="11.4523133"><ele>273.0</ele><time>2026-05-01T08:30:20.443Z</time></trkpt><trkpt lat="44.4155417" lon="11.452225"><ele>273.0</ele><time>2026-05-01T08:30:21.443Z</time></trkpt><trkpt lat="44.4155333" lon="11.452135"><ele>273.0</ele><time>2026-05-01T08:30:22.44Z</time></trkpt><trkpt lat="44.4155233" lon="11.452045"><ele>273.0</ele><time>2026-05-01T08:30:23.441Z</time></trkpt><trkpt lat="44.41551" lon="11.4518883"><ele>273.0</ele><time>2026-05-01T08:30:25.44Z</time></trkpt><trkpt lat="44.4154917" lon="11.451765"><ele>273.0</ele><time>2026-05-01T08:30:27.44Z</time></trkpt><trkpt lat="44.415485" lon="11.4516633"><ele>273.0</ele><time>2026-05-01T08:30:29.444Z</time></trkpt><trkpt lat="44.4154633" lon="11.4515467"><ele>273.8333333333333</ele><time>2026-05-01T08:30:32.44Z</time></trkpt><trkpt lat="44.4154517" lon="11.4514367"><ele>274.6666666666667</ele><time>2026-05-01T08:30:35.44Z</time></trkpt><trkpt lat="44.415435" lon="11.4513267"><ele>275.5</ele><time>2026-05-01T08:30:38.439Z</time></trkpt><trkpt lat="44.4154133" lon="11.4512283"><ele>276.33333333333337</ele><time>2026-05-01T08:30:41.44Z</time></trkpt><trkpt lat="44.4153883" lon="11.4511283"><ele>277.1666666666667</ele><time>2026-05-01T08:30:44.439Z</time></trkpt><trkpt lat="44.415365" lon="11.4510367"><ele>278.0</ele><time>2026-05-01T08:30:47.442Z</time></trkpt><trkpt lat="44.41531" lon="11.45096"><ele>278.83333333333337</ele><time>2026-05-01T08:30:51.439Z</time></trkpt><trkpt lat="44.415255" lon="11.45089"><ele>279.6666666666667</ele><time>2026-05-01T08:30:55.44Z</time></trkpt><trkpt lat="44.4152133" lon="11.4508183"><ele>280.5</ele><time>2026-05-01T08:30:58.439Z</time></trkpt><trkpt lat="44.4151517" lon="11.45074"><ele>281.3333333333333</ele><time>2026-05-01T08:31:02.439Z</time></trkpt><trkpt lat="44.4150883" lon="11.4506683"><ele>282.16666666666663</ele><time>2026-05-01T08:31:06.44Z</time></trkpt><trkpt lat="44.41502" lon="11.45061"><ele>283.0</ele><time>2026-05-01T08:31:10.438Z</time></trkpt><trkpt lat="44.4149667" lon="11.4505333"><ele>283.14285714285717</ele><time>2026-05-01T08:31:14.439Z</time></trkpt><trkpt lat="44.4149167" lon="11.450445"><ele>283.28571428571433</ele><time>2026-05-01T08:31:17.441Z</time></trkpt><trkpt lat="44.41485" lon="11.4503667"><ele>283.42857142857144</ele><time>2026-05-01T08:31:20.442Z</time></trkpt><trkpt lat="44.414795" lon="11.450315"><ele>283.57142857142856</ele><time>2026-05-01T08:31:22.443Z</time></trkpt><trkpt lat="44.414745" lon="11.4502517"><ele>283.71428571428567</ele><time>2026-05-01T08:31:24.439Z</time></trkpt><trkpt lat="44.414695" lon="11.4501883"><ele>283.85714285714283</ele><time>2026-05-01T08:31:26.44Z</time></trkpt><trkpt lat="44.4146383" lon="11.4501267"><ele>284.0</ele><time>2026-05-01T08:31:28.44Z</time></trkpt><trkpt lat="44.41457" lon="11.4500383"><ele>283.59999999999997</ele><time>2026-05-01T08:31:30.439Z</time></trkpt><trkpt lat="44.4144983" lon="11.4499567"><ele>283.2</ele><time>2026-05-01T08:31:32.439Z</time></trkpt><trkpt lat="44.414425" lon="11.4498833"><ele>282.79999999999995</ele><time>2026-05-01T08:31:34.44Z</time></trkpt><trkpt lat="44.4143433" lon="11.44981"><ele>282.4</ele><time>2026-05-01T08:31:36.44Z</time></trkpt><trkpt lat="44.414265" lon="11.449715"><ele>282.0</ele><time>2026-05-01T08:31:38.44Z</time></trkpt><trkpt lat="44.4141833" lon="11.4496267"><ele>281.2</ele><time>2026-05-01T08:31:40.44Z</time></trkpt><trkpt lat="44.4141" lon="11.44954"><ele>280.4</ele><time>2026-05-01T08:31:42.439Z</time></trkpt><trkpt lat="44.4140133" lon="11.4494633"><ele>279.6</ele><time>2026-05-01T08:31:44.44Z</time></trkpt><trkpt lat="44.41393" lon="11.449395"><ele>278.8</ele><time>2026-05-01T08:31:46.44Z</time></trkpt><trkpt lat="44.41385" lon="11.4493333"><ele>278.0</ele><time>2026-05-01T08:31:48.443Z</time></trkpt><trkpt lat="44.4137617" lon="11.4492867"><ele>276.8</ele><time>2026-05-01T08:31:50.443Z</time></trkpt><trkpt lat="44.4136717" lon="11.4492383"><ele>275.6</ele><time>2026-05-01T08:31:52.442Z</time></trkpt><trkpt lat="44.4135717" lon="11.4491883"><ele>274.4</ele><time>2026-05-01T08:31:54.442Z</time></trkpt><trkpt lat="44.4134583" lon="11.44914"><ele>273.2</ele><time>2026-05-01T08:31:56.44Z</time></trkpt><trkpt lat="44.413395" lon="11.4491083"><ele>272.0</ele><time>2026-05-01T08:31:57.441Z</time></trkpt><trkpt lat="44.413325" lon="11.4490683"><ele>271.99999999999994</ele><time>2026-05-01T08:31:58.439Z</time></trkpt><trkpt lat="44.413255" lon="11.449025"><ele>272.0</ele><time>2026-05-01T08:31:59.44Z</time></trkpt><trkpt lat="44.4131933" lon="11.4489733"><ele>272.0</ele><time>2026-05-01T08:32:00.441Z</time></trkpt><trkpt lat="44.41313" lon="11.4489217"><ele>272.0</ele><time>2026-05-01T08:32:01.441Z</time></trkpt><trkpt lat="44.4130717" lon="11.4488633"><ele>272.0</ele><time>2026-05-01T08:32:02.441Z</time></trkpt><trkpt lat="44.413025" lon="11.4487833"><ele>271.99999999999994</ele><time>2026-05-01T08:32:03.441Z</time></trkpt><trkpt lat="44.4129883" lon="11.448695"><ele>272.0</ele><time>2026-05-01T08:32:04.44Z</time></trkpt><trkpt lat="44.4129667" lon="11.4485983"><ele>272.5</ele><time>2026-05-01T08:32:05.442Z</time></trkpt><trkpt lat="44.4129483" lon="11.448495"><ele>273.0</ele><time>2026-05-01T08:32:06.44Z</time></trkpt><trkpt lat="44.4129333" lon="11.4483917"><ele>273.5</ele><time>2026-05-01T08:32:07.442Z</time></trkpt><trkpt lat="44.4129183" lon="11.448295"><ele>274.0</ele><time>2026-05-01T08:32:08.439Z</time></trkpt><trkpt lat="44.4129033" lon="11.4482033"><ele>274.5</ele><time>2026-05-01T08:32:09.442Z</time></trkpt><trkpt lat="44.4128767" lon="11.4480483"><ele>275.0</ele><time>2026-05-01T08:32:11.442Z</time></trkpt><trkpt lat="44.412865" lon="11.447955"><ele>277.57142857142856</ele><time>2026-05-01T08:32:13.443Z</time></trkpt><trkpt lat="44.4128283" lon="11.44787"><ele>280.1428571428571</ele><time>2026-05-01T08:32:18.441Z</time></trkpt><trkpt lat="44.4128" lon="11.447785"><ele>282.71428571428567</ele><time>2026-05-01T08:32:22.44Z</time></trkpt><trkpt lat="44.4127917" lon="11.4476833"><ele>285.2857142857143</ele><time>2026-05-01T08:32:27.442Z</time></trkpt><trkpt lat="44.412805" lon="11.447595"><ele>287.85714285714283</ele><time>2026-05-01T08:32:32.442Z</time></trkpt><trkpt lat="44.4128033" lon="11.4475017"><ele>290.4285714285714</ele><time>2026-05-01T08:32:37.44Z</time></trkpt><trkpt lat="44.41283" lon="11.4474133"><ele>293.0</ele><time>2026-05-01T08:32:42.442Z</time></trkpt><trkpt lat="44.4128317" lon="11.4473167"><ele>292.99999999999994</ele><time>2026-05-01T08:32:47.443Z</time></trkpt><trkpt lat="44.4128217" lon="11.4472283"><ele>293.0</ele><time>2026-05-01T08:32:52.442Z</time></trkpt><trkpt lat="44.4128333" lon="11.4471283"><ele>293.0</ele><time>2026-05-01T08:32:57.44Z</time></trkpt><trkpt lat="44.4128267" lon="11.447035"><ele>293.0</ele><time>2026-05-01T08:33:02.441Z</time></trkpt><trkpt lat="44.4127933" lon="11.4469567"><ele>293.0</ele><time>2026-05-01T08:33:06.442Z</time></trkpt><trkpt lat="44.412765" lon="11.4468717"><ele>292.99999999999994</ele><time>2026-05-01T08:33:10.441Z</time></trkpt><trkpt lat="44.4127283" lon="11.4467917"><ele>293.0</ele><time>2026-05-01T08:33:15.442Z</time></trkpt><trkpt lat="44.4126833" lon="11.4467067"><ele>293.2857142857143</ele><time>2026-05-01T08:33:20.443Z</time></trkpt><trkpt lat="44.4126333" lon="11.4466383"><ele>293.57142857142856</ele><time>2026-05-01T08:33:25.442Z</time></trkpt><trkpt lat="44.4125783" lon="11.44659"><ele>293.8571428571429</ele><time>2026-05-01T08:33:29.441Z</time></trkpt><trkpt lat="44.4125167" lon="11.44655"><ele>294.1428571428571</ele><time>2026-05-01T08:33:32.441Z</time></trkpt><trkpt lat="44.4124717" lon="11.4464867"><ele>294.42857142857144</ele><time>2026-05-01T08:33:35.44Z</time></trkpt><trkpt lat="44.4124017" lon="11.4464567"><ele>294.7142857142857</ele><time>2026-05-01T08:33:39.439Z</time></trkpt><trkpt lat="44.412335" lon="11.44642"><ele>295.0</ele><time>2026-05-01T08:33:42.44Z</time></trkpt><trkpt lat="44.4122667" lon="11.4463817"><ele>295.0</ele><time>2026-05-01T08:33:44.439Z</time></trkpt><trkpt lat="44.4121733" lon="11.446335"><ele>295.0</ele><time>2026-05-01T08:33:46.44Z</time></trkpt><trkpt lat="44.412075" lon="11.44627"><ele>295.0</ele><time>2026-05-01T08:33:48.439Z</time></trkpt><trkpt lat="44.41197" lon="11.44621"><ele>295.0</ele><time>2026-05-01T08:33:50.441Z</time></trkpt><trkpt lat="44.41185" lon="11.4461733"><ele>295.0</ele><time>2026-05-01T08:33:52.44Z</time></trkpt><trkpt lat="44.4117233" lon="11.4461567"><ele>294.00000000000006</ele><time>2026-05-01T08:33:54.44Z</time></trkpt><trkpt lat="44.4116583" lon="11.44616"><ele>293.0</ele><time>2026-05-01T08:33:55.442Z</time></trkpt><trkpt lat="44.4115933" lon="11.446165"><ele>292.0</ele><time>2026-05-01T08:33:56.44Z</time></trkpt><trkpt lat="44.411525" lon="11.4461767"><ele>291.0</ele><time>2026-05-01T08:33:57.44Z</time></trkpt><trkpt lat="44.4114533" lon="11.4461917"><ele>290.0</ele><time>2026-05-01T08:33:58.438Z</time></trkpt><trkpt lat="44.4113783" lon="11.446195"><ele>289.00000000000006</ele><time>2026-05-01T08:33:59.44Z</time></trkpt><trkpt lat="44.411305" lon="11.4461867"><ele>288.0</ele><time>2026-05-01T08:34:00.439Z</time></trkpt><trkpt lat="44.411235" lon="11.4461683"><ele>290.5</ele><time>2026-05-01T08:34:01.439Z</time></trkpt><trkpt lat="44.411165" lon="11.446145"><ele>293.0</ele><time>2026-05-01T08:34:02.439Z</time></trkpt><trkpt lat="44.411105" lon="11.4461133"><ele>295.5</ele><time>2026-05-01T08:34:03.44Z</time></trkpt><trkpt lat="44.4110167" lon="11.4460483"><ele>298.0</ele><time>2026-05-01T08:34:05.439Z</time></trkpt><trkpt lat="44.410965" lon="11.4459717"><ele>300.5</ele><time>2026-05-01T08:34:08.44Z</time></trkpt><trkpt lat="44.4109583" lon="11.4458717"><ele>303.0</ele><time>2026-05-01T08:34:12.441Z</time></trkpt><trkpt lat="44.410945" lon="11.4457617"><ele>303.0</ele><time>2026-05-01T08:34:18.44Z</time></trkpt><trkpt lat="44.4109317" lon="11.4456633"><ele>303.0</ele><time>2026-05-01T08:34:23.44Z</time></trkpt><trkpt lat="44.410885" lon="11.4455883"><ele>303.0</ele><time>2026-05-01T08:34:28.439Z</time></trkpt><trkpt lat="44.41083" lon="11.4455283"><ele>303.0</ele><time>2026-05-01T08:34:34.441Z</time></trkpt><trkpt lat="44.4107633" lon="11.4455333"><ele>303.0</ele><time>2026-05-01T08:34:38.439Z</time></trkpt><trkpt lat="44.4107" lon="11.4455517"><ele>303.0</ele><time>2026-05-01T08:34:43.441Z</time></trkpt><trkpt lat="44.41064" lon="11.4455833"><ele>303.0</ele><time>2026-05-01T08:34:47.443Z</time></trkpt><trkpt lat="44.41058" lon="11.4456133"><ele>303.0</ele><time>2026-05-01T08:34:50.441Z</time></trkpt><trkpt lat="44.4105083" lon="11.4456283"><ele>303.0</ele><time>2026-05-01T08:34:54.441Z</time></trkpt><trkpt lat="44.410445" lon="11.4456383"><ele>303.0</ele><time>2026-05-01T08:34:57.441Z</time></trkpt><trkpt lat="44.41038" lon="11.4456583"><ele>303.0</ele><time>2026-05-01T08:35:00.442Z</time></trkpt><trkpt lat="44.4103067" lon="11.4456833"><ele>303.0</ele><time>2026-05-01T08:35:04.44Z</time></trkpt><trkpt lat="44.4102283" lon="11.4456833"><ele>303.0</ele><time>2026-05-01T08:35:08.441Z</time></trkpt><trkpt lat="44.4101633" lon="11.4456783"><ele>303.0</ele><time>2026-05-01T08:35:11.441Z</time></trkpt><trkpt lat="44.410095" lon="11.4456967"><ele>304.8571428571429</ele><time>2026-05-01T08:35:15.442Z</time></trkpt><trkpt lat="44.41004" lon="11.44576"><ele>306.7142857142857</ele><time>2026-05-01T08:35:20.441Z</time></trkpt><trkpt lat="44.4100517" lon="11.4458517"><ele>308.57142857142856</ele><time>2026-05-01T08:35:25.441Z</time></trkpt><trkpt lat="44.4100733" lon="11.4459417"><ele>310.42857142857144</ele><time>2026-05-01T08:35:30.442Z</time></trkpt><trkpt lat="44.410055" lon="11.44605"><ele>312.2857142857143</ele><time>2026-05-01T08:35:35.442Z</time></trkpt><trkpt lat="44.410005" lon="11.4461233"><ele>314.14285714285717</ele><time>2026-05-01T08:35:40.442Z</time></trkpt><trkpt lat="44.4099367" lon="11.446155"><ele>316.0</ele><time>2026-05-01T08:35:45.442Z</time></trkpt><trkpt lat="44.4098733" lon="11.4461667"><ele>316.00000000000006</ele><time>2026-05-01T08:35:49.442Z</time></trkpt><trkpt lat="44.4097983" lon="11.4461483"><ele>316.0</ele><time>2026-05-01T08:35:54.442Z</time></trkpt><trkpt lat="44.40973" lon="11.4461067"><ele>316.0</ele><time>2026-05-01T08:35:59.441Z</time></trkpt><trkpt lat="44.409665" lon="11.4460617"><ele>316.0</ele><time>2026-05-01T08:36:04.44Z</time></trkpt><trkpt lat="44.4095967" lon="11.446025"><ele>316.0</ele><time>2026-05-01T08:36:09.442Z</time></trkpt><trkpt lat="44.409535" lon="11.4459767"><ele>316.00000000000006</ele><time>2026-05-01T08:36:14.443Z</time></trkpt><trkpt lat="44.4094833" lon="11.4459233"><ele>316.0</ele><time>2026-05-01T08:36:19.443Z</time></trkpt><trkpt lat="44.4094233" lon="11.44587"><ele>317.00000000000006</ele><time>2026-05-01T08:36:24.442Z</time></trkpt><trkpt lat="44.40936" lon="11.44582"><ele>318.0</ele><time>2026-05-01T08:36:30.443Z</time></trkpt><trkpt lat="44.409295" lon="11.445785"><ele>319.0</ele><time>2026-05-01T08:36:35.44Z</time></trkpt><trkpt lat="44.4092483" lon="11.4457233"><ele>320.0</ele><time>2026-05-01T08:36:40.441Z</time></trkpt><trkpt lat="44.4092183" lon="11.4456383"><ele>321.0</ele><time>2026-05-01T08:36:46.444Z</time></trkpt><trkpt lat="44.4091883" lon="11.445555"><ele>322.00000000000006</ele><time>2026-05-01T08:36:51.441Z</time></trkpt><trkpt lat="44.4091633" lon="11.4454667"><ele>323.0</ele><time>2026-05-01T08:36:56.442Z</time></trkpt><trkpt lat="44.4091483" lon="11.4453733"><ele>325.00000000000006</ele><time>2026-05-01T08:37:02.441Z</time></trkpt><trkpt lat="44.4091133" lon="11.4452817"><ele>327.0</ele><time>2026-05-01T08:37:08.441Z</time></trkpt><trkpt lat="44.4090833" lon="11.4451933"><ele>329.0</ele><time>2026-05-01T08:37:15.442Z</time></trkpt><trkpt lat="44.4090417" lon="11.44511"><ele>331.0</ele><time>2026-05-01T08:37:21.442Z</time></trkpt><trkpt lat="44.40902" lon="11.44501"><ele>333.0</ele><time>2026-05-01T08:37:27.441Z</time></trkpt><trkpt lat="44.4089867" lon="11.4449317"><ele>335.00000000000006</ele><time>2026-05-01T08:37:32.44Z</time></trkpt><trkpt lat="44.4089333" lon="11.4448633"><ele>337.0</ele><time>2026-05-01T08:37:37.441Z</time></trkpt><trkpt lat="44.408885" lon="11.444785"><ele>337.00000000000006</ele><time>2026-05-01T08:37:42.442Z</time></trkpt><trkpt lat="44.4088283" lon="11.4447117"><ele>337.0</ele><time>2026-05-01T08:37:46.444Z</time></trkpt><trkpt lat="44.4088" lon="11.4446183"><ele>337.0</ele><time>2026-05-01T08:37:52.443Z</time></trkpt><trkpt lat="44.4087733" lon="11.4445283"><ele>337.0</ele><time>2026-05-01T08:37:57.443Z</time></trkpt><trkpt lat="44.4087467" lon="11.4444483"><ele>337.0</ele><time>2026-05-01T08:38:01.443Z</time></trkpt><trkpt lat="44.4087467" lon="11.4443583"><ele>337.00000000000006</ele><time>2026-05-01T08:38:06.44Z</time></trkpt><trkpt lat="44.4087467" lon="11.4442517"><ele>337.0</ele><time>2026-05-01T08:38:12.443Z</time></trkpt><trkpt lat="44.4087433" lon="11.4441533"><ele>337.7142857142857</ele><time>2026-05-01T08:38:17.442Z</time></trkpt><trkpt lat="44.4087333" lon="11.4440483"><ele>338.42857142857144</ele><time>2026-05-01T08:38:21.444Z</time></trkpt><trkpt lat="44.4087083" lon="11.4439667"><ele>339.1428571428571</ele><time>2026-05-01T08:38:24.443Z</time></trkpt><trkpt lat="44.4086833" lon="11.44388"><ele>339.8571428571429</ele><time>2026-05-01T08:38:27.44Z</time></trkpt><trkpt lat="44.4086333" lon="11.443795"><ele>340.57142857142856</ele><time>2026-05-01T08:38:30.441Z</time></trkpt><trkpt lat="44.4086067" lon="11.44371"><ele>341.2857142857143</ele><time>2026-05-01T08:38:32.439Z</time></trkpt><trkpt lat="44.4086117" lon="11.4435767"><ele>342.0</ele><time>2026-05-01T08:38:34.44Z</time></trkpt><trkpt lat="44.40864" lon="11.4434633"><ele>342.0</ele><time>2026-05-01T08:38:36.441Z</time></trkpt><trkpt lat="44.4086217" lon="11.4433717"><ele>342.0</ele><time>2026-05-01T08:38:40.442Z</time></trkpt><trkpt lat="44.4085417" lon="11.4434383"><ele>342.0</ele><time>2026-05-01T08:38:43.441Z</time></trkpt><trkpt lat="44.4084833" lon="11.4435217"><ele>342.0</ele><time>2026-05-01T08:38:45.441Z</time></trkpt><trkpt lat="44.4084067" lon="11.443615"><ele>342.0</ele><time>2026-05-01T08:38:47.44Z</time></trkpt><trkpt lat="44.4083233" lon="11.44368"><ele>342.0</ele><time>2026-05-01T08:38:49.439Z</time></trkpt><trkpt lat="44.4082417" lon="11.4437233"><ele>342.0</ele><time>2026-05-01T08:38:51.442Z</time></trkpt><trkpt lat="44.4081383" lon="11.4437167"><ele>342.0</ele><time>2026-05-01T08:38:53.442Z</time></trkpt><trkpt lat="44.40803" lon="11.443665"><ele>342.0</ele><time>2026-05-01T08:38:55.438Z</time></trkpt><trkpt lat="44.4079267" lon="11.4435717"><ele>342.0</ele><time>2026-05-01T08:38:57.442Z</time></trkpt><trkpt lat="44.40784" lon="11.4434567"><ele>341.1666666666667</ele><time>2026-05-01T08:38:59.443Z</time></trkpt><trkpt lat="44.4077617" lon="11.4433767"><ele>340.3333333333333</ele><time>2026-05-01T08:39:01.442Z</time></trkpt><trkpt lat="44.407705" lon="11.4433167"><ele>339.5</ele><time>2026-05-01T08:39:03.441Z</time></trkpt><trkpt lat="44.4076333" lon="11.4432833"><ele>338.66666666666663</ele><time>2026-05-01T08:39:05.44Z</time></trkpt><trkpt lat="44.40755" lon="11.44332"><ele>337.8333333333333</ele><time>2026-05-01T08:39:08.442Z</time></trkpt><trkpt lat="44.4075083" lon="11.4434"><ele>337.0</ele><time>2026-05-01T08:39:11.441Z</time></trkpt><trkpt lat="44.4074867" lon="11.4434833"><ele>337.0</ele><time>2026-05-01T08:39:14.441Z</time></trkpt><trkpt lat="44.4074717" lon="11.4435933"><ele>337.0</ele><time>2026-05-01T08:39:17.443Z</time></trkpt><trkpt lat="44.407465" lon="11.4436817"><ele>337.0</ele><time>2026-05-01T08:39:19.441Z</time></trkpt><trkpt lat="44.40746" lon="11.4437833"><ele>337.0</ele><time>2026-05-01T08:39:21.44Z</time></trkpt><trkpt lat="44.4074517" lon="11.4438967"><ele>337.0</ele><time>2026-05-01T08:39:23.44Z</time></trkpt><trkpt lat="44.40744" lon="11.44401"><ele>337.0</ele><time>2026-05-01T08:39:25.441Z</time></trkpt><trkpt lat="44.407425" lon="11.4441183"><ele>337.0</ele><time>2026-05-01T08:39:27.439Z</time></trkpt><trkpt lat="44.407415" lon="11.4442367"><ele>337.0</ele><time>2026-05-01T08:39:29.44Z</time></trkpt><trkpt lat="44.4073983" lon="11.4443617"><ele>337.0</ele><time>2026-05-01T08:39:31.441Z</time></trkpt><trkpt lat="44.4073767" lon="11.4444933"><ele>337.0</ele><time>2026-05-01T08:39:33.44Z</time></trkpt><trkpt lat="44.407365" lon="11.4446433"><ele>337.0</ele><time>2026-05-01T08:39:35.439Z</time></trkpt><trkpt lat="44.4073517" lon="11.4448183"><ele>337.0</ele><time>2026-05-01T08:39:37.439Z</time></trkpt><trkpt lat="44.407345" lon="11.4449133"><ele>337.0</ele><time>2026-05-01T08:39:38.441Z</time></trkpt><trkpt lat="44.4073333" lon="11.4450067"><ele>337.0</ele><time>2026-05-01T08:39:39.44Z</time></trkpt><trkpt lat="44.4073233" lon="11.4450983"><ele>337.0</ele><time>2026-05-01T08:39:40.442Z</time></trkpt><trkpt lat="44.407305" lon="11.44526"><ele>337.0</ele><time>2026-05-01T08:39:42.44Z</time></trkpt><trkpt lat="44.4073033" lon="11.4453833"><ele>337.0</ele><time>2026-05-01T08:39:44.44Z</time></trkpt><trkpt lat="44.4073117" lon="11.44548"><ele>335.42857142857144</ele><time>2026-05-01T08:39:46.443Z</time></trkpt><trkpt lat="44.40732" lon="11.4455817"><ele>333.8571428571429</ele><time>2026-05-01T08:39:50.44Z</time></trkpt><trkpt lat="44.4072767" lon="11.445515"><ele>332.28571428571433</ele><time>2026-05-01T08:39:59.441Z</time></trkpt><trkpt lat="44.40723" lon="11.4455783"><ele>330.7142857142857</ele><time>2026-05-01T08:40:02.442Z</time></trkpt><trkpt lat="44.4071817" lon="11.4456733"><ele>329.1428571428571</ele><time>2026-05-01T08:40:05.44Z</time></trkpt><trkpt lat="44.4071333" lon="11.4457567"><ele>327.5714285714286</ele><time>2026-05-01T08:40:08.44Z</time></trkpt><trkpt lat="44.4070933" lon="11.4458417"><ele>326.0</ele><time>2026-05-01T08:40:11.44Z</time></trkpt><trkpt lat="44.40704" lon="11.4459183"><ele>326.0</ele><time>2026-05-01T08:40:14.442Z</time></trkpt><trkpt lat="44.4069833" lon="11.446"><ele>326.0</ele><time>2026-05-01T08:40:17.442Z</time></trkpt><trkpt lat="44.4069233" lon="11.44609"><ele>326.0</ele><time>2026-05-01T08:40:20.439Z</time></trkpt><trkpt lat="44.406875" lon="11.44618"><ele>326.0</ele><time>2026-05-01T08:40:23.44Z</time></trkpt><trkpt lat="44.4068283" lon="11.4462733"><ele>326.0</ele><time>2026-05-01T08:40:26.439Z</time></trkpt><trkpt lat="44.406785" lon="11.4463517"><ele>326.0</ele><time>2026-05-01T08:40:29.44Z</time></trkpt><trkpt lat="44.40674" lon="11.44646"><ele>326.1666666666667</ele><time>2026-05-01T08:40:32.44Z</time></trkpt><trkpt lat="44.406715" lon="11.4465633"><ele>326.33333333333337</ele><time>2026-05-01T08:40:35.44Z</time></trkpt><trkpt lat="44.4066983" lon="11.4466767"><ele>326.5</ele><time>2026-05-01T08:40:38.439Z</time></trkpt><trkpt lat="44.40668" lon="11.4467883"><ele>326.6666666666667</ele><time>2026-05-01T08:40:41.44Z</time></trkpt><trkpt lat="44.4066617" lon="11.446905"><ele>326.8333333333333</ele><time>2026-05-01T08:40:44.44Z</time></trkpt><trkpt lat="44.406665" lon="11.4470267"><ele>327.0</ele><time>2026-05-01T08:40:47.443Z</time></trkpt><trkpt lat="44.4066667" lon="11.4471483"><ele>327.0</ele><time>2026-05-01T08:40:50.442Z</time></trkpt><trkpt lat="44.4066783" lon="11.447235"><ele>327.0</ele><time>2026-05-01T08:40:52.441Z</time></trkpt><trkpt lat="44.40669" lon="11.447335"><ele>327.0</ele><time>2026-05-01T08:40:54.44Z</time></trkpt><trkpt lat="44.4067" lon="11.4474583"><ele>327.0</ele><time>2026-05-01T08:40:56.44Z</time></trkpt><trkpt lat="44.4067083" lon="11.44759"><ele>327.0</ele><time>2026-05-01T08:40:58.441Z</time></trkpt><trkpt lat="44.40671" lon="11.447725"><ele>327.0</ele><time>2026-05-01T08:41:00.44Z</time></trkpt><trkpt lat="44.4066967" lon="11.44787"><ele>324.5</ele><time>2026-05-01T08:41:02.441Z</time></trkpt><trkpt lat="44.40667" lon="11.4480233"><ele>322.0</ele><time>2026-05-01T08:41:04.441Z</time></trkpt><trkpt lat="44.4066417" lon="11.448175"><ele>319.5</ele><time>2026-05-01T08:41:06.441Z</time></trkpt><trkpt lat="44.4066483" lon="11.448345"><ele>317.0</ele><time>2026-05-01T08:41:08.441Z</time></trkpt><trkpt lat="44.406655" lon="11.448515"><ele>317.0</ele><time>2026-05-01T08:41:10.441Z</time></trkpt><trkpt lat="44.4066517" lon="11.448685"><ele>317.0</ele><time>2026-05-01T08:41:12.44Z</time></trkpt><trkpt lat="44.4066417" lon="11.4487767"><ele>317.0</ele><time>2026-05-01T08:41:13.441Z</time></trkpt><trkpt lat="44.4066283" lon="11.4488733"><ele>317.0</ele><time>2026-05-01T08:41:14.441Z</time></trkpt><trkpt lat="44.406615" lon="11.4489733"><ele>317.0</ele><time>2026-05-01T08:41:15.439Z</time></trkpt><trkpt lat="44.4066017" lon="11.4490767"><ele>317.0</ele><time>2026-05-01T08:41:16.439Z</time></trkpt><trkpt lat="44.4065883" lon="11.449185"><ele>316.2857142857143</ele><time>2026-05-01T08:41:17.442Z</time></trkpt><trkpt lat="44.40657" lon="11.4493017"><ele>315.57142857142856</ele><time>2026-05-01T08:41:18.439Z</time></trkpt><trkpt lat="44.4065467" lon="11.4494033"><ele>314.8571428571429</ele><time>2026-05-01T08:41:19.441Z</time></trkpt><trkpt lat="44.4065317" lon="11.4495017"><ele>314.1428571428571</ele><time>2026-05-01T08:41:20.44Z</time></trkpt><trkpt lat="44.40652" lon="11.4496017"><ele>313.4285714285714</ele><time>2026-05-01T08:41:21.439Z</time></trkpt><trkpt lat="44.4065183" lon="11.4496983"><ele>312.7142857142857</ele><time>2026-05-01T08:41:22.441Z</time></trkpt><trkpt lat="44.4065233" lon="11.4497917"><ele>312.0</ele><time>2026-05-01T08:41:23.44Z</time></trkpt><trkpt lat="44.40653" lon="11.44988"><ele>312.0</ele><time>2026-05-01T08:41:24.44Z</time></trkpt><trkpt lat="44.4065433" lon="11.4500467"><ele>312.0</ele><time>2026-05-01T08:41:26.44Z</time></trkpt><trkpt lat="44.40655" lon="11.4501967"><ele>312.0</ele><time>2026-05-01T08:41:28.44Z</time></trkpt><trkpt lat="44.4065533" lon="11.4503367"><ele>312.0</ele><time>2026-05-01T08:41:30.44Z</time></trkpt><trkpt lat="44.4065567" lon="11.45047"><ele>312.0</ele><time>2026-05-01T08:41:32.441Z</time></trkpt><trkpt lat="44.4065583" lon="11.4506117"><ele>312.0</ele><time>2026-05-01T08:41:34.442Z</time></trkpt><trkpt lat="44.4065583" lon="11.4507517"><ele>312.0</ele><time>2026-05-01T08:41:36.442Z</time></trkpt><trkpt lat="44.4065617" lon="11.4508867"><ele>312.0</ele><time>2026-05-01T08:41:38.442Z</time></trkpt><trkpt lat="44.40656" lon="11.4510117"><ele>312.0</ele><time>2026-05-01T08:41:40.441Z</time></trkpt><trkpt lat="44.406555" lon="11.4511417"><ele>312.0</ele><time>2026-05-01T08:41:42.442Z</time></trkpt><trkpt lat="44.4065483" lon="11.4512667"><ele>311.8333333333333</ele><time>2026-05-01T08:41:44.442Z</time></trkpt><trkpt lat="44.4065417" lon="11.4513883"><ele>311.6666666666667</ele><time>2026-05-01T08:41:46.444Z</time></trkpt><trkpt lat="44.4065367" lon="11.4515083"><ele>311.5</ele><time>2026-05-01T08:41:48.442Z</time></trkpt><trkpt lat="44.4065367" lon="11.451615"><ele>311.33333333333337</ele><time>2026-05-01T08:41:50.442Z</time></trkpt><trkpt lat="44.4065283" lon="11.45173"><ele>311.1666666666667</ele><time>2026-05-01T08:41:52.443Z</time></trkpt><trkpt lat="44.40654" lon="11.451845"><ele>311.0</ele><time>2026-05-01T08:41:54.441Z</time></trkpt><trkpt lat="44.4065433" lon="11.4519583"><ele>311.0</ele><time>2026-05-01T08:41:56.444Z</time></trkpt><trkpt lat="44.4065383" lon="11.4520783"><ele>311.0</ele><time>2026-05-01T08:41:58.443Z</time></trkpt><trkpt lat="44.4065267" lon="11.4522033"><ele>311.0</ele><time>2026-05-01T08:42:00.443Z</time></trkpt><trkpt lat="44.4065083" lon="11.4523217"><ele>311.0</ele><time>2026-05-01T08:42:02.442Z</time></trkpt><trkpt lat="44.406485" lon="11.4524367"><ele>311.0</ele><time>2026-05-01T08:42:04.442Z</time></trkpt><trkpt lat="44.4064517" lon="11.45254"><ele>311.0</ele><time>2026-05-01T08:42:06.441Z</time></trkpt><trkpt lat="44.4064117" lon="11.4526283"><ele>310.6666666666667</ele><time>2026-05-01T08:42:08.442Z</time></trkpt><trkpt lat="44.4063617" lon="11.4527067"><ele>310.33333333333337</ele><time>2026-05-01T08:42:10.439Z</time></trkpt><trkpt lat="44.4063017" lon="11.4527817"><ele>310.0</ele><time>2026-05-01T08:42:12.44Z</time></trkpt><trkpt lat="44.4062317" lon="11.4528283"><ele>309.6666666666667</ele><time>2026-05-01T08:42:14.441Z</time></trkpt><trkpt lat="44.4061583" lon="11.4528583"><ele>309.3333333333333</ele><time>2026-05-01T08:42:16.443Z</time></trkpt><trkpt lat="44.4060817" lon="11.452885"><ele>309.0</ele><time>2026-05-01T08:42:18.444Z</time></trkpt><trkpt lat="44.4060017" lon="11.4529017"><ele>308.6666666666667</ele><time>2026-05-01T08:42:20.444Z</time></trkpt><trkpt lat="44.4059183" lon="11.4529383"><ele>308.3333333333333</ele><time>2026-05-01T08:42:22.444Z</time></trkpt><trkpt lat="44.4058417" lon="11.4529883"><ele>308.0</ele><time>2026-05-01T08:42:24.444Z</time></trkpt><trkpt lat="44.4057717" lon="11.4530467"><ele>307.66666666666663</ele><time>2026-05-01T08:42:26.442Z</time></trkpt><trkpt lat="44.4057067" lon="11.4531183"><ele>307.3333333333333</ele><time>2026-05-01T08:42:28.443Z</time></trkpt><trkpt lat="44.4056433" lon="11.453195"><ele>307.0</ele><time>2026-05-01T08:42:30.444Z</time></trkpt><trkpt lat="44.4055833" lon="11.4532917"><ele>307.0</ele><time>2026-05-01T08:42:32.442Z</time></trkpt><trkpt lat="44.4055233" lon="11.4533933"><ele>307.0</ele><time>2026-05-01T08:42:34.444Z</time></trkpt><trkpt lat="44.4054667" lon="11.4534967"><ele>307.0</ele><time>2026-05-01T08:42:36.441Z</time></trkpt><trkpt lat="44.4054133" lon="11.4535967"><ele>307.0</ele><time>2026-05-01T08:42:38.441Z</time></trkpt><trkpt lat="44.40537" lon="11.453705"><ele>307.0</ele><time>2026-05-01T08:42:40.443Z</time></trkpt><trkpt lat="44.40533" lon="11.4538083"><ele>307.0</ele><time>2026-05-01T08:42:42.441Z</time></trkpt><trkpt lat="44.4052867" lon="11.4539117"><ele>307.8333333333333</ele><time>2026-05-01T08:42:44.444Z</time></trkpt><trkpt lat="44.4052383" lon="11.4540117"><ele>308.66666666666663</ele><time>2026-05-01T08:42:46.444Z</time></trkpt><trkpt lat="44.4051833" lon="11.4541133"><ele>309.5</ele><time>2026-05-01T08:42:48.444Z</time></trkpt><trkpt lat="44.405125" lon="11.45422"><ele>310.3333333333333</ele><time>2026-05-01T08:42:50.443Z</time></trkpt><trkpt lat="44.405065" lon="11.4543133"><ele>311.1666666666667</ele><time>2026-05-01T08:42:52.443Z</time></trkpt><trkpt lat="44.4050133" lon="11.4543933"><ele>312.0</ele><time>2026-05-01T08:42:54.443Z</time></trkpt><trkpt lat="44.40497" lon="11.454465"><ele>312.0</ele><time>2026-05-01T08:42:56.442Z</time></trkpt><trkpt lat="44.4049233" lon="11.454535"><ele>312.0</ele><time>2026-05-01T08:42:58.441Z</time></trkpt><trkpt lat="44.4048567" lon="11.4546217"><ele>312.0</ele><time>2026-05-01T08:43:01.443Z</time></trkpt><trkpt lat="44.4048" lon="11.4547"><ele>312.0</ele><time>2026-05-01T08:43:04.442Z</time></trkpt><trkpt lat="44.4047467" lon="11.4547733"><ele>312.0</ele><time>2026-05-01T08:43:07.442Z</time></trkpt><trkpt lat="44.4046983" lon="11.4548433"><ele>312.0</ele><time>2026-05-01T08:43:10.442Z</time></trkpt><trkpt lat="44.40465" lon="11.45492"><ele>313.8333333333333</ele><time>2026-05-01T08:43:13.441Z</time></trkpt><trkpt lat="44.40461" lon="11.4550117"><ele>315.6666666666667</ele><time>2026-05-01T08:43:16.443Z</time></trkpt><trkpt lat="44.4045717" lon="11.455115"><ele>317.5</ele><time>2026-05-01T08:43:20.444Z</time></trkpt><trkpt lat="44.4045517" lon="11.4552067"><ele>319.33333333333337</ele><time>2026-05-01T08:43:24.444Z</time></trkpt><trkpt lat="44.4045167" lon="11.4553033"><ele>321.1666666666667</ele><time>2026-05-01T08:43:28.441Z</time></trkpt><trkpt lat="44.40448" lon="11.455385"><ele>323.0</ele><time>2026-05-01T08:43:31.441Z</time></trkpt><trkpt lat="44.4044467" lon="11.455485"><ele>323.33333333333337</ele><time>2026-05-01T08:43:35.442Z</time></trkpt><trkpt lat="44.4044133" lon="11.4555717"><ele>323.6666666666667</ele><time>2026-05-01T08:43:39.441Z</time></trkpt><trkpt lat="44.4043733" lon="11.4556717"><ele>324.0</ele><time>2026-05-01T08:43:43.442Z</time></trkpt><trkpt lat="44.40434" lon="11.455755"><ele>324.3333333333333</ele><time>2026-05-01T08:43:46.443Z</time></trkpt><trkpt lat="44.40429" lon="11.455825"><ele>324.66666666666663</ele><time>2026-05-01T08:43:49.442Z</time></trkpt><trkpt lat="44.4042417" lon="11.4559167"><ele>325.0</ele><time>2026-05-01T08:43:52.441Z</time></trkpt><trkpt lat="44.4041883" lon="11.4560067"><ele>325.0</ele><time>2026-05-01T08:43:55.442Z</time></trkpt><trkpt lat="44.404125" lon="11.456095"><ele>325.0</ele><time>2026-05-01T08:43:58.442Z</time></trkpt><trkpt lat="44.4040783" lon="11.4561567"><ele>325.0</ele><time>2026-05-01T08:44:00.442Z</time></trkpt><trkpt lat="44.40403" lon="11.4562183"><ele>325.0</ele><time>2026-05-01T08:44:02.441Z</time></trkpt><trkpt lat="44.403985" lon="11.45628"><ele>325.0</ele><time>2026-05-01T08:44:04.442Z</time></trkpt><trkpt lat="44.403935" lon="11.4563367"><ele>325.0</ele><time>2026-05-01T08:44:06.442Z</time></trkpt><trkpt lat="44.40388" lon="11.4564"><ele>325.0</ele><time>2026-05-01T08:44:08.441Z</time></trkpt><trkpt lat="44.4038233" lon="11.45646"><ele>325.1428571428571</ele><time>2026-05-01T08:44:10.442Z</time></trkpt><trkpt lat="44.4037717" lon="11.4565217"><ele>325.28571428571433</ele><time>2026-05-01T08:44:12.441Z</time></trkpt><trkpt lat="44.40372" lon="11.4565767"><ele>325.42857142857144</ele><time>2026-05-01T08:44:14.442Z</time></trkpt><trkpt lat="44.403645" lon="11.456655"><ele>325.57142857142856</ele><time>2026-05-01T08:44:17.443Z</time></trkpt><trkpt lat="44.4035933" lon="11.45671"><ele>325.71428571428567</ele><time>2026-05-01T08:44:19.444Z</time></trkpt><trkpt lat="44.4035433" lon="11.45677"><ele>325.8571428571429</ele><time>2026-05-01T08:44:21.444Z</time></trkpt><trkpt lat="44.40349" lon="11.456825"><ele>326.0</ele><time>2026-05-01T08:44:23.444Z</time></trkpt><trkpt lat="44.403445" lon="11.45689"><ele>326.0</ele><time>2026-05-01T08:44:25.442Z</time></trkpt><trkpt lat="44.4033983" lon="11.456955"><ele>326.0</ele><time>2026-05-01T08:44:27.442Z</time></trkpt><trkpt lat="44.403355" lon="11.4570233"><ele>326.0</ele><time>2026-05-01T08:44:29.441Z</time></trkpt><trkpt lat="44.40329" lon="11.45712"><ele>326.0</ele><time>2026-05-01T08:44:32.442Z</time></trkpt><trkpt lat="44.403245" lon="11.4571867"><ele>326.0</ele><time>2026-05-01T08:44:34.441Z</time></trkpt><trkpt lat="44.4032083" lon="11.4572633"><ele>326.0</ele><time>2026-05-01T08:44:36.442Z</time></trkpt><trkpt lat="44.4031633" lon="11.4573333"><ele>326.0</ele><time>2026-05-01T08:44:38.442Z</time></trkpt><trkpt lat="44.4031117" lon="11.4574033"><ele>326.5</ele><time>2026-05-01T08:44:40.443Z</time></trkpt><trkpt lat="44.403065" lon="11.45749"><ele>327.0</ele><time>2026-05-01T08:44:42.442Z</time></trkpt><trkpt lat="44.4030217" lon="11.4575817"><ele>327.5</ele><time>2026-05-01T08:44:44.442Z</time></trkpt><trkpt lat="44.4029717" lon="11.4576683"><ele>328.0</ele><time>2026-05-01T08:44:46.444Z</time></trkpt><trkpt lat="44.402925" lon="11.4577517"><ele>328.5</ele><time>2026-05-01T08:44:48.443Z</time></trkpt><trkpt lat="44.402875" lon="11.4578333"><ele>329.0</ele><time>2026-05-01T08:44:50.443Z</time></trkpt><trkpt lat="44.4028483" lon="11.4579133"><ele>329.57142857142856</ele><time>2026-05-01T08:44:52.443Z</time></trkpt><trkpt lat="44.40281" lon="11.4580117"><ele>330.1428571428571</ele><time>2026-05-01T08:44:54.444Z</time></trkpt><trkpt lat="44.4027667" lon="11.458095"><ele>330.7142857142857</ele><time>2026-05-01T08:44:56.442Z</time></trkpt><trkpt lat="44.402715" lon="11.4581533"><ele>331.2857142857143</ele><time>2026-05-01T08:44:58.441Z</time></trkpt><trkpt lat="44.4026533" lon="11.45821"><ele>331.85714285714283</ele><time>2026-05-01T08:45:00.442Z</time></trkpt><trkpt lat="44.402595" lon="11.458275"><ele>332.42857142857144</ele><time>2026-05-01T08:45:02.441Z</time></trkpt><trkpt lat="44.40253" lon="11.4583233"><ele>333.0</ele><time>2026-05-01T08:45:04.441Z</time></trkpt><trkpt lat="44.40246" lon="11.4583583"><ele>333.0</ele><time>2026-05-01T08:45:06.44Z</time></trkpt><trkpt lat="44.40238" lon="11.4583867"><ele>333.0</ele><time>2026-05-01T08:45:08.442Z</time></trkpt><trkpt lat="44.4022967" lon="11.4584183"><ele>333.0</ele><time>2026-05-01T08:45:10.442Z</time></trkpt><trkpt lat="44.40221" lon="11.4584517"><ele>333.0</ele><time>2026-05-01T08:45:12.442Z</time></trkpt><trkpt lat="44.402125" lon="11.45849"><ele>333.0</ele><time>2026-05-01T08:45:14.442Z</time></trkpt><trkpt lat="44.4020433" lon="11.4585333"><ele>333.0</ele><time>2026-05-01T08:45:16.442Z</time></trkpt><trkpt lat="44.4019533" lon="11.4585967"><ele>333.0</ele><time>2026-05-01T08:45:18.444Z</time></trkpt><trkpt lat="44.40187" lon="11.45868"><ele>333.0</ele><time>2026-05-01T08:45:20.443Z</time></trkpt><trkpt lat="44.4017883" lon="11.45878"><ele>333.0</ele><time>2026-05-01T08:45:22.441Z</time></trkpt><trkpt lat="44.401715" lon="11.4588733"><ele>333.0</ele><time>2026-05-01T08:45:24.443Z</time></trkpt><trkpt lat="44.4016617" lon="11.4589267"><ele>333.0</ele><time>2026-05-01T08:45:25.441Z</time></trkpt><trkpt lat="44.4015667" lon="11.459025"><ele>333.0</ele><time>2026-05-01T08:45:27.44Z</time></trkpt><trkpt lat="44.4015133" lon="11.4590783"><ele>333.0</ele><time>2026-05-01T08:45:28.44Z</time></trkpt><trkpt lat="44.40146" lon="11.45913"><ele>333.0</ele><time>2026-05-01T08:45:29.44Z</time></trkpt><trkpt lat="44.4013883" lon="11.45921"><ele>333.0</ele><time>2026-05-01T08:45:31.439Z</time></trkpt><trkpt lat="44.401385" lon="11.459325"><ele>333.0</ele><time>2026-05-01T08:45:34.443Z</time></trkpt><trkpt lat="44.4014633" lon="11.4594033"><ele>333.0</ele><time>2026-05-01T08:45:36.439Z</time></trkpt><trkpt lat="44.4015717" lon="11.4594633"><ele>333.0</ele><time>2026-05-01T08:45:38.44Z</time></trkpt><trkpt lat="44.4016817" lon="11.4595317"><ele>333.0</ele><time>2026-05-01T08:45:40.44Z</time></trkpt><trkpt lat="44.4017967" lon="11.4595933"><ele>333.0</ele><time>2026-05-01T08:45:42.441Z</time></trkpt><trkpt lat="44.4019083" lon="11.4596617"><ele>333.0</ele><time>2026-05-01T08:45:44.444Z</time></trkpt><trkpt lat="44.4020217" lon="11.45973"><ele>331.75</ele><time>2026-05-01T08:45:46.439Z</time></trkpt><trkpt lat="44.4021367" lon="11.4597817"><ele>330.5</ele><time>2026-05-01T08:45:48.439Z</time></trkpt><trkpt lat="44.4022433" lon="11.4598483"><ele>329.25</ele><time>2026-05-01T08:45:50.441Z</time></trkpt><trkpt lat="44.4023483" lon="11.4599383"><ele>328.0</ele><time>2026-05-01T08:45:52.442Z</time></trkpt><trkpt lat="44.402455" lon="11.4600217"><ele>328.0</ele><time>2026-05-01T08:45:54.441Z</time></trkpt><trkpt lat="44.4025483" lon="11.4601267"><ele>328.0</ele><time>2026-05-01T08:45:56.441Z</time></trkpt><trkpt lat="44.4026367" lon="11.460215"><ele>328.0</ele><time>2026-05-01T08:45:58.441Z</time></trkpt><trkpt lat="44.4027317" lon="11.4603083"><ele>328.0</ele><time>2026-05-01T08:46:00.442Z</time></trkpt><trkpt lat="44.402825" lon="11.4603867"><ele>327.66666666666663</ele><time>2026-05-01T08:46:02.441Z</time></trkpt><trkpt lat="44.402925" lon="11.4604617"><ele>327.3333333333333</ele><time>2026-05-01T08:46:04.442Z</time></trkpt><trkpt lat="44.4030317" lon="11.4605367"><ele>327.0</ele><time>2026-05-01T08:46:06.441Z</time></trkpt><trkpt lat="44.4030867" lon="11.4605867"><ele>326.6666666666667</ele><time>2026-05-01T08:46:07.443Z</time></trkpt><trkpt lat="44.4031433" lon="11.46064"><ele>326.33333333333337</ele><time>2026-05-01T08:46:08.441Z</time></trkpt><trkpt lat="44.4032017" lon="11.4607"><ele>326.0</ele><time>2026-05-01T08:46:09.442Z</time></trkpt><trkpt lat="44.4032583" lon="11.4607717"><ele>326.0</ele><time>2026-05-01T08:46:10.442Z</time></trkpt><trkpt lat="44.4033083" lon="11.460865"><ele>326.0</ele><time>2026-05-01T08:46:11.442Z</time></trkpt><trkpt lat="44.40336" lon="11.4609733"><ele>326.0</ele><time>2026-05-01T08:46:12.442Z</time></trkpt><trkpt lat="44.4034117" lon="11.4610983"><ele>326.0</ele><time>2026-05-01T08:46:13.442Z</time></trkpt><trkpt lat="44.40347" lon="11.4612333"><ele>326.0</ele><time>2026-05-01T08:46:14.441Z</time></trkpt><trkpt lat="44.4035333" lon="11.4613717"><ele>325.0</ele><time>2026-05-01T08:46:15.442Z</time></trkpt><trkpt lat="44.4035917" lon="11.4615117"><ele>324.0</ele><time>2026-05-01T08:46:16.444Z</time></trkpt><trkpt lat="44.4036483" lon="11.461645"><ele>323.0</ele><time>2026-05-01T08:46:17.441Z</time></trkpt><trkpt lat="44.40371" lon="11.461775"><ele>322.0</ele><time>2026-05-01T08:46:18.441Z</time></trkpt><trkpt lat="44.4037733" lon="11.4618967"><ele>321.0</ele><time>2026-05-01T08:46:19.441Z</time></trkpt><trkpt lat="44.40384" lon="11.462015"><ele>317.8</ele><time>2026-05-01T08:46:20.441Z</time></trkpt><trkpt lat="44.4039017" lon="11.4621317"><ele>314.6</ele><time>2026-05-01T08:46:21.442Z</time></trkpt><trkpt lat="44.4039633" lon="11.46225"><ele>311.4</ele><time>2026-05-01T08:46:22.442Z</time></trkpt><trkpt lat="44.4040167" lon="11.4623733"><ele>308.2</ele><time>2026-05-01T08:46:23.442Z</time></trkpt><trkpt lat="44.404065" lon="11.4625"><ele>305.0</ele><time>2026-05-01T08:46:24.442Z</time></trkpt><trkpt lat="44.404105" lon="11.4626333"><ele>305.0</ele><time>2026-05-01T08:46:25.442Z</time></trkpt><trkpt lat="44.4041433" lon="11.4627733"><ele>305.0</ele><time>2026-05-01T08:46:26.442Z</time></trkpt><trkpt lat="44.404185" lon="11.462915"><ele>305.0</ele><time>2026-05-01T08:46:27.442Z</time></trkpt><trkpt lat="44.4042233" lon="11.4630633"><ele>305.0</ele><time>2026-05-01T08:46:28.441Z</time></trkpt><trkpt lat="44.40426" lon="11.4632233"><ele>305.0</ele><time>2026-05-01T08:46:29.441Z</time></trkpt><trkpt lat="44.4042967" lon="11.4633867"><ele>304.0</ele><time>2026-05-01T08:46:30.442Z</time></trkpt><trkpt lat="44.4043333" lon="11.46355"><ele>303.0</ele><time>2026-05-01T08:46:31.442Z</time></trkpt><trkpt lat="44.4043883" lon="11.4637083"><ele>302.0</ele><time>2026-05-01T08:46:32.442Z</time></trkpt><trkpt lat="44.40445" lon="11.4638617"><ele>301.0</ele><time>2026-05-01T08:46:33.441Z</time></trkpt><trkpt lat="44.40452" lon="11.4640033"><ele>298.5</ele><time>2026-05-01T08:46:34.442Z</time></trkpt><trkpt lat="44.4046" lon="11.4641317"><ele>296.0</ele><time>2026-05-01T08:46:35.442Z</time></trkpt><trkpt lat="44.4046833" lon="11.4642517"><ele>293.5</ele><time>2026-05-01T08:46:36.442Z</time></trkpt><trkpt lat="44.40476" lon="11.4643783"><ele>291.0</ele><time>2026-05-01T08:46:37.441Z</time></trkpt><trkpt lat="44.4048333" lon="11.464495"><ele>288.5</ele><time>2026-05-01T08:46:38.441Z</time></trkpt><trkpt lat="44.404915" lon="11.46459"><ele>286.0</ele><time>2026-05-01T08:46:39.441Z</time></trkpt><trkpt lat="44.405015" lon="11.46465"><ele>283.5</ele><time>2026-05-01T08:46:40.441Z</time></trkpt><trkpt lat="44.4051267" lon="11.4646917"><ele>281.0</ele><time>2026-05-01T08:46:41.441Z</time></trkpt><trkpt lat="44.4052467" lon="11.46474"><ele>280.0</ele><time>2026-05-01T08:46:42.441Z</time></trkpt><trkpt lat="44.4053617" lon="11.4648017"><ele>279.0</ele><time>2026-05-01T08:46:43.44Z</time></trkpt><trkpt lat="44.40547" lon="11.46489"><ele>278.0</ele><time>2026-05-01T08:46:44.441Z</time></trkpt><trkpt lat="44.40557" lon="11.4649967"><ele>277.0</ele><time>2026-05-01T08:46:45.442Z</time></trkpt><trkpt lat="44.405655" lon="11.4651167"><ele>274.75</ele><time>2026-05-01T08:46:46.443Z</time></trkpt><trkpt lat="44.40573" lon="11.465245"><ele>272.5</ele><time>2026-05-01T08:46:47.444Z</time></trkpt><trkpt lat="44.4057967" lon="11.46538"><ele>270.25</ele><time>2026-05-01T08:46:48.441Z</time></trkpt><trkpt lat="44.4058633" lon="11.4655083"><ele>268.0</ele><time>2026-05-01T08:46:49.442Z</time></trkpt><trkpt lat="44.4059267" lon="11.465635"><ele>267.6</ele><time>2026-05-01T08:46:50.442Z</time></trkpt><trkpt lat="44.4059933" lon="11.4657533"><ele>267.20000000000005</ele><time>2026-05-01T08:46:51.441Z</time></trkpt><trkpt lat="44.4060583" lon="11.4658667"><ele>266.8</ele><time>2026-05-01T08:46:52.442Z</time></trkpt><trkpt lat="44.4061217" lon="11.465975"><ele>266.40000000000003</ele><time>2026-05-01T08:46:53.441Z</time></trkpt><trkpt lat="44.4061817" lon="11.46608"><ele>266.0</ele><time>2026-05-01T08:46:54.44Z</time></trkpt><trkpt lat="44.4062383" lon="11.466185"><ele>266.1666666666667</ele><time>2026-05-01T08:46:55.443Z</time></trkpt><trkpt lat="44.406295" lon="11.466285"><ele>266.33333333333337</ele><time>2026-05-01T08:46:56.442Z</time></trkpt><trkpt lat="44.40635" lon="11.4663817"><ele>266.5</ele><time>2026-05-01T08:46:57.441Z</time></trkpt><trkpt lat="44.4064017" lon="11.46648"><ele>266.6666666666667</ele><time>2026-05-01T08:46:58.442Z</time></trkpt><trkpt lat="44.4064533" lon="11.466575"><ele>266.8333333333333</ele><time>2026-05-01T08:46:59.441Z</time></trkpt><trkpt lat="44.4065083" lon="11.4666683"><ele>267.0</ele><time>2026-05-01T08:47:00.442Z</time></trkpt><trkpt lat="44.406565" lon="11.4667633"><ele>267.0</ele><time>2026-05-01T08:47:01.442Z</time></trkpt><trkpt lat="44.40662" lon="11.4668567"><ele>267.0</ele><time>2026-05-01T08:47:02.442Z</time></trkpt><trkpt lat="44.4066767" lon="11.46695"><ele>267.0</ele><time>2026-05-01T08:47:03.442Z</time></trkpt><trkpt lat="44.4067333" lon="11.467045"><ele>267.0</ele><time>2026-05-01T08:47:04.442Z</time></trkpt><trkpt lat="44.4067917" lon="11.467135"><ele>267.0</ele><time>2026-05-01T08:47:05.441Z</time></trkpt><trkpt lat="44.40685" lon="11.467225"><ele>267.0</ele><time>2026-05-01T08:47:06.441Z</time></trkpt><trkpt lat="44.4069117" lon="11.4673167"><ele>266.6666666666667</ele><time>2026-05-01T08:47:07.443Z</time></trkpt><trkpt lat="44.4069733" lon="11.4674067"><ele>266.3333333333333</ele><time>2026-05-01T08:47:08.442Z</time></trkpt><trkpt lat="44.4070317" lon="11.4674967"><ele>266.0</ele><time>2026-05-01T08:47:09.442Z</time></trkpt><trkpt lat="44.4070817" lon="11.46759"><ele>265.66666666666663</ele><time>2026-05-01T08:47:10.442Z</time></trkpt><trkpt lat="44.4071283" lon="11.46768"><ele>265.3333333333333</ele><time>2026-05-01T08:47:11.442Z</time></trkpt><trkpt lat="44.4071717" lon="11.4677717"><ele>265.0</ele><time>2026-05-01T08:47:12.441Z</time></trkpt><trkpt lat="44.4072117" lon="11.4678683"><ele>266.0</ele><time>2026-05-01T08:47:13.442Z</time></trkpt><trkpt lat="44.40725" lon="11.4679667"><ele>267.0</ele><time>2026-05-01T08:47:14.442Z</time></trkpt><trkpt lat="44.407285" lon="11.4680667"><ele>268.0</ele><time>2026-05-01T08:47:15.442Z</time></trkpt><trkpt lat="44.4073167" lon="11.4681667"><ele>269.0</ele><time>2026-05-01T08:47:16.444Z</time></trkpt><trkpt lat="44.40734" lon="11.4682667"><ele>270.0</ele><time>2026-05-01T08:47:17.444Z</time></trkpt><trkpt lat="44.4073583" lon="11.4683633"><ele>271.0</ele><time>2026-05-01T08:47:18.442Z</time></trkpt><trkpt lat="44.4073733" lon="11.46846"><ele>271.0</ele><time>2026-05-01T08:47:19.443Z</time></trkpt><trkpt lat="44.4073833" lon="11.468555"><ele>271.0</ele><time>2026-05-01T08:47:20.441Z</time></trkpt><trkpt lat="44.4073933" lon="11.4686483"><ele>271.0</ele><time>2026-05-01T08:47:21.442Z</time></trkpt><trkpt lat="44.4073983" lon="11.46874"><ele>271.0</ele><time>2026-05-01T08:47:22.442Z</time></trkpt><trkpt lat="44.4074" lon="11.468835"><ele>271.0</ele><time>2026-05-01T08:47:23.44Z</time></trkpt><trkpt lat="44.4074" lon="11.468925"><ele>271.0</ele><time>2026-05-01T08:47:24.441Z</time></trkpt><trkpt lat="44.4074" lon="11.469015"><ele>271.0</ele><time>2026-05-01T08:47:25.443Z</time></trkpt><trkpt lat="44.407395" lon="11.469185"><ele>270.6</ele><time>2026-05-01T08:47:27.442Z</time></trkpt><trkpt lat="44.4073883" lon="11.46934"><ele>270.20000000000005</ele><time>2026-05-01T08:47:29.442Z</time></trkpt><trkpt lat="44.4073783" lon="11.4694833"><ele>269.79999999999995</ele><time>2026-05-01T08:47:31.443Z</time></trkpt><trkpt lat="44.40737" lon="11.469625"><ele>269.4</ele><time>2026-05-01T08:47:33.441Z</time></trkpt><trkpt lat="44.4073617" lon="11.4697583"><ele>269.0</ele><time>2026-05-01T08:47:35.441Z</time></trkpt><trkpt lat="44.4073617" lon="11.4698867"><ele>268.4</ele><time>2026-05-01T08:47:37.442Z</time></trkpt><trkpt lat="44.4073667" lon="11.4700183"><ele>267.79999999999995</ele><time>2026-05-01T08:47:39.442Z</time></trkpt><trkpt lat="44.40738" lon="11.4701667"><ele>267.20000000000005</ele><time>2026-05-01T08:47:41.442Z</time></trkpt><trkpt lat="44.407425" lon="11.4703217"><ele>266.6</ele><time>2026-05-01T08:47:43.439Z</time></trkpt><trkpt lat="44.4074633" lon="11.4704017"><ele>266.0</ele><time>2026-05-01T08:47:44.442Z</time></trkpt><trkpt lat="44.4075067" lon="11.470485"><ele>266.0</ele><time>2026-05-01T08:47:45.442Z</time></trkpt><trkpt lat="44.407535" lon="11.47058"><ele>266.0</ele><time>2026-05-01T08:47:46.443Z</time></trkpt><trkpt lat="44.40755" lon="11.4706883"><ele>266.0</ele><time>2026-05-01T08:47:47.444Z</time></trkpt><trkpt lat="44.4075517" lon="11.4708067"><ele>266.0</ele><time>2026-05-01T08:47:48.442Z</time></trkpt><trkpt lat="44.407535" lon="11.4709383"><ele>266.0</ele><time>2026-05-01T08:47:49.441Z</time></trkpt><trkpt lat="44.407505" lon="11.471075"><ele>266.0</ele><time>2026-05-01T08:47:50.442Z</time></trkpt><trkpt lat="44.4074717" lon="11.4712167"><ele>263.75</ele><time>2026-05-01T08:47:51.441Z</time></trkpt><trkpt lat="44.4074367" lon="11.4713617"><ele>261.5</ele><time>2026-05-01T08:47:52.442Z</time></trkpt><trkpt lat="44.4073983" lon="11.4715067"><ele>259.25</ele><time>2026-05-01T08:47:53.442Z</time></trkpt><trkpt lat="44.4073533" lon="11.471655"><ele>257.0</ele><time>2026-05-01T08:47:54.441Z</time></trkpt><trkpt lat="44.4073033" lon="11.4718"><ele>257.0</ele><time>2026-05-01T08:47:55.442Z</time></trkpt><trkpt lat="44.4072433" lon="11.4719367"><ele>257.0</ele><time>2026-05-01T08:47:56.442Z</time></trkpt><trkpt lat="44.4071767" lon="11.4720633"><ele>257.0</ele><time>2026-05-01T08:47:57.441Z</time></trkpt><trkpt lat="44.4071" lon="11.47218"><ele>257.0</ele><time>2026-05-01T08:47:58.441Z</time></trkpt><trkpt lat="44.4070183" lon="11.472285"><ele>255.39999999999998</ele><time>2026-05-01T08:47:59.441Z</time></trkpt><trkpt lat="44.40694" lon="11.4723817"><ele>253.79999999999998</ele><time>2026-05-01T08:48:00.441Z</time></trkpt><trkpt lat="44.4068733" lon="11.4724633"><ele>252.2</ele><time>2026-05-01T08:48:01.443Z</time></trkpt><trkpt lat="44.406815" lon="11.4725583"><ele>250.6</ele><time>2026-05-01T08:48:02.441Z</time></trkpt><trkpt lat="44.406755" lon="11.472655"><ele>249.0</ele><time>2026-05-01T08:48:03.441Z</time></trkpt><trkpt lat="44.4066867" lon="11.4727383"><ele>249.0</ele><time>2026-05-01T08:48:04.44Z</time></trkpt><trkpt lat="44.4066167" lon="11.47281"><ele>249.0</ele><time>2026-05-01T08:48:05.441Z</time></trkpt><trkpt lat="44.4065517" lon="11.4728683"><ele>249.0</ele><time>2026-05-01T08:48:06.441Z</time></trkpt><trkpt lat="44.40649" lon="11.4729233"><ele>249.0</ele><time>2026-05-01T08:48:07.443Z</time></trkpt><trkpt lat="44.4064317" lon="11.4729767"><ele>249.0</ele><time>2026-05-01T08:48:08.441Z</time></trkpt><trkpt lat="44.406335" lon="11.4730733"><ele>249.0</ele><time>2026-05-01T08:48:10.442Z</time></trkpt><trkpt lat="44.40626" lon="11.4731583"><ele>248.0</ele><time>2026-05-01T08:48:12.442Z</time></trkpt><trkpt lat="44.406195" lon="11.47325"><ele>247.0</ele><time>2026-05-01T08:48:14.442Z</time></trkpt><trkpt lat="44.4061367" lon="11.4733367"><ele>246.0</ele><time>2026-05-01T08:48:16.443Z</time></trkpt><trkpt lat="44.40608" lon="11.4734433"><ele>245.0</ele><time>2026-05-01T08:48:18.44Z</time></trkpt><trkpt lat="44.406035" lon="11.47351"><ele>244.0</ele><time>2026-05-01T08:48:20.44Z</time></trkpt><trkpt lat="44.4059933" lon="11.4735867"><ele>243.0</ele><time>2026-05-01T08:48:22.439Z</time></trkpt><trkpt lat="44.405945" lon="11.4736783"><ele>245.4</ele><time>2026-05-01T08:48:24.44Z</time></trkpt><trkpt lat="44.405885" lon="11.4737883"><ele>247.8</ele><time>2026-05-01T08:48:26.439Z</time></trkpt><trkpt lat="44.4058167" lon="11.4739033"><ele>250.2</ele><time>2026-05-01T08:48:28.439Z</time></trkpt><trkpt lat="44.405755" lon="11.4740217"><ele>252.6</ele><time>2026-05-01T08:48:30.443Z</time></trkpt><trkpt lat="44.405705" lon="11.4741317"><ele>255.0</ele><time>2026-05-01T08:48:32.44Z</time></trkpt><trkpt lat="44.405655" lon="11.47424"><ele>255.0</ele><time>2026-05-01T08:48:34.441Z</time></trkpt><trkpt lat="44.40561" lon="11.474355"><ele>255.0</ele><time>2026-05-01T08:48:36.441Z</time></trkpt><trkpt lat="44.4055633" lon="11.47448"><ele>255.0</ele><time>2026-05-01T08:48:38.441Z</time></trkpt><trkpt lat="44.4055117" lon="11.474605"><ele>255.0</ele><time>2026-05-01T08:48:40.439Z</time></trkpt><trkpt lat="44.4054833" lon="11.4747033"><ele>255.0</ele><time>2026-05-01T08:48:42.44Z</time></trkpt><trkpt lat="44.40545" lon="11.4748167"><ele>253.33333333333334</ele><time>2026-05-01T08:48:44.441Z</time></trkpt><trkpt lat="44.405425" lon="11.4749467"><ele>251.66666666666669</ele><time>2026-05-01T08:48:46.442Z</time></trkpt><trkpt lat="44.4054083" lon="11.475055"><ele>250.0</ele><time>2026-05-01T08:48:49.441Z</time></trkpt><trkpt lat="44.4054133" lon="11.475165"><ele>248.33333333333334</ele><time>2026-05-01T08:48:53.44Z</time></trkpt><trkpt lat="44.4054117" lon="11.4752567"><ele>246.66666666666669</ele><time>2026-05-01T08:48:55.441Z</time></trkpt><trkpt lat="44.4053967" lon="11.475375"><ele>245.0</ele><time>2026-05-01T08:48:57.44Z</time></trkpt><trkpt lat="44.4053683" lon="11.4755033"><ele>243.0</ele><time>2026-05-01T08:48:59.439Z</time></trkpt><trkpt lat="44.405335" lon="11.4756433"><ele>241.0</ele><time>2026-05-01T08:49:01.439Z</time></trkpt><trkpt lat="44.4052833" lon="11.475795"><ele>239.0</ele><time>2026-05-01T08:49:03.44Z</time></trkpt><trkpt lat="44.405225" lon="11.47593"><ele>237.0</ele><time>2026-05-01T08:49:05.439Z</time></trkpt><trkpt lat="44.40516" lon="11.4760683"><ele>236.99999999999997</ele><time>2026-05-01T08:49:07.44Z</time></trkpt><trkpt lat="44.4051267" lon="11.4761483"><ele>237.0</ele><time>2026-05-01T08:49:08.44Z</time></trkpt><trkpt lat="44.40509" lon="11.4762317"><ele>236.99999999999997</ele><time>2026-05-01T08:49:09.444Z</time></trkpt><trkpt lat="44.4050533" lon="11.476325"><ele>236.99999999999997</ele><time>2026-05-01T08:49:10.439Z</time></trkpt><trkpt lat="44.4050133" lon="11.476415"><ele>237.0</ele><time>2026-05-01T08:49:11.445Z</time></trkpt><trkpt lat="44.4049717" lon="11.4765017"><ele>236.99999999999997</ele><time>2026-05-01T08:49:12.44Z</time></trkpt><trkpt lat="44.40493" lon="11.4765867"><ele>236.99999999999997</ele><time>2026-05-01T08:49:13.44Z</time></trkpt><trkpt lat="44.4048883" lon="11.476675"><ele>236.0</ele><time>2026-05-01T08:49:14.439Z</time></trkpt><trkpt lat="44.4048483" lon="11.4767667"><ele>235.0</ele><time>2026-05-01T08:49:15.44Z</time></trkpt><trkpt lat="44.4048067" lon="11.47686"><ele>234.0</ele><time>2026-05-01T08:49:16.443Z</time></trkpt><trkpt lat="44.404765" lon="11.4769567"><ele>233.0</ele><time>2026-05-01T08:49:17.439Z</time></trkpt><trkpt lat="44.4047267" lon="11.477055"><ele>232.0</ele><time>2026-05-01T08:49:18.44Z</time></trkpt><trkpt lat="44.4046883" lon="11.4771533"><ele>231.0</ele><time>2026-05-01T08:49:19.441Z</time></trkpt><trkpt lat="44.40465" lon="11.47725"><ele>228.83333333333334</ele><time>2026-05-01T08:49:20.44Z</time></trkpt><trkpt lat="44.4046083" lon="11.47734"><ele>226.66666666666669</ele><time>2026-05-01T08:49:21.44Z</time></trkpt><trkpt lat="44.404565" lon="11.47743"><ele>224.5</ele><time>2026-05-01T08:49:22.441Z</time></trkpt><trkpt lat="44.404525" lon="11.47752"><ele>222.33333333333334</ele><time>2026-05-01T08:49:23.439Z</time></trkpt><trkpt lat="44.4044883" lon="11.477615"><ele>220.16666666666669</ele><time>2026-05-01T08:49:24.44Z</time></trkpt><trkpt lat="44.4044517" lon="11.4777083"><ele>218.0</ele><time>2026-05-01T08:49:25.441Z</time></trkpt><trkpt lat="44.4044167" lon="11.4777917"><ele>218.00000000000003</ele><time>2026-05-01T08:49:26.438Z</time></trkpt><trkpt lat="44.4043767" lon="11.47787"><ele>218.0</ele><time>2026-05-01T08:49:27.443Z</time></trkpt><trkpt lat="44.4043383" lon="11.4779433"><ele>218.0</ele><time>2026-05-01T08:49:28.441Z</time></trkpt><trkpt lat="44.4043017" lon="11.4780217"><ele>218.0</ele><time>2026-05-01T08:49:29.439Z</time></trkpt><trkpt lat="44.404265" lon="11.478095"><ele>218.00000000000003</ele><time>2026-05-01T08:49:30.441Z</time></trkpt><trkpt lat="44.4041933" lon="11.4782267"><ele>218.0</ele><time>2026-05-01T08:49:32.439Z</time></trkpt><trkpt lat="44.4041217" lon="11.4783617"><ele>218.14285714285714</ele><time>2026-05-01T08:49:34.442Z</time></trkpt><trkpt lat="44.40408" lon="11.478435"><ele>218.28571428571428</ele><time>2026-05-01T08:49:35.439Z</time></trkpt><trkpt lat="44.4040283" lon="11.478505"><ele>218.42857142857144</ele><time>2026-05-01T08:49:36.44Z</time></trkpt><trkpt lat="44.4039767" lon="11.47858"><ele>218.57142857142856</ele><time>2026-05-01T08:49:37.441Z</time></trkpt><trkpt lat="44.403925" lon="11.4786567"><ele>218.7142857142857</ele><time>2026-05-01T08:49:38.44Z</time></trkpt><trkpt lat="44.4038767" lon="11.4787367"><ele>218.85714285714286</ele><time>2026-05-01T08:49:39.441Z</time></trkpt><trkpt lat="44.4038383" lon="11.4788283"><ele>219.0</ele><time>2026-05-01T08:49:40.44Z</time></trkpt><trkpt lat="44.4038067" lon="11.4789267"><ele>219.0</ele><time>2026-05-01T08:49:41.44Z</time></trkpt><trkpt lat="44.4037833" lon="11.479015"><ele>219.0</ele><time>2026-05-01T08:49:42.44Z</time></trkpt><trkpt lat="44.4037633" lon="11.479165"><ele>219.0</ele><time>2026-05-01T08:49:44.441Z</time></trkpt><trkpt lat="44.4037583" lon="11.47926"><ele>219.0</ele><time>2026-05-01T08:49:46.443Z</time></trkpt><trkpt lat="44.4038233" lon="11.4793167"><ele>219.0</ele><time>2026-05-01T08:49:49.442Z</time></trkpt><trkpt lat="44.4038967" lon="11.4793617"><ele>219.0</ele><time>2026-05-01T08:49:51.443Z</time></trkpt><trkpt lat="44.4039817" lon="11.479405"><ele>219.0</ele><time>2026-05-01T08:49:53.443Z</time></trkpt><trkpt lat="44.40407" lon="11.4794333"><ele>218.99999999999997</ele><time>2026-05-01T08:49:55.441Z</time></trkpt><trkpt lat="44.4041733" lon="11.4794883"><ele>218.99999999999997</ele><time>2026-05-01T08:49:57.441Z</time></trkpt><trkpt lat="44.404255" lon="11.47955"><ele>219.0</ele><time>2026-05-01T08:49:59.441Z</time></trkpt><trkpt lat="44.40433" lon="11.4796333"><ele>219.0</ele><time>2026-05-01T08:50:01.441Z</time></trkpt><trkpt lat="44.404385" lon="11.4797417"><ele>218.83333333333334</ele><time>2026-05-01T08:50:03.439Z</time></trkpt><trkpt lat="44.404425" lon="11.4798883"><ele>218.66666666666669</ele><time>2026-05-01T08:50:05.44Z</time></trkpt><trkpt lat="44.4044567" lon="11.480055"><ele>218.5</ele><time>2026-05-01T08:50:07.44Z</time></trkpt><trkpt lat="44.4044617" lon="11.480145"><ele>218.33333333333334</ele><time>2026-05-01T08:50:08.439Z</time></trkpt><trkpt lat="44.4044633" lon="11.48024"><ele>218.16666666666669</ele><time>2026-05-01T08:50:09.439Z</time></trkpt><trkpt lat="44.4044533" lon="11.4803317"><ele>218.0</ele><time>2026-05-01T08:50:10.44Z</time></trkpt><trkpt lat="44.4044467" lon="11.480485"><ele>218.0</ele><time>2026-05-01T08:50:12.44Z</time></trkpt><trkpt lat="44.4044467" lon="11.4806483"><ele>218.0</ele><time>2026-05-01T08:50:14.44Z</time></trkpt><trkpt lat="44.4044467" lon="11.4808017"><ele>218.0</ele><time>2026-05-01T08:50:16.442Z</time></trkpt><trkpt lat="44.4044417" lon="11.480955"><ele>218.0</ele><time>2026-05-01T08:50:18.443Z</time></trkpt><trkpt lat="44.4044417" lon="11.4811133"><ele>218.0</ele><time>2026-05-01T08:50:20.443Z</time></trkpt><trkpt lat="44.4044583" lon="11.481265"><ele>216.8</ele><time>2026-05-01T08:50:22.442Z</time></trkpt><trkpt lat="44.4044817" lon="11.4814183"><ele>215.60000000000002</ele><time>2026-05-01T08:50:24.443Z</time></trkpt><trkpt lat="44.4044967" lon="11.4815617"><ele>214.39999999999998</ele><time>2026-05-01T08:50:26.44Z</time></trkpt><trkpt lat="44.4045083" lon="11.4817167"><ele>213.2</ele><time>2026-05-01T08:50:28.441Z</time></trkpt><trkpt lat="44.4045117" lon="11.4818067"><ele>212.0</ele><time>2026-05-01T08:50:29.439Z</time></trkpt><trkpt lat="44.4045133" lon="11.4818983"><ele>212.0</ele><time>2026-05-01T08:50:30.441Z</time></trkpt><trkpt lat="44.404515" lon="11.4819867"><ele>212.0</ele><time>2026-05-01T08:50:31.441Z</time></trkpt><trkpt lat="44.4045033" lon="11.48215"><ele>212.0</ele><time>2026-05-01T08:50:33.44Z</time></trkpt><trkpt lat="44.4044667" lon="11.482305"><ele>212.0</ele><time>2026-05-01T08:50:35.44Z</time></trkpt><trkpt lat="44.4044417" lon="11.482455"><ele>212.0</ele><time>2026-05-01T08:50:37.443Z</time></trkpt><trkpt lat="44.4044233" lon="11.4826033"><ele>210.66666666666669</ele><time>2026-05-01T08:50:39.44Z</time></trkpt><trkpt lat="44.4044067" lon="11.4827667"><ele>209.33333333333334</ele><time>2026-05-01T08:50:41.44Z</time></trkpt><trkpt lat="44.4043917" lon="11.4828533"><ele>208.0</ele><time>2026-05-01T08:50:42.439Z</time></trkpt><trkpt lat="44.404375" lon="11.4829467"><ele>206.66666666666669</ele><time>2026-05-01T08:50:43.44Z</time></trkpt><trkpt lat="44.40437" lon="11.483035"><ele>205.33333333333334</ele><time>2026-05-01T08:50:44.44Z</time></trkpt><trkpt lat="44.404385" lon="11.4831283"><ele>204.0</ele><time>2026-05-01T08:50:45.441Z</time></trkpt><trkpt lat="44.404405" lon="11.483225"><ele>202.33333333333334</ele><time>2026-05-01T08:50:46.443Z</time></trkpt><trkpt lat="44.404435" lon="11.4833233"><ele>200.66666666666669</ele><time>2026-05-01T08:50:47.443Z</time></trkpt><trkpt lat="44.4044683" lon="11.483425"><ele>199.0</ele><time>2026-05-01T08:50:48.44Z</time></trkpt><trkpt lat="44.4045033" lon="11.4835283"><ele>197.33333333333334</ele><time>2026-05-01T08:50:49.442Z</time></trkpt><trkpt lat="44.404545" lon="11.4836317"><ele>195.66666666666669</ele><time>2026-05-01T08:50:50.444Z</time></trkpt><trkpt lat="44.4045917" lon="11.4837333"><ele>194.0</ele><time>2026-05-01T08:50:51.439Z</time></trkpt><trkpt lat="44.4046233" lon="11.48383"><ele>192.66666666666669</ele><time>2026-05-01T08:50:52.442Z</time></trkpt><trkpt lat="44.4046517" lon="11.4839367"><ele>191.33333333333334</ele><time>2026-05-01T08:50:53.442Z</time></trkpt><trkpt lat="44.404685" lon="11.4840417"><ele>190.0</ele><time>2026-05-01T08:50:54.446Z</time></trkpt><trkpt lat="44.40471" lon="11.4841517"><ele>188.66666666666669</ele><time>2026-05-01T08:50:55.44Z</time></trkpt><trkpt lat="44.404745" lon="11.484255"><ele>187.33333333333334</ele><time>2026-05-01T08:50:56.441Z</time></trkpt><trkpt lat="44.4047683" lon="11.484355"><ele>186.0</ele><time>2026-05-01T08:50:57.44Z</time></trkpt><trkpt lat="44.4047967" lon="11.484455"><ele>185.16666666666666</ele><time>2026-05-01T08:50:58.439Z</time></trkpt><trkpt lat="44.4048283" lon="11.484565"><ele>184.33333333333334</ele><time>2026-05-01T08:50:59.439Z</time></trkpt><trkpt lat="44.40485" lon="11.48467"><ele>183.5</ele><time>2026-05-01T08:51:00.44Z</time></trkpt><trkpt lat="44.40488" lon="11.48477"><ele>182.66666666666669</ele><time>2026-05-01T08:51:01.441Z</time></trkpt><trkpt lat="44.4049033" lon="11.4848733"><ele>181.83333333333334</ele><time>2026-05-01T08:51:02.44Z</time></trkpt><trkpt lat="44.4049217" lon="11.48498"><ele>181.0</ele><time>2026-05-01T08:51:03.44Z</time></trkpt><trkpt lat="44.4049333" lon="11.48509"><ele>181.0</ele><time>2026-05-01T08:51:04.439Z</time></trkpt><trkpt lat="44.4049383" lon="11.485195"><ele>181.0</ele><time>2026-05-01T08:51:05.44Z</time></trkpt><trkpt lat="44.40494" lon="11.4852917"><ele>181.0</ele><time>2026-05-01T08:51:06.443Z</time></trkpt><trkpt lat="44.4049383" lon="11.485385"><ele>181.0</ele><time>2026-05-01T08:51:07.439Z</time></trkpt><trkpt lat="44.4049333" lon="11.48548"><ele>181.0</ele><time>2026-05-01T08:51:08.44Z</time></trkpt><trkpt lat="44.4049283" lon="11.48557"><ele>181.0</ele><time>2026-05-01T08:51:09.44Z</time></trkpt><trkpt lat="44.4049283" lon="11.4857367"><ele>182.0</ele><time>2026-05-01T08:51:11.439Z</time></trkpt><trkpt lat="44.4049233" lon="11.4858817"><ele>183.0</ele><time>2026-05-01T08:51:13.441Z</time></trkpt><trkpt lat="44.4049183" lon="11.4860183"><ele>184.0</ele><time>2026-05-01T08:51:15.44Z</time></trkpt><trkpt lat="44.4049217" lon="11.4861417"><ele>185.0</ele><time>2026-05-01T08:51:17.443Z</time></trkpt><trkpt lat="44.4049233" lon="11.4862667"><ele>186.0</ele><time>2026-05-01T08:51:19.443Z</time></trkpt><trkpt lat="44.40493" lon="11.4863917"><ele>187.0</ele><time>2026-05-01T08:51:21.44Z</time></trkpt><trkpt lat="44.40493" lon="11.4865133"><ele>188.0</ele><time>2026-05-01T08:51:23.439Z</time></trkpt><trkpt lat="44.4049267" lon="11.486625"><ele>189.0</ele><time>2026-05-01T08:51:25.441Z</time></trkpt><trkpt lat="44.4049233" lon="11.4867333"><ele>190.0</ele><time>2026-05-01T08:51:27.439Z</time></trkpt><trkpt lat="44.40492" lon="11.4868333"><ele>191.0</ele><time>2026-05-01T08:51:29.439Z</time></trkpt><trkpt lat="44.40492" lon="11.4869467"><ele>192.0</ele><time>2026-05-01T08:51:32.439Z</time></trkpt><trkpt lat="44.4049583" lon="11.48703"><ele>192.5</ele><time>2026-05-01T08:51:38.44Z</time></trkpt><trkpt lat="44.4049967" lon="11.48711"><ele>193.0</ele><time>2026-05-01T08:52:45.441Z</time></trkpt><trkpt lat="44.404905" lon="11.487145"><ele>193.5</ele><time>2026-05-01T08:53:19.442Z</time></trkpt><trkpt lat="44.4049133" lon="11.48726"><ele>194.0</ele><time>2026-05-01T08:53:24.439Z</time></trkpt><trkpt lat="44.4049067" lon="11.4873633"><ele>194.5</ele><time>2026-05-01T08:53:27.44Z</time></trkpt><trkpt lat="44.4048867" lon="11.48747"><ele>195.0</ele><time>2026-05-01T08:53:30.439Z</time></trkpt><trkpt lat="44.404875" lon="11.48758"><ele>195.0</ele><time>2026-05-01T08:53:33.44Z</time></trkpt><trkpt lat="44.4048833" lon="11.4876767"><ele>195.0</ele><time>2026-05-01T08:53:36.441Z</time></trkpt><trkpt lat="44.404885" lon="11.487805"><ele>195.0</ele><time>2026-05-01T08:53:39.44Z</time></trkpt><trkpt lat="44.4048783" lon="11.4879033"><ele>195.0</ele><time>2026-05-01T08:53:41.44Z</time></trkpt><trkpt lat="44.404875" lon="11.4880167"><ele>195.0</ele><time>2026-05-01T08:53:43.442Z</time></trkpt><trkpt lat="44.4049067" lon="11.4881433"><ele>195.0</ele><time>2026-05-01T08:53:45.44Z</time></trkpt><trkpt lat="44.4049283" lon="11.488275"><ele>194.8</ele><time>2026-05-01T08:53:47.443Z</time></trkpt><trkpt lat="44.4049467" lon="11.48841"><ele>194.6</ele><time>2026-05-01T08:53:49.441Z</time></trkpt><trkpt lat="44.4049583" lon="11.488555"><ele>194.39999999999998</ele><time>2026-05-01T08:53:51.44Z</time></trkpt><trkpt lat="44.4049833" lon="11.4887033"><ele>194.2</ele><time>2026-05-01T08:53:53.441Z</time></trkpt><trkpt lat="44.405015" lon="11.4888483"><ele>194.0</ele><time>2026-05-01T08:53:55.44Z</time></trkpt><trkpt lat="44.40504" lon="11.48899"><ele>193.79999999999998</ele><time>2026-05-01T08:53:57.441Z</time></trkpt><trkpt lat="44.40507" lon="11.4891383"><ele>193.6</ele><time>2026-05-01T08:53:59.441Z</time></trkpt><trkpt lat="44.4050933" lon="11.489285"><ele>193.4</ele><time>2026-05-01T08:54:01.44Z</time></trkpt><trkpt lat="44.405115" lon="11.4894367"><ele>193.2</ele><time>2026-05-01T08:54:03.44Z</time></trkpt><trkpt lat="44.4051333" lon="11.48959"><ele>193.0</ele><time>2026-05-01T08:54:05.439Z</time></trkpt><trkpt lat="44.4051517" lon="11.4897467"><ele>192.2</ele><time>2026-05-01T08:54:07.441Z</time></trkpt><trkpt lat="44.4051617" lon="11.489905"><ele>191.4</ele><time>2026-05-01T08:54:09.441Z</time></trkpt><trkpt lat="44.4051633" lon="11.4900733"><ele>190.6</ele><time>2026-05-01T08:54:11.44Z</time></trkpt><trkpt lat="44.4051633" lon="11.4902467"><ele>189.79999999999998</ele><time>2026-05-01T08:54:13.441Z</time></trkpt><trkpt lat="44.4051633" lon="11.4903367"><ele>189.0</ele><time>2026-05-01T08:54:14.439Z</time></trkpt><trkpt lat="44.4051633" lon="11.4904283"><ele>188.57142857142858</ele><time>2026-05-01T08:54:15.439Z</time></trkpt><trkpt lat="44.4051633" lon="11.49052"><ele>188.14285714285714</ele><time>2026-05-01T08:54:16.442Z</time></trkpt><trkpt lat="44.405165" lon="11.49061"><ele>187.71428571428572</ele><time>2026-05-01T08:54:17.442Z</time></trkpt><trkpt lat="44.4051683" lon="11.490705"><ele>187.28571428571428</ele><time>2026-05-01T08:54:18.442Z</time></trkpt><trkpt lat="44.4051683" lon="11.4908017"><ele>186.85714285714286</ele><time>2026-05-01T08:54:19.442Z</time></trkpt><trkpt lat="44.4051733" lon="11.4908967"><ele>186.42857142857144</ele><time>2026-05-01T08:54:20.443Z</time></trkpt><trkpt lat="44.4051717" lon="11.4909967"><ele>186.0</ele><time>2026-05-01T08:54:21.441Z</time></trkpt><trkpt lat="44.4051717" lon="11.491095"><ele>186.00000000000003</ele><time>2026-05-01T08:54:22.443Z</time></trkpt><trkpt lat="44.405175" lon="11.491195"><ele>186.0</ele><time>2026-05-01T08:54:23.443Z</time></trkpt><trkpt lat="44.4051783" lon="11.4912967"><ele>186.0</ele><time>2026-05-01T08:54:24.442Z</time></trkpt><trkpt lat="44.40518" lon="11.4914"><ele>186.0</ele><time>2026-05-01T08:54:25.44Z</time></trkpt><trkpt lat="44.4051833" lon="11.4915067"><ele>186.0</ele><time>2026-05-01T08:54:26.44Z</time></trkpt><trkpt lat="44.4051833" lon="11.4916133"><ele>186.00000000000003</ele><time>2026-05-01T08:54:27.44Z</time></trkpt><trkpt lat="44.405185" lon="11.4917183"><ele>186.0</ele><time>2026-05-01T08:54:28.44Z</time></trkpt><trkpt lat="44.4051883" lon="11.491825"><ele>186.00000000000003</ele><time>2026-05-01T08:54:29.439Z</time></trkpt><trkpt lat="44.40519" lon="11.4919283"><ele>186.0</ele><time>2026-05-01T08:54:30.44Z</time></trkpt><trkpt lat="44.405195" lon="11.4920267"><ele>186.0</ele><time>2026-05-01T08:54:31.441Z</time></trkpt><trkpt lat="44.4051967" lon="11.492115"><ele>186.0</ele><time>2026-05-01T08:54:32.44Z</time></trkpt><trkpt lat="44.4052" lon="11.4922033"><ele>186.0</ele><time>2026-05-01T08:54:33.44Z</time></trkpt><trkpt lat="44.4052017" lon="11.492295"><ele>186.00000000000003</ele><time>2026-05-01T08:54:34.44Z</time></trkpt><trkpt lat="44.4052033" lon="11.49239"><ele>186.0</ele><time>2026-05-01T08:54:35.44Z</time></trkpt><trkpt lat="44.4052033" lon="11.4924817"><ele>185.5</ele><time>2026-05-01T08:54:36.44Z</time></trkpt><trkpt lat="44.4052083" lon="11.4925733"><ele>185.0</ele><time>2026-05-01T08:54:37.44Z</time></trkpt><trkpt lat="44.4052133" lon="11.4926667"><ele>184.5</ele><time>2026-05-01T08:54:38.441Z</time></trkpt><trkpt lat="44.4052133" lon="11.4927633"><ele>184.0</ele><time>2026-05-01T08:54:39.441Z</time></trkpt><trkpt lat="44.4052133" lon="11.4928533"><ele>183.5</ele><time>2026-05-01T08:54:40.441Z</time></trkpt><trkpt lat="44.4052283" lon="11.4930283"><ele>183.0</ele><time>2026-05-01T08:54:42.441Z</time></trkpt><trkpt lat="44.405235" lon="11.49312"><ele>182.85714285714286</ele><time>2026-05-01T08:54:43.441Z</time></trkpt><trkpt lat="44.4052383" lon="11.4932083"><ele>182.71428571428572</ele><time>2026-05-01T08:54:44.439Z</time></trkpt><trkpt lat="44.40524" lon="11.4933017"><ele>182.57142857142856</ele><time>2026-05-01T08:54:45.441Z</time></trkpt><trkpt lat="44.4052417" lon="11.4933933"><ele>182.42857142857144</ele><time>2026-05-01T08:54:46.442Z</time></trkpt><trkpt lat="44.4052417" lon="11.4934867"><ele>182.28571428571428</ele><time>2026-05-01T08:54:47.443Z</time></trkpt><trkpt lat="44.4052367" lon="11.4935783"><ele>182.14285714285714</ele><time>2026-05-01T08:54:48.442Z</time></trkpt><trkpt lat="44.4052317" lon="11.4936717"><ele>182.0</ele><time>2026-05-01T08:54:49.442Z</time></trkpt><trkpt lat="44.4052317" lon="11.4937667"><ele>181.28571428571428</ele><time>2026-05-01T08:54:50.443Z</time></trkpt><trkpt lat="44.4052333" lon="11.493865"><ele>180.57142857142856</ele><time>2026-05-01T08:54:51.442Z</time></trkpt><trkpt lat="44.405235" lon="11.49396"><ele>179.85714285714286</ele><time>2026-05-01T08:54:52.443Z</time></trkpt><trkpt lat="44.4052317" lon="11.4940583"><ele>179.14285714285714</ele><time>2026-05-01T08:54:53.442Z</time></trkpt><trkpt lat="44.40523" lon="11.4941583"><ele>178.42857142857142</ele><time>2026-05-01T08:54:54.442Z</time></trkpt><trkpt lat="44.40523" lon="11.4942633"><ele>177.71428571428572</ele><time>2026-05-01T08:54:55.44Z</time></trkpt><trkpt lat="44.40523" lon="11.4943717"><ele>177.0</ele><time>2026-05-01T08:54:56.439Z</time></trkpt><trkpt lat="44.4052317" lon="11.49448"><ele>176.33333333333334</ele><time>2026-05-01T08:54:57.44Z</time></trkpt><trkpt lat="44.4052367" lon="11.4945883"><ele>175.66666666666666</ele><time>2026-05-01T08:54:58.44Z</time></trkpt><trkpt lat="44.4052467" lon="11.4946933"><ele>175.0</ele><time>2026-05-01T08:54:59.44Z</time></trkpt><trkpt lat="44.4052683" lon="11.4947933"><ele>174.33333333333331</ele><time>2026-05-01T08:55:00.439Z</time></trkpt><trkpt lat="44.405305" lon="11.4948833"><ele>173.66666666666666</ele><time>2026-05-01T08:55:01.443Z</time></trkpt><trkpt lat="44.4053533" lon="11.4949617"><ele>173.0</ele><time>2026-05-01T08:55:02.44Z</time></trkpt><trkpt lat="44.4054117" lon="11.49503"><ele>173.0</ele><time>2026-05-01T08:55:03.44Z</time></trkpt><trkpt lat="44.4054683" lon="11.4951"><ele>173.0</ele><time>2026-05-01T08:55:04.44Z</time></trkpt><trkpt lat="44.40553" lon="11.4951683"><ele>173.0</ele><time>2026-05-01T08:55:05.44Z</time></trkpt><trkpt lat="44.405595" lon="11.49524"><ele>173.0</ele><time>2026-05-01T08:55:06.44Z</time></trkpt><trkpt lat="44.405665" lon="11.4953133"><ele>173.0</ele><time>2026-05-01T08:55:07.441Z</time></trkpt><trkpt lat="44.4057417" lon="11.49539"><ele>173.0</ele><time>2026-05-01T08:55:08.44Z</time></trkpt><trkpt lat="44.405815" lon="11.4954617"><ele>172.2</ele><time>2026-05-01T08:55:09.443Z</time></trkpt><trkpt lat="44.40588" lon="11.4955267"><ele>171.4</ele><time>2026-05-01T08:55:10.44Z</time></trkpt><trkpt lat="44.405945" lon="11.4955917"><ele>170.6</ele><time>2026-05-01T08:55:11.439Z</time></trkpt><trkpt lat="44.40602" lon="11.4956667"><ele>169.79999999999998</ele><time>2026-05-01T08:55:12.439Z</time></trkpt><trkpt lat="44.4061017" lon="11.4957467"><ele>169.0</ele><time>2026-05-01T08:55:13.441Z</time></trkpt><trkpt lat="44.4061867" lon="11.4958317"><ele>169.0</ele><time>2026-05-01T08:55:14.439Z</time></trkpt><trkpt lat="44.4062667" lon="11.4959067"><ele>169.0</ele><time>2026-05-01T08:55:15.44Z</time></trkpt><trkpt lat="44.4063367" lon="11.4959783"><ele>169.0</ele><time>2026-05-01T08:55:16.442Z</time></trkpt><trkpt lat="44.4064" lon="11.4960467"><ele>169.0</ele><time>2026-05-01T08:55:17.443Z</time></trkpt><trkpt lat="44.4064667" lon="11.4961083"><ele>169.0</ele><time>2026-05-01T08:55:18.442Z</time></trkpt><trkpt lat="44.4065283" lon="11.4961717"><ele>169.0</ele><time>2026-05-01T08:55:19.443Z</time></trkpt><trkpt lat="44.4065933" lon="11.496235"><ele>168.16666666666669</ele><time>2026-05-01T08:55:20.443Z</time></trkpt><trkpt lat="44.4066567" lon="11.4962967"><ele>167.33333333333334</ele><time>2026-05-01T08:55:21.443Z</time></trkpt><trkpt lat="44.40672" lon="11.4963583"><ele>166.5</ele><time>2026-05-01T08:55:22.442Z</time></trkpt><trkpt lat="44.406785" lon="11.4964167"><ele>165.66666666666666</ele><time>2026-05-01T08:55:23.443Z</time></trkpt><trkpt lat="44.406855" lon="11.496475"><ele>164.83333333333331</ele><time>2026-05-01T08:55:24.442Z</time></trkpt><trkpt lat="44.4069283" lon="11.4965317"><ele>164.0</ele><time>2026-05-01T08:55:25.44Z</time></trkpt><trkpt lat="44.4069983" lon="11.4965933"><ele>164.0</ele><time>2026-05-01T08:55:26.439Z</time></trkpt><trkpt lat="44.407065" lon="11.4966567"><ele>164.0</ele><time>2026-05-01T08:55:27.44Z</time></trkpt><trkpt lat="44.4071333" lon="11.4967167"><ele>164.0</ele><time>2026-05-01T08:55:28.44Z</time></trkpt><trkpt lat="44.4072033" lon="11.49678"><ele>164.0</ele><time>2026-05-01T08:55:29.441Z</time></trkpt><trkpt lat="44.4072683" lon="11.4968433"><ele>164.0</ele><time>2026-05-01T08:55:30.44Z</time></trkpt><trkpt lat="44.407335" lon="11.496905"><ele>164.0</ele><time>2026-05-01T08:55:31.44Z</time></trkpt><trkpt lat="44.4074033" lon="11.4969667"><ele>162.66666666666666</ele><time>2026-05-01T08:55:32.44Z</time></trkpt><trkpt lat="44.4074683" lon="11.49703"><ele>161.33333333333331</ele><time>2026-05-01T08:55:33.44Z</time></trkpt><trkpt lat="44.4075367" lon="11.4970883"><ele>160.0</ele><time>2026-05-01T08:55:34.44Z</time></trkpt><trkpt lat="44.407605" lon="11.49715"><ele>158.66666666666666</ele><time>2026-05-01T08:55:35.439Z</time></trkpt><trkpt lat="44.4076733" lon="11.4972133"><ele>157.33333333333334</ele><time>2026-05-01T08:55:36.44Z</time></trkpt><trkpt lat="44.40774" lon="11.497275"><ele>156.0</ele><time>2026-05-01T08:55:37.44Z</time></trkpt><trkpt lat="44.4078133" lon="11.4973383"><ele>155.83333333333334</ele><time>2026-05-01T08:55:38.439Z</time></trkpt><trkpt lat="44.4078833" lon="11.4974033"><ele>155.66666666666666</ele><time>2026-05-01T08:55:39.439Z</time></trkpt><trkpt lat="44.4079533" lon="11.4974717"><ele>155.5</ele><time>2026-05-01T08:55:40.44Z</time></trkpt><trkpt lat="44.408025" lon="11.4975367"><ele>155.33333333333331</ele><time>2026-05-01T08:55:41.44Z</time></trkpt><trkpt lat="44.4080983" lon="11.4976017"><ele>155.16666666666666</ele><time>2026-05-01T08:55:42.44Z</time></trkpt><trkpt lat="44.40817" lon="11.4976683"><ele>155.0</ele><time>2026-05-01T08:55:43.441Z</time></trkpt><trkpt lat="44.4082467" lon="11.4977367"><ele>154.83333333333331</ele><time>2026-05-01T08:55:44.44Z</time></trkpt><trkpt lat="44.4083233" lon="11.4978033"><ele>154.66666666666666</ele><time>2026-05-01T08:55:45.44Z</time></trkpt><trkpt lat="44.4083983" lon="11.49787"><ele>154.5</ele><time>2026-05-01T08:55:46.442Z</time></trkpt><trkpt lat="44.4084733" lon="11.49794"><ele>154.33333333333334</ele><time>2026-05-01T08:55:47.443Z</time></trkpt><trkpt lat="44.4085483" lon="11.4980117"><ele>154.16666666666669</ele><time>2026-05-01T08:55:48.443Z</time></trkpt><trkpt lat="44.40862" lon="11.4980783"><ele>154.0</ele><time>2026-05-01T08:55:49.443Z</time></trkpt><trkpt lat="44.408695" lon="11.4981483"><ele>153.6</ele><time>2026-05-01T08:55:50.443Z</time></trkpt><trkpt lat="44.4087717" lon="11.4982183"><ele>153.2</ele><time>2026-05-01T08:55:51.442Z</time></trkpt><trkpt lat="44.4088517" lon="11.4982883"><ele>152.79999999999998</ele><time>2026-05-01T08:55:52.443Z</time></trkpt><trkpt lat="44.4089267" lon="11.4983617"><ele>152.4</ele><time>2026-05-01T08:55:53.444Z</time></trkpt><trkpt lat="44.4090017" lon="11.4984367"><ele>152.0</ele><time>2026-05-01T08:55:54.443Z</time></trkpt><trkpt lat="44.40908" lon="11.49851"><ele>151.2</ele><time>2026-05-01T08:55:55.44Z</time></trkpt><trkpt lat="44.4091583" lon="11.4985833"><ele>150.39999999999998</ele><time>2026-05-01T08:55:56.44Z</time></trkpt><trkpt lat="44.409235" lon="11.4986567"><ele>149.60000000000002</ele><time>2026-05-01T08:55:57.44Z</time></trkpt><trkpt lat="44.4093133" lon="11.4987333"><ele>148.8</ele><time>2026-05-01T08:55:58.442Z</time></trkpt><trkpt lat="44.4093867" lon="11.4988083"><ele>148.0</ele><time>2026-05-01T08:55:59.44Z</time></trkpt><trkpt lat="44.40946" lon="11.4988817"><ele>147.83333333333334</ele><time>2026-05-01T08:56:00.44Z</time></trkpt><trkpt lat="44.409535" lon="11.4989517"><ele>147.66666666666669</ele><time>2026-05-01T08:56:01.441Z</time></trkpt><trkpt lat="44.4096067" lon="11.4990233"><ele>147.5</ele><time>2026-05-01T08:56:02.44Z</time></trkpt><trkpt lat="44.40968" lon="11.4990917"><ele>147.33333333333334</ele><time>2026-05-01T08:56:03.44Z</time></trkpt><trkpt lat="44.4097533" lon="11.49916"><ele>147.16666666666666</ele><time>2026-05-01T08:56:04.44Z</time></trkpt><trkpt lat="44.4098267" lon="11.4992283"><ele>147.0</ele><time>2026-05-01T08:56:05.44Z</time></trkpt><trkpt lat="44.4098967" lon="11.4993"><ele>146.66666666666666</ele><time>2026-05-01T08:56:06.44Z</time></trkpt><trkpt lat="44.40997" lon="11.4993683"><ele>146.33333333333334</ele><time>2026-05-01T08:56:07.441Z</time></trkpt><trkpt lat="44.4100417" lon="11.4994383"><ele>146.0</ele><time>2026-05-01T08:56:08.44Z</time></trkpt><trkpt lat="44.410115" lon="11.4995017"><ele>145.66666666666669</ele><time>2026-05-01T08:56:09.439Z</time></trkpt><trkpt lat="44.4101883" lon="11.499565"><ele>145.33333333333334</ele><time>2026-05-01T08:56:10.439Z</time></trkpt><trkpt lat="44.4102617" lon="11.4996283"><ele>145.0</ele><time>2026-05-01T08:56:11.44Z</time></trkpt><trkpt lat="44.4103283" lon="11.499695"><ele>144.2</ele><time>2026-05-01T08:56:12.44Z</time></trkpt><trkpt lat="44.4103883" lon="11.4997567"><ele>143.4</ele><time>2026-05-01T08:56:13.44Z</time></trkpt><trkpt lat="44.41045" lon="11.4998083"><ele>142.6</ele><time>2026-05-01T08:56:14.439Z</time></trkpt><trkpt lat="44.4105083" lon="11.499855"><ele>141.8</ele><time>2026-05-01T08:56:15.439Z</time></trkpt><trkpt lat="44.4105967" lon="11.49997"><ele>141.0</ele><time>2026-05-01T08:56:17.442Z</time></trkpt><trkpt lat="44.4106367" lon="11.5001433"><ele>140.0</ele><time>2026-05-01T08:56:19.442Z</time></trkpt><trkpt lat="44.4106333" lon="11.5002517"><ele>139.0</ele><time>2026-05-01T08:56:20.443Z</time></trkpt><trkpt lat="44.410625" lon="11.50036"><ele>138.0</ele><time>2026-05-01T08:56:21.443Z</time></trkpt><trkpt lat="44.4106217" lon="11.50047"><ele>137.0</ele><time>2026-05-01T08:56:22.442Z</time></trkpt><trkpt lat="44.41061" lon="11.5005783"><ele>136.0</ele><time>2026-05-01T08:56:23.442Z</time></trkpt><trkpt lat="44.4105967" lon="11.5006817"><ele>135.0</ele><time>2026-05-01T08:56:24.443Z</time></trkpt><trkpt lat="44.410585" lon="11.5007833"><ele>134.71428571428572</ele><time>2026-05-01T08:56:25.44Z</time></trkpt><trkpt lat="44.4105717" lon="11.500885"><ele>134.42857142857142</ele><time>2026-05-01T08:56:26.44Z</time></trkpt><trkpt lat="44.4105617" lon="11.5009883"><ele>134.14285714285714</ele><time>2026-05-01T08:56:27.44Z</time></trkpt><trkpt lat="44.4105467" lon="11.50109"><ele>133.85714285714286</ele><time>2026-05-01T08:56:28.44Z</time></trkpt><trkpt lat="44.4105333" lon="11.5011917"><ele>133.57142857142856</ele><time>2026-05-01T08:56:29.445Z</time></trkpt><trkpt lat="44.41053" lon="11.50129"><ele>133.28571428571428</ele><time>2026-05-01T08:56:30.441Z</time></trkpt><trkpt lat="44.4105383" lon="11.50139"><ele>133.0</ele><time>2026-05-01T08:56:31.441Z</time></trkpt><trkpt lat="44.4105617" lon="11.5014917"><ele>132.0</ele><time>2026-05-01T08:56:32.44Z</time></trkpt><trkpt lat="44.4105933" lon="11.501595"><ele>131.0</ele><time>2026-05-01T08:56:33.44Z</time></trkpt><trkpt lat="44.410625" lon="11.5016967"><ele>130.0</ele><time>2026-05-01T08:56:34.44Z</time></trkpt><trkpt lat="44.41065" lon="11.5018017"><ele>129.0</ele><time>2026-05-01T08:56:35.44Z</time></trkpt><trkpt lat="44.4106667" lon="11.5019117"><ele>128.0</ele><time>2026-05-01T08:56:36.44Z</time></trkpt><trkpt lat="44.4106783" lon="11.5020217"><ele>127.0</ele><time>2026-05-01T08:56:37.441Z</time></trkpt><trkpt lat="44.4106717" lon="11.5021367"><ele>126.00000000000001</ele><time>2026-05-01T08:56:38.441Z</time></trkpt><trkpt lat="44.4106633" lon="11.50225"><ele>125.0</ele><time>2026-05-01T08:56:39.44Z</time></trkpt><trkpt lat="44.4106483" lon="11.502365"><ele>124.0</ele><time>2026-05-01T08:56:40.44Z</time></trkpt><trkpt lat="44.4106267" lon="11.5024717"><ele>123.0</ele><time>2026-05-01T08:56:41.441Z</time></trkpt><trkpt lat="44.4106133" lon="11.5025667"><ele>122.00000000000001</ele><time>2026-05-01T08:56:42.441Z</time></trkpt><trkpt lat="44.410595" lon="11.5026583"><ele>121.0</ele><time>2026-05-01T08:56:43.441Z</time></trkpt><trkpt lat="44.410575" lon="11.502755"><ele>121.00000000000001</ele><time>2026-05-01T08:56:44.442Z</time></trkpt><trkpt lat="44.4105467" lon="11.5028517"><ele>121.0</ele><time>2026-05-01T08:56:45.441Z</time></trkpt><trkpt lat="44.41052" lon="11.5029567"><ele>121.0</ele><time>2026-05-01T08:56:46.443Z</time></trkpt><trkpt lat="44.4104883" lon="11.5030633"><ele>121.0</ele><time>2026-05-01T08:56:47.442Z</time></trkpt><trkpt lat="44.41046" lon="11.5031733"><ele>121.00000000000001</ele><time>2026-05-01T08:56:48.443Z</time></trkpt><trkpt lat="44.4104283" lon="11.5032883"><ele>121.0</ele><time>2026-05-01T08:56:49.443Z</time></trkpt><trkpt lat="44.41039" lon="11.5034033"><ele>118.6</ele><time>2026-05-01T08:56:50.442Z</time></trkpt><trkpt lat="44.4103417" lon="11.5035283"><ele>116.19999999999999</ele><time>2026-05-01T08:56:51.443Z</time></trkpt><trkpt lat="44.4102917" lon="11.5036483"><ele>113.80000000000001</ele><time>2026-05-01T08:56:52.443Z</time></trkpt><trkpt lat="44.4102467" lon="11.5037683"><ele>111.4</ele><time>2026-05-01T08:56:53.443Z</time></trkpt><trkpt lat="44.4101983" lon="11.5038867"><ele>109.0</ele><time>2026-05-01T08:56:54.443Z</time></trkpt><trkpt lat="44.41015" lon="11.5039933"><ele>107.6</ele><time>2026-05-01T08:56:55.44Z</time></trkpt><trkpt lat="44.4101033" lon="11.504085"><ele>106.2</ele><time>2026-05-01T08:56:56.439Z</time></trkpt><trkpt lat="44.4100683" lon="11.5041633"><ele>104.8</ele><time>2026-05-01T08:56:57.44Z</time></trkpt><trkpt lat="44.4100167" lon="11.5043083"><ele>103.39999999999999</ele><time>2026-05-01T08:56:59.441Z</time></trkpt><trkpt lat="44.4099533" lon="11.5044517"><ele>102.0</ele><time>2026-05-01T08:57:01.441Z</time></trkpt><trkpt lat="44.4098933" lon="11.5045717"><ele>101.5</ele><time>2026-05-01T08:57:03.44Z</time></trkpt><trkpt lat="44.4098183" lon="11.5046483"><ele>101.0</ele><time>2026-05-01T08:57:05.44Z</time></trkpt><trkpt lat="44.4097633" lon="11.5047133"><ele>100.5</ele><time>2026-05-01T08:57:07.439Z</time></trkpt><trkpt lat="44.4097117" lon="11.504785"><ele>100.0</ele><time>2026-05-01T08:57:11.441Z</time></trkpt><trkpt lat="44.409635" lon="11.50479"><ele>99.5</ele><time>2026-05-01T08:57:15.441Z</time></trkpt><trkpt lat="44.4095517" lon="11.5047517"><ele>99.0</ele><time>2026-05-01T08:57:18.442Z</time></trkpt><trkpt lat="44.4094633" lon="11.5047"><ele>99.0</ele><time>2026-05-01T08:57:21.443Z</time></trkpt><trkpt lat="44.409395" lon="11.5046233"><ele>99.0</ele><time>2026-05-01T08:57:23.442Z</time></trkpt><trkpt lat="44.4093217" lon="11.504525"><ele>99.0</ele><time>2026-05-01T08:57:25.441Z</time></trkpt><trkpt lat="44.4092483" lon="11.50442"><ele>99.0</ele><time>2026-05-01T08:57:27.439Z</time></trkpt><trkpt lat="44.4091817" lon="11.5043117"><ele>99.0</ele><time>2026-05-01T08:57:29.441Z</time></trkpt><trkpt lat="44.4091083" lon="11.5042033"><ele>99.0</ele><time>2026-05-01T08:57:31.44Z</time></trkpt><trkpt lat="44.4090367" lon="11.5040933"><ele>99.0</ele><time>2026-05-01T08:57:33.441Z</time></trkpt><trkpt lat="44.4089567" lon="11.5039783"><ele>99.0</ele><time>2026-05-01T08:57:35.441Z</time></trkpt><trkpt lat="44.40888" lon="11.503865"><ele>99.0</ele><time>2026-05-01T08:57:37.441Z</time></trkpt><trkpt lat="44.4088" lon="11.5037517"><ele>99.0</ele><time>2026-05-01T08:57:39.44Z</time></trkpt><trkpt lat="44.40872" lon="11.503635"><ele>99.25</ele><time>2026-05-01T08:57:41.44Z</time></trkpt><trkpt lat="44.408635" lon="11.5035233"><ele>99.5</ele><time>2026-05-01T08:57:43.441Z</time></trkpt><trkpt lat="44.408565" lon="11.50341"><ele>99.75</ele><time>2026-05-01T08:57:45.44Z</time></trkpt><trkpt lat="44.4084917" lon="11.5032883"><ele>100.0</ele><time>2026-05-01T08:57:47.443Z</time></trkpt><trkpt lat="44.4084067" lon="11.5031767"><ele>100.0</ele><time>2026-05-01T08:57:49.441Z</time></trkpt><trkpt lat="44.4083233" lon="11.503075"><ele>100.0</ele><time>2026-05-01T08:57:51.439Z</time></trkpt><trkpt lat="44.40825" lon="11.502975"><ele>100.0</ele><time>2026-05-01T08:57:53.439Z</time></trkpt><trkpt lat="44.40817" lon="11.5029"><ele>100.0</ele><time>2026-05-01T08:57:55.44Z</time></trkpt><trkpt lat="44.4080983" lon="11.5028417"><ele>100.0</ele><time>2026-05-01T08:57:57.44Z</time></trkpt><trkpt lat="44.4080333" lon="11.50287"><ele>99.8</ele><time>2026-05-01T08:57:59.441Z</time></trkpt><trkpt lat="44.4079767" lon="11.50296"><ele>99.6</ele><time>2026-05-01T08:58:01.441Z</time></trkpt><trkpt lat="44.4079133" lon="11.5030383"><ele>99.4</ele><time>2026-05-01T08:58:03.441Z</time></trkpt><trkpt lat="44.4078417" lon="11.5031233"><ele>99.2</ele><time>2026-05-01T08:58:05.439Z</time></trkpt><trkpt lat="44.4077717" lon="11.50321"><ele>99.0</ele><time>2026-05-01T08:58:07.439Z</time></trkpt><trkpt lat="44.4077017" lon="11.5032967"><ele>99.0</ele><time>2026-05-01T08:58:09.441Z</time></trkpt><trkpt lat="44.4076283" lon="11.50339"><ele>99.0</ele><time>2026-05-01T08:58:11.441Z</time></trkpt><trkpt lat="44.4075483" lon="11.5034717"><ele>99.0</ele><time>2026-05-01T08:58:13.44Z</time></trkpt><trkpt lat="44.407475" lon="11.503555"><ele>99.0</ele><time>2026-05-01T08:58:15.44Z</time></trkpt><trkpt lat="44.4074017" lon="11.5036283"><ele>99.0</ele><time>2026-05-01T08:58:17.44Z</time></trkpt><trkpt lat="44.4073283" lon="11.5037117"><ele>99.5</ele><time>2026-05-01T08:58:19.44Z</time></trkpt><trkpt lat="44.4072633" lon="11.5038033"><ele>100.0</ele><time>2026-05-01T08:58:21.44Z</time></trkpt><trkpt lat="44.4072033" lon="11.5038817"><ele>100.5</ele><time>2026-05-01T08:58:23.44Z</time></trkpt><trkpt lat="44.407165" lon="11.50396"><ele>101.0</ele><time>2026-05-01T08:58:25.44Z</time></trkpt><trkpt lat="44.4071333" lon="11.5040483"><ele>101.5</ele><time>2026-05-01T08:58:27.439Z</time></trkpt><trkpt lat="44.4071083" lon="11.5041767"><ele>102.0</ele><time>2026-05-01T08:58:30.439Z</time></trkpt><trkpt lat="44.4070833" lon="11.5042583"><ele>102.66666666666667</ele><time>2026-05-01T08:58:32.441Z</time></trkpt><trkpt lat="44.407075" lon="11.5043733"><ele>103.33333333333334</ele><time>2026-05-01T08:58:35.441Z</time></trkpt><trkpt lat="44.4070883" lon="11.5044733"><ele>104.0</ele><time>2026-05-01T08:58:38.44Z</time></trkpt><trkpt lat="44.4070883" lon="11.50457"><ele>104.66666666666667</ele><time>2026-05-01T08:58:41.441Z</time></trkpt><trkpt lat="44.4070767" lon="11.5046633"><ele>105.33333333333334</ele><time>2026-05-01T08:58:44.44Z</time></trkpt><trkpt lat="44.4070683" lon="11.5047767"><ele>106.0</ele><time>2026-05-01T08:58:48.44Z</time></trkpt><trkpt lat="44.4070317" lon="11.504875"><ele>106.71428571428572</ele><time>2026-05-01T08:58:51.443Z</time></trkpt><trkpt lat="44.4070017" lon="11.5049667"><ele>107.42857142857142</ele><time>2026-05-01T08:58:54.44Z</time></trkpt><trkpt lat="44.4069767" lon="11.5050667"><ele>108.14285714285714</ele><time>2026-05-01T08:58:58.44Z</time></trkpt><trkpt lat="44.406965" lon="11.5051683"><ele>108.85714285714286</ele><time>2026-05-01T08:59:02.44Z</time></trkpt><trkpt lat="44.4069717" lon="11.5052633"><ele>109.57142857142858</ele><time>2026-05-01T08:59:06.441Z</time></trkpt><trkpt lat="44.4069767" lon="11.505375"><ele>110.28571428571428</ele><time>2026-05-01T08:59:10.44Z</time></trkpt><trkpt lat="44.4069667" lon="11.50548"><ele>111.0</ele><time>2026-05-01T08:59:14.44Z</time></trkpt><trkpt lat="44.4069667" lon="11.5055817"><ele>110.57142857142857</ele><time>2026-05-01T08:59:18.44Z</time></trkpt><trkpt lat="44.4069867" lon="11.5056683"><ele>110.14285714285715</ele><time>2026-05-01T08:59:22.443Z</time></trkpt><trkpt lat="44.4069967" lon="11.5057717"><ele>109.71428571428572</ele><time>2026-05-01T08:59:26.44Z</time></trkpt><trkpt lat="44.40701" lon="11.50586"><ele>109.28571428571428</ele><time>2026-05-01T08:59:30.44Z</time></trkpt><trkpt lat="44.407045" lon="11.5059333"><ele>108.85714285714286</ele><time>2026-05-01T08:59:34.439Z</time></trkpt><trkpt lat="44.4070933" lon="11.5060217"><ele>108.42857142857143</ele><time>2026-05-01T08:59:38.44Z</time></trkpt><trkpt lat="44.40713" lon="11.5061117"><ele>108.0</ele><time>2026-05-01T08:59:42.44Z</time></trkpt><trkpt lat="44.4071833" lon="11.5061933"><ele>109.85714285714286</ele><time>2026-05-01T08:59:46.443Z</time></trkpt><trkpt lat="44.4072017" lon="11.5062833"><ele>111.71428571428571</ele><time>2026-05-01T08:59:50.441Z</time></trkpt><trkpt lat="44.4072433" lon="11.5063817"><ele>113.57142857142857</ele><time>2026-05-01T08:59:54.44Z</time></trkpt><trkpt lat="44.40728" lon="11.5064667"><ele>115.42857142857142</ele><time>2026-05-01T08:59:58.441Z</time></trkpt><trkpt lat="44.40733" lon="11.5065483"><ele>117.28571428571428</ele><time>2026-05-01T09:00:02.439Z</time></trkpt><trkpt lat="44.4073717" lon="11.5066317"><ele>119.14285714285714</ele><time>2026-05-01T09:00:06.442Z</time></trkpt><trkpt lat="44.4074017" lon="11.50671"><ele>121.0</ele><time>2026-05-01T09:00:10.439Z</time></trkpt><trkpt lat="44.4074033" lon="11.5068033"><ele>121.0</ele><time>2026-05-01T09:00:14.441Z</time></trkpt><trkpt lat="44.4073417" lon="11.5068467"><ele>120.99999999999999</ele><time>2026-05-01T09:00:19.44Z</time></trkpt><trkpt lat="44.407265" lon="11.5068083"><ele>121.0</ele><time>2026-05-01T09:00:23.441Z</time></trkpt><trkpt lat="44.4072017" lon="11.506775"><ele>121.0</ele><time>2026-05-01T09:00:27.442Z</time></trkpt><trkpt lat="44.4071467" lon="11.5067167"><ele>120.99999999999999</ele><time>2026-05-01T09:00:32.441Z</time></trkpt><trkpt lat="44.4070883" lon="11.506655"><ele>121.0</ele><time>2026-05-01T09:00:37.443Z</time></trkpt><trkpt lat="44.407045" lon="11.5065883"><ele>121.0</ele><time>2026-05-01T09:00:42.442Z</time></trkpt><trkpt lat="44.4070033" lon="11.5065167"><ele>124.28571428571428</ele><time>2026-05-01T09:00:47.444Z</time></trkpt><trkpt lat="44.406985" lon="11.5064267"><ele>127.57142857142856</ele><time>2026-05-01T09:00:52.441Z</time></trkpt><trkpt lat="44.4069417" lon="11.5063567"><ele>130.85714285714286</ele><time>2026-05-01T09:00:57.442Z</time></trkpt><trkpt lat="44.4068883" lon="11.5063033"><ele>134.14285714285714</ele><time>2026-05-01T09:01:02.442Z</time></trkpt><trkpt lat="44.40682" lon="11.50629"><ele>137.42857142857144</ele><time>2026-05-01T09:01:06.443Z</time></trkpt><trkpt lat="44.406755" lon="11.5062983"><ele>140.71428571428572</ele><time>2026-05-01T09:01:10.443Z</time></trkpt><trkpt lat="44.4066867" lon="11.5062917"><ele>144.0</ele><time>2026-05-01T09:01:15.441Z</time></trkpt><trkpt lat="44.4066" lon="11.50628"><ele>144.0</ele><time>2026-05-01T09:01:22.442Z</time></trkpt><trkpt lat="44.4065217" lon="11.50627"><ele>144.0</ele><time>2026-05-01T09:01:28.442Z</time></trkpt><trkpt lat="44.4064533" lon="11.5062733"><ele>144.0</ele><time>2026-05-01T09:01:32.441Z</time></trkpt><trkpt lat="44.406295" lon="11.5062133"><ele>144.0</ele><time>2026-05-01T09:01:46.444Z</time></trkpt><trkpt lat="44.4062267" lon="11.5061967"><ele>144.0</ele><time>2026-05-01T09:01:50.443Z</time></trkpt><trkpt lat="44.40616" lon="11.5061817"><ele>144.0</ele><time>2026-05-01T09:01:55.442Z</time></trkpt><trkpt lat="44.40609" lon="11.5061617"><ele>142.83333333333334</ele><time>2026-05-01T09:02:01.442Z</time></trkpt><trkpt lat="44.4060233" lon="11.5061317"><ele>141.66666666666666</ele><time>2026-05-01T09:02:07.443Z</time></trkpt><trkpt lat="44.4059567" lon="11.5061133"><ele>140.5</ele><time>2026-05-01T09:02:13.442Z</time></trkpt><trkpt lat="44.4058983" lon="11.50607"><ele>139.33333333333331</ele><time>2026-05-01T09:02:18.443Z</time></trkpt><trkpt lat="44.405825" lon="11.50604"><ele>138.16666666666666</ele><time>2026-05-01T09:02:22.441Z</time></trkpt><trkpt lat="44.405695" lon="11.505985"><ele>137.0</ele><time>2026-05-01T09:02:32.443Z</time></trkpt><trkpt lat="44.4056317" lon="11.5059717"><ele>137.0</ele><time>2026-05-01T09:02:35.441Z</time></trkpt><trkpt lat="44.4055417" lon="11.505935"><ele>137.0</ele><time>2026-05-01T09:02:41.441Z</time></trkpt><trkpt lat="44.40548" lon="11.505905"><ele>137.0</ele><time>2026-05-01T09:02:45.442Z</time></trkpt><trkpt lat="44.4054133" lon="11.505895"><ele>137.0</ele><time>2026-05-01T09:02:50.442Z</time></trkpt><trkpt lat="44.4053317" lon="11.5058967"><ele>137.0</ele><time>2026-05-01T09:02:57.441Z</time></trkpt><trkpt lat="44.405265" lon="11.5058867"><ele>137.0</ele><time>2026-05-01T09:03:02.442Z</time></trkpt><trkpt lat="44.4051333" lon="11.5058983"><ele>140.0</ele><time>2026-05-01T09:03:06.443Z</time></trkpt><trkpt lat="44.4050567" lon="11.50591"><ele>143.0</ele><time>2026-05-01T09:03:09.441Z</time></trkpt><trkpt lat="44.4049633" lon="11.505925"><ele>146.0</ele><time>2026-05-01T09:03:13.442Z</time></trkpt><trkpt lat="44.4048783" lon="11.5059467"><ele>149.0</ele><time>2026-05-01T09:03:16.441Z</time></trkpt><trkpt lat="44.4048083" lon="11.505975"><ele>152.0</ele><time>2026-05-01T09:03:19.442Z</time></trkpt><trkpt lat="44.404735" lon="11.5060017"><ele>155.0</ele><time>2026-05-01T09:03:22.441Z</time></trkpt><trkpt lat="44.4046617" lon="11.5060167"><ele>156.16666666666666</ele><time>2026-05-01T09:03:26.442Z</time></trkpt><trkpt lat="44.4045983" lon="11.506015"><ele>157.33333333333331</ele><time>2026-05-01T09:03:31.442Z</time></trkpt><trkpt lat="44.40447" lon="11.5060383"><ele>158.5</ele><time>2026-05-01T09:03:46.442Z</time></trkpt><trkpt lat="44.4044017" lon="11.5060633"><ele>159.66666666666666</ele><time>2026-05-01T09:03:49.442Z</time></trkpt><trkpt lat="44.40434" lon="11.5060917"><ele>160.83333333333334</ele><time>2026-05-01T09:03:52.441Z</time></trkpt><trkpt lat="44.4042633" lon="11.506075"><ele>162.0</ele><time>2026-05-01T09:03:56.442Z</time></trkpt><trkpt lat="44.4041783" lon="11.5060767"><ele>162.0</ele><time>2026-05-01T09:04:00.442Z</time></trkpt><trkpt lat="44.4041133" lon="11.5060467"><ele>162.0</ele><time>2026-05-01T09:04:04.442Z</time></trkpt><trkpt lat="44.4040367" lon="11.505995"><ele>162.0</ele><time>2026-05-01T09:04:08.442Z</time></trkpt><trkpt lat="44.4039767" lon="11.50596"><ele>162.0</ele><time>2026-05-01T09:04:12.442Z</time></trkpt><trkpt lat="44.40392" lon="11.50592"><ele>162.0</ele><time>2026-05-01T09:04:16.443Z</time></trkpt><trkpt lat="44.40384" lon="11.5058733"><ele>162.0</ele><time>2026-05-01T09:04:21.441Z</time></trkpt><trkpt lat="44.4037633" lon="11.5058833"><ele>162.0</ele><time>2026-05-01T09:04:24.44Z</time></trkpt><trkpt lat="44.40369" lon="11.5058917"><ele>163.16666666666666</ele><time>2026-05-01T09:04:27.44Z</time></trkpt><trkpt lat="44.40361" lon="11.5058767"><ele>164.33333333333334</ele><time>2026-05-01T09:04:31.441Z</time></trkpt><trkpt lat="44.4035367" lon="11.5058617"><ele>165.5</ele><time>2026-05-01T09:04:34.44Z</time></trkpt><trkpt lat="44.4034567" lon="11.50583"><ele>166.66666666666669</ele><time>2026-05-01T09:04:38.441Z</time></trkpt><trkpt lat="44.4033883" lon="11.5057933"><ele>167.83333333333334</ele><time>2026-05-01T09:04:41.441Z</time></trkpt><trkpt lat="44.4033133" lon="11.5057333"><ele>169.0</ele><time>2026-05-01T09:04:45.441Z</time></trkpt><trkpt lat="44.40324" lon="11.5056833"><ele>169.0</ele><time>2026-05-01T09:04:48.442Z</time></trkpt><trkpt lat="44.4031633" lon="11.505685"><ele>169.0</ele><time>2026-05-01T09:04:51.442Z</time></trkpt><trkpt lat="44.403085" lon="11.50569"><ele>169.0</ele><time>2026-05-01T09:04:54.443Z</time></trkpt><trkpt lat="44.4030183" lon="11.5057083"><ele>169.0</ele><time>2026-05-01T09:04:57.442Z</time></trkpt><trkpt lat="44.4029333" lon="11.505745"><ele>169.0</ele><time>2026-05-01T09:05:00.442Z</time></trkpt><trkpt lat="44.4028483" lon="11.5057633"><ele>169.0</ele><time>2026-05-01T09:05:03.442Z</time></trkpt><trkpt lat="44.4027833" lon="11.5057933"><ele>170.14285714285714</ele><time>2026-05-01T09:05:07.442Z</time></trkpt><trkpt lat="44.4027183" lon="11.505825"><ele>171.28571428571428</ele><time>2026-05-01T09:05:11.443Z</time></trkpt><trkpt lat="44.402655" lon="11.5058433"><ele>172.42857142857144</ele><time>2026-05-01T09:05:16.444Z</time></trkpt><trkpt lat="44.402585" lon="11.505875"><ele>173.57142857142856</ele><time>2026-05-01T09:05:20.442Z</time></trkpt><trkpt lat="44.4025217" lon="11.5059183"><ele>174.7142857142857</ele><time>2026-05-01T09:05:25.442Z</time></trkpt><trkpt lat="44.4024483" lon="11.505945"><ele>175.85714285714286</ele><time>2026-05-01T09:05:29.441Z</time></trkpt><trkpt lat="44.4023733" lon="11.5059717"><ele>177.0</ele><time>2026-05-01T09:05:33.441Z</time></trkpt><trkpt lat="44.4023067" lon="11.5059917"><ele>177.0</ele><time>2026-05-01T09:05:37.441Z</time></trkpt><trkpt lat="44.4022333" lon="11.5060233"><ele>177.0</ele><time>2026-05-01T09:05:41.441Z</time></trkpt><trkpt lat="44.4021683" lon="11.5060683"><ele>177.0</ele><time>2026-05-01T09:05:45.442Z</time></trkpt><trkpt lat="44.4021" lon="11.5061183"><ele>177.0</ele><time>2026-05-01T09:05:50.442Z</time></trkpt><trkpt lat="44.4020483" lon="11.5061717"><ele>177.0</ele><time>2026-05-01T09:05:54.442Z</time></trkpt><trkpt lat="44.4019883" lon="11.50621"><ele>177.0</ele><time>2026-05-01T09:05:57.442Z</time></trkpt><trkpt lat="44.4019283" lon="11.506255"><ele>177.0</ele><time>2026-05-01T09:06:01.443Z</time></trkpt><trkpt lat="44.4018583" lon="11.5063083"><ele>179.42857142857144</ele><time>2026-05-01T09:06:06.442Z</time></trkpt><trkpt lat="44.401805" lon="11.5063717"><ele>181.85714285714283</ele><time>2026-05-01T09:06:10.442Z</time></trkpt><trkpt lat="44.4017567" lon="11.5064383"><ele>184.28571428571428</ele><time>2026-05-01T09:06:14.441Z</time></trkpt><trkpt lat="44.401705" lon="11.5065"><ele>186.71428571428572</ele><time>2026-05-01T09:06:18.443Z</time></trkpt><trkpt lat="44.4016467" lon="11.50657"><ele>189.14285714285717</ele><time>2026-05-01T09:06:22.443Z</time></trkpt><trkpt lat="44.4015967" lon="11.5066283"><ele>191.57142857142856</ele><time>2026-05-01T09:06:25.441Z</time></trkpt><trkpt lat="44.4015467" lon="11.5066983"><ele>194.0</ele><time>2026-05-01T09:06:29.442Z</time></trkpt><trkpt lat="44.401485" lon="11.5067583"><ele>194.0</ele><time>2026-05-01T09:06:33.442Z</time></trkpt><trkpt lat="44.40143" lon="11.506835"><ele>194.0</ele><time>2026-05-01T09:06:37.442Z</time></trkpt><trkpt lat="44.40139" lon="11.5069183"><ele>194.0</ele><time>2026-05-01T09:06:41.441Z</time></trkpt><trkpt lat="44.4013483" lon="11.50702"><ele>194.0</ele><time>2026-05-01T09:06:45.442Z</time></trkpt><trkpt lat="44.4013067" lon="11.5070933"><ele>194.0</ele><time>2026-05-01T09:06:48.444Z</time></trkpt><trkpt lat="44.4012617" lon="11.5071717"><ele>194.0</ele><time>2026-05-01T09:06:51.444Z</time></trkpt><trkpt lat="44.401215" lon="11.507255"><ele>194.0</ele><time>2026-05-01T09:06:54.443Z</time></trkpt><trkpt lat="44.4011733" lon="11.5073483"><ele>193.57142857142856</ele><time>2026-05-01T09:06:57.442Z</time></trkpt><trkpt lat="44.4011367" lon="11.5074383"><ele>193.14285714285717</ele><time>2026-05-01T09:07:00.443Z</time></trkpt><trkpt lat="44.4010967" lon="11.50753"><ele>192.71428571428572</ele><time>2026-05-01T09:07:03.442Z</time></trkpt><trkpt lat="44.401045" lon="11.5076"><ele>192.28571428571428</ele><time>2026-05-01T09:07:06.442Z</time></trkpt><trkpt lat="44.4009933" lon="11.5076867"><ele>191.85714285714283</ele><time>2026-05-01T09:07:09.441Z</time></trkpt><trkpt lat="44.4009533" lon="11.5077833"><ele>191.42857142857144</ele><time>2026-05-01T09:07:12.442Z</time></trkpt><trkpt lat="44.4009183" lon="11.5078567"><ele>191.0</ele><time>2026-05-01T09:07:14.442Z</time></trkpt><trkpt lat="44.40088" lon="11.5079283"><ele>193.0</ele><time>2026-05-01T09:07:16.443Z</time></trkpt><trkpt lat="44.4008433" lon="11.5080033"><ele>195.0</ele><time>2026-05-01T09:07:18.444Z</time></trkpt><trkpt lat="44.400805" lon="11.5080783"><ele>197.0</ele><time>2026-05-01T09:07:20.448Z</time></trkpt><trkpt lat="44.4007483" lon="11.50817"><ele>199.0</ele><time>2026-05-01T09:07:23.442Z</time></trkpt><trkpt lat="44.4007067" lon="11.5082383"><ele>201.0</ele><time>2026-05-01T09:07:25.442Z</time></trkpt><trkpt lat="44.4006683" lon="11.5083117"><ele>203.0</ele><time>2026-05-01T09:07:27.441Z</time></trkpt><trkpt lat="44.4006217" lon="11.50838"><ele>205.0</ele><time>2026-05-01T09:07:29.44Z</time></trkpt><trkpt lat="44.400565" lon="11.5084517"><ele>204.99999999999997</ele><time>2026-05-01T09:07:31.44Z</time></trkpt><trkpt lat="44.40051" lon="11.508515"><ele>205.0</ele><time>2026-05-01T09:07:33.44Z</time></trkpt><trkpt lat="44.400445" lon="11.508555"><ele>205.0</ele><time>2026-05-01T09:07:35.439Z</time></trkpt><trkpt lat="44.4003617" lon="11.5086"><ele>205.0</ele><time>2026-05-01T09:07:37.443Z</time></trkpt><trkpt lat="44.40027" lon="11.5086417"><ele>204.99999999999997</ele><time>2026-05-01T09:07:39.44Z</time></trkpt><trkpt lat="44.4001817" lon="11.5086833"><ele>205.0</ele><time>2026-05-01T09:07:41.439Z</time></trkpt><trkpt lat="44.400095" lon="11.50871"><ele>203.0</ele><time>2026-05-01T09:07:43.442Z</time></trkpt><trkpt lat="44.4" lon="11.5087483"><ele>201.0</ele><time>2026-05-01T09:07:45.44Z</time></trkpt><trkpt lat="44.399905" lon="11.5087983"><ele>199.0</ele><time>2026-05-01T09:07:47.442Z</time></trkpt><trkpt lat="44.3998117" lon="11.5088417"><ele>197.0</ele><time>2026-05-01T09:07:49.442Z</time></trkpt><trkpt lat="44.3997183" lon="11.508885"><ele>195.0</ele><time>2026-05-01T09:07:51.443Z</time></trkpt><trkpt lat="44.3996283" lon="11.5089267"><ele>194.8</ele><time>2026-05-01T09:07:53.442Z</time></trkpt><trkpt lat="44.399535" lon="11.5089667"><ele>194.6</ele><time>2026-05-01T09:07:55.441Z</time></trkpt><trkpt lat="44.3994483" lon="11.509015"><ele>194.39999999999998</ele><time>2026-05-01T09:07:57.44Z</time></trkpt><trkpt lat="44.3993583" lon="11.50906"><ele>194.2</ele><time>2026-05-01T09:07:59.441Z</time></trkpt><trkpt lat="44.3992733" lon="11.5091083"><ele>194.0</ele><time>2026-05-01T09:08:01.443Z</time></trkpt><trkpt lat="44.3991917" lon="11.5091433"><ele>194.0</ele><time>2026-05-01T09:08:03.442Z</time></trkpt><trkpt lat="44.3990933" lon="11.5091867"><ele>194.0</ele><time>2026-05-01T09:08:05.44Z</time></trkpt><trkpt lat="44.3990083" lon="11.5092333"><ele>194.0</ele><time>2026-05-01T09:08:07.441Z</time></trkpt><trkpt lat="44.398915" lon="11.509275"><ele>194.0</ele><time>2026-05-01T09:08:09.441Z</time></trkpt><trkpt lat="44.39882" lon="11.5093117"><ele>194.0</ele><time>2026-05-01T09:08:11.442Z</time></trkpt><trkpt lat="44.39873" lon="11.5093633"><ele>193.83333333333334</ele><time>2026-05-01T09:08:13.443Z</time></trkpt><trkpt lat="44.398645" lon="11.5093983"><ele>193.66666666666669</ele><time>2026-05-01T09:08:15.441Z</time></trkpt><trkpt lat="44.3985567" lon="11.50944"><ele>193.5</ele><time>2026-05-01T09:08:17.442Z</time></trkpt><trkpt lat="44.39847" lon="11.5094833"><ele>193.33333333333331</ele><time>2026-05-01T09:08:19.442Z</time></trkpt><trkpt lat="44.398395" lon="11.5095133"><ele>193.16666666666666</ele><time>2026-05-01T09:08:21.44Z</time></trkpt><trkpt lat="44.3983267" lon="11.50956"><ele>193.0</ele><time>2026-05-01T09:08:23.442Z</time></trkpt><trkpt lat="44.398245" lon="11.5096167"><ele>194.16666666666666</ele><time>2026-05-01T09:08:26.441Z</time></trkpt><trkpt lat="44.398185" lon="11.5096783"><ele>195.33333333333331</ele><time>2026-05-01T09:08:28.44Z</time></trkpt><trkpt lat="44.3981333" lon="11.5097433"><ele>196.5</ele><time>2026-05-01T09:08:30.443Z</time></trkpt><trkpt lat="44.3980733" lon="11.5098267"><ele>197.66666666666669</ele><time>2026-05-01T09:08:33.442Z</time></trkpt><trkpt lat="44.3980133" lon="11.5099033"><ele>198.83333333333334</ele><time>2026-05-01T09:08:36.443Z</time></trkpt><trkpt lat="44.397955" lon="11.5099817"><ele>200.0</ele><time>2026-05-01T09:08:39.443Z</time></trkpt><trkpt lat="44.3978817" lon="11.5100617"><ele>200.00000000000003</ele><time>2026-05-01T09:08:42.442Z</time></trkpt><trkpt lat="44.3978283" lon="11.5101133"><ele>200.0</ele><time>2026-05-01T09:08:44.442Z</time></trkpt><trkpt lat="44.39776" lon="11.510185"><ele>200.0</ele><time>2026-05-01T09:08:47.445Z</time></trkpt><trkpt lat="44.3976983" lon="11.5102683"><ele>200.0</ele><time>2026-05-01T09:08:50.442Z</time></trkpt><trkpt lat="44.3976333" lon="11.51035"><ele>200.00000000000003</ele><time>2026-05-01T09:08:53.444Z</time></trkpt><trkpt lat="44.39757" lon="11.5104383"><ele>200.0</ele><time>2026-05-01T09:08:56.441Z</time></trkpt><trkpt lat="44.3975" lon="11.5105183"><ele>200.33333333333334</ele><time>2026-05-01T09:08:59.442Z</time></trkpt><trkpt lat="44.3974383" lon="11.5105933"><ele>200.66666666666669</ele><time>2026-05-01T09:09:02.443Z</time></trkpt><trkpt lat="44.3973767" lon="11.5106767"><ele>201.0</ele><time>2026-05-01T09:09:05.442Z</time></trkpt><trkpt lat="44.3973083" lon="11.5107617"><ele>201.33333333333331</ele><time>2026-05-01T09:09:08.443Z</time></trkpt><trkpt lat="44.3972367" lon="11.51084"><ele>201.66666666666666</ele><time>2026-05-01T09:09:11.442Z</time></trkpt><trkpt lat="44.3971683" lon="11.5109167"><ele>202.0</ele><time>2026-05-01T09:09:14.441Z</time></trkpt><trkpt lat="44.3971033" lon="11.5110017"><ele>201.99999999999997</ele><time>2026-05-01T09:09:17.443Z</time></trkpt><trkpt lat="44.397045" lon="11.5110783"><ele>202.0</ele><time>2026-05-01T09:09:20.444Z</time></trkpt><trkpt lat="44.3969783" lon="11.51116"><ele>202.0</ele><time>2026-05-01T09:09:23.444Z</time></trkpt><trkpt lat="44.39692" lon="11.5112483"><ele>202.0</ele><time>2026-05-01T09:09:26.441Z</time></trkpt><trkpt lat="44.3968617" lon="11.51133"><ele>201.99999999999997</ele><time>2026-05-01T09:09:29.442Z</time></trkpt><trkpt lat="44.3967867" lon="11.511375"><ele>202.0</ele><time>2026-05-01T09:09:32.441Z</time></trkpt><trkpt lat="44.396715" lon="11.511415"><ele>203.33333333333331</ele><time>2026-05-01T09:09:35.441Z</time></trkpt><trkpt lat="44.3966283" lon="11.5114483"><ele>204.66666666666666</ele><time>2026-05-01T09:09:38.442Z</time></trkpt><trkpt lat="44.3965467" lon="11.5114683"><ele>206.0</ele><time>2026-05-01T09:09:41.442Z</time></trkpt><trkpt lat="44.3964617" lon="11.5114883"><ele>207.33333333333331</ele><time>2026-05-01T09:09:44.443Z</time></trkpt><trkpt lat="44.396375" lon="11.5115067"><ele>208.66666666666666</ele><time>2026-05-01T09:09:47.443Z</time></trkpt><trkpt lat="44.3963117" lon="11.511525"><ele>210.0</ele><time>2026-05-01T09:09:49.442Z</time></trkpt><trkpt lat="44.3962483" lon="11.511535"><ele>210.57142857142858</ele><time>2026-05-01T09:09:51.441Z</time></trkpt><trkpt lat="44.3961833" lon="11.5115483"><ele>211.14285714285714</ele><time>2026-05-01T09:09:53.441Z</time></trkpt><trkpt lat="44.3960917" lon="11.5115633"><ele>211.71428571428572</ele><time>2026-05-01T09:09:56.443Z</time></trkpt><trkpt lat="44.3960283" lon="11.5115783"><ele>212.28571428571428</ele><time>2026-05-01T09:09:58.442Z</time></trkpt><trkpt lat="44.3959633" lon="11.5115933"><ele>212.85714285714286</ele><time>2026-05-01T09:10:00.441Z</time></trkpt><trkpt lat="44.3958967" lon="11.5116083"><ele>213.42857142857144</ele><time>2026-05-01T09:10:02.441Z</time></trkpt><trkpt lat="44.3958267" lon="11.511625"><ele>214.0</ele><time>2026-05-01T09:10:04.441Z</time></trkpt><trkpt lat="44.3957583" lon="11.511645"><ele>214.00000000000003</ele><time>2026-05-01T09:10:06.441Z</time></trkpt><trkpt lat="44.3956883" lon="11.5116683"><ele>214.0</ele><time>2026-05-01T09:10:08.442Z</time></trkpt><trkpt lat="44.39562" lon="11.5117"><ele>214.0</ele><time>2026-05-01T09:10:10.442Z</time></trkpt><trkpt lat="44.3955517" lon="11.5117233"><ele>214.0</ele><time>2026-05-01T09:10:12.44Z</time></trkpt><trkpt lat="44.395475" lon="11.5117533"><ele>214.0</ele><time>2026-05-01T09:10:14.44Z</time></trkpt><trkpt lat="44.3954067" lon="11.5117867"><ele>214.00000000000003</ele><time>2026-05-01T09:10:16.44Z</time></trkpt><trkpt lat="44.3953417" lon="11.511815"><ele>214.0</ele><time>2026-05-01T09:10:18.441Z</time></trkpt><trkpt lat="44.3952633" lon="11.5118517"><ele>213.6</ele><time>2026-05-01T09:10:20.44Z</time></trkpt><trkpt lat="44.3951717" lon="11.511885"><ele>213.2</ele><time>2026-05-01T09:10:22.439Z</time></trkpt><trkpt lat="44.3950683" lon="11.511905"><ele>212.79999999999998</ele><time>2026-05-01T09:10:24.439Z</time></trkpt><trkpt lat="44.3949567" lon="11.5119133"><ele>212.39999999999998</ele><time>2026-05-01T09:10:26.439Z</time></trkpt><trkpt lat="44.3948333" lon="11.5119083"><ele>212.0</ele><time>2026-05-01T09:10:28.441Z</time></trkpt><trkpt lat="44.3947683" lon="11.5119017"><ele>212.00000000000003</ele><time>2026-05-01T09:10:29.439Z</time></trkpt><trkpt lat="44.3947017" lon="11.51189"><ele>212.0</ele><time>2026-05-01T09:10:30.44Z</time></trkpt><trkpt lat="44.3946383" lon="11.5118783"><ele>212.0</ele><time>2026-05-01T09:10:31.441Z</time></trkpt><trkpt lat="44.394515" lon="11.5118583"><ele>212.0</ele><time>2026-05-01T09:10:33.442Z</time></trkpt><trkpt lat="44.3944467" lon="11.5118433"><ele>212.00000000000003</ele><time>2026-05-01T09:10:34.441Z</time></trkpt><trkpt lat="44.3943767" lon="11.5118317"><ele>212.0</ele><time>2026-05-01T09:10:35.441Z</time></trkpt><trkpt lat="44.3943083" lon="11.5118183"><ele>211.85714285714286</ele><time>2026-05-01T09:10:36.44Z</time></trkpt><trkpt lat="44.3942383" lon="11.5118067"><ele>211.7142857142857</ele><time>2026-05-01T09:10:37.442Z</time></trkpt><trkpt lat="44.3941683" lon="11.511795"><ele>211.57142857142856</ele><time>2026-05-01T09:10:38.439Z</time></trkpt><trkpt lat="44.3941017" lon="11.5117817"><ele>211.42857142857144</ele><time>2026-05-01T09:10:39.441Z</time></trkpt><trkpt lat="44.3940333" lon="11.5117683"><ele>211.28571428571428</ele><time>2026-05-01T09:10:40.44Z</time></trkpt><trkpt lat="44.3939633" lon="11.5117533"><ele>211.14285714285714</ele><time>2026-05-01T09:10:41.44Z</time></trkpt><trkpt lat="44.393895" lon="11.5117367"><ele>211.0</ele><time>2026-05-01T09:10:42.439Z</time></trkpt><trkpt lat="44.393825" lon="11.5117217"><ele>210.83333333333331</ele><time>2026-05-01T09:10:43.441Z</time></trkpt><trkpt lat="44.3937517" lon="11.511705"><ele>210.66666666666666</ele><time>2026-05-01T09:10:44.44Z</time></trkpt><trkpt lat="44.39368" lon="11.5116917"><ele>210.5</ele><time>2026-05-01T09:10:45.441Z</time></trkpt><trkpt lat="44.393605" lon="11.5116783"><ele>210.33333333333331</ele><time>2026-05-01T09:10:46.443Z</time></trkpt><trkpt lat="44.3935267" lon="11.5116583"><ele>210.16666666666666</ele><time>2026-05-01T09:10:47.442Z</time></trkpt><trkpt lat="44.3934483" lon="11.5116433"><ele>210.0</ele><time>2026-05-01T09:10:48.441Z</time></trkpt><trkpt lat="44.3933733" lon="11.5116283"><ele>210.0</ele><time>2026-05-01T09:10:49.442Z</time></trkpt><trkpt lat="44.393295" lon="11.51161"><ele>210.0</ele><time>2026-05-01T09:10:50.44Z</time></trkpt><trkpt lat="44.3932183" lon="11.511595"><ele>210.0</ele><time>2026-05-01T09:10:51.44Z</time></trkpt><trkpt lat="44.393145" lon="11.511585"><ele>210.0</ele><time>2026-05-01T09:10:52.441Z</time></trkpt><trkpt lat="44.39307" lon="11.51157"><ele>210.0</ele><time>2026-05-01T09:10:53.441Z</time></trkpt><trkpt lat="44.3929983" lon="11.511555"><ele>210.0</ele><time>2026-05-01T09:10:54.441Z</time></trkpt><trkpt lat="44.3929267" lon="11.51154"><ele>210.83333333333334</ele><time>2026-05-01T09:10:55.442Z</time></trkpt><trkpt lat="44.392855" lon="11.5115283"><ele>211.66666666666669</ele><time>2026-05-01T09:10:56.44Z</time></trkpt><trkpt lat="44.3927883" lon="11.5115167"><ele>212.5</ele><time>2026-05-01T09:10:57.44Z</time></trkpt><trkpt lat="44.3927217" lon="11.5115083"><ele>213.33333333333334</ele><time>2026-05-01T09:10:58.442Z</time></trkpt><trkpt lat="44.3926567" lon="11.5115017"><ele>214.16666666666669</ele><time>2026-05-01T09:10:59.441Z</time></trkpt><trkpt lat="44.392535" lon="11.511495"><ele>215.0</ele><time>2026-05-01T09:11:01.441Z</time></trkpt><trkpt lat="44.392445" lon="11.5114733"><ele>215.0</ele><time>2026-05-01T09:11:03.44Z</time></trkpt><trkpt lat="44.392365" lon="11.5114583"><ele>215.0</ele><time>2026-05-01T09:11:05.44Z</time></trkpt><trkpt lat="44.392285" lon="11.5114433"><ele>215.0</ele><time>2026-05-01T09:11:07.445Z</time></trkpt><trkpt lat="44.3922117" lon="11.511425"><ele>215.0</ele><time>2026-05-01T09:11:09.441Z</time></trkpt><trkpt lat="44.3921467" lon="11.5114033"><ele>215.0</ele><time>2026-05-01T09:11:11.441Z</time></trkpt><trkpt lat="44.3920817" lon="11.5113933"><ele>215.0</ele><time>2026-05-01T09:11:13.442Z</time></trkpt><trkpt lat="44.39202" lon="11.511375"><ele>215.0</ele><time>2026-05-01T09:11:15.44Z</time></trkpt><trkpt lat="44.39193" lon="11.5113667"><ele>216.00000000000003</ele><time>2026-05-01T09:11:18.44Z</time></trkpt><trkpt lat="44.3918367" lon="11.511355"><ele>217.0</ele><time>2026-05-01T09:11:21.441Z</time></trkpt><trkpt lat="44.3917467" lon="11.5113383"><ele>218.0</ele><time>2026-05-01T09:11:24.441Z</time></trkpt><trkpt lat="44.3916667" lon="11.5113233"><ele>219.0</ele><time>2026-05-01T09:11:27.441Z</time></trkpt><trkpt lat="44.39158" lon="11.5113083"><ele>220.00000000000003</ele><time>2026-05-01T09:11:30.439Z</time></trkpt><trkpt lat="44.3914917" lon="11.5112967"><ele>221.0</ele><time>2026-05-01T09:11:33.441Z</time></trkpt><trkpt lat="44.3914067" lon="11.511305"><ele>221.33333333333334</ele><time>2026-05-01T09:11:36.44Z</time></trkpt><trkpt lat="44.3913283" lon="11.5113267"><ele>221.66666666666669</ele><time>2026-05-01T09:11:39.44Z</time></trkpt><trkpt lat="44.3912483" lon="11.511375"><ele>222.0</ele><time>2026-05-01T09:11:42.441Z</time></trkpt><trkpt lat="44.3911617" lon="11.5114267"><ele>222.33333333333331</ele><time>2026-05-01T09:11:45.44Z</time></trkpt><trkpt lat="44.3911033" lon="11.5114733"><ele>222.66666666666666</ele><time>2026-05-01T09:11:47.443Z</time></trkpt><trkpt lat="44.3910367" lon="11.5115233"><ele>223.0</ele><time>2026-05-01T09:11:49.443Z</time></trkpt><trkpt lat="44.3909667" lon="11.5115733"><ele>223.0</ele><time>2026-05-01T09:11:51.442Z</time></trkpt><trkpt lat="44.39089" lon="11.5116283"><ele>223.0</ele><time>2026-05-01T09:11:53.441Z</time></trkpt><trkpt lat="44.3908083" lon="11.5116867"><ele>223.0</ele><time>2026-05-01T09:11:55.443Z</time></trkpt><trkpt lat="44.39072" lon="11.5117317"><ele>223.0</ele><time>2026-05-01T09:11:57.443Z</time></trkpt><trkpt lat="44.3906233" lon="11.51176"><ele>223.0</ele><time>2026-05-01T09:11:59.441Z</time></trkpt><trkpt lat="44.3905217" lon="11.51179"><ele>222.60000000000002</ele><time>2026-05-01T09:12:01.442Z</time></trkpt><trkpt lat="44.3904217" lon="11.51182"><ele>222.20000000000002</ele><time>2026-05-01T09:12:03.441Z</time></trkpt><trkpt lat="44.3903183" lon="11.5118467"><ele>221.8</ele><time>2026-05-01T09:12:05.441Z</time></trkpt><trkpt lat="44.3902167" lon="11.5118683"><ele>221.4</ele><time>2026-05-01T09:12:07.443Z</time></trkpt><trkpt lat="44.390115" lon="11.5118967"><ele>221.0</ele><time>2026-05-01T09:12:09.441Z</time></trkpt><trkpt lat="44.3900133" lon="11.5119267"><ele>221.0</ele><time>2026-05-01T09:12:11.442Z</time></trkpt><trkpt lat="44.3899117" lon="11.5119433"><ele>221.00000000000003</ele><time>2026-05-01T09:12:13.441Z</time></trkpt><trkpt lat="44.3898133" lon="11.5119633"><ele>221.00000000000003</ele><time>2026-05-01T09:12:15.443Z</time></trkpt><trkpt lat="44.3897183" lon="11.511985"><ele>221.0</ele><time>2026-05-01T09:12:17.442Z</time></trkpt><trkpt lat="44.3896333" lon="11.5119983"><ele>221.0</ele><time>2026-05-01T09:12:19.44Z</time></trkpt><trkpt lat="44.3895567" lon="11.51203"><ele>221.2857142857143</ele><time>2026-05-01T09:12:21.439Z</time></trkpt><trkpt lat="44.3894833" lon="11.5120633"><ele>221.57142857142858</ele><time>2026-05-01T09:12:23.442Z</time></trkpt><trkpt lat="44.3894117" lon="11.5120983"><ele>221.85714285714286</ele><time>2026-05-01T09:12:25.441Z</time></trkpt><trkpt lat="44.389345" lon="11.5121383"><ele>222.14285714285717</ele><time>2026-05-01T09:12:27.441Z</time></trkpt><trkpt lat="44.38928" lon="11.5121833"><ele>222.42857142857142</ele><time>2026-05-01T09:12:29.442Z</time></trkpt><trkpt lat="44.3892183" lon="11.5122317"><ele>222.71428571428572</ele><time>2026-05-01T09:12:31.442Z</time></trkpt><trkpt lat="44.3891533" lon="11.512275"><ele>223.0</ele><time>2026-05-01T09:12:33.44Z</time></trkpt><trkpt lat="44.3890917" lon="11.5123217"><ele>222.28571428571428</ele><time>2026-05-01T09:12:35.439Z</time></trkpt><trkpt lat="44.3890367" lon="11.5123783"><ele>221.57142857142856</ele><time>2026-05-01T09:12:37.441Z</time></trkpt><trkpt lat="44.3889817" lon="11.512435"><ele>220.85714285714286</ele><time>2026-05-01T09:12:39.442Z</time></trkpt><trkpt lat="44.3889233" lon="11.5124867"><ele>220.14285714285714</ele><time>2026-05-01T09:12:41.439Z</time></trkpt><trkpt lat="44.3888667" lon="11.51254"><ele>219.42857142857144</ele><time>2026-05-01T09:12:43.442Z</time></trkpt><trkpt lat="44.3888133" lon="11.5126017"><ele>218.71428571428572</ele><time>2026-05-01T09:12:45.442Z</time></trkpt><trkpt lat="44.3887617" lon="11.512665"><ele>218.0</ele><time>2026-05-01T09:12:47.442Z</time></trkpt><trkpt lat="44.38871" lon="11.5127267"><ele>218.00000000000003</ele><time>2026-05-01T09:12:49.443Z</time></trkpt><trkpt lat="44.3886617" lon="11.5128017"><ele>218.0</ele><time>2026-05-01T09:12:51.441Z</time></trkpt><trkpt lat="44.3886183" lon="11.512875"><ele>218.0</ele><time>2026-05-01T09:12:53.442Z</time></trkpt><trkpt lat="44.38857" lon="11.5129517"><ele>218.0</ele><time>2026-05-01T09:12:55.445Z</time></trkpt><trkpt lat="44.3885217" lon="11.5130333"><ele>218.00000000000003</ele><time>2026-05-01T09:12:57.443Z</time></trkpt><trkpt lat="44.388475" lon="11.513125"><ele>218.0</ele><time>2026-05-01T09:12:59.444Z</time></trkpt><trkpt lat="44.3884267" lon="11.513225"><ele>220.0</ele><time>2026-05-01T09:13:01.446Z</time></trkpt><trkpt lat="44.388375" lon="11.5133233"><ele>222.0</ele><time>2026-05-01T09:13:03.444Z</time></trkpt><trkpt lat="44.38832" lon="11.51344"><ele>224.0</ele><time>2026-05-01T09:13:05.444Z</time></trkpt><trkpt lat="44.3882717" lon="11.5135683"><ele>226.0</ele><time>2026-05-01T09:13:07.444Z</time></trkpt><trkpt lat="44.3882183" lon="11.5137033"><ele>228.0</ele><time>2026-05-01T09:13:09.445Z</time></trkpt><trkpt lat="44.3881617" lon="11.5138383"><ele>228.0</ele><time>2026-05-01T09:13:11.444Z</time></trkpt><trkpt lat="44.3880983" lon="11.5139717"><ele>228.0</ele><time>2026-05-01T09:13:13.444Z</time></trkpt><trkpt lat="44.3880267" lon="11.5140983"><ele>228.0</ele><time>2026-05-01T09:13:15.444Z</time></trkpt><trkpt lat="44.387955" lon="11.5142167"><ele>228.0</ele><time>2026-05-01T09:13:17.445Z</time></trkpt><trkpt lat="44.3878917" lon="11.5143417"><ele>228.2</ele><time>2026-05-01T09:13:19.442Z</time></trkpt><trkpt lat="44.387835" lon="11.5144683"><ele>228.4</ele><time>2026-05-01T09:13:21.441Z</time></trkpt><trkpt lat="44.3877733" lon="11.5145917"><ele>228.59999999999997</ele><time>2026-05-01T09:13:23.442Z</time></trkpt><trkpt lat="44.3877133" lon="11.51471"><ele>228.79999999999998</ele><time>2026-05-01T09:13:25.443Z</time></trkpt><trkpt lat="44.3876567" lon="11.514835"><ele>229.0</ele><time>2026-05-01T09:13:27.441Z</time></trkpt><trkpt lat="44.3875933" lon="11.5149617"><ele>229.0</ele><time>2026-05-01T09:13:29.442Z</time></trkpt><trkpt lat="44.38753" lon="11.5150883"><ele>228.99999999999997</ele><time>2026-05-01T09:13:31.442Z</time></trkpt><trkpt lat="44.3874783" lon="11.515225"><ele>228.99999999999997</ele><time>2026-05-01T09:13:33.441Z</time></trkpt><trkpt lat="44.3874367" lon="11.515365"><ele>229.0</ele><time>2026-05-01T09:13:35.442Z</time></trkpt><trkpt lat="44.387385" lon="11.515495"><ele>229.0</ele><time>2026-05-01T09:13:37.441Z</time></trkpt><trkpt lat="44.387335" lon="11.5156183"><ele>227.75</ele><time>2026-05-01T09:13:39.441Z</time></trkpt><trkpt lat="44.387275" lon="11.5157467"><ele>226.5</ele><time>2026-05-01T09:13:41.44Z</time></trkpt><trkpt lat="44.38721" lon="11.5158717"><ele>225.25</ele><time>2026-05-01T09:13:43.44Z</time></trkpt><trkpt lat="44.38714" lon="11.5160017"><ele>224.0</ele><time>2026-05-01T09:13:45.44Z</time></trkpt><trkpt lat="44.38707" lon="11.51614"><ele>222.2</ele><time>2026-05-01T09:13:47.443Z</time></trkpt><trkpt lat="44.38701" lon="11.5162717"><ele>220.39999999999998</ele><time>2026-05-01T09:13:49.443Z</time></trkpt><trkpt lat="44.3869533" lon="11.516405"><ele>218.6</ele><time>2026-05-01T09:13:51.442Z</time></trkpt><trkpt lat="44.38692" lon="11.51655"><ele>216.8</ele><time>2026-05-01T09:13:53.442Z</time></trkpt><trkpt lat="44.3869283" lon="11.5166983"><ele>215.0</ele><time>2026-05-01T09:13:55.44Z</time></trkpt><trkpt lat="44.38697" lon="11.5168467"><ele>215.0</ele><time>2026-05-01T09:13:57.442Z</time></trkpt><trkpt lat="44.3870233" lon="11.51698"><ele>215.0</ele><time>2026-05-01T09:13:59.44Z</time></trkpt><trkpt lat="44.3870783" lon="11.5171033"><ele>215.0</ele><time>2026-05-01T09:14:01.442Z</time></trkpt><trkpt lat="44.3871333" lon="11.5172217"><ele>215.0</ele><time>2026-05-01T09:14:03.441Z</time></trkpt><trkpt lat="44.3871833" lon="11.51733"><ele>215.0</ele><time>2026-05-01T09:14:05.439Z</time></trkpt><trkpt lat="44.3872267" lon="11.51743"><ele>216.57142857142856</ele><time>2026-05-01T09:14:07.441Z</time></trkpt><trkpt lat="44.3872783" lon="11.5175233"><ele>218.14285714285717</ele><time>2026-05-01T09:14:09.441Z</time></trkpt><trkpt lat="44.387325" lon="11.51761"><ele>219.71428571428572</ele><time>2026-05-01T09:14:11.439Z</time></trkpt><trkpt lat="44.3873683" lon="11.5176933"><ele>221.28571428571428</ele><time>2026-05-01T09:14:13.443Z</time></trkpt><trkpt lat="44.3874067" lon="11.517775"><ele>222.85714285714283</ele><time>2026-05-01T09:14:15.44Z</time></trkpt><trkpt lat="44.38745" lon="11.5178517"><ele>224.42857142857144</ele><time>2026-05-01T09:14:17.444Z</time></trkpt><trkpt lat="44.38749" lon="11.5179317"><ele>226.0</ele><time>2026-05-01T09:14:19.442Z</time></trkpt><trkpt lat="44.3875267" lon="11.5180217"><ele>226.85714285714286</ele><time>2026-05-01T09:14:21.443Z</time></trkpt><trkpt lat="44.387575" lon="11.5181017"><ele>227.71428571428572</ele><time>2026-05-01T09:14:23.443Z</time></trkpt><trkpt lat="44.3876233" lon="11.5181767"><ele>228.57142857142858</ele><time>2026-05-01T09:14:25.44Z</time></trkpt><trkpt lat="44.3876817" lon="11.5182467"><ele>229.42857142857144</ele><time>2026-05-01T09:14:27.441Z</time></trkpt><trkpt lat="44.38772" lon="11.5183267"><ele>230.28571428571428</ele><time>2026-05-01T09:14:29.441Z</time></trkpt><trkpt lat="44.3877483" lon="11.5184117"><ele>231.14285714285717</ele><time>2026-05-01T09:14:31.444Z</time></trkpt><trkpt lat="44.3877817" lon="11.5184983"><ele>232.00000000000003</ele><time>2026-05-01T09:14:33.439Z</time></trkpt><trkpt lat="44.3878067" lon="11.5185817"><ele>231.99999999999997</ele><time>2026-05-01T09:14:35.442Z</time></trkpt><trkpt lat="44.3878317" lon="11.518695"><ele>232.0</ele><time>2026-05-01T09:14:38.441Z</time></trkpt><trkpt lat="44.3878583" lon="11.5188083"><ele>232.0</ele><time>2026-05-01T09:14:41.439Z</time></trkpt><trkpt lat="44.38788" lon="11.5189"><ele>232.0</ele><time>2026-05-01T09:14:43.442Z</time></trkpt><trkpt lat="44.387915" lon="11.519005"><ele>231.99999999999997</ele><time>2026-05-01T09:14:45.439Z</time></trkpt><trkpt lat="44.38794" lon="11.5191233"><ele>232.0</ele><time>2026-05-01T09:14:47.444Z</time></trkpt><trkpt lat="44.3879783" lon="11.51924"><ele>232.2</ele><time>2026-05-01T09:14:49.443Z</time></trkpt><trkpt lat="44.3880283" lon="11.5193583"><ele>232.39999999999998</ele><time>2026-05-01T09:14:51.443Z</time></trkpt><trkpt lat="44.38808" lon="11.51947"><ele>232.60000000000002</ele><time>2026-05-01T09:14:53.443Z</time></trkpt><trkpt lat="44.388155" lon="11.5195767"><ele>232.8</ele><time>2026-05-01T09:14:55.44Z</time></trkpt><trkpt lat="44.388225" lon="11.5196617"><ele>233.0</ele><time>2026-05-01T09:14:57.44Z</time></trkpt><trkpt lat="44.388295" lon="11.5197467"><ele>233.0</ele><time>2026-05-01T09:14:59.44Z</time></trkpt><trkpt lat="44.3883367" lon="11.519835"><ele>233.0</ele><time>2026-05-01T09:15:01.442Z</time></trkpt><trkpt lat="44.3883517" lon="11.5199433"><ele>233.0</ele><time>2026-05-01T09:15:03.44Z</time></trkpt><trkpt lat="44.38836" lon="11.52007"><ele>233.0</ele><time>2026-05-01T09:15:05.441Z</time></trkpt><trkpt lat="44.388355" lon="11.5202117"><ele>233.0</ele><time>2026-05-01T09:15:07.443Z</time></trkpt><trkpt lat="44.3883567" lon="11.5203683"><ele>232.4</ele><time>2026-05-01T09:15:09.441Z</time></trkpt><trkpt lat="44.3883433" lon="11.5205317"><ele>231.8</ele><time>2026-05-01T09:15:11.44Z</time></trkpt><trkpt lat="44.388325" lon="11.5207067"><ele>231.2</ele><time>2026-05-01T09:15:13.441Z</time></trkpt><trkpt lat="44.3883217" lon="11.520795"><ele>230.6</ele><time>2026-05-01T09:15:14.442Z</time></trkpt><trkpt lat="44.3883283" lon="11.5209667"><ele>230.0</ele><time>2026-05-01T09:15:16.441Z</time></trkpt><trkpt lat="44.3883283" lon="11.5211417"><ele>230.00000000000003</ele><time>2026-05-01T09:15:18.443Z</time></trkpt><trkpt lat="44.3883333" lon="11.52123"><ele>230.0</ele><time>2026-05-01T09:15:19.44Z</time></trkpt><trkpt lat="44.38835" lon="11.5214"><ele>230.0</ele><time>2026-05-01T09:15:21.441Z</time></trkpt><trkpt lat="44.3883533" lon="11.52157"><ele>230.0</ele><time>2026-05-01T09:15:23.442Z</time></trkpt><trkpt lat="44.3883567" lon="11.52166"><ele>230.00000000000003</ele><time>2026-05-01T09:15:24.442Z</time></trkpt><trkpt lat="44.3883633" lon="11.52175"><ele>230.0</ele><time>2026-05-01T09:15:25.441Z</time></trkpt><trkpt lat="44.38837" lon="11.521845"><ele>229.57142857142856</ele><time>2026-05-01T09:15:26.442Z</time></trkpt><trkpt lat="44.38838" lon="11.521945"><ele>229.14285714285714</ele><time>2026-05-01T09:15:27.441Z</time></trkpt><trkpt lat="44.388385" lon="11.522045"><ele>228.71428571428572</ele><time>2026-05-01T09:15:28.442Z</time></trkpt><trkpt lat="44.3883933" lon="11.522145"><ele>228.28571428571428</ele><time>2026-05-01T09:15:29.442Z</time></trkpt><trkpt lat="44.3884" lon="11.522245"><ele>227.8571428571429</ele><time>2026-05-01T09:15:30.442Z</time></trkpt><trkpt lat="44.3884067" lon="11.5223517"><ele>227.42857142857144</ele><time>2026-05-01T09:15:31.442Z</time></trkpt><trkpt lat="44.38842" lon="11.5224683"><ele>227.0</ele><time>2026-05-01T09:15:32.441Z</time></trkpt><trkpt lat="44.3884367" lon="11.522585"><ele>226.66666666666669</ele><time>2026-05-01T09:15:33.443Z</time></trkpt><trkpt lat="44.3884567" lon="11.5226983"><ele>226.33333333333334</ele><time>2026-05-01T09:15:34.442Z</time></trkpt><trkpt lat="44.388475" lon="11.52281"><ele>226.0</ele><time>2026-05-01T09:15:35.442Z</time></trkpt><trkpt lat="44.3884933" lon="11.52292"><ele>225.66666666666669</ele><time>2026-05-01T09:15:36.443Z</time></trkpt><trkpt lat="44.3885117" lon="11.5230267"><ele>225.33333333333334</ele><time>2026-05-01T09:15:37.444Z</time></trkpt><trkpt lat="44.3885267" lon="11.5231283"><ele>225.0</ele><time>2026-05-01T09:15:38.443Z</time></trkpt><trkpt lat="44.3885383" lon="11.5232217"><ele>224.33333333333334</ele><time>2026-05-01T09:15:39.443Z</time></trkpt><trkpt lat="44.3885483" lon="11.5233117"><ele>223.66666666666669</ele><time>2026-05-01T09:15:40.442Z</time></trkpt><trkpt lat="44.3885567" lon="11.5234033"><ele>223.0</ele><time>2026-05-01T09:15:41.441Z</time></trkpt><trkpt lat="44.38857" lon="11.5235783"><ele>222.33333333333334</ele><time>2026-05-01T09:15:43.443Z</time></trkpt><trkpt lat="44.3885783" lon="11.5236667"><ele>221.66666666666669</ele><time>2026-05-01T09:15:44.442Z</time></trkpt><trkpt lat="44.3886083" lon="11.52383"><ele>221.0</ele><time>2026-05-01T09:15:46.441Z</time></trkpt><trkpt lat="44.3886383" lon="11.5239833"><ele>221.33333333333334</ele><time>2026-05-01T09:15:48.441Z</time></trkpt><trkpt lat="44.3886683" lon="11.5241067"><ele>221.66666666666669</ele><time>2026-05-01T09:15:50.441Z</time></trkpt><trkpt lat="44.388695" lon="11.524225"><ele>222.0</ele><time>2026-05-01T09:15:52.442Z</time></trkpt><trkpt lat="44.38871" lon="11.5243383"><ele>222.33333333333331</ele><time>2026-05-01T09:15:54.442Z</time></trkpt><trkpt lat="44.38873" lon="11.5244417"><ele>222.66666666666666</ele><time>2026-05-01T09:15:56.441Z</time></trkpt><trkpt lat="44.38874" lon="11.5245417"><ele>223.0</ele><time>2026-05-01T09:15:58.441Z</time></trkpt><trkpt lat="44.3887683" lon="11.524665"><ele>222.99999999999997</ele><time>2026-05-01T09:16:01.443Z</time></trkpt><trkpt lat="44.3887883" lon="11.5247883"><ele>223.0</ele><time>2026-05-01T09:16:04.441Z</time></trkpt><trkpt lat="44.3888" lon="11.524915"><ele>223.0</ele><time>2026-05-01T09:16:07.44Z</time></trkpt><trkpt lat="44.3887967" lon="11.52502"><ele>223.0</ele><time>2026-05-01T09:16:09.44Z</time></trkpt><trkpt lat="44.3887833" lon="11.525155"><ele>222.99999999999997</ele><time>2026-05-01T09:16:11.44Z</time></trkpt><trkpt lat="44.3887683" lon="11.5252683"><ele>223.0</ele><time>2026-05-01T09:16:13.44Z</time></trkpt><trkpt lat="44.3887933" lon="11.5253733"><ele>224.0</ele><time>2026-05-01T09:16:39.44Z</time></trkpt><trkpt lat="44.3888367" lon="11.5254483"><ele>225.0</ele><time>2026-05-01T09:16:41.439Z</time></trkpt><trkpt lat="44.3888983" lon="11.5255367"><ele>226.0</ele><time>2026-05-01T09:16:43.439Z</time></trkpt><trkpt lat="44.3889717" lon="11.5256483"><ele>227.0</ele><time>2026-05-01T09:16:45.44Z</time></trkpt><trkpt lat="44.3890533" lon="11.52577"><ele>228.0</ele><time>2026-05-01T09:16:47.441Z</time></trkpt><trkpt lat="44.3891" lon="11.525835"><ele>228.0</ele><time>2026-05-01T09:16:48.441Z</time></trkpt><trkpt lat="44.3891467" lon="11.525905"><ele>227.99999999999997</ele><time>2026-05-01T09:16:49.442Z</time></trkpt><trkpt lat="44.389195" lon="11.5259767"><ele>228.0</ele><time>2026-05-01T09:16:50.442Z</time></trkpt><trkpt lat="44.3892483" lon="11.5260483"><ele>228.0</ele><time>2026-05-01T09:16:51.443Z</time></trkpt><trkpt lat="44.389305" lon="11.52612"><ele>227.99999999999997</ele><time>2026-05-01T09:16:52.441Z</time></trkpt><trkpt lat="44.3893633" lon="11.52619"><ele>228.0</ele><time>2026-05-01T09:16:53.44Z</time></trkpt><trkpt lat="44.3894217" lon="11.5262617"><ele>228.0</ele><time>2026-05-01T09:16:54.439Z</time></trkpt><trkpt lat="44.3894783" lon="11.52633"><ele>226.83333333333334</ele><time>2026-05-01T09:16:55.441Z</time></trkpt><trkpt lat="44.3895333" lon="11.5263983"><ele>225.66666666666669</ele><time>2026-05-01T09:16:56.44Z</time></trkpt><trkpt lat="44.3895783" lon="11.52647"><ele>224.5</ele><time>2026-05-01T09:16:57.44Z</time></trkpt><trkpt lat="44.3896267" lon="11.526535"><ele>223.33333333333334</ele><time>2026-05-01T09:16:58.439Z</time></trkpt><trkpt lat="44.3896733" lon="11.5265967"><ele>222.16666666666669</ele><time>2026-05-01T09:16:59.44Z</time></trkpt><trkpt lat="44.3897567" lon="11.526715"><ele>221.0</ele><time>2026-05-01T09:17:01.441Z</time></trkpt><trkpt lat="44.3898367" lon="11.526825"><ele>221.0</ele><time>2026-05-01T09:17:03.439Z</time></trkpt><trkpt lat="44.3899167" lon="11.5269283"><ele>221.00000000000003</ele><time>2026-05-01T09:17:05.439Z</time></trkpt><trkpt lat="44.3900017" lon="11.5270433"><ele>221.00000000000003</ele><time>2026-05-01T09:17:07.441Z</time></trkpt><trkpt lat="44.3900783" lon="11.5271517"><ele>221.0</ele><time>2026-05-01T09:17:09.44Z</time></trkpt><trkpt lat="44.3901583" lon="11.5272567"><ele>221.0</ele><time>2026-05-01T09:17:11.44Z</time></trkpt><trkpt lat="44.390245" lon="11.5273633"><ele>223.0</ele><time>2026-05-01T09:17:13.44Z</time></trkpt><trkpt lat="44.3903267" lon="11.52749"><ele>225.0</ele><time>2026-05-01T09:17:15.442Z</time></trkpt><trkpt lat="44.3903867" lon="11.5276367"><ele>227.0</ele><time>2026-05-01T09:17:17.442Z</time></trkpt><trkpt lat="44.3904233" lon="11.5277967"><ele>229.0</ele><time>2026-05-01T09:17:19.44Z</time></trkpt><trkpt lat="44.3904467" lon="11.5279667"><ele>229.5</ele><time>2026-05-01T09:17:21.439Z</time></trkpt><trkpt lat="44.3904717" lon="11.5281317"><ele>230.0</ele><time>2026-05-01T09:17:23.44Z</time></trkpt><trkpt lat="44.3904967" lon="11.5282917"><ele>230.5</ele><time>2026-05-01T09:17:25.442Z</time></trkpt><trkpt lat="44.3905183" lon="11.5284483"><ele>231.0</ele><time>2026-05-01T09:17:27.442Z</time></trkpt><trkpt lat="44.3905317" lon="11.5286"><ele>229.20000000000002</ele><time>2026-05-01T09:17:29.44Z</time></trkpt><trkpt lat="44.3905467" lon="11.5287583"><ele>227.40000000000003</ele><time>2026-05-01T09:17:31.44Z</time></trkpt><trkpt lat="44.3905717" lon="11.5289283"><ele>225.6</ele><time>2026-05-01T09:17:33.44Z</time></trkpt><trkpt lat="44.3905933" lon="11.5290233"><ele>223.8</ele><time>2026-05-01T09:17:34.44Z</time></trkpt><trkpt lat="44.3906217" lon="11.529125"><ele>222.0</ele><time>2026-05-01T09:17:35.44Z</time></trkpt><trkpt lat="44.3906583" lon="11.5292233"><ele>222.0</ele><time>2026-05-01T09:17:36.44Z</time></trkpt><trkpt lat="44.3907067" lon="11.52933"><ele>222.0</ele><time>2026-05-01T09:17:37.44Z</time></trkpt><trkpt lat="44.3907583" lon="11.529455"><ele>222.0</ele><time>2026-05-01T09:17:38.44Z</time></trkpt><trkpt lat="44.390815" lon="11.52959"><ele>222.0</ele><time>2026-05-01T09:17:39.439Z</time></trkpt><trkpt lat="44.39087" lon="11.5297333"><ele>222.0</ele><time>2026-05-01T09:17:40.44Z</time></trkpt><trkpt lat="44.390935" lon="11.5298883"><ele>219.5</ele><time>2026-05-01T09:17:41.439Z</time></trkpt><trkpt lat="44.3909983" lon="11.5300467"><ele>217.0</ele><time>2026-05-01T09:17:42.44Z</time></trkpt><trkpt lat="44.39106" lon="11.5302017"><ele>214.5</ele><time>2026-05-01T09:17:43.44Z</time></trkpt><trkpt lat="44.3911167" lon="11.5303433"><ele>212.0</ele><time>2026-05-01T09:17:44.44Z</time></trkpt><trkpt lat="44.3911633" lon="11.5304833"><ele>210.39999999999998</ele><time>2026-05-01T09:17:45.44Z</time></trkpt><trkpt lat="44.3912033" lon="11.5306217"><ele>208.79999999999998</ele><time>2026-05-01T09:17:46.442Z</time></trkpt><trkpt lat="44.3912317" lon="11.53075"><ele>207.2</ele><time>2026-05-01T09:17:47.442Z</time></trkpt><trkpt lat="44.3912483" lon="11.5308833"><ele>205.6</ele><time>2026-05-01T09:17:48.441Z</time></trkpt><trkpt lat="44.3912667" lon="11.5310283"><ele>204.0</ele><time>2026-05-01T09:17:49.442Z</time></trkpt><trkpt lat="44.391275" lon="11.53118"><ele>202.2</ele><time>2026-05-01T09:17:50.441Z</time></trkpt><trkpt lat="44.3912867" lon="11.531325"><ele>200.39999999999998</ele><time>2026-05-01T09:17:51.442Z</time></trkpt><trkpt lat="44.3912933" lon="11.5314683"><ele>198.6</ele><time>2026-05-01T09:17:52.441Z</time></trkpt><trkpt lat="44.3913017" lon="11.5316017"><ele>196.8</ele><time>2026-05-01T09:17:53.442Z</time></trkpt><trkpt lat="44.391305" lon="11.5317283"><ele>195.0</ele><time>2026-05-01T09:17:54.442Z</time></trkpt><trkpt lat="44.3913117" lon="11.5318467"><ele>195.0</ele><time>2026-05-01T09:17:55.442Z</time></trkpt><trkpt lat="44.3913167" lon="11.5319583"><ele>195.0</ele><time>2026-05-01T09:17:56.441Z</time></trkpt><trkpt lat="44.3913233" lon="11.53206"><ele>195.0</ele><time>2026-05-01T09:17:57.443Z</time></trkpt><trkpt lat="44.39133" lon="11.53215"><ele>195.0</ele><time>2026-05-01T09:17:58.443Z</time></trkpt><trkpt lat="44.3913333" lon="11.5322817"><ele>195.0</ele><time>2026-05-01T09:18:00.441Z</time></trkpt><trkpt lat="44.39134" lon="11.5323867"><ele>195.0</ele><time>2026-05-01T09:18:02.441Z</time></trkpt><trkpt lat="44.39136" lon="11.5325217"><ele>192.33333333333334</ele><time>2026-05-01T09:18:04.441Z</time></trkpt><trkpt lat="44.3913817" lon="11.5327"><ele>189.66666666666666</ele><time>2026-05-01T09:18:06.442Z</time></trkpt><trkpt lat="44.3913967" lon="11.5328067"><ele>187.0</ele><time>2026-05-01T09:18:07.443Z</time></trkpt><trkpt lat="44.3914117" lon="11.5329117"><ele>184.33333333333331</ele><time>2026-05-01T09:18:08.441Z</time></trkpt><trkpt lat="44.39142" lon="11.5330167"><ele>181.66666666666666</ele><time>2026-05-01T09:18:09.442Z</time></trkpt><trkpt lat="44.3914083" lon="11.5331317"><ele>179.0</ele><time>2026-05-01T09:18:10.442Z</time></trkpt><trkpt lat="44.39138" lon="11.533245"><ele>178.39999999999998</ele><time>2026-05-01T09:18:11.442Z</time></trkpt><trkpt lat="44.391335" lon="11.5333517"><ele>177.8</ele><time>2026-05-01T09:18:12.441Z</time></trkpt><trkpt lat="44.3912817" lon="11.5334567"><ele>177.2</ele><time>2026-05-01T09:18:13.442Z</time></trkpt><trkpt lat="44.391215" lon="11.5335567"><ele>176.60000000000002</ele><time>2026-05-01T09:18:14.441Z</time></trkpt><trkpt lat="44.3911433" lon="11.5336633"><ele>176.0</ele><time>2026-05-01T09:18:15.442Z</time></trkpt><trkpt lat="44.3910717" lon="11.533765"><ele>174.20000000000002</ele><time>2026-05-01T09:18:16.442Z</time></trkpt><trkpt lat="44.391" lon="11.53386"><ele>172.4</ele><time>2026-05-01T09:18:17.441Z</time></trkpt><trkpt lat="44.3909283" lon="11.5339567"><ele>170.6</ele><time>2026-05-01T09:18:18.442Z</time></trkpt><trkpt lat="44.3908683" lon="11.534055"><ele>168.8</ele><time>2026-05-01T09:18:19.442Z</time></trkpt><trkpt lat="44.3908233" lon="11.5341583"><ele>167.0</ele><time>2026-05-01T09:18:20.442Z</time></trkpt><trkpt lat="44.3907917" lon="11.5342683"><ele>167.0</ele><time>2026-05-01T09:18:21.441Z</time></trkpt><trkpt lat="44.39078" lon="11.534385"><ele>167.0</ele><time>2026-05-01T09:18:22.443Z</time></trkpt><trkpt lat="44.3907817" lon="11.5344967"><ele>167.0</ele><time>2026-05-01T09:18:23.442Z</time></trkpt><trkpt lat="44.3907867" lon="11.534605"><ele>167.0</ele><time>2026-05-01T09:18:24.442Z</time></trkpt><trkpt lat="44.3908033" lon="11.5347217"><ele>167.0</ele><time>2026-05-01T09:18:25.441Z</time></trkpt><trkpt lat="44.3908217" lon="11.5348367"><ele>167.0</ele><time>2026-05-01T09:18:26.441Z</time></trkpt><trkpt lat="44.39085" lon="11.534945"><ele>165.83333333333331</ele><time>2026-05-01T09:18:27.442Z</time></trkpt><trkpt lat="44.39089" lon="11.53505"><ele>164.66666666666666</ele><time>2026-05-01T09:18:28.441Z</time></trkpt><trkpt lat="44.390945" lon="11.5351367"><ele>163.5</ele><time>2026-05-01T09:18:29.442Z</time></trkpt><trkpt lat="44.39102" lon="11.5351967"><ele>162.33333333333334</ele><time>2026-05-01T09:18:30.442Z</time></trkpt><trkpt lat="44.3911067" lon="11.5352183"><ele>161.16666666666669</ele><time>2026-05-01T09:18:31.441Z</time></trkpt><trkpt lat="44.3911983" lon="11.5352333"><ele>160.0</ele><time>2026-05-01T09:18:32.442Z</time></trkpt><trkpt lat="44.3913" lon="11.535245"><ele>158.5</ele><time>2026-05-01T09:18:33.442Z</time></trkpt><trkpt lat="44.39141" lon="11.5352483"><ele>157.0</ele><time>2026-05-01T09:18:34.444Z</time></trkpt><trkpt lat="44.3915217" lon="11.5352533"><ele>155.5</ele><time>2026-05-01T09:18:35.442Z</time></trkpt><trkpt lat="44.3916367" lon="11.535265"><ele>154.0</ele><time>2026-05-01T09:18:36.441Z</time></trkpt><trkpt lat="44.3917533" lon="11.5352733"><ele>154.0</ele><time>2026-05-01T09:18:37.442Z</time></trkpt><trkpt lat="44.39187" lon="11.5352867"><ele>154.0</ele><time>2026-05-01T09:18:38.441Z</time></trkpt><trkpt lat="44.3919833" lon="11.535295"><ele>154.0</ele><time>2026-05-01T09:18:39.441Z</time></trkpt><trkpt lat="44.3921017" lon="11.53531"><ele>154.0</ele><time>2026-05-01T09:18:40.44Z</time></trkpt><trkpt lat="44.39221" lon="11.53532"><ele>152.4</ele><time>2026-05-01T09:18:41.442Z</time></trkpt><trkpt lat="44.3923167" lon="11.53534"><ele>150.8</ele><time>2026-05-01T09:18:42.442Z</time></trkpt><trkpt lat="44.3924183" lon="11.535355"><ele>149.2</ele><time>2026-05-01T09:18:43.442Z</time></trkpt><trkpt lat="44.3925233" lon="11.535375"><ele>147.6</ele><time>2026-05-01T09:18:44.441Z</time></trkpt><trkpt lat="44.3926317" lon="11.535395"><ele>146.0</ele><time>2026-05-01T09:18:45.442Z</time></trkpt><trkpt lat="44.3927467" lon="11.5354217"><ele>146.0</ele><time>2026-05-01T09:18:46.442Z</time></trkpt><trkpt lat="44.3928567" lon="11.5354483"><ele>146.0</ele><time>2026-05-01T09:18:47.439Z</time></trkpt><trkpt lat="44.3929717" lon="11.5354783"><ele>146.0</ele><time>2026-05-01T09:18:48.44Z</time></trkpt><trkpt lat="44.3930917" lon="11.53551"><ele>146.0</ele><time>2026-05-01T09:18:49.441Z</time></trkpt><trkpt lat="44.39321" lon="11.5355333"><ele>141.75</ele><time>2026-05-01T09:18:50.439Z</time></trkpt><trkpt lat="44.3933333" lon="11.5355567"><ele>137.5</ele><time>2026-05-01T09:18:51.442Z</time></trkpt><trkpt lat="44.3934533" lon="11.5355733"><ele>133.25</ele><time>2026-05-01T09:18:52.443Z</time></trkpt><trkpt lat="44.3935717" lon="11.5356017"><ele>129.0</ele><time>2026-05-01T09:18:53.443Z</time></trkpt><trkpt lat="44.3936917" lon="11.535625"><ele>129.0</ele><time>2026-05-01T09:18:54.441Z</time></trkpt><trkpt lat="44.3938133" lon="11.5356467"><ele>129.0</ele><time>2026-05-01T09:18:55.439Z</time></trkpt><trkpt lat="44.3939333" lon="11.53566"><ele>129.0</ele><time>2026-05-01T09:18:56.442Z</time></trkpt><trkpt lat="44.3940517" lon="11.535675"><ele>129.0</ele><time>2026-05-01T09:18:57.441Z</time></trkpt><trkpt lat="44.3941667" lon="11.53568"><ele>124.75</ele><time>2026-05-01T09:18:58.442Z</time></trkpt><trkpt lat="44.3942867" lon="11.5356867"><ele>120.5</ele><time>2026-05-01T09:18:59.441Z</time></trkpt><trkpt lat="44.3944033" lon="11.5356967"><ele>116.25</ele><time>2026-05-01T09:19:00.442Z</time></trkpt><trkpt lat="44.394525" lon="11.5357033"><ele>112.0</ele><time>2026-05-01T09:19:01.442Z</time></trkpt><trkpt lat="44.39465" lon="11.5357167"><ele>110.25</ele><time>2026-05-01T09:19:02.443Z</time></trkpt><trkpt lat="44.3947717" lon="11.5357217"><ele>108.5</ele><time>2026-05-01T09:19:03.441Z</time></trkpt><trkpt lat="44.3948933" lon="11.5357067"><ele>106.75</ele><time>2026-05-01T09:19:04.441Z</time></trkpt><trkpt lat="44.3950033" lon="11.5356633"><ele>105.0</ele><time>2026-05-01T09:19:05.442Z</time></trkpt><trkpt lat="44.39511" lon="11.5356067"><ele>105.0</ele><time>2026-05-01T09:19:06.441Z</time></trkpt><trkpt lat="44.3952133" lon="11.5355383"><ele>105.0</ele><time>2026-05-01T09:19:07.442Z</time></trkpt><trkpt lat="44.3953083" lon="11.5354683"><ele>105.0</ele><time>2026-05-01T09:19:08.441Z</time></trkpt><trkpt lat="44.3953967" lon="11.5353933"><ele>105.0</ele><time>2026-05-01T09:19:09.44Z</time></trkpt><trkpt lat="44.3954833" lon="11.5353233"><ele>105.0</ele><time>2026-05-01T09:19:10.44Z</time></trkpt><trkpt lat="44.39557" lon="11.535255"><ele>105.2</ele><time>2026-05-01T09:19:11.439Z</time></trkpt><trkpt lat="44.3956533" lon="11.535185"><ele>105.4</ele><time>2026-05-01T09:19:12.44Z</time></trkpt><trkpt lat="44.3957317" lon="11.5351133"><ele>105.6</ele><time>2026-05-01T09:19:13.44Z</time></trkpt><trkpt lat="44.3958067" lon="11.5350383"><ele>105.8</ele><time>2026-05-01T09:19:14.44Z</time></trkpt><trkpt lat="44.3958783" lon="11.5349583"><ele>106.0</ele><time>2026-05-01T09:19:15.44Z</time></trkpt><trkpt lat="44.3926317" lon="11.535395"><ele>111.75</ele><time>2026-05-01T09:18:45.442Z</time></trkpt><trkpt lat="44.3927467" lon="11.5354217"><ele>117.5</ele><time>2026-05-01T09:18:46.442Z</time></trkpt><trkpt lat="44.3928567" lon="11.5354483"><ele>123.25</ele><time>2026-05-01T09:18:47.439Z</time></trkpt><trkpt lat="44.3929717" lon="11.5354783"><ele>129.0</ele><time>2026-05-01T09:18:48.44Z</time></trkpt><trkpt lat="44.3930917" lon="11.53551"><ele>129.0</ele><time>2026-05-01T09:18:49.441Z</time></trkpt><trkpt lat="44.39321" lon="11.5355333"><ele>129.0</ele><time>2026-05-01T09:18:50.439Z</time></trkpt><trkpt lat="44.3933333" lon="11.5355567"><ele>129.0</ele><time>2026-05-01T09:18:51.442Z</time></trkpt><trkpt lat="44.3934533" lon="11.5355733"><ele>129.0</ele><time>2026-05-01T09:18:52.443Z</time></trkpt><trkpt lat="44.3935717" lon="11.5356017"><ele>129.0</ele><time>2026-05-01T09:18:53.443Z</time></trkpt><trkpt lat="44.3936917" lon="11.535625"><ele>129.0</ele><time>2026-05-01T09:18:54.441Z</time></trkpt><trkpt lat="44.3938133" lon="11.5356467"><ele>129.0</ele><time>2026-05-01T09:18:55.439Z</time></trkpt><trkpt lat="44.3939333" lon="11.53566"><ele>129.0</ele><time>2026-05-01T09:18:56.442Z</time></trkpt><trkpt lat="44.3940517" lon="11.535675"><ele>124.75</ele><time>2026-05-01T09:18:57.441Z</time></trkpt><trkpt lat="44.3941667" lon="11.53568"><ele>120.5</ele><time>2026-05-01T09:18:58.442Z</time></trkpt><trkpt lat="44.3942867" lon="11.5356867"><ele>116.25</ele><time>2026-05-01T09:18:59.441Z</time></trkpt><trkpt lat="44.3944033" lon="11.5356967"><ele>112.0</ele><time>2026-05-01T09:19:00.442Z</time></trkpt><trkpt lat="44.394525" lon="11.5357033"><ele>112.0</ele><time>2026-05-01T09:19:01.442Z</time></trkpt><trkpt lat="44.39465" lon="11.5357167"><ele>112.0</ele><time>2026-05-01T09:19:02.443Z</time></trkpt><trkpt lat="44.3947717" lon="11.5357217"><ele>112.0</ele><time>2026-05-01T09:19:03.441Z</time></trkpt><trkpt lat="44.3948933" lon="11.5357067"><ele>112.0</ele><time>2026-05-01T09:19:04.441Z</time></trkpt><trkpt lat="44.3950033" lon="11.5356633"><ele>111.19999999999999</ele><time>2026-05-01T09:19:05.442Z</time></trkpt><trkpt lat="44.39511" lon="11.5356067"><ele>110.39999999999999</ele><time>2026-05-01T09:19:06.441Z</time></trkpt><trkpt lat="44.3952133" lon="11.5355383"><ele>109.60000000000001</ele><time>2026-05-01T09:19:07.442Z</time></trkpt><trkpt lat="44.3953083" lon="11.5354683"><ele>108.80000000000001</ele><time>2026-05-01T09:19:08.441Z</time></trkpt><trkpt lat="44.3953967" lon="11.5353933"><ele>108.0</ele><time>2026-05-01T09:19:09.44Z</time></trkpt><trkpt lat="44.3954833" lon="11.5353233"><ele>107.60000000000001</ele><time>2026-05-01T09:19:10.44Z</time></trkpt><trkpt lat="44.39557" lon="11.535255"><ele>107.20000000000002</ele><time>2026-05-01T09:19:11.439Z</time></trkpt><trkpt lat="44.3956533" lon="11.535185"><ele>106.8</ele><time>2026-05-01T09:19:12.44Z</time></trkpt><trkpt lat="44.3957317" lon="11.5351133"><ele>106.4</ele><time>2026-05-01T09:19:13.44Z</time></trkpt><trkpt lat="44.3958067" lon="11.5350383"><ele>106.0</ele><time>2026-05-01T09:19:14.44Z</time></trkpt><trkpt lat="44.3958783" lon="11.5349583"><ele>106.00000000000001</ele><time>2026-05-01T09:19:15.44Z</time></trkpt><trkpt lat="44.3959483" lon="11.534885"><ele>106.0</ele><time>2026-05-01T09:19:16.442Z</time></trkpt><trkpt lat="44.3960183" lon="11.5348133"><ele>106.0</ele><time>2026-05-01T09:19:17.442Z</time></trkpt><trkpt lat="44.3960883" lon="11.5347383"><ele>106.0</ele><time>2026-05-01T09:19:18.44Z</time></trkpt><trkpt lat="44.396165" lon="11.534675"><ele>106.00000000000001</ele><time>2026-05-01T09:19:19.442Z</time></trkpt><trkpt lat="44.3962483" lon="11.5346283"><ele>106.0</ele><time>2026-05-01T09:19:20.443Z</time></trkpt><trkpt lat="44.3963383" lon="11.534595"><ele>105.0</ele><time>2026-05-01T09:19:21.442Z</time></trkpt><trkpt lat="44.39643" lon="11.5345733"><ele>104.0</ele><time>2026-05-01T09:19:22.442Z</time></trkpt><trkpt lat="44.3965267" lon="11.5345567"><ele>103.0</ele><time>2026-05-01T09:19:23.442Z</time></trkpt><trkpt lat="44.39662" lon="11.534545"><ele>102.0</ele><time>2026-05-01T09:19:24.442Z</time></trkpt><trkpt lat="44.39672" lon="11.5345417"><ele>101.0</ele><time>2026-05-01T09:19:25.44Z</time></trkpt><trkpt lat="44.39682" lon="11.53453"><ele>102.0</ele><time>2026-05-01T09:19:26.441Z</time></trkpt><trkpt lat="44.3969217" lon="11.5345267"><ele>103.0</ele><time>2026-05-01T09:19:27.441Z</time></trkpt><trkpt lat="44.3970183" lon="11.5345267"><ele>104.0</ele><time>2026-05-01T09:19:28.441Z</time></trkpt><trkpt lat="44.3971167" lon="11.5345283"><ele>105.0</ele><time>2026-05-01T09:19:29.441Z</time></trkpt><trkpt lat="44.3972083" lon="11.5345283"><ele>106.0</ele><time>2026-05-01T09:19:30.441Z</time></trkpt><trkpt lat="44.3972983" lon="11.53453"><ele>106.00000000000001</ele><time>2026-05-01T09:19:31.442Z</time></trkpt><trkpt lat="44.3973867" lon="11.5345283"><ele>106.0</ele><time>2026-05-01T09:19:32.441Z</time></trkpt><trkpt lat="44.39748" lon="11.5345283"><ele>106.0</ele><time>2026-05-01T09:19:33.441Z</time></trkpt><trkpt lat="44.3975633" lon="11.5345283"><ele>106.0</ele><time>2026-05-01T09:19:34.441Z</time></trkpt><trkpt lat="44.3976483" lon="11.534525"><ele>106.00000000000001</ele><time>2026-05-01T09:19:35.441Z</time></trkpt><trkpt lat="44.397735" lon="11.5345283"><ele>106.0</ele><time>2026-05-01T09:19:36.441Z</time></trkpt><trkpt lat="44.39782" lon="11.5345333"><ele>106.00000000000001</ele><time>2026-05-01T09:19:37.442Z</time></trkpt><trkpt lat="44.397905" lon="11.5345333"><ele>106.0</ele><time>2026-05-01T09:19:38.442Z</time></trkpt><trkpt lat="44.3979917" lon="11.5345417"><ele>106.0</ele><time>2026-05-01T09:19:39.442Z</time></trkpt><trkpt lat="44.3980833" lon="11.534545"><ele>106.0</ele><time>2026-05-01T09:19:40.442Z</time></trkpt><trkpt lat="44.3981717" lon="11.5345467"><ele>106.00000000000001</ele><time>2026-05-01T09:19:41.44Z</time></trkpt><trkpt lat="44.3982633" lon="11.53455"><ele>106.0</ele><time>2026-05-01T09:19:42.442Z</time></trkpt><trkpt lat="44.3983517" lon="11.534555"><ele>107.16666666666667</ele><time>2026-05-01T09:19:43.442Z</time></trkpt><trkpt lat="44.39843" lon="11.53456"><ele>108.33333333333334</ele><time>2026-05-01T09:19:44.439Z</time></trkpt><trkpt lat="44.398515" lon="11.53456"><ele>109.5</ele><time>2026-05-01T09:19:45.443Z</time></trkpt><trkpt lat="44.3985983" lon="11.5345567"><ele>110.66666666666666</ele><time>2026-05-01T09:19:46.441Z</time></trkpt><trkpt lat="44.3986733" lon="11.5345533"><ele>111.83333333333333</ele><time>2026-05-01T09:19:47.443Z</time></trkpt><trkpt lat="44.3987467" lon="11.5345517"><ele>113.0</ele><time>2026-05-01T09:19:48.441Z</time></trkpt><trkpt lat="44.398825" lon="11.53455"><ele>110.99999999999999</ele><time>2026-05-01T09:19:49.442Z</time></trkpt><trkpt lat="44.3989033" lon="11.5345483"><ele>109.0</ele><time>2026-05-01T09:19:50.443Z</time></trkpt><trkpt lat="44.398985" lon="11.53455"><ele>107.0</ele><time>2026-05-01T09:19:51.442Z</time></trkpt><trkpt lat="44.3990667" lon="11.5345617"><ele>105.0</ele><time>2026-05-01T09:19:52.442Z</time></trkpt><trkpt lat="44.3991467" lon="11.534575"><ele>102.99999999999999</ele><time>2026-05-01T09:19:53.443Z</time></trkpt><trkpt lat="44.3992267" lon="11.5345967"><ele>101.0</ele><time>2026-05-01T09:19:54.529Z</time></trkpt><trkpt lat="44.3993067" lon="11.5346283"><ele>99.83333333333333</ele><time>2026-05-01T09:19:55.44Z</time></trkpt><trkpt lat="44.3993817" lon="11.53467"><ele>98.66666666666666</ele><time>2026-05-01T09:19:56.439Z</time></trkpt><trkpt lat="44.399455" lon="11.5347133"><ele>97.5</ele><time>2026-05-01T09:19:57.439Z</time></trkpt><trkpt lat="44.399525" lon="11.53476"><ele>96.33333333333333</ele><time>2026-05-01T09:19:58.441Z</time></trkpt><trkpt lat="44.399595" lon="11.5348067"><ele>95.16666666666666</ele><time>2026-05-01T09:19:59.44Z</time></trkpt><trkpt lat="44.39966" lon="11.5348567"><ele>94.0</ele><time>2026-05-01T09:20:00.44Z</time></trkpt><trkpt lat="44.3997267" lon="11.5349067"><ele>94.0</ele><time>2026-05-01T09:20:01.44Z</time></trkpt><trkpt lat="44.3997933" lon="11.5349533"><ele>94.0</ele><time>2026-05-01T09:20:02.44Z</time></trkpt><trkpt lat="44.3998583" lon="11.5349967"><ele>94.0</ele><time>2026-05-01T09:20:03.44Z</time></trkpt><trkpt lat="44.3999183" lon="11.53504"><ele>94.0</ele><time>2026-05-01T09:20:04.44Z</time></trkpt><trkpt lat="44.3999817" lon="11.5350833"><ele>94.0</ele><time>2026-05-01T09:20:05.44Z</time></trkpt><trkpt lat="44.400045" lon="11.5351267"><ele>94.0</ele><time>2026-05-01T09:20:06.441Z</time></trkpt><trkpt lat="44.40011" lon="11.53517"><ele>94.0</ele><time>2026-05-01T09:20:07.44Z</time></trkpt><trkpt lat="44.400175" lon="11.535215"><ele>94.0</ele><time>2026-05-01T09:20:08.44Z</time></trkpt><trkpt lat="44.4002333" lon="11.53526"><ele>94.0</ele><time>2026-05-01T09:20:09.441Z</time></trkpt><trkpt lat="44.4002933" lon="11.535305"><ele>94.0</ele><time>2026-05-01T09:20:10.44Z</time></trkpt><trkpt lat="44.4003533" lon="11.5353467"><ele>94.0</ele><time>2026-05-01T09:20:11.44Z</time></trkpt><trkpt lat="44.4004133" lon="11.5353867"><ele>94.0</ele><time>2026-05-01T09:20:12.44Z</time></trkpt><trkpt lat="44.4005267" lon="11.53546"><ele>94.0</ele><time>2026-05-01T09:20:14.44Z</time></trkpt><trkpt lat="44.4006433" lon="11.5355333"><ele>93.80000000000001</ele><time>2026-05-01T09:20:16.442Z</time></trkpt><trkpt lat="44.4007017" lon="11.53557"><ele>93.60000000000001</ele><time>2026-05-01T09:20:17.442Z</time></trkpt><trkpt lat="44.400795" lon="11.5356517"><ele>93.4</ele><time>2026-05-01T09:20:19.443Z</time></trkpt><trkpt lat="44.4008567" lon="11.5357667"><ele>93.2</ele><time>2026-05-01T09:20:21.442Z</time></trkpt><trkpt lat="44.400925" lon="11.5358983"><ele>93.0</ele><time>2026-05-01T09:20:23.441Z</time></trkpt><trkpt lat="44.4009783" lon="11.53605"><ele>93.0</ele><time>2026-05-01T09:20:25.44Z</time></trkpt><trkpt lat="44.4010183" lon="11.5362083"><ele>93.0</ele><time>2026-05-01T09:20:27.44Z</time></trkpt><trkpt lat="44.401035" lon="11.536365"><ele>93.0</ele><time>2026-05-01T09:20:29.44Z</time></trkpt><trkpt lat="44.4010683" lon="11.5365217"><ele>93.0</ele><time>2026-05-01T09:20:31.441Z</time></trkpt><trkpt lat="44.4011267" lon="11.536665"><ele>92.66666666666667</ele><time>2026-05-01T09:20:33.441Z</time></trkpt><trkpt lat="44.40117" lon="11.5367317"><ele>92.33333333333333</ele><time>2026-05-01T09:20:34.441Z</time></trkpt><trkpt lat="44.4012583" lon="11.5368567"><ele>92.0</ele><time>2026-05-01T09:20:36.44Z</time></trkpt><trkpt lat="44.4013067" lon="11.5369167"><ele>91.66666666666666</ele><time>2026-05-01T09:20:37.441Z</time></trkpt><trkpt lat="44.4013983" lon="11.5370267"><ele>91.33333333333333</ele><time>2026-05-01T09:20:39.44Z</time></trkpt><trkpt lat="44.4014467" lon="11.5370833"><ele>91.0</ele><time>2026-05-01T09:20:40.441Z</time></trkpt><trkpt lat="44.4014983" lon="11.53714"><ele>90.71428571428571</ele><time>2026-05-01T09:20:41.441Z</time></trkpt><trkpt lat="44.401545" lon="11.5372"><ele>90.42857142857143</ele><time>2026-05-01T09:20:42.44Z</time></trkpt><trkpt lat="44.4015917" lon="11.5372617"><ele>90.14285714285714</ele><time>2026-05-01T09:20:43.441Z</time></trkpt><trkpt lat="44.4016367" lon="11.537325"><ele>89.85714285714286</ele><time>2026-05-01T09:20:44.441Z</time></trkpt><trkpt lat="44.4016817" lon="11.5373867"><ele>89.57142857142857</ele><time>2026-05-01T09:20:45.44Z</time></trkpt><trkpt lat="44.4017283" lon="11.5374483"><ele>89.28571428571428</ele><time>2026-05-01T09:20:46.442Z</time></trkpt><trkpt lat="44.4018233" lon="11.537565"><ele>89.0</ele><time>2026-05-01T09:20:48.441Z</time></trkpt><trkpt lat="44.401925" lon="11.5376717"><ele>89.0</ele><time>2026-05-01T09:20:50.442Z</time></trkpt><trkpt lat="44.40198" lon="11.537725"><ele>89.0</ele><time>2026-05-01T09:20:51.441Z</time></trkpt><trkpt lat="44.4020717" lon="11.537835"><ele>89.0</ele><time>2026-05-01T09:20:53.443Z</time></trkpt><trkpt lat="44.4021217" lon="11.5378917"><ele>89.0</ele><time>2026-05-01T09:20:54.442Z</time></trkpt><trkpt lat="44.4021717" lon="11.5379483"><ele>89.0</ele><time>2026-05-01T09:20:55.44Z</time></trkpt><trkpt lat="44.4022183" lon="11.5380083"><ele>89.0</ele><time>2026-05-01T09:20:56.44Z</time></trkpt><trkpt lat="44.4022983" lon="11.538135"><ele>88.5</ele><time>2026-05-01T09:20:58.441Z</time></trkpt><trkpt lat="44.4023583" lon="11.5382683"><ele>88.0</ele><time>2026-05-01T09:21:00.439Z</time></trkpt><trkpt lat="44.40242" lon="11.5384017"><ele>87.5</ele><time>2026-05-01T09:21:02.44Z</time></trkpt><trkpt lat="44.402465" lon="11.538545"><ele>87.0</ele><time>2026-05-01T09:21:04.44Z</time></trkpt><trkpt lat="44.4025067" lon="11.5386983"><ele>86.8</ele><time>2026-05-01T09:21:06.44Z</time></trkpt><trkpt lat="44.4025417" lon="11.5388633"><ele>86.6</ele><time>2026-05-01T09:21:08.439Z</time></trkpt><trkpt lat="44.402575" lon="11.5390317"><ele>86.39999999999999</ele><time>2026-05-01T09:21:10.441Z</time></trkpt><trkpt lat="44.40259" lon="11.5391183"><ele>86.19999999999999</ele><time>2026-05-01T09:21:11.44Z</time></trkpt><trkpt lat="44.4026217" lon="11.5392817"><ele>86.0</ele><time>2026-05-01T09:21:13.441Z</time></trkpt><trkpt lat="44.40264" lon="11.5394467"><ele>86.0</ele><time>2026-05-01T09:21:15.44Z</time></trkpt><trkpt lat="44.4026617" lon="11.53961"><ele>86.0</ele><time>2026-05-01T09:21:17.443Z</time></trkpt><trkpt lat="44.40269" lon="11.53977"><ele>86.0</ele><time>2026-05-01T09:21:19.442Z</time></trkpt><trkpt lat="44.4027133" lon="11.539935"><ele>86.0</ele><time>2026-05-01T09:21:21.443Z</time></trkpt><trkpt lat="44.4027417" lon="11.5400883"><ele>86.0</ele><time>2026-05-01T09:21:23.442Z</time></trkpt><trkpt lat="44.402785" lon="11.5402383"><ele>86.0</ele><time>2026-05-01T09:21:25.44Z</time></trkpt><trkpt lat="44.40284" lon="11.5403717"><ele>86.0</ele><time>2026-05-01T09:21:27.442Z</time></trkpt><trkpt lat="44.4029133" lon="11.5404917"><ele>86.0</ele><time>2026-05-01T09:21:29.442Z</time></trkpt><trkpt lat="44.402995" lon="11.5405883"><ele>86.0</ele><time>2026-05-01T09:21:31.442Z</time></trkpt><trkpt lat="44.4030817" lon="11.5406717"><ele>85.66666666666667</ele><time>2026-05-01T09:21:33.44Z</time></trkpt><trkpt lat="44.4031617" lon="11.5407383"><ele>85.33333333333334</ele><time>2026-05-01T09:21:35.44Z</time></trkpt><trkpt lat="44.403245" lon="11.5408083"><ele>85.0</ele><time>2026-05-01T09:21:37.441Z</time></trkpt><trkpt lat="44.4033183" lon="11.5408533"><ele>84.66666666666667</ele><time>2026-05-01T09:21:39.441Z</time></trkpt><trkpt lat="44.4033817" lon="11.5409067"><ele>84.33333333333333</ele><time>2026-05-01T09:21:41.44Z</time></trkpt><trkpt lat="44.4034217" lon="11.5410083"><ele>84.0</ele><time>2026-05-01T09:21:44.444Z</time></trkpt><trkpt lat="44.4034067" lon="11.541135"><ele>84.85714285714286</ele><time>2026-05-01T09:21:47.443Z</time></trkpt><trkpt lat="44.40339" lon="11.5412233"><ele>85.71428571428572</ele><time>2026-05-01T09:21:49.44Z</time></trkpt><trkpt lat="44.4033667" lon="11.54131"><ele>86.57142857142857</ele><time>2026-05-01T09:21:52.44Z</time></trkpt><trkpt lat="44.4033467" lon="11.5414217"><ele>87.42857142857143</ele><time>2026-05-01T09:21:56.441Z</time></trkpt><trkpt lat="44.4033133" lon="11.5415183"><ele>88.28571428571429</ele><time>2026-05-01T09:21:59.44Z</time></trkpt><trkpt lat="44.40325" lon="11.54156"><ele>89.14285714285714</ele><time>2026-05-01T09:22:03.44Z</time></trkpt><trkpt lat="44.4031867" lon="11.5415967"><ele>90.0</ele><time>2026-05-01T09:22:07.44Z</time></trkpt><trkpt lat="44.4031183" lon="11.5415867"><ele>90.0</ele><time>2026-05-01T09:22:12.44Z</time></trkpt><trkpt lat="44.4030517" lon="11.54159"><ele>90.0</ele><time>2026-05-01T09:22:16.442Z</time></trkpt><trkpt lat="44.4029817" lon="11.5415867"><ele>90.0</ele><time>2026-05-01T09:22:20.441Z</time></trkpt><trkpt lat="44.4029117" lon="11.54158"><ele>90.0</ele><time>2026-05-01T09:22:24.44Z</time></trkpt><trkpt lat="44.4028483" lon="11.5415617"><ele>90.0</ele><time>2026-05-01T09:22:28.441Z</time></trkpt><trkpt lat="44.40278" lon="11.5415583"><ele>90.0</ele><time>2026-05-01T09:22:33.441Z</time></trkpt><trkpt lat="44.4027167" lon="11.5415267"><ele>90.0</ele><time>2026-05-01T09:22:38.44Z</time></trkpt><trkpt lat="44.4026567" lon="11.5414733"><ele>91.57142857142857</ele><time>2026-05-01T09:22:43.441Z</time></trkpt><trkpt lat="44.4025917" lon="11.5414383"><ele>93.14285714285715</ele><time>2026-05-01T09:22:47.442Z</time></trkpt><trkpt lat="44.402535" lon="11.5413783"><ele>94.71428571428572</ele><time>2026-05-01T09:22:51.442Z</time></trkpt><trkpt lat="44.4024817" lon="11.5413167"><ele>96.28571428571428</ele><time>2026-05-01T09:22:56.442Z</time></trkpt><trkpt lat="44.40242" lon="11.54128"><ele>97.85714285714286</ele><time>2026-05-01T09:23:00.441Z</time></trkpt><trkpt lat="44.4023533" lon="11.54125"><ele>99.42857142857143</ele><time>2026-05-01T09:23:05.442Z</time></trkpt><trkpt lat="44.4022867" lon="11.5412667"><ele>101.0</ele><time>2026-05-01T09:23:10.443Z</time></trkpt><trkpt lat="44.40223" lon="11.5413283"><ele>101.0</ele><time>2026-05-01T09:23:15.444Z</time></trkpt><trkpt lat="44.4021883" lon="11.5414167"><ele>101.0</ele><time>2026-05-01T09:23:20.441Z</time></trkpt><trkpt lat="44.4021817" lon="11.5415067"><ele>101.0</ele><time>2026-05-01T09:23:24.442Z</time></trkpt><trkpt lat="44.40222" lon="11.5415917"><ele>101.0</ele><time>2026-05-01T09:23:30.441Z</time></trkpt><trkpt lat="44.402255" lon="11.5416833"><ele>101.0</ele><time>2026-05-01T09:23:35.441Z</time></trkpt><trkpt lat="44.4022417" lon="11.5417867"><ele>101.0</ele><time>2026-05-01T09:23:40.441Z</time></trkpt><trkpt lat="44.402225" lon="11.5418733"><ele>101.0</ele><time>2026-05-01T09:23:44.441Z</time></trkpt><trkpt lat="44.4021967" lon="11.5419683"><ele>102.85714285714286</ele><time>2026-05-01T09:23:49.443Z</time></trkpt><trkpt lat="44.4021533" lon="11.542055"><ele>104.71428571428571</ele><time>2026-05-01T09:23:55.443Z</time></trkpt><trkpt lat="44.40212" lon="11.542135"><ele>106.57142857142857</ele><time>2026-05-01T09:24:01.443Z</time></trkpt><trkpt lat="44.402095" lon="11.54222"><ele>108.42857142857142</ele><time>2026-05-01T09:24:06.441Z</time></trkpt><trkpt lat="44.4020583" lon="11.5422967"><ele>110.28571428571428</ele><time>2026-05-01T09:24:10.442Z</time></trkpt><trkpt lat="44.4020183" lon="11.5423683"><ele>112.14285714285714</ele><time>2026-05-01T09:24:15.442Z</time></trkpt><trkpt lat="44.4019667" lon="11.5424317"><ele>114.0</ele><time>2026-05-01T09:24:19.443Z</time></trkpt><trkpt lat="44.4019167" lon="11.5424917"><ele>114.0</ele><time>2026-05-01T09:24:24.443Z</time></trkpt><trkpt lat="44.40186" lon="11.54253"><ele>113.99999999999999</ele><time>2026-05-01T09:24:30.441Z</time></trkpt><trkpt lat="44.4017917" lon="11.5425467"><ele>114.0</ele><time>2026-05-01T09:24:35.442Z</time></trkpt><trkpt lat="44.4017267" lon="11.54253"><ele>114.0</ele><time>2026-05-01T09:24:40.442Z</time></trkpt><trkpt lat="44.401675" lon="11.5424567"><ele>113.99999999999999</ele><time>2026-05-01T09:24:46.444Z</time></trkpt><trkpt lat="44.4016167" lon="11.542415"><ele>114.0</ele><time>2026-05-01T09:24:50.441Z</time></trkpt><trkpt lat="44.40156" lon="11.5423567"><ele>114.0</ele><time>2026-05-01T09:24:55.442Z</time></trkpt><trkpt lat="44.40152" lon="11.5422833"><ele>114.0</ele><time>2026-05-01T09:25:00.441Z</time></trkpt><trkpt lat="44.4014683" lon="11.54223"><ele>113.99999999999999</ele><time>2026-05-01T09:25:04.442Z</time></trkpt><trkpt lat="44.4014333" lon="11.5421567"><ele>114.0</ele><time>2026-05-01T09:25:08.441Z</time></trkpt><trkpt lat="44.4013883" lon="11.5420817"><ele>114.0</ele><time>2026-05-01T09:25:13.443Z</time></trkpt><trkpt lat="44.401355" lon="11.5419983"><ele>113.99999999999999</ele><time>2026-05-01T09:25:18.441Z</time></trkpt><trkpt lat="44.4013167" lon="11.5419233"><ele>114.0</ele><time>2026-05-01T09:25:22.442Z</time></trkpt><trkpt lat="44.4012717" lon="11.5418383"><ele>114.0</ele><time>2026-05-01T09:25:28.442Z</time></trkpt><trkpt lat="44.4012183" lon="11.5417817"><ele>115.71428571428571</ele><time>2026-05-01T09:25:32.442Z</time></trkpt><trkpt lat="44.4011533" lon="11.5417217"><ele>117.42857142857142</ele><time>2026-05-01T09:25:37.442Z</time></trkpt><trkpt lat="44.4011067" lon="11.5416517"><ele>119.14285714285714</ele><time>2026-05-01T09:25:43.442Z</time></trkpt><trkpt lat="44.4010417" lon="11.5416283"><ele>120.85714285714286</ele><time>2026-05-01T09:25:48.443Z</time></trkpt><trkpt lat="44.4009767" lon="11.541605"><ele>122.57142857142857</ele><time>2026-05-01T09:25:53.444Z</time></trkpt><trkpt lat="44.400915" lon="11.5415833"><ele>124.28571428571428</ele><time>2026-05-01T09:25:57.441Z</time></trkpt><trkpt lat="44.4008517" lon="11.541575"><ele>126.0</ele><time>2026-05-01T09:26:00.443Z</time></trkpt><trkpt lat="44.4007783" lon="11.5415517"><ele>126.0</ele><time>2026-05-01T09:26:04.442Z</time></trkpt><trkpt lat="44.400715" lon="11.5415417"><ele>126.0</ele><time>2026-05-01T09:26:07.442Z</time></trkpt><trkpt lat="44.400645" lon="11.541535"><ele>126.0</ele><time>2026-05-01T09:26:11.442Z</time></trkpt><trkpt lat="44.4005717" lon="11.5415433"><ele>126.0</ele><time>2026-05-01T09:26:15.443Z</time></trkpt><trkpt lat="44.4005017" lon="11.5415417"><ele>126.0</ele><time>2026-05-01T09:26:19.444Z</time></trkpt><trkpt lat="44.4004267" lon="11.5415533"><ele>126.0</ele><time>2026-05-01T09:26:24.444Z</time></trkpt><trkpt lat="44.4003533" lon="11.541565"><ele>126.0</ele><time>2026-05-01T09:26:28.442Z</time></trkpt><trkpt lat="44.40028" lon="11.541575"><ele>127.16666666666667</ele><time>2026-05-01T09:26:32.442Z</time></trkpt><trkpt lat="44.4002067" lon="11.5416"><ele>128.33333333333334</ele><time>2026-05-01T09:26:36.443Z</time></trkpt><trkpt lat="44.4001433" lon="11.541625"><ele>129.5</ele><time>2026-05-01T09:26:39.442Z</time></trkpt><trkpt lat="44.40008" lon="11.5416433"><ele>130.66666666666669</ele><time>2026-05-01T09:26:42.441Z</time></trkpt><trkpt lat="44.3999983" lon="11.5416683"><ele>131.83333333333334</ele><time>2026-05-01T09:26:46.443Z</time></trkpt><trkpt lat="44.39992" lon="11.541695"><ele>133.0</ele><time>2026-05-01T09:26:50.444Z</time></trkpt><trkpt lat="44.39984" lon="11.54173"><ele>133.0</ele><time>2026-05-01T09:26:54.443Z</time></trkpt><trkpt lat="44.3997767" lon="11.5417633"><ele>133.0</ele><time>2026-05-01T09:26:57.441Z</time></trkpt><trkpt lat="44.399715" lon="11.5417917"><ele>133.0</ele><time>2026-05-01T09:27:00.442Z</time></trkpt><trkpt lat="44.3996517" lon="11.54182"><ele>133.0</ele><time>2026-05-01T09:27:03.441Z</time></trkpt><trkpt lat="44.3995883" lon="11.5418567"><ele>133.0</ele><time>2026-05-01T09:27:06.442Z</time></trkpt><trkpt lat="44.3995267" lon="11.541875"><ele>133.0</ele><time>2026-05-01T09:27:09.442Z</time></trkpt><trkpt lat="44.3994567" lon="11.5419083"><ele>133.0</ele><time>2026-05-01T09:27:12.442Z</time></trkpt><trkpt lat="44.3993917" lon="11.54195"><ele>133.28571428571428</ele><time>2026-05-01T09:27:15.442Z</time></trkpt><trkpt lat="44.3993317" lon="11.5419783"><ele>133.57142857142856</ele><time>2026-05-01T09:27:18.444Z</time></trkpt><trkpt lat="44.3992533" lon="11.5420167"><ele>133.85714285714286</ele><time>2026-05-01T09:27:22.442Z</time></trkpt><trkpt lat="44.3991817" lon="11.5420317"><ele>134.14285714285714</ele><time>2026-05-01T09:27:26.441Z</time></trkpt><trkpt lat="44.3991083" lon="11.54204"><ele>134.42857142857142</ele><time>2026-05-01T09:27:29.44Z</time></trkpt><trkpt lat="44.3990467" lon="11.5420733"><ele>134.71428571428572</ele><time>2026-05-01T09:27:32.441Z</time></trkpt><trkpt lat="44.3989767" lon="11.542105"><ele>135.0</ele><time>2026-05-01T09:27:35.44Z</time></trkpt><trkpt lat="44.3988983" lon="11.5421367"><ele>136.42857142857142</ele><time>2026-05-01T09:27:38.441Z</time></trkpt><trkpt lat="44.39883" lon="11.5421567"><ele>137.85714285714283</ele><time>2026-05-01T09:27:41.44Z</time></trkpt><trkpt lat="44.3987633" lon="11.542175"><ele>139.28571428571428</ele><time>2026-05-01T09:27:44.44Z</time></trkpt><trkpt lat="44.3986933" lon="11.5422"><ele>140.71428571428572</ele><time>2026-05-01T09:27:47.443Z</time></trkpt><trkpt lat="44.3986133" lon="11.5422183"><ele>142.14285714285717</ele><time>2026-05-01T09:27:50.441Z</time></trkpt><trkpt lat="44.3985433" lon="11.54223"><ele>143.57142857142858</ele><time>2026-05-01T09:27:53.44Z</time></trkpt><trkpt lat="44.398465" lon="11.5422417"><ele>145.0</ele><time>2026-05-01T09:27:56.44Z</time></trkpt><trkpt lat="44.3983933" lon="11.5422683"><ele>145.0</ele><time>2026-05-01T09:27:59.442Z</time></trkpt><trkpt lat="44.398325" lon="11.542285"><ele>145.0</ele><time>2026-05-01T09:28:02.442Z</time></trkpt><trkpt lat="44.39824" lon="11.5422967"><ele>145.0</ele><time>2026-05-01T09:28:05.442Z</time></trkpt><trkpt lat="44.398165" lon="11.5423183"><ele>145.0</ele><time>2026-05-01T09:28:08.443Z</time></trkpt><trkpt lat="44.3980867" lon="11.54234"><ele>145.0</ele><time>2026-05-01T09:28:11.442Z</time></trkpt><trkpt lat="44.3980183" lon="11.5423617"><ele>145.0</ele><time>2026-05-01T09:28:14.443Z</time></trkpt><trkpt lat="44.3979583" lon="11.5424083"><ele>145.33333333333334</ele><time>2026-05-01T09:28:17.443Z</time></trkpt><trkpt lat="44.397895" lon="11.5424567"><ele>145.66666666666669</ele><time>2026-05-01T09:28:20.441Z</time></trkpt><trkpt lat="44.397825" lon="11.5425"><ele>146.0</ele><time>2026-05-01T09:28:23.441Z</time></trkpt><trkpt lat="44.39776" lon="11.5425517"><ele>146.33333333333334</ele><time>2026-05-01T09:28:26.442Z</time></trkpt><trkpt lat="44.397685" lon="11.5425867"><ele>146.66666666666666</ele><time>2026-05-01T09:28:29.442Z</time></trkpt><trkpt lat="44.397615" lon="11.54263"><ele>147.0</ele><time>2026-05-01T09:28:32.443Z</time></trkpt><trkpt lat="44.397545" lon="11.54267"><ele>147.0</ele><time>2026-05-01T09:28:35.442Z</time></trkpt><trkpt lat="44.397475" lon="11.54271"><ele>147.0</ele><time>2026-05-01T09:28:38.442Z</time></trkpt><trkpt lat="44.3974017" lon="11.5427417"><ele>147.0</ele><time>2026-05-01T09:28:41.441Z</time></trkpt><trkpt lat="44.3973333" lon="11.5427767"><ele>147.0</ele><time>2026-05-01T09:28:44.442Z</time></trkpt><trkpt lat="44.3972683" lon="11.5428233"><ele>147.0</ele><time>2026-05-01T09:28:47.444Z</time></trkpt><trkpt lat="44.397195" lon="11.5428667"><ele>147.0</ele><time>2026-05-01T09:28:51.442Z</time></trkpt><trkpt lat="44.39712" lon="11.5428867"><ele>148.33333333333334</ele><time>2026-05-01T09:28:54.443Z</time></trkpt><trkpt lat="44.3970483" lon="11.5428917"><ele>149.66666666666666</ele><time>2026-05-01T09:28:57.443Z</time></trkpt><trkpt lat="44.39698" lon="11.5429133"><ele>151.0</ele><time>2026-05-01T09:29:00.442Z</time></trkpt><trkpt lat="44.396895" lon="11.5429017"><ele>152.33333333333331</ele><time>2026-05-01T09:29:03.441Z</time></trkpt><trkpt lat="44.3968117" lon="11.5428833"><ele>153.66666666666666</ele><time>2026-05-01T09:29:06.441Z</time></trkpt><trkpt lat="44.39673" lon="11.5428883"><ele>155.0</ele><time>2026-05-01T09:29:09.44Z</time></trkpt><trkpt lat="44.3966583" lon="11.54289"><ele>155.0</ele><time>2026-05-01T09:29:12.44Z</time></trkpt><trkpt lat="44.39658" lon="11.5428967"><ele>155.0</ele><time>2026-05-01T09:29:15.44Z</time></trkpt><trkpt lat="44.3965167" lon="11.542905"><ele>155.0</ele><time>2026-05-01T09:29:18.442Z</time></trkpt><trkpt lat="44.3964483" lon="11.542905"><ele>155.0</ele><time>2026-05-01T09:29:21.441Z</time></trkpt><trkpt lat="44.396375" lon="11.5429"><ele>155.0</ele><time>2026-05-01T09:29:25.442Z</time></trkpt><trkpt lat="44.3963033" lon="11.5428867"><ele>155.0</ele><time>2026-05-01T09:29:28.442Z</time></trkpt><trkpt lat="44.3962383" lon="11.5428817"><ele>155.0</ele><time>2026-05-01T09:29:31.443Z</time></trkpt><trkpt lat="44.3961633" lon="11.54288"><ele>155.42857142857144</ele><time>2026-05-01T09:29:34.442Z</time></trkpt><trkpt lat="44.3960933" lon="11.5428767"><ele>155.85714285714286</ele><time>2026-05-01T09:29:37.442Z</time></trkpt><trkpt lat="44.3960083" lon="11.542865"><ele>156.28571428571428</ele><time>2026-05-01T09:29:41.441Z</time></trkpt><trkpt lat="44.395935" lon="11.542865"><ele>156.71428571428572</ele><time>2026-05-01T09:29:44.444Z</time></trkpt><trkpt lat="44.3958683" lon="11.5428683"><ele>157.14285714285714</ele><time>2026-05-01T09:29:47.444Z</time></trkpt><trkpt lat="44.3958033" lon="11.5428633"><ele>157.57142857142858</ele><time>2026-05-01T09:29:50.442Z</time></trkpt><trkpt lat="44.395725" lon="11.5428567"><ele>158.0</ele><time>2026-05-01T09:29:54.443Z</time></trkpt><trkpt lat="44.39566" lon="11.5428583"><ele>158.00000000000003</ele><time>2026-05-01T09:29:57.442Z</time></trkpt><trkpt lat="44.395585" lon="11.5428517"><ele>158.0</ele><time>2026-05-01T09:30:01.442Z</time></trkpt><trkpt lat="44.3955067" lon="11.54284"><ele>158.0</ele><time>2026-05-01T09:30:05.442Z</time></trkpt><trkpt lat="44.3954267" lon="11.5428317"><ele>158.0</ele><time>2026-05-01T09:30:09.442Z</time></trkpt><trkpt lat="44.39536" lon="11.5428267"><ele>158.0</ele><time>2026-05-01T09:30:13.442Z</time></trkpt><trkpt lat="44.39528" lon="11.54281"><ele>158.00000000000003</ele><time>2026-05-01T09:30:17.443Z</time></trkpt><trkpt lat="44.3952167" lon="11.542805"><ele>158.0</ele><time>2026-05-01T09:30:21.444Z</time></trkpt><trkpt lat="44.395155" lon="11.5427717"><ele>158.85714285714286</ele><time>2026-05-01T09:30:24.444Z</time></trkpt><trkpt lat="44.39509" lon="11.5427367"><ele>159.71428571428572</ele><time>2026-05-01T09:30:29.443Z</time></trkpt><trkpt lat="44.3950183" lon="11.54272"><ele>160.57142857142856</ele><time>2026-05-01T09:30:34.442Z</time></trkpt><trkpt lat="44.3949583" lon="11.5426917"><ele>161.42857142857144</ele><time>2026-05-01T09:30:38.443Z</time></trkpt><trkpt lat="44.3948867" lon="11.542665"><ele>162.28571428571428</ele><time>2026-05-01T09:30:42.441Z</time></trkpt><trkpt lat="44.3948133" lon="11.542635"><ele>163.14285714285714</ele><time>2026-05-01T09:30:46.443Z</time></trkpt><trkpt lat="44.3947333" lon="11.542615"><ele>164.0</ele><time>2026-05-01T09:30:50.445Z</time></trkpt><trkpt lat="44.3946567" lon="11.5425933"><ele>165.28571428571428</ele><time>2026-05-01T09:30:54.443Z</time></trkpt><trkpt lat="44.3945917" lon="11.5425617"><ele>166.57142857142856</ele><time>2026-05-01T09:30:58.443Z</time></trkpt><trkpt lat="44.3945233" lon="11.5425333"><ele>167.85714285714283</ele><time>2026-05-01T09:31:02.442Z</time></trkpt><trkpt lat="44.3944617" lon="11.5425017"><ele>169.14285714285714</ele><time>2026-05-01T09:31:06.443Z</time></trkpt><trkpt lat="44.394395" lon="11.542485"><ele>170.42857142857144</ele><time>2026-05-01T09:31:10.443Z</time></trkpt><trkpt lat="44.3943333" lon="11.5424533"><ele>171.7142857142857</ele><time>2026-05-01T09:31:14.443Z</time></trkpt><trkpt lat="44.3942633" lon="11.5424333"><ele>173.0</ele><time>2026-05-01T09:31:18.442Z</time></trkpt><trkpt lat="44.394195" lon="11.5424183"><ele>173.0</ele><time>2026-05-01T09:31:22.442Z</time></trkpt><trkpt lat="44.3941267" lon="11.5423883"><ele>173.0</ele><time>2026-05-01T09:31:26.441Z</time></trkpt><trkpt lat="44.39405" lon="11.5423767"><ele>173.0</ele><time>2026-05-01T09:31:30.442Z</time></trkpt><trkpt lat="44.393985" lon="11.5423483"><ele>173.0</ele><time>2026-05-01T09:31:34.441Z</time></trkpt><trkpt lat="44.393925" lon="11.5423167"><ele>173.0</ele><time>2026-05-01T09:31:37.441Z</time></trkpt><trkpt lat="44.3938483" lon="11.5422933"><ele>173.0</ele><time>2026-05-01T09:31:41.441Z</time></trkpt><trkpt lat="44.393775" lon="11.5422733"><ele>173.0</ele><time>2026-05-01T09:31:45.44Z</time></trkpt><trkpt lat="44.3937083" lon="11.5422417"><ele>173.57142857142856</ele><time>2026-05-01T09:31:49.443Z</time></trkpt><trkpt lat="44.3936433" lon="11.5422233"><ele>174.14285714285717</ele><time>2026-05-01T09:31:53.443Z</time></trkpt><trkpt lat="44.3935783" lon="11.54219"><ele>174.71428571428572</ele><time>2026-05-01T09:31:57.441Z</time></trkpt><trkpt lat="44.3935117" lon="11.5421583"><ele>175.28571428571428</ele><time>2026-05-01T09:32:01.441Z</time></trkpt><trkpt lat="44.3934383" lon="11.542135"><ele>175.85714285714283</ele><time>2026-05-01T09:32:05.442Z</time></trkpt><trkpt lat="44.393365" lon="11.5421183"><ele>176.42857142857144</ele><time>2026-05-01T09:32:09.439Z</time></trkpt><trkpt lat="44.3932917" lon="11.542105"><ele>177.0</ele><time>2026-05-01T09:32:12.442Z</time></trkpt><trkpt lat="44.3932267" lon="11.5420933"><ele>177.0</ele><time>2026-05-01T09:32:15.442Z</time></trkpt><trkpt lat="44.3931517" lon="11.5421183"><ele>177.0</ele><time>2026-05-01T09:32:18.443Z</time></trkpt><trkpt lat="44.3930833" lon="11.5421383"><ele>177.0</ele><time>2026-05-01T09:32:21.442Z</time></trkpt><trkpt lat="44.3930017" lon="11.5421733"><ele>177.0</ele><time>2026-05-01T09:32:24.442Z</time></trkpt><trkpt lat="44.3929383" lon="11.5421917"><ele>177.0</ele><time>2026-05-01T09:32:26.442Z</time></trkpt><trkpt lat="44.3928533" lon="11.5422117"><ele>177.0</ele><time>2026-05-01T09:32:29.442Z</time></trkpt><trkpt lat="44.3927667" lon="11.5422467"><ele>178.0</ele><time>2026-05-01T09:32:32.442Z</time></trkpt><trkpt lat="44.3927033" lon="11.542265"><ele>179.0</ele><time>2026-05-01T09:32:34.441Z</time></trkpt><trkpt lat="44.39264" lon="11.5422833"><ele>180.0</ele><time>2026-05-01T09:32:36.442Z</time></trkpt><trkpt lat="44.3925833" lon="11.5423217"><ele>181.0</ele><time>2026-05-01T09:32:38.442Z</time></trkpt><trkpt lat="44.3925" lon="11.542345"><ele>182.0</ele><time>2026-05-01T09:32:41.441Z</time></trkpt><trkpt lat="44.392415" lon="11.5423817"><ele>183.0</ele><time>2026-05-01T09:32:44.442Z</time></trkpt><trkpt lat="44.39233" lon="11.5424283"><ele>183.0</ele><time>2026-05-01T09:32:47.442Z</time></trkpt><trkpt lat="44.392265" lon="11.5424783"><ele>183.0</ele><time>2026-05-01T09:32:50.441Z</time></trkpt><trkpt lat="44.3922117" lon="11.5425367"><ele>183.0</ele><time>2026-05-01T09:32:53.442Z</time></trkpt><trkpt lat="44.3921433" lon="11.54255"><ele>183.0</ele><time>2026-05-01T09:32:57.44Z</time></trkpt><trkpt lat="44.39206" lon="11.54252"><ele>183.0</ele><time>2026-05-01T09:33:01.439Z</time></trkpt><trkpt lat="44.391985" lon="11.5425"><ele>183.0</ele><time>2026-05-01T09:33:04.44Z</time></trkpt><trkpt lat="44.3919133" lon="11.5424817"><ele>183.0</ele><time>2026-05-01T09:33:07.44Z</time></trkpt><trkpt lat="44.391825" lon="11.542465"><ele>184.0</ele><time>2026-05-01T09:33:10.439Z</time></trkpt><trkpt lat="44.3917633" lon="11.542445"><ele>185.0</ele><time>2026-05-01T09:33:12.439Z</time></trkpt><trkpt lat="44.3916783" lon="11.5424267"><ele>186.0</ele><time>2026-05-01T09:33:15.438Z</time></trkpt><trkpt lat="44.391615" lon="11.5424133"><ele>187.0</ele><time>2026-05-01T09:33:17.442Z</time></trkpt><trkpt lat="44.391545" lon="11.5424"><ele>188.0</ele><time>2026-05-01T09:33:19.439Z</time></trkpt><trkpt lat="44.3914667" lon="11.5424067"><ele>189.0</ele><time>2026-05-01T09:33:22.441Z</time></trkpt><trkpt lat="44.3913767" lon="11.54243"><ele>188.71428571428572</ele><time>2026-05-01T09:33:25.44Z</time></trkpt><trkpt lat="44.3913133" lon="11.54245"><ele>188.42857142857144</ele><time>2026-05-01T09:33:27.441Z</time></trkpt><trkpt lat="44.391255" lon="11.542485"><ele>188.14285714285714</ele><time>2026-05-01T09:33:29.441Z</time></trkpt><trkpt lat="44.3911717" lon="11.54254"><ele>187.85714285714286</ele><time>2026-05-01T09:33:32.439Z</time></trkpt><trkpt lat="44.3911117" lon="11.54259"><ele>187.57142857142858</ele><time>2026-05-01T09:33:34.441Z</time></trkpt><trkpt lat="44.3910567" lon="11.542655"><ele>187.28571428571428</ele><time>2026-05-01T09:33:36.44Z</time></trkpt><trkpt lat="44.39099" lon="11.542715"><ele>187.0</ele><time>2026-05-01T09:33:38.441Z</time></trkpt><trkpt lat="44.3909117" lon="11.5427633"><ele>187.0</ele><time>2026-05-01T09:33:40.44Z</time></trkpt><trkpt lat="44.3908317" lon="11.5427783"><ele>187.0</ele><time>2026-05-01T09:33:42.439Z</time></trkpt><trkpt lat="44.3907567" lon="11.5427767"><ele>187.0</ele><time>2026-05-01T09:33:44.439Z</time></trkpt><trkpt lat="44.3906883" lon="11.5427867"><ele>187.0</ele><time>2026-05-01T09:33:46.443Z</time></trkpt><trkpt lat="44.3906" lon="11.5427617"><ele>187.0</ele><time>2026-05-01T09:33:49.439Z</time></trkpt><trkpt lat="44.3905167" lon="11.5427367"><ele>187.0</ele><time>2026-05-01T09:33:52.44Z</time></trkpt><trkpt lat="44.3904483" lon="11.542705"><ele>187.42857142857142</ele><time>2026-05-01T09:33:55.439Z</time></trkpt><trkpt lat="44.390385" lon="11.5426733"><ele>187.85714285714286</ele><time>2026-05-01T09:33:58.44Z</time></trkpt><trkpt lat="44.39032" lon="11.5426533"><ele>188.28571428571428</ele><time>2026-05-01T09:34:01.44Z</time></trkpt><trkpt lat="44.3902517" lon="11.54263"><ele>188.71428571428572</ele><time>2026-05-01T09:34:04.44Z</time></trkpt><trkpt lat="44.3901817" lon="11.5426117"><ele>189.14285714285717</ele><time>2026-05-01T09:34:07.44Z</time></trkpt><trkpt lat="44.3901183" lon="11.542605"><ele>189.57142857142858</ele><time>2026-05-01T09:34:10.44Z</time></trkpt><trkpt lat="44.390045" lon="11.5426117"><ele>190.0</ele><time>2026-05-01T09:34:13.44Z</time></trkpt><trkpt lat="44.3899683" lon="11.54262"><ele>190.0</ele><time>2026-05-01T09:34:16.443Z</time></trkpt><trkpt lat="44.38989" lon="11.54264"><ele>190.0</ele><time>2026-05-01T09:34:19.44Z</time></trkpt><trkpt lat="44.3898067" lon="11.5426683"><ele>190.0</ele><time>2026-05-01T09:34:22.442Z</time></trkpt><trkpt lat="44.3897183" lon="11.5427"><ele>190.0</ele><time>2026-05-01T09:34:25.442Z</time></trkpt><trkpt lat="44.389635" lon="11.5427183"><ele>190.0</ele><time>2026-05-01T09:34:28.439Z</time></trkpt><trkpt lat="44.389545" lon="11.5427267"><ele>190.0</ele><time>2026-05-01T09:34:31.442Z</time></trkpt><trkpt lat="44.3894583" lon="11.5427433"><ele>190.5</ele><time>2026-05-01T09:34:34.44Z</time></trkpt><trkpt lat="44.3893683" lon="11.5427733"><ele>191.0</ele><time>2026-05-01T09:34:37.44Z</time></trkpt><trkpt lat="44.3892883" lon="11.5428033"><ele>191.5</ele><time>2026-05-01T09:34:40.44Z</time></trkpt><trkpt lat="44.3892067" lon="11.542835"><ele>192.0</ele><time>2026-05-01T09:34:43.442Z</time></trkpt><trkpt lat="44.3891167" lon="11.54283"><ele>192.49999999999997</ele><time>2026-05-01T09:34:46.443Z</time></trkpt><trkpt lat="44.38903" lon="11.542825"><ele>193.0</ele><time>2026-05-01T09:34:49.442Z</time></trkpt><trkpt lat="44.38894" lon="11.5428417"><ele>193.00000000000003</ele><time>2026-05-01T09:34:52.441Z</time></trkpt><trkpt lat="44.3888617" lon="11.5428633"><ele>193.0</ele><time>2026-05-01T09:34:55.443Z</time></trkpt><trkpt lat="44.3887867" lon="11.54288"><ele>193.0</ele><time>2026-05-01T09:34:58.44Z</time></trkpt><trkpt lat="44.3887167" lon="11.5428917"><ele>193.0</ele><time>2026-05-01T09:35:01.442Z</time></trkpt><trkpt lat="44.3886517" lon="11.5429117"><ele>193.0</ele><time>2026-05-01T09:35:04.443Z</time></trkpt><trkpt lat="44.388585" lon="11.542925"><ele>193.00000000000003</ele><time>2026-05-01T09:35:07.443Z</time></trkpt><trkpt lat="44.3885167" lon="11.5429433"><ele>193.0</ele><time>2026-05-01T09:35:10.441Z</time></trkpt><trkpt lat="44.3884517" lon="11.54296"><ele>194.71428571428572</ele><time>2026-05-01T09:35:13.442Z</time></trkpt><trkpt lat="44.3883867" lon="11.5429717"><ele>196.42857142857144</ele><time>2026-05-01T09:35:16.444Z</time></trkpt><trkpt lat="44.3883217" lon="11.5429917"><ele>198.14285714285717</ele><time>2026-05-01T09:35:19.441Z</time></trkpt><trkpt lat="44.3882567" lon="11.5430217"><ele>199.85714285714286</ele><time>2026-05-01T09:35:22.442Z</time></trkpt><trkpt lat="44.3881933" lon="11.54305"><ele>201.57142857142856</ele><time>2026-05-01T09:35:25.442Z</time></trkpt><trkpt lat="44.3881217" lon="11.5430867"><ele>203.2857142857143</ele><time>2026-05-01T09:35:28.442Z</time></trkpt><trkpt lat="44.3880517" lon="11.54312"><ele>205.0</ele><time>2026-05-01T09:35:31.443Z</time></trkpt><trkpt lat="44.38798" lon="11.5431533"><ele>206.33333333333331</ele><time>2026-05-01T09:35:34.442Z</time></trkpt><trkpt lat="44.387905" lon="11.5431767"><ele>207.66666666666666</ele><time>2026-05-01T09:35:37.441Z</time></trkpt><trkpt lat="44.3878217" lon="11.5431867"><ele>209.0</ele><time>2026-05-01T09:35:40.441Z</time></trkpt><trkpt lat="44.3877383" lon="11.543215"><ele>210.33333333333331</ele><time>2026-05-01T09:35:43.442Z</time></trkpt><trkpt lat="44.387655" lon="11.54325"><ele>211.66666666666666</ele><time>2026-05-01T09:35:46.444Z</time></trkpt><trkpt lat="44.3875767" lon="11.5432767"><ele>213.0</ele><time>2026-05-01T09:35:49.442Z</time></trkpt><trkpt lat="44.3875017" lon="11.543295"><ele>213.0</ele><time>2026-05-01T09:35:52.442Z</time></trkpt><trkpt lat="44.3874217" lon="11.54332"><ele>213.0</ele><time>2026-05-01T09:35:55.443Z</time></trkpt><trkpt lat="44.3873417" lon="11.5433433"><ele>213.0</ele><time>2026-05-01T09:35:58.442Z</time></trkpt><trkpt lat="44.3872567" lon="11.5433633"><ele>213.0</ele><time>2026-05-01T09:36:01.442Z</time></trkpt><trkpt lat="44.3871733" lon="11.5433733"><ele>213.0</ele><time>2026-05-01T09:36:04.441Z</time></trkpt><trkpt lat="44.387085" lon="11.543385"><ele>213.0</ele><time>2026-05-01T09:36:07.443Z</time></trkpt><trkpt lat="44.3870217" lon="11.5433867"><ele>213.16666666666666</ele><time>2026-05-01T09:36:09.441Z</time></trkpt><trkpt lat="44.3869567" lon="11.54338"><ele>213.33333333333331</ele><time>2026-05-01T09:36:11.442Z</time></trkpt><trkpt lat="44.3868933" lon="11.5433633"><ele>213.5</ele><time>2026-05-01T09:36:13.442Z</time></trkpt><trkpt lat="44.38683" lon="11.543345"><ele>213.66666666666666</ele><time>2026-05-01T09:36:15.442Z</time></trkpt><trkpt lat="44.3867483" lon="11.5433067"><ele>213.83333333333331</ele><time>2026-05-01T09:36:18.439Z</time></trkpt><trkpt lat="44.3866633" lon="11.5432733"><ele>214.0</ele><time>2026-05-01T09:36:21.439Z</time></trkpt><trkpt lat="44.386575" lon="11.54323"><ele>213.99999999999997</ele><time>2026-05-01T09:36:24.44Z</time></trkpt><trkpt lat="44.3865083" lon="11.5432117"><ele>214.0</ele><time>2026-05-01T09:36:26.442Z</time></trkpt><trkpt lat="44.3864267" lon="11.54316"><ele>214.0</ele><time>2026-05-01T09:36:29.442Z</time></trkpt><trkpt lat="44.3863433" lon="11.54313"><ele>214.0</ele><time>2026-05-01T09:36:32.442Z</time></trkpt><trkpt lat="44.3862567" lon="11.5430983"><ele>213.99999999999997</ele><time>2026-05-01T09:36:35.441Z</time></trkpt><trkpt lat="44.3861683" lon="11.54306"><ele>214.0</ele><time>2026-05-01T09:36:38.442Z</time></trkpt><trkpt lat="44.3860817" lon="11.5430283"><ele>214.66666666666666</ele><time>2026-05-01T09:36:41.442Z</time></trkpt><trkpt lat="44.3859967" lon="11.54299"><ele>215.33333333333331</ele><time>2026-05-01T09:36:44.442Z</time></trkpt><trkpt lat="44.38592" lon="11.5429667"><ele>216.0</ele><time>2026-05-01T09:36:47.443Z</time></trkpt><trkpt lat="44.38585" lon="11.5429567"><ele>216.66666666666669</ele><time>2026-05-01T09:36:50.442Z</time></trkpt><trkpt lat="44.38578" lon="11.54294"><ele>217.33333333333334</ele><time>2026-05-01T09:36:53.442Z</time></trkpt><trkpt lat="44.3857083" lon="11.5429533"><ele>218.0</ele><time>2026-05-01T09:36:56.443Z</time></trkpt><trkpt lat="44.38564" lon="11.5429817"><ele>218.0</ele><time>2026-05-01T09:36:59.441Z</time></trkpt><trkpt lat="44.3855609" lon="11.5429802"><ele>218.0</ele><time>2026-05-01T09:37:03.442Z</time></trkpt><trkpt lat="44.3854927" lon="11.5429686"><ele>218.0</ele><time>2026-05-01T09:37:06.443Z</time></trkpt><trkpt lat="44.3854265" lon="11.5429492"><ele>218.0</ele><time>2026-05-01T09:37:09.442Z</time></trkpt><trkpt lat="44.3853636" lon="11.54293"><ele>218.0</ele><time>2026-05-01T09:37:12.442Z</time></trkpt><trkpt lat="44.3853018" lon="11.542911"><ele>218.0</ele><time>2026-05-01T09:37:15.441Z</time></trkpt><trkpt lat="44.3852216" lon="11.5428647"><ele>218.0</ele><time>2026-05-01T09:37:19.443Z</time></trkpt><trkpt lat="44.3851539" lon="11.5427919"><ele>218.14285714285714</ele><time>2026-05-01T09:37:22.443Z</time></trkpt><trkpt lat="44.3850718" lon="11.5427622"><ele>218.28571428571428</ele><time>2026-05-01T09:37:25.442Z</time></trkpt><trkpt lat="44.3850031" lon="11.5427378"><ele>218.42857142857144</ele><time>2026-05-01T09:37:28.442Z</time></trkpt><trkpt lat="44.3849378" lon="11.5427179"><ele>218.57142857142856</ele><time>2026-05-01T09:37:31.444Z</time></trkpt><trkpt lat="44.3848672" lon="11.5427242"><ele>218.7142857142857</ele><time>2026-05-01T09:37:34.442Z</time></trkpt><trkpt lat="44.3847932" lon="11.5427075"><ele>218.85714285714286</ele><time>2026-05-01T09:37:37.444Z</time></trkpt><trkpt lat="44.3847171" lon="11.5426913"><ele>219.0</ele><time>2026-05-01T09:37:40.443Z</time></trkpt><trkpt lat="44.3846403" lon="11.5426946"><ele>219.85714285714286</ele><time>2026-05-01T09:37:43.442Z</time></trkpt><trkpt lat="44.3845672" lon="11.5426921"><ele>220.71428571428572</ele><time>2026-05-01T09:37:46.444Z</time></trkpt><trkpt lat="44.3844968" lon="11.5426979"><ele>221.57142857142858</ele><time>2026-05-01T09:37:50.443Z</time></trkpt><trkpt lat="44.3844239" lon="11.5426888"><ele>222.42857142857144</ele><time>2026-05-01T09:37:52.444Z</time></trkpt><trkpt lat="44.3843515" lon="11.5426849"><ele>223.28571428571428</ele><time>2026-05-01T09:37:54.444Z</time></trkpt><trkpt lat="44.3842761" lon="11.5426942"><ele>224.14285714285717</ele><time>2026-05-01T09:37:56.442Z</time></trkpt><trkpt lat="44.3842015" lon="11.5426867"><ele>225.00000000000003</ele><time>2026-05-01T09:37:58.442Z</time></trkpt><trkpt lat="44.384129" lon="11.5426787"><ele>225.0</ele><time>2026-05-01T09:38:00.442Z</time></trkpt><trkpt lat="44.3840555" lon="11.5426752"><ele>225.0</ele><time>2026-05-01T09:38:02.442Z</time></trkpt><trkpt lat="44.3839805" lon="11.5426663"><ele>225.0</ele><time>2026-05-01T09:38:04.441Z</time></trkpt><trkpt lat="44.3839071" lon="11.5426572"><ele>225.0</ele><time>2026-05-01T09:38:06.442Z</time></trkpt><trkpt lat="44.3838307" lon="11.5426363"><ele>225.0</ele><time>2026-05-01T09:38:08.442Z</time></trkpt><trkpt lat="44.3837537" lon="11.5425979"><ele>225.0</ele><time>2026-05-01T09:38:10.442Z</time></trkpt><trkpt lat="44.383677" lon="11.5425574"><ele>225.4</ele><time>2026-05-01T09:38:12.443Z</time></trkpt><trkpt lat="44.3836005" lon="11.5425073"><ele>225.8</ele><time>2026-05-01T09:38:14.443Z</time></trkpt><trkpt lat="44.3835175" lon="11.5424487"><ele>226.2</ele><time>2026-05-01T09:38:16.444Z</time></trkpt><trkpt lat="44.383424" lon="11.5423859"><ele>226.6</ele><time>2026-05-01T09:38:18.443Z</time></trkpt><trkpt lat="44.3833306" lon="11.5423188"><ele>227.0</ele><time>2026-05-01T09:38:20.444Z</time></trkpt><trkpt lat="44.3832396" lon="11.5422583"><ele>227.0</ele><time>2026-05-01T09:38:22.444Z</time></trkpt><trkpt lat="44.3831481" lon="11.5422027"><ele>227.0</ele><time>2026-05-01T09:38:24.444Z</time></trkpt><trkpt lat="44.3830537" lon="11.5421419"><ele>227.0</ele><time>2026-05-01T09:38:26.44Z</time></trkpt><trkpt lat="44.3829528" lon="11.5420924"><ele>227.0</ele><time>2026-05-01T09:38:28.441Z</time></trkpt><trkpt lat="44.3828561" lon="11.542096"><ele>227.0</ele><time>2026-05-01T09:38:30.441Z</time></trkpt><trkpt lat="44.3827594" lon="11.542148"><ele>226.57142857142858</ele><time>2026-05-01T09:38:32.444Z</time></trkpt><trkpt lat="44.3826562" lon="11.5422178"><ele>226.14285714285717</ele><time>2026-05-01T09:38:34.441Z</time></trkpt><trkpt lat="44.3825997" lon="11.5422587"><ele>225.71428571428572</ele><time>2026-05-01T09:38:35.442Z</time></trkpt><trkpt lat="44.3825439" lon="11.5423004"><ele>225.28571428571428</ele><time>2026-05-01T09:38:36.442Z</time></trkpt><trkpt lat="44.3824859" lon="11.5423407"><ele>224.85714285714286</ele><time>2026-05-01T09:38:37.442Z</time></trkpt><trkpt lat="44.3824284" lon="11.5423774"><ele>224.42857142857144</ele><time>2026-05-01T09:38:38.442Z</time></trkpt><trkpt lat="44.3823702" lon="11.5424121"><ele>224.0</ele><time>2026-05-01T09:38:39.443Z</time></trkpt><trkpt lat="44.3822554" lon="11.5424761"><ele>224.00000000000003</ele><time>2026-05-01T09:38:41.443Z</time></trkpt><trkpt lat="44.3821947" lon="11.5425092"><ele>224.0</ele><time>2026-05-01T09:38:42.441Z</time></trkpt><trkpt lat="44.3821318" lon="11.5425437"><ele>224.0</ele><time>2026-05-01T09:38:43.444Z</time></trkpt><trkpt lat="44.382071" lon="11.5425776"><ele>224.0</ele><time>2026-05-01T09:38:44.442Z</time></trkpt><trkpt lat="44.3820123" lon="11.5426153"><ele>224.00000000000003</ele><time>2026-05-01T09:38:45.443Z</time></trkpt><trkpt lat="44.3819059" lon="11.5426878"><ele>224.0</ele><time>2026-05-01T09:38:47.443Z</time></trkpt><trkpt lat="44.3818018" lon="11.5427503"><ele>224.6</ele><time>2026-05-01T09:38:49.443Z</time></trkpt><trkpt lat="44.3816985" lon="11.5428129"><ele>225.2</ele><time>2026-05-01T09:38:51.442Z</time></trkpt><trkpt lat="44.3816051" lon="11.5428675"><ele>225.79999999999998</ele><time>2026-05-01T09:38:53.444Z</time></trkpt><trkpt lat="44.3815177" lon="11.5429111"><ele>226.39999999999998</ele><time>2026-05-01T09:38:55.441Z</time></trkpt><trkpt lat="44.3814373" lon="11.5429584"><ele>227.0</ele><time>2026-05-01T09:38:57.442Z</time></trkpt><trkpt lat="44.3813613" lon="11.5430083"><ele>226.71428571428572</ele><time>2026-05-01T09:38:59.442Z</time></trkpt><trkpt lat="44.3812893" lon="11.5430431"><ele>226.42857142857144</ele><time>2026-05-01T09:39:01.443Z</time></trkpt><trkpt lat="44.3812228" lon="11.5430823"><ele>226.14285714285717</ele><time>2026-05-01T09:39:03.442Z</time></trkpt><trkpt lat="44.3811582" lon="11.5431203"><ele>225.8571428571429</ele><time>2026-05-01T09:39:05.441Z</time></trkpt><trkpt lat="44.3810917" lon="11.5431538"><ele>225.57142857142858</ele><time>2026-05-01T09:39:07.442Z</time></trkpt><trkpt lat="44.3810276" lon="11.5431831"><ele>225.28571428571433</ele><time>2026-05-01T09:39:09.442Z</time></trkpt><trkpt lat="44.3809662" lon="11.5432176"><ele>225.00000000000003</ele><time>2026-05-01T09:39:11.442Z</time></trkpt><trkpt lat="44.380909" lon="11.5432546"><ele>225.0</ele><time>2026-05-01T09:39:13.443Z</time></trkpt><trkpt lat="44.38085" lon="11.5432958"><ele>225.0</ele><time>2026-05-01T09:39:15.442Z</time></trkpt><trkpt lat="44.3807904" lon="11.5433305"><ele>225.0</ele><time>2026-05-01T09:39:17.443Z</time></trkpt><trkpt lat="44.3807286" lon="11.5433607"><ele>225.0</ele><time>2026-05-01T09:39:19.443Z</time></trkpt><trkpt lat="44.3806435" lon="11.5434052"><ele>225.0</ele><time>2026-05-01T09:39:22.442Z</time></trkpt><trkpt lat="44.3805585" lon="11.5434626"><ele>225.0</ele><time>2026-05-01T09:39:25.443Z</time></trkpt><trkpt lat="44.3804948" lon="11.5435048"><ele>225.5</ele><time>2026-05-01T09:39:27.442Z</time></trkpt><trkpt lat="44.3804315" lon="11.5435321"><ele>226.0</ele><time>2026-05-01T09:39:29.443Z</time></trkpt><trkpt lat="44.380349" lon="11.5435827"><ele>226.5</ele><time>2026-05-01T09:39:32.443Z</time></trkpt><trkpt lat="44.3802675" lon="11.5436207"><ele>227.0</ele><time>2026-05-01T09:39:35.443Z</time></trkpt><trkpt lat="44.3801865" lon="11.5436674"><ele>227.5</ele><time>2026-05-01T09:39:38.443Z</time></trkpt><trkpt lat="44.3801015" lon="11.543711"><ele>228.0</ele><time>2026-05-01T09:39:41.442Z</time></trkpt><trkpt lat="44.3800169" lon="11.5437562"><ele>228.0</ele><time>2026-05-01T09:39:44.442Z</time></trkpt><trkpt lat="44.379935" lon="11.5438024"><ele>228.0</ele><time>2026-05-01T09:39:47.444Z</time></trkpt><trkpt lat="44.3798554" lon="11.5438497"><ele>228.0</ele><time>2026-05-01T09:39:50.442Z</time></trkpt><trkpt lat="44.3797797" lon="11.5439016"><ele>228.0</ele><time>2026-05-01T09:39:53.442Z</time></trkpt><trkpt lat="44.3797069" lon="11.5439708"><ele>228.0</ele><time>2026-05-01T09:39:56.443Z</time></trkpt><trkpt lat="44.3796298" lon="11.5440404"><ele>228.0</ele><time>2026-05-01T09:39:59.442Z</time></trkpt><trkpt lat="44.379557" lon="11.5441149"><ele>229.33333333333334</ele><time>2026-05-01T09:40:02.442Z</time></trkpt><trkpt lat="44.3794898" lon="11.5441947"><ele>230.66666666666669</ele><time>2026-05-01T09:40:05.442Z</time></trkpt><trkpt lat="44.379425" lon="11.5442784"><ele>232.0</ele><time>2026-05-01T09:40:08.443Z</time></trkpt><trkpt lat="44.3793554" lon="11.5443568"><ele>233.33333333333334</ele><time>2026-05-01T09:40:11.443Z</time></trkpt><trkpt lat="44.379287" lon="11.5444312"><ele>234.66666666666669</ele><time>2026-05-01T09:40:14.442Z</time></trkpt><trkpt lat="44.3792197" lon="11.5445195"><ele>236.0</ele><time>2026-05-01T09:40:17.444Z</time></trkpt><trkpt lat="44.3791539" lon="11.5445903"><ele>236.00000000000003</ele><time>2026-05-01T09:40:20.441Z</time></trkpt><trkpt lat="44.3790842" lon="11.5446631"><ele>236.0</ele><time>2026-05-01T09:40:23.442Z</time></trkpt><trkpt lat="44.379025" lon="11.5447244"><ele>236.0</ele><time>2026-05-01T09:40:26.443Z</time></trkpt><trkpt lat="44.3789708" lon="11.5448043"><ele>236.0</ele><time>2026-05-01T09:40:29.441Z</time></trkpt><trkpt lat="44.3789194" lon="11.5448765"><ele>236.00000000000003</ele><time>2026-05-01T09:40:32.443Z</time></trkpt><trkpt lat="44.3788814" lon="11.5449676"><ele>236.0</ele><time>2026-05-01T09:40:35.442Z</time></trkpt><trkpt lat="44.3788438" lon="11.5450728"><ele>236.00000000000003</ele><time>2026-05-01T09:40:38.442Z</time></trkpt><trkpt lat="44.3788313" lon="11.545184"><ele>236.0</ele><time>2026-05-01T09:40:41.441Z</time></trkpt><trkpt lat="44.3788569" lon="11.545293"><ele>236.0</ele><time>2026-05-01T09:40:44.443Z</time></trkpt><trkpt lat="44.3788922" lon="11.5454114"><ele>236.0</ele><time>2026-05-01T09:40:47.443Z</time></trkpt><trkpt lat="44.3789336" lon="11.5455249"><ele>236.00000000000003</ele><time>2026-05-01T09:40:50.442Z</time></trkpt><trkpt lat="44.3789751" lon="11.5456368"><ele>236.0</ele><time>2026-05-01T09:40:53.442Z</time></trkpt><trkpt lat="44.3790058" lon="11.5457376"><ele>236.71428571428572</ele><time>2026-05-01T09:40:56.443Z</time></trkpt><trkpt lat="44.37903" lon="11.545835"><ele>237.42857142857144</ele><time>2026-05-01T09:40:59.441Z</time></trkpt><trkpt lat="44.3790583" lon="11.5459267"><ele>238.14285714285717</ele><time>2026-05-01T09:41:02.442Z</time></trkpt><trkpt lat="44.3790767" lon="11.5460233"><ele>238.85714285714286</ele><time>2026-05-01T09:41:05.441Z</time></trkpt><trkpt lat="44.3791033" lon="11.546125"><ele>239.5714285714286</ele><time>2026-05-01T09:41:08.442Z</time></trkpt><trkpt lat="44.379135" lon="11.5462317"><ele>240.2857142857143</ele><time>2026-05-01T09:41:11.44Z</time></trkpt><trkpt lat="44.379155" lon="11.5463167"><ele>241.0</ele><time>2026-05-01T09:41:14.441Z</time></trkpt><trkpt lat="44.3791717" lon="11.5464033"><ele>241.57142857142858</ele><time>2026-05-01T09:41:17.443Z</time></trkpt><trkpt lat="44.37918" lon="11.5465017"><ele>242.14285714285717</ele><time>2026-05-01T09:41:20.44Z</time></trkpt><trkpt lat="44.3791967" lon="11.5465933"><ele>242.71428571428572</ele><time>2026-05-01T09:41:23.44Z</time></trkpt><trkpt lat="44.3792083" lon="11.546705"><ele>243.28571428571428</ele><time>2026-05-01T09:41:26.443Z</time></trkpt><trkpt lat="44.3792067" lon="11.546795"><ele>243.85714285714286</ele><time>2026-05-01T09:41:29.44Z</time></trkpt><trkpt lat="44.379205" lon="11.546925"><ele>244.42857142857144</ele><time>2026-05-01T09:41:32.443Z</time></trkpt><trkpt lat="44.379205" lon="11.5470133"><ele>245.0</ele><time>2026-05-01T09:41:34.441Z</time></trkpt><trkpt lat="44.37919" lon="11.5471383"><ele>245.00000000000003</ele><time>2026-05-01T09:41:37.443Z</time></trkpt><trkpt lat="44.3791717" lon="11.54723"><ele>245.0</ele><time>2026-05-01T09:41:40.439Z</time></trkpt><trkpt lat="44.3790983" lon="11.547235"><ele>245.0</ele><time>2026-05-01T09:41:43.444Z</time></trkpt><trkpt lat="44.37902" lon="11.5471867"><ele>245.0</ele><time>2026-05-01T09:41:46.443Z</time></trkpt><trkpt lat="44.3789433" lon="11.54715"><ele>245.00000000000003</ele><time>2026-05-01T09:41:49.441Z</time></trkpt><trkpt lat="44.378855" lon="11.547105"><ele>245.0</ele><time>2026-05-01T09:41:52.441Z</time></trkpt><trkpt lat="44.3787883" lon="11.5470733"><ele>246.4</ele><time>2026-05-01T09:41:54.442Z</time></trkpt><trkpt lat="44.3787233" lon="11.54707"><ele>247.8</ele><time>2026-05-01T09:41:56.441Z</time></trkpt><trkpt lat="44.37864" lon="11.5470783"><ele>249.2</ele><time>2026-05-01T09:41:58.442Z</time></trkpt><trkpt lat="44.3785383" lon="11.54712"><ele>250.6</ele><time>2026-05-01T09:42:00.441Z</time></trkpt><trkpt lat="44.3784333" lon="11.5471567"><ele>252.0</ele><time>2026-05-01T09:42:02.44Z</time></trkpt><trkpt lat="44.3783367" lon="11.54721"><ele>252.0</ele><time>2026-05-01T09:42:04.442Z</time></trkpt><trkpt lat="44.37825" lon="11.5472667"><ele>252.0</ele><time>2026-05-01T09:42:06.442Z</time></trkpt><trkpt lat="44.3781617" lon="11.5473067"><ele>252.0</ele><time>2026-05-01T09:42:08.441Z</time></trkpt><trkpt lat="44.3780867" lon="11.5473317"><ele>252.0</ele><time>2026-05-01T09:42:10.441Z</time></trkpt><trkpt lat="44.37802" lon="11.54736"><ele>252.0</ele><time>2026-05-01T09:42:13.442Z</time></trkpt><trkpt lat="44.37795" lon="11.5473867"><ele>252.0</ele><time>2026-05-01T09:42:17.443Z</time></trkpt><trkpt lat="44.3778833" lon="11.5473817"><ele>253.0</ele><time>2026-05-01T09:42:22.442Z</time></trkpt><trkpt lat="44.377815" lon="11.5473917"><ele>254.0</ele><time>2026-05-01T09:42:26.441Z</time></trkpt><trkpt lat="44.3777317" lon="11.5473883"><ele>255.0</ele><time>2026-05-01T09:42:30.441Z</time></trkpt><trkpt lat="44.3776517" lon="11.5473867"><ele>256.0</ele><time>2026-05-01T09:42:34.441Z</time></trkpt><trkpt lat="44.377575" lon="11.5473833"><ele>257.0</ele><time>2026-05-01T09:42:38.441Z</time></trkpt><trkpt lat="44.377505" lon="11.5473867"><ele>258.0</ele><time>2026-05-01T09:42:42.443Z</time></trkpt><trkpt lat="44.3774333" lon="11.5474133"><ele>257.99999999999994</ele><time>2026-05-01T09:42:47.443Z</time></trkpt><trkpt lat="44.3773683" lon="11.547425"><ele>258.0</ele><time>2026-05-01T09:42:51.441Z</time></trkpt><trkpt lat="44.377305" lon="11.5474083"><ele>258.0</ele><time>2026-05-01T09:42:55.44Z</time></trkpt><trkpt lat="44.3772367" lon="11.5474117"><ele>258.0</ele><time>2026-05-01T09:42:58.441Z</time></trkpt><trkpt lat="44.377155" lon="11.54742"><ele>258.0</ele><time>2026-05-01T09:43:01.441Z</time></trkpt><trkpt lat="44.3770617" lon="11.5474283"><ele>257.99999999999994</ele><time>2026-05-01T09:43:04.441Z</time></trkpt><trkpt lat="44.3769883" lon="11.5474333"><ele>258.0</ele><time>2026-05-01T09:43:06.44Z</time></trkpt><trkpt lat="44.3769083" lon="11.5474417"><ele>258.8333333333333</ele><time>2026-05-01T09:43:08.442Z</time></trkpt><trkpt lat="44.376815" lon="11.5474783"><ele>259.6666666666667</ele><time>2026-05-01T09:43:10.441Z</time></trkpt><trkpt lat="44.3767283" lon="11.5475217"><ele>260.5</ele><time>2026-05-01T09:43:12.443Z</time></trkpt><trkpt lat="44.3766533" lon="11.5475567"><ele>261.33333333333337</ele><time>2026-05-01T09:43:14.442Z</time></trkpt><trkpt lat="44.3765917" lon="11.5475983"><ele>262.1666666666667</ele><time>2026-05-01T09:43:16.442Z</time></trkpt><trkpt lat="44.37651" lon="11.54765"><ele>263.0</ele><time>2026-05-01T09:43:19.442Z</time></trkpt><trkpt lat="44.3764283" lon="11.54771"><ele>262.6666666666667</ele><time>2026-05-01T09:43:22.442Z</time></trkpt><trkpt lat="44.3763467" lon="11.5477717"><ele>262.33333333333337</ele><time>2026-05-01T09:43:25.442Z</time></trkpt><trkpt lat="44.376275" lon="11.5478233"><ele>262.0</ele><time>2026-05-01T09:43:28.441Z</time></trkpt><trkpt lat="44.3761883" lon="11.5478683"><ele>261.6666666666667</ele><time>2026-05-01T09:43:31.442Z</time></trkpt><trkpt lat="44.3761183" lon="11.5479133"><ele>261.3333333333333</ele><time>2026-05-01T09:43:34.44Z</time></trkpt><trkpt lat="44.37605" lon="11.5479583"><ele>261.0</ele><time>2026-05-01T09:43:37.441Z</time></trkpt><trkpt lat="44.3759767" lon="11.54801"><ele>261.0</ele><time>2026-05-01T09:43:40.441Z</time></trkpt><trkpt lat="44.3758967" lon="11.5480633"><ele>261.0</ele><time>2026-05-01T09:43:43.442Z</time></trkpt><trkpt lat="44.3758133" lon="11.5481217"><ele>261.0</ele><time>2026-05-01T09:43:46.442Z</time></trkpt><trkpt lat="44.375745" lon="11.5481567"><ele>261.0</ele><time>2026-05-01T09:43:48.441Z</time></trkpt><trkpt lat="44.3756683" lon="11.5482017"><ele>261.0</ele><time>2026-05-01T09:43:50.442Z</time></trkpt><trkpt lat="44.3755983" lon="11.54824"><ele>261.0</ele><time>2026-05-01T09:43:52.443Z</time></trkpt><trkpt lat="44.37553" lon="11.5482833"><ele>262.42857142857144</ele><time>2026-05-01T09:43:54.441Z</time></trkpt><trkpt lat="44.37546" lon="11.54833"><ele>263.85714285714283</ele><time>2026-05-01T09:43:56.439Z</time></trkpt><trkpt lat="44.3753933" lon="11.5483767"><ele>265.2857142857143</ele><time>2026-05-01T09:43:58.438Z</time></trkpt><trkpt lat="44.3753333" lon="11.5484217"><ele>266.7142857142857</ele><time>2026-05-01T09:44:00.441Z</time></trkpt><trkpt lat="44.3752683" lon="11.5484567"><ele>268.14285714285717</ele><time>2026-05-01T09:44:02.442Z</time></trkpt><trkpt lat="44.37521" lon="11.5484933"><ele>269.57142857142856</ele><time>2026-05-01T09:44:04.442Z</time></trkpt><trkpt lat="44.37515" lon="11.5485283"><ele>271.0</ele><time>2026-05-01T09:44:06.442Z</time></trkpt><trkpt lat="44.3750883" lon="11.5485567"><ele>271.0</ele><time>2026-05-01T09:44:08.442Z</time></trkpt><trkpt lat="44.375015" lon="11.5486017"><ele>271.0</ele><time>2026-05-01T09:44:11.442Z</time></trkpt><trkpt lat="44.3749367" lon="11.5486217"><ele>271.0</ele><time>2026-05-01T09:44:14.442Z</time></trkpt><trkpt lat="44.3748617" lon="11.548655"><ele>271.0</ele><time>2026-05-01T09:44:17.443Z</time></trkpt><trkpt lat="44.3747883" lon="11.5486867"><ele>271.0</ele><time>2026-05-01T09:44:20.444Z</time></trkpt><trkpt lat="44.3747117" lon="11.5487333"><ele>271.0</ele><time>2026-05-01T09:44:23.444Z</time></trkpt><trkpt lat="44.374625" lon="11.5487583"><ele>271.1428571428571</ele><time>2026-05-01T09:44:27.441Z</time></trkpt><trkpt lat="44.37456" lon="11.5487967"><ele>271.2857142857143</ele><time>2026-05-01T09:44:30.441Z</time></trkpt><trkpt lat="44.3744883" lon="11.5488383"><ele>271.42857142857144</ele><time>2026-05-01T09:44:34.441Z</time></trkpt><trkpt lat="44.3744233" lon="11.5488717"><ele>271.57142857142856</ele><time>2026-05-01T09:44:38.441Z</time></trkpt><trkpt lat="44.3743683" lon="11.5489483"><ele>271.7142857142857</ele><time>2026-05-01T09:44:43.442Z</time></trkpt><trkpt lat="44.374315" lon="11.5490017"><ele>271.85714285714283</ele><time>2026-05-01T09:44:46.445Z</time></trkpt><trkpt lat="44.37424" lon="11.5490517"><ele>272.0</ele><time>2026-05-01T09:44:50.443Z</time></trkpt><trkpt lat="44.3741733" lon="11.5490783"><ele>272.0</ele><time>2026-05-01T09:44:52.443Z</time></trkpt><trkpt lat="44.374095" lon="11.5491083"><ele>272.0</ele><time>2026-05-01T09:44:54.443Z</time></trkpt><trkpt lat="44.3740117" lon="11.5491267"><ele>272.0</ele><time>2026-05-01T09:44:56.439Z</time></trkpt><trkpt lat="44.37395" lon="11.5491483"><ele>272.0</ele><time>2026-05-01T09:44:58.438Z</time></trkpt><trkpt lat="44.3738817" lon="11.5491767"><ele>272.0</ele><time>2026-05-01T09:45:00.439Z</time></trkpt><trkpt lat="44.3737967" lon="11.5491833"><ele>272.0</ele><time>2026-05-01T09:45:02.44Z</time></trkpt><trkpt lat="44.3737067" lon="11.5492067"><ele>271.8</ele><time>2026-05-01T09:45:04.439Z</time></trkpt><trkpt lat="44.37362" lon="11.549245"><ele>271.6</ele><time>2026-05-01T09:45:06.441Z</time></trkpt><trkpt lat="44.3735333" lon="11.5492917"><ele>271.40000000000003</ele><time>2026-05-01T09:45:08.441Z</time></trkpt><trkpt lat="44.3734383" lon="11.5493117"><ele>271.2</ele><time>2026-05-01T09:45:10.442Z</time></trkpt><trkpt lat="44.3733533" lon="11.54933"><ele>271.0</ele><time>2026-05-01T09:45:12.441Z</time></trkpt><trkpt lat="44.37327" lon="11.5494"><ele>271.0</ele><time>2026-05-01T09:45:14.44Z</time></trkpt><trkpt lat="44.3732067" lon="11.54951"><ele>271.0</ele><time>2026-05-01T09:45:16.441Z</time></trkpt><trkpt lat="44.3731517" lon="11.5496083"><ele>271.0</ele><time>2026-05-01T09:45:18.442Z</time></trkpt><trkpt lat="44.37309" lon="11.549695"><ele>271.0</ele><time>2026-05-01T09:45:20.441Z</time></trkpt><trkpt lat="44.3730017" lon="11.5497583"><ele>271.0</ele><time>2026-05-01T09:45:22.442Z</time></trkpt><trkpt lat="44.3729017" lon="11.549795"><ele>267.40000000000003</ele><time>2026-05-01T09:45:24.443Z</time></trkpt><trkpt lat="44.3727983" lon="11.5498183"><ele>263.8</ele><time>2026-05-01T09:45:26.442Z</time></trkpt><trkpt lat="44.3727033" lon="11.54983"><ele>260.20000000000005</ele><time>2026-05-01T09:45:28.439Z</time></trkpt><trkpt lat="44.3726117" lon="11.5498417"><ele>256.6</ele><time>2026-05-01T09:45:30.44Z</time></trkpt><trkpt lat="44.3725133" lon="11.5498617"><ele>253.0</ele><time>2026-05-01T09:45:32.442Z</time></trkpt><trkpt lat="44.3724083" lon="11.5499133"><ele>253.0</ele><time>2026-05-01T09:45:34.439Z</time></trkpt><trkpt lat="44.3722967" lon="11.5499767"><ele>253.0</ele><time>2026-05-01T09:45:36.44Z</time></trkpt><trkpt lat="44.37219" lon="11.5500417"><ele>253.0</ele><time>2026-05-01T09:45:38.44Z</time></trkpt><trkpt lat="44.3720817" lon="11.5501067"><ele>253.0</ele><time>2026-05-01T09:45:40.439Z</time></trkpt><trkpt lat="44.3719617" lon="11.550125"><ele>252.60000000000002</ele><time>2026-05-01T09:45:42.439Z</time></trkpt><trkpt lat="44.371845" lon="11.550115"><ele>252.20000000000002</ele><time>2026-05-01T09:45:44.441Z</time></trkpt><trkpt lat="44.3717433" lon="11.550085"><ele>251.8</ele><time>2026-05-01T09:45:46.442Z</time></trkpt><trkpt lat="44.37163" lon="11.5501217"><ele>251.4</ele><time>2026-05-01T09:45:48.443Z</time></trkpt><trkpt lat="44.3715667" lon="11.550155"><ele>251.0</ele><time>2026-05-01T09:45:49.439Z</time></trkpt><trkpt lat="44.37145" lon="11.55018"><ele>250.33333333333334</ele><time>2026-05-01T09:45:51.44Z</time></trkpt><trkpt lat="44.3713267" lon="11.550155"><ele>249.66666666666669</ele><time>2026-05-01T09:45:53.44Z</time></trkpt><trkpt lat="44.3712633" lon="11.5501417"><ele>249.0</ele><time>2026-05-01T09:45:54.44Z</time></trkpt><trkpt lat="44.3711967" lon="11.550145"><ele>248.33333333333331</ele><time>2026-05-01T09:45:55.439Z</time></trkpt><trkpt lat="44.3711317" lon="11.550145"><ele>247.66666666666666</ele><time>2026-05-01T09:45:56.44Z</time></trkpt><trkpt lat="44.37102" lon="11.550165"><ele>247.0</ele><time>2026-05-01T09:45:58.44Z</time></trkpt><trkpt lat="44.3709117" lon="11.5502117"><ele>247.0</ele><time>2026-05-01T09:46:00.44Z</time></trkpt><trkpt lat="44.3708017" lon="11.5502533"><ele>247.0</ele><time>2026-05-01T09:46:02.44Z</time></trkpt><trkpt lat="44.3706817" lon="11.5502983"><ele>247.0</ele><time>2026-05-01T09:46:04.439Z</time></trkpt><trkpt lat="44.3705583" lon="11.55032"><ele>247.0</ele><time>2026-05-01T09:46:06.44Z</time></trkpt><trkpt lat="44.370495" lon="11.5503233"><ele>247.0</ele><time>2026-05-01T09:46:07.44Z</time></trkpt><trkpt lat="44.3704283" lon="11.550325"><ele>246.0</ele><time>2026-05-01T09:46:08.439Z</time></trkpt><trkpt lat="44.3703583" lon="11.5503233"><ele>245.0</ele><time>2026-05-01T09:46:09.44Z</time></trkpt><trkpt lat="44.37029" lon="11.5503233"><ele>244.0</ele><time>2026-05-01T09:46:10.439Z</time></trkpt><trkpt lat="44.3702217" lon="11.550325"><ele>243.0</ele><time>2026-05-01T09:46:11.44Z</time></trkpt><trkpt lat="44.370155" lon="11.5503433"><ele>242.0</ele><time>2026-05-01T09:46:12.441Z</time></trkpt><trkpt lat="44.3700933" lon="11.5503717"><ele>241.0</ele><time>2026-05-01T09:46:13.44Z</time></trkpt><trkpt lat="44.3700333" lon="11.55042"><ele>240.0</ele><time>2026-05-01T09:46:14.44Z</time></trkpt><trkpt lat="44.36998" lon="11.5504733"><ele>239.0</ele><time>2026-05-01T09:46:15.439Z</time></trkpt><trkpt lat="44.3699383" lon="11.5505433"><ele>238.0</ele><time>2026-05-01T09:46:16.44Z</time></trkpt><trkpt lat="44.3699017" lon="11.5506267"><ele>237.0</ele><time>2026-05-01T09:46:17.443Z</time></trkpt><trkpt lat="44.3698733" lon="11.5507167"><ele>236.0</ele><time>2026-05-01T09:46:18.44Z</time></trkpt><trkpt lat="44.3698583" lon="11.5508117"><ele>235.0</ele><time>2026-05-01T09:46:19.44Z</time></trkpt><trkpt lat="44.3698433" lon="11.5509133"><ele>234.0</ele><time>2026-05-01T09:46:20.439Z</time></trkpt><trkpt lat="44.36983" lon="11.5510217"><ele>233.0</ele><time>2026-05-01T09:46:21.44Z</time></trkpt><trkpt lat="44.3698233" lon="11.55114"><ele>231.50000000000003</ele><time>2026-05-01T09:46:22.439Z</time></trkpt><trkpt lat="44.3698167" lon="11.55125"><ele>230.0</ele><time>2026-05-01T09:46:23.44Z</time></trkpt><trkpt lat="44.3698183" lon="11.5513717"><ele>228.5</ele><time>2026-05-01T09:46:24.44Z</time></trkpt><trkpt lat="44.3698167" lon="11.5514883"><ele>227.0</ele><time>2026-05-01T09:46:25.44Z</time></trkpt><trkpt lat="44.3698067" lon="11.551605"><ele>225.50000000000003</ele><time>2026-05-01T09:46:26.44Z</time></trkpt><trkpt lat="44.36979" lon="11.55172"><ele>224.0</ele><time>2026-05-01T09:46:27.439Z</time></trkpt><trkpt lat="44.36977" lon="11.551835"><ele>224.00000000000003</ele><time>2026-05-01T09:46:28.44Z</time></trkpt><trkpt lat="44.3697467" lon="11.551945"><ele>224.0</ele><time>2026-05-01T09:46:29.441Z</time></trkpt><trkpt lat="44.36972" lon="11.552055"><ele>224.0</ele><time>2026-05-01T09:46:30.44Z</time></trkpt><trkpt lat="44.3696917" lon="11.55216"><ele>224.0</ele><time>2026-05-01T09:46:31.439Z</time></trkpt><trkpt lat="44.3696683" lon="11.5522583"><ele>224.00000000000003</ele><time>2026-05-01T09:46:32.439Z</time></trkpt><trkpt lat="44.3696417" lon="11.5523567"><ele>224.0</ele><time>2026-05-01T09:46:33.439Z</time></trkpt><trkpt lat="44.3696067" lon="11.55244"><ele>223.83333333333334</ele><time>2026-05-01T09:46:34.44Z</time></trkpt><trkpt lat="44.3695717" lon="11.55252"><ele>223.66666666666669</ele><time>2026-05-01T09:46:35.439Z</time></trkpt><trkpt lat="44.3695133" lon="11.55266"><ele>223.5</ele><time>2026-05-01T09:46:37.44Z</time></trkpt><trkpt lat="44.3694683" lon="11.5527683"><ele>223.33333333333331</ele><time>2026-05-01T09:46:39.44Z</time></trkpt><trkpt lat="44.3694333" lon="11.5528533"><ele>223.16666666666666</ele><time>2026-05-01T09:46:41.439Z</time></trkpt><trkpt lat="44.3693983" lon="11.5529317"><ele>223.0</ele><time>2026-05-01T09:46:43.44Z</time></trkpt><trkpt lat="44.3693633" lon="11.55301"><ele>224.42857142857142</ele><time>2026-05-01T09:46:45.44Z</time></trkpt><trkpt lat="44.36933" lon="11.5530867"><ele>225.85714285714283</ele><time>2026-05-01T09:46:47.44Z</time></trkpt><trkpt lat="44.3693" lon="11.553165"><ele>227.28571428571428</ele><time>2026-05-01T09:46:49.439Z</time></trkpt><trkpt lat="44.369255" lon="11.5532817"><ele>228.71428571428572</ele><time>2026-05-01T09:46:52.439Z</time></trkpt><trkpt lat="44.3692217" lon="11.5533617"><ele>230.14285714285714</ele><time>2026-05-01T09:46:54.439Z</time></trkpt><trkpt lat="44.3691867" lon="11.5534433"><ele>231.57142857142858</ele><time>2026-05-01T09:46:56.44Z</time></trkpt><trkpt lat="44.3691617" lon="11.5535333"><ele>233.0</ele><time>2026-05-01T09:46:58.44Z</time></trkpt><trkpt lat="44.3691383" lon="11.5536317"><ele>232.57142857142858</ele><time>2026-05-01T09:47:00.44Z</time></trkpt><trkpt lat="44.3691167" lon="11.5537383"><ele>232.1428571428571</ele><time>2026-05-01T09:47:02.442Z</time></trkpt><trkpt lat="44.3691033" lon="11.5538483"><ele>231.7142857142857</ele><time>2026-05-01T09:47:04.441Z</time></trkpt><trkpt lat="44.3690917" lon="11.5539567"><ele>231.28571428571428</ele><time>2026-05-01T09:47:06.442Z</time></trkpt><trkpt lat="44.3690633" lon="11.55404"><ele>230.85714285714283</ele><time>2026-05-01T09:47:08.442Z</time></trkpt><trkpt lat="44.36905" lon="11.5541433"><ele>230.4285714285714</ele><time>2026-05-01T09:47:10.441Z</time></trkpt><trkpt lat="44.3690583" lon="11.5542383"><ele>229.99999999999997</ele><time>2026-05-01T09:47:12.441Z</time></trkpt><trkpt lat="44.36907" lon="11.554325"><ele>229.99999999999997</ele><time>2026-05-01T09:47:14.442Z</time></trkpt><trkpt lat="44.3690933" lon="11.5544083"><ele>230.0</ele><time>2026-05-01T09:47:16.445Z</time></trkpt><trkpt lat="44.3691067" lon="11.554495"><ele>229.99999999999997</ele><time>2026-05-01T09:47:18.442Z</time></trkpt><trkpt lat="44.3691217" lon="11.554585"><ele>229.99999999999997</ele><time>2026-05-01T09:47:20.442Z</time></trkpt><trkpt lat="44.369135" lon="11.5546717"><ele>230.0</ele><time>2026-05-01T09:47:22.441Z</time></trkpt><trkpt lat="44.3691533" lon="11.55476"><ele>229.99999999999997</ele><time>2026-05-01T09:47:24.442Z</time></trkpt><trkpt lat="44.3691783" lon="11.5548517"><ele>229.99999999999997</ele><time>2026-05-01T09:47:26.441Z</time></trkpt><trkpt lat="44.3692" lon="11.5549517"><ele>230.16666666666669</ele><time>2026-05-01T09:47:28.441Z</time></trkpt><trkpt lat="44.3692233" lon="11.5550517"><ele>230.33333333333334</ele><time>2026-05-01T09:47:30.442Z</time></trkpt><trkpt lat="44.3692483" lon="11.5551517"><ele>230.5</ele><time>2026-05-01T09:47:32.443Z</time></trkpt><trkpt lat="44.369285" lon="11.5552517"><ele>230.66666666666669</ele><time>2026-05-01T09:47:34.44Z</time></trkpt><trkpt lat="44.3693183" lon="11.55535"><ele>230.83333333333334</ele><time>2026-05-01T09:47:36.441Z</time></trkpt><trkpt lat="44.369355" lon="11.5554383"><ele>231.0</ele><time>2026-05-01T09:47:38.442Z</time></trkpt><trkpt lat="44.3694067" lon="11.5555233"><ele>231.8</ele><time>2026-05-01T09:47:40.442Z</time></trkpt><trkpt lat="44.36946" lon="11.5556133"><ele>232.60000000000002</ele><time>2026-05-01T09:47:42.441Z</time></trkpt><trkpt lat="44.369515" lon="11.55571"><ele>233.4</ele><time>2026-05-01T09:47:44.442Z</time></trkpt><trkpt lat="44.36958" lon="11.5558183"><ele>234.2</ele><time>2026-05-01T09:47:46.442Z</time></trkpt><trkpt lat="44.36964" lon="11.5559333"><ele>235.0</ele><time>2026-05-01T09:47:48.442Z</time></trkpt><trkpt lat="44.3696917" lon="11.556055"><ele>233.0</ele><time>2026-05-01T09:47:50.442Z</time></trkpt><trkpt lat="44.3697417" lon="11.5561817"><ele>231.0</ele><time>2026-05-01T09:47:52.441Z</time></trkpt><trkpt lat="44.3697833" lon="11.556305"><ele>229.0</ele><time>2026-05-01T09:47:54.442Z</time></trkpt><trkpt lat="44.3698183" lon="11.5564217"><ele>227.0</ele><time>2026-05-01T09:47:56.442Z</time></trkpt><trkpt lat="44.3698367" lon="11.5565567"><ele>225.0</ele><time>2026-05-01T09:47:58.442Z</time></trkpt><trkpt lat="44.3698383" lon="11.5566917"><ele>225.0</ele><time>2026-05-01T09:48:00.441Z</time></trkpt><trkpt lat="44.3698533" lon="11.556845"><ele>225.0</ele><time>2026-05-01T09:48:02.443Z</time></trkpt><trkpt lat="44.3698717" lon="11.5570033"><ele>225.0</ele><time>2026-05-01T09:48:04.442Z</time></trkpt><trkpt lat="44.3698967" lon="11.5571583"><ele>225.0</ele><time>2026-05-01T09:48:06.442Z</time></trkpt><trkpt lat="44.36993" lon="11.557315"><ele>224.66666666666666</ele><time>2026-05-01T09:48:08.441Z</time></trkpt><trkpt lat="44.36995" lon="11.5574033"><ele>224.33333333333331</ele><time>2026-05-01T09:48:09.441Z</time></trkpt><trkpt lat="44.369985" lon="11.5575467"><ele>224.0</ele><time>2026-05-01T09:48:11.442Z</time></trkpt><trkpt lat="44.3700083" lon="11.5576617"><ele>223.66666666666666</ele><time>2026-05-01T09:48:13.44Z</time></trkpt><trkpt lat="44.3700217" lon="11.55775"><ele>223.33333333333331</ele><time>2026-05-01T09:48:15.442Z</time></trkpt><trkpt lat="44.3700733" lon="11.557815"><ele>223.0</ele><time>2026-05-01T09:48:17.444Z</time></trkpt><trkpt lat="44.37013" lon="11.5578967"><ele>221.4</ele><time>2026-05-01T09:48:19.441Z</time></trkpt><trkpt lat="44.3701983" lon="11.5579933"><ele>219.8</ele><time>2026-05-01T09:48:21.442Z</time></trkpt><trkpt lat="44.3702783" lon="11.5580867"><ele>218.2</ele><time>2026-05-01T09:48:23.442Z</time></trkpt><trkpt lat="44.3703467" lon="11.5581883"><ele>216.6</ele><time>2026-05-01T09:48:25.443Z</time></trkpt><trkpt lat="44.3703983" lon="11.558295"><ele>215.0</ele><time>2026-05-01T09:48:27.442Z</time></trkpt><trkpt lat="44.37044" lon="11.5584117"><ele>215.0</ele><time>2026-05-01T09:48:29.442Z</time></trkpt><trkpt lat="44.3704717" lon="11.5585483"><ele>215.0</ele><time>2026-05-01T09:48:31.442Z</time></trkpt><trkpt lat="44.3704817" lon="11.5586933"><ele>215.0</ele><time>2026-05-01T09:48:33.442Z</time></trkpt><trkpt lat="44.3704733" lon="11.5588483"><ele>215.0</ele><time>2026-05-01T09:48:35.442Z</time></trkpt><trkpt lat="44.3704583" lon="11.5590017"><ele>215.0</ele><time>2026-05-01T09:48:37.442Z</time></trkpt><trkpt lat="44.3704367" lon="11.5591417"><ele>213.2</ele><time>2026-05-01T09:48:39.441Z</time></trkpt><trkpt lat="44.3704233" lon="11.5592817"><ele>211.4</ele><time>2026-05-01T09:48:41.441Z</time></trkpt><trkpt lat="44.3704033" lon="11.5594183"><ele>209.60000000000002</ele><time>2026-05-01T09:48:43.443Z</time></trkpt><trkpt lat="44.370385" lon="11.5595633"><ele>207.8</ele><time>2026-05-01T09:48:45.442Z</time></trkpt><trkpt lat="44.3703733" lon="11.559695"><ele>206.0</ele><time>2026-05-01T09:48:47.444Z</time></trkpt><trkpt lat="44.37037" lon="11.55983"><ele>204.8</ele><time>2026-05-01T09:48:49.442Z</time></trkpt><trkpt lat="44.3703967" lon="11.5599567"><ele>203.60000000000002</ele><time>2026-05-01T09:48:51.442Z</time></trkpt><trkpt lat="44.3704283" lon="11.5600733"><ele>202.4</ele><time>2026-05-01T09:48:53.442Z</time></trkpt><trkpt lat="44.370445" lon="11.5601917"><ele>201.2</ele><time>2026-05-01T09:48:55.442Z</time></trkpt><trkpt lat="44.3704533" lon="11.5603233"><ele>200.0</ele><time>2026-05-01T09:48:57.442Z</time></trkpt><trkpt lat="44.370445" lon="11.56046"><ele>199.8</ele><time>2026-05-01T09:48:59.441Z</time></trkpt><trkpt lat="44.3704333" lon="11.5606033"><ele>199.6</ele><time>2026-05-01T09:49:01.442Z</time></trkpt><trkpt lat="44.3704233" lon="11.5607567"><ele>199.39999999999998</ele><time>2026-05-01T09:49:03.442Z</time></trkpt><trkpt lat="44.3704117" lon="11.560915"><ele>199.2</ele><time>2026-05-01T09:49:05.442Z</time></trkpt><trkpt lat="44.3704033" lon="11.561075"><ele>199.0</ele><time>2026-05-01T09:49:07.442Z</time></trkpt><trkpt lat="44.3703967" lon="11.5612267"><ele>199.0</ele><time>2026-05-01T09:49:09.442Z</time></trkpt><trkpt lat="44.3704183" lon="11.561365"><ele>199.0</ele><time>2026-05-01T09:49:11.442Z</time></trkpt><trkpt lat="44.3704767" lon="11.56148"><ele>199.0</ele><time>2026-05-01T09:49:13.442Z</time></trkpt><trkpt lat="44.370535" lon="11.56161"><ele>199.0</ele><time>2026-05-01T09:49:15.442Z</time></trkpt><trkpt lat="44.3705783" lon="11.5617617"><ele>199.0</ele><time>2026-05-01T09:49:17.444Z</time></trkpt><trkpt lat="44.3705983" lon="11.561915"><ele>198.16666666666666</ele><time>2026-05-01T09:49:19.443Z</time></trkpt><trkpt lat="44.3705967" lon="11.562055"><ele>197.33333333333331</ele><time>2026-05-01T09:49:21.442Z</time></trkpt><trkpt lat="44.370595" lon="11.56218"><ele>196.5</ele><time>2026-05-01T09:49:23.442Z</time></trkpt><trkpt lat="44.3705867" lon="11.5622933"><ele>195.66666666666669</ele><time>2026-05-01T09:49:25.442Z</time></trkpt><trkpt lat="44.3705733" lon="11.5623917"><ele>194.83333333333334</ele><time>2026-05-01T09:49:27.441Z</time></trkpt><trkpt lat="44.3705683" lon="11.5624983"><ele>194.0</ele><time>2026-05-01T09:49:29.441Z</time></trkpt><trkpt lat="44.3705583" lon="11.5626067"><ele>194.00000000000003</ele><time>2026-05-01T09:49:31.441Z</time></trkpt><trkpt lat="44.3705367" lon="11.5626917"><ele>194.0</ele><time>2026-05-01T09:49:33.442Z</time></trkpt><trkpt lat="44.3705467" lon="11.5627867"><ele>194.0</ele><time>2026-05-01T09:49:35.441Z</time></trkpt><trkpt lat="44.37061" lon="11.5629033"><ele>194.0</ele><time>2026-05-01T09:49:37.443Z</time></trkpt><trkpt lat="44.37069" lon="11.56305"><ele>194.00000000000003</ele><time>2026-05-01T09:49:39.442Z</time></trkpt><trkpt lat="44.370735" lon="11.5631317"><ele>194.0</ele><time>2026-05-01T09:49:40.442Z</time></trkpt><trkpt lat="44.3707817" lon="11.5632183"><ele>193.16666666666669</ele><time>2026-05-01T09:49:41.442Z</time></trkpt><trkpt lat="44.3708317" lon="11.56331"><ele>192.33333333333334</ele><time>2026-05-01T09:49:42.442Z</time></trkpt><trkpt lat="44.3708817" lon="11.5634017"><ele>191.5</ele><time>2026-05-01T09:49:43.442Z</time></trkpt><trkpt lat="44.370935" lon="11.563495"><ele>190.66666666666669</ele><time>2026-05-01T09:49:44.442Z</time></trkpt><trkpt lat="44.3709883" lon="11.5635867"><ele>189.83333333333334</ele><time>2026-05-01T09:49:45.442Z</time></trkpt><trkpt lat="44.3710367" lon="11.5636767"><ele>189.0</ele><time>2026-05-01T09:49:46.444Z</time></trkpt><trkpt lat="44.371085" lon="11.5637633"><ele>188.0</ele><time>2026-05-01T09:49:47.443Z</time></trkpt><trkpt lat="44.371125" lon="11.5638467"><ele>187.0</ele><time>2026-05-01T09:49:48.443Z</time></trkpt><trkpt lat="44.371165" lon="11.5639267"><ele>186.0</ele><time>2026-05-01T09:49:49.443Z</time></trkpt><trkpt lat="44.3712" lon="11.5640033"><ele>185.0</ele><time>2026-05-01T09:49:50.444Z</time></trkpt><trkpt lat="44.3712283" lon="11.5640883"><ele>184.0</ele><time>2026-05-01T09:49:51.444Z</time></trkpt><trkpt lat="44.37124" lon="11.5641783"><ele>183.0</ele><time>2026-05-01T09:49:52.444Z</time></trkpt><trkpt lat="44.3712367" lon="11.5642733"><ele>182.0</ele><time>2026-05-01T09:49:53.443Z</time></trkpt><trkpt lat="44.3712267" lon="11.5643717"><ele>182.0</ele><time>2026-05-01T09:49:54.444Z</time></trkpt><trkpt lat="44.3712117" lon="11.5644717"><ele>182.0</ele><time>2026-05-01T09:49:55.441Z</time></trkpt><trkpt lat="44.371185" lon="11.5645633"><ele>182.0</ele><time>2026-05-01T09:49:56.441Z</time></trkpt><trkpt lat="44.3711533" lon="11.5646533"><ele>182.0</ele><time>2026-05-01T09:49:57.442Z</time></trkpt><trkpt lat="44.3711217" lon="11.5647367"><ele>182.0</ele><time>2026-05-01T09:49:58.441Z</time></trkpt><trkpt lat="44.37109" lon="11.564815"><ele>182.0</ele><time>2026-05-01T09:49:59.441Z</time></trkpt><trkpt lat="44.371055" lon="11.5648917"><ele>182.0</ele><time>2026-05-01T09:50:00.442Z</time></trkpt><trkpt lat="44.37102" lon="11.5649683"><ele>180.57142857142858</ele><time>2026-05-01T09:50:01.443Z</time></trkpt><trkpt lat="44.3709817" lon="11.5650483"><ele>179.14285714285714</ele><time>2026-05-01T09:50:02.442Z</time></trkpt><trkpt lat="44.3709433" lon="11.56513"><ele>177.71428571428572</ele><time>2026-05-01T09:50:03.442Z</time></trkpt><trkpt lat="44.370905" lon="11.5652117"><ele>176.28571428571428</ele><time>2026-05-01T09:50:04.441Z</time></trkpt><trkpt lat="44.3708667" lon="11.5652917"><ele>174.85714285714286</ele><time>2026-05-01T09:50:05.442Z</time></trkpt><trkpt lat="44.3708283" lon="11.5653717"><ele>173.42857142857144</ele><time>2026-05-01T09:50:06.442Z</time></trkpt><trkpt lat="44.3707917" lon="11.565455"><ele>172.0</ele><time>2026-05-01T09:50:07.443Z</time></trkpt><trkpt lat="44.3707517" lon="11.565535"><ele>171.33333333333334</ele><time>2026-05-01T09:50:08.442Z</time></trkpt><trkpt lat="44.3707133" lon="11.565615"><ele>170.66666666666669</ele><time>2026-05-01T09:50:09.442Z</time></trkpt><trkpt lat="44.3706633" lon="11.565695"><ele>170.0</ele><time>2026-05-01T09:50:10.442Z</time></trkpt><trkpt lat="44.3706083" lon="11.5657817"><ele>169.33333333333334</ele><time>2026-05-01T09:50:11.442Z</time></trkpt><trkpt lat="44.37055" lon="11.56587"><ele>168.66666666666666</ele><time>2026-05-01T09:50:12.443Z</time></trkpt><trkpt lat="44.3704867" lon="11.56595"><ele>168.0</ele><time>2026-05-01T09:50:13.442Z</time></trkpt><trkpt lat="44.3704267" lon="11.566015"><ele>166.5</ele><time>2026-05-01T09:50:14.442Z</time></trkpt><trkpt lat="44.3703667" lon="11.5660767"><ele>165.0</ele><time>2026-05-01T09:50:15.442Z</time></trkpt><trkpt lat="44.3702983" lon="11.56614"><ele>163.5</ele><time>2026-05-01T09:50:16.444Z</time></trkpt><trkpt lat="44.370225" lon="11.5662083"><ele>162.0</ele><time>2026-05-01T09:50:17.444Z</time></trkpt><trkpt lat="44.37015" lon="11.5662933"><ele>160.5</ele><time>2026-05-01T09:50:18.444Z</time></trkpt><trkpt lat="44.3700817" lon="11.5663883"><ele>159.0</ele><time>2026-05-01T09:50:19.444Z</time></trkpt><trkpt lat="44.370025" lon="11.5664817"><ele>157.2</ele><time>2026-05-01T09:50:20.444Z</time></trkpt><trkpt lat="44.369975" lon="11.5665867"><ele>155.4</ele><time>2026-05-01T09:50:21.444Z</time></trkpt><trkpt lat="44.3699233" lon="11.5667033"><ele>153.6</ele><time>2026-05-01T09:50:22.443Z</time></trkpt><trkpt lat="44.369875" lon="11.5668167"><ele>151.8</ele><time>2026-05-01T09:50:23.443Z</time></trkpt><trkpt lat="44.3698267" lon="11.5669217"><ele>150.0</ele><time>2026-05-01T09:50:24.445Z</time></trkpt><trkpt lat="44.3697783" lon="11.56703"><ele>148.83333333333334</ele><time>2026-05-01T09:50:25.442Z</time></trkpt><trkpt lat="44.3697317" lon="11.5671283"><ele>147.66666666666666</ele><time>2026-05-01T09:50:26.441Z</time></trkpt><trkpt lat="44.3696933" lon="11.5672067"><ele>146.5</ele><time>2026-05-01T09:50:27.442Z</time></trkpt><trkpt lat="44.3696533" lon="11.5672833"><ele>145.33333333333331</ele><time>2026-05-01T09:50:28.44Z</time></trkpt><trkpt lat="44.36961" lon="11.567365"><ele>144.16666666666666</ele><time>2026-05-01T09:50:29.442Z</time></trkpt><trkpt lat="44.36956" lon="11.5674633"><ele>143.0</ele><time>2026-05-01T09:50:30.441Z</time></trkpt><trkpt lat="44.369505" lon="11.5675667"><ele>142.4</ele><time>2026-05-01T09:50:31.443Z</time></trkpt><trkpt lat="44.369455" lon="11.5676667"><ele>141.8</ele><time>2026-05-01T09:50:32.442Z</time></trkpt><trkpt lat="44.3694083" lon="11.5677533"><ele>141.2</ele><time>2026-05-01T09:50:33.443Z</time></trkpt><trkpt lat="44.3693483" lon="11.567895"><ele>140.6</ele><time>2026-05-01T09:50:35.442Z</time></trkpt><trkpt lat="44.3693233" lon="11.5680583"><ele>140.0</ele><time>2026-05-01T09:50:37.442Z</time></trkpt><trkpt lat="44.3693283" lon="11.5681483"><ele>139.33333333333331</ele><time>2026-05-01T09:50:38.441Z</time></trkpt><trkpt lat="44.3693383" lon="11.5682383"><ele>138.66666666666666</ele><time>2026-05-01T09:50:39.443Z</time></trkpt><trkpt lat="44.3693617" lon="11.5683333"><ele>138.0</ele><time>2026-05-01T09:50:40.441Z</time></trkpt><trkpt lat="44.3693917" lon="11.56843"><ele>137.33333333333334</ele><time>2026-05-01T09:50:41.442Z</time></trkpt><trkpt lat="44.3694283" lon="11.5685333"><ele>136.66666666666669</ele><time>2026-05-01T09:50:42.441Z</time></trkpt><trkpt lat="44.3694683" lon="11.568635"><ele>136.0</ele><time>2026-05-01T09:50:43.444Z</time></trkpt><trkpt lat="44.369515" lon="11.568735"><ele>135.5</ele><time>2026-05-01T09:50:44.442Z</time></trkpt><trkpt lat="44.3695667" lon="11.5688317"><ele>135.0</ele><time>2026-05-01T09:50:45.442Z</time></trkpt><trkpt lat="44.3696217" lon="11.56892"><ele>134.5</ele><time>2026-05-01T09:50:46.444Z</time></trkpt><trkpt lat="44.36968" lon="11.5689983"><ele>134.0</ele><time>2026-05-01T09:50:47.444Z</time></trkpt><trkpt lat="44.3697333" lon="11.56907"><ele>133.5</ele><time>2026-05-01T09:50:48.444Z</time></trkpt><trkpt lat="44.3697767" lon="11.5691433"><ele>133.0</ele><time>2026-05-01T09:50:49.444Z</time></trkpt><trkpt lat="44.369805" lon="11.5692267"><ele>132.8</ele><time>2026-05-01T09:50:50.444Z</time></trkpt><trkpt lat="44.3697967" lon="11.5693967"><ele>132.60000000000002</ele><time>2026-05-01T09:50:52.443Z</time></trkpt><trkpt lat="44.36974" lon="11.56955"><ele>132.39999999999998</ele><time>2026-05-01T09:50:54.441Z</time></trkpt><trkpt lat="44.369675" lon="11.569695"><ele>132.2</ele><time>2026-05-01T09:50:56.443Z</time></trkpt><trkpt lat="44.3696417" lon="11.5697717"><ele>132.0</ele><time>2026-05-01T09:50:57.441Z</time></trkpt><trkpt lat="44.3695767" lon="11.5699233"><ele>132.0</ele><time>2026-05-01T09:50:59.442Z</time></trkpt><trkpt lat="44.3695083" lon="11.5700717"><ele>132.0</ele><time>2026-05-01T09:51:01.443Z</time></trkpt><trkpt lat="44.3694733" lon="11.5701533"><ele>132.0</ele><time>2026-05-01T09:51:02.442Z</time></trkpt><trkpt lat="44.36944" lon="11.5702383"><ele>132.0</ele><time>2026-05-01T09:51:03.442Z</time></trkpt><trkpt lat="44.3694067" lon="11.5703233"><ele>132.0</ele><time>2026-05-01T09:51:04.442Z</time></trkpt><trkpt lat="44.3693733" lon="11.570405"><ele>132.0</ele><time>2026-05-01T09:51:05.442Z</time></trkpt><trkpt lat="44.36934" lon="11.570485"><ele>130.33333333333334</ele><time>2026-05-01T09:51:06.441Z</time></trkpt><trkpt lat="44.369305" lon="11.5705617"><ele>128.66666666666666</ele><time>2026-05-01T09:51:07.443Z</time></trkpt><trkpt lat="44.3692717" lon="11.5706417"><ele>127.0</ele><time>2026-05-01T09:51:08.443Z</time></trkpt><trkpt lat="44.3692417" lon="11.5707233"><ele>125.33333333333333</ele><time>2026-05-01T09:51:09.441Z</time></trkpt><trkpt lat="44.3691833" lon="11.5708767"><ele>123.66666666666666</ele><time>2026-05-01T09:51:11.442Z</time></trkpt><trkpt lat="44.369155" lon="11.5709583"><ele>122.0</ele><time>2026-05-01T09:51:12.443Z</time></trkpt><trkpt lat="44.3691267" lon="11.5710383"><ele>122.0</ele><time>2026-05-01T09:51:13.443Z</time></trkpt><trkpt lat="44.3690967" lon="11.5711167"><ele>121.99999999999999</ele><time>2026-05-01T09:51:14.443Z</time></trkpt><trkpt lat="44.3690467" lon="11.571265"><ele>121.99999999999999</ele><time>2026-05-01T09:51:16.442Z</time></trkpt><trkpt lat="44.3689967" lon="11.5714117"><ele>122.0</ele><time>2026-05-01T09:51:18.442Z</time></trkpt><trkpt lat="44.3689367" lon="11.5715617"><ele>122.0</ele><time>2026-05-01T09:51:20.442Z</time></trkpt><trkpt lat="44.3689067" lon="11.57164"><ele>123.0</ele><time>2026-05-01T09:51:21.442Z</time></trkpt><trkpt lat="44.368875" lon="11.5717167"><ele>123.99999999999999</ele><time>2026-05-01T09:51:22.442Z</time></trkpt><trkpt lat="44.3688133" lon="11.5718617"><ele>124.99999999999999</ele><time>2026-05-01T09:51:24.442Z</time></trkpt><trkpt lat="44.36876" lon="11.5720083"><ele>126.0</ele><time>2026-05-01T09:51:26.442Z</time></trkpt><trkpt lat="44.3687067" lon="11.5721417"><ele>127.0</ele><time>2026-05-01T09:51:28.442Z</time></trkpt><trkpt lat="44.368655" lon="11.5722717"><ele>124.8</ele><time>2026-05-01T09:51:30.442Z</time></trkpt><trkpt lat="44.3686017" lon="11.5724017"><ele>122.6</ele><time>2026-05-01T09:51:32.442Z</time></trkpt><trkpt lat="44.3685333" lon="11.572545"><ele>120.39999999999999</ele><time>2026-05-01T09:51:34.442Z</time></trkpt><trkpt lat="44.3685033" lon="11.5726317"><ele>118.19999999999999</ele><time>2026-05-01T09:51:35.441Z</time></trkpt><trkpt lat="44.36847" lon="11.5727333"><ele>116.0</ele><time>2026-05-01T09:51:36.442Z</time></trkpt><trkpt lat="44.3684333" lon="11.5728433"><ele>114.66666666666666</ele><time>2026-05-01T09:51:37.443Z</time></trkpt><trkpt lat="44.3683933" lon="11.572955"><ele>113.33333333333333</ele><time>2026-05-01T09:51:38.442Z</time></trkpt><trkpt lat="44.3683567" lon="11.5730633"><ele>112.0</ele><time>2026-05-01T09:51:39.442Z</time></trkpt><trkpt lat="44.36832" lon="11.5731633"><ele>110.66666666666666</ele><time>2026-05-01T09:51:40.442Z</time></trkpt><trkpt lat="44.3682867" lon="11.573255"><ele>109.33333333333333</ele><time>2026-05-01T09:51:41.442Z</time></trkpt><trkpt lat="44.3682517" lon="11.5733483"><ele>108.0</ele><time>2026-05-01T09:51:42.443Z</time></trkpt><trkpt lat="44.3682167" lon="11.5734483"><ele>108.0</ele><time>2026-05-01T09:51:43.443Z</time></trkpt><trkpt lat="44.36818" lon="11.5735483"><ele>108.0</ele><time>2026-05-01T09:51:44.441Z</time></trkpt><trkpt lat="44.368145" lon="11.5736483"><ele>108.0</ele><time>2026-05-01T09:51:45.442Z</time></trkpt><trkpt lat="44.3681083" lon="11.5737483"><ele>108.0</ele><time>2026-05-01T09:51:46.443Z</time></trkpt><trkpt lat="44.36807" lon="11.57385"><ele>108.0</ele><time>2026-05-01T09:51:47.444Z</time></trkpt><trkpt lat="44.3680317" lon="11.57395"><ele>108.0</ele><time>2026-05-01T09:51:48.443Z</time></trkpt><trkpt lat="44.3679917" lon="11.5740533"><ele>107.33333333333333</ele><time>2026-05-01T09:51:49.442Z</time></trkpt><trkpt lat="44.3679533" lon="11.574155"><ele>106.66666666666666</ele><time>2026-05-01T09:51:50.441Z</time></trkpt><trkpt lat="44.3679217" lon="11.57426"><ele>106.0</ele><time>2026-05-01T09:51:51.442Z</time></trkpt><trkpt lat="44.367885" lon="11.5743583"><ele>105.33333333333333</ele><time>2026-05-01T09:51:52.441Z</time></trkpt><trkpt lat="44.3678483" lon="11.5744633"><ele>104.66666666666666</ele><time>2026-05-01T09:51:53.442Z</time></trkpt><trkpt lat="44.3678133" lon="11.5745583"><ele>104.0</ele><time>2026-05-01T09:51:54.442Z</time></trkpt><trkpt lat="44.3677783" lon="11.574645"><ele>102.80000000000001</ele><time>2026-05-01T09:51:55.443Z</time></trkpt><trkpt lat="44.36775" lon="11.5747283"><ele>101.60000000000001</ele><time>2026-05-01T09:51:56.444Z</time></trkpt><trkpt lat="44.3677133" lon="11.5748683"><ele>100.4</ele><time>2026-05-01T09:51:58.444Z</time></trkpt><trkpt lat="44.3677233" lon="11.5749867"><ele>99.2</ele><time>2026-05-01T09:52:00.442Z</time></trkpt><trkpt lat="44.3677867" lon="11.57507"><ele>98.0</ele><time>2026-05-01T09:52:02.441Z</time></trkpt><trkpt lat="44.3678833" lon="11.5751383"><ele>98.0</ele><time>2026-05-01T09:52:04.441Z</time></trkpt><trkpt lat="44.3679433" lon="11.5751667"><ele>98.0</ele><time>2026-05-01T09:52:05.442Z</time></trkpt><trkpt lat="44.3680117" lon="11.5751933"><ele>98.0</ele><time>2026-05-01T09:52:06.442Z</time></trkpt><trkpt lat="44.3680783" lon="11.5752267"><ele>98.0</ele><time>2026-05-01T09:52:07.443Z</time></trkpt><trkpt lat="44.3681433" lon="11.5752633"><ele>98.0</ele><time>2026-05-01T09:52:08.441Z</time></trkpt><trkpt lat="44.3682067" lon="11.5753"><ele>98.0</ele><time>2026-05-01T09:52:09.443Z</time></trkpt><trkpt lat="44.3682667" lon="11.57534"><ele>98.0</ele><time>2026-05-01T09:52:10.441Z</time></trkpt><trkpt lat="44.3683233" lon="11.575385"><ele>97.85714285714286</ele><time>2026-05-01T09:52:11.442Z</time></trkpt><trkpt lat="44.3683817" lon="11.5754317"><ele>97.71428571428572</ele><time>2026-05-01T09:52:12.442Z</time></trkpt><trkpt lat="44.3684417" lon="11.5754767"><ele>97.57142857142857</ele><time>2026-05-01T09:52:13.442Z</time></trkpt><trkpt lat="44.3685033" lon="11.57552"><ele>97.42857142857143</ele><time>2026-05-01T09:52:14.442Z</time></trkpt><trkpt lat="44.368565" lon="11.5755617"><ele>97.28571428571429</ele><time>2026-05-01T09:52:15.442Z</time></trkpt><trkpt lat="44.3686333" lon="11.5756033"><ele>97.14285714285714</ele><time>2026-05-01T09:52:16.444Z</time></trkpt><trkpt lat="44.3687017" lon="11.57565"><ele>97.0</ele><time>2026-05-01T09:52:17.443Z</time></trkpt><trkpt lat="44.36877" lon="11.5756983"><ele>97.00000000000001</ele><time>2026-05-01T09:52:18.444Z</time></trkpt><trkpt lat="44.3688333" lon="11.5757517"><ele>97.0</ele><time>2026-05-01T09:52:19.442Z</time></trkpt><trkpt lat="44.3688983" lon="11.575805"><ele>97.0</ele><time>2026-05-01T09:52:20.443Z</time></trkpt><trkpt lat="44.3689667" lon="11.57586"><ele>97.0</ele><time>2026-05-01T09:52:21.442Z</time></trkpt><trkpt lat="44.3690333" lon="11.5759117"><ele>97.00000000000001</ele><time>2026-05-01T09:52:22.443Z</time></trkpt><trkpt lat="44.3691" lon="11.57596"><ele>97.0</ele><time>2026-05-01T09:52:23.442Z</time></trkpt><trkpt lat="44.3691683" lon="11.5760083"><ele>96.28571428571428</ele><time>2026-05-01T09:52:24.443Z</time></trkpt><trkpt lat="44.369235" lon="11.576055"><ele>95.57142857142858</ele><time>2026-05-01T09:52:25.443Z</time></trkpt><trkpt lat="44.3692967" lon="11.5761"><ele>94.85714285714286</ele><time>2026-05-01T09:52:26.442Z</time></trkpt><trkpt lat="44.3693533" lon="11.57615"><ele>94.14285714285714</ele><time>2026-05-01T09:52:27.441Z</time></trkpt><trkpt lat="44.3694117" lon="11.5761983"><ele>93.42857142857142</ele><time>2026-05-01T09:52:28.443Z</time></trkpt><trkpt lat="44.3694683" lon="11.5762433"><ele>92.71428571428572</ele><time>2026-05-01T09:52:29.442Z</time></trkpt><trkpt lat="44.3695283" lon="11.5762833"><ele>92.0</ele><time>2026-05-01T09:52:30.442Z</time></trkpt><trkpt lat="44.3696317" lon="11.5763417"><ele>92.8</ele><time>2026-05-01T09:52:32.442Z</time></trkpt><trkpt lat="44.3697333" lon="11.576375"><ele>93.6</ele><time>2026-05-01T09:52:34.442Z</time></trkpt><trkpt lat="44.369825" lon="11.5764033"><ele>94.39999999999999</ele><time>2026-05-01T09:52:36.443Z</time></trkpt><trkpt lat="44.3699183" lon="11.5764217"><ele>95.19999999999999</ele><time>2026-05-01T09:52:38.443Z</time></trkpt><trkpt lat="44.3700117" lon="11.57642"><ele>96.0</ele><time>2026-05-01T09:52:40.443Z</time></trkpt><trkpt lat="44.3700933" lon="11.5764167"><ele>96.0</ele><time>2026-05-01T09:52:42.441Z</time></trkpt><trkpt lat="44.3701833" lon="11.5764117"><ele>96.0</ele><time>2026-05-01T09:52:44.443Z</time></trkpt><trkpt lat="44.3702633" lon="11.57641"><ele>96.0</ele><time>2026-05-01T09:52:46.444Z</time></trkpt><trkpt lat="44.3703433" lon="11.576405"><ele>96.0</ele><time>2026-05-01T09:52:48.443Z</time></trkpt><trkpt lat="44.37042" lon="11.57641"><ele>96.0</ele><time>2026-05-01T09:52:50.441Z</time></trkpt><trkpt lat="44.3704933" lon="11.57641"><ele>96.0</ele><time>2026-05-01T09:52:52.443Z</time></trkpt><trkpt lat="44.3705683" lon="11.5764233"><ele>96.33333333333333</ele><time>2026-05-01T09:52:54.443Z</time></trkpt><trkpt lat="44.3706533" lon="11.5764333"><ele>96.66666666666666</ele><time>2026-05-01T09:52:56.442Z</time></trkpt><trkpt lat="44.3707317" lon="11.57644"><ele>97.0</ele><time>2026-05-01T09:52:58.443Z</time></trkpt><trkpt lat="44.37081" lon="11.57644"><ele>97.33333333333333</ele><time>2026-05-01T09:53:00.441Z</time></trkpt><trkpt lat="44.37088" lon="11.5764467"><ele>97.66666666666666</ele><time>2026-05-01T09:53:02.441Z</time></trkpt><trkpt lat="44.37096" lon="11.57647"><ele>98.0</ele><time>2026-05-01T09:53:04.442Z</time></trkpt><trkpt lat="44.3710467" lon="11.5764917"><ele>98.0</ele><time>2026-05-01T09:53:06.443Z</time></trkpt><trkpt lat="44.3711417" lon="11.5765083"><ele>98.0</ele><time>2026-05-01T09:53:08.443Z</time></trkpt><trkpt lat="44.3712383" lon="11.576525"><ele>98.0</ele><time>2026-05-01T09:53:10.443Z</time></trkpt><trkpt lat="44.3713333" lon="11.5765483"><ele>98.0</ele><time>2026-05-01T09:53:12.442Z</time></trkpt><trkpt lat="44.3714183" lon="11.5765667"><ele>98.0</ele><time>2026-05-01T09:53:14.443Z</time></trkpt><trkpt lat="44.3715167" lon="11.5765817"><ele>97.80000000000001</ele><time>2026-05-01T09:53:16.445Z</time></trkpt><trkpt lat="44.3716133" lon="11.5766083"><ele>97.6</ele><time>2026-05-01T09:53:18.442Z</time></trkpt><trkpt lat="44.3717133" lon="11.5766367"><ele>97.4</ele><time>2026-05-01T09:53:20.442Z</time></trkpt><trkpt lat="44.37182" lon="11.57666"><ele>97.19999999999999</ele><time>2026-05-01T09:53:22.442Z</time></trkpt><trkpt lat="44.3719367" lon="11.5766717"><ele>97.0</ele><time>2026-05-01T09:53:24.442Z</time></trkpt><trkpt lat="44.3720017" lon="11.5766767"><ele>97.00000000000001</ele><time>2026-05-01T09:53:25.442Z</time></trkpt><trkpt lat="44.3721233" lon="11.5767"><ele>97.0</ele><time>2026-05-01T09:53:27.442Z</time></trkpt><trkpt lat="44.3721917" lon="11.5767083"><ele>97.0</ele><time>2026-05-01T09:53:28.442Z</time></trkpt><trkpt lat="44.372255" lon="11.576715"><ele>97.0</ele><time>2026-05-01T09:53:29.441Z</time></trkpt><trkpt lat="44.3723183" lon="11.576725"><ele>97.00000000000001</ele><time>2026-05-01T09:53:30.44Z</time></trkpt><trkpt lat="44.3724433" lon="11.576735"><ele>97.0</ele><time>2026-05-01T09:53:32.442Z</time></trkpt><trkpt lat="44.3725667" lon="11.5767583"><ele>97.00000000000001</ele><time>2026-05-01T09:53:34.443Z</time></trkpt><trkpt lat="44.3726917" lon="11.5767967"><ele>97.0</ele><time>2026-05-01T09:53:36.442Z</time></trkpt><trkpt lat="44.3727567" lon="11.5768183"><ele>97.0</ele><time>2026-05-01T09:53:37.443Z</time></trkpt><trkpt lat="44.3728233" lon="11.576845"><ele>97.0</ele><time>2026-05-01T09:53:38.443Z</time></trkpt><trkpt lat="44.3728917" lon="11.5768783"><ele>97.00000000000001</ele><time>2026-05-01T09:53:39.442Z</time></trkpt><trkpt lat="44.3729567" lon="11.5769133"><ele>97.0</ele><time>2026-05-01T09:53:40.443Z</time></trkpt><trkpt lat="44.3730283" lon="11.5769533"><ele>97.14285714285714</ele><time>2026-05-01T09:53:41.442Z</time></trkpt><trkpt lat="44.3730967" lon="11.576995"><ele>97.28571428571429</ele><time>2026-05-01T09:53:42.44Z</time></trkpt><trkpt lat="44.3731667" lon="11.5770333"><ele>97.42857142857143</ele><time>2026-05-01T09:53:43.441Z</time></trkpt><trkpt lat="44.3732367" lon="11.5770733"><ele>97.57142857142857</ele><time>2026-05-01T09:53:44.442Z</time></trkpt><trkpt lat="44.3733117" lon="11.577115"><ele>97.71428571428572</ele><time>2026-05-01T09:53:45.441Z</time></trkpt><trkpt lat="44.3733683" lon="11.577155"><ele>97.85714285714286</ele><time>2026-05-01T09:53:46.444Z</time></trkpt><trkpt lat="44.3734267" lon="11.5772"><ele>98.0</ele><time>2026-05-01T09:53:47.442Z</time></trkpt><trkpt lat="44.3734933" lon="11.577245"><ele>97.71428571428571</ele><time>2026-05-01T09:53:48.441Z</time></trkpt><trkpt lat="44.37356" lon="11.5772833"><ele>97.42857142857143</ele><time>2026-05-01T09:53:49.442Z</time></trkpt><trkpt lat="44.3736233" lon="11.5773217"><ele>97.14285714285714</ele><time>2026-05-01T09:53:50.442Z</time></trkpt><trkpt lat="44.373685" lon="11.57736"><ele>96.85714285714286</ele><time>2026-05-01T09:53:51.442Z</time></trkpt><trkpt lat="44.3737467" lon="11.5773983"><ele>96.57142857142857</ele><time>2026-05-01T09:53:52.441Z</time></trkpt><trkpt lat="44.37381" lon="11.5774333"><ele>96.28571428571428</ele><time>2026-05-01T09:53:53.44Z</time></trkpt><trkpt lat="44.3738717" lon="11.5774667"><ele>96.0</ele><time>2026-05-01T09:53:54.442Z</time></trkpt><trkpt lat="44.373935" lon="11.5775033"><ele>96.0</ele><time>2026-05-01T09:53:55.443Z</time></trkpt><trkpt lat="44.3739967" lon="11.5775417"><ele>96.0</ele><time>2026-05-01T09:53:56.44Z</time></trkpt><trkpt lat="44.37406" lon="11.5775733"><ele>96.0</ele><time>2026-05-01T09:53:57.45Z</time></trkpt><trkpt lat="44.3741233" lon="11.5776067"><ele>96.0</ele><time>2026-05-01T09:53:58.443Z</time></trkpt><trkpt lat="44.374185" lon="11.577645"><ele>96.0</ele><time>2026-05-01T09:53:59.441Z</time></trkpt><trkpt lat="44.3742417" lon="11.5776883"><ele>96.0</ele><time>2026-05-01T09:54:00.443Z</time></trkpt><trkpt lat="44.374365" lon="11.5777533"><ele>95.99999999999999</ele><time>2026-05-01T09:54:02.443Z</time></trkpt><trkpt lat="44.3744267" lon="11.577785"><ele>96.0</ele><time>2026-05-01T09:54:03.442Z</time></trkpt><trkpt lat="44.37449" lon="11.5778183"><ele>96.0</ele><time>2026-05-01T09:54:04.442Z</time></trkpt><trkpt lat="44.3745533" lon="11.5778467"><ele>96.0</ele><time>2026-05-01T09:54:05.442Z</time></trkpt><trkpt lat="44.374615" lon="11.5778783"><ele>96.0</ele><time>2026-05-01T09:54:06.441Z</time></trkpt><trkpt lat="44.374675" lon="11.5779133"><ele>95.99999999999999</ele><time>2026-05-01T09:54:07.442Z</time></trkpt><trkpt lat="44.3747367" lon="11.57795"><ele>96.0</ele><time>2026-05-01T09:54:08.442Z</time></trkpt><trkpt lat="44.3747967" lon="11.5779883"><ele>95.99999999999999</ele><time>2026-05-01T09:54:09.442Z</time></trkpt><trkpt lat="44.3748567" lon="11.578025"><ele>96.0</ele><time>2026-05-01T09:54:10.442Z</time></trkpt><trkpt lat="44.3749217" lon="11.5780617"><ele>96.0</ele><time>2026-05-01T09:54:11.443Z</time></trkpt><trkpt lat="44.374985" lon="11.5780917"><ele>96.0</ele><time>2026-05-01T09:54:12.442Z</time></trkpt><trkpt lat="44.3750483" lon="11.5781267"><ele>96.0</ele><time>2026-05-01T09:54:13.443Z</time></trkpt><trkpt lat="44.3751183" lon="11.578165"><ele>95.99999999999999</ele><time>2026-05-01T09:54:14.443Z</time></trkpt><trkpt lat="44.3751917" lon="11.5782067"><ele>96.0</ele><time>2026-05-01T09:54:15.442Z</time></trkpt><trkpt lat="44.3752633" lon="11.5782483"><ele>96.0</ele><time>2026-05-01T09:54:16.444Z</time></trkpt><trkpt lat="44.3753383" lon="11.5782883"><ele>96.0</ele><time>2026-05-01T09:54:17.443Z</time></trkpt><trkpt lat="44.3754117" lon="11.5783283"><ele>96.0</ele><time>2026-05-01T09:54:18.444Z</time></trkpt><trkpt lat="44.3754817" lon="11.5783683"><ele>96.0</ele><time>2026-05-01T09:54:19.443Z</time></trkpt><trkpt lat="44.37555" lon="11.5784033"><ele>96.0</ele><time>2026-05-01T09:54:20.443Z</time></trkpt><trkpt lat="44.37567" lon="11.5784533"><ele>96.0</ele><time>2026-05-01T09:54:22.444Z</time></trkpt><trkpt lat="44.3757317" lon="11.578475"><ele>95.83333333333333</ele><time>2026-05-01T09:54:23.444Z</time></trkpt><trkpt lat="44.3758517" lon="11.5785083"><ele>95.66666666666667</ele><time>2026-05-01T09:54:25.441Z</time></trkpt><trkpt lat="44.3759133" lon="11.5785267"><ele>95.5</ele><time>2026-05-01T09:54:26.443Z</time></trkpt><trkpt lat="44.3759783" lon="11.578545"><ele>95.33333333333334</ele><time>2026-05-01T09:54:27.443Z</time></trkpt><trkpt lat="44.3760417" lon="11.5785633"><ele>95.16666666666667</ele><time>2026-05-01T09:54:28.443Z</time></trkpt><trkpt lat="44.3761067" lon="11.5785817"><ele>95.0</ele><time>2026-05-01T09:54:29.441Z</time></trkpt><trkpt lat="44.3761783" lon="11.5786017"><ele>95.0</ele><time>2026-05-01T09:54:30.443Z</time></trkpt><trkpt lat="44.37625" lon="11.578625"><ele>95.0</ele><time>2026-05-01T09:54:31.443Z</time></trkpt><trkpt lat="44.3763233" lon="11.578645"><ele>95.0</ele><time>2026-05-01T09:54:32.443Z</time></trkpt><trkpt lat="44.376395" lon="11.578665"><ele>95.0</ele><time>2026-05-01T09:54:33.443Z</time></trkpt><trkpt lat="44.3764667" lon="11.5786867"><ele>95.0</ele><time>2026-05-01T09:54:34.442Z</time></trkpt><trkpt lat="44.3765383" lon="11.57871"><ele>95.0</ele><time>2026-05-01T09:54:35.442Z</time></trkpt><trkpt lat="44.3766067" lon="11.5787333"><ele>95.0</ele><time>2026-05-01T09:54:36.443Z</time></trkpt><trkpt lat="44.376675" lon="11.5787567"><ele>94.28571428571429</ele><time>2026-05-01T09:54:37.442Z</time></trkpt><trkpt lat="44.3767433" lon="11.5787783"><ele>93.57142857142858</ele><time>2026-05-01T09:54:38.443Z</time></trkpt><trkpt lat="44.3768133" lon="11.5788033"><ele>92.85714285714286</ele><time>2026-05-01T09:54:39.442Z</time></trkpt><trkpt lat="44.3768833" lon="11.5788267"><ele>92.14285714285714</ele><time>2026-05-01T09:54:40.442Z</time></trkpt><trkpt lat="44.3769517" lon="11.5788533"><ele>91.42857142857143</ele><time>2026-05-01T09:54:41.441Z</time></trkpt><trkpt lat="44.3770233" lon="11.5788783"><ele>90.71428571428571</ele><time>2026-05-01T09:54:42.443Z</time></trkpt><trkpt lat="44.3770917" lon="11.578895"><ele>90.0</ele><time>2026-05-01T09:54:43.442Z</time></trkpt><trkpt lat="44.3771567" lon="11.5789183"><ele>89.85714285714285</ele><time>2026-05-01T09:54:44.442Z</time></trkpt><trkpt lat="44.3772233" lon="11.57894"><ele>89.71428571428572</ele><time>2026-05-01T09:54:45.441Z</time></trkpt><trkpt lat="44.3772917" lon="11.5789583"><ele>89.57142857142857</ele><time>2026-05-01T09:54:46.444Z</time></trkpt><trkpt lat="44.3773633" lon="11.57898"><ele>89.42857142857142</ele><time>2026-05-01T09:54:47.443Z</time></trkpt><trkpt lat="44.377435" lon="11.5790033"><ele>89.28571428571428</ele><time>2026-05-01T09:54:48.444Z</time></trkpt><trkpt lat="44.377505" lon="11.579025"><ele>89.14285714285714</ele><time>2026-05-01T09:54:49.445Z</time></trkpt><trkpt lat="44.3775767" lon="11.5790517"><ele>89.0</ele><time>2026-05-01T09:54:50.444Z</time></trkpt><trkpt lat="44.3776417" lon="11.5790767"><ele>88.99999999999999</ele><time>2026-05-01T09:54:51.443Z</time></trkpt><trkpt lat="44.3777067" lon="11.5791"><ele>89.0</ele><time>2026-05-01T09:54:52.442Z</time></trkpt><trkpt lat="44.37777" lon="11.5791233"><ele>89.0</ele><time>2026-05-01T09:54:53.445Z</time></trkpt><trkpt lat="44.3778333" lon="11.57915"><ele>89.0</ele><time>2026-05-01T09:54:54.444Z</time></trkpt><trkpt lat="44.3778983" lon="11.5791717"><ele>89.0</ele><time>2026-05-01T09:54:55.441Z</time></trkpt><trkpt lat="44.3779667" lon="11.579195"><ele>88.99999999999999</ele><time>2026-05-01T09:54:56.442Z</time></trkpt><trkpt lat="44.3780317" lon="11.5792167"><ele>89.0</ele><time>2026-05-01T09:54:57.44Z</time></trkpt><trkpt lat="44.3780983" lon="11.5792383"><ele>89.0</ele><time>2026-05-01T09:54:58.441Z</time></trkpt><trkpt lat="44.37816" lon="11.5792583"><ele>89.0</ele><time>2026-05-01T09:54:59.441Z</time></trkpt><trkpt lat="44.3782767" lon="11.57929"><ele>89.0</ele><time>2026-05-01T09:55:01.443Z</time></trkpt><trkpt lat="44.37839" lon="11.5793283"><ele>89.0</ele><time>2026-05-01T09:55:03.442Z</time></trkpt><trkpt lat="44.3785076" lon="11.5793667"><ele>89.0</ele><time>2026-05-01T09:55:05.442Z</time></trkpt><trkpt lat="44.3786274" lon="11.5794034"><ele>88.99999999999999</ele><time>2026-05-01T09:55:07.443Z</time></trkpt><trkpt lat="44.3786882" lon="11.5794303"><ele>89.0</ele><time>2026-05-01T09:55:08.441Z</time></trkpt><trkpt lat="44.3787513" lon="11.5794585"><ele>89.0</ele><time>2026-05-01T09:55:09.443Z</time></trkpt><trkpt lat="44.3788196" lon="11.5794848"><ele>89.0</ele><time>2026-05-01T09:55:10.442Z</time></trkpt><trkpt lat="44.3788885" lon="11.5795111"><ele>89.0</ele><time>2026-05-01T09:55:11.442Z</time></trkpt><trkpt lat="44.378956" lon="11.5795398"><ele>88.99999999999999</ele><time>2026-05-01T09:55:12.443Z</time></trkpt><trkpt lat="44.3790227" lon="11.5795664"><ele>89.0</ele><time>2026-05-01T09:55:13.442Z</time></trkpt><trkpt lat="44.3790893" lon="11.5795925"><ele>88.85714285714285</ele><time>2026-05-01T09:55:14.443Z</time></trkpt><trkpt lat="44.3791537" lon="11.5796179"><ele>88.71428571428571</ele><time>2026-05-01T09:55:15.441Z</time></trkpt><trkpt lat="44.3792191" lon="11.5796438"><ele>88.57142857142857</ele><time>2026-05-01T09:55:16.444Z</time></trkpt><trkpt lat="44.3792866" lon="11.579668"><ele>88.42857142857142</ele><time>2026-05-01T09:55:17.444Z</time></trkpt><trkpt lat="44.3793533" lon="11.579691"><ele>88.28571428571428</ele><time>2026-05-01T09:55:18.444Z</time></trkpt><trkpt lat="44.379417" lon="11.5797109"><ele>88.14285714285714</ele><time>2026-05-01T09:55:19.444Z</time></trkpt><trkpt lat="44.3794826" lon="11.5797342"><ele>88.0</ele><time>2026-05-01T09:55:20.444Z</time></trkpt><trkpt lat="44.3795518" lon="11.5797562"><ele>88.0</ele><time>2026-05-01T09:55:21.443Z</time></trkpt><trkpt lat="44.3796207" lon="11.5797766"><ele>88.0</ele><time>2026-05-01T09:55:22.444Z</time></trkpt><trkpt lat="44.379688" lon="11.5798011"><ele>88.0</ele><time>2026-05-01T09:55:23.443Z</time></trkpt><trkpt lat="44.3797523" lon="11.5798263"><ele>88.0</ele><time>2026-05-01T09:55:24.444Z</time></trkpt><trkpt lat="44.3798158" lon="11.5798481"><ele>88.0</ele><time>2026-05-01T09:55:25.442Z</time></trkpt><trkpt lat="44.3798807" lon="11.5798693"><ele>88.0</ele><time>2026-05-01T09:55:26.443Z</time></trkpt><trkpt lat="44.3799472" lon="11.5798905"><ele>88.0</ele><time>2026-05-01T09:55:27.442Z</time></trkpt><trkpt lat="44.3800139" lon="11.5799113"><ele>87.85714285714286</ele><time>2026-05-01T09:55:28.442Z</time></trkpt><trkpt lat="44.3800815" lon="11.5799317"><ele>87.71428571428571</ele><time>2026-05-01T09:55:29.442Z</time></trkpt><trkpt lat="44.3801496" lon="11.5799538"><ele>87.57142857142857</ele><time>2026-05-01T09:55:30.441Z</time></trkpt><trkpt lat="44.3802184" lon="11.5799743"><ele>87.42857142857143</ele><time>2026-05-01T09:55:31.443Z</time></trkpt><trkpt lat="44.3802855" lon="11.579996"><ele>87.28571428571429</ele><time>2026-05-01T09:55:32.443Z</time></trkpt><trkpt lat="44.3803544" lon="11.5800182"><ele>87.14285714285714</ele><time>2026-05-01T09:55:33.441Z</time></trkpt><trkpt lat="44.3804235" lon="11.5800421"><ele>87.0</ele><time>2026-05-01T09:55:34.443Z</time></trkpt><trkpt lat="44.3804892" lon="11.5800678"><ele>87.0</ele><time>2026-05-01T09:55:35.444Z</time></trkpt><trkpt lat="44.3805567" lon="11.58009"><ele>87.0</ele><time>2026-05-01T09:55:36.442Z</time></trkpt><trkpt lat="44.3806224" lon="11.5801093"><ele>87.0</ele><time>2026-05-01T09:55:37.442Z</time></trkpt><trkpt lat="44.3806861" lon="11.5801269"><ele>87.0</ele><time>2026-05-01T09:55:38.442Z</time></trkpt><trkpt lat="44.3807505" lon="11.5801449"><ele>87.0</ele><time>2026-05-01T09:55:39.441Z</time></trkpt><trkpt lat="44.3808153" lon="11.5801678"><ele>87.0</ele><time>2026-05-01T09:55:40.442Z</time></trkpt><trkpt lat="44.3808815" lon="11.5801889"><ele>87.0</ele><time>2026-05-01T09:55:41.441Z</time></trkpt><trkpt lat="44.3809481" lon="11.5802083"><ele>87.0</ele><time>2026-05-01T09:55:42.443Z</time></trkpt><trkpt lat="44.3810135" lon="11.580227"><ele>87.0</ele><time>2026-05-01T09:55:43.445Z</time></trkpt><trkpt lat="44.3810771" lon="11.5802486"><ele>87.0</ele><time>2026-05-01T09:55:44.443Z</time></trkpt><trkpt lat="44.3811848" lon="11.5803485"><ele>87.0</ele><time>2026-05-01T09:55:46.444Z</time></trkpt><trkpt lat="44.381226" lon="11.5804298"><ele>87.0</ele><time>2026-05-01T09:55:47.444Z</time></trkpt><trkpt lat="44.3812542" lon="11.5805252"><ele>87.0</ele><time>2026-05-01T09:55:48.444Z</time></trkpt><trkpt lat="44.3812603" lon="11.5806307"><ele>86.71428571428571</ele><time>2026-05-01T09:55:49.443Z</time></trkpt><trkpt lat="44.3812503" lon="11.5807368"><ele>86.42857142857143</ele><time>2026-05-01T09:55:50.445Z</time></trkpt><trkpt lat="44.381228" lon="11.580841"><ele>86.14285714285714</ele><time>2026-05-01T09:55:51.445Z</time></trkpt><trkpt lat="44.3812051" lon="11.5809439"><ele>85.85714285714286</ele><time>2026-05-01T09:55:52.444Z</time></trkpt><trkpt lat="44.3811847" lon="11.5810411"><ele>85.57142857142857</ele><time>2026-05-01T09:55:53.444Z</time></trkpt><trkpt lat="44.3811645" lon="11.581134"><ele>85.28571428571429</ele><time>2026-05-01T09:55:54.444Z</time></trkpt><trkpt lat="44.3811463" lon="11.5812249"><ele>85.0</ele><time>2026-05-01T09:55:55.442Z</time></trkpt><trkpt lat="44.3811293" lon="11.5813142"><ele>84.83333333333333</ele><time>2026-05-01T09:55:56.442Z</time></trkpt><trkpt lat="44.3811097" lon="11.5814047"><ele>84.66666666666666</ele><time>2026-05-01T09:55:57.442Z</time></trkpt><trkpt lat="44.381092" lon="11.5814937"><ele>84.5</ele><time>2026-05-01T09:55:58.443Z</time></trkpt><trkpt lat="44.3810809" lon="11.5815851"><ele>84.33333333333333</ele><time>2026-05-01T09:55:59.442Z</time></trkpt><trkpt lat="44.3810873" lon="11.5816756"><ele>84.16666666666667</ele><time>2026-05-01T09:56:00.443Z</time></trkpt><trkpt lat="44.3811441" lon="11.5818144"><ele>84.0</ele><time>2026-05-01T09:56:02.443Z</time></trkpt><trkpt lat="44.3812665" lon="11.5818685"><ele>84.0</ele><time>2026-05-01T09:56:04.442Z</time></trkpt><trkpt lat="44.3813373" lon="11.5818887"><ele>84.0</ele><time>2026-05-01T09:56:05.442Z</time></trkpt><trkpt lat="44.3814062" lon="11.5819164"><ele>84.0</ele><time>2026-05-01T09:56:06.442Z</time></trkpt><trkpt lat="44.3814676" lon="11.5819468"><ele>84.0</ele><time>2026-05-01T09:56:07.442Z</time></trkpt><trkpt lat="44.3815282" lon="11.5819804"><ele>84.0</ele><time>2026-05-01T09:56:08.442Z</time></trkpt><trkpt lat="44.3815901" lon="11.5820106"><ele>84.0</ele><time>2026-05-01T09:56:09.441Z</time></trkpt><trkpt lat="44.3816547" lon="11.5820431"><ele>84.0</ele><time>2026-05-01T09:56:10.443Z</time></trkpt><trkpt lat="44.3817161" lon="11.5820768"><ele>83.28571428571429</ele><time>2026-05-01T09:56:11.442Z</time></trkpt><trkpt lat="44.3817777" lon="11.5821117"><ele>82.57142857142857</ele><time>2026-05-01T09:56:12.442Z</time></trkpt><trkpt lat="44.3818368" lon="11.5821467"><ele>81.85714285714286</ele><time>2026-05-01T09:56:13.442Z</time></trkpt><trkpt lat="44.3818976" lon="11.5821815"><ele>81.14285714285714</ele><time>2026-05-01T09:56:14.443Z</time></trkpt><trkpt lat="44.3819607" lon="11.5822163"><ele>80.42857142857143</ele><time>2026-05-01T09:56:15.443Z</time></trkpt><trkpt lat="44.3820257" lon="11.5822543"><ele>79.71428571428572</ele><time>2026-05-01T09:56:16.443Z</time></trkpt><trkpt lat="44.3820922" lon="11.5822928"><ele>79.0</ele><time>2026-05-01T09:56:17.443Z</time></trkpt><trkpt lat="44.3821591" lon="11.5823322"><ele>78.66666666666666</ele><time>2026-05-01T09:56:18.443Z</time></trkpt><trkpt lat="44.3822286" lon="11.5823756"><ele>78.33333333333333</ele><time>2026-05-01T09:56:19.444Z</time></trkpt><trkpt lat="44.3822987" lon="11.5824268"><ele>78.0</ele><time>2026-05-01T09:56:20.444Z</time></trkpt><trkpt lat="44.3823649" lon="11.5824861"><ele>77.66666666666667</ele><time>2026-05-01T09:56:21.442Z</time></trkpt><trkpt lat="44.3824271" lon="11.5825545"><ele>77.33333333333334</ele><time>2026-05-01T09:56:22.442Z</time></trkpt><trkpt lat="44.3824857" lon="11.582635"><ele>77.0</ele><time>2026-05-01T09:56:23.445Z</time></trkpt><trkpt lat="44.382533" lon="11.582731"><ele>77.0</ele><time>2026-05-01T09:56:24.443Z</time></trkpt><trkpt lat="44.3825736" lon="11.5828371"><ele>77.0</ele><time>2026-05-01T09:56:25.442Z</time></trkpt><trkpt lat="44.3826103" lon="11.5829454"><ele>77.0</ele><time>2026-05-01T09:56:26.443Z</time></trkpt><trkpt lat="44.3826339" lon="11.583055"><ele>77.0</ele><time>2026-05-01T09:56:27.441Z</time></trkpt><trkpt lat="44.3826546" lon="11.5831658"><ele>77.0</ele><time>2026-05-01T09:56:28.441Z</time></trkpt><trkpt lat="44.3826764" lon="11.5832724"><ele>77.0</ele><time>2026-05-01T09:56:29.441Z</time></trkpt><trkpt lat="44.3827055" lon="11.5833723"><ele>76.71428571428571</ele><time>2026-05-01T09:56:30.444Z</time></trkpt><trkpt lat="44.3827413" lon="11.5834647"><ele>76.42857142857143</ele><time>2026-05-01T09:56:31.443Z</time></trkpt><trkpt lat="44.382783" lon="11.5835485"><ele>76.14285714285714</ele><time>2026-05-01T09:56:32.443Z</time></trkpt><trkpt lat="44.3828346" lon="11.5836199"><ele>75.85714285714286</ele><time>2026-05-01T09:56:33.442Z</time></trkpt><trkpt lat="44.3828949" lon="11.5836763"><ele>75.57142857142857</ele><time>2026-05-01T09:56:34.443Z</time></trkpt><trkpt lat="44.3829613" lon="11.5837118"><ele>75.28571428571428</ele><time>2026-05-01T09:56:35.442Z</time></trkpt><trkpt lat="44.3830322" lon="11.5837248"><ele>75.0</ele><time>2026-05-01T09:56:36.442Z</time></trkpt><trkpt lat="44.3831048" lon="11.5837296"><ele>74.99999999999999</ele><time>2026-05-01T09:56:37.442Z</time></trkpt><trkpt lat="44.3831797" lon="11.5837397"><ele>75.0</ele><time>2026-05-01T09:56:38.443Z</time></trkpt><trkpt lat="44.3832513" lon="11.5837507"><ele>75.0</ele><time>2026-05-01T09:56:39.442Z</time></trkpt><trkpt lat="44.383324" lon="11.5837591"><ele>75.0</ele><time>2026-05-01T09:56:40.443Z</time></trkpt><trkpt lat="44.3833934" lon="11.5837661"><ele>75.0</ele><time>2026-05-01T09:56:41.441Z</time></trkpt><trkpt lat="44.3834593" lon="11.5837727"><ele>74.99999999999999</ele><time>2026-05-01T09:56:42.443Z</time></trkpt><trkpt lat="44.3835253" lon="11.5837819"><ele>75.0</ele><time>2026-05-01T09:56:43.444Z</time></trkpt><trkpt lat="44.3835917" lon="11.5837914"><ele>75.0</ele><time>2026-05-01T09:56:44.443Z</time></trkpt><trkpt lat="44.3837187" lon="11.5837998"><ele>75.0</ele><time>2026-05-01T09:56:46.444Z</time></trkpt><trkpt lat="44.3837832" lon="11.5838085"><ele>75.0</ele><time>2026-05-01T09:56:47.443Z</time></trkpt><trkpt lat="44.3838454" lon="11.5838283"><ele>75.0</ele><time>2026-05-01T09:56:48.443Z</time></trkpt><trkpt lat="44.383911" lon="11.5838493"><ele>75.0</ele><time>2026-05-01T09:56:49.444Z</time></trkpt><trkpt lat="44.3839763" lon="11.5838664"><ele>75.0</ele><time>2026-05-01T09:56:50.444Z</time></trkpt><trkpt lat="44.3840401" lon="11.5838764"><ele>75.2</ele><time>2026-05-01T09:56:51.445Z</time></trkpt><trkpt lat="44.3841035" lon="11.5838854"><ele>75.4</ele><time>2026-05-01T09:56:52.442Z</time></trkpt><trkpt lat="44.3841667" lon="11.5838938"><ele>75.6</ele><time>2026-05-01T09:56:53.442Z</time></trkpt><trkpt lat="44.3842873" lon="11.5839167"><ele>75.8</ele><time>2026-05-01T09:56:55.442Z</time></trkpt><trkpt lat="44.3844072" lon="11.5839394"><ele>76.0</ele><time>2026-05-01T09:56:57.441Z</time></trkpt><trkpt lat="44.384529" lon="11.5839593"><ele>76.0</ele><time>2026-05-01T09:56:59.442Z</time></trkpt><trkpt lat="44.3845926" lon="11.5839606"><ele>76.0</ele><time>2026-05-01T09:57:00.442Z</time></trkpt><trkpt lat="44.3846637" lon="11.5839451"><ele>76.0</ele><time>2026-05-01T09:57:01.444Z</time></trkpt><trkpt lat="44.3847294" lon="11.5839136"><ele>76.0</ele><time>2026-05-01T09:57:02.442Z</time></trkpt><trkpt lat="44.3847845" lon="11.5838683"><ele>76.0</ele><time>2026-05-01T09:57:03.441Z</time></trkpt><trkpt lat="44.3848313" lon="11.5837215"><ele>76.0</ele><time>2026-05-01T09:57:05.441Z</time></trkpt><trkpt lat="44.3848419" lon="11.5835902"><ele>76.42857142857143</ele><time>2026-05-01T09:57:07.444Z</time></trkpt><trkpt lat="44.3848392" lon="11.5834878"><ele>76.85714285714286</ele><time>2026-05-01T09:57:09.442Z</time></trkpt><trkpt lat="44.3847992" lon="11.5834174"><ele>77.28571428571429</ele><time>2026-05-01T09:57:12.442Z</time></trkpt><trkpt lat="44.3847653" lon="11.5835022"><ele>77.71428571428572</ele><time>2026-05-01T09:57:15.441Z</time></trkpt><trkpt lat="44.3847495" lon="11.5835991"><ele>78.14285714285714</ele><time>2026-05-01T09:57:17.442Z</time></trkpt><trkpt lat="44.384737" lon="11.5836952"><ele>78.57142857142858</ele><time>2026-05-01T09:57:19.444Z</time></trkpt><trkpt lat="44.3847021" lon="11.5838074"><ele>79.0</ele><time>2026-05-01T09:57:22.444Z</time></trkpt><trkpt lat="44.3847639" lon="11.5838615"><ele>79.0</ele><time>2026-05-01T09:57:30.443Z</time></trkpt><trkpt lat="44.3848124" lon="11.5837993"><ele>79.0</ele><time>2026-05-01T09:57:32.442Z</time></trkpt><trkpt lat="44.3848663" lon="11.5837138"><ele>79.0</ele><time>2026-05-01T09:57:34.442Z</time></trkpt><trkpt lat="44.3849418" lon="11.5836325"><ele>79.0</ele><time>2026-05-01T09:57:36.442Z</time></trkpt><trkpt lat="44.3850221" lon="11.5835884"><ele>79.0</ele><time>2026-05-01T09:57:38.443Z</time></trkpt><trkpt lat="44.3851077" lon="11.5835733"><ele>79.0</ele><time>2026-05-01T09:57:40.443Z</time></trkpt><trkpt lat="44.3852037" lon="11.5835771"><ele>79.0</ele><time>2026-05-01T09:57:42.442Z</time></trkpt><trkpt lat="44.3853071" lon="11.5835979"><ele>79.0</ele><time>2026-05-01T09:57:44.441Z</time></trkpt><trkpt lat="44.3854136" lon="11.5836274"><ele>79.0</ele><time>2026-05-01T09:57:46.444Z</time></trkpt><trkpt lat="44.3855146" lon="11.5836741"><ele>79.0</ele><time>2026-05-01T09:57:48.442Z</time></trkpt><trkpt lat="44.3856014" lon="11.5837122"><ele>79.0</ele><time>2026-05-01T09:57:50.443Z</time></trkpt><trkpt lat="44.3856716" lon="11.5836873"><ele>78.66666666666666</ele><time>2026-05-01T09:57:52.442Z</time></trkpt><trkpt lat="44.3857138" lon="11.5836003"><ele>78.33333333333333</ele><time>2026-05-01T09:57:54.442Z</time></trkpt><trkpt lat="44.3857511" lon="11.5835205"><ele>78.0</ele><time>2026-05-01T09:57:56.442Z</time></trkpt><trkpt lat="44.3858375" lon="11.5834682"><ele>77.66666666666667</ele><time>2026-05-01T09:57:59.442Z</time></trkpt><trkpt lat="44.3859069" lon="11.5835055"><ele>77.33333333333334</ele><time>2026-05-01T09:58:01.443Z</time></trkpt><trkpt lat="44.3859769" lon="11.583563"><ele>77.0</ele><time>2026-05-01T09:58:03.441Z</time></trkpt><trkpt lat="44.3860506" lon="11.5836024"><ele>77.0</ele><time>2026-05-01T09:58:05.441Z</time></trkpt><trkpt lat="44.3861381" lon="11.5836474"><ele>77.0</ele><time>2026-05-01T09:58:07.443Z</time></trkpt><trkpt lat="44.3862148" lon="11.583689"><ele>77.0</ele><time>2026-05-01T09:58:09.443Z</time></trkpt><trkpt lat="44.386256" lon="11.5837633"><ele>77.0</ele><time>2026-05-01T09:58:11.443Z</time></trkpt><trkpt lat="44.3862478" lon="11.5838663"><ele>77.0</ele><time>2026-05-01T09:58:13.443Z</time></trkpt><trkpt lat="44.3862328" lon="11.5839577"><ele>77.0</ele><time>2026-05-01T09:58:15.442Z</time></trkpt><trkpt lat="44.3861948" lon="11.5840849"><ele>76.5</ele><time>2026-05-01T09:58:18.442Z</time></trkpt><trkpt lat="44.386165" lon="11.5841744"><ele>76.0</ele><time>2026-05-01T09:58:21.442Z</time></trkpt><trkpt lat="44.3861586" lon="11.5842834"><ele>75.5</ele><time>2026-05-01T09:58:25.443Z</time></trkpt><trkpt lat="44.3861193" lon="11.5844027"><ele>75.0</ele><time>2026-05-01T09:58:28.443Z</time></trkpt><trkpt lat="44.3860973" lon="11.5844988"><ele>74.5</ele><time>2026-05-01T09:58:30.441Z</time></trkpt><trkpt lat="44.386071" lon="11.5846106"><ele>74.0</ele><time>2026-05-01T09:58:32.443Z</time></trkpt><trkpt lat="44.3860464" lon="11.5847196"><ele>73.66666666666667</ele><time>2026-05-01T09:58:34.443Z</time></trkpt><trkpt lat="44.3860044" lon="11.5848318"><ele>73.33333333333334</ele><time>2026-05-01T09:58:36.442Z</time></trkpt><trkpt lat="44.3859567" lon="11.584955"><ele>73.0</ele><time>2026-05-01T09:58:38.442Z</time></trkpt><trkpt lat="44.3859162" lon="11.5850667"><ele>72.66666666666667</ele><time>2026-05-01T09:58:40.443Z</time></trkpt><trkpt lat="44.3858829" lon="11.585155"><ele>72.33333333333333</ele><time>2026-05-01T09:58:42.443Z</time></trkpt><trkpt lat="44.3858529" lon="11.5852402"><ele>72.0</ele><time>2026-05-01T09:58:44.441Z</time></trkpt><trkpt lat="44.3858334" lon="11.5853351"><ele>71.85714285714286</ele><time>2026-05-01T09:58:46.444Z</time></trkpt><trkpt lat="44.3858113" lon="11.5854392"><ele>71.71428571428572</ele><time>2026-05-01T09:58:48.442Z</time></trkpt><trkpt lat="44.3857932" lon="11.5855286"><ele>71.57142857142857</ele><time>2026-05-01T09:58:50.442Z</time></trkpt><trkpt lat="44.3857614" lon="11.5856291"><ele>71.42857142857143</ele><time>2026-05-01T09:58:52.442Z</time></trkpt><trkpt lat="44.3857395" lon="11.585718"><ele>71.28571428571428</ele><time>2026-05-01T09:58:54.442Z</time></trkpt><trkpt lat="44.3857204" lon="11.5858053"><ele>71.14285714285714</ele><time>2026-05-01T09:58:56.442Z</time></trkpt><trkpt lat="44.3856847" lon="11.5859023"><ele>71.0</ele><time>2026-05-01T09:58:58.442Z</time></trkpt><trkpt lat="44.3856502" lon="11.585997"><ele>71.0</ele><time>2026-05-01T09:59:00.443Z</time></trkpt><trkpt lat="44.3856009" lon="11.586083"><ele>71.0</ele><time>2026-05-01T09:59:02.443Z</time></trkpt><trkpt lat="44.385548" lon="11.5861702"><ele>71.0</ele><time>2026-05-01T09:59:04.442Z</time></trkpt><trkpt lat="44.3854923" lon="11.5862342"><ele>71.0</ele><time>2026-05-01T09:59:06.443Z</time></trkpt><trkpt lat="44.3854415" lon="11.5862888"><ele>71.0</ele><time>2026-05-01T09:59:10.443Z</time></trkpt><trkpt lat="44.3854249" lon="11.5863967"><ele>71.0</ele><time>2026-05-01T09:59:16.445Z</time></trkpt><trkpt lat="44.385417" lon="11.5865125"><ele>71.6</ele><time>2026-05-01T09:59:19.443Z</time></trkpt><trkpt lat="44.3854173" lon="11.5866271"><ele>72.19999999999999</ele><time>2026-05-01T09:59:21.443Z</time></trkpt><trkpt lat="44.3854226" lon="11.5867596"><ele>72.80000000000001</ele><time>2026-05-01T09:59:23.441Z</time></trkpt><trkpt lat="44.3854307" lon="11.5868891"><ele>73.4</ele><time>2026-05-01T09:59:25.443Z</time></trkpt><trkpt lat="44.3854285" lon="11.5870125"><ele>74.0</ele><time>2026-05-01T09:59:27.441Z</time></trkpt><trkpt lat="44.3853949" lon="11.5871536"><ele>74.0</ele><time>2026-05-01T09:59:29.442Z</time></trkpt><trkpt lat="44.3853551" lon="11.5872963"><ele>74.0</ele><time>2026-05-01T09:59:31.443Z</time></trkpt><trkpt lat="44.3853054" lon="11.5874442"><ele>74.0</ele><time>2026-05-01T09:59:33.442Z</time></trkpt><trkpt lat="44.385264" lon="11.5875832"><ele>74.0</ele><time>2026-05-01T09:59:35.441Z</time></trkpt><trkpt lat="44.3852339" lon="11.5877362"><ele>74.0</ele><time>2026-05-01T09:59:37.442Z</time></trkpt><trkpt lat="44.3852028" lon="11.5878769"><ele>73.83333333333334</ele><time>2026-05-01T09:59:39.441Z</time></trkpt><trkpt lat="44.3851692" lon="11.5879826"><ele>73.66666666666667</ele><time>2026-05-01T09:59:41.442Z</time></trkpt><trkpt lat="44.3851322" lon="11.5880797"><ele>73.5</ele><time>2026-05-01T09:59:44.441Z</time></trkpt><trkpt lat="44.3851428" lon="11.5881819"><ele>73.33333333333333</ele><time>2026-05-01T09:59:49.444Z</time></trkpt><trkpt lat="44.3851288" lon="11.5882868"><ele>73.16666666666666</ele><time>2026-05-01T09:59:51.442Z</time></trkpt><trkpt lat="44.3851218" lon="11.5883995"><ele>73.0</ele><time>2026-05-01T09:59:53.441Z</time></trkpt><trkpt lat="44.3851488" lon="11.5885013"><ele>73.0</ele><time>2026-05-01T09:59:55.443Z</time></trkpt><trkpt lat="44.3852457" lon="11.5885407"><ele>73.0</ele><time>2026-05-01T09:59:58.442Z</time></trkpt><trkpt lat="44.3853291" lon="11.5885389"><ele>73.0</ele><time>2026-05-01T10:00:00.443Z</time></trkpt><trkpt lat="44.3854092" lon="11.5885364"><ele>73.0</ele><time>2026-05-01T10:00:02.443Z</time></trkpt><trkpt lat="44.3855056" lon="11.5885566"><ele>73.0</ele><time>2026-05-01T10:00:04.442Z</time></trkpt><trkpt lat="44.3856101" lon="11.5885761"><ele>73.0</ele><time>2026-05-01T10:00:06.441Z</time></trkpt><trkpt lat="44.3857103" lon="11.5885818"><ele>73.0</ele><time>2026-05-01T10:00:08.443Z</time></trkpt><trkpt lat="44.3858065" lon="11.588559"><ele>73.0</ele><time>2026-05-01T10:00:10.441Z</time></trkpt><trkpt lat="44.3859069" lon="11.5885471"><ele>73.0</ele><time>2026-05-01T10:00:12.443Z</time></trkpt><trkpt lat="44.3860096" lon="11.5885324"><ele>73.0</ele><time>2026-05-01T10:00:14.443Z</time></trkpt><trkpt lat="44.3861216" lon="11.5885264"><ele>73.0</ele><time>2026-05-01T10:00:16.443Z</time></trkpt><trkpt lat="44.3861877" lon="11.5885297"><ele>73.0</ele><time>2026-05-01T10:00:17.443Z</time></trkpt><trkpt lat="44.386254" lon="11.5885385"><ele>73.0</ele><time>2026-05-01T10:00:18.441Z</time></trkpt><trkpt lat="44.3863177" lon="11.5885463"><ele>73.0</ele><time>2026-05-01T10:00:19.443Z</time></trkpt><trkpt lat="44.3864418" lon="11.5885508"><ele>73.0</ele><time>2026-05-01T10:00:21.441Z</time></trkpt><trkpt lat="44.3865057" lon="11.5885528"><ele>73.0</ele><time>2026-05-01T10:00:22.443Z</time></trkpt><trkpt lat="44.3865696" lon="11.5885556"><ele>73.0</ele><time>2026-05-01T10:00:23.442Z</time></trkpt><trkpt lat="44.3866908" lon="11.5885649"><ele>72.6</ele><time>2026-05-01T10:00:25.443Z</time></trkpt><trkpt lat="44.3868049" lon="11.5885668"><ele>72.19999999999999</ele><time>2026-05-01T10:00:27.443Z</time></trkpt><trkpt lat="44.3869128" lon="11.5885606"><ele>71.8</ele><time>2026-05-01T10:00:29.442Z</time></trkpt><trkpt lat="44.387035" lon="11.5885431"><ele>71.39999999999999</ele><time>2026-05-01T10:00:31.442Z</time></trkpt><trkpt lat="44.3871063" lon="11.5885356"><ele>71.0</ele><time>2026-05-01T10:00:32.443Z</time></trkpt><trkpt lat="44.3871774" lon="11.5885297"><ele>70.85714285714286</ele><time>2026-05-01T10:00:33.442Z</time></trkpt><trkpt lat="44.387248" lon="11.5885212"><ele>70.71428571428571</ele><time>2026-05-01T10:00:34.442Z</time></trkpt><trkpt lat="44.3873182" lon="11.5885113"><ele>70.57142857142857</ele><time>2026-05-01T10:00:35.443Z</time></trkpt><trkpt lat="44.3873935" lon="11.5885055"><ele>70.42857142857143</ele><time>2026-05-01T10:00:36.442Z</time></trkpt><trkpt lat="44.3874689" lon="11.5885022"><ele>70.28571428571428</ele><time>2026-05-01T10:00:37.444Z</time></trkpt><trkpt lat="44.3875442" lon="11.588494"><ele>70.14285714285714</ele><time>2026-05-01T10:00:38.443Z</time></trkpt><trkpt lat="44.3876193" lon="11.5884853"><ele>70.0</ele><time>2026-05-01T10:00:39.443Z</time></trkpt><trkpt lat="44.3876906" lon="11.5884741"><ele>70.0</ele><time>2026-05-01T10:00:40.442Z</time></trkpt><trkpt lat="44.3877595" lon="11.5884646"><ele>70.0</ele><time>2026-05-01T10:00:41.443Z</time></trkpt><trkpt lat="44.3878253" lon="11.5884522"><ele>70.0</ele><time>2026-05-01T10:00:42.442Z</time></trkpt><trkpt lat="44.3878904" lon="11.5884453"><ele>70.0</ele><time>2026-05-01T10:00:43.444Z</time></trkpt><trkpt lat="44.3879565" lon="11.5884416"><ele>70.0</ele><time>2026-05-01T10:00:44.442Z</time></trkpt><trkpt lat="44.3880255" lon="11.5884368"><ele>70.0</ele><time>2026-05-01T10:00:45.442Z</time></trkpt><trkpt lat="44.3880887" lon="11.588431"><ele>70.0</ele><time>2026-05-01T10:00:46.444Z</time></trkpt><trkpt lat="44.3881529" lon="11.588424"><ele>69.85714285714286</ele><time>2026-05-01T10:00:47.444Z</time></trkpt><trkpt lat="44.3882189" lon="11.5884159"><ele>69.71428571428572</ele><time>2026-05-01T10:00:48.442Z</time></trkpt><trkpt lat="44.3882866" lon="11.5884119"><ele>69.57142857142857</ele><time>2026-05-01T10:00:49.443Z</time></trkpt><trkpt lat="44.3883563" lon="11.5884104"><ele>69.42857142857143</ele><time>2026-05-01T10:00:50.443Z</time></trkpt><trkpt lat="44.3884276" lon="11.5884091"><ele>69.28571428571429</ele><time>2026-05-01T10:00:51.443Z</time></trkpt><trkpt lat="44.3884994" lon="11.5884048"><ele>69.14285714285714</ele><time>2026-05-01T10:00:52.443Z</time></trkpt><trkpt lat="44.3885688" lon="11.5883971"><ele>69.0</ele><time>2026-05-01T10:00:53.442Z</time></trkpt><trkpt lat="44.3886388" lon="11.5883898"><ele>69.0</ele><time>2026-05-01T10:00:54.443Z</time></trkpt><trkpt lat="44.3887035" lon="11.5883815"><ele>69.0</ele><time>2026-05-01T10:00:55.443Z</time></trkpt><trkpt lat="44.3887681" lon="11.5883717"><ele>69.0</ele><time>2026-05-01T10:00:56.442Z</time></trkpt><trkpt lat="44.3888317" lon="11.5883622"><ele>69.0</ele><time>2026-05-01T10:00:57.441Z</time></trkpt><trkpt lat="44.3888949" lon="11.5883548"><ele>69.0</ele><time>2026-05-01T10:00:58.44Z</time></trkpt><trkpt lat="44.3889581" lon="11.5883436"><ele>69.0</ele><time>2026-05-01T10:00:59.444Z</time></trkpt><trkpt lat="44.3890725" lon="11.5883296"><ele>69.0</ele><time>2026-05-01T10:01:01.442Z</time></trkpt><trkpt lat="44.3891783" lon="11.5883151"><ele>69.25</ele><time>2026-05-01T10:01:03.441Z</time></trkpt><trkpt lat="44.3892852" lon="11.5883082"><ele>69.5</ele><time>2026-05-01T10:01:05.44Z</time></trkpt><trkpt lat="44.3893998" lon="11.5883211"><ele>69.75</ele><time>2026-05-01T10:01:07.441Z</time></trkpt><trkpt lat="44.3895144" lon="11.5883545"><ele>70.0</ele><time>2026-05-01T10:01:09.44Z</time></trkpt><trkpt lat="44.3896316" lon="11.5883949"><ele>70.75</ele><time>2026-05-01T10:01:11.441Z</time></trkpt><trkpt lat="44.3897464" lon="11.5884514"><ele>71.5</ele><time>2026-05-01T10:01:13.44Z</time></trkpt><trkpt lat="44.3898641" lon="11.5885054"><ele>72.25</ele><time>2026-05-01T10:01:15.44Z</time></trkpt><trkpt lat="44.389983" lon="11.5885529"><ele>73.0</ele><time>2026-05-01T10:01:17.443Z</time></trkpt><trkpt lat="44.3900996" lon="11.5886013"><ele>73.0</ele><time>2026-05-01T10:01:19.443Z</time></trkpt><trkpt lat="44.3902244" lon="11.5886343"><ele>73.0</ele><time>2026-05-01T10:01:21.443Z</time></trkpt><trkpt lat="44.3902883" lon="11.5886425"><ele>73.0</ele><time>2026-05-01T10:01:22.442Z</time></trkpt><trkpt lat="44.3903516" lon="11.5886481"><ele>73.0</ele><time>2026-05-01T10:01:23.442Z</time></trkpt><trkpt lat="44.3904148" lon="11.588653"><ele>73.0</ele><time>2026-05-01T10:01:24.443Z</time></trkpt><trkpt lat="44.3904827" lon="11.5886534"><ele>73.0</ele><time>2026-05-01T10:01:25.442Z</time></trkpt><trkpt lat="44.3905539" lon="11.5886478"><ele>72.5</ele><time>2026-05-01T10:01:26.443Z</time></trkpt><trkpt lat="44.390623" lon="11.5886454"><ele>72.0</ele><time>2026-05-01T10:01:27.443Z</time></trkpt><trkpt lat="44.3906872" lon="11.5886394"><ele>71.5</ele><time>2026-05-01T10:01:28.442Z</time></trkpt><trkpt lat="44.3907518" lon="11.5886302"><ele>71.0</ele><time>2026-05-01T10:01:29.442Z</time></trkpt><trkpt lat="44.3908738" lon="11.5886173"><ele>70.5</ele><time>2026-05-01T10:01:31.444Z</time></trkpt><trkpt lat="44.3909416" lon="11.5886104"><ele>70.0</ele><time>2026-05-01T10:01:32.444Z</time></trkpt><trkpt lat="44.3910084" lon="11.5886053"><ele>70.0</ele><time>2026-05-01T10:01:33.442Z</time></trkpt><trkpt lat="44.3910737" lon="11.5885989"><ele>70.0</ele><time>2026-05-01T10:01:34.443Z</time></trkpt><trkpt lat="44.3911388" lon="11.5885965"><ele>70.0</ele><time>2026-05-01T10:01:35.442Z</time></trkpt><trkpt lat="44.3912047" lon="11.5885933"><ele>70.0</ele><time>2026-05-01T10:01:36.443Z</time></trkpt><trkpt lat="44.3912717" lon="11.5885872"><ele>70.0</ele><time>2026-05-01T10:01:37.443Z</time></trkpt><trkpt lat="44.3913352" lon="11.5885893"><ele>70.0</ele><time>2026-05-01T10:01:38.443Z</time></trkpt><trkpt lat="44.3914011" lon="11.5885847"><ele>70.0</ele><time>2026-05-01T10:01:39.441Z</time></trkpt><trkpt lat="44.391466" lon="11.5885777"><ele>70.75</ele><time>2026-05-01T10:01:40.443Z</time></trkpt><trkpt lat="44.3915872" lon="11.5885546"><ele>71.5</ele><time>2026-05-01T10:01:42.442Z</time></trkpt><trkpt lat="44.3917052" lon="11.5885508"><ele>72.25</ele><time>2026-05-01T10:01:44.443Z</time></trkpt><trkpt lat="44.3918276" lon="11.5885633"><ele>73.0</ele><time>2026-05-01T10:01:46.444Z</time></trkpt><trkpt lat="44.3919409" lon="11.5886018"><ele>73.0</ele><time>2026-05-01T10:01:48.443Z</time></trkpt><trkpt lat="44.392049" lon="11.5886504"><ele>73.0</ele><time>2026-05-01T10:01:50.444Z</time></trkpt><trkpt lat="44.3921432" lon="11.5887028"><ele>73.0</ele><time>2026-05-01T10:01:52.444Z</time></trkpt><trkpt lat="44.392246" lon="11.5887537"><ele>73.0</ele><time>2026-05-01T10:01:54.443Z</time></trkpt><trkpt lat="44.3923497" lon="11.5887982"><ele>73.0</ele><time>2026-05-01T10:01:56.442Z</time></trkpt><trkpt lat="44.3924574" lon="11.5888358"><ele>72.2</ele><time>2026-05-01T10:01:58.443Z</time></trkpt><trkpt lat="44.3925654" lon="11.5888711"><ele>71.4</ele><time>2026-05-01T10:02:00.442Z</time></trkpt><trkpt lat="44.3926745" lon="11.5889083"><ele>70.60000000000001</ele><time>2026-05-01T10:02:02.442Z</time></trkpt><trkpt lat="44.392764" lon="11.5889235"><ele>69.8</ele><time>2026-05-01T10:02:04.443Z</time></trkpt><trkpt lat="44.3928451" lon="11.5889405"><ele>69.0</ele><time>2026-05-01T10:02:06.443Z</time></trkpt><trkpt lat="44.3929307" lon="11.5889516"><ele>69.60000000000001</ele><time>2026-05-01T10:02:08.442Z</time></trkpt><trkpt lat="44.3930177" lon="11.588953"><ele>70.2</ele><time>2026-05-01T10:02:10.442Z</time></trkpt><trkpt lat="44.3931092" lon="11.588947"><ele>70.80000000000001</ele><time>2026-05-01T10:02:12.443Z</time></trkpt><trkpt lat="44.393202" lon="11.5889432"><ele>71.4</ele><time>2026-05-01T10:02:14.442Z</time></trkpt><trkpt lat="44.3933009" lon="11.5889105"><ele>72.0</ele><time>2026-05-01T10:02:16.445Z</time></trkpt><trkpt lat="44.3933952" lon="11.5888739"><ele>72.0</ele><time>2026-05-01T10:02:18.443Z</time></trkpt><trkpt lat="44.3934935" lon="11.5888354"><ele>72.0</ele><time>2026-05-01T10:02:20.444Z</time></trkpt><trkpt lat="44.3935991" lon="11.5888136"><ele>72.0</ele><time>2026-05-01T10:02:22.444Z</time></trkpt><trkpt lat="44.3937038" lon="11.5888065"><ele>72.0</ele><time>2026-05-01T10:02:24.445Z</time></trkpt><trkpt lat="44.3938038" lon="11.5888294"><ele>72.0</ele><time>2026-05-01T10:02:26.442Z</time></trkpt><trkpt lat="44.3938952" lon="11.5888502"><ele>73.2</ele><time>2026-05-01T10:02:28.441Z</time></trkpt><trkpt lat="44.3939772" lon="11.5888723"><ele>74.4</ele><time>2026-05-01T10:02:30.443Z</time></trkpt><trkpt lat="44.3940616" lon="11.5889021"><ele>75.6</ele><time>2026-05-01T10:02:32.443Z</time></trkpt><trkpt lat="44.3941621" lon="11.5889319"><ele>76.8</ele><time>2026-05-01T10:02:34.443Z</time></trkpt><trkpt lat="44.3942513" lon="11.5889976"><ele>78.0</ele><time>2026-05-01T10:02:36.443Z</time></trkpt><trkpt lat="44.394359" lon="11.5890712"><ele>78.0</ele><time>2026-05-01T10:02:38.443Z</time></trkpt><trkpt lat="44.3944589" lon="11.5891278"><ele>78.0</ele><time>2026-05-01T10:02:40.442Z</time></trkpt><trkpt lat="44.3945548" lon="11.589184"><ele>78.0</ele><time>2026-05-01T10:02:42.441Z</time></trkpt><trkpt lat="44.3946451" lon="11.5892456"><ele>78.0</ele><time>2026-05-01T10:02:44.443Z</time></trkpt><trkpt lat="44.3947407" lon="11.5892973"><ele>78.0</ele><time>2026-05-01T10:02:46.444Z</time></trkpt><trkpt lat="44.3948234" lon="11.5893448"><ele>77.66666666666667</ele><time>2026-05-01T10:02:48.442Z</time></trkpt><trkpt lat="44.3949084" lon="11.5893846"><ele>77.33333333333333</ele><time>2026-05-01T10:02:50.444Z</time></trkpt><trkpt lat="44.3949883" lon="11.5894164"><ele>77.0</ele><time>2026-05-01T10:02:52.444Z</time></trkpt><trkpt lat="44.3950785" lon="11.5894448"><ele>76.66666666666666</ele><time>2026-05-01T10:02:54.444Z</time></trkpt><trkpt lat="44.3951653" lon="11.5894684"><ele>76.33333333333333</ele><time>2026-05-01T10:02:56.442Z</time></trkpt><trkpt lat="44.3952567" lon="11.5894883"><ele>76.0</ele><time>2026-05-01T10:02:58.443Z</time></trkpt><trkpt lat="44.3953483" lon="11.589515"><ele>76.0</ele><time>2026-05-01T10:03:00.442Z</time></trkpt><trkpt lat="44.3954233" lon="11.5895383"><ele>76.0</ele><time>2026-05-01T10:03:02.443Z</time></trkpt><trkpt lat="44.3955083" lon="11.58956"><ele>76.0</ele><time>2026-05-01T10:03:04.443Z</time></trkpt><trkpt lat="44.39558" lon="11.5895567"><ele>76.0</ele><time>2026-05-01T10:03:06.443Z</time></trkpt><trkpt lat="44.3956383" lon="11.5894883"><ele>76.0</ele><time>2026-05-01T10:03:08.443Z</time></trkpt><trkpt lat="44.39569" lon="11.5893817"><ele>76.0</ele><time>2026-05-01T10:03:10.443Z</time></trkpt><trkpt lat="44.3957517" lon="11.5892883"><ele>77.6</ele><time>2026-05-01T10:03:12.442Z</time></trkpt><trkpt lat="44.3958283" lon="11.589215"><ele>79.19999999999999</ele><time>2026-05-01T10:03:14.442Z</time></trkpt><trkpt lat="44.3958983" lon="11.5891333"><ele>80.80000000000001</ele><time>2026-05-01T10:03:16.445Z</time></trkpt><trkpt lat="44.395975" lon="11.589055"><ele>82.4</ele><time>2026-05-01T10:03:18.444Z</time></trkpt><trkpt lat="44.39605" lon="11.588985"><ele>84.0</ele><time>2026-05-01T10:03:20.443Z</time></trkpt><trkpt lat="44.3961183" lon="11.588925"><ele>84.0</ele><time>2026-05-01T10:03:22.443Z</time></trkpt><trkpt lat="44.3961883" lon="11.5888567"><ele>84.0</ele><time>2026-05-01T10:03:24.443Z</time></trkpt><trkpt lat="44.3962483" lon="11.5887617"><ele>84.0</ele><time>2026-05-01T10:03:26.443Z</time></trkpt><trkpt lat="44.3963017" lon="11.5886517"><ele>84.0</ele><time>2026-05-01T10:03:28.443Z</time></trkpt><trkpt lat="44.3963517" lon="11.5885383"><ele>84.0</ele><time>2026-05-01T10:03:30.443Z</time></trkpt><trkpt lat="44.39639" lon="11.58842"><ele>84.16666666666667</ele><time>2026-05-01T10:03:32.443Z</time></trkpt><trkpt lat="44.3963967" lon="11.5882983"><ele>84.33333333333333</ele><time>2026-05-01T10:03:34.442Z</time></trkpt><trkpt lat="44.39639" lon="11.5881917"><ele>84.5</ele><time>2026-05-01T10:03:36.442Z</time></trkpt><trkpt lat="44.3963917" lon="11.5880917"><ele>84.66666666666666</ele><time>2026-05-01T10:03:38.443Z</time></trkpt><trkpt lat="44.3964033" lon="11.58799"><ele>84.83333333333333</ele><time>2026-05-01T10:03:40.443Z</time></trkpt><trkpt lat="44.3964333" lon="11.5878783"><ele>85.0</ele><time>2026-05-01T10:03:42.443Z</time></trkpt><trkpt lat="44.396485" lon="11.5877767"><ele>85.0</ele><time>2026-05-01T10:03:44.443Z</time></trkpt><trkpt lat="44.3965617" lon="11.5876717"><ele>85.0</ele><time>2026-05-01T10:03:46.444Z</time></trkpt><trkpt lat="44.39666" lon="11.5876017"><ele>85.0</ele><time>2026-05-01T10:03:48.444Z</time></trkpt><trkpt lat="44.3967717" lon="11.5875767"><ele>85.0</ele><time>2026-05-01T10:03:50.442Z</time></trkpt><trkpt lat="44.3968817" lon="11.58758"><ele>85.0</ele><time>2026-05-01T10:03:52.443Z</time></trkpt><trkpt lat="44.3969883" lon="11.5876"><ele>85.0</ele><time>2026-05-01T10:03:54.442Z</time></trkpt><trkpt lat="44.397055" lon="11.587635"><ele>85.0</ele><time>2026-05-01T10:03:55.443Z</time></trkpt><trkpt lat="44.3971183" lon="11.5876767"><ele>85.0</ele><time>2026-05-01T10:03:56.443Z</time></trkpt><trkpt lat="44.3971783" lon="11.58772"><ele>85.0</ele><time>2026-05-01T10:03:57.442Z</time></trkpt><trkpt lat="44.39724" lon="11.5877583"><ele>85.0</ele><time>2026-05-01T10:03:58.443Z</time></trkpt><trkpt lat="44.3973033" lon="11.5877983"><ele>85.0</ele><time>2026-05-01T10:03:59.442Z</time></trkpt><trkpt lat="44.3973683" lon="11.5878367"><ele>85.0</ele><time>2026-05-01T10:04:00.44Z</time></trkpt><trkpt lat="44.3974333" lon="11.5878733"><ele>84.57142857142857</ele><time>2026-05-01T10:04:01.441Z</time></trkpt><trkpt lat="44.3974967" lon="11.5879117"><ele>84.14285714285714</ele><time>2026-05-01T10:04:02.444Z</time></trkpt><trkpt lat="44.3975617" lon="11.5879483"><ele>83.71428571428571</ele><time>2026-05-01T10:04:03.443Z</time></trkpt><trkpt lat="44.3976267" lon="11.5879833"><ele>83.28571428571428</ele><time>2026-05-01T10:04:04.443Z</time></trkpt><trkpt lat="44.39769" lon="11.58802"><ele>82.85714285714286</ele><time>2026-05-01T10:04:05.443Z</time></trkpt><trkpt lat="44.3977517" lon="11.58806"><ele>82.42857142857142</ele><time>2026-05-01T10:04:06.443Z</time></trkpt><trkpt lat="44.3978183" lon="11.5881017"><ele>82.0</ele><time>2026-05-01T10:04:07.444Z</time></trkpt><trkpt lat="44.3978817" lon="11.58815"><ele>82.0</ele><time>2026-05-01T10:04:08.442Z</time></trkpt><trkpt lat="44.3979433" lon="11.5881917"><ele>82.0</ele><time>2026-05-01T10:04:09.442Z</time></trkpt><trkpt lat="44.398005" lon="11.58823"><ele>82.0</ele><time>2026-05-01T10:04:10.443Z</time></trkpt><trkpt lat="44.398065" lon="11.5882717"><ele>82.0</ele><time>2026-05-01T10:04:11.442Z</time></trkpt><trkpt lat="44.3981733" lon="11.5883483"><ele>82.0</ele><time>2026-05-01T10:04:13.444Z</time></trkpt><trkpt lat="44.39829" lon="11.5884183"><ele>81.33333333333333</ele><time>2026-05-01T10:04:15.442Z</time></trkpt><trkpt lat="44.3983517" lon="11.5884567"><ele>80.66666666666666</ele><time>2026-05-01T10:04:16.443Z</time></trkpt><trkpt lat="44.39847" lon="11.5885133"><ele>80.0</ele><time>2026-05-01T10:04:18.442Z</time></trkpt><trkpt lat="44.3985267" lon="11.5885533"><ele>79.33333333333333</ele><time>2026-05-01T10:04:19.444Z</time></trkpt><trkpt lat="44.3985933" lon="11.5885817"><ele>78.66666666666667</ele><time>2026-05-01T10:04:20.442Z</time></trkpt><trkpt lat="44.3986533" lon="11.58862"><ele>78.0</ele><time>2026-05-01T10:04:21.441Z</time></trkpt><trkpt lat="44.39871" lon="11.5886583"><ele>77.85714285714286</ele><time>2026-05-01T10:04:22.441Z</time></trkpt><trkpt lat="44.3987733" lon="11.5887017"><ele>77.71428571428571</ele><time>2026-05-01T10:04:23.44Z</time></trkpt><trkpt lat="44.3988367" lon="11.5887383"><ele>77.57142857142857</ele><time>2026-05-01T10:04:24.44Z</time></trkpt><trkpt lat="44.3988983" lon="11.5887733"><ele>77.42857142857143</ele><time>2026-05-01T10:04:25.439Z</time></trkpt><trkpt lat="44.3989633" lon="11.588805"><ele>77.28571428571428</ele><time>2026-05-01T10:04:26.438Z</time></trkpt><trkpt lat="44.39903" lon="11.588835"><ele>77.14285714285714</ele><time>2026-05-01T10:04:27.44Z</time></trkpt><trkpt lat="44.399095" lon="11.588875"><ele>77.0</ele><time>2026-05-01T10:04:28.438Z</time></trkpt><trkpt lat="44.3991583" lon="11.58892"><ele>77.0</ele><time>2026-05-01T10:04:29.44Z</time></trkpt><trkpt lat="44.3992183" lon="11.5889733"><ele>77.0</ele><time>2026-05-01T10:04:30.439Z</time></trkpt><trkpt lat="44.3992817" lon="11.5890233"><ele>77.0</ele><time>2026-05-01T10:04:31.441Z</time></trkpt><trkpt lat="44.3993883" lon="11.5891067"><ele>77.0</ele><time>2026-05-01T10:04:33.44Z</time></trkpt><trkpt lat="44.39944" lon="11.5891633"><ele>77.0</ele><time>2026-05-01T10:04:34.441Z</time></trkpt><trkpt lat="44.3994967" lon="11.5892717"><ele>77.0</ele><time>2026-05-01T10:04:36.438Z</time></trkpt><trkpt lat="44.3995167" lon="11.5893633"><ele>77.0</ele><time>2026-05-01T10:04:38.439Z</time></trkpt><trkpt lat="44.3995467" lon="11.5894883"><ele>77.0</ele><time>2026-05-01T10:04:41.438Z</time></trkpt><trkpt lat="44.3995683" lon="11.5895983"><ele>77.0</ele><time>2026-05-01T10:04:43.441Z</time></trkpt><trkpt lat="44.399555" lon="11.5897133"><ele>77.0</ele><time>2026-05-01T10:04:45.439Z</time></trkpt><trkpt lat="44.39954" lon="11.5898367"><ele>77.0</ele><time>2026-05-01T10:04:47.441Z</time></trkpt><trkpt lat="44.3995217" lon="11.5899383"><ele>77.0</ele><time>2026-05-01T10:04:49.439Z</time></trkpt><trkpt lat="44.399505" lon="11.590045"><ele>77.5</ele><time>2026-05-01T10:04:52.439Z</time></trkpt><trkpt lat="44.3994817" lon="11.590155"><ele>78.0</ele><time>2026-05-01T10:04:55.44Z</time></trkpt><trkpt lat="44.3994467" lon="11.5902433"><ele>78.5</ele><time>2026-05-01T10:04:57.44Z</time></trkpt><trkpt lat="44.399405" lon="11.5903433"><ele>79.0</ele><time>2026-05-01T10:04:59.439Z</time></trkpt><trkpt lat="44.3993717" lon="11.5904517"><ele>79.5</ele><time>2026-05-01T10:05:01.44Z</time></trkpt><trkpt lat="44.3993367" lon="11.5905533"><ele>80.0</ele><time>2026-05-01T10:05:03.44Z</time></trkpt><trkpt lat="44.3992967" lon="11.5906283"><ele>80.0</ele><time>2026-05-01T10:05:05.44Z</time></trkpt><trkpt lat="44.399215" lon="11.59061"><ele>80.0</ele><time>2026-05-01T10:05:09.439Z</time></trkpt><trkpt lat="44.3991533" lon="11.5905683"><ele>80.0</ele><time>2026-05-01T10:05:13.441Z</time></trkpt><trkpt lat="44.39901" lon="11.5905217"><ele>80.0</ele><time>2026-05-01T10:05:15.44Z</time></trkpt><trkpt lat="44.398895" lon="11.5904767"><ele>80.0</ele><time>2026-05-01T10:05:17.441Z</time></trkpt><trkpt lat="44.3988133" lon="11.590435"><ele>80.16666666666667</ele><time>2026-05-01T10:05:19.441Z</time></trkpt><trkpt lat="44.3987417" lon="11.5904083"><ele>80.33333333333334</ele><time>2026-05-01T10:05:21.44Z</time></trkpt><trkpt lat="44.3986617" lon="11.5903817"><ele>80.5</ele><time>2026-05-01T10:05:23.439Z</time></trkpt><trkpt lat="44.3985817" lon="11.5903367"><ele>80.66666666666667</ele><time>2026-05-01T10:05:25.44Z</time></trkpt><trkpt lat="44.398495" lon="11.5902567"><ele>80.83333333333333</ele><time>2026-05-01T10:05:27.439Z</time></trkpt><trkpt lat="44.3984067" lon="11.5902183"><ele>81.0</ele><time>2026-05-01T10:05:29.439Z</time></trkpt><trkpt lat="44.3983233" lon="11.5901417"><ele>81.33333333333333</ele><time>2026-05-01T10:05:31.441Z</time></trkpt><trkpt lat="44.398245" lon="11.5900817"><ele>81.66666666666667</ele><time>2026-05-01T10:05:33.441Z</time></trkpt><trkpt lat="44.398175" lon="11.5900283"><ele>82.0</ele><time>2026-05-01T10:05:35.44Z</time></trkpt><trkpt lat="44.3981217" lon="11.5899633"><ele>82.33333333333334</ele><time>2026-05-01T10:05:37.441Z</time></trkpt><trkpt lat="44.39805" lon="11.5899383"><ele>82.66666666666667</ele><time>2026-05-01T10:05:39.44Z</time></trkpt><trkpt lat="44.397975" lon="11.5898933"><ele>83.0</ele><time>2026-05-01T10:05:41.44Z</time></trkpt><trkpt lat="44.397915" lon="11.58986"><ele>83.0</ele><time>2026-05-01T10:05:43.441Z</time></trkpt><trkpt lat="44.3978433" lon="11.5898267"><ele>83.0</ele><time>2026-05-01T10:05:46.439Z</time></trkpt><trkpt lat="44.3977833" lon="11.589865"><ele>83.0</ele><time>2026-05-01T10:05:49.441Z</time></trkpt><trkpt lat="44.3977583" lon="11.589975"><ele>83.0</ele><time>2026-05-01T10:05:52.441Z</time></trkpt><trkpt lat="44.3977233" lon="11.5900817"><ele>83.0</ele><time>2026-05-01T10:05:55.441Z</time></trkpt><trkpt lat="44.3976917" lon="11.5902033"><ele>83.0</ele><time>2026-05-01T10:05:58.441Z</time></trkpt><trkpt lat="44.3976433" lon="11.5903117"><ele>83.0</ele><time>2026-05-01T10:06:01.442Z</time></trkpt><trkpt lat="44.3976083" lon="11.5904017"><ele>83.0</ele><time>2026-05-01T10:06:03.441Z</time></trkpt><trkpt lat="44.397575" lon="11.59051"><ele>83.0</ele><time>2026-05-01T10:06:05.439Z</time></trkpt><trkpt lat="44.3975367" lon="11.5906033"><ele>83.0</ele><time>2026-05-01T10:06:07.441Z</time></trkpt><trkpt lat="44.3975117" lon="11.5907167"><ele>83.0</ele><time>2026-05-01T10:06:09.441Z</time></trkpt><trkpt lat="44.3974833" lon="11.59084"><ele>83.0</ele><time>2026-05-01T10:06:12.44Z</time></trkpt><trkpt lat="44.3974617" lon="11.59094"><ele>83.0</ele><time>2026-05-01T10:06:14.441Z</time></trkpt><trkpt lat="44.397425" lon="11.59102"><ele>83.0</ele><time>2026-05-01T10:06:16.44Z</time></trkpt><trkpt lat="44.3974017" lon="11.5911283"><ele>83.0</ele><time>2026-05-01T10:06:19.44Z</time></trkpt><trkpt lat="44.397395" lon="11.5912167"><ele>83.0</ele><time>2026-05-01T10:06:22.443Z</time></trkpt><trkpt lat="44.397385" lon="11.59131"><ele>83.0</ele><time>2026-05-01T10:06:25.442Z</time></trkpt><trkpt lat="44.397315" lon="11.59136"><ele>83.0</ele><time>2026-05-01T10:06:29.439Z</time></trkpt><trkpt lat="44.3972417" lon="11.5913367"><ele>83.0</ele><time>2026-05-01T10:06:31.441Z</time></trkpt><trkpt lat="44.3971783" lon="11.5913067"><ele>82.4</ele><time>2026-05-01T10:06:33.44Z</time></trkpt><trkpt lat="44.3971" lon="11.5912783"><ele>81.80000000000001</ele><time>2026-05-01T10:06:36.441Z</time></trkpt><trkpt lat="44.397015" lon="11.591235"><ele>81.2</ele><time>2026-05-01T10:06:39.441Z</time></trkpt><trkpt lat="44.3969367" lon="11.5912017"><ele>80.6</ele><time>2026-05-01T10:06:42.44Z</time></trkpt><trkpt lat="44.39682" lon="11.591135"><ele>80.0</ele><time>2026-05-01T10:06:53.442Z</time></trkpt><trkpt lat="44.396725" lon="11.59115"><ele>80.0</ele><time>2026-05-01T10:06:56.44Z</time></trkpt><trkpt lat="44.396645" lon="11.5911383"><ele>80.0</ele><time>2026-05-01T10:06:58.441Z</time></trkpt><trkpt lat="44.3965717" lon="11.5911117"><ele>80.0</ele><time>2026-05-01T10:07:00.441Z</time></trkpt><trkpt lat="44.3964967" lon="11.5910867"><ele>80.0</ele><time>2026-05-01T10:07:02.44Z</time></trkpt><trkpt lat="44.396425" lon="11.5910817"><ele>80.0</ele><time>2026-05-01T10:07:04.441Z</time></trkpt><trkpt lat="44.39634" lon="11.5910967"><ele>80.0</ele><time>2026-05-01T10:07:06.44Z</time></trkpt><trkpt lat="44.3962617" lon="11.5911133"><ele>79.0</ele><time>2026-05-01T10:07:08.441Z</time></trkpt><trkpt lat="44.3961917" lon="11.5911433"><ele>78.0</ele><time>2026-05-01T10:07:10.441Z</time></trkpt><trkpt lat="44.3961167" lon="11.591185"><ele>77.0</ele><time>2026-05-01T10:07:12.441Z</time></trkpt><trkpt lat="44.3960267" lon="11.591215"><ele>76.0</ele><time>2026-05-01T10:07:14.441Z</time></trkpt><trkpt lat="44.395925" lon="11.5912067"><ele>75.0</ele><time>2026-05-01T10:07:16.443Z</time></trkpt><trkpt lat="44.3958333" lon="11.5911917"><ele>74.0</ele><time>2026-05-01T10:07:18.443Z</time></trkpt><trkpt lat="44.3957583" lon="11.5911617"><ele>74.0</ele><time>2026-05-01T10:07:20.442Z</time></trkpt><trkpt lat="44.3957033" lon="11.5911167"><ele>74.0</ele><time>2026-05-01T10:07:22.442Z</time></trkpt><trkpt lat="44.3956717" lon="11.5910267"><ele>74.0</ele><time>2026-05-01T10:07:27.44Z</time></trkpt><trkpt lat="44.3956817" lon="11.5909317"><ele>74.0</ele><time>2026-05-01T10:08:30.442Z</time></trkpt><trkpt lat="44.39567" lon="11.5908217"><ele>74.0</ele><time>2026-05-01T10:08:50.444Z</time></trkpt><trkpt lat="44.39568" lon="11.59092"><ele>74.0</ele><time>2026-05-01T10:08:54.442Z</time></trkpt><trkpt lat="44.395695" lon="11.5908217"><ele>74.0</ele><time>2026-05-01T10:09:25.441Z</time></trkpt><trkpt lat="44.395665" lon="11.5909067"><ele>74.0</ele><time>2026-05-01T10:11:20.442Z</time></trkpt><trkpt lat="44.3956775" lon="11.5908004"><ele>74.0</ele><time>2026-05-01T10:11:57.442Z</time></trkpt><trkpt lat="44.3956541" lon="11.5907114"><ele>74.0</ele><time>2026-05-01T10:12:03.441Z</time></trkpt><trkpt lat="44.3957046" lon="11.5907713"><ele>74.0</ele><time>2026-05-01T10:12:20.44Z</time></trkpt><trkpt lat="44.3957417" lon="11.5908442"><ele>74.0</ele><time>2026-05-01T10:12:26.442Z</time></trkpt><trkpt lat="44.3956771" lon="11.5909363"><ele>74.0</ele><time>2026-05-01T10:13:03.442Z</time></trkpt><trkpt lat="44.3956705" lon="11.5910244"><ele>74.0</ele><time>2026-05-01T10:13:10.442Z</time></trkpt><trkpt lat="44.3956724" lon="11.5909259"><ele>74.0</ele><time>2026-05-01T10:24:00.442Z</time></trkpt><trkpt lat="44.3956764" lon="11.5908123"><ele>74.0</ele><time>2026-05-01T10:24:07.442Z</time></trkpt><trkpt lat="44.3956144" lon="11.5907322"><ele>74.0</ele><time>2026-05-01T10:24:35.441Z</time></trkpt><trkpt lat="44.395699" lon="11.5907484"><ele>74.0</ele><time>2026-05-01T10:24:47.442Z</time></trkpt><trkpt lat="44.3957649" lon="11.5906993"><ele>74.0</ele><time>2026-05-01T10:24:48.442Z</time></trkpt><trkpt lat="44.3958326" lon="11.5906454"><ele>74.0</ele><time>2026-05-01T10:24:49.441Z</time></trkpt><trkpt lat="44.3959169" lon="11.5905575"><ele>74.0</ele><time>2026-05-01T10:24:51.442Z</time></trkpt><trkpt lat="44.3958641" lon="11.5906772"><ele>74.0</ele><time>2026-05-01T10:24:56.441Z</time></trkpt><trkpt lat="44.3958311" lon="11.5907544"><ele>74.0</ele><time>2026-05-01T10:24:58.439Z</time></trkpt><trkpt lat="44.3957893" lon="11.5908383"><ele>74.0</ele><time>2026-05-01T10:25:02.44Z</time></trkpt><trkpt lat="44.3957112" lon="11.5909345"><ele>74.0</ele><time>2026-05-01T10:26:52.442Z</time></trkpt><trkpt lat="44.3956976" lon="11.5910232"><ele>74.0</ele><time>2026-05-01T10:26:55.441Z</time></trkpt><trkpt lat="44.3956677" lon="11.5911096"><ele>74.0</ele><time>2026-05-01T10:27:00.441Z</time></trkpt><trkpt lat="44.39558" lon="11.5911383"><ele>74.0</ele><time>2026-05-01T10:27:19.441Z</time></trkpt><trkpt lat="44.3954917" lon="11.5911117"><ele>74.0</ele><time>2026-05-01T10:27:38.441Z</time></trkpt><trkpt lat="44.39543" lon="11.59109"><ele>74.0</ele><time>2026-05-01T10:27:42.442Z</time></trkpt><trkpt lat="44.39536" lon="11.5910767"><ele>74.0</ele><time>2026-05-01T10:27:47.442Z</time></trkpt><trkpt lat="44.3952767" lon="11.5910617"><ele>74.0</ele><time>2026-05-01T10:27:51.442Z</time></trkpt><trkpt lat="44.3952067" lon="11.5910333"><ele>72.83333333333334</ele><time>2026-05-01T10:27:54.442Z</time></trkpt><trkpt lat="44.395145" lon="11.5910017"><ele>71.66666666666667</ele><time>2026-05-01T10:27:58.441Z</time></trkpt><trkpt lat="44.3950617" lon="11.5909683"><ele>70.5</ele><time>2026-05-01T10:28:01.443Z</time></trkpt><trkpt lat="44.3949933" lon="11.5909267"><ele>69.33333333333333</ele><time>2026-05-01T10:28:04.443Z</time></trkpt><trkpt lat="44.39493" lon="11.5908517"><ele>68.16666666666666</ele><time>2026-05-01T10:28:49.441Z</time></trkpt><trkpt lat="44.3948533" lon="11.59081"><ele>67.0</ele><time>2026-05-01T10:28:54.441Z</time></trkpt><trkpt lat="44.3947967" lon="11.5907667"><ele>67.0</ele><time>2026-05-01T10:28:58.44Z</time></trkpt><trkpt lat="44.3947333" lon="11.5907033"><ele>67.0</ele><time>2026-05-01T10:29:02.441Z</time></trkpt><trkpt lat="44.39467" lon="11.5906517"><ele>67.0</ele><time>2026-05-01T10:29:05.44Z</time></trkpt><trkpt lat="44.394595" lon="11.5905917"><ele>67.0</ele><time>2026-05-01T10:29:08.441Z</time></trkpt><trkpt lat="44.39454" lon="11.590545"><ele>67.0</ele><time>2026-05-01T10:29:10.441Z</time></trkpt><trkpt lat="44.3944583" lon="11.5904883"><ele>67.0</ele><time>2026-05-01T10:29:13.441Z</time></trkpt><trkpt lat="44.3944" lon="11.590455"><ele>67.0</ele><time>2026-05-01T10:29:15.44Z</time></trkpt><trkpt lat="44.3943433" lon="11.5904083"><ele>67.0</ele><time>2026-05-01T10:29:17.441Z</time></trkpt><trkpt lat="44.3942783" lon="11.59036"><ele>67.0</ele><time>2026-05-01T10:29:19.442Z</time></trkpt><trkpt lat="44.3942167" lon="11.5903183"><ele>67.0</ele><time>2026-05-01T10:29:21.44Z</time></trkpt><trkpt lat="44.3941367" lon="11.5902717"><ele>67.0</ele><time>2026-05-01T10:29:24.441Z</time></trkpt><trkpt lat="44.394075" lon="11.5902333"><ele>67.0</ele><time>2026-05-01T10:29:26.439Z</time></trkpt><trkpt lat="44.394005" lon="11.5901867"><ele>67.0</ele><time>2026-05-01T10:29:28.44Z</time></trkpt><trkpt lat="44.3939383" lon="11.5901483"><ele>67.0</ele><time>2026-05-01T10:29:30.441Z</time></trkpt><trkpt lat="44.3938633" lon="11.5900833"><ele>67.0</ele><time>2026-05-01T10:29:33.441Z</time></trkpt><trkpt lat="44.3938033" lon="11.5900417"><ele>67.0</ele><time>2026-05-01T10:29:36.441Z</time></trkpt><trkpt lat="44.3937567" lon="11.5899817"><ele>67.0</ele><time>2026-05-01T10:30:01.441Z</time></trkpt><trkpt lat="44.3937167" lon="11.589895"><ele>67.0</ele><time>2026-05-01T10:30:04.442Z</time></trkpt><trkpt lat="44.393655" lon="11.58983"><ele>67.0</ele><time>2026-05-01T10:30:07.441Z</time></trkpt><trkpt lat="44.393595" lon="11.5897983"><ele>67.0</ele><time>2026-05-01T10:30:10.441Z</time></trkpt><trkpt lat="44.3935233" lon="11.5897867"><ele>66.5</ele><time>2026-05-01T10:30:13.44Z</time></trkpt><trkpt lat="44.39346" lon="11.589785"><ele>66.0</ele><time>2026-05-01T10:30:16.443Z</time></trkpt><trkpt lat="44.39337" lon="11.58977"><ele>65.5</ele><time>2026-05-01T10:30:20.443Z</time></trkpt><trkpt lat="44.3933033" lon="11.58977"><ele>65.0</ele><time>2026-05-01T10:30:22.443Z</time></trkpt><trkpt lat="44.3932233" lon="11.5897517"><ele>64.5</ele><time>2026-05-01T10:30:24.443Z</time></trkpt><trkpt lat="44.3931383" lon="11.5897317"><ele>64.0</ele><time>2026-05-01T10:30:26.44Z</time></trkpt><trkpt lat="44.3930733" lon="11.58972"><ele>63.71428571428571</ele><time>2026-05-01T10:30:28.44Z</time></trkpt><trkpt lat="44.3930017" lon="11.589705"><ele>63.42857142857142</ele><time>2026-05-01T10:30:30.44Z</time></trkpt><trkpt lat="44.39293" lon="11.5897117"><ele>63.14285714285714</ele><time>2026-05-01T10:30:32.44Z</time></trkpt><trkpt lat="44.3928583" lon="11.5897133"><ele>62.85714285714286</ele><time>2026-05-01T10:30:34.44Z</time></trkpt><trkpt lat="44.39278" lon="11.5897083"><ele>62.57142857142858</ele><time>2026-05-01T10:30:36.44Z</time></trkpt><trkpt lat="44.392705" lon="11.5897017"><ele>62.28571428571429</ele><time>2026-05-01T10:30:38.441Z</time></trkpt><trkpt lat="44.3926283" lon="11.589695"><ele>62.0</ele><time>2026-05-01T10:30:40.439Z</time></trkpt><trkpt lat="44.3925417" lon="11.5896917"><ele>62.00000000000001</ele><time>2026-05-01T10:30:42.439Z</time></trkpt><trkpt lat="44.3924567" lon="11.5896817"><ele>62.0</ele><time>2026-05-01T10:30:44.44Z</time></trkpt><trkpt lat="44.39237" lon="11.5896583"><ele>62.0</ele><time>2026-05-01T10:30:46.443Z</time></trkpt><trkpt lat="44.3922917" lon="11.589645"><ele>62.0</ele><time>2026-05-01T10:30:48.443Z</time></trkpt><trkpt lat="44.3922267" lon="11.58962"><ele>62.00000000000001</ele><time>2026-05-01T10:30:50.443Z</time></trkpt><trkpt lat="44.3921517" lon="11.589615"><ele>62.0</ele><time>2026-05-01T10:30:52.443Z</time></trkpt><trkpt lat="44.39208" lon="11.589655"><ele>61.833333333333336</ele><time>2026-05-01T10:30:55.44Z</time></trkpt><trkpt lat="44.392025" lon="11.5897217"><ele>61.66666666666667</ele><time>2026-05-01T10:30:59.439Z</time></trkpt><trkpt lat="44.39198" lon="11.5898067"><ele>61.5</ele><time>2026-05-01T10:31:02.439Z</time></trkpt><trkpt lat="44.39192" lon="11.5898967"><ele>61.33333333333333</ele><time>2026-05-01T10:31:07.439Z</time></trkpt><trkpt lat="44.3918567" lon="11.5899783"><ele>61.166666666666664</ele><time>2026-05-01T10:31:10.441Z</time></trkpt><trkpt lat="44.3917933" lon="11.59007"><ele>61.0</ele><time>2026-05-01T10:31:13.44Z</time></trkpt><trkpt lat="44.3917483" lon="11.5901367"><ele>60.99999999999999</ele><time>2026-05-01T10:31:15.44Z</time></trkpt><trkpt lat="44.3917017" lon="11.5901967"><ele>61.0</ele><time>2026-05-01T10:31:18.443Z</time></trkpt><trkpt lat="44.3916483" lon="11.5902617"><ele>60.99999999999999</ele><time>2026-05-01T10:31:21.443Z</time></trkpt><trkpt lat="44.3916067" lon="11.5903367"><ele>60.99999999999999</ele><time>2026-05-01T10:31:24.442Z</time></trkpt><trkpt lat="44.3916017" lon="11.59043"><ele>61.0</ele><time>2026-05-01T10:31:27.44Z</time></trkpt><trkpt lat="44.3916483" lon="11.5905383"><ele>60.99999999999999</ele><time>2026-05-01T10:31:30.44Z</time></trkpt><trkpt lat="44.3916933" lon="11.590645"><ele>60.99999999999999</ele><time>2026-05-01T10:31:33.44Z</time></trkpt><trkpt lat="44.3917217" lon="11.590725"><ele>61.49999999999999</ele><time>2026-05-01T10:31:35.44Z</time></trkpt><trkpt lat="44.39178" lon="11.590805"><ele>62.0</ele><time>2026-05-01T10:31:38.441Z</time></trkpt><trkpt lat="44.3917933" lon="11.5909017"><ele>62.5</ele><time>2026-05-01T10:31:41.44Z</time></trkpt><trkpt lat="44.39184" lon="11.59099"><ele>63.0</ele><time>2026-05-01T10:31:45.441Z</time></trkpt><trkpt lat="44.3918933" lon="11.5910383"><ele>63.49999999999999</ele><time>2026-05-01T10:31:48.443Z</time></trkpt><trkpt lat="44.3919717" lon="11.5910583"><ele>64.0</ele><time>2026-05-01T10:31:51.443Z</time></trkpt><trkpt lat="44.392055" lon="11.5910883"><ele>63.99999999999999</ele><time>2026-05-01T10:31:54.443Z</time></trkpt><trkpt lat="44.3921317" lon="11.59111"><ele>64.0</ele><time>2026-05-01T10:31:57.441Z</time></trkpt><trkpt lat="44.3922167" lon="11.59112"><ele>64.0</ele><time>2026-05-01T10:32:00.44Z</time></trkpt><trkpt lat="44.39231" lon="11.591145"><ele>64.0</ele><time>2026-05-01T10:32:03.441Z</time></trkpt><trkpt lat="44.3923733" lon="11.5911617"><ele>63.99999999999999</ele><time>2026-05-01T10:32:05.44Z</time></trkpt><trkpt lat="44.3924383" lon="11.5911883"><ele>64.0</ele><time>2026-05-01T10:32:07.44Z</time></trkpt><trkpt lat="44.3925033" lon="11.59121"><ele>63.857142857142854</ele><time>2026-05-01T10:32:09.44Z</time></trkpt><trkpt lat="44.3925667" lon="11.5912367"><ele>63.71428571428571</ele><time>2026-05-01T10:32:11.44Z</time></trkpt><trkpt lat="44.392635" lon="11.59126"><ele>63.57142857142857</ele><time>2026-05-01T10:32:13.441Z</time></trkpt><trkpt lat="44.3927" lon="11.5912883"><ele>63.42857142857143</ele><time>2026-05-01T10:32:15.44Z</time></trkpt><trkpt lat="44.3927667" lon="11.59131"><ele>63.285714285714285</ele><time>2026-05-01T10:32:17.443Z</time></trkpt><trkpt lat="44.3928333" lon="11.59134"><ele>63.14285714285714</ele><time>2026-05-01T10:32:19.443Z</time></trkpt><trkpt lat="44.3929" lon="11.59136"><ele>63.0</ele><time>2026-05-01T10:32:21.443Z</time></trkpt><trkpt lat="44.3929717" lon="11.5913717"><ele>62.666666666666664</ele><time>2026-05-01T10:32:23.443Z</time></trkpt><trkpt lat="44.393045" lon="11.5914017"><ele>62.33333333333333</ele><time>2026-05-01T10:32:25.44Z</time></trkpt><trkpt lat="44.3931217" lon="11.591435"><ele>62.0</ele><time>2026-05-01T10:32:27.441Z</time></trkpt><trkpt lat="44.3931883" lon="11.59146"><ele>61.666666666666664</ele><time>2026-05-01T10:32:29.44Z</time></trkpt><trkpt lat="44.3932517" lon="11.5914883"><ele>61.33333333333333</ele><time>2026-05-01T10:32:31.44Z</time></trkpt><trkpt lat="44.39333" lon="11.59152"><ele>61.0</ele><time>2026-05-01T10:32:34.439Z</time></trkpt><trkpt lat="44.39341" lon="11.5915383"><ele>60.99999999999999</ele><time>2026-05-01T10:32:37.44Z</time></trkpt><trkpt lat="44.3934933" lon="11.5915667"><ele>61.0</ele><time>2026-05-01T10:32:40.44Z</time></trkpt><trkpt lat="44.3935717" lon="11.5916033"><ele>61.0</ele><time>2026-05-01T10:32:43.439Z</time></trkpt><trkpt lat="44.3936583" lon="11.59165"><ele>61.0</ele><time>2026-05-01T10:32:46.443Z</time></trkpt><trkpt lat="44.3937483" lon="11.5916967"><ele>60.99999999999999</ele><time>2026-05-01T10:32:49.443Z</time></trkpt><trkpt lat="44.393835" lon="11.59172"><ele>61.0</ele><time>2026-05-01T10:32:52.443Z</time></trkpt><trkpt lat="44.3939117" lon="11.5917533"><ele>60.83333333333333</ele><time>2026-05-01T10:32:55.441Z</time></trkpt><trkpt lat="44.3939933" lon="11.5917883"><ele>60.666666666666664</ele><time>2026-05-01T10:32:58.441Z</time></trkpt><trkpt lat="44.3940717" lon="11.59181"><ele>60.5</ele><time>2026-05-01T10:33:01.442Z</time></trkpt><trkpt lat="44.39415" lon="11.5918167"><ele>60.33333333333333</ele><time>2026-05-01T10:33:04.44Z</time></trkpt><trkpt lat="44.3942283" lon="11.5918467"><ele>60.166666666666664</ele><time>2026-05-01T10:33:07.442Z</time></trkpt><trkpt lat="44.3942917" lon="11.5918667"><ele>60.0</ele><time>2026-05-01T10:33:09.44Z</time></trkpt><trkpt lat="44.3943567" lon="11.591895"><ele>60.0</ele><time>2026-05-01T10:33:11.441Z</time></trkpt><trkpt lat="44.3944483" lon="11.59193"><ele>60.0</ele><time>2026-05-01T10:33:14.442Z</time></trkpt><trkpt lat="44.3945383" lon="11.5919617"><ele>60.0</ele><time>2026-05-01T10:33:17.443Z</time></trkpt><trkpt lat="44.3946017" lon="11.5919917"><ele>60.0</ele><time>2026-05-01T10:33:19.443Z</time></trkpt><trkpt lat="44.39468" lon="11.5920317"><ele>60.0</ele><time>2026-05-01T10:33:22.443Z</time></trkpt><trkpt lat="44.39475" lon="11.59208"><ele>60.0</ele><time>2026-05-01T10:33:25.439Z</time></trkpt><trkpt lat="44.3948267" lon="11.592125"><ele>60.0</ele><time>2026-05-01T10:33:28.44Z</time></trkpt><trkpt lat="44.39491" lon="11.5921717"><ele>60.0</ele><time>2026-05-01T10:33:31.44Z</time></trkpt><trkpt lat="44.394985" lon="11.5922267"><ele>60.0</ele><time>2026-05-01T10:33:34.439Z</time></trkpt><trkpt lat="44.39504" lon="11.59227"><ele>60.0</ele><time>2026-05-01T10:33:36.439Z</time></trkpt><trkpt lat="44.3951167" lon="11.592335"><ele>60.0</ele><time>2026-05-01T10:33:39.44Z</time></trkpt><trkpt lat="44.3951983" lon="11.5924033"><ele>60.0</ele><time>2026-05-01T10:33:42.44Z</time></trkpt><trkpt lat="44.39526" lon="11.592455"><ele>60.0</ele><time>2026-05-01T10:33:44.441Z</time></trkpt><trkpt lat="44.39532" lon="11.592505"><ele>60.0</ele><time>2026-05-01T10:33:46.44Z</time></trkpt><trkpt lat="44.3953733" lon="11.5925583"><ele>60.0</ele><time>2026-05-01T10:33:48.439Z</time></trkpt><trkpt lat="44.3954367" lon="11.5926083"><ele>60.0</ele><time>2026-05-01T10:33:50.44Z</time></trkpt><trkpt lat="44.3954917" lon="11.59268"><ele>60.0</ele><time>2026-05-01T10:33:52.442Z</time></trkpt><trkpt lat="44.39554" lon="11.592755"><ele>60.0</ele><time>2026-05-01T10:33:54.439Z</time></trkpt><trkpt lat="44.3955933" lon="11.5928217"><ele>60.0</ele><time>2026-05-01T10:33:56.44Z</time></trkpt><trkpt lat="44.395645" lon="11.5928867"><ele>59.85714285714286</ele><time>2026-05-01T10:33:58.44Z</time></trkpt><trkpt lat="44.3956933" lon="11.5929567"><ele>59.71428571428571</ele><time>2026-05-01T10:34:00.44Z</time></trkpt><trkpt lat="44.3957383" lon="11.593025"><ele>59.57142857142857</ele><time>2026-05-01T10:34:02.44Z</time></trkpt><trkpt lat="44.3958067" lon="11.5931167"><ele>59.42857142857143</ele><time>2026-05-01T10:34:05.44Z</time></trkpt><trkpt lat="44.3958583" lon="11.5931767"><ele>59.28571428571429</ele><time>2026-05-01T10:34:07.439Z</time></trkpt><trkpt lat="44.3959067" lon="11.5932433"><ele>59.14285714285714</ele><time>2026-05-01T10:34:09.441Z</time></trkpt><trkpt lat="44.3959533" lon="11.5933117"><ele>59.0</ele><time>2026-05-01T10:34:11.44Z</time></trkpt><trkpt lat="44.3959983" lon="11.5933783"><ele>59.0</ele><time>2026-05-01T10:34:13.442Z</time></trkpt><trkpt lat="44.3960433" lon="11.593445"><ele>59.0</ele><time>2026-05-01T10:34:15.44Z</time></trkpt><trkpt lat="44.39609" lon="11.593515"><ele>59.0</ele><time>2026-05-01T10:34:17.442Z</time></trkpt><trkpt lat="44.396135" lon="11.5935833"><ele>59.0</ele><time>2026-05-01T10:34:19.44Z</time></trkpt><trkpt lat="44.39618" lon="11.5936483"><ele>59.0</ele><time>2026-05-01T10:34:21.441Z</time></trkpt><trkpt lat="44.3962267" lon="11.593715"><ele>59.0</ele><time>2026-05-01T10:34:23.44Z</time></trkpt><trkpt lat="44.3962717" lon="11.5937767"><ele>59.0</ele><time>2026-05-01T10:34:25.441Z</time></trkpt><trkpt lat="44.3963333" lon="11.5938667"><ele>59.00000000000001</ele><time>2026-05-01T10:34:28.441Z</time></trkpt><trkpt lat="44.3963917" lon="11.5939433"><ele>59.0</ele><time>2026-05-01T10:34:31.441Z</time></trkpt><trkpt lat="44.3964533" lon="11.594025"><ele>59.0</ele><time>2026-05-01T10:34:34.44Z</time></trkpt><trkpt lat="44.39651" lon="11.59412"><ele>59.0</ele><time>2026-05-01T10:34:37.441Z</time></trkpt><trkpt lat="44.396505" lon="11.5942217"><ele>59.00000000000001</ele><time>2026-05-01T10:34:40.442Z</time></trkpt><trkpt lat="44.39645" lon="11.5942733"><ele>59.0</ele><time>2026-05-01T10:34:43.441Z</time></trkpt><trkpt lat="44.3963783" lon="11.5943083"><ele>59.0</ele><time>2026-05-01T10:34:46.443Z</time></trkpt><trkpt lat="44.396315" lon="11.59433"><ele>59.0</ele><time>2026-05-01T10:34:48.439Z</time></trkpt><trkpt lat="44.39623" lon="11.5943867"><ele>59.0</ele><time>2026-05-01T10:34:51.441Z</time></trkpt><trkpt lat="44.396175" lon="11.5944417"><ele>59.0</ele><time>2026-05-01T10:34:53.44Z</time></trkpt><trkpt lat="44.3961267" lon="11.5945083"><ele>59.0</ele><time>2026-05-01T10:34:55.441Z</time></trkpt><trkpt lat="44.3960817" lon="11.5945717"><ele>59.0</ele><time>2026-05-01T10:34:57.44Z</time></trkpt><trkpt lat="44.3960333" lon="11.5946433"><ele>59.0</ele><time>2026-05-01T10:34:59.441Z</time></trkpt><trkpt lat="44.3959817" lon="11.5947033"><ele>59.16666666666667</ele><time>2026-05-01T10:35:01.441Z</time></trkpt><trkpt lat="44.3959317" lon="11.5947583"><ele>59.333333333333336</ele><time>2026-05-01T10:35:03.44Z</time></trkpt><trkpt lat="44.3958717" lon="11.59484"><ele>59.5</ele><time>2026-05-01T10:35:06.44Z</time></trkpt><trkpt lat="44.3958317" lon="11.59492"><ele>59.66666666666667</ele><time>2026-05-01T10:35:10.44Z</time></trkpt><trkpt lat="44.3957833" lon="11.595015"><ele>59.833333333333336</ele><time>2026-05-01T10:35:15.44Z</time></trkpt><trkpt lat="44.395725" lon="11.5950883"><ele>60.0</ele><time>2026-05-01T10:35:18.44Z</time></trkpt><trkpt lat="44.3956633" lon="11.5951633"><ele>60.0</ele><time>2026-05-01T10:35:21.44Z</time></trkpt><trkpt lat="44.3955967" lon="11.59524"><ele>60.0</ele><time>2026-05-01T10:35:25.44Z</time></trkpt><trkpt lat="44.3955517" lon="11.5953017"><ele>60.0</ele><time>2026-05-01T10:35:27.44Z</time></trkpt><trkpt lat="44.3954783" lon="11.5953867"><ele>60.0</ele><time>2026-05-01T10:35:30.44Z</time></trkpt><trkpt lat="44.3954317" lon="11.595455"><ele>60.0</ele><time>2026-05-01T10:35:32.439Z</time></trkpt><trkpt lat="44.3953783" lon="11.595525"><ele>60.0</ele><time>2026-05-01T10:35:34.44Z</time></trkpt><trkpt lat="44.395325" lon="11.5955883"><ele>60.5</ele><time>2026-05-01T10:35:36.44Z</time></trkpt><trkpt lat="44.3952683" lon="11.5956617"><ele>61.0</ele><time>2026-05-01T10:35:38.439Z</time></trkpt><trkpt lat="44.395215" lon="11.59574"><ele>61.5</ele><time>2026-05-01T10:35:40.441Z</time></trkpt><trkpt lat="44.3951617" lon="11.5958133"><ele>62.0</ele><time>2026-05-01T10:35:42.44Z</time></trkpt><trkpt lat="44.3951017" lon="11.5958917"><ele>62.5</ele><time>2026-05-01T10:35:44.441Z</time></trkpt><trkpt lat="44.3950433" lon="11.595965"><ele>63.0</ele><time>2026-05-01T10:35:46.442Z</time></trkpt><trkpt lat="44.3949867" lon="11.5960367"><ele>63.0</ele><time>2026-05-01T10:35:48.439Z</time></trkpt><trkpt lat="44.3949283" lon="11.5961067"><ele>63.0</ele><time>2026-05-01T10:35:50.44Z</time></trkpt><trkpt lat="44.3948833" lon="11.5961783"><ele>63.0</ele><time>2026-05-01T10:35:52.44Z</time></trkpt><trkpt lat="44.3948483" lon="11.5962533"><ele>63.0</ele><time>2026-05-01T10:35:54.443Z</time></trkpt><trkpt lat="44.39481" lon="11.5963333"><ele>63.0</ele><time>2026-05-01T10:35:56.439Z</time></trkpt><trkpt lat="44.3947633" lon="11.5964383"><ele>63.0</ele><time>2026-05-01T10:35:59.439Z</time></trkpt><trkpt lat="44.3947333" lon="11.5965567"><ele>63.0</ele><time>2026-05-01T10:36:02.439Z</time></trkpt><trkpt lat="44.39471" lon="11.5966517"><ele>63.0</ele><time>2026-05-01T10:36:04.44Z</time></trkpt><trkpt lat="44.39469" lon="11.596745"><ele>63.0</ele><time>2026-05-01T10:36:06.441Z</time></trkpt><trkpt lat="44.3946583" lon="11.5968367"><ele>63.0</ele><time>2026-05-01T10:36:08.44Z</time></trkpt><trkpt lat="44.3946383" lon="11.5969333"><ele>63.0</ele><time>2026-05-01T10:36:10.44Z</time></trkpt><trkpt lat="44.3946117" lon="11.59703"><ele>63.0</ele><time>2026-05-01T10:36:12.441Z</time></trkpt><trkpt lat="44.394585" lon="11.5971283"><ele>63.0</ele><time>2026-05-01T10:36:14.439Z</time></trkpt><trkpt lat="44.3945683" lon="11.5972267"><ele>63.5</ele><time>2026-05-01T10:36:16.442Z</time></trkpt><trkpt lat="44.394545" lon="11.5973217"><ele>64.0</ele><time>2026-05-01T10:36:18.441Z</time></trkpt><trkpt lat="44.39452" lon="11.5974167"><ele>64.5</ele><time>2026-05-01T10:36:20.441Z</time></trkpt><trkpt lat="44.394495" lon="11.5975217"><ele>65.0</ele><time>2026-05-01T10:36:22.44Z</time></trkpt><trkpt lat="44.39447" lon="11.5976233"><ele>65.5</ele><time>2026-05-01T10:36:24.44Z</time></trkpt><trkpt lat="44.39445" lon="11.5977217"><ele>66.0</ele><time>2026-05-01T10:36:26.441Z</time></trkpt><trkpt lat="44.3944283" lon="11.5978333"><ele>66.16666666666667</ele><time>2026-05-01T10:36:28.441Z</time></trkpt><trkpt lat="44.3943933" lon="11.5979417"><ele>66.33333333333333</ele><time>2026-05-01T10:36:30.439Z</time></trkpt><trkpt lat="44.3943733" lon="11.598045"><ele>66.5</ele><time>2026-05-01T10:36:32.44Z</time></trkpt><trkpt lat="44.39435" lon="11.5981483"><ele>66.66666666666666</ele><time>2026-05-01T10:36:34.44Z</time></trkpt><trkpt lat="44.39432" lon="11.598255"><ele>66.83333333333333</ele><time>2026-05-01T10:36:36.441Z</time></trkpt><trkpt lat="44.3942867" lon="11.5983633"><ele>67.0</ele><time>2026-05-01T10:36:38.44Z</time></trkpt><trkpt lat="44.394255" lon="11.5984667"><ele>67.0</ele><time>2026-05-01T10:36:40.441Z</time></trkpt><trkpt lat="44.3942233" lon="11.5985767"><ele>67.0</ele><time>2026-05-01T10:36:42.441Z</time></trkpt><trkpt lat="44.39419" lon="11.598685"><ele>67.0</ele><time>2026-05-01T10:36:44.44Z</time></trkpt><trkpt lat="44.39416" lon="11.598785"><ele>67.0</ele><time>2026-05-01T10:36:46.442Z</time></trkpt><trkpt lat="44.3941217" lon="11.5988717"><ele>67.0</ele><time>2026-05-01T10:36:48.44Z</time></trkpt><trkpt lat="44.3940583" lon="11.5989333"><ele>67.0</ele><time>2026-05-01T10:36:51.439Z</time></trkpt><trkpt lat="44.393995" lon="11.59894"><ele>67.5</ele><time>2026-05-01T10:36:53.439Z</time></trkpt><trkpt lat="44.3939267" lon="11.5989233"><ele>68.0</ele><time>2026-05-01T10:36:55.44Z</time></trkpt><trkpt lat="44.39385" lon="11.5988883"><ele>68.5</ele><time>2026-05-01T10:36:57.443Z</time></trkpt><trkpt lat="44.39377" lon="11.5988517"><ele>69.0</ele><time>2026-05-01T10:36:59.439Z</time></trkpt><trkpt lat="44.3936933" lon="11.5988183"><ele>69.5</ele><time>2026-05-01T10:37:01.44Z</time></trkpt><trkpt lat="44.3936117" lon="11.5987833"><ele>70.0</ele><time>2026-05-01T10:37:03.44Z</time></trkpt><trkpt lat="44.393525" lon="11.5987483"><ele>70.0</ele><time>2026-05-01T10:37:05.439Z</time></trkpt><trkpt lat="44.3934417" lon="11.5987083"><ele>70.0</ele><time>2026-05-01T10:37:07.439Z</time></trkpt><trkpt lat="44.3933583" lon="11.5986767"><ele>70.0</ele><time>2026-05-01T10:37:09.44Z</time></trkpt><trkpt lat="44.3932717" lon="11.59865"><ele>70.0</ele><time>2026-05-01T10:37:11.44Z</time></trkpt><trkpt lat="44.3931967" lon="11.598635"><ele>70.0</ele><time>2026-05-01T10:37:13.439Z</time></trkpt><trkpt lat="44.393125" lon="11.59862"><ele>70.0</ele><time>2026-05-01T10:37:15.44Z</time></trkpt><trkpt lat="44.39304" lon="11.5986183"><ele>69.66666666666666</ele><time>2026-05-01T10:38:44.44Z</time></trkpt><trkpt lat="44.392965" lon="11.5986233"><ele>69.33333333333333</ele><time>2026-05-01T10:38:47.443Z</time></trkpt><trkpt lat="44.39289" lon="11.5986133"><ele>69.0</ele><time>2026-05-01T10:38:50.443Z</time></trkpt><trkpt lat="44.3927967" lon="11.5986117"><ele>68.66666666666667</ele><time>2026-05-01T10:38:53.443Z</time></trkpt><trkpt lat="44.392705" lon="11.5986083"><ele>68.33333333333334</ele><time>2026-05-01T10:38:56.441Z</time></trkpt><trkpt lat="44.392635" lon="11.5986083"><ele>68.0</ele><time>2026-05-01T10:38:58.441Z</time></trkpt><trkpt lat="44.39256" lon="11.5985983"><ele>68.0</ele><time>2026-05-01T10:39:00.441Z</time></trkpt><trkpt lat="44.39248" lon="11.598595"><ele>68.0</ele><time>2026-05-01T10:39:02.442Z</time></trkpt><trkpt lat="44.3924" lon="11.5986067"><ele>68.0</ele><time>2026-05-01T10:39:04.441Z</time></trkpt><trkpt lat="44.3923133" lon="11.59863"><ele>68.0</ele><time>2026-05-01T10:39:06.442Z</time></trkpt><trkpt lat="44.3922367" lon="11.5986717"><ele>68.0</ele><time>2026-05-01T10:39:08.44Z</time></trkpt><trkpt lat="44.3921583" lon="11.5987267"><ele>68.0</ele><time>2026-05-01T10:39:10.44Z</time></trkpt><trkpt lat="44.39208" lon="11.5987833"><ele>68.33333333333334</ele><time>2026-05-01T10:39:12.44Z</time></trkpt><trkpt lat="44.3920017" lon="11.5988333"><ele>68.66666666666667</ele><time>2026-05-01T10:39:14.441Z</time></trkpt><trkpt lat="44.3919217" lon="11.5988767"><ele>69.0</ele><time>2026-05-01T10:39:16.443Z</time></trkpt><trkpt lat="44.3918383" lon="11.5989183"><ele>69.33333333333333</ele><time>2026-05-01T10:39:18.443Z</time></trkpt><trkpt lat="44.3917483" lon="11.5989683"><ele>69.66666666666666</ele><time>2026-05-01T10:39:20.44Z</time></trkpt><trkpt lat="44.3916633" lon="11.5990117"><ele>70.0</ele><time>2026-05-01T10:39:22.441Z</time></trkpt><trkpt lat="44.391575" lon="11.59906"><ele>70.0</ele><time>2026-05-01T10:39:24.441Z</time></trkpt><trkpt lat="44.3914833" lon="11.599115"><ele>70.0</ele><time>2026-05-01T10:39:26.44Z</time></trkpt><trkpt lat="44.3913883" lon="11.5991667"><ele>70.0</ele><time>2026-05-01T10:39:28.44Z</time></trkpt><trkpt lat="44.3912933" lon="11.59922"><ele>70.0</ele><time>2026-05-01T10:39:30.44Z</time></trkpt><trkpt lat="44.391195" lon="11.5992717"><ele>70.0</ele><time>2026-05-01T10:39:32.441Z</time></trkpt><trkpt lat="44.391095" lon="11.59932"><ele>70.2</ele><time>2026-05-01T10:39:34.44Z</time></trkpt><trkpt lat="44.3909933" lon="11.5993667"><ele>70.4</ele><time>2026-05-01T10:39:36.441Z</time></trkpt><trkpt lat="44.3908933" lon="11.59941"><ele>70.6</ele><time>2026-05-01T10:39:38.442Z</time></trkpt><trkpt lat="44.3907867" lon="11.599445"><ele>70.8</ele><time>2026-05-01T10:39:40.441Z</time></trkpt><trkpt lat="44.390685" lon="11.5994733"><ele>71.0</ele><time>2026-05-01T10:39:42.442Z</time></trkpt><trkpt lat="44.3905867" lon="11.5995017"><ele>71.2</ele><time>2026-05-01T10:39:44.442Z</time></trkpt><trkpt lat="44.390485" lon="11.599525"><ele>71.39999999999999</ele><time>2026-05-01T10:39:46.443Z</time></trkpt><trkpt lat="44.3903917" lon="11.599545"><ele>71.6</ele><time>2026-05-01T10:39:48.443Z</time></trkpt><trkpt lat="44.3902917" lon="11.5995583"><ele>71.8</ele><time>2026-05-01T10:39:50.441Z</time></trkpt><trkpt lat="44.3901967" lon="11.5995817"><ele>72.0</ele><time>2026-05-01T10:39:52.44Z</time></trkpt><trkpt lat="44.390095" lon="11.5996233"><ele>72.0</ele><time>2026-05-01T10:39:54.44Z</time></trkpt><trkpt lat="44.3899933" lon="11.599675"><ele>72.0</ele><time>2026-05-01T10:39:56.441Z</time></trkpt><trkpt lat="44.389895" lon="11.5997083"><ele>72.0</ele><time>2026-05-01T10:39:58.44Z</time></trkpt><trkpt lat="44.3898" lon="11.599735"><ele>72.0</ele><time>2026-05-01T10:40:00.442Z</time></trkpt><trkpt lat="44.3897017" lon="11.5997683"><ele>72.0</ele><time>2026-05-01T10:40:02.441Z</time></trkpt><trkpt lat="44.389605" lon="11.59979"><ele>72.2</ele><time>2026-05-01T10:40:04.44Z</time></trkpt><trkpt lat="44.3895067" lon="11.5998117"><ele>72.4</ele><time>2026-05-01T10:40:06.441Z</time></trkpt><trkpt lat="44.38941" lon="11.599825"><ele>72.6</ele><time>2026-05-01T10:40:08.441Z</time></trkpt><trkpt lat="44.3893083" lon="11.59983"><ele>72.8</ele><time>2026-05-01T10:40:10.44Z</time></trkpt><trkpt lat="44.3892067" lon="11.5998283"><ele>73.0</ele><time>2026-05-01T10:40:12.44Z</time></trkpt><trkpt lat="44.3891033" lon="11.5998"><ele>73.0</ele><time>2026-05-01T10:40:14.441Z</time></trkpt><trkpt lat="44.389005" lon="11.59977"><ele>73.0</ele><time>2026-05-01T10:40:16.442Z</time></trkpt><trkpt lat="44.3888983" lon="11.5997483"><ele>73.0</ele><time>2026-05-01T10:40:18.443Z</time></trkpt><trkpt lat="44.3887867" lon="11.5997233"><ele>73.0</ele><time>2026-05-01T10:40:20.44Z</time></trkpt><trkpt lat="44.3886883" lon="11.5996833"><ele>73.0</ele><time>2026-05-01T10:40:22.442Z</time></trkpt><trkpt lat="44.38858" lon="11.5996633"><ele>73.8</ele><time>2026-05-01T10:40:24.44Z</time></trkpt><trkpt lat="44.3884717" lon="11.59965"><ele>74.6</ele><time>2026-05-01T10:40:26.441Z</time></trkpt><trkpt lat="44.3883683" lon="11.599645"><ele>75.4</ele><time>2026-05-01T10:40:28.442Z</time></trkpt><trkpt lat="44.3882617" lon="11.5996383"><ele>76.2</ele><time>2026-05-01T10:40:30.441Z</time></trkpt><trkpt lat="44.3881533" lon="11.599655"><ele>77.0</ele><time>2026-05-01T10:40:32.442Z</time></trkpt><trkpt lat="44.3880483" lon="11.5996683"><ele>77.6</ele><time>2026-05-01T10:40:34.44Z</time></trkpt><trkpt lat="44.3879417" lon="11.5996817"><ele>78.2</ele><time>2026-05-01T10:40:36.443Z</time></trkpt><trkpt lat="44.3878317" lon="11.599695"><ele>78.8</ele><time>2026-05-01T10:40:38.441Z</time></trkpt><trkpt lat="44.3877267" lon="11.599725"><ele>79.4</ele><time>2026-05-01T10:40:40.44Z</time></trkpt><trkpt lat="44.3876183" lon="11.5997483"><ele>80.0</ele><time>2026-05-01T10:40:42.442Z</time></trkpt><trkpt lat="44.3875117" lon="11.5997717"><ele>80.0</ele><time>2026-05-01T10:40:44.441Z</time></trkpt><trkpt lat="44.3874067" lon="11.5998"><ele>80.0</ele><time>2026-05-01T10:40:46.44Z</time></trkpt><trkpt lat="44.3873" lon="11.59983"><ele>80.0</ele><time>2026-05-01T10:40:48.442Z</time></trkpt><trkpt lat="44.3871917" lon="11.599855"><ele>80.0</ele><time>2026-05-01T10:40:50.446Z</time></trkpt><trkpt lat="44.3870667" lon="11.5998833"><ele>79.4</ele><time>2026-05-01T10:40:52.442Z</time></trkpt><trkpt lat="44.3869667" lon="11.5999117"><ele>78.8</ele><time>2026-05-01T10:40:54.442Z</time></trkpt><trkpt lat="44.3868683" lon="11.5999483"><ele>78.2</ele><time>2026-05-01T10:40:56.451Z</time></trkpt><trkpt lat="44.38677" lon="11.5999583"><ele>77.6</ele><time>2026-05-01T10:40:58.44Z</time></trkpt><trkpt lat="44.3866683" lon="11.5999583"><ele>77.0</ele><time>2026-05-01T10:41:00.442Z</time></trkpt><trkpt lat="44.3865617" lon="11.5999417"><ele>77.0</ele><time>2026-05-01T10:41:02.442Z</time></trkpt><trkpt lat="44.38645" lon="11.5999233"><ele>77.0</ele><time>2026-05-01T10:41:04.442Z</time></trkpt><trkpt lat="44.3863367" lon="11.5999033"><ele>77.0</ele><time>2026-05-01T10:41:06.44Z</time></trkpt><trkpt lat="44.386225" lon="11.5998833"><ele>77.0</ele><time>2026-05-01T10:41:08.446Z</time></trkpt><trkpt lat="44.3861183" lon="11.5998667"><ele>77.0</ele><time>2026-05-01T10:41:10.441Z</time></trkpt><trkpt lat="44.386015" lon="11.59985"><ele>76.8</ele><time>2026-05-01T10:41:12.441Z</time></trkpt><trkpt lat="44.3859067" lon="11.599835"><ele>76.6</ele><time>2026-05-01T10:41:14.441Z</time></trkpt><trkpt lat="44.3857983" lon="11.59982"><ele>76.39999999999999</ele><time>2026-05-01T10:41:16.443Z</time></trkpt><trkpt lat="44.3856883" lon="11.599805"><ele>76.2</ele><time>2026-05-01T10:41:18.439Z</time></trkpt><trkpt lat="44.385585" lon="11.5997817"><ele>76.0</ele><time>2026-05-01T10:41:20.441Z</time></trkpt><trkpt lat="44.3854783" lon="11.5997583"><ele>76.0</ele><time>2026-05-01T10:41:22.442Z</time></trkpt><trkpt lat="44.3853667" lon="11.59975"><ele>76.0</ele><time>2026-05-01T10:41:24.441Z</time></trkpt><trkpt lat="44.38526" lon="11.5997417"><ele>76.0</ele><time>2026-05-01T10:41:26.442Z</time></trkpt><trkpt lat="44.3851517" lon="11.59974"><ele>76.0</ele><time>2026-05-01T10:41:28.442Z</time></trkpt><trkpt lat="44.385045" lon="11.59975"><ele>76.0</ele><time>2026-05-01T10:41:30.441Z</time></trkpt><trkpt lat="44.3849433" lon="11.5997717"><ele>76.0</ele><time>2026-05-01T10:41:32.441Z</time></trkpt><trkpt lat="44.3848367" lon="11.5998033"><ele>76.0</ele><time>2026-05-01T10:41:34.442Z</time></trkpt><trkpt lat="44.3847333" lon="11.5998333"><ele>76.0</ele><time>2026-05-01T10:41:36.442Z</time></trkpt><trkpt lat="44.38463" lon="11.5998617"><ele>76.0</ele><time>2026-05-01T10:41:38.44Z</time></trkpt><trkpt lat="44.3845233" lon="11.599895"><ele>76.0</ele><time>2026-05-01T10:41:40.442Z</time></trkpt><trkpt lat="44.3844183" lon="11.5999267"><ele>76.2</ele><time>2026-05-01T10:41:42.442Z</time></trkpt><trkpt lat="44.3843183" lon="11.59995"><ele>76.39999999999999</ele><time>2026-05-01T10:41:44.441Z</time></trkpt><trkpt lat="44.3842233" lon="11.5999767"><ele>76.6</ele><time>2026-05-01T10:41:46.442Z</time></trkpt><trkpt lat="44.3841333" lon="11.6000033"><ele>76.8</ele><time>2026-05-01T10:41:48.439Z</time></trkpt><trkpt lat="44.38405" lon="11.6000333"><ele>77.0</ele><time>2026-05-01T10:41:50.44Z</time></trkpt><trkpt lat="44.3839717" lon="11.6000567"><ele>77.0</ele><time>2026-05-01T10:41:52.44Z</time></trkpt><trkpt lat="44.3838967" lon="11.6000833"><ele>77.0</ele><time>2026-05-01T10:41:54.44Z</time></trkpt><trkpt lat="44.38382" lon="11.6001083"><ele>77.0</ele><time>2026-05-01T10:41:56.441Z</time></trkpt><trkpt lat="44.38375" lon="11.60012"><ele>77.0</ele><time>2026-05-01T10:41:58.442Z</time></trkpt><trkpt lat="44.3836817" lon="11.6001317"><ele>77.0</ele><time>2026-05-01T10:42:00.441Z</time></trkpt><trkpt lat="44.383615" lon="11.6001267"><ele>77.0</ele><time>2026-05-01T10:42:02.442Z</time></trkpt><trkpt lat="44.3835483" lon="11.6001183"><ele>77.0</ele><time>2026-05-01T10:42:04.442Z</time></trkpt><trkpt lat="44.3834617" lon="11.6001067"><ele>78.0</ele><time>2026-05-01T10:42:07.441Z</time></trkpt><trkpt lat="44.3833783" lon="11.6000817"><ele>79.0</ele><time>2026-05-01T10:42:10.44Z</time></trkpt><trkpt lat="44.383315" lon="11.60007"><ele>80.0</ele><time>2026-05-01T10:42:12.441Z</time></trkpt><trkpt lat="44.3832267" lon="11.60005"><ele>81.0</ele><time>2026-05-01T10:42:15.44Z</time></trkpt><trkpt lat="44.3831367" lon="11.60004"><ele>82.0</ele><time>2026-05-01T10:42:18.443Z</time></trkpt><trkpt lat="44.38306" lon="11.6000267"><ele>83.0</ele><time>2026-05-01T10:42:21.442Z</time></trkpt><trkpt lat="44.3829883" lon="11.6000083"><ele>85.0</ele><time>2026-05-01T10:42:24.443Z</time></trkpt><trkpt lat="44.38292" lon="11.59999"><ele>87.0</ele><time>2026-05-01T10:42:27.44Z</time></trkpt><trkpt lat="44.3828567" lon="11.59998"><ele>89.0</ele><time>2026-05-01T10:42:30.44Z</time></trkpt><trkpt lat="44.3827717" lon="11.59996"><ele>91.0</ele><time>2026-05-01T10:42:34.439Z</time></trkpt><trkpt lat="44.3826967" lon="11.599945"><ele>93.0</ele><time>2026-05-01T10:42:37.44Z</time></trkpt><trkpt lat="44.3826117" lon="11.5999267"><ele>95.0</ele><time>2026-05-01T10:42:41.44Z</time></trkpt><trkpt lat="44.38254" lon="11.5999"><ele>95.0</ele><time>2026-05-01T10:42:44.44Z</time></trkpt><trkpt lat="44.38247" lon="11.59986"><ele>95.0</ele><time>2026-05-01T10:42:47.442Z</time></trkpt><trkpt lat="44.382405" lon="11.5998233"><ele>95.0</ele><time>2026-05-01T10:42:50.443Z</time></trkpt><trkpt lat="44.3823267" lon="11.5997867"><ele>95.0</ele><time>2026-05-01T10:42:53.443Z</time></trkpt><trkpt lat="44.382245" lon="11.599755"><ele>95.0</ele><time>2026-05-01T10:42:56.439Z</time></trkpt><trkpt lat="44.38217" lon="11.5997033"><ele>95.0</ele><time>2026-05-01T10:42:59.439Z</time></trkpt><trkpt lat="44.382105" lon="11.59966"><ele>95.0</ele><time>2026-05-01T10:43:02.44Z</time></trkpt><trkpt lat="44.38204" lon="11.599615"><ele>95.0</ele><time>2026-05-01T10:43:05.439Z</time></trkpt><trkpt lat="44.3819717" lon="11.5995667"><ele>95.0</ele><time>2026-05-01T10:43:08.441Z</time></trkpt><trkpt lat="44.3819017" lon="11.5995283"><ele>95.0</ele><time>2026-05-01T10:43:11.441Z</time></trkpt><trkpt lat="44.3818283" lon="11.599485"><ele>95.0</ele><time>2026-05-01T10:43:14.441Z</time></trkpt><trkpt lat="44.38175" lon="11.59943"><ele>95.0</ele><time>2026-05-01T10:43:17.442Z</time></trkpt><trkpt lat="44.38167" lon="11.5993767"><ele>95.0</ele><time>2026-05-01T10:43:20.442Z</time></trkpt><trkpt lat="44.3815917" lon="11.5993167"><ele>95.0</ele><time>2026-05-01T10:43:23.442Z</time></trkpt><trkpt lat="44.3815117" lon="11.5992583"><ele>95.0</ele><time>2026-05-01T10:43:26.44Z</time></trkpt><trkpt lat="44.38143" lon="11.5992017"><ele>95.0</ele><time>2026-05-01T10:43:29.441Z</time></trkpt><trkpt lat="44.3813433" lon="11.59916"><ele>95.0</ele><time>2026-05-01T10:43:32.441Z</time></trkpt><trkpt lat="44.3812717" lon="11.599125"><ele>95.0</ele><time>2026-05-01T10:43:35.442Z</time></trkpt><trkpt lat="44.3811983" lon="11.5991083"><ele>96.28571428571429</ele><time>2026-05-01T10:43:38.443Z</time></trkpt><trkpt lat="44.3811283" lon="11.5991217"><ele>97.57142857142858</ele><time>2026-05-01T10:43:41.441Z</time></trkpt><trkpt lat="44.3810633" lon="11.5991417"><ele>98.85714285714286</ele><time>2026-05-01T10:43:44.441Z</time></trkpt><trkpt lat="44.381" lon="11.5991783"><ele>100.14285714285714</ele><time>2026-05-01T10:43:47.443Z</time></trkpt><trkpt lat="44.3809417" lon="11.59922"><ele>101.42857142857143</ele><time>2026-05-01T10:43:50.443Z</time></trkpt><trkpt lat="44.3808817" lon="11.59926"><ele>102.71428571428571</ele><time>2026-05-01T10:43:53.443Z</time></trkpt><trkpt lat="44.3808133" lon="11.59931"><ele>104.0</ele><time>2026-05-01T10:43:57.44Z</time></trkpt><trkpt lat="44.38075" lon="11.5993517"><ele>104.0</ele><time>2026-05-01T10:44:01.441Z</time></trkpt><trkpt lat="44.380685" lon="11.5993983"><ele>104.0</ele><time>2026-05-01T10:44:06.44Z</time></trkpt><trkpt lat="44.3806283" lon="11.5994517"><ele>104.0</ele><time>2026-05-01T10:44:10.44Z</time></trkpt><trkpt lat="44.3805733" lon="11.5994983"><ele>104.0</ele><time>2026-05-01T10:44:14.439Z</time></trkpt><trkpt lat="44.38051" lon="11.599555"><ele>104.0</ele><time>2026-05-01T10:44:19.443Z</time></trkpt><trkpt lat="44.3804483" lon="11.5995933"><ele>104.0</ele><time>2026-05-01T10:44:23.439Z</time></trkpt><trkpt lat="44.3803733" lon="11.599645"><ele>104.0</ele><time>2026-05-01T10:44:27.441Z</time></trkpt><trkpt lat="44.3803117" lon="11.599675"><ele>105.33333333333333</ele><time>2026-05-01T10:44:31.442Z</time></trkpt><trkpt lat="44.3802467" lon="11.599715"><ele>106.66666666666666</ele><time>2026-05-01T10:44:34.442Z</time></trkpt><trkpt lat="44.38018" lon="11.5997383"><ele>108.0</ele><time>2026-05-01T10:44:37.441Z</time></trkpt><trkpt lat="44.3801" lon="11.5997483"><ele>109.33333333333334</ele><time>2026-05-01T10:44:41.439Z</time></trkpt><trkpt lat="44.38003" lon="11.5997417"><ele>110.66666666666667</ele><time>2026-05-01T10:44:44.442Z</time></trkpt><trkpt lat="44.3799533" lon="11.5997517"><ele>112.0</ele><time>2026-05-01T10:44:47.442Z</time></trkpt><trkpt lat="44.379875" lon="11.5998017"><ele>112.00000000000001</ele><time>2026-05-01T10:44:50.443Z</time></trkpt><trkpt lat="44.3798183" lon="11.599845"><ele>112.0</ele><time>2026-05-01T10:44:52.44Z</time></trkpt><trkpt lat="44.37975" lon="11.5998783"><ele>112.0</ele><time>2026-05-01T10:44:54.443Z</time></trkpt><trkpt lat="44.37967" lon="11.599925"><ele>112.0</ele><time>2026-05-01T10:44:56.44Z</time></trkpt><trkpt lat="44.3795883" lon="11.5999733"><ele>112.00000000000001</ele><time>2026-05-01T10:44:58.441Z</time></trkpt><trkpt lat="44.3794983" lon="11.600035"><ele>112.0</ele><time>2026-05-01T10:45:00.442Z</time></trkpt><trkpt lat="44.37941" lon="11.6001183"><ele>111.5</ele><time>2026-05-01T10:45:02.441Z</time></trkpt><trkpt lat="44.379325" lon="11.6002367"><ele>111.0</ele><time>2026-05-01T10:45:04.44Z</time></trkpt><trkpt lat="44.37925" lon="11.6003717"><ele>110.5</ele><time>2026-05-01T10:45:06.442Z</time></trkpt><trkpt lat="44.379175" lon="11.600495"><ele>110.0</ele><time>2026-05-01T10:45:08.441Z</time></trkpt><trkpt lat="44.3791167" lon="11.600615"><ele>110.0</ele><time>2026-05-01T10:45:10.441Z</time></trkpt><trkpt lat="44.3790583" lon="11.60075"><ele>110.0</ele><time>2026-05-01T10:45:12.442Z</time></trkpt><trkpt lat="44.379" lon="11.60087"><ele>110.0</ele><time>2026-05-01T10:45:14.441Z</time></trkpt><trkpt lat="44.3789633" lon="11.6009633"><ele>110.0</ele><time>2026-05-01T10:45:16.442Z</time></trkpt><trkpt lat="44.3789183" lon="11.6010733"><ele>110.0</ele><time>2026-05-01T10:45:19.442Z</time></trkpt><trkpt lat="44.3788817" lon="11.6011717"><ele>112.66666666666666</ele><time>2026-05-01T10:45:22.442Z</time></trkpt><trkpt lat="44.3788333" lon="11.6012583"><ele>115.33333333333333</ele><time>2026-05-01T10:45:25.439Z</time></trkpt><trkpt lat="44.3787883" lon="11.60134"><ele>118.0</ele><time>2026-05-01T10:45:28.442Z</time></trkpt><trkpt lat="44.378755" lon="11.601435"><ele>120.66666666666666</ele><time>2026-05-01T10:45:31.441Z</time></trkpt><trkpt lat="44.3787167" lon="11.601515"><ele>123.33333333333333</ele><time>2026-05-01T10:45:34.442Z</time></trkpt><trkpt lat="44.3786833" lon="11.6015983"><ele>126.0</ele><time>2026-05-01T10:45:37.441Z</time></trkpt><trkpt lat="44.3786417" lon="11.6017017"><ele>126.0</ele><time>2026-05-01T10:45:41.44Z</time></trkpt><trkpt lat="44.3786117" lon="11.6017883"><ele>126.0</ele><time>2026-05-01T10:45:44.441Z</time></trkpt><trkpt lat="44.3785917" lon="11.601875"><ele>126.0</ele><time>2026-05-01T10:45:47.442Z</time></trkpt><trkpt lat="44.3785733" lon="11.6019867"><ele>126.0</ele><time>2026-05-01T10:45:51.441Z</time></trkpt><trkpt lat="44.3785933" lon="11.6020917"><ele>126.0</ele><time>2026-05-01T10:45:55.442Z</time></trkpt><trkpt lat="44.3785933" lon="11.60219"><ele>126.0</ele><time>2026-05-01T10:45:59.441Z</time></trkpt><trkpt lat="44.3785817" lon="11.6022767"><ele>126.0</ele><time>2026-05-01T10:46:02.441Z</time></trkpt><trkpt lat="44.37858" lon="11.60237"><ele>126.66666666666667</ele><time>2026-05-01T10:46:05.442Z</time></trkpt><trkpt lat="44.3785783" lon="11.6024783"><ele>127.33333333333334</ele><time>2026-05-01T10:46:09.442Z</time></trkpt><trkpt lat="44.378565" lon="11.6025883"><ele>128.0</ele><time>2026-05-01T10:46:13.442Z</time></trkpt><trkpt lat="44.37855" lon="11.60268"><ele>128.66666666666669</ele><time>2026-05-01T10:46:16.443Z</time></trkpt><trkpt lat="44.3785383" lon="11.6027767"><ele>129.33333333333334</ele><time>2026-05-01T10:46:19.441Z</time></trkpt><trkpt lat="44.378525" lon="11.6028817"><ele>130.0</ele><time>2026-05-01T10:46:23.441Z</time></trkpt><trkpt lat="44.378525" lon="11.6029967"><ele>130.42857142857144</ele><time>2026-05-01T10:46:27.442Z</time></trkpt><trkpt lat="44.3785283" lon="11.6030917"><ele>130.85714285714286</ele><time>2026-05-01T10:46:30.442Z</time></trkpt><trkpt lat="44.3785233" lon="11.6031833"><ele>131.28571428571428</ele><time>2026-05-01T10:46:33.442Z</time></trkpt><trkpt lat="44.3785217" lon="11.603285"><ele>131.71428571428572</ele><time>2026-05-01T10:46:36.441Z</time></trkpt><trkpt lat="44.3785083" lon="11.603395"><ele>132.14285714285714</ele><time>2026-05-01T10:46:39.441Z</time></trkpt><trkpt lat="44.3785067" lon="11.6035"><ele>132.57142857142858</ele><time>2026-05-01T10:46:42.441Z</time></trkpt><trkpt lat="44.3784983" lon="11.603605"><ele>133.0</ele><time>2026-05-01T10:46:45.442Z</time></trkpt><trkpt lat="44.3784867" lon="11.6037133"><ele>133.0</ele><time>2026-05-01T10:46:48.441Z</time></trkpt><trkpt lat="44.3784783" lon="11.6038283"><ele>133.0</ele><time>2026-05-01T10:46:51.441Z</time></trkpt><trkpt lat="44.378465" lon="11.6039533"><ele>133.0</ele><time>2026-05-01T10:46:54.443Z</time></trkpt><trkpt lat="44.37845" lon="11.6040483"><ele>133.0</ele><time>2026-05-01T10:46:56.442Z</time></trkpt><trkpt lat="44.378445" lon="11.6041433"><ele>133.0</ele><time>2026-05-01T10:46:58.441Z</time></trkpt><trkpt lat="44.3784367" lon="11.6042433"><ele>133.0</ele><time>2026-05-01T10:47:00.441Z</time></trkpt><trkpt lat="44.37842" lon="11.6043433"><ele>133.0</ele><time>2026-05-01T10:47:02.441Z</time></trkpt><trkpt lat="44.3784083" lon="11.604455"><ele>133.0</ele><time>2026-05-01T10:47:04.441Z</time></trkpt><trkpt lat="44.3784017" lon="11.6045717"><ele>133.0</ele><time>2026-05-01T10:47:06.442Z</time></trkpt><trkpt lat="44.3783867" lon="11.6047033"><ele>133.0</ele><time>2026-05-01T10:47:08.442Z</time></trkpt><trkpt lat="44.3783733" lon="11.6048467"><ele>133.0</ele><time>2026-05-01T10:47:10.442Z</time></trkpt><trkpt lat="44.3783617" lon="11.605"><ele>132.5</ele><time>2026-05-01T10:47:12.443Z</time></trkpt><trkpt lat="44.37834" lon="11.605165"><ele>132.0</ele><time>2026-05-01T10:47:14.442Z</time></trkpt><trkpt lat="44.3783333" lon="11.6053317"><ele>131.5</ele><time>2026-05-01T10:47:16.441Z</time></trkpt><trkpt lat="44.37833" lon="11.605425"><ele>131.0</ele><time>2026-05-01T10:47:17.442Z</time></trkpt><trkpt lat="44.3783217" lon="11.60552"><ele>130.5</ele><time>2026-05-01T10:47:18.442Z</time></trkpt><trkpt lat="44.378315" lon="11.6056183"><ele>130.0</ele><time>2026-05-01T10:47:19.441Z</time></trkpt><trkpt lat="44.3783083" lon="11.605715"><ele>129.85714285714286</ele><time>2026-05-01T10:47:20.439Z</time></trkpt><trkpt lat="44.3783" lon="11.6058117"><ele>129.71428571428572</ele><time>2026-05-01T10:47:21.44Z</time></trkpt><trkpt lat="44.37829" lon="11.605905"><ele>129.57142857142856</ele><time>2026-05-01T10:47:22.442Z</time></trkpt><trkpt lat="44.3782817" lon="11.6059983"><ele>129.42857142857144</ele><time>2026-05-01T10:47:23.439Z</time></trkpt><trkpt lat="44.378275" lon="11.60609"><ele>129.28571428571428</ele><time>2026-05-01T10:47:24.441Z</time></trkpt><trkpt lat="44.3782683" lon="11.6061817"><ele>129.14285714285714</ele><time>2026-05-01T10:47:25.441Z</time></trkpt><trkpt lat="44.3782617" lon="11.6062767"><ele>129.0</ele><time>2026-05-01T10:47:26.439Z</time></trkpt><trkpt lat="44.378255" lon="11.60637"><ele>128.7142857142857</ele><time>2026-05-01T10:47:27.439Z</time></trkpt><trkpt lat="44.3782467" lon="11.606465"><ele>128.42857142857142</ele><time>2026-05-01T10:47:28.44Z</time></trkpt><trkpt lat="44.3782383" lon="11.60656"><ele>128.14285714285714</ele><time>2026-05-01T10:47:29.439Z</time></trkpt><trkpt lat="44.3782317" lon="11.606655"><ele>127.85714285714285</ele><time>2026-05-01T10:47:30.441Z</time></trkpt><trkpt lat="44.3782217" lon="11.6067483"><ele>127.57142857142856</ele><time>2026-05-01T10:47:31.442Z</time></trkpt><trkpt lat="44.3782133" lon="11.6068467"><ele>127.28571428571429</ele><time>2026-05-01T10:47:32.44Z</time></trkpt><trkpt lat="44.3782067" lon="11.606945"><ele>127.0</ele><time>2026-05-01T10:47:33.439Z</time></trkpt><trkpt lat="44.3781967" lon="11.6070433"><ele>126.85714285714286</ele><time>2026-05-01T10:47:34.441Z</time></trkpt><trkpt lat="44.3781867" lon="11.6071417"><ele>126.71428571428571</ele><time>2026-05-01T10:47:35.44Z</time></trkpt><trkpt lat="44.3781833" lon="11.607245"><ele>126.57142857142857</ele><time>2026-05-01T10:47:36.44Z</time></trkpt><trkpt lat="44.3781783" lon="11.6073467"><ele>126.42857142857143</ele><time>2026-05-01T10:47:37.441Z</time></trkpt><trkpt lat="44.3781717" lon="11.60745"><ele>126.28571428571428</ele><time>2026-05-01T10:47:38.441Z</time></trkpt><trkpt lat="44.37817" lon="11.6075583"><ele>126.14285714285714</ele><time>2026-05-01T10:47:39.444Z</time></trkpt><trkpt lat="44.3781633" lon="11.6076667"><ele>126.0</ele><time>2026-05-01T10:47:40.445Z</time></trkpt><trkpt lat="44.3781517" lon="11.6077717"><ele>125.83333333333333</ele><time>2026-05-01T10:47:41.44Z</time></trkpt><trkpt lat="44.3781433" lon="11.6078767"><ele>125.66666666666666</ele><time>2026-05-01T10:47:42.441Z</time></trkpt><trkpt lat="44.3781317" lon="11.6079833"><ele>125.5</ele><time>2026-05-01T10:47:43.441Z</time></trkpt><trkpt lat="44.37812" lon="11.6080883"><ele>125.33333333333333</ele><time>2026-05-01T10:47:44.439Z</time></trkpt><trkpt lat="44.3781067" lon="11.6081933"><ele>125.16666666666666</ele><time>2026-05-01T10:47:45.442Z</time></trkpt><trkpt lat="44.378095" lon="11.6082983"><ele>125.0</ele><time>2026-05-01T10:47:46.442Z</time></trkpt><trkpt lat="44.37808" lon="11.608405"><ele>124.99999999999999</ele><time>2026-05-01T10:47:47.443Z</time></trkpt><trkpt lat="44.3780683" lon="11.6085117"><ele>125.0</ele><time>2026-05-01T10:47:48.44Z</time></trkpt><trkpt lat="44.3780583" lon="11.608615"><ele>125.0</ele><time>2026-05-01T10:47:49.441Z</time></trkpt><trkpt lat="44.37805" lon="11.6087217"><ele>125.0</ele><time>2026-05-01T10:47:50.44Z</time></trkpt><trkpt lat="44.37804" lon="11.60883"><ele>124.99999999999999</ele><time>2026-05-01T10:47:51.44Z</time></trkpt><trkpt lat="44.378025" lon="11.6089383"><ele>125.0</ele><time>2026-05-01T10:47:52.44Z</time></trkpt><trkpt lat="44.3780167" lon="11.6090467"><ele>124.99999999999999</ele><time>2026-05-01T10:47:53.44Z</time></trkpt><trkpt lat="44.378005" lon="11.6091533"><ele>125.0</ele><time>2026-05-01T10:47:54.44Z</time></trkpt><trkpt lat="44.377995" lon="11.60926"><ele>125.0</ele><time>2026-05-01T10:47:55.442Z</time></trkpt><trkpt lat="44.377985" lon="11.60937"><ele>125.0</ele><time>2026-05-01T10:47:56.44Z</time></trkpt><trkpt lat="44.3779733" lon="11.6094783"><ele>124.99999999999999</ele><time>2026-05-01T10:47:57.44Z</time></trkpt><trkpt lat="44.37796" lon="11.6095867"><ele>125.0</ele><time>2026-05-01T10:47:58.439Z</time></trkpt><trkpt lat="44.3779533" lon="11.6096983"><ele>124.83333333333333</ele><time>2026-05-01T10:47:59.44Z</time></trkpt><trkpt lat="44.3779483" lon="11.6098117"><ele>124.66666666666666</ele><time>2026-05-01T10:48:00.441Z</time></trkpt><trkpt lat="44.3779417" lon="11.6099267"><ele>124.5</ele><time>2026-05-01T10:48:01.441Z</time></trkpt><trkpt lat="44.3779317" lon="11.61004"><ele>124.33333333333334</ele><time>2026-05-01T10:48:02.439Z</time></trkpt><trkpt lat="44.3779217" lon="11.6101533"><ele>124.16666666666667</ele><time>2026-05-01T10:48:03.44Z</time></trkpt><trkpt lat="44.3779133" lon="11.6102633"><ele>124.0</ele><time>2026-05-01T10:48:04.44Z</time></trkpt><trkpt lat="44.3779033" lon="11.6103717"><ele>124.00000000000001</ele><time>2026-05-01T10:48:05.439Z</time></trkpt><trkpt lat="44.3779" lon="11.61048"><ele>124.0</ele><time>2026-05-01T10:48:06.44Z</time></trkpt><trkpt lat="44.3778933" lon="11.610585"><ele>124.0</ele><time>2026-05-01T10:48:07.441Z</time></trkpt><trkpt lat="44.3778917" lon="11.6106967"><ele>124.0</ele><time>2026-05-01T10:48:08.44Z</time></trkpt><trkpt lat="44.37789" lon="11.6108017"><ele>124.00000000000001</ele><time>2026-05-01T10:48:09.441Z</time></trkpt><trkpt lat="44.3778867" lon="11.6109033"><ele>124.0</ele><time>2026-05-01T10:48:10.442Z</time></trkpt><trkpt lat="44.3778767" lon="11.6110017"><ele>124.0</ele><time>2026-05-01T10:48:11.441Z</time></trkpt><trkpt lat="44.3778667" lon="11.6110967"><ele>124.00000000000001</ele><time>2026-05-01T10:48:12.441Z</time></trkpt><trkpt lat="44.37785" lon="11.61119"><ele>124.0</ele><time>2026-05-01T10:48:13.44Z</time></trkpt><trkpt lat="44.377835" lon="11.611285"><ele>124.0</ele><time>2026-05-01T10:48:14.439Z</time></trkpt><trkpt lat="44.3778267" lon="11.6113833"><ele>124.00000000000001</ele><time>2026-05-01T10:48:15.44Z</time></trkpt><trkpt lat="44.37782" lon="11.6114817"><ele>124.0</ele><time>2026-05-01T10:48:16.442Z</time></trkpt><trkpt lat="44.3778183" lon="11.6115767"><ele>124.0</ele><time>2026-05-01T10:48:17.443Z</time></trkpt><trkpt lat="44.3778183" lon="11.6116683"><ele>123.71428571428572</ele><time>2026-05-01T10:48:18.44Z</time></trkpt><trkpt lat="44.3778117" lon="11.61176"><ele>123.42857142857144</ele><time>2026-05-01T10:48:19.44Z</time></trkpt><trkpt lat="44.3778033" lon="11.6118567"><ele>123.14285714285714</ele><time>2026-05-01T10:48:20.44Z</time></trkpt><trkpt lat="44.377795" lon="11.6119517"><ele>122.85714285714286</ele><time>2026-05-01T10:48:21.44Z</time></trkpt><trkpt lat="44.3777917" lon="11.612055"><ele>122.57142857142857</ele><time>2026-05-01T10:48:22.44Z</time></trkpt><trkpt lat="44.3777817" lon="11.61216"><ele>122.28571428571428</ele><time>2026-05-01T10:48:23.442Z</time></trkpt><trkpt lat="44.3777717" lon="11.6122583"><ele>121.99999999999999</ele><time>2026-05-01T10:48:24.439Z</time></trkpt><trkpt lat="44.3777617" lon="11.6123567"><ele>121.99999999999999</ele><time>2026-05-01T10:48:25.441Z</time></trkpt><trkpt lat="44.3777533" lon="11.6124533"><ele>122.0</ele><time>2026-05-01T10:48:26.439Z</time></trkpt><trkpt lat="44.3777483" lon="11.612555"><ele>121.99999999999999</ele><time>2026-05-01T10:48:27.44Z</time></trkpt><trkpt lat="44.3777433" lon="11.612655"><ele>121.99999999999999</ele><time>2026-05-01T10:48:28.44Z</time></trkpt><trkpt lat="44.3777333" lon="11.6127533"><ele>122.0</ele><time>2026-05-01T10:48:29.439Z</time></trkpt><trkpt lat="44.3777133" lon="11.6128467"><ele>121.99999999999999</ele><time>2026-05-01T10:48:30.44Z</time></trkpt><trkpt lat="44.377685" lon="11.61294"><ele>121.99999999999999</ele><time>2026-05-01T10:48:31.44Z</time></trkpt><trkpt lat="44.3776433" lon="11.6130217"><ele>121.85714285714283</ele><time>2026-05-01T10:48:32.441Z</time></trkpt><trkpt lat="44.37759" lon="11.6130717"><ele>121.71428571428571</ele><time>2026-05-01T10:48:33.44Z</time></trkpt><trkpt lat="44.3775333" lon="11.6131283"><ele>121.57142857142856</ele><time>2026-05-01T10:48:34.439Z</time></trkpt><trkpt lat="44.3774783" lon="11.6131883"><ele>121.42857142857142</ele><time>2026-05-01T10:48:35.44Z</time></trkpt><trkpt lat="44.377425" lon="11.6132517"><ele>121.28571428571428</ele><time>2026-05-01T10:48:36.44Z</time></trkpt><trkpt lat="44.377375" lon="11.613315"><ele>121.14285714285714</ele><time>2026-05-01T10:48:37.441Z</time></trkpt><trkpt lat="44.377325" lon="11.6133733"><ele>121.0</ele><time>2026-05-01T10:48:38.44Z</time></trkpt><trkpt lat="44.377275" lon="11.6134317"><ele>121.0</ele><time>2026-05-01T10:48:39.439Z</time></trkpt><trkpt lat="44.3771833" lon="11.613545"><ele>121.0</ele><time>2026-05-01T10:48:41.44Z</time></trkpt><trkpt lat="44.377115" lon="11.6136817"><ele>121.0</ele><time>2026-05-01T10:48:43.44Z</time></trkpt><trkpt lat="44.3770767" lon="11.613845"><ele>121.0</ele><time>2026-05-01T10:48:45.44Z</time></trkpt><trkpt lat="44.377065" lon="11.6139317"><ele>121.0</ele><time>2026-05-01T10:48:46.443Z</time></trkpt><trkpt lat="44.3770533" lon="11.6140217"><ele>121.00000000000001</ele><time>2026-05-01T10:48:47.443Z</time></trkpt><trkpt lat="44.3770233" lon="11.6141933"><ele>121.0</ele><time>2026-05-01T10:48:49.44Z</time></trkpt><trkpt lat="44.3770117" lon="11.6142833"><ele>121.0</ele><time>2026-05-01T10:48:50.439Z</time></trkpt><trkpt lat="44.3769967" lon="11.6143733"><ele>121.0</ele><time>2026-05-01T10:48:51.44Z</time></trkpt><trkpt lat="44.3769883" lon="11.6144667"><ele>121.00000000000001</ele><time>2026-05-01T10:48:52.44Z</time></trkpt><trkpt lat="44.3769783" lon="11.6145583"><ele>121.0</ele><time>2026-05-01T10:48:53.439Z</time></trkpt><trkpt lat="44.37696" lon="11.614655"><ele>120.66666666666667</ele><time>2026-05-01T10:48:54.441Z</time></trkpt><trkpt lat="44.3769483" lon="11.6147483"><ele>120.33333333333334</ele><time>2026-05-01T10:48:55.439Z</time></trkpt><trkpt lat="44.376935" lon="11.6148383"><ele>120.0</ele><time>2026-05-01T10:48:56.44Z</time></trkpt><trkpt lat="44.3769067" lon="11.6149983"><ele>119.66666666666666</ele><time>2026-05-01T10:48:58.44Z</time></trkpt><trkpt lat="44.37689" lon="11.6151117"><ele>119.33333333333333</ele><time>2026-05-01T10:49:00.44Z</time></trkpt><trkpt lat="44.3769333" lon="11.6152217"><ele>119.0</ele><time>2026-05-01T10:49:03.439Z</time></trkpt><trkpt lat="44.3769883" lon="11.615295"><ele>119.0</ele><time>2026-05-01T10:49:07.439Z</time></trkpt><trkpt lat="44.3769383" lon="11.6152283"><ele>119.0</ele><time>2026-05-01T10:49:19.44Z</time></trkpt><trkpt lat="44.3768783" lon="11.61526"><ele>119.0</ele><time>2026-05-01T10:49:22.441Z</time></trkpt><trkpt lat="44.37685" lon="11.61535"><ele>119.0</ele><time>2026-05-01T10:49:25.442Z</time></trkpt><trkpt lat="44.3768567" lon="11.615455"><ele>119.0</ele><time>2026-05-01T10:49:28.441Z</time></trkpt><trkpt lat="44.376855" lon="11.6155483"><ele>119.0</ele><time>2026-05-01T10:49:31.44Z</time></trkpt><trkpt lat="44.3767867" lon="11.6156417"><ele>119.0</ele><time>2026-05-01T10:49:34.441Z</time></trkpt><trkpt lat="44.37669" lon="11.6156783"><ele>118.80000000000001</ele><time>2026-05-01T10:49:36.44Z</time></trkpt><trkpt lat="44.3765733" lon="11.6157"><ele>118.60000000000001</ele><time>2026-05-01T10:49:38.442Z</time></trkpt><trkpt lat="44.3765033" lon="11.6157033"><ele>118.4</ele><time>2026-05-01T10:49:39.44Z</time></trkpt><trkpt lat="44.3764183" lon="11.6157067"><ele>118.2</ele><time>2026-05-01T10:49:40.441Z</time></trkpt><trkpt lat="44.376315" lon="11.61574"><ele>118.0</ele><time>2026-05-01T10:49:41.441Z</time></trkpt><trkpt lat="44.3762067" lon="11.6157783"><ele>114.5</ele><time>2026-05-01T10:49:42.44Z</time></trkpt><trkpt lat="44.3760933" lon="11.6158133"><ele>111.0</ele><time>2026-05-01T10:49:43.442Z</time></trkpt><trkpt lat="44.3759733" lon="11.6158583"><ele>107.5</ele><time>2026-05-01T10:49:44.441Z</time></trkpt><trkpt lat="44.3758467" lon="11.6159333"><ele>104.0</ele><time>2026-05-01T10:49:45.442Z</time></trkpt><trkpt lat="44.3757267" lon="11.61597"><ele>104.0</ele><time>2026-05-01T10:49:46.443Z</time></trkpt><trkpt lat="44.3755983" lon="11.6159967"><ele>104.0</ele><time>2026-05-01T10:49:47.443Z</time></trkpt><trkpt lat="44.375465" lon="11.6160133"><ele>104.0</ele><time>2026-05-01T10:49:48.444Z</time></trkpt><trkpt lat="44.375335" lon="11.6160183"><ele>104.0</ele><time>2026-05-01T10:49:49.443Z</time></trkpt><trkpt lat="44.3752033" lon="11.6160117"><ele>102.25</ele><time>2026-05-01T10:49:50.442Z</time></trkpt><trkpt lat="44.3750733" lon="11.6160017"><ele>100.5</ele><time>2026-05-01T10:49:51.443Z</time></trkpt><trkpt lat="44.374945" lon="11.615985"><ele>98.75</ele><time>2026-05-01T10:49:52.443Z</time></trkpt><trkpt lat="44.3748217" lon="11.615955"><ele>97.0</ele><time>2026-05-01T10:49:53.442Z</time></trkpt><trkpt lat="44.3747117" lon="11.615905"><ele>97.6</ele><time>2026-05-01T10:49:54.44Z</time></trkpt><trkpt lat="44.3746067" lon="11.6158433"><ele>98.19999999999999</ele><time>2026-05-01T10:49:55.44Z</time></trkpt><trkpt lat="44.3745167" lon="11.6157617"><ele>98.8</ele><time>2026-05-01T10:49:56.439Z</time></trkpt><trkpt lat="44.374465" lon="11.6156617"><ele>99.4</ele><time>2026-05-01T10:49:57.441Z</time></trkpt><trkpt lat="44.3744233" lon="11.6155667"><ele>100.0</ele><time>2026-05-01T10:49:58.442Z</time></trkpt><trkpt lat="44.3743933" lon="11.6154833"><ele>100.00000000000001</ele><time>2026-05-01T10:49:59.439Z</time></trkpt><trkpt lat="44.374365" lon="11.6153583"><ele>100.0</ele><time>2026-05-01T10:50:01.441Z</time></trkpt><trkpt lat="44.37435" lon="11.6152717"><ele>100.0</ele><time>2026-05-01T10:50:05.44Z</time></trkpt><trkpt lat="44.3743367" lon="11.61518"><ele>100.0</ele><time>2026-05-01T10:50:10.44Z</time></trkpt><trkpt lat="44.3743267" lon="11.6150833"><ele>100.00000000000001</ele><time>2026-05-01T10:50:15.443Z</time></trkpt><trkpt lat="44.3743033" lon="11.6149817"><ele>100.0</ele><time>2026-05-01T10:50:22.443Z</time></trkpt><trkpt lat="44.3743083" lon="11.61487"><ele>100.14285714285715</ele><time>2026-05-01T10:50:28.439Z</time></trkpt><trkpt lat="44.374285" lon="11.6147833"><ele>100.28571428571429</ele><time>2026-05-01T10:50:33.44Z</time></trkpt><trkpt lat="44.3742733" lon="11.6146967"><ele>100.42857142857143</ele><time>2026-05-01T10:50:38.44Z</time></trkpt><trkpt lat="44.37424" lon="11.6146133"><ele>100.57142857142858</ele><time>2026-05-01T10:50:45.44Z</time></trkpt><trkpt lat="44.3742267" lon="11.6145233"><ele>100.71428571428571</ele><time>2026-05-01T10:50:51.443Z</time></trkpt><trkpt lat="44.374215" lon="11.6144367"><ele>100.85714285714286</ele><time>2026-05-01T10:50:56.441Z</time></trkpt><trkpt lat="44.3742233" lon="11.614345"><ele>101.0</ele><time>2026-05-01T10:51:02.441Z</time></trkpt><trkpt lat="44.3741983" lon="11.6142617"><ele>102.0</ele><time>2026-05-01T10:51:07.442Z</time></trkpt><trkpt lat="44.3741883" lon="11.6141667"><ele>103.0</ele><time>2026-05-01T10:51:13.441Z</time></trkpt><trkpt lat="44.3741617" lon="11.6140867"><ele>104.0</ele><time>2026-05-01T10:51:19.441Z</time></trkpt><trkpt lat="44.3741383" lon="11.6139917"><ele>105.0</ele><time>2026-05-01T10:51:25.442Z</time></trkpt><trkpt lat="44.374115" lon="11.6138733"><ele>106.0</ele><time>2026-05-01T10:51:33.441Z</time></trkpt><trkpt lat="44.374125" lon="11.6137817"><ele>107.0</ele><time>2026-05-01T10:51:39.441Z</time></trkpt><trkpt lat="44.3741067" lon="11.6136917"><ele>108.0</ele><time>2026-05-01T10:51:45.44Z</time></trkpt><trkpt lat="44.3740917" lon="11.6135983"><ele>109.57142857142857</ele><time>2026-05-01T10:51:51.441Z</time></trkpt><trkpt lat="44.3740767" lon="11.6135117"><ele>111.14285714285714</ele><time>2026-05-01T10:51:57.443Z</time></trkpt><trkpt lat="44.37407" lon="11.6134217"><ele>112.71428571428572</ele><time>2026-05-01T10:52:02.442Z</time></trkpt><trkpt lat="44.374045" lon="11.6133317"><ele>114.28571428571428</ele><time>2026-05-01T10:52:09.441Z</time></trkpt><trkpt lat="44.374025" lon="11.6132217"><ele>115.85714285714286</ele><time>2026-05-01T10:52:16.443Z</time></trkpt><trkpt lat="44.37402" lon="11.6130983"><ele>117.42857142857143</ele><time>2026-05-01T10:52:25.442Z</time></trkpt><trkpt lat="44.3739917" lon="11.6130167"><ele>119.0</ele><time>2026-05-01T10:52:31.442Z</time></trkpt><trkpt lat="44.37398" lon="11.6129233"><ele>119.0</ele><time>2026-05-01T10:52:39.442Z</time></trkpt><trkpt lat="44.373955" lon="11.6128233"><ele>119.0</ele><time>2026-05-01T10:52:46.442Z</time></trkpt><trkpt lat="44.3739433" lon="11.6127267"><ele>119.0</ele><time>2026-05-01T10:52:52.442Z</time></trkpt><trkpt lat="44.3739317" lon="11.61264"><ele>119.0</ele><time>2026-05-01T10:52:58.44Z</time></trkpt><trkpt lat="44.3739" lon="11.6125433"><ele>119.0</ele><time>2026-05-01T10:53:04.441Z</time></trkpt><trkpt lat="44.3738717" lon="11.6124617"><ele>119.0</ele><time>2026-05-01T10:53:09.443Z</time></trkpt><trkpt lat="44.373845" lon="11.6123817"><ele>119.0</ele><time>2026-05-01T10:53:13.441Z</time></trkpt><trkpt lat="44.3738217" lon="11.61229"><ele>122.0</ele><time>2026-05-01T10:53:18.442Z</time></trkpt><trkpt lat="44.3737817" lon="11.6122"><ele>125.0</ele><time>2026-05-01T10:53:23.442Z</time></trkpt><trkpt lat="44.3737417" lon="11.61212"><ele>128.0</ele><time>2026-05-01T10:53:27.442Z</time></trkpt><trkpt lat="44.3736933" lon="11.6120517"><ele>131.0</ele><time>2026-05-01T10:53:31.442Z</time></trkpt><trkpt lat="44.373665" lon="11.61197"><ele>134.0</ele><time>2026-05-01T10:53:35.442Z</time></trkpt><trkpt lat="44.37362" lon="11.611885"><ele>137.0</ele><time>2026-05-01T10:53:39.441Z</time></trkpt><trkpt lat="44.3735833" lon="11.6117983"><ele>140.0</ele><time>2026-05-01T10:53:43.441Z</time></trkpt><trkpt lat="44.3735383" lon="11.61172"><ele>140.14285714285714</ele><time>2026-05-01T10:53:47.442Z</time></trkpt><trkpt lat="44.373505" lon="11.61163"><ele>140.28571428571428</ele><time>2026-05-01T10:53:52.441Z</time></trkpt><trkpt lat="44.3734683" lon="11.6115533"><ele>140.42857142857144</ele><time>2026-05-01T10:53:56.44Z</time></trkpt><trkpt lat="44.3734233" lon="11.6114717"><ele>140.57142857142856</ele><time>2026-05-01T10:54:01.44Z</time></trkpt><trkpt lat="44.3733683" lon="11.6114"><ele>140.71428571428572</ele><time>2026-05-01T10:54:06.441Z</time></trkpt><trkpt lat="44.373315" lon="11.611345"><ele>140.85714285714286</ele><time>2026-05-01T10:54:10.44Z</time></trkpt><trkpt lat="44.3732483" lon="11.611295"><ele>141.0</ele><time>2026-05-01T10:54:15.44Z</time></trkpt><trkpt lat="44.373185" lon="11.6112533"><ele>141.0</ele><time>2026-05-01T10:54:20.442Z</time></trkpt><trkpt lat="44.37312" lon="11.61123"><ele>141.0</ele><time>2026-05-01T10:54:25.439Z</time></trkpt><trkpt lat="44.3730533" lon="11.6112"><ele>141.0</ele><time>2026-05-01T10:54:30.439Z</time></trkpt><trkpt lat="44.3729917" lon="11.6111667"><ele>141.0</ele><time>2026-05-01T10:54:35.438Z</time></trkpt><trkpt lat="44.3729283" lon="11.611145"><ele>141.0</ele><time>2026-05-01T10:54:39.439Z</time></trkpt><trkpt lat="44.37285" lon="11.611145"><ele>141.0</ele><time>2026-05-01T10:54:44.44Z</time></trkpt><trkpt lat="44.37278" lon="11.6111033"><ele>141.0</ele><time>2026-05-01T10:54:49.443Z</time></trkpt><trkpt lat="44.3727183" lon="11.61107"><ele>143.0</ele><time>2026-05-01T10:54:53.443Z</time></trkpt><trkpt lat="44.3726417" lon="11.6110433"><ele>145.0</ele><time>2026-05-01T10:54:58.443Z</time></trkpt><trkpt lat="44.372565" lon="11.6110283"><ele>147.0</ele><time>2026-05-01T10:55:03.44Z</time></trkpt><trkpt lat="44.3724917" lon="11.61102"><ele>149.0</ele><time>2026-05-01T10:55:07.44Z</time></trkpt><trkpt lat="44.3724133" lon="11.61101"><ele>151.0</ele><time>2026-05-01T10:55:11.439Z</time></trkpt><trkpt lat="44.37233" lon="11.6109883"><ele>153.0</ele><time>2026-05-01T10:55:15.441Z</time></trkpt><trkpt lat="44.3722667" lon="11.6109583"><ele>153.0</ele><time>2026-05-01T10:55:18.443Z</time></trkpt><trkpt lat="44.3722017" lon="11.6109017"><ele>153.0</ele><time>2026-05-01T10:55:21.442Z</time></trkpt><trkpt lat="44.3721467" lon="11.6108367"><ele>153.0</ele><time>2026-05-01T10:55:24.441Z</time></trkpt><trkpt lat="44.372095" lon="11.6107483"><ele>153.0</ele><time>2026-05-01T10:55:27.44Z</time></trkpt><trkpt lat="44.37205" lon="11.6106683"><ele>153.0</ele><time>2026-05-01T10:55:30.441Z</time></trkpt><trkpt lat="44.3720007" lon="11.6105875"><ele>153.0</ele><time>2026-05-01T10:55:33.441Z</time></trkpt><trkpt lat="44.371961" lon="11.6105013"><ele>152.71428571428572</ele><time>2026-05-01T10:55:36.44Z</time></trkpt><trkpt lat="44.371914" lon="11.610418"><ele>152.42857142857144</ele><time>2026-05-01T10:55:39.442Z</time></trkpt><trkpt lat="44.3718808" lon="11.6103363"><ele>152.14285714285717</ele><time>2026-05-01T10:55:42.443Z</time></trkpt><trkpt lat="44.3718265" lon="11.61025"><ele>151.85714285714286</ele><time>2026-05-01T10:55:46.443Z</time></trkpt><trkpt lat="44.3717678" lon="11.6101751"><ele>151.57142857142858</ele><time>2026-05-01T10:55:50.443Z</time></trkpt><trkpt lat="44.3717084" lon="11.6101388"><ele>151.2857142857143</ele><time>2026-05-01T10:55:54.442Z</time></trkpt><trkpt lat="44.3716452" lon="11.6101087"><ele>151.0</ele><time>2026-05-01T10:55:59.441Z</time></trkpt><trkpt lat="44.3715806" lon="11.6100751"><ele>152.14285714285717</ele><time>2026-05-01T10:56:03.442Z</time></trkpt><trkpt lat="44.3715273" lon="11.6100122"><ele>153.28571428571428</ele><time>2026-05-01T10:56:07.443Z</time></trkpt><trkpt lat="44.3714546" lon="11.6099819"><ele>154.42857142857144</ele><time>2026-05-01T10:56:12.441Z</time></trkpt><trkpt lat="44.371398" lon="11.6099325"><ele>155.57142857142858</ele><time>2026-05-01T10:56:17.443Z</time></trkpt><trkpt lat="44.3713395" lon="11.6098989"><ele>156.71428571428572</ele><time>2026-05-01T10:56:22.443Z</time></trkpt><trkpt lat="44.3712805" lon="11.6098578"><ele>157.85714285714286</ele><time>2026-05-01T10:56:27.445Z</time></trkpt><trkpt lat="44.3712253" lon="11.6098122"><ele>159.0</ele><time>2026-05-01T10:56:32.444Z</time></trkpt><trkpt lat="44.3711551" lon="11.6097674"><ele>159.7142857142857</ele><time>2026-05-01T10:56:37.442Z</time></trkpt><trkpt lat="44.3710832" lon="11.6097269"><ele>160.42857142857144</ele><time>2026-05-01T10:56:42.442Z</time></trkpt><trkpt lat="44.3710144" lon="11.6096835"><ele>161.14285714285714</ele><time>2026-05-01T10:56:47.443Z</time></trkpt><trkpt lat="44.370955" lon="11.6096512"><ele>161.85714285714283</ele><time>2026-05-01T10:56:52.443Z</time></trkpt><trkpt lat="44.3708924" lon="11.6096044"><ele>162.57142857142856</ele><time>2026-05-01T10:56:56.441Z</time></trkpt><trkpt lat="44.3708251" lon="11.6095635"><ele>163.28571428571428</ele><time>2026-05-01T10:57:00.441Z</time></trkpt><trkpt lat="44.3707613" lon="11.6095193"><ele>164.0</ele><time>2026-05-01T10:57:04.441Z</time></trkpt><trkpt lat="44.3706986" lon="11.609475"><ele>164.83333333333331</ele><time>2026-05-01T10:57:08.44Z</time></trkpt><trkpt lat="44.3706367" lon="11.6094283"><ele>165.66666666666666</ele><time>2026-05-01T10:57:12.442Z</time></trkpt><trkpt lat="44.3705717" lon="11.609375"><ele>166.5</ele><time>2026-05-01T10:57:16.443Z</time></trkpt><trkpt lat="44.3705067" lon="11.6093217"><ele>167.33333333333334</ele><time>2026-05-01T10:57:20.443Z</time></trkpt><trkpt lat="44.3704183" lon="11.6092517"><ele>168.16666666666669</ele><time>2026-05-01T10:58:34.443Z</time></trkpt><trkpt lat="44.3703517" lon="11.6092"><ele>169.0</ele><time>2026-05-01T10:58:38.442Z</time></trkpt><trkpt lat="44.3702817" lon="11.6091383"><ele>169.42857142857144</ele><time>2026-05-01T10:58:42.443Z</time></trkpt><trkpt lat="44.37022" lon="11.6090967"><ele>169.85714285714286</ele><time>2026-05-01T10:58:45.443Z</time></trkpt><trkpt lat="44.3701633" lon="11.6090483"><ele>170.28571428571428</ele><time>2026-05-01T10:58:48.44Z</time></trkpt><trkpt lat="44.37011" lon="11.6089967"><ele>170.71428571428572</ele><time>2026-05-01T10:58:51.441Z</time></trkpt><trkpt lat="44.3700567" lon="11.6089433"><ele>171.14285714285714</ele><time>2026-05-01T10:58:54.441Z</time></trkpt><trkpt lat="44.3700133" lon="11.6088783"><ele>171.57142857142858</ele><time>2026-05-01T10:58:57.44Z</time></trkpt><trkpt lat="44.3699583" lon="11.608825"><ele>172.0</ele><time>2026-05-01T10:59:00.441Z</time></trkpt><trkpt lat="44.3698867" lon="11.60876"><ele>172.0</ele><time>2026-05-01T10:59:04.443Z</time></trkpt><trkpt lat="44.3698283" lon="11.6087167"><ele>172.0</ele><time>2026-05-01T10:59:07.442Z</time></trkpt><trkpt lat="44.369765" lon="11.6086567"><ele>172.0</ele><time>2026-05-01T10:59:11.441Z</time></trkpt><trkpt lat="44.369695" lon="11.6086067"><ele>172.0</ele><time>2026-05-01T10:59:15.442Z</time></trkpt><trkpt lat="44.36963" lon="11.6085467"><ele>172.0</ele><time>2026-05-01T10:59:20.441Z</time></trkpt><trkpt lat="44.3695633" lon="11.6084933"><ele>172.0</ele><time>2026-05-01T10:59:25.442Z</time></trkpt><trkpt lat="44.369505" lon="11.6084283"><ele>173.42857142857144</ele><time>2026-05-01T10:59:29.441Z</time></trkpt><trkpt lat="44.3694417" lon="11.60836"><ele>174.85714285714286</ele><time>2026-05-01T10:59:33.44Z</time></trkpt><trkpt lat="44.3693833" lon="11.6083083"><ele>176.28571428571428</ele><time>2026-05-01T10:59:37.442Z</time></trkpt><trkpt lat="44.3693267" lon="11.608255"><ele>177.71428571428572</ele><time>2026-05-01T10:59:41.441Z</time></trkpt><trkpt lat="44.3692633" lon="11.608195"><ele>179.14285714285714</ele><time>2026-05-01T10:59:45.442Z</time></trkpt><trkpt lat="44.369205" lon="11.6081317"><ele>180.57142857142858</ele><time>2026-05-01T10:59:49.44Z</time></trkpt><trkpt lat="44.369145" lon="11.60808"><ele>182.0</ele><time>2026-05-01T10:59:53.441Z</time></trkpt><trkpt lat="44.3690867" lon="11.608025"><ele>182.0</ele><time>2026-05-01T10:59:57.441Z</time></trkpt><trkpt lat="44.3690283" lon="11.6079733"><ele>182.0</ele><time>2026-05-01T11:00:01.44Z</time></trkpt><trkpt lat="44.36897" lon="11.60792"><ele>182.0</ele><time>2026-05-01T11:00:05.44Z</time></trkpt><trkpt lat="44.3693833" lon="11.6083083"><ele>182.0</ele><time>2026-05-01T10:59:37.442Z</time></trkpt><trkpt lat="44.3693267" lon="11.608255"><ele>182.0</ele><time>2026-05-01T10:59:41.441Z</time></trkpt><trkpt lat="44.3692633" lon="11.608195"><ele>182.0</ele><time>2026-05-01T10:59:45.442Z</time></trkpt><trkpt lat="44.369205" lon="11.6081317"><ele>182.0</ele><time>2026-05-01T10:59:49.44Z</time></trkpt><trkpt lat="44.369145" lon="11.60808"><ele>182.0</ele><time>2026-05-01T10:59:53.441Z</time></trkpt><trkpt lat="44.3690867" lon="11.608025"><ele>182.0</ele><time>2026-05-01T10:59:57.441Z</time></trkpt><trkpt lat="44.3690283" lon="11.6079733"><ele>182.0</ele><time>2026-05-01T11:00:01.44Z</time></trkpt><trkpt lat="44.36897" lon="11.60792"><ele>182.0</ele><time>2026-05-01T11:00:05.44Z</time></trkpt><trkpt lat="44.368915" lon="11.6078567"><ele>182.0</ele><time>2026-05-01T11:00:09.44Z</time></trkpt><trkpt lat="44.3688517" lon="11.6077983"><ele>182.0</ele><time>2026-05-01T11:00:13.44Z</time></trkpt><trkpt lat="44.3687917" lon="11.6077283"><ele>182.0</ele><time>2026-05-01T11:00:18.44Z</time></trkpt><trkpt lat="44.3687467" lon="11.6076467"><ele>182.0</ele><time>2026-05-01T11:00:22.442Z</time></trkpt><trkpt lat="44.36869" lon="11.6075767"><ele>182.0</ele><time>2026-05-01T11:00:26.441Z</time></trkpt><trkpt lat="44.3686433" lon="11.6075067"><ele>182.0</ele><time>2026-05-01T11:00:30.441Z</time></trkpt><trkpt lat="44.3686083" lon="11.6074317"><ele>183.16666666666666</ele><time>2026-05-01T11:00:34.442Z</time></trkpt><trkpt lat="44.368545" lon="11.6073633"><ele>184.33333333333331</ele><time>2026-05-01T11:00:38.442Z</time></trkpt><trkpt lat="44.3684833" lon="11.60727"><ele>185.5</ele><time>2026-05-01T11:00:43.442Z</time></trkpt><trkpt lat="44.36843" lon="11.60719"><ele>186.66666666666666</ele><time>2026-05-01T11:00:47.442Z</time></trkpt><trkpt lat="44.3683717" lon="11.6071317"><ele>187.83333333333334</ele><time>2026-05-01T11:00:51.44Z</time></trkpt><trkpt lat="44.3683183" lon="11.607065"><ele>189.0</ele><time>2026-05-01T11:00:55.439Z</time></trkpt><trkpt lat="44.36826" lon="11.60703"><ele>189.0</ele><time>2026-05-01T11:00:58.441Z</time></trkpt><trkpt lat="44.368175" lon="11.6070033"><ele>189.0</ele><time>2026-05-01T11:01:02.44Z</time></trkpt><trkpt lat="44.36811" lon="11.6069917"><ele>189.0</ele><time>2026-05-01T11:01:05.439Z</time></trkpt><trkpt lat="44.368045" lon="11.6069833"><ele>189.0</ele><time>2026-05-01T11:01:08.44Z</time></trkpt><trkpt lat="44.36798" lon="11.6069583"><ele>189.0</ele><time>2026-05-01T11:01:11.44Z</time></trkpt><trkpt lat="44.367915" lon="11.60692"><ele>189.0</ele><time>2026-05-01T11:01:14.441Z</time></trkpt><trkpt lat="44.3678417" lon="11.6069033"><ele>189.0</ele><time>2026-05-01T11:01:17.442Z</time></trkpt><trkpt lat="44.36776" lon="11.6069017"><ele>190.5</ele><time>2026-05-01T11:01:20.441Z</time></trkpt><trkpt lat="44.3676783" lon="11.6069133"><ele>192.0</ele><time>2026-05-01T11:01:23.441Z</time></trkpt><trkpt lat="44.3676017" lon="11.6069017"><ele>193.5</ele><time>2026-05-01T11:01:26.442Z</time></trkpt><trkpt lat="44.3675283" lon="11.6068833"><ele>195.0</ele><time>2026-05-01T11:01:29.441Z</time></trkpt><trkpt lat="44.367455" lon="11.6068617"><ele>196.5</ele><time>2026-05-01T11:01:32.441Z</time></trkpt><trkpt lat="44.3673783" lon="11.606855"><ele>198.0</ele><time>2026-05-01T11:01:35.442Z</time></trkpt><trkpt lat="44.3673067" lon="11.6068533"><ele>198.0</ele><time>2026-05-01T11:01:38.442Z</time></trkpt><trkpt lat="44.367235" lon="11.60684"><ele>198.0</ele><time>2026-05-01T11:01:41.442Z</time></trkpt><trkpt lat="44.3671567" lon="11.60683"><ele>198.0</ele><time>2026-05-01T11:01:44.441Z</time></trkpt><trkpt lat="44.3670867" lon="11.6068167"><ele>198.0</ele><time>2026-05-01T11:01:47.443Z</time></trkpt><trkpt lat="44.3670217" lon="11.6068067"><ele>198.0</ele><time>2026-05-01T11:01:50.443Z</time></trkpt><trkpt lat="44.36694" lon="11.6068"><ele>198.0</ele><time>2026-05-01T11:01:54.442Z</time></trkpt><trkpt lat="44.3668733" lon="11.6067867"><ele>198.0</ele><time>2026-05-01T11:01:58.44Z</time></trkpt><trkpt lat="44.3668033" lon="11.6067783"><ele>198.85714285714286</ele><time>2026-05-01T11:02:02.441Z</time></trkpt><trkpt lat="44.36674" lon="11.6067817"><ele>199.7142857142857</ele><time>2026-05-01T11:02:06.44Z</time></trkpt><trkpt lat="44.366675" lon="11.6067667"><ele>200.57142857142856</ele><time>2026-05-01T11:02:09.44Z</time></trkpt><trkpt lat="44.3665983" lon="11.6067567"><ele>201.42857142857144</ele><time>2026-05-01T11:02:13.439Z</time></trkpt><trkpt lat="44.366525" lon="11.6067567"><ele>202.28571428571428</ele><time>2026-05-01T11:02:17.443Z</time></trkpt><trkpt lat="44.3664617" lon="11.6067467"><ele>203.14285714285714</ele><time>2026-05-01T11:02:20.443Z</time></trkpt><trkpt lat="44.3663917" lon="11.6067467"><ele>204.0</ele><time>2026-05-01T11:02:24.443Z</time></trkpt><trkpt lat="44.3663183" lon="11.6067367"><ele>205.0</ele><time>2026-05-01T11:02:29.441Z</time></trkpt><trkpt lat="44.3662467" lon="11.606735"><ele>206.0</ele><time>2026-05-01T11:02:33.44Z</time></trkpt><trkpt lat="44.366175" lon="11.60673"><ele>207.0</ele><time>2026-05-01T11:02:37.44Z</time></trkpt><trkpt lat="44.3660933" lon="11.6067033"><ele>208.0</ele><time>2026-05-01T11:02:42.44Z</time></trkpt><trkpt lat="44.3660117" lon="11.606695"><ele>209.0</ele><time>2026-05-01T11:02:46.442Z</time></trkpt><trkpt lat="44.3659367" lon="11.6066817"><ele>210.0</ele><time>2026-05-01T11:02:50.442Z</time></trkpt><trkpt lat="44.365855" lon="11.6066683"><ele>210.0</ele><time>2026-05-01T11:02:54.443Z</time></trkpt><trkpt lat="44.36579" lon="11.6066717"><ele>210.0</ele><time>2026-05-01T11:02:57.44Z</time></trkpt><trkpt lat="44.3657183" lon="11.60666"><ele>210.0</ele><time>2026-05-01T11:03:01.441Z</time></trkpt><trkpt lat="44.3656367" lon="11.606665"><ele>210.0</ele><time>2026-05-01T11:03:05.442Z</time></trkpt><trkpt lat="44.36557" lon="11.606665"><ele>210.0</ele><time>2026-05-01T11:03:08.441Z</time></trkpt><trkpt lat="44.3655" lon="11.6066767"><ele>210.0</ele><time>2026-05-01T11:03:11.441Z</time></trkpt><trkpt lat="44.36543" lon="11.606675"><ele>210.0</ele><time>2026-05-01T11:03:14.441Z</time></trkpt><trkpt lat="44.3653633" lon="11.6066883"><ele>210.66666666666666</ele><time>2026-05-01T11:03:17.439Z</time></trkpt><trkpt lat="44.3652883" lon="11.6066967"><ele>211.33333333333331</ele><time>2026-05-01T11:03:20.44Z</time></trkpt><trkpt lat="44.365215" lon="11.6066967"><ele>212.0</ele><time>2026-05-01T11:03:23.442Z</time></trkpt><trkpt lat="44.365145" lon="11.6066967"><ele>212.66666666666666</ele><time>2026-05-01T11:03:26.441Z</time></trkpt><trkpt lat="44.3650617" lon="11.606705"><ele>213.33333333333331</ele><time>2026-05-01T11:03:29.44Z</time></trkpt><trkpt lat="44.3649817" lon="11.6066717"><ele>214.0</ele><time>2026-05-01T11:03:32.44Z</time></trkpt><trkpt lat="44.3649" lon="11.606645"><ele>213.99999999999997</ele><time>2026-05-01T11:03:35.44Z</time></trkpt><trkpt lat="44.3648183" lon="11.60663"><ele>214.0</ele><time>2026-05-01T11:03:38.441Z</time></trkpt><trkpt lat="44.3647567" lon="11.6066"><ele>214.0</ele><time>2026-05-01T11:03:41.44Z</time></trkpt><trkpt lat="44.364695" lon="11.606575"><ele>214.0</ele><time>2026-05-01T11:03:43.44Z</time></trkpt><trkpt lat="44.3646083" lon="11.6065467"><ele>213.99999999999997</ele><time>2026-05-01T11:03:46.443Z</time></trkpt><trkpt lat="44.3645183" lon="11.6065267"><ele>214.0</ele><time>2026-05-01T11:03:49.442Z</time></trkpt><trkpt lat="44.3644283" lon="11.6065033"><ele>213.99999999999997</ele><time>2026-05-01T11:03:52.442Z</time></trkpt><trkpt lat="44.3643417" lon="11.60649"><ele>214.0</ele><time>2026-05-01T11:03:55.442Z</time></trkpt><trkpt lat="44.36425" lon="11.606485"><ele>214.0</ele><time>2026-05-01T11:03:58.443Z</time></trkpt><trkpt lat="44.36416" lon="11.606485"><ele>214.0</ele><time>2026-05-01T11:04:01.443Z</time></trkpt><trkpt lat="44.3640733" lon="11.6064833"><ele>213.99999999999997</ele><time>2026-05-01T11:04:04.442Z</time></trkpt><trkpt lat="44.36399" lon="11.6064783"><ele>214.0</ele><time>2026-05-01T11:04:07.442Z</time></trkpt><trkpt lat="44.3639" lon="11.6064683"><ele>214.66666666666666</ele><time>2026-05-01T11:04:10.442Z</time></trkpt><trkpt lat="44.36381" lon="11.6064667"><ele>215.33333333333331</ele><time>2026-05-01T11:04:13.443Z</time></trkpt><trkpt lat="44.3637233" lon="11.60646"><ele>216.0</ele><time>2026-05-01T11:04:16.443Z</time></trkpt><trkpt lat="44.3636383" lon="11.6064633"><ele>216.66666666666669</ele><time>2026-05-01T11:04:19.44Z</time></trkpt><trkpt lat="44.3635583" lon="11.6064633"><ele>217.33333333333334</ele><time>2026-05-01T11:04:22.441Z</time></trkpt><trkpt lat="44.3634817" lon="11.606455"><ele>218.0</ele><time>2026-05-01T11:04:25.441Z</time></trkpt><trkpt lat="44.3634017" lon="11.6064467"><ele>218.00000000000003</ele><time>2026-05-01T11:04:28.442Z</time></trkpt><trkpt lat="44.3633183" lon="11.6064533"><ele>218.0</ele><time>2026-05-01T11:04:31.442Z</time></trkpt><trkpt lat="44.3632383" lon="11.6064567"><ele>218.0</ele><time>2026-05-01T11:04:34.44Z</time></trkpt><trkpt lat="44.3631567" lon="11.6064517"><ele>218.0</ele><time>2026-05-01T11:04:37.442Z</time></trkpt><trkpt lat="44.3630733" lon="11.6064467"><ele>218.00000000000003</ele><time>2026-05-01T11:04:40.442Z</time></trkpt><trkpt lat="44.3629833" lon="11.6064367"><ele>218.0</ele><time>2026-05-01T11:04:43.443Z</time></trkpt><trkpt lat="44.3629067" lon="11.60643"><ele>218.33333333333334</ele><time>2026-05-01T11:04:45.44Z</time></trkpt><trkpt lat="44.3628317" lon="11.606425"><ele>218.66666666666669</ele><time>2026-05-01T11:04:47.443Z</time></trkpt><trkpt lat="44.36276" lon="11.60642"><ele>219.0</ele><time>2026-05-01T11:04:49.442Z</time></trkpt><trkpt lat="44.3626833" lon="11.606415"><ele>219.33333333333331</ele><time>2026-05-01T11:04:51.439Z</time></trkpt><trkpt lat="44.3626067" lon="11.6064133"><ele>219.66666666666666</ele><time>2026-05-01T11:04:53.439Z</time></trkpt><trkpt lat="44.3625317" lon="11.6064117"><ele>220.0</ele><time>2026-05-01T11:04:55.439Z</time></trkpt><trkpt lat="44.3624517" lon="11.6064117"><ele>220.0</ele><time>2026-05-01T11:04:57.439Z</time></trkpt><trkpt lat="44.3623667" lon="11.6064183"><ele>220.0</ele><time>2026-05-01T11:04:59.439Z</time></trkpt><trkpt lat="44.3622833" lon="11.6064417"><ele>220.0</ele><time>2026-05-01T11:05:01.439Z</time></trkpt><trkpt lat="44.3621817" lon="11.60648"><ele>220.0</ele><time>2026-05-01T11:05:03.439Z</time></trkpt><trkpt lat="44.3620683" lon="11.6065033"><ele>220.0</ele><time>2026-05-01T11:05:05.439Z</time></trkpt><trkpt lat="44.3619517" lon="11.60653"><ele>220.4</ele><time>2026-05-01T11:05:07.439Z</time></trkpt><trkpt lat="44.3618333" lon="11.6065767"><ele>220.8</ele><time>2026-05-01T11:05:09.438Z</time></trkpt><trkpt lat="44.3617717" lon="11.606595"><ele>221.2</ele><time>2026-05-01T11:05:10.438Z</time></trkpt><trkpt lat="44.3616633" lon="11.6066317"><ele>221.6</ele><time>2026-05-01T11:05:12.439Z</time></trkpt><trkpt lat="44.36156" lon="11.6066883"><ele>222.0</ele><time>2026-05-01T11:05:14.44Z</time></trkpt><trkpt lat="44.3614567" lon="11.60675"><ele>222.0</ele><time>2026-05-01T11:05:16.442Z</time></trkpt><trkpt lat="44.3613717" lon="11.60687"><ele>222.0</ele><time>2026-05-01T11:05:18.442Z</time></trkpt><trkpt lat="44.3613267" lon="11.607035"><ele>222.0</ele><time>2026-05-01T11:05:20.442Z</time></trkpt><trkpt lat="44.361315" lon="11.6071233"><ele>222.0</ele><time>2026-05-01T11:05:21.442Z</time></trkpt><trkpt lat="44.3613033" lon="11.60721"><ele>222.0</ele><time>2026-05-01T11:05:22.442Z</time></trkpt><trkpt lat="44.3613017" lon="11.6072983"><ele>222.0</ele><time>2026-05-01T11:05:23.441Z</time></trkpt><trkpt lat="44.3613017" lon="11.6073867"><ele>221.6</ele><time>2026-05-01T11:05:24.442Z</time></trkpt><trkpt lat="44.3612983" lon="11.607475"><ele>221.2</ele><time>2026-05-01T11:05:25.442Z</time></trkpt><trkpt lat="44.361285" lon="11.6076483"><ele>220.8</ele><time>2026-05-01T11:05:27.442Z</time></trkpt><trkpt lat="44.361255" lon="11.6078133"><ele>220.4</ele><time>2026-05-01T11:05:29.442Z</time></trkpt><trkpt lat="44.3612083" lon="11.6079767"><ele>220.0</ele><time>2026-05-01T11:05:31.441Z</time></trkpt><trkpt lat="44.3611817" lon="11.6080617"><ele>219.99999999999997</ele><time>2026-05-01T11:05:32.442Z</time></trkpt><trkpt lat="44.3611533" lon="11.6081467"><ele>220.0</ele><time>2026-05-01T11:05:33.441Z</time></trkpt><trkpt lat="44.361115" lon="11.60823"><ele>220.0</ele><time>2026-05-01T11:05:34.442Z</time></trkpt><trkpt lat="44.3610767" lon="11.6083083"><ele>220.0</ele><time>2026-05-01T11:05:35.441Z</time></trkpt><trkpt lat="44.361035" lon="11.608385"><ele>220.0</ele><time>2026-05-01T11:05:36.442Z</time></trkpt><trkpt lat="44.360995" lon="11.6084617"><ele>219.99999999999997</ele><time>2026-05-01T11:05:37.443Z</time></trkpt><trkpt lat="44.360955" lon="11.6085333"><ele>220.0</ele><time>2026-05-01T11:05:38.442Z</time></trkpt><trkpt lat="44.36091" lon="11.6086117"><ele>218.83333333333331</ele><time>2026-05-01T11:05:39.442Z</time></trkpt><trkpt lat="44.3608633" lon="11.6086783"><ele>217.66666666666666</ele><time>2026-05-01T11:05:40.442Z</time></trkpt><trkpt lat="44.360815" lon="11.60874"><ele>216.5</ele><time>2026-05-01T11:05:41.443Z</time></trkpt><trkpt lat="44.3607633" lon="11.6088"><ele>215.33333333333331</ele><time>2026-05-01T11:05:42.441Z</time></trkpt><trkpt lat="44.3607133" lon="11.60886"><ele>214.16666666666666</ele><time>2026-05-01T11:05:43.442Z</time></trkpt><trkpt lat="44.360625" lon="11.60896"><ele>213.0</ele><time>2026-05-01T11:05:45.441Z</time></trkpt><trkpt lat="44.3605267" lon="11.609025"><ele>215.5</ele><time>2026-05-01T11:05:47.441Z</time></trkpt><trkpt lat="44.36044" lon="11.6090667"><ele>218.0</ele><time>2026-05-01T11:05:49.442Z</time></trkpt><trkpt lat="44.360365" lon="11.6091317"><ele>220.5</ele><time>2026-05-01T11:05:51.441Z</time></trkpt><trkpt lat="44.360315" lon="11.6092317"><ele>223.0</ele><time>2026-05-01T11:05:53.441Z</time></trkpt><trkpt lat="44.3602967" lon="11.6093483"><ele>225.5</ele><time>2026-05-01T11:05:55.442Z</time></trkpt><trkpt lat="44.360295" lon="11.60947"><ele>228.0</ele><time>2026-05-01T11:05:57.442Z</time></trkpt><trkpt lat="44.3602983" lon="11.609595"><ele>228.0</ele><time>2026-05-01T11:05:59.441Z</time></trkpt><trkpt lat="44.36032" lon="11.6097133"><ele>228.0</ele><time>2026-05-01T11:06:01.442Z</time></trkpt><trkpt lat="44.3603333" lon="11.6098317"><ele>228.0</ele><time>2026-05-01T11:06:03.441Z</time></trkpt><trkpt lat="44.3603483" lon="11.6099467"><ele>228.0</ele><time>2026-05-01T11:06:05.44Z</time></trkpt><trkpt lat="44.3603783" lon="11.610045"><ele>228.0</ele><time>2026-05-01T11:06:07.442Z</time></trkpt><trkpt lat="44.360405" lon="11.6101367"><ele>228.0</ele><time>2026-05-01T11:06:09.442Z</time></trkpt><trkpt lat="44.3604183" lon="11.6102317"><ele>228.0</ele><time>2026-05-01T11:06:11.441Z</time></trkpt><trkpt lat="44.3604283" lon="11.6103233"><ele>227.99999999999997</ele><time>2026-05-01T11:06:13.442Z</time></trkpt><trkpt lat="44.3604583" lon="11.6104433"><ele>228.0</ele><time>2026-05-01T11:06:16.443Z</time></trkpt><trkpt lat="44.3604533" lon="11.610545"><ele>228.0</ele><time>2026-05-01T11:06:19.443Z</time></trkpt><trkpt lat="44.3604467" lon="11.6106567"><ele>227.99999999999997</ele><time>2026-05-01T11:06:23.443Z</time></trkpt><trkpt lat="44.3604283" lon="11.6107533"><ele>228.0</ele><time>2026-05-01T11:06:27.439Z</time></trkpt><trkpt lat="44.36039" lon="11.6108267"><ele>228.0</ele><time>2026-05-01T11:06:30.44Z</time></trkpt><trkpt lat="44.3603333" lon="11.6108983"><ele>228.16666666666666</ele><time>2026-05-01T11:06:34.44Z</time></trkpt><trkpt lat="44.3602783" lon="11.6109633"><ele>228.33333333333331</ele><time>2026-05-01T11:06:38.441Z</time></trkpt><trkpt lat="44.3602117" lon="11.61103"><ele>228.5</ele><time>2026-05-01T11:06:42.44Z</time></trkpt><trkpt lat="44.3601433" lon="11.611085"><ele>228.66666666666666</ele><time>2026-05-01T11:06:46.443Z</time></trkpt><trkpt lat="44.3600667" lon="11.61111"><ele>228.83333333333331</ele><time>2026-05-01T11:06:50.442Z</time></trkpt><trkpt lat="44.35999" lon="11.6111233"><ele>229.0</ele><time>2026-05-01T11:06:54.442Z</time></trkpt><trkpt lat="44.3599183" lon="11.6111233"><ele>229.0</ele><time>2026-05-01T11:06:58.44Z</time></trkpt><trkpt lat="44.3598483" lon="11.61111"><ele>229.0</ele><time>2026-05-01T11:07:01.44Z</time></trkpt><trkpt lat="44.3597783" lon="11.61109"><ele>229.0</ele><time>2026-05-01T11:07:04.44Z</time></trkpt><trkpt lat="44.3597117" lon="11.6110667"><ele>229.0</ele><time>2026-05-01T11:07:07.439Z</time></trkpt><trkpt lat="44.3596417" lon="11.61104"><ele>229.0</ele><time>2026-05-01T11:07:10.44Z</time></trkpt><trkpt lat="44.3595667" lon="11.6110417"><ele>229.0</ele><time>2026-05-01T11:07:13.442Z</time></trkpt><trkpt lat="44.3595033" lon="11.6110567"><ele>229.0</ele><time>2026-05-01T11:07:16.443Z</time></trkpt><trkpt lat="44.3594483" lon="11.6111017"><ele>230.0</ele><time>2026-05-01T11:07:19.443Z</time></trkpt><trkpt lat="44.359405" lon="11.6111717"><ele>231.0</ele><time>2026-05-01T11:07:22.44Z</time></trkpt><trkpt lat="44.3593783" lon="11.611265"><ele>232.0</ele><time>2026-05-01T11:07:26.439Z</time></trkpt><trkpt lat="44.3593483" lon="11.6113583"><ele>233.0</ele><time>2026-05-01T11:07:29.439Z</time></trkpt><trkpt lat="44.3593183" lon="11.6114567"><ele>234.0</ele><time>2026-05-01T11:07:32.439Z</time></trkpt><trkpt lat="44.3592967" lon="11.6115483"><ele>235.0</ele><time>2026-05-01T11:07:35.442Z</time></trkpt><trkpt lat="44.3592633" lon="11.611635"><ele>236.0</ele><time>2026-05-01T11:07:38.441Z</time></trkpt><trkpt lat="44.3592233" lon="11.6117267"><ele>236.0</ele><time>2026-05-01T11:07:41.439Z</time></trkpt><trkpt lat="44.3591783" lon="11.6118267"><ele>236.0</ele><time>2026-05-01T11:07:45.439Z</time></trkpt><trkpt lat="44.35914" lon="11.6119183"><ele>236.0</ele><time>2026-05-01T11:07:48.44Z</time></trkpt><trkpt lat="44.3591183" lon="11.6120067"><ele>236.0</ele><time>2026-05-01T11:07:51.443Z</time></trkpt><trkpt lat="44.3591167" lon="11.6121083"><ele>236.0</ele><time>2026-05-01T11:07:54.441Z</time></trkpt><trkpt lat="44.3591283" lon="11.6122217"><ele>236.0</ele><time>2026-05-01T11:07:57.441Z</time></trkpt><trkpt lat="44.359135" lon="11.612315"><ele>236.0</ele><time>2026-05-01T11:08:00.441Z</time></trkpt><trkpt lat="44.3591333" lon="11.6124333"><ele>236.33333333333334</ele><time>2026-05-01T11:08:04.441Z</time></trkpt><trkpt lat="44.3591083" lon="11.6125433"><ele>236.66666666666669</ele><time>2026-05-01T11:08:08.441Z</time></trkpt><trkpt lat="44.35903" lon="11.6126"><ele>237.0</ele><time>2026-05-01T11:08:12.442Z</time></trkpt><trkpt lat="44.358965" lon="11.6126117"><ele>237.33333333333331</ele><time>2026-05-01T11:08:15.442Z</time></trkpt><trkpt lat="44.3588933" lon="11.6126167"><ele>237.66666666666666</ele><time>2026-05-01T11:08:18.443Z</time></trkpt><trkpt lat="44.35882" lon="11.612625"><ele>238.0</ele><time>2026-05-01T11:08:21.442Z</time></trkpt><trkpt lat="44.35875" lon="11.6126183"><ele>239.57142857142856</ele><time>2026-05-01T11:08:24.443Z</time></trkpt><trkpt lat="44.3586833" lon="11.6126067"><ele>241.14285714285714</ele><time>2026-05-01T11:08:27.441Z</time></trkpt><trkpt lat="44.3586117" lon="11.61259"><ele>242.71428571428572</ele><time>2026-05-01T11:08:30.442Z</time></trkpt><trkpt lat="44.3585467" lon="11.6125917"><ele>244.28571428571428</ele><time>2026-05-01T11:08:33.44Z</time></trkpt><trkpt lat="44.35847" lon="11.6125883"><ele>245.85714285714283</ele><time>2026-05-01T11:08:37.441Z</time></trkpt><trkpt lat="44.3584033" lon="11.6126183"><ele>247.42857142857142</ele><time>2026-05-01T11:08:41.441Z</time></trkpt><trkpt lat="44.3583833" lon="11.6127217"><ele>249.0</ele><time>2026-05-01T11:08:44.441Z</time></trkpt><trkpt lat="44.3583967" lon="11.6128167"><ele>248.2</ele><time>2026-05-01T11:08:46.443Z</time></trkpt><trkpt lat="44.3584033" lon="11.61293"><ele>247.39999999999998</ele><time>2026-05-01T11:08:48.443Z</time></trkpt><trkpt lat="44.358415" lon="11.6130417"><ele>246.6</ele><time>2026-05-01T11:08:50.441Z</time></trkpt><trkpt lat="44.3584233" lon="11.6131617"><ele>245.8</ele><time>2026-05-01T11:08:52.439Z</time></trkpt><trkpt lat="44.35843" lon="11.6132933"><ele>245.0</ele><time>2026-05-01T11:08:54.44Z</time></trkpt><trkpt lat="44.3584317" lon="11.6134467"><ele>245.0</ele><time>2026-05-01T11:08:56.443Z</time></trkpt><trkpt lat="44.3584433" lon="11.6136"><ele>245.0</ele><time>2026-05-01T11:08:58.44Z</time></trkpt><trkpt lat="44.35846" lon="11.61375"><ele>245.0</ele><time>2026-05-01T11:09:00.439Z</time></trkpt><trkpt lat="44.35846" lon="11.6139183"><ele>245.0</ele><time>2026-05-01T11:09:02.44Z</time></trkpt><trkpt lat="44.3584683" lon="11.6140117"><ele>245.0</ele><time>2026-05-01T11:09:03.439Z</time></trkpt><trkpt lat="44.3584767" lon="11.61418"><ele>244.0</ele><time>2026-05-01T11:09:05.441Z</time></trkpt><trkpt lat="44.35848" lon="11.614275"><ele>243.0</ele><time>2026-05-01T11:09:06.44Z</time></trkpt><trkpt lat="44.358485" lon="11.6143683"><ele>242.0</ele><time>2026-05-01T11:09:07.441Z</time></trkpt><trkpt lat="44.35849" lon="11.6144667"><ele>241.0</ele><time>2026-05-01T11:09:08.443Z</time></trkpt><trkpt lat="44.3584917" lon="11.6145683"><ele>240.0</ele><time>2026-05-01T11:09:09.44Z</time></trkpt><trkpt lat="44.3584917" lon="11.6146583"><ele>239.0</ele><time>2026-05-01T11:09:10.441Z</time></trkpt><trkpt lat="44.358495" lon="11.6147483"><ele>238.0</ele><time>2026-05-01T11:09:11.44Z</time></trkpt><trkpt lat="44.358495" lon="11.6148483"><ele>237.71428571428572</ele><time>2026-05-01T11:09:12.443Z</time></trkpt><trkpt lat="44.3585017" lon="11.61495"><ele>237.42857142857144</ele><time>2026-05-01T11:09:13.44Z</time></trkpt><trkpt lat="44.3585067" lon="11.6150483"><ele>237.14285714285714</ele><time>2026-05-01T11:09:14.443Z</time></trkpt><trkpt lat="44.3585133" lon="11.6151467"><ele>236.85714285714286</ele><time>2026-05-01T11:09:15.44Z</time></trkpt><trkpt lat="44.3585117" lon="11.61525"><ele>236.57142857142858</ele><time>2026-05-01T11:09:16.443Z</time></trkpt><trkpt lat="44.35851" lon="11.6153533"><ele>236.28571428571428</ele><time>2026-05-01T11:09:17.443Z</time></trkpt><trkpt lat="44.3585083" lon="11.6154617"><ele>236.0</ele><time>2026-05-01T11:09:18.444Z</time></trkpt><trkpt lat="44.35851" lon="11.61557"><ele>235.33333333333334</ele><time>2026-05-01T11:09:19.44Z</time></trkpt><trkpt lat="44.35851" lon="11.6156717"><ele>234.66666666666669</ele><time>2026-05-01T11:09:20.439Z</time></trkpt><trkpt lat="44.35851" lon="11.6157817"><ele>234.0</ele><time>2026-05-01T11:09:21.441Z</time></trkpt><trkpt lat="44.35851" lon="11.615895"><ele>233.33333333333331</ele><time>2026-05-01T11:09:22.439Z</time></trkpt><trkpt lat="44.3585167" lon="11.616005"><ele>232.66666666666666</ele><time>2026-05-01T11:09:23.44Z</time></trkpt><trkpt lat="44.3585183" lon="11.6161183"><ele>232.0</ele><time>2026-05-01T11:09:24.442Z</time></trkpt><trkpt lat="44.3585217" lon="11.6162333"><ele>231.83333333333331</ele><time>2026-05-01T11:09:25.442Z</time></trkpt><trkpt lat="44.35853" lon="11.6163483"><ele>231.66666666666666</ele><time>2026-05-01T11:09:26.44Z</time></trkpt><trkpt lat="44.358545" lon="11.6164583"><ele>231.5</ele><time>2026-05-01T11:09:27.44Z</time></trkpt><trkpt lat="44.358565" lon="11.6165667"><ele>231.33333333333331</ele><time>2026-05-01T11:09:28.44Z</time></trkpt><trkpt lat="44.35858" lon="11.6166767"><ele>231.16666666666666</ele><time>2026-05-01T11:09:29.44Z</time></trkpt><trkpt lat="44.3586017" lon="11.61678"><ele>231.0</ele><time>2026-05-01T11:09:30.443Z</time></trkpt><trkpt lat="44.3586183" lon="11.6168867"><ele>230.66666666666666</ele><time>2026-05-01T11:09:31.441Z</time></trkpt><trkpt lat="44.3586367" lon="11.616995"><ele>230.33333333333331</ele><time>2026-05-01T11:09:32.439Z</time></trkpt><trkpt lat="44.3586533" lon="11.6171"><ele>230.0</ele><time>2026-05-01T11:09:33.44Z</time></trkpt><trkpt lat="44.3586717" lon="11.6172083"><ele>229.66666666666666</ele><time>2026-05-01T11:09:34.44Z</time></trkpt><trkpt lat="44.35868" lon="11.617315"><ele>229.33333333333331</ele><time>2026-05-01T11:09:35.439Z</time></trkpt><trkpt lat="44.3586917" lon="11.617425"><ele>229.0</ele><time>2026-05-01T11:09:36.439Z</time></trkpt><trkpt lat="44.3587083" lon="11.617535"><ele>228.99999999999997</ele><time>2026-05-01T11:09:37.442Z</time></trkpt><trkpt lat="44.358725" lon="11.61765"><ele>229.0</ele><time>2026-05-01T11:09:38.441Z</time></trkpt><trkpt lat="44.35874" lon="11.6177533"><ele>229.0</ele><time>2026-05-01T11:09:39.44Z</time></trkpt><trkpt lat="44.3587567" lon="11.6178467"><ele>229.0</ele><time>2026-05-01T11:09:40.44Z</time></trkpt><trkpt lat="44.3587817" lon="11.6179367"><ele>228.99999999999997</ele><time>2026-05-01T11:09:41.44Z</time></trkpt><trkpt lat="44.3588067" lon="11.61805"><ele>229.0</ele><time>2026-05-01T11:09:42.439Z</time></trkpt><trkpt lat="44.3588317" lon="11.6181567"><ele>228.49999999999997</ele><time>2026-05-01T11:09:43.441Z</time></trkpt><trkpt lat="44.3588617" lon="11.618265"><ele>228.0</ele><time>2026-05-01T11:09:44.441Z</time></trkpt><trkpt lat="44.3588917" lon="11.6183733"><ele>227.5</ele><time>2026-05-01T11:09:45.44Z</time></trkpt><trkpt lat="44.3589167" lon="11.6184867"><ele>227.0</ele><time>2026-05-01T11:09:46.444Z</time></trkpt><trkpt lat="44.3589433" lon="11.6186017"><ele>226.49999999999997</ele><time>2026-05-01T11:09:47.441Z</time></trkpt><trkpt lat="44.3589633" lon="11.61872"><ele>226.0</ele><time>2026-05-01T11:09:48.44Z</time></trkpt><trkpt lat="44.35899" lon="11.6188317"><ele>225.33333333333331</ele><time>2026-05-01T11:09:49.441Z</time></trkpt><trkpt lat="44.359015" lon="11.6189367"><ele>224.66666666666666</ele><time>2026-05-01T11:09:50.44Z</time></trkpt><trkpt lat="44.3590467" lon="11.6190333"><ele>224.0</ele><time>2026-05-01T11:09:51.441Z</time></trkpt><trkpt lat="44.35908" lon="11.6191267"><ele>223.33333333333331</ele><time>2026-05-01T11:09:52.442Z</time></trkpt><trkpt lat="44.359115" lon="11.619215"><ele>222.66666666666666</ele><time>2026-05-01T11:09:53.441Z</time></trkpt><trkpt lat="44.35915" lon="11.6193183"><ele>222.0</ele><time>2026-05-01T11:09:54.441Z</time></trkpt><trkpt lat="44.3591867" lon="11.619425"><ele>221.33333333333334</ele><time>2026-05-01T11:09:55.441Z</time></trkpt><trkpt lat="44.35923" lon="11.6195267"><ele>220.66666666666669</ele><time>2026-05-01T11:09:56.441Z</time></trkpt><trkpt lat="44.3592733" lon="11.6196267"><ele>220.0</ele><time>2026-05-01T11:09:57.441Z</time></trkpt><trkpt lat="44.35932" lon="11.6197283"><ele>219.33333333333334</ele><time>2026-05-01T11:09:58.441Z</time></trkpt><trkpt lat="44.3593683" lon="11.6198283"><ele>218.66666666666669</ele><time>2026-05-01T11:09:59.44Z</time></trkpt><trkpt lat="44.3594067" lon="11.6199367"><ele>218.0</ele><time>2026-05-01T11:10:00.44Z</time></trkpt><trkpt lat="44.3594483" lon="11.620035"><ele>218.00000000000003</ele><time>2026-05-01T11:10:01.443Z</time></trkpt><trkpt lat="44.3595083" lon="11.62013"><ele>218.0</ele><time>2026-05-01T11:10:02.441Z</time></trkpt><trkpt lat="44.3595617" lon="11.6202183"><ele>218.0</ele><time>2026-05-01T11:10:03.441Z</time></trkpt><trkpt lat="44.3596183" lon="11.6203083"><ele>218.0</ele><time>2026-05-01T11:10:04.441Z</time></trkpt><trkpt lat="44.359675" lon="11.6204033"><ele>218.00000000000003</ele><time>2026-05-01T11:10:05.441Z</time></trkpt><trkpt lat="44.359735" lon="11.6204967"><ele>218.0</ele><time>2026-05-01T11:10:06.441Z</time></trkpt><trkpt lat="44.3597917" lon="11.6205933"><ele>217.0</ele><time>2026-05-01T11:10:07.441Z</time></trkpt><trkpt lat="44.35986" lon="11.62069"><ele>216.0</ele><time>2026-05-01T11:10:08.441Z</time></trkpt><trkpt lat="44.359925" lon="11.620795"><ele>215.0</ele><time>2026-05-01T11:10:09.442Z</time></trkpt><trkpt lat="44.3599917" lon="11.6209033"><ele>214.0</ele><time>2026-05-01T11:10:10.442Z</time></trkpt><trkpt lat="44.3600533" lon="11.6210067"><ele>213.0</ele><time>2026-05-01T11:10:11.44Z</time></trkpt><trkpt lat="44.3601133" lon="11.6211033"><ele>212.33333333333334</ele><time>2026-05-01T11:10:12.441Z</time></trkpt><trkpt lat="44.3601767" lon="11.6212"><ele>211.66666666666669</ele><time>2026-05-01T11:10:13.442Z</time></trkpt><trkpt lat="44.3602417" lon="11.6212933"><ele>211.0</ele><time>2026-05-01T11:10:14.44Z</time></trkpt><trkpt lat="44.36029" lon="11.6213867"><ele>210.33333333333334</ele><time>2026-05-01T11:10:15.441Z</time></trkpt><trkpt lat="44.3603317" lon="11.62149"><ele>209.66666666666669</ele><time>2026-05-01T11:10:16.442Z</time></trkpt><trkpt lat="44.3603733" lon="11.6215967"><ele>209.0</ele><time>2026-05-01T11:10:17.443Z</time></trkpt><trkpt lat="44.36041" lon="11.621705"><ele>209.00000000000003</ele><time>2026-05-01T11:10:18.442Z</time></trkpt><trkpt lat="44.36044" lon="11.62181"><ele>209.0</ele><time>2026-05-01T11:10:19.443Z</time></trkpt><trkpt lat="44.360465" lon="11.6219133"><ele>209.0</ele><time>2026-05-01T11:10:20.443Z</time></trkpt><trkpt lat="44.3604967" lon="11.622015"><ele>209.0</ele><time>2026-05-01T11:10:21.441Z</time></trkpt><trkpt lat="44.3605283" lon="11.6221183"><ele>209.00000000000003</ele><time>2026-05-01T11:10:22.443Z</time></trkpt><trkpt lat="44.3605567" lon="11.6222233"><ele>209.0</ele><time>2026-05-01T11:10:23.442Z</time></trkpt><trkpt lat="44.3605817" lon="11.6223233"><ele>208.33333333333334</ele><time>2026-05-01T11:10:24.441Z</time></trkpt><trkpt lat="44.3606" lon="11.62241"><ele>207.66666666666669</ele><time>2026-05-01T11:10:25.441Z</time></trkpt><trkpt lat="44.36062" lon="11.6225533"><ele>207.0</ele><time>2026-05-01T11:10:27.441Z</time></trkpt><trkpt lat="44.3605667" lon="11.6226433"><ele>206.33333333333331</ele><time>2026-05-01T11:10:29.443Z</time></trkpt><trkpt lat="44.3604833" lon="11.62265"><ele>205.66666666666666</ele><time>2026-05-01T11:10:31.444Z</time></trkpt><trkpt lat="44.360395" lon="11.6226367"><ele>205.0</ele><time>2026-05-01T11:10:33.442Z</time></trkpt><trkpt lat="44.360315" lon="11.6226233"><ele>204.66666666666666</ele><time>2026-05-01T11:10:35.443Z</time></trkpt><trkpt lat="44.3602367" lon="11.6226167"><ele>204.33333333333331</ele><time>2026-05-01T11:10:37.443Z</time></trkpt><trkpt lat="44.3601333" lon="11.62263"><ele>204.0</ele><time>2026-05-01T11:10:39.441Z</time></trkpt><trkpt lat="44.36007" lon="11.62265"><ele>203.66666666666669</ele><time>2026-05-01T11:10:40.442Z</time></trkpt><trkpt lat="44.36" lon="11.622675"><ele>203.33333333333334</ele><time>2026-05-01T11:10:41.442Z</time></trkpt><trkpt lat="44.3599283" lon="11.6227117"><ele>203.0</ele><time>2026-05-01T11:10:42.442Z</time></trkpt><trkpt lat="44.3598517" lon="11.62275"><ele>203.0</ele><time>2026-05-01T11:10:43.443Z</time></trkpt><trkpt lat="44.35977" lon="11.6227867"><ele>203.0</ele><time>2026-05-01T11:10:44.441Z</time></trkpt><trkpt lat="44.359685" lon="11.6228267"><ele>203.0</ele><time>2026-05-01T11:10:45.443Z</time></trkpt><trkpt lat="44.3595967" lon="11.622875"><ele>203.0</ele><time>2026-05-01T11:10:46.443Z</time></trkpt><trkpt lat="44.35951" lon="11.62293"><ele>203.0</ele><time>2026-05-01T11:10:47.442Z</time></trkpt><trkpt lat="44.3594317" lon="11.6229933"><ele>200.8</ele><time>2026-05-01T11:10:48.44Z</time></trkpt><trkpt lat="44.359355" lon="11.6230667"><ele>198.60000000000002</ele><time>2026-05-01T11:10:49.442Z</time></trkpt><trkpt lat="44.3592767" lon="11.6231367"><ele>196.39999999999998</ele><time>2026-05-01T11:10:50.442Z</time></trkpt><trkpt lat="44.3592017" lon="11.62321"><ele>194.2</ele><time>2026-05-01T11:10:51.44Z</time></trkpt><trkpt lat="44.35913" lon="11.6232817"><ele>192.0</ele><time>2026-05-01T11:10:52.442Z</time></trkpt><trkpt lat="44.35906" lon="11.6233483"><ele>192.0</ele><time>2026-05-01T11:10:53.44Z</time></trkpt><trkpt lat="44.35899" lon="11.6234167"><ele>192.0</ele><time>2026-05-01T11:10:54.441Z</time></trkpt><trkpt lat="44.3589233" lon="11.6234867"><ele>192.0</ele><time>2026-05-01T11:10:55.441Z</time></trkpt><trkpt lat="44.3588583" lon="11.6235383"><ele>192.0</ele><time>2026-05-01T11:10:56.442Z</time></trkpt><trkpt lat="44.3587917" lon="11.6235733"><ele>192.0</ele><time>2026-05-01T11:10:57.44Z</time></trkpt><trkpt lat="44.3587283" lon="11.6235867"><ele>192.0</ele><time>2026-05-01T11:10:58.442Z</time></trkpt><trkpt lat="44.3586183" lon="11.6236433"><ele>189.5</ele><time>2026-05-01T11:11:00.441Z</time></trkpt><trkpt lat="44.3585783" lon="11.623765"><ele>187.0</ele><time>2026-05-01T11:11:02.442Z</time></trkpt><trkpt lat="44.35863" lon="11.6238667"><ele>184.5</ele><time>2026-05-01T11:11:04.441Z</time></trkpt><trkpt lat="44.3586683" lon="11.6239883"><ele>182.0</ele><time>2026-05-01T11:11:07.441Z</time></trkpt><trkpt lat="44.3586733" lon="11.6240967"><ele>179.5</ele><time>2026-05-01T11:11:09.441Z</time></trkpt><trkpt lat="44.3586783" lon="11.6242167"><ele>177.0</ele><time>2026-05-01T11:11:11.442Z</time></trkpt><trkpt lat="44.3586783" lon="11.6243533"><ele>176.2</ele><time>2026-05-01T11:11:13.442Z</time></trkpt><trkpt lat="44.3586717" lon="11.624505"><ele>175.39999999999998</ele><time>2026-05-01T11:11:15.442Z</time></trkpt><trkpt lat="44.35866" lon="11.624655"><ele>174.60000000000002</ele><time>2026-05-01T11:11:17.442Z</time></trkpt><trkpt lat="44.35865" lon="11.624805"><ele>173.8</ele><time>2026-05-01T11:11:19.441Z</time></trkpt><trkpt lat="44.358645" lon="11.6249517"><ele>173.0</ele><time>2026-05-01T11:11:21.439Z</time></trkpt><trkpt lat="44.358645" lon="11.6250867"><ele>173.0</ele><time>2026-05-01T11:11:23.44Z</time></trkpt><trkpt lat="44.3586517" lon="11.6252233"><ele>173.0</ele><time>2026-05-01T11:11:25.441Z</time></trkpt><trkpt lat="44.35865" lon="11.6253517"><ele>173.0</ele><time>2026-05-01T11:11:27.44Z</time></trkpt><trkpt lat="44.3586517" lon="11.6254767"><ele>173.0</ele><time>2026-05-01T11:11:29.44Z</time></trkpt><trkpt lat="44.3586633" lon="11.6255917"><ele>173.0</ele><time>2026-05-01T11:11:31.441Z</time></trkpt><trkpt lat="44.3586867" lon="11.62571"><ele>172.66666666666666</ele><time>2026-05-01T11:11:33.441Z</time></trkpt><trkpt lat="44.358715" lon="11.6258217"><ele>172.33333333333331</ele><time>2026-05-01T11:11:35.441Z</time></trkpt><trkpt lat="44.3587533" lon="11.6259317"><ele>172.0</ele><time>2026-05-01T11:11:37.44Z</time></trkpt><trkpt lat="44.358795" lon="11.626035"><ele>171.66666666666666</ele><time>2026-05-01T11:11:39.439Z</time></trkpt><trkpt lat="44.3588133" lon="11.6261567"><ele>171.33333333333334</ele><time>2026-05-01T11:11:41.439Z</time></trkpt><trkpt lat="44.3588317" lon="11.626275"><ele>171.0</ele><time>2026-05-01T11:11:43.441Z</time></trkpt><trkpt lat="44.358845" lon="11.6263817"><ele>170.85714285714283</ele><time>2026-05-01T11:11:45.441Z</time></trkpt><trkpt lat="44.3588767" lon="11.6264767"><ele>170.71428571428572</ele><time>2026-05-01T11:11:47.444Z</time></trkpt><trkpt lat="44.3589067" lon="11.6265583"><ele>170.57142857142856</ele><time>2026-05-01T11:11:49.442Z</time></trkpt><trkpt lat="44.3588967" lon="11.6266617"><ele>170.42857142857142</ele><time>2026-05-01T11:11:53.441Z</time></trkpt><trkpt lat="44.3588467" lon="11.6267217"><ele>170.28571428571428</ele><time>2026-05-01T11:11:56.442Z</time></trkpt><trkpt lat="44.3589167" lon="11.62677"><ele>170.14285714285714</ele><time>2026-05-01T11:12:34.44Z</time></trkpt><trkpt lat="44.3589483" lon="11.62685"><ele>170.0</ele><time>2026-05-01T11:12:36.441Z</time></trkpt><trkpt lat="44.35898" lon="11.6269517"><ele>173.5</ele><time>2026-05-01T11:12:38.442Z</time></trkpt><trkpt lat="44.35902" lon="11.6270667"><ele>177.0</ele><time>2026-05-01T11:12:40.441Z</time></trkpt><trkpt lat="44.3590517" lon="11.62717"><ele>180.5</ele><time>2026-05-01T11:12:42.44Z</time></trkpt><trkpt lat="44.3590883" lon="11.6272683"><ele>184.0</ele><time>2026-05-01T11:12:44.441Z</time></trkpt><trkpt lat="44.3591283" lon="11.6273367"><ele>187.5</ele><time>2026-05-01T11:12:46.443Z</time></trkpt><trkpt lat="44.3591583" lon="11.6274267"><ele>191.0</ele><time>2026-05-01T11:12:48.44Z</time></trkpt><trkpt lat="44.359195" lon="11.6275233"><ele>191.0</ele><time>2026-05-01T11:12:50.442Z</time></trkpt><trkpt lat="44.3592267" lon="11.6276133"><ele>191.0</ele><time>2026-05-01T11:12:52.442Z</time></trkpt><trkpt lat="44.3592233" lon="11.6277083"><ele>191.0</ele><time>2026-05-01T11:12:55.441Z</time></trkpt><trkpt lat="44.3591617" lon="11.6277567"><ele>191.0</ele><time>2026-05-01T11:12:57.441Z</time></trkpt><trkpt lat="44.3591" lon="11.6278083"><ele>191.0</ele><time>2026-05-01T11:12:59.44Z</time></trkpt><trkpt lat="44.3590233" lon="11.6278767"><ele>191.0</ele><time>2026-05-01T11:13:02.44Z</time></trkpt><trkpt lat="44.3589383" lon="11.6279417"><ele>191.14285714285714</ele><time>2026-05-01T11:13:05.442Z</time></trkpt><trkpt lat="44.358885" lon="11.627995"><ele>191.28571428571428</ele><time>2026-05-01T11:13:07.442Z</time></trkpt><trkpt lat="44.3588683" lon="11.628115"><ele>191.42857142857142</ele><time>2026-05-01T11:13:10.44Z</time></trkpt><trkpt lat="44.3588467" lon="11.62821"><ele>191.57142857142856</ele><time>2026-05-01T11:13:13.441Z</time></trkpt><trkpt lat="44.3588467" lon="11.6283"><ele>191.71428571428572</ele><time>2026-05-01T11:13:18.442Z</time></trkpt><trkpt lat="44.3589283" lon="11.6283233"><ele>191.85714285714283</ele><time>2026-05-01T11:13:32.443Z</time></trkpt><trkpt lat="44.358935" lon="11.6284133"><ele>192.0</ele><time>2026-05-01T11:13:35.441Z</time></trkpt><trkpt lat="44.358945" lon="11.6285383"><ele>191.0</ele><time>2026-05-01T11:13:37.441Z</time></trkpt><trkpt lat="44.358985" lon="11.6286617"><ele>190.0</ele><time>2026-05-01T11:13:39.442Z</time></trkpt><trkpt lat="44.359025" lon="11.6287817"><ele>189.0</ele><time>2026-05-01T11:13:41.442Z</time></trkpt><trkpt lat="44.3590667" lon="11.6289"><ele>188.0</ele><time>2026-05-01T11:13:43.441Z</time></trkpt><trkpt lat="44.3590817" lon="11.6290117"><ele>187.0</ele><time>2026-05-01T11:13:45.441Z</time></trkpt><trkpt lat="44.3591233" lon="11.629115"><ele>187.0</ele><time>2026-05-01T11:13:47.441Z</time></trkpt><trkpt lat="44.3591633" lon="11.6292183"><ele>187.0</ele><time>2026-05-01T11:13:49.44Z</time></trkpt><trkpt lat="44.3592033" lon="11.629335"><ele>187.0</ele><time>2026-05-01T11:13:51.439Z</time></trkpt><trkpt lat="44.3592483" lon="11.6294467"><ele>187.0</ele><time>2026-05-01T11:13:53.441Z</time></trkpt><trkpt lat="44.359295" lon="11.62957"><ele>187.0</ele><time>2026-05-01T11:13:55.441Z</time></trkpt><trkpt lat="44.3593383" lon="11.6296933"><ele>184.33333333333334</ele><time>2026-05-01T11:13:57.441Z</time></trkpt><trkpt lat="44.359365" lon="11.6298517"><ele>181.66666666666669</ele><time>2026-05-01T11:13:59.44Z</time></trkpt><trkpt lat="44.3594133" lon="11.6299867"><ele>179.0</ele><time>2026-05-01T11:14:01.441Z</time></trkpt><trkpt lat="44.3594333" lon="11.6301083"><ele>176.33333333333334</ele><time>2026-05-01T11:14:03.441Z</time></trkpt><trkpt lat="44.35945" lon="11.6302017"><ele>173.66666666666666</ele><time>2026-05-01T11:14:05.441Z</time></trkpt><trkpt lat="44.3595" lon="11.6302617"><ele>171.0</ele><time>2026-05-01T11:14:07.441Z</time></trkpt><trkpt lat="44.35959" lon="11.6302833"><ele>171.0</ele><time>2026-05-01T11:14:10.44Z</time></trkpt><trkpt lat="44.3596633" lon="11.63029"><ele>171.0</ele><time>2026-05-01T11:14:13.44Z</time></trkpt><trkpt lat="44.3597133" lon="11.6303483"><ele>171.0</ele><time>2026-05-01T11:14:18.443Z</time></trkpt><trkpt lat="44.3597067" lon="11.6304883"><ele>171.0</ele><time>2026-05-01T11:14:20.443Z</time></trkpt><trkpt lat="44.359725" lon="11.6306383"><ele>171.0</ele><time>2026-05-01T11:14:22.442Z</time></trkpt><trkpt lat="44.3597433" lon="11.630795"><ele>170.8</ele><time>2026-05-01T11:14:24.442Z</time></trkpt><trkpt lat="44.3597617" lon="11.6309533"><ele>170.60000000000002</ele><time>2026-05-01T11:14:26.439Z</time></trkpt><trkpt lat="44.35978" lon="11.6311183"><ele>170.4</ele><time>2026-05-01T11:14:28.44Z</time></trkpt><trkpt lat="44.359805" lon="11.6312933"><ele>170.2</ele><time>2026-05-01T11:14:30.44Z</time></trkpt><trkpt lat="44.35982" lon="11.63138"><ele>170.0</ele><time>2026-05-01T11:14:31.44Z</time></trkpt><trkpt lat="44.3598367" lon="11.6314683"><ele>170.0</ele><time>2026-05-01T11:14:32.439Z</time></trkpt><trkpt lat="44.3598567" lon="11.6316233"><ele>170.0</ele><time>2026-05-01T11:14:34.44Z</time></trkpt><trkpt lat="44.359875" lon="11.6317583"><ele>170.0</ele><time>2026-05-01T11:14:36.44Z</time></trkpt><trkpt lat="44.3599033" lon="11.6318983"><ele>170.0</ele><time>2026-05-01T11:14:38.44Z</time></trkpt><trkpt lat="44.3599267" lon="11.63203"><ele>170.0</ele><time>2026-05-01T11:14:40.439Z</time></trkpt><trkpt lat="44.359945" lon="11.6321667"><ele>170.0</ele><time>2026-05-01T11:14:42.44Z</time></trkpt><trkpt lat="44.3599667" lon="11.6323067"><ele>170.0</ele><time>2026-05-01T11:14:44.439Z</time></trkpt><trkpt lat="44.3599933" lon="11.6324583"><ele>170.0</ele><time>2026-05-01T11:14:46.442Z</time></trkpt><trkpt lat="44.3600317" lon="11.632625"><ele>170.0</ele><time>2026-05-01T11:14:48.443Z</time></trkpt><trkpt lat="44.36007" lon="11.6327867"><ele>170.0</ele><time>2026-05-01T11:14:50.443Z</time></trkpt><trkpt lat="44.3601117" lon="11.6329483"><ele>170.0</ele><time>2026-05-01T11:14:52.44Z</time></trkpt><trkpt lat="44.3601283" lon="11.6330367"><ele>170.0</ele><time>2026-05-01T11:14:53.443Z</time></trkpt><trkpt lat="44.3601483" lon="11.6331283"><ele>170.0</ele><time>2026-05-01T11:14:54.442Z</time></trkpt><trkpt lat="44.3601733" lon="11.6332183"><ele>170.0</ele><time>2026-05-01T11:14:55.44Z</time></trkpt><trkpt lat="44.3601933" lon="11.6333083"><ele>170.0</ele><time>2026-05-01T11:14:56.441Z</time></trkpt><trkpt lat="44.360215" lon="11.6333967"><ele>170.0</ele><time>2026-05-01T11:14:57.44Z</time></trkpt><trkpt lat="44.3602333" lon="11.6334933"><ele>170.0</ele><time>2026-05-01T11:14:58.441Z</time></trkpt><trkpt lat="44.36026" lon="11.6335917"><ele>170.0</ele><time>2026-05-01T11:14:59.44Z</time></trkpt><trkpt lat="44.36028" lon="11.6336867"><ele>170.0</ele><time>2026-05-01T11:15:00.441Z</time></trkpt><trkpt lat="44.360305" lon="11.63378"><ele>170.0</ele><time>2026-05-01T11:15:01.441Z</time></trkpt><trkpt lat="44.3603317" lon="11.6338683"><ele>170.0</ele><time>2026-05-01T11:15:02.439Z</time></trkpt><trkpt lat="44.360355" lon="11.6339583"><ele>170.0</ele><time>2026-05-01T11:15:03.439Z</time></trkpt><trkpt lat="44.36038" lon="11.634045"><ele>169.85714285714286</ele><time>2026-05-01T11:15:04.442Z</time></trkpt><trkpt lat="44.3604017" lon="11.63414"><ele>169.7142857142857</ele><time>2026-05-01T11:15:05.44Z</time></trkpt><trkpt lat="44.3604267" lon="11.6342333"><ele>169.57142857142856</ele><time>2026-05-01T11:15:06.44Z</time></trkpt><trkpt lat="44.3604567" lon="11.63432"><ele>169.42857142857144</ele><time>2026-05-01T11:15:07.44Z</time></trkpt><trkpt lat="44.3604783" lon="11.6344167"><ele>169.28571428571428</ele><time>2026-05-01T11:15:08.442Z</time></trkpt><trkpt lat="44.3605" lon="11.634515"><ele>169.14285714285714</ele><time>2026-05-01T11:15:09.44Z</time></trkpt><trkpt lat="44.360525" lon="11.6346133"><ele>169.0</ele><time>2026-05-01T11:15:10.441Z</time></trkpt><trkpt lat="44.36055" lon="11.6347117"><ele>169.0</ele><time>2026-05-01T11:15:11.439Z</time></trkpt><trkpt lat="44.3605767" lon="11.63481"><ele>169.0</ele><time>2026-05-01T11:15:12.44Z</time></trkpt><trkpt lat="44.3606017" lon="11.6349117"><ele>169.0</ele><time>2026-05-01T11:15:13.442Z</time></trkpt><trkpt lat="44.3606267" lon="11.6350133"><ele>169.0</ele><time>2026-05-01T11:15:14.441Z</time></trkpt><trkpt lat="44.3606517" lon="11.6351133"><ele>169.0</ele><time>2026-05-01T11:15:15.441Z</time></trkpt><trkpt lat="44.360675" lon="11.6352183"><ele>169.0</ele><time>2026-05-01T11:15:16.442Z</time></trkpt><trkpt lat="44.3607033" lon="11.6353217"><ele>168.16666666666669</ele><time>2026-05-01T11:15:17.442Z</time></trkpt><trkpt lat="44.3607317" lon="11.6354267"><ele>167.33333333333334</ele><time>2026-05-01T11:15:18.442Z</time></trkpt><trkpt lat="44.3607583" lon="11.6355317"><ele>166.5</ele><time>2026-05-01T11:15:19.44Z</time></trkpt><trkpt lat="44.3607867" lon="11.6356367"><ele>165.66666666666666</ele><time>2026-05-01T11:15:20.442Z</time></trkpt><trkpt lat="44.36082" lon="11.6357383"><ele>164.83333333333331</ele><time>2026-05-01T11:15:21.441Z</time></trkpt><trkpt lat="44.360845" lon="11.6358417"><ele>164.0</ele><time>2026-05-01T11:15:22.44Z</time></trkpt><trkpt lat="44.3608717" lon="11.63595"><ele>164.0</ele><time>2026-05-01T11:15:23.441Z</time></trkpt><trkpt lat="44.3609" lon="11.636055"><ele>164.0</ele><time>2026-05-01T11:15:24.442Z</time></trkpt><trkpt lat="44.3609233" lon="11.63617"><ele>164.0</ele><time>2026-05-01T11:15:25.442Z</time></trkpt><trkpt lat="44.360945" lon="11.6362717"><ele>164.0</ele><time>2026-05-01T11:15:26.441Z</time></trkpt><trkpt lat="44.3609667" lon="11.63637"><ele>164.0</ele><time>2026-05-01T11:15:27.441Z</time></trkpt><trkpt lat="44.360975" lon="11.6364633"><ele>164.0</ele><time>2026-05-01T11:15:28.441Z</time></trkpt><trkpt lat="44.3609833" lon="11.6365633"><ele>163.42857142857142</ele><time>2026-05-01T11:15:29.441Z</time></trkpt><trkpt lat="44.3610033" lon="11.6366633"><ele>162.85714285714286</ele><time>2026-05-01T11:15:30.442Z</time></trkpt><trkpt lat="44.3610417" lon="11.6367467"><ele>162.28571428571428</ele><time>2026-05-01T11:15:31.442Z</time></trkpt><trkpt lat="44.3610967" lon="11.6368083"><ele>161.71428571428572</ele><time>2026-05-01T11:15:32.442Z</time></trkpt><trkpt lat="44.3611517" lon="11.636875"><ele>161.14285714285714</ele><time>2026-05-01T11:15:33.442Z</time></trkpt><trkpt lat="44.3612" lon="11.6369483"><ele>160.57142857142856</ele><time>2026-05-01T11:15:34.44Z</time></trkpt><trkpt lat="44.3612467" lon="11.6370367"><ele>160.0</ele><time>2026-05-01T11:15:35.441Z</time></trkpt><trkpt lat="44.3612983" lon="11.6371283"><ele>158.83333333333334</ele><time>2026-05-01T11:15:36.441Z</time></trkpt><trkpt lat="44.3613533" lon="11.6372167"><ele>157.66666666666669</ele><time>2026-05-01T11:15:37.442Z</time></trkpt><trkpt lat="44.3614017" lon="11.63731"><ele>156.5</ele><time>2026-05-01T11:15:38.441Z</time></trkpt><trkpt lat="44.3614583" lon="11.6374083"><ele>155.33333333333334</ele><time>2026-05-01T11:15:39.442Z</time></trkpt><trkpt lat="44.36152" lon="11.6375017"><ele>154.16666666666666</ele><time>2026-05-01T11:15:40.441Z</time></trkpt><trkpt lat="44.361585" lon="11.6375883"><ele>153.0</ele><time>2026-05-01T11:15:41.444Z</time></trkpt><trkpt lat="44.3616417" lon="11.6376767"><ele>152.8</ele><time>2026-05-01T11:15:42.441Z</time></trkpt><trkpt lat="44.3617033" lon="11.6377683"><ele>152.60000000000002</ele><time>2026-05-01T11:15:43.442Z</time></trkpt><trkpt lat="44.3617683" lon="11.637855"><ele>152.39999999999998</ele><time>2026-05-01T11:15:44.442Z</time></trkpt><trkpt lat="44.3618367" lon="11.6379433"><ele>152.2</ele><time>2026-05-01T11:15:45.441Z</time></trkpt><trkpt lat="44.3619017" lon="11.63803"><ele>152.0</ele><time>2026-05-01T11:15:46.442Z</time></trkpt><trkpt lat="44.36197" lon="11.6381167"><ele>151.79999999999998</ele><time>2026-05-01T11:15:47.442Z</time></trkpt><trkpt lat="44.3620333" lon="11.638205"><ele>151.6</ele><time>2026-05-01T11:15:48.442Z</time></trkpt><trkpt lat="44.3620983" lon="11.6382933"><ele>151.39999999999998</ele><time>2026-05-01T11:15:49.441Z</time></trkpt><trkpt lat="44.3621583" lon="11.6383883"><ele>151.2</ele><time>2026-05-01T11:15:50.441Z</time></trkpt><trkpt lat="44.3622217" lon="11.6384817"><ele>151.0</ele><time>2026-05-01T11:15:51.443Z</time></trkpt><trkpt lat="44.362285" lon="11.6385717"><ele>150.2</ele><time>2026-05-01T11:15:52.44Z</time></trkpt><trkpt lat="44.3623417" lon="11.6386633"><ele>149.39999999999998</ele><time>2026-05-01T11:15:53.441Z</time></trkpt><trkpt lat="44.3623967" lon="11.6387617"><ele>148.6</ele><time>2026-05-01T11:15:54.441Z</time></trkpt><trkpt lat="44.3624583" lon="11.6388583"><ele>147.79999999999998</ele><time>2026-05-01T11:15:55.441Z</time></trkpt><trkpt lat="44.3625167" lon="11.6389617"><ele>147.0</ele><time>2026-05-01T11:15:56.441Z</time></trkpt><trkpt lat="44.3625717" lon="11.6390683"><ele>147.0</ele><time>2026-05-01T11:15:57.441Z</time></trkpt><trkpt lat="44.36262" lon="11.6391783"><ele>147.0</ele><time>2026-05-01T11:15:58.441Z</time></trkpt><trkpt lat="44.3626617" lon="11.6392967"><ele>147.0</ele><time>2026-05-01T11:15:59.441Z</time></trkpt><trkpt lat="44.3627033" lon="11.63942"><ele>147.0</ele><time>2026-05-01T11:16:00.44Z</time></trkpt><trkpt lat="44.3627433" lon="11.639545"><ele>147.0</ele><time>2026-05-01T11:16:01.44Z</time></trkpt><trkpt lat="44.3627817" lon="11.6396717"><ele>146.6</ele><time>2026-05-01T11:16:02.441Z</time></trkpt><trkpt lat="44.3628183" lon="11.6397933"><ele>146.2</ele><time>2026-05-01T11:16:03.441Z</time></trkpt><trkpt lat="44.3628583" lon="11.6399183"><ele>145.8</ele><time>2026-05-01T11:16:04.44Z</time></trkpt><trkpt lat="44.3628967" lon="11.640045"><ele>145.4</ele><time>2026-05-01T11:16:05.44Z</time></trkpt><trkpt lat="44.36293" lon="11.64017"><ele>145.0</ele><time>2026-05-01T11:16:06.441Z</time></trkpt><trkpt lat="44.3629683" lon="11.640295"><ele>144.0</ele><time>2026-05-01T11:16:07.441Z</time></trkpt><trkpt lat="44.3630067" lon="11.6404217"><ele>143.0</ele><time>2026-05-01T11:16:08.441Z</time></trkpt><trkpt lat="44.3630433" lon="11.640545"><ele>142.0</ele><time>2026-05-01T11:16:09.441Z</time></trkpt><trkpt lat="44.3630817" lon="11.6406683"><ele>141.0</ele><time>2026-05-01T11:16:10.441Z</time></trkpt><trkpt lat="44.36312" lon="11.6407917"><ele>140.0</ele><time>2026-05-01T11:16:11.441Z</time></trkpt><trkpt lat="44.3631617" lon="11.6409133"><ele>139.33333333333331</ele><time>2026-05-01T11:16:12.441Z</time></trkpt><trkpt lat="44.3631983" lon="11.6410317"><ele>138.66666666666666</ele><time>2026-05-01T11:16:13.441Z</time></trkpt><trkpt lat="44.3632333" lon="11.641145"><ele>138.0</ele><time>2026-05-01T11:16:14.441Z</time></trkpt><trkpt lat="44.3632667" lon="11.6412617"><ele>137.33333333333334</ele><time>2026-05-01T11:16:15.44Z</time></trkpt><trkpt lat="44.3633033" lon="11.6413717"><ele>136.66666666666669</ele><time>2026-05-01T11:16:16.442Z</time></trkpt><trkpt lat="44.3633383" lon="11.6414833"><ele>136.0</ele><time>2026-05-01T11:16:17.442Z</time></trkpt><trkpt lat="44.3633717" lon="11.6415967"><ele>135.5</ele><time>2026-05-01T11:16:18.442Z</time></trkpt><trkpt lat="44.3634083" lon="11.6417117"><ele>135.0</ele><time>2026-05-01T11:16:19.442Z</time></trkpt><trkpt lat="44.3634367" lon="11.64183"><ele>134.5</ele><time>2026-05-01T11:16:20.442Z</time></trkpt><trkpt lat="44.3634633" lon="11.64195"><ele>134.0</ele><time>2026-05-01T11:16:21.442Z</time></trkpt><trkpt lat="44.36348" lon="11.6420683"><ele>133.5</ele><time>2026-05-01T11:16:22.443Z</time></trkpt><trkpt lat="44.3635017" lon="11.642185"><ele>133.0</ele><time>2026-05-01T11:16:23.441Z</time></trkpt><trkpt lat="44.3635233" lon="11.6423017"><ele>132.20000000000002</ele><time>2026-05-01T11:16:24.442Z</time></trkpt><trkpt lat="44.3635467" lon="11.64242"><ele>131.4</ele><time>2026-05-01T11:16:25.443Z</time></trkpt><trkpt lat="44.36357" lon="11.64254"><ele>130.60000000000002</ele><time>2026-05-01T11:16:26.442Z</time></trkpt><trkpt lat="44.3635933" lon="11.6426633"><ele>129.8</ele><time>2026-05-01T11:16:27.442Z</time></trkpt><trkpt lat="44.3636183" lon="11.6427867"><ele>129.0</ele><time>2026-05-01T11:16:28.442Z</time></trkpt><trkpt lat="44.3636483" lon="11.64291"><ele>128.6</ele><time>2026-05-01T11:16:29.442Z</time></trkpt><trkpt lat="44.363675" lon="11.6430333"><ele>128.2</ele><time>2026-05-01T11:16:30.442Z</time></trkpt><trkpt lat="44.3637033" lon="11.6431583"><ele>127.79999999999998</ele><time>2026-05-01T11:16:31.442Z</time></trkpt><trkpt lat="44.3637283" lon="11.6432833"><ele>127.39999999999999</ele><time>2026-05-01T11:16:32.443Z</time></trkpt><trkpt lat="44.3637517" lon="11.643405"><ele>127.0</ele><time>2026-05-01T11:16:33.442Z</time></trkpt><trkpt lat="44.3637733" lon="11.6435283"><ele>127.00000000000001</ele><time>2026-05-01T11:16:34.441Z</time></trkpt><trkpt lat="44.363795" lon="11.64365"><ele>127.0</ele><time>2026-05-01T11:16:35.442Z</time></trkpt><trkpt lat="44.363815" lon="11.64377"><ele>127.0</ele><time>2026-05-01T11:16:36.441Z</time></trkpt><trkpt lat="44.3638367" lon="11.6438883"><ele>127.0</ele><time>2026-05-01T11:16:37.441Z</time></trkpt><trkpt lat="44.3638583" lon="11.6440033"><ele>127.00000000000001</ele><time>2026-05-01T11:16:38.441Z</time></trkpt><trkpt lat="44.3638783" lon="11.64412"><ele>127.0</ele><time>2026-05-01T11:16:39.442Z</time></trkpt><trkpt lat="44.3638983" lon="11.644235"><ele>127.00000000000001</ele><time>2026-05-01T11:16:40.442Z</time></trkpt><trkpt lat="44.3639183" lon="11.64435"><ele>127.0</ele><time>2026-05-01T11:16:41.442Z</time></trkpt><trkpt lat="44.3639383" lon="11.6444667"><ele>127.0</ele><time>2026-05-01T11:16:42.442Z</time></trkpt><trkpt lat="44.36396" lon="11.6445817"><ele>127.0</ele><time>2026-05-01T11:16:43.441Z</time></trkpt><trkpt lat="44.3639817" lon="11.6446983"><ele>127.00000000000001</ele><time>2026-05-01T11:16:44.443Z</time></trkpt><trkpt lat="44.3640067" lon="11.6448117"><ele>127.0</ele><time>2026-05-01T11:16:45.442Z</time></trkpt><trkpt lat="44.3640333" lon="11.6449267"><ele>127.00000000000001</ele><time>2026-05-01T11:16:46.442Z</time></trkpt><trkpt lat="44.364065" lon="11.6450433"><ele>127.0</ele><time>2026-05-01T11:16:47.444Z</time></trkpt><trkpt lat="44.3641017" lon="11.6451583"><ele>127.0</ele><time>2026-05-01T11:16:48.44Z</time></trkpt><trkpt lat="44.3641383" lon="11.6452733"><ele>127.0</ele><time>2026-05-01T11:16:49.44Z</time></trkpt><trkpt lat="44.36418" lon="11.6453767"><ele>127.00000000000001</ele><time>2026-05-01T11:16:50.441Z</time></trkpt><trkpt lat="44.364225" lon="11.64548"><ele>127.0</ele><time>2026-05-01T11:16:51.44Z</time></trkpt><trkpt lat="44.3642733" lon="11.64558"><ele>126.00000000000001</ele><time>2026-05-01T11:16:52.441Z</time></trkpt><trkpt lat="44.3643333" lon="11.6456767"><ele>125.0</ele><time>2026-05-01T11:16:53.442Z</time></trkpt><trkpt lat="44.36439" lon="11.6457717"><ele>124.0</ele><time>2026-05-01T11:16:54.441Z</time></trkpt><trkpt lat="44.3644517" lon="11.6458667"><ele>123.0</ele><time>2026-05-01T11:16:55.443Z</time></trkpt><trkpt lat="44.3645117" lon="11.645955"><ele>122.00000000000001</ele><time>2026-05-01T11:16:56.441Z</time></trkpt><trkpt lat="44.3645717" lon="11.64604"><ele>121.0</ele><time>2026-05-01T11:16:57.442Z</time></trkpt><trkpt lat="44.3646333" lon="11.6461217"><ele>119.83333333333334</ele><time>2026-05-01T11:16:58.442Z</time></trkpt><trkpt lat="44.3646967" lon="11.6462067"><ele>118.66666666666667</ele><time>2026-05-01T11:16:59.442Z</time></trkpt><trkpt lat="44.3647567" lon="11.6462967"><ele>117.5</ele><time>2026-05-01T11:17:00.442Z</time></trkpt><trkpt lat="44.3648167" lon="11.6463817"><ele>116.33333333333334</ele><time>2026-05-01T11:17:01.441Z</time></trkpt><trkpt lat="44.3648833" lon="11.6464667"><ele>115.16666666666667</ele><time>2026-05-01T11:17:02.442Z</time></trkpt><trkpt lat="44.3649517" lon="11.6465467"><ele>114.0</ele><time>2026-05-01T11:17:03.442Z</time></trkpt><trkpt lat="44.36502" lon="11.6466317"><ele>114.0</ele><time>2026-05-01T11:17:04.443Z</time></trkpt><trkpt lat="44.365085" lon="11.6467183"><ele>114.0</ele><time>2026-05-01T11:17:05.442Z</time></trkpt><trkpt lat="44.3651483" lon="11.6468033"><ele>114.0</ele><time>2026-05-01T11:17:06.442Z</time></trkpt><trkpt lat="44.3652133" lon="11.64689"><ele>114.0</ele><time>2026-05-01T11:17:07.443Z</time></trkpt><trkpt lat="44.3652767" lon="11.646975"><ele>114.0</ele><time>2026-05-01T11:17:08.442Z</time></trkpt><trkpt lat="44.3653383" lon="11.64706"><ele>114.0</ele><time>2026-05-01T11:17:09.442Z</time></trkpt><trkpt lat="44.3654017" lon="11.6471417"><ele>113.16666666666667</ele><time>2026-05-01T11:17:10.442Z</time></trkpt><trkpt lat="44.3654633" lon="11.647225"><ele>112.33333333333334</ele><time>2026-05-01T11:17:11.441Z</time></trkpt><trkpt lat="44.365525" lon="11.64731"><ele>111.5</ele><time>2026-05-01T11:17:12.441Z</time></trkpt><trkpt lat="44.3655833" lon="11.6473967"><ele>110.66666666666667</ele><time>2026-05-01T11:17:13.442Z</time></trkpt><trkpt lat="44.3656417" lon="11.6474817"><ele>109.83333333333334</ele><time>2026-05-01T11:17:14.442Z</time></trkpt><trkpt lat="44.365705" lon="11.6475633"><ele>109.0</ele><time>2026-05-01T11:17:15.441Z</time></trkpt><trkpt lat="44.3657683" lon="11.6476433"><ele>108.83333333333334</ele><time>2026-05-01T11:17:16.444Z</time></trkpt><trkpt lat="44.3658317" lon="11.6477267"><ele>108.66666666666667</ele><time>2026-05-01T11:17:17.443Z</time></trkpt><trkpt lat="44.3658933" lon="11.64781"><ele>108.5</ele><time>2026-05-01T11:17:18.439Z</time></trkpt><trkpt lat="44.3659533" lon="11.6478933"><ele>108.33333333333334</ele><time>2026-05-01T11:17:19.44Z</time></trkpt><trkpt lat="44.3660133" lon="11.6479733"><ele>108.16666666666667</ele><time>2026-05-01T11:17:20.441Z</time></trkpt><trkpt lat="44.3660733" lon="11.648055"><ele>108.0</ele><time>2026-05-01T11:17:21.44Z</time></trkpt><trkpt lat="44.366135" lon="11.6481383"><ele>108.0</ele><time>2026-05-01T11:17:22.44Z</time></trkpt><trkpt lat="44.3661967" lon="11.6482233"><ele>108.0</ele><time>2026-05-01T11:17:23.441Z</time></trkpt><trkpt lat="44.36626" lon="11.6483067"><ele>108.0</ele><time>2026-05-01T11:17:24.441Z</time></trkpt><trkpt lat="44.3663217" lon="11.6483917"><ele>108.0</ele><time>2026-05-01T11:17:25.442Z</time></trkpt><trkpt lat="44.3663817" lon="11.6484783"><ele>108.0</ele><time>2026-05-01T11:17:26.441Z</time></trkpt><trkpt lat="44.3664417" lon="11.6485633"><ele>108.0</ele><time>2026-05-01T11:17:27.439Z</time></trkpt><trkpt lat="44.3665017" lon="11.648645"><ele>107.83333333333333</ele><time>2026-05-01T11:17:28.441Z</time></trkpt><trkpt lat="44.3665583" lon="11.648725"><ele>107.66666666666666</ele><time>2026-05-01T11:17:29.44Z</time></trkpt><trkpt lat="44.36661" lon="11.6487983"><ele>107.5</ele><time>2026-05-01T11:17:30.441Z</time></trkpt><trkpt lat="44.3666517" lon="11.6488667"><ele>107.33333333333333</ele><time>2026-05-01T11:17:31.442Z</time></trkpt><trkpt lat="44.36669" lon="11.648995"><ele>107.16666666666666</ele><time>2026-05-01T11:17:33.441Z</time></trkpt><trkpt lat="44.3666433" lon="11.6491"><ele>107.0</ele><time>2026-05-01T11:17:35.44Z</time></trkpt><trkpt lat="44.36657" lon="11.6492167"><ele>106.99999999999999</ele><time>2026-05-01T11:17:37.44Z</time></trkpt><trkpt lat="44.3664983" lon="11.64936"><ele>107.0</ele><time>2026-05-01T11:17:39.441Z</time></trkpt><trkpt lat="44.36646" lon="11.649435"><ele>107.0</ele><time>2026-05-01T11:17:40.441Z</time></trkpt><trkpt lat="44.3664183" lon="11.6495117"><ele>107.0</ele><time>2026-05-01T11:17:41.441Z</time></trkpt><trkpt lat="44.3663767" lon="11.6495967"><ele>106.99999999999999</ele><time>2026-05-01T11:17:42.441Z</time></trkpt><trkpt lat="44.3663317" lon="11.6497"><ele>107.0</ele><time>2026-05-01T11:17:43.441Z</time></trkpt><trkpt lat="44.3662817" lon="11.6498083"><ele>106.19999999999999</ele><time>2026-05-01T11:17:44.442Z</time></trkpt><trkpt lat="44.366225" lon="11.649925"><ele>105.39999999999999</ele><time>2026-05-01T11:17:45.441Z</time></trkpt><trkpt lat="44.3661617" lon="11.6500383"><ele>104.6</ele><time>2026-05-01T11:17:46.442Z</time></trkpt><trkpt lat="44.3660883" lon="11.6501617"><ele>103.80000000000001</ele><time>2026-05-01T11:17:47.443Z</time></trkpt><trkpt lat="44.3660133" lon="11.6502967"><ele>103.0</ele><time>2026-05-01T11:17:48.439Z</time></trkpt><trkpt lat="44.36593" lon="11.650425"><ele>99.25</ele><time>2026-05-01T11:17:49.441Z</time></trkpt><trkpt lat="44.3658383" lon="11.6505617"><ele>95.5</ele><time>2026-05-01T11:17:50.441Z</time></trkpt><trkpt lat="44.3657433" lon="11.6506917"><ele>91.75</ele><time>2026-05-01T11:17:51.441Z</time></trkpt><trkpt lat="44.3656483" lon="11.6508167"><ele>88.0</ele><time>2026-05-01T11:17:52.44Z</time></trkpt><trkpt lat="44.3655567" lon="11.6509417"><ele>87.75</ele><time>2026-05-01T11:17:53.443Z</time></trkpt><trkpt lat="44.3654633" lon="11.6510683"><ele>87.5</ele><time>2026-05-01T11:17:54.442Z</time></trkpt><trkpt lat="44.3653717" lon="11.65119"><ele>87.25</ele><time>2026-05-01T11:17:55.44Z</time></trkpt><trkpt lat="44.36528" lon="11.6513067"><ele>87.0</ele><time>2026-05-01T11:17:56.441Z</time></trkpt><trkpt lat="44.36519" lon="11.6514067"><ele>86.6</ele><time>2026-05-01T11:17:57.441Z</time></trkpt><trkpt lat="44.365105" lon="11.6515"><ele>86.19999999999999</ele><time>2026-05-01T11:17:58.441Z</time></trkpt><trkpt lat="44.365025" lon="11.6515717"><ele>85.8</ele><time>2026-05-01T11:17:59.442Z</time></trkpt><trkpt lat="44.3649517" lon="11.651635"><ele>85.4</ele><time>2026-05-01T11:18:00.441Z</time></trkpt><trkpt lat="44.3648833" lon="11.6516867"><ele>85.0</ele><time>2026-05-01T11:18:01.441Z</time></trkpt><trkpt lat="44.3647833" lon="11.65173"><ele>84.8</ele><time>2026-05-01T11:18:03.44Z</time></trkpt><trkpt lat="44.3646883" lon="11.6516867"><ele>84.6</ele><time>2026-05-01T11:18:05.441Z</time></trkpt><trkpt lat="44.3646017" lon="11.65161"><ele>84.4</ele><time>2026-05-01T11:18:07.442Z</time></trkpt><trkpt lat="44.36451" lon="11.6515217"><ele>84.2</ele><time>2026-05-01T11:18:09.44Z</time></trkpt><trkpt lat="44.364415" lon="11.6514367"><ele>84.0</ele><time>2026-05-01T11:18:11.441Z</time></trkpt><trkpt lat="44.3643217" lon="11.6513433"><ele>84.0</ele><time>2026-05-01T11:18:13.441Z</time></trkpt><trkpt lat="44.3642283" lon="11.6512417"><ele>84.0</ele><time>2026-05-01T11:18:15.441Z</time></trkpt><trkpt lat="44.36414" lon="11.6511333"><ele>84.0</ele><time>2026-05-01T11:18:17.443Z</time></trkpt><trkpt lat="44.3640467" lon="11.6510217"><ele>84.0</ele><time>2026-05-01T11:18:19.443Z</time></trkpt><trkpt lat="44.3639617" lon="11.6509067"><ele>84.2</ele><time>2026-05-01T11:18:21.442Z</time></trkpt><trkpt lat="44.3639167" lon="11.650845"><ele>84.4</ele><time>2026-05-01T11:18:22.443Z</time></trkpt><trkpt lat="44.363825" lon="11.6507267"><ele>84.6</ele><time>2026-05-01T11:18:24.442Z</time></trkpt><trkpt lat="44.3637383" lon="11.6506033"><ele>84.8</ele><time>2026-05-01T11:18:26.442Z</time></trkpt><trkpt lat="44.3636633" lon="11.6504717"><ele>85.0</ele><time>2026-05-01T11:18:28.442Z</time></trkpt><trkpt lat="44.36358" lon="11.6503383"><ele>84.71428571428572</ele><time>2026-05-01T11:18:30.442Z</time></trkpt><trkpt lat="44.36354" lon="11.6502683"><ele>84.42857142857142</ele><time>2026-05-01T11:18:31.441Z</time></trkpt><trkpt lat="44.3635" lon="11.6502"><ele>84.14285714285714</ele><time>2026-05-01T11:18:32.442Z</time></trkpt><trkpt lat="44.3634617" lon="11.6501283"><ele>83.85714285714286</ele><time>2026-05-01T11:18:33.441Z</time></trkpt><trkpt lat="44.363425" lon="11.6500567"><ele>83.57142857142858</ele><time>2026-05-01T11:18:34.442Z</time></trkpt><trkpt lat="44.363355" lon="11.649915"><ele>83.28571428571428</ele><time>2026-05-01T11:18:36.441Z</time></trkpt><trkpt lat="44.3633183" lon="11.6498433"><ele>83.0</ele><time>2026-05-01T11:18:37.442Z</time></trkpt><trkpt lat="44.363245" lon="11.6497033"><ele>83.0</ele><time>2026-05-01T11:18:39.442Z</time></trkpt><trkpt lat="44.3632067" lon="11.6496333"><ele>83.0</ele><time>2026-05-01T11:18:40.44Z</time></trkpt><trkpt lat="44.3631683" lon="11.6495617"><ele>83.0</ele><time>2026-05-01T11:18:41.442Z</time></trkpt><trkpt lat="44.363095" lon="11.6494217"><ele>83.0</ele><time>2026-05-01T11:18:43.443Z</time></trkpt><trkpt lat="44.3630217" lon="11.64928"><ele>83.0</ele><time>2026-05-01T11:18:45.442Z</time></trkpt><trkpt lat="44.3629483" lon="11.64914"><ele>82.5</ele><time>2026-05-01T11:18:47.441Z</time></trkpt><trkpt lat="44.362875" lon="11.6489983"><ele>82.0</ele><time>2026-05-01T11:18:49.442Z</time></trkpt><trkpt lat="44.3628367" lon="11.648925"><ele>81.5</ele><time>2026-05-01T11:18:50.443Z</time></trkpt><trkpt lat="44.3627983" lon="11.6488533"><ele>81.0</ele><time>2026-05-01T11:18:51.442Z</time></trkpt><trkpt lat="44.36276" lon="11.6487783"><ele>80.5</ele><time>2026-05-01T11:18:52.443Z</time></trkpt><trkpt lat="44.3627233" lon="11.6487033"><ele>80.0</ele><time>2026-05-01T11:18:53.443Z</time></trkpt><trkpt lat="44.3626867" lon="11.6486283"><ele>80.83333333333334</ele><time>2026-05-01T11:18:54.443Z</time></trkpt><trkpt lat="44.3626483" lon="11.6485533"><ele>81.66666666666667</ele><time>2026-05-01T11:18:55.441Z</time></trkpt><trkpt lat="44.3625733" lon="11.6484083"><ele>82.5</ele><time>2026-05-01T11:18:57.443Z</time></trkpt><trkpt lat="44.3625333" lon="11.6483317"><ele>83.33333333333333</ele><time>2026-05-01T11:18:58.443Z</time></trkpt><trkpt lat="44.362495" lon="11.64825"><ele>84.16666666666666</ele><time>2026-05-01T11:18:59.442Z</time></trkpt><trkpt lat="44.3624533" lon="11.6481767"><ele>85.0</ele><time>2026-05-01T11:19:00.442Z</time></trkpt><trkpt lat="44.3624117" lon="11.6481"><ele>85.0</ele><time>2026-05-01T11:19:01.443Z</time></trkpt><trkpt lat="44.3623733" lon="11.6480267"><ele>85.0</ele><time>2026-05-01T11:19:02.443Z</time></trkpt><trkpt lat="44.3623333" lon="11.6479483"><ele>85.0</ele><time>2026-05-01T11:19:03.443Z</time></trkpt><trkpt lat="44.3622917" lon="11.6478717"><ele>85.0</ele><time>2026-05-01T11:19:04.443Z</time></trkpt><trkpt lat="44.3622517" lon="11.6477967"><ele>85.0</ele><time>2026-05-01T11:19:05.443Z</time></trkpt><trkpt lat="44.3622117" lon="11.6477217"><ele>85.0</ele><time>2026-05-01T11:19:06.443Z</time></trkpt><trkpt lat="44.3621717" lon="11.6476433"><ele>85.0</ele><time>2026-05-01T11:19:07.443Z</time></trkpt><trkpt lat="44.3621317" lon="11.6475667"><ele>84.71428571428572</ele><time>2026-05-01T11:19:08.443Z</time></trkpt><trkpt lat="44.3620883" lon="11.6474867"><ele>84.42857142857142</ele><time>2026-05-01T11:19:09.442Z</time></trkpt><trkpt lat="44.3620467" lon="11.6474067"><ele>84.14285714285714</ele><time>2026-05-01T11:19:10.441Z</time></trkpt><trkpt lat="44.362005" lon="11.64733"><ele>83.85714285714286</ele><time>2026-05-01T11:19:11.442Z</time></trkpt><trkpt lat="44.3619633" lon="11.6472533"><ele>83.57142857142858</ele><time>2026-05-01T11:19:12.443Z</time></trkpt><trkpt lat="44.361925" lon="11.6471733"><ele>83.28571428571428</ele><time>2026-05-01T11:19:13.443Z</time></trkpt><trkpt lat="44.361885" lon="11.647095"><ele>83.0</ele><time>2026-05-01T11:19:14.443Z</time></trkpt><trkpt lat="44.3618467" lon="11.6470167"><ele>83.28571428571428</ele><time>2026-05-01T11:19:15.442Z</time></trkpt><trkpt lat="44.3618067" lon="11.6469367"><ele>83.57142857142858</ele><time>2026-05-01T11:19:16.443Z</time></trkpt><trkpt lat="44.36177" lon="11.6468567"><ele>83.85714285714286</ele><time>2026-05-01T11:19:17.442Z</time></trkpt><trkpt lat="44.36173" lon="11.646775"><ele>84.14285714285714</ele><time>2026-05-01T11:19:18.442Z</time></trkpt><trkpt lat="44.3616917" lon="11.646695"><ele>84.42857142857142</ele><time>2026-05-01T11:19:19.443Z</time></trkpt><trkpt lat="44.3616517" lon="11.6466167"><ele>84.71428571428572</ele><time>2026-05-01T11:19:20.443Z</time></trkpt><trkpt lat="44.3616083" lon="11.6465383"><ele>85.0</ele><time>2026-05-01T11:19:21.442Z</time></trkpt><trkpt lat="44.3615683" lon="11.64646"><ele>85.0</ele><time>2026-05-01T11:19:22.443Z</time></trkpt><trkpt lat="44.36153" lon="11.6463783"><ele>85.0</ele><time>2026-05-01T11:19:23.443Z</time></trkpt><trkpt lat="44.3614867" lon="11.6462983"><ele>85.0</ele><time>2026-05-01T11:19:24.443Z</time></trkpt><trkpt lat="44.3614433" lon="11.6462167"><ele>85.0</ele><time>2026-05-01T11:19:25.442Z</time></trkpt><trkpt lat="44.3614" lon="11.6461383"><ele>85.0</ele><time>2026-05-01T11:19:26.443Z</time></trkpt><trkpt lat="44.3613583" lon="11.6460567"><ele>85.0</ele><time>2026-05-01T11:19:27.442Z</time></trkpt><trkpt lat="44.3613167" lon="11.6459717"><ele>85.0</ele><time>2026-05-01T11:19:28.443Z</time></trkpt><trkpt lat="44.3612733" lon="11.64589"><ele>84.85714285714286</ele><time>2026-05-01T11:19:29.442Z</time></trkpt><trkpt lat="44.36123" lon="11.6458117"><ele>84.71428571428571</ele><time>2026-05-01T11:19:30.442Z</time></trkpt><trkpt lat="44.3611833" lon="11.6457333"><ele>84.57142857142857</ele><time>2026-05-01T11:19:31.442Z</time></trkpt><trkpt lat="44.3611433" lon="11.6456483"><ele>84.42857142857143</ele><time>2026-05-01T11:19:32.442Z</time></trkpt><trkpt lat="44.3611017" lon="11.6455683"><ele>84.28571428571428</ele><time>2026-05-01T11:19:33.443Z</time></trkpt><trkpt lat="44.3610633" lon="11.645485"><ele>84.14285714285714</ele><time>2026-05-01T11:19:34.443Z</time></trkpt><trkpt lat="44.3610217" lon="11.6454017"><ele>84.0</ele><time>2026-05-01T11:19:35.443Z</time></trkpt><trkpt lat="44.3609817" lon="11.6453233"><ele>84.14285714285714</ele><time>2026-05-01T11:19:36.443Z</time></trkpt><trkpt lat="44.36094" lon="11.645245"><ele>84.28571428571428</ele><time>2026-05-01T11:19:37.443Z</time></trkpt><trkpt lat="44.3608983" lon="11.64517"><ele>84.42857142857143</ele><time>2026-05-01T11:19:38.443Z</time></trkpt><trkpt lat="44.3608583" lon="11.6450917"><ele>84.57142857142857</ele><time>2026-05-01T11:19:39.443Z</time></trkpt><trkpt lat="44.36082" lon="11.645015"><ele>84.71428571428571</ele><time>2026-05-01T11:19:40.443Z</time></trkpt><trkpt lat="44.3607833" lon="11.64494"><ele>84.85714285714286</ele><time>2026-05-01T11:19:41.443Z</time></trkpt><trkpt lat="44.3607467" lon="11.6448683"><ele>85.0</ele><time>2026-05-01T11:19:42.442Z</time></trkpt><trkpt lat="44.3607067" lon="11.6448"><ele>85.0</ele><time>2026-05-01T11:19:43.441Z</time></trkpt><trkpt lat="44.3606367" lon="11.6446583"><ele>85.0</ele><time>2026-05-01T11:19:45.442Z</time></trkpt><trkpt lat="44.3605667" lon="11.6445367"><ele>85.0</ele><time>2026-05-01T11:19:47.44Z</time></trkpt><trkpt lat="44.3604667" lon="11.6445017"><ele>85.0</ele><time>2026-05-01T11:19:49.443Z</time></trkpt><trkpt lat="44.3603633" lon="11.6445883"><ele>84.71428571428572</ele><time>2026-05-01T11:19:51.44Z</time></trkpt><trkpt lat="44.3603167" lon="11.644655"><ele>84.42857142857142</ele><time>2026-05-01T11:19:52.441Z</time></trkpt><trkpt lat="44.3602717" lon="11.644725"><ele>84.14285714285714</ele><time>2026-05-01T11:19:53.443Z</time></trkpt><trkpt lat="44.3602233" lon="11.6447967"><ele>83.85714285714286</ele><time>2026-05-01T11:19:54.443Z</time></trkpt><trkpt lat="44.360175" lon="11.6448683"><ele>83.57142857142858</ele><time>2026-05-01T11:19:55.439Z</time></trkpt><trkpt lat="44.3601267" lon="11.6449383"><ele>83.28571428571428</ele><time>2026-05-01T11:19:56.442Z</time></trkpt><trkpt lat="44.3600817" lon="11.6450117"><ele>83.0</ele><time>2026-05-01T11:19:57.441Z</time></trkpt><trkpt lat="44.36004" lon="11.6450817"><ele>83.0</ele><time>2026-05-01T11:19:58.441Z</time></trkpt><trkpt lat="44.3599583" lon="11.64521"><ele>83.0</ele><time>2026-05-01T11:20:00.441Z</time></trkpt><trkpt lat="44.3598817" lon="11.6453333"><ele>83.0</ele><time>2026-05-01T11:20:02.441Z</time></trkpt><trkpt lat="44.3598083" lon="11.6454567"><ele>83.0</ele><time>2026-05-01T11:20:04.442Z</time></trkpt><trkpt lat="44.3597433" lon="11.64558"><ele>84.4</ele><time>2026-05-01T11:20:06.442Z</time></trkpt><trkpt lat="44.3596817" lon="11.645695"><ele>85.80000000000001</ele><time>2026-05-01T11:20:08.441Z</time></trkpt><trkpt lat="44.35961" lon="11.6458133"><ele>87.2</ele><time>2026-05-01T11:20:10.442Z</time></trkpt><trkpt lat="44.359545" lon="11.6459117"><ele>88.6</ele><time>2026-05-01T11:20:12.442Z</time></trkpt><trkpt lat="44.359485" lon="11.646005"><ele>90.0</ele><time>2026-05-01T11:20:14.441Z</time></trkpt><trkpt lat="44.35943" lon="11.6460817"><ele>90.14285714285714</ele><time>2026-05-01T11:20:16.442Z</time></trkpt><trkpt lat="44.3593983" lon="11.6461583"><ele>90.28571428571429</ele><time>2026-05-01T11:20:18.443Z</time></trkpt><trkpt lat="44.3593617" lon="11.6462367"><ele>90.42857142857143</ele><time>2026-05-01T11:20:20.439Z</time></trkpt><trkpt lat="44.3593317" lon="11.6463183"><ele>90.57142857142857</ele><time>2026-05-01T11:20:22.444Z</time></trkpt><trkpt lat="44.3592983" lon="11.6464033"><ele>90.71428571428572</ele><time>2026-05-01T11:20:24.443Z</time></trkpt><trkpt lat="44.35926" lon="11.6465183"><ele>90.85714285714286</ele><time>2026-05-01T11:20:27.442Z</time></trkpt><trkpt lat="44.359235" lon="11.646605"><ele>91.0</ele><time>2026-05-01T11:20:29.441Z</time></trkpt><trkpt lat="44.35922" lon="11.6466917"><ele>91.0</ele><time>2026-05-01T11:20:31.442Z</time></trkpt><trkpt lat="44.3592067" lon="11.6468133"><ele>91.0</ele><time>2026-05-01T11:20:34.442Z</time></trkpt><trkpt lat="44.3591883" lon="11.646945"><ele>91.0</ele><time>2026-05-01T11:20:37.442Z</time></trkpt><trkpt lat="44.3591817" lon="11.6470483"><ele>91.0</ele><time>2026-05-01T11:20:39.441Z</time></trkpt><trkpt lat="44.3591817" lon="11.647145"><ele>91.0</ele><time>2026-05-01T11:20:41.442Z</time></trkpt><trkpt lat="44.359165" lon="11.647275"><ele>91.0</ele><time>2026-05-01T11:20:44.443Z</time></trkpt><trkpt lat="44.35913" lon="11.6473583"><ele>90.83333333333333</ele><time>2026-05-01T11:20:46.442Z</time></trkpt><trkpt lat="44.3590833" lon="11.6474433"><ele>90.66666666666666</ele><time>2026-05-01T11:20:48.443Z</time></trkpt><trkpt lat="44.3590483" lon="11.6475367"><ele>90.5</ele><time>2026-05-01T11:20:50.443Z</time></trkpt><trkpt lat="44.3590267" lon="11.6476467"><ele>90.33333333333333</ele><time>2026-05-01T11:20:52.444Z</time></trkpt><trkpt lat="44.3590317" lon="11.647745"><ele>90.16666666666667</ele><time>2026-05-01T11:20:54.444Z</time></trkpt><trkpt lat="44.3590533" lon="11.647845"><ele>90.0</ele><time>2026-05-01T11:20:56.442Z</time></trkpt><trkpt lat="44.3590833" lon="11.64794"><ele>90.66666666666667</ele><time>2026-05-01T11:20:58.441Z</time></trkpt><trkpt lat="44.3591183" lon="11.64802"><ele>91.33333333333333</ele><time>2026-05-01T11:21:00.441Z</time></trkpt><trkpt lat="44.35916" lon="11.6480933"><ele>92.0</ele><time>2026-05-01T11:21:02.441Z</time></trkpt><trkpt lat="44.35922" lon="11.6481933"><ele>92.66666666666666</ele><time>2026-05-01T11:21:05.442Z</time></trkpt><trkpt lat="44.35927" lon="11.6483017"><ele>93.33333333333333</ele><time>2026-05-01T11:21:08.442Z</time></trkpt><trkpt lat="44.3593167" lon="11.648415"><ele>94.0</ele><time>2026-05-01T11:21:11.442Z</time></trkpt><trkpt lat="44.359355" lon="11.64849"><ele>94.0</ele><time>2026-05-01T11:21:13.441Z</time></trkpt><trkpt lat="44.3593883" lon="11.6485667"><ele>94.0</ele><time>2026-05-01T11:21:15.441Z</time></trkpt><trkpt lat="44.3594267" lon="11.6486633"><ele>94.0</ele><time>2026-05-01T11:21:18.441Z</time></trkpt><trkpt lat="44.3594717" lon="11.648755"><ele>94.0</ele><time>2026-05-01T11:21:21.442Z</time></trkpt><trkpt lat="44.3594917" lon="11.6488433"><ele>94.0</ele><time>2026-05-01T11:21:24.443Z</time></trkpt><trkpt lat="44.3595067" lon="11.648935"><ele>94.0</ele><time>2026-05-01T11:21:28.441Z</time></trkpt><trkpt lat="44.3595283" lon="11.6490283"><ele>94.0</ele><time>2026-05-01T11:21:33.441Z</time></trkpt><trkpt lat="44.3595183" lon="11.64913"><ele>95.14285714285714</ele><time>2026-05-01T11:21:39.442Z</time></trkpt><trkpt lat="44.3595267" lon="11.6492233"><ele>96.28571428571428</ele><time>2026-05-01T11:21:43.442Z</time></trkpt><trkpt lat="44.3595467" lon="11.6493217"><ele>97.42857142857143</ele><time>2026-05-01T11:21:48.44Z</time></trkpt><trkpt lat="44.35955" lon="11.6494233"><ele>98.57142857142857</ele><time>2026-05-01T11:21:53.44Z</time></trkpt><trkpt lat="44.359525" lon="11.6495117"><ele>99.71428571428572</ele><time>2026-05-01T11:21:58.44Z</time></trkpt><trkpt lat="44.3595117" lon="11.6496033"><ele>100.85714285714286</ele><time>2026-05-01T11:22:02.441Z</time></trkpt><trkpt lat="44.3595067" lon="11.649695"><ele>102.0</ele><time>2026-05-01T11:22:06.439Z</time></trkpt><trkpt lat="44.35947" lon="11.6497767"><ele>103.71428571428572</ele><time>2026-05-01T11:22:10.445Z</time></trkpt><trkpt lat="44.3594533" lon="11.6498633"><ele>105.42857142857143</ele><time>2026-05-01T11:22:15.439Z</time></trkpt><trkpt lat="44.3594267" lon="11.649955"><ele>107.14285714285714</ele><time>2026-05-01T11:22:20.44Z</time></trkpt><trkpt lat="44.3594367" lon="11.6500517"><ele>108.85714285714286</ele><time>2026-05-01T11:22:25.439Z</time></trkpt><trkpt lat="44.3594117" lon="11.6501333"><ele>110.57142857142856</ele><time>2026-05-01T11:22:31.441Z</time></trkpt><trkpt lat="44.359405" lon="11.6502283"><ele>112.28571428571428</ele><time>2026-05-01T11:22:37.442Z</time></trkpt><trkpt lat="44.3593967" lon="11.6503267"><ele>114.0</ele><time>2026-05-01T11:22:42.443Z</time></trkpt><trkpt lat="44.3593617" lon="11.6504217"><ele>114.42857142857142</ele><time>2026-05-01T11:22:48.441Z</time></trkpt><trkpt lat="44.3593567" lon="11.65051"><ele>114.85714285714285</ele><time>2026-05-01T11:22:53.442Z</time></trkpt><trkpt lat="44.359335" lon="11.6506083"><ele>115.28571428571428</ele><time>2026-05-01T11:22:57.443Z</time></trkpt><trkpt lat="44.3593283" lon="11.6506983"><ele>115.71428571428572</ele><time>2026-05-01T11:23:02.439Z</time></trkpt><trkpt lat="44.359335" lon="11.6507883"><ele>116.14285714285715</ele><time>2026-05-01T11:23:07.44Z</time></trkpt><trkpt lat="44.35931" lon="11.6508833"><ele>116.57142857142858</ele><time>2026-05-01T11:23:12.439Z</time></trkpt><trkpt lat="44.3592983" lon="11.6509717"><ele>117.0</ele><time>2026-05-01T11:23:16.441Z</time></trkpt><trkpt lat="44.3593" lon="11.6510617"><ele>116.33333333333333</ele><time>2026-05-01T11:23:21.441Z</time></trkpt><trkpt lat="44.35928" lon="11.651155"><ele>115.66666666666666</ele><time>2026-05-01T11:23:26.44Z</time></trkpt><trkpt lat="44.359245" lon="11.6512533"><ele>115.0</ele><time>2026-05-01T11:23:30.442Z</time></trkpt><trkpt lat="44.3592217" lon="11.6513533"><ele>114.33333333333333</ele><time>2026-05-01T11:23:33.44Z</time></trkpt><trkpt lat="44.3591733" lon="11.6514683"><ele>113.66666666666666</ele><time>2026-05-01T11:23:36.441Z</time></trkpt><trkpt lat="44.3591333" lon="11.6515533"><ele>113.0</ele><time>2026-05-01T11:23:38.442Z</time></trkpt><trkpt lat="44.3590883" lon="11.6516483"><ele>112.99999999999999</ele><time>2026-05-01T11:23:40.441Z</time></trkpt><trkpt lat="44.3590283" lon="11.6517583"><ele>113.0</ele><time>2026-05-01T11:23:42.441Z</time></trkpt><trkpt lat="44.35896" lon="11.6518983"><ele>113.0</ele><time>2026-05-01T11:23:44.441Z</time></trkpt><trkpt lat="44.3589183" lon="11.651975"><ele>113.0</ele><time>2026-05-01T11:23:45.44Z</time></trkpt><trkpt lat="44.358875" lon="11.6520533"><ele>112.99999999999999</ele><time>2026-05-01T11:23:46.443Z</time></trkpt><trkpt lat="44.358835" lon="11.65214"><ele>113.0</ele><time>2026-05-01T11:23:47.443Z</time></trkpt><trkpt lat="44.3588067" lon="11.6522417"><ele>113.16666666666666</ele><time>2026-05-01T11:23:48.44Z</time></trkpt><trkpt lat="44.3588017" lon="11.6523367"><ele>113.33333333333333</ele><time>2026-05-01T11:23:49.44Z</time></trkpt><trkpt lat="44.358815" lon="11.652425"><ele>113.5</ele><time>2026-05-01T11:23:50.44Z</time></trkpt><trkpt lat="44.3588367" lon="11.6525083"><ele>113.66666666666666</ele><time>2026-05-01T11:23:51.441Z</time></trkpt><trkpt lat="44.358895" lon="11.65265"><ele>113.83333333333333</ele><time>2026-05-01T11:23:53.441Z</time></trkpt><trkpt lat="44.3589383" lon="11.6527683"><ele>114.0</ele><time>2026-05-01T11:23:55.441Z</time></trkpt><trkpt lat="44.3589733" lon="11.65287"><ele>114.42857142857142</ele><time>2026-05-01T11:23:57.44Z</time></trkpt><trkpt lat="44.359" lon="11.65296"><ele>114.85714285714285</ele><time>2026-05-01T11:23:59.439Z</time></trkpt><trkpt lat="44.3590167" lon="11.6530483"><ele>115.28571428571428</ele><time>2026-05-01T11:24:01.441Z</time></trkpt><trkpt lat="44.3590417" lon="11.6531683"><ele>115.71428571428572</ele><time>2026-05-01T11:24:04.44Z</time></trkpt><trkpt lat="44.3590583" lon="11.653255"><ele>116.14285714285715</ele><time>2026-05-01T11:24:06.442Z</time></trkpt><trkpt lat="44.3590817" lon="11.6533467"><ele>116.57142857142858</ele><time>2026-05-01T11:24:08.44Z</time></trkpt><trkpt lat="44.359095" lon="11.6534333"><ele>117.0</ele><time>2026-05-01T11:24:10.442Z</time></trkpt><trkpt lat="44.3591083" lon="11.6535283"><ele>117.16666666666667</ele><time>2026-05-01T11:24:12.441Z</time></trkpt><trkpt lat="44.359135" lon="11.6536333"><ele>117.33333333333334</ele><time>2026-05-01T11:24:14.442Z</time></trkpt><trkpt lat="44.3591533" lon="11.6537367"><ele>117.5</ele><time>2026-05-01T11:24:16.442Z</time></trkpt><trkpt lat="44.3591617" lon="11.6538567"><ele>117.66666666666667</ele><time>2026-05-01T11:24:18.441Z</time></trkpt><trkpt lat="44.359175" lon="11.6539783"><ele>117.83333333333334</ele><time>2026-05-01T11:24:20.441Z</time></trkpt><trkpt lat="44.359175" lon="11.6541017"><ele>118.0</ele><time>2026-05-01T11:24:22.44Z</time></trkpt><trkpt lat="44.3591767" lon="11.6542267"><ele>118.00000000000001</ele><time>2026-05-01T11:24:24.44Z</time></trkpt><trkpt lat="44.3591783" lon="11.6543467"><ele>118.0</ele><time>2026-05-01T11:24:26.44Z</time></trkpt><trkpt lat="44.3591733" lon="11.654455"><ele>118.0</ele><time>2026-05-01T11:24:28.441Z</time></trkpt><trkpt lat="44.359165" lon="11.6545517"><ele>118.0</ele><time>2026-05-01T11:24:30.441Z</time></trkpt><trkpt lat="44.35915" lon="11.6546583"><ele>118.00000000000001</ele><time>2026-05-01T11:24:32.44Z</time></trkpt><trkpt lat="44.3591333" lon="11.6547783"><ele>118.0</ele><time>2026-05-01T11:24:34.441Z</time></trkpt><trkpt lat="44.3591167" lon="11.6549017"><ele>117.60000000000001</ele><time>2026-05-01T11:24:36.44Z</time></trkpt><trkpt lat="44.3591067" lon="11.6550217"><ele>117.20000000000002</ele><time>2026-05-01T11:24:38.441Z</time></trkpt><trkpt lat="44.3590983" lon="11.6551467"><ele>116.8</ele><time>2026-05-01T11:24:40.443Z</time></trkpt><trkpt lat="44.3590817" lon="11.65527"><ele>116.4</ele><time>2026-05-01T11:24:42.443Z</time></trkpt><trkpt lat="44.359065" lon="11.6553983"><ele>116.0</ele><time>2026-05-01T11:24:44.443Z</time></trkpt><trkpt lat="44.3590517" lon="11.6555283"><ele>115.99999999999999</ele><time>2026-05-01T11:24:46.442Z</time></trkpt><trkpt lat="44.3590517" lon="11.6556567"><ele>116.0</ele><time>2026-05-01T11:24:48.44Z</time></trkpt><trkpt lat="44.3590467" lon="11.6557817"><ele>116.0</ele><time>2026-05-01T11:24:50.44Z</time></trkpt><trkpt lat="44.359035" lon="11.655905"><ele>116.0</ele><time>2026-05-01T11:24:52.441Z</time></trkpt><trkpt lat="44.3590183" lon="11.6560283"><ele>115.99999999999999</ele><time>2026-05-01T11:24:54.441Z</time></trkpt><trkpt lat="44.359015" lon="11.65615"><ele>116.0</ele><time>2026-05-01T11:24:56.44Z</time></trkpt><trkpt lat="44.3589883" lon="11.6562583"><ele>115.85714285714288</ele><time>2026-05-01T11:24:58.44Z</time></trkpt><trkpt lat="44.3589233" lon="11.6562517"><ele>115.71428571428572</ele><time>2026-05-01T11:25:01.441Z</time></trkpt><trkpt lat="44.3588617" lon="11.6562033"><ele>115.57142857142857</ele><time>2026-05-01T11:25:04.441Z</time></trkpt><trkpt lat="44.3588067" lon="11.6561533"><ele>115.42857142857143</ele><time>2026-05-01T11:25:07.44Z</time></trkpt><trkpt lat="44.3587567" lon="11.656095"><ele>115.28571428571428</ele><time>2026-05-01T11:25:10.44Z</time></trkpt><trkpt lat="44.3587033" lon="11.656045"><ele>115.14285714285712</ele><time>2026-05-01T11:25:13.443Z</time></trkpt><trkpt lat="44.3586517" lon="11.6559883"><ele>114.99999999999999</ele><time>2026-05-01T11:25:16.442Z</time></trkpt><trkpt lat="44.358585" lon="11.6559233"><ele>116.7142857142857</ele><time>2026-05-01T11:25:20.442Z</time></trkpt><trkpt lat="44.358535" lon="11.655865"><ele>118.42857142857142</ele><time>2026-05-01T11:25:23.442Z</time></trkpt><trkpt lat="44.3584933" lon="11.6557983"><ele>120.14285714285714</ele><time>2026-05-01T11:25:26.443Z</time></trkpt><trkpt lat="44.358445" lon="11.655735"><ele>121.85714285714285</ele><time>2026-05-01T11:25:29.442Z</time></trkpt><trkpt lat="44.3583917" lon="11.655655"><ele>123.57142857142856</ele><time>2026-05-01T11:25:33.443Z</time></trkpt><trkpt lat="44.3583433" lon="11.6555683"><ele>125.28571428571429</ele><time>2026-05-01T11:25:37.442Z</time></trkpt><trkpt lat="44.3582883" lon="11.6554833"><ele>127.0</ele><time>2026-05-01T11:25:41.443Z</time></trkpt><trkpt lat="44.3582533" lon="11.6554083"><ele>127.0</ele><time>2026-05-01T11:25:44.443Z</time></trkpt><trkpt lat="44.35821" lon="11.65534"><ele>127.0</ele><time>2026-05-01T11:25:47.442Z</time></trkpt><trkpt lat="44.3581783" lon="11.6552633"><ele>127.0</ele><time>2026-05-01T11:25:50.44Z</time></trkpt><trkpt lat="44.3581383" lon="11.6551917"><ele>127.0</ele><time>2026-05-01T11:25:53.441Z</time></trkpt><trkpt lat="44.3581017" lon="11.6551167"><ele>127.0</ele><time>2026-05-01T11:25:56.441Z</time></trkpt><trkpt lat="44.358065" lon="11.6550383"><ele>127.0</ele><time>2026-05-01T11:25:59.44Z</time></trkpt><trkpt lat="44.35802" lon="11.6549667"><ele>127.0</ele><time>2026-05-01T11:26:02.442Z</time></trkpt><trkpt lat="44.3579783" lon="11.6548967"><ele>127.57142857142858</ele><time>2026-05-01T11:26:05.443Z</time></trkpt><trkpt lat="44.3579317" lon="11.6548017"><ele>128.14285714285714</ele><time>2026-05-01T11:26:09.441Z</time></trkpt><trkpt lat="44.35789" lon="11.654735"><ele>128.71428571428572</ele><time>2026-05-01T11:26:12.441Z</time></trkpt><trkpt lat="44.3578367" lon="11.65465"><ele>129.28571428571428</ele><time>2026-05-01T11:26:16.443Z</time></trkpt><trkpt lat="44.3578033" lon="11.654575"><ele>129.85714285714286</ele><time>2026-05-01T11:26:19.44Z</time></trkpt><trkpt lat="44.3577617" lon="11.6545017"><ele>130.42857142857144</ele><time>2026-05-01T11:26:22.442Z</time></trkpt><trkpt lat="44.3577217" lon="11.6543983"><ele>131.0</ele><time>2026-05-01T11:26:26.442Z</time></trkpt><trkpt lat="44.3576867" lon="11.6543233"><ele>132.16666666666666</ele><time>2026-05-01T11:26:29.44Z</time></trkpt><trkpt lat="44.3576533" lon="11.6542467"><ele>133.33333333333331</ele><time>2026-05-01T11:26:32.441Z</time></trkpt><trkpt lat="44.3576183" lon="11.654145"><ele>134.5</ele><time>2026-05-01T11:26:36.441Z</time></trkpt><trkpt lat="44.3575783" lon="11.6540583"><ele>135.66666666666666</ele><time>2026-05-01T11:26:40.441Z</time></trkpt><trkpt lat="44.35754" lon="11.6539583"><ele>136.83333333333334</ele><time>2026-05-01T11:26:44.441Z</time></trkpt><trkpt lat="44.3574933" lon="11.65386"><ele>138.0</ele><time>2026-05-01T11:26:48.44Z</time></trkpt><trkpt lat="44.3574517" lon="11.6537633"><ele>138.0</ele><time>2026-05-01T11:26:52.442Z</time></trkpt><trkpt lat="44.3574167" lon="11.6536867"><ele>138.0</ele><time>2026-05-01T11:26:55.442Z</time></trkpt><trkpt lat="44.357375" lon="11.6535983"><ele>138.0</ele><time>2026-05-01T11:26:59.444Z</time></trkpt><trkpt lat="44.3573383" lon="11.6535233"><ele>138.0</ele><time>2026-05-01T11:27:02.443Z</time></trkpt><trkpt lat="44.3572867" lon="11.65344"><ele>138.0</ele><time>2026-05-01T11:27:06.443Z</time></trkpt><trkpt lat="44.3572417" lon="11.6533783"><ele>138.0</ele><time>2026-05-01T11:27:09.443Z</time></trkpt><trkpt lat="44.3571967" lon="11.653315"><ele>138.0</ele><time>2026-05-01T11:27:12.442Z</time></trkpt><trkpt lat="44.3571417" lon="11.65323"><ele>139.16666666666666</ele><time>2026-05-01T11:27:16.443Z</time></trkpt><trkpt lat="44.3570817" lon="11.6531583"><ele>140.33333333333334</ele><time>2026-05-01T11:27:20.441Z</time></trkpt><trkpt lat="44.357015" lon="11.6530917"><ele>141.5</ele><time>2026-05-01T11:27:24.442Z</time></trkpt><trkpt lat="44.356945" lon="11.6530367"><ele>142.66666666666669</ele><time>2026-05-01T11:27:28.442Z</time></trkpt><trkpt lat="44.35689" lon="11.65299"><ele>143.83333333333334</ele><time>2026-05-01T11:27:31.443Z</time></trkpt><trkpt lat="44.3568217" lon="11.652925"><ele>145.0</ele><time>2026-05-01T11:27:35.442Z</time></trkpt><trkpt lat="44.3567717" lon="11.6528617"><ele>145.0</ele><time>2026-05-01T11:27:38.443Z</time></trkpt><trkpt lat="44.356725" lon="11.6527933"><ele>145.0</ele><time>2026-05-01T11:27:41.442Z</time></trkpt><trkpt lat="44.3566833" lon="11.652725"><ele>145.0</ele><time>2026-05-01T11:27:44.442Z</time></trkpt><trkpt lat="44.3566333" lon="11.6526333"><ele>145.0</ele><time>2026-05-01T11:27:48.443Z</time></trkpt><trkpt lat="44.3566017" lon="11.6525517"><ele>145.0</ele><time>2026-05-01T11:27:51.442Z</time></trkpt><trkpt lat="44.35657" lon="11.6524733"><ele>145.0</ele><time>2026-05-01T11:27:54.443Z</time></trkpt><trkpt lat="44.356535" lon="11.6523983"><ele>145.0</ele><time>2026-05-01T11:27:57.442Z</time></trkpt><trkpt lat="44.3564933" lon="11.6523317"><ele>145.57142857142858</ele><time>2026-05-01T11:28:00.443Z</time></trkpt><trkpt lat="44.35645" lon="11.65226"><ele>146.14285714285717</ele><time>2026-05-01T11:28:03.442Z</time></trkpt><trkpt lat="44.3564083" lon="11.65219"><ele>146.71428571428572</ele><time>2026-05-01T11:28:06.443Z</time></trkpt><trkpt lat="44.3563533" lon="11.6521033"><ele>147.28571428571428</ele><time>2026-05-01T11:28:10.443Z</time></trkpt><trkpt lat="44.3563083" lon="11.65204"><ele>147.85714285714283</ele><time>2026-05-01T11:28:13.443Z</time></trkpt><trkpt lat="44.3562617" lon="11.6519767"><ele>148.42857142857142</ele><time>2026-05-01T11:28:16.443Z</time></trkpt><trkpt lat="44.3562083" lon="11.651915"><ele>149.0</ele><time>2026-05-01T11:28:19.441Z</time></trkpt><trkpt lat="44.35616" lon="11.6518567"><ele>150.42857142857142</ele><time>2026-05-01T11:28:22.441Z</time></trkpt><trkpt lat="44.3560983" lon="11.6517817"><ele>151.85714285714283</ele><time>2026-05-01T11:28:26.442Z</time></trkpt><trkpt lat="44.356035" lon="11.65171"><ele>153.28571428571428</ele><time>2026-05-01T11:28:30.443Z</time></trkpt><trkpt lat="44.355985" lon="11.6516467"><ele>154.71428571428572</ele><time>2026-05-01T11:28:33.443Z</time></trkpt><trkpt lat="44.35594" lon="11.6515817"><ele>156.14285714285717</ele><time>2026-05-01T11:28:36.443Z</time></trkpt><trkpt lat="44.3558917" lon="11.6515167"><ele>157.57142857142856</ele><time>2026-05-01T11:28:39.44Z</time></trkpt><trkpt lat="44.355845" lon="11.6514467"><ele>159.0</ele><time>2026-05-01T11:28:42.441Z</time></trkpt><trkpt lat="44.3558033" lon="11.65137"><ele>159.0</ele><time>2026-05-01T11:28:45.44Z</time></trkpt><trkpt lat="44.3557667" lon="11.651295"><ele>159.0</ele><time>2026-05-01T11:28:48.442Z</time></trkpt><trkpt lat="44.3557317" lon="11.6512083"><ele>159.0</ele><time>2026-05-01T11:28:51.44Z</time></trkpt><trkpt lat="44.3557033" lon="11.6511267"><ele>159.0</ele><time>2026-05-01T11:28:54.442Z</time></trkpt><trkpt lat="44.3556817" lon="11.65104"><ele>159.0</ele><time>2026-05-01T11:28:57.44Z</time></trkpt><trkpt lat="44.3556617" lon="11.650955"><ele>159.0</ele><time>2026-05-01T11:29:00.442Z</time></trkpt><trkpt lat="44.3556433" lon="11.6508683"><ele>159.0</ele><time>2026-05-01T11:29:03.442Z</time></trkpt><trkpt lat="44.3556317" lon="11.6507733"><ele>159.28571428571428</ele><time>2026-05-01T11:29:06.44Z</time></trkpt><trkpt lat="44.3556217" lon="11.650685"><ele>159.57142857142858</ele><time>2026-05-01T11:29:09.44Z</time></trkpt><trkpt lat="44.3556017" lon="11.6505767"><ele>159.85714285714286</ele><time>2026-05-01T11:29:13.441Z</time></trkpt><trkpt lat="44.355525" lon="11.65058"><ele>160.14285714285714</ele><time>2026-05-01T11:29:17.442Z</time></trkpt><trkpt lat="44.35547" lon="11.6506517"><ele>160.42857142857144</ele><time>2026-05-01T11:29:20.439Z</time></trkpt><trkpt lat="44.3554167" lon="11.65071"><ele>160.71428571428572</ele><time>2026-05-01T11:29:23.44Z</time></trkpt><trkpt lat="44.35536" lon="11.6507917"><ele>161.0</ele><time>2026-05-01T11:29:27.441Z</time></trkpt><trkpt lat="44.35531" lon="11.6508567"><ele>161.66666666666666</ele><time>2026-05-01T11:29:30.441Z</time></trkpt><trkpt lat="44.355245" lon="11.6509517"><ele>162.33333333333331</ele><time>2026-05-01T11:29:33.44Z</time></trkpt><trkpt lat="44.3552017" lon="11.6510283"><ele>163.0</ele><time>2026-05-01T11:29:35.44Z</time></trkpt><trkpt lat="44.3551633" lon="11.651105"><ele>163.66666666666666</ele><time>2026-05-01T11:29:37.441Z</time></trkpt><trkpt lat="44.3551333" lon="11.6511883"><ele>164.33333333333334</ele><time>2026-05-01T11:29:39.439Z</time></trkpt><trkpt lat="44.35509" lon="11.651315"><ele>165.0</ele><time>2026-05-01T11:29:42.44Z</time></trkpt><trkpt lat="44.35506" lon="11.6514183"><ele>165.0</ele><time>2026-05-01T11:29:44.442Z</time></trkpt><trkpt lat="44.3550233" lon="11.6515267"><ele>165.0</ele><time>2026-05-01T11:29:46.443Z</time></trkpt><trkpt lat="44.354985" lon="11.6516467"><ele>165.0</ele><time>2026-05-01T11:29:48.44Z</time></trkpt><trkpt lat="44.35494" lon="11.6517633"><ele>165.0</ele><time>2026-05-01T11:29:50.44Z</time></trkpt><trkpt lat="44.3548967" lon="11.651885"><ele>165.0</ele><time>2026-05-01T11:29:52.439Z</time></trkpt><trkpt lat="44.35485" lon="11.6520117"><ele>165.0</ele><time>2026-05-01T11:29:54.441Z</time></trkpt><trkpt lat="44.3548017" lon="11.652145"><ele>165.0</ele><time>2026-05-01T11:29:56.441Z</time></trkpt><trkpt lat="44.3547583" lon="11.6522833"><ele>165.0</ele><time>2026-05-01T11:29:58.44Z</time></trkpt><trkpt lat="44.354715" lon="11.65243"><ele>165.0</ele><time>2026-05-01T11:30:00.439Z</time></trkpt><trkpt lat="44.3546867" lon="11.652585"><ele>165.0</ele><time>2026-05-01T11:30:02.439Z</time></trkpt><trkpt lat="44.3546717" lon="11.652755"><ele>164.83333333333334</ele><time>2026-05-01T11:30:04.44Z</time></trkpt><trkpt lat="44.35466" lon="11.6529283"><ele>164.66666666666666</ele><time>2026-05-01T11:30:06.442Z</time></trkpt><trkpt lat="44.3546533" lon="11.65302"><ele>164.5</ele><time>2026-05-01T11:30:07.442Z</time></trkpt><trkpt lat="44.3546417" lon="11.6531117"><ele>164.33333333333331</ele><time>2026-05-01T11:30:08.441Z</time></trkpt><trkpt lat="44.3546367" lon="11.6532"><ele>164.16666666666666</ele><time>2026-05-01T11:30:09.442Z</time></trkpt><trkpt lat="44.3546283" lon="11.6532883"><ele>164.0</ele><time>2026-05-01T11:30:10.441Z</time></trkpt><trkpt lat="44.3546217" lon="11.6534583"><ele>163.99999999999997</ele><time>2026-05-01T11:30:12.442Z</time></trkpt><trkpt lat="44.3546167" lon="11.6535483"><ele>164.0</ele><time>2026-05-01T11:30:13.442Z</time></trkpt><trkpt lat="44.354615" lon="11.6536533"><ele>164.0</ele><time>2026-05-01T11:30:14.441Z</time></trkpt><trkpt lat="44.35461" lon="11.6537567"><ele>164.0</ele><time>2026-05-01T11:30:15.442Z</time></trkpt><trkpt lat="44.3546" lon="11.6538567"><ele>164.0</ele><time>2026-05-01T11:30:16.442Z</time></trkpt><trkpt lat="44.3545883" lon="11.6539467"><ele>163.99999999999997</ele><time>2026-05-01T11:30:17.443Z</time></trkpt><trkpt lat="44.3545817" lon="11.6540367"><ele>164.0</ele><time>2026-05-01T11:30:18.443Z</time></trkpt><trkpt lat="44.3545667" lon="11.6542083"><ele>163.7142857142857</ele><time>2026-05-01T11:30:20.443Z</time></trkpt><trkpt lat="44.354555" lon="11.6542983"><ele>163.42857142857142</ele><time>2026-05-01T11:30:21.443Z</time></trkpt><trkpt lat="44.3545417" lon="11.6543883"><ele>163.14285714285714</ele><time>2026-05-01T11:30:22.442Z</time></trkpt><trkpt lat="44.3545317" lon="11.6544833"><ele>162.85714285714283</ele><time>2026-05-01T11:30:23.441Z</time></trkpt><trkpt lat="44.35452" lon="11.6545767"><ele>162.57142857142856</ele><time>2026-05-01T11:30:24.443Z</time></trkpt><trkpt lat="44.3545067" lon="11.65467"><ele>162.28571428571428</ele><time>2026-05-01T11:30:25.44Z</time></trkpt><trkpt lat="44.3544917" lon="11.654765"><ele>162.0</ele><time>2026-05-01T11:30:26.441Z</time></trkpt><trkpt lat="44.354475" lon="11.6548633"><ele>161.71428571428572</ele><time>2026-05-01T11:30:27.442Z</time></trkpt><trkpt lat="44.3544567" lon="11.65496"><ele>161.42857142857142</ele><time>2026-05-01T11:30:28.442Z</time></trkpt><trkpt lat="44.3544367" lon="11.655055"><ele>161.14285714285714</ele><time>2026-05-01T11:30:29.442Z</time></trkpt><trkpt lat="44.3544167" lon="11.6551567"><ele>160.85714285714286</ele><time>2026-05-01T11:30:30.443Z</time></trkpt><trkpt lat="44.35439" lon="11.6552567"><ele>160.57142857142858</ele><time>2026-05-01T11:30:31.442Z</time></trkpt><trkpt lat="44.354365" lon="11.6553533"><ele>160.28571428571428</ele><time>2026-05-01T11:30:32.443Z</time></trkpt><trkpt lat="44.3543383" lon="11.6554517"><ele>160.0</ele><time>2026-05-01T11:30:33.442Z</time></trkpt><trkpt lat="44.354315" lon="11.6555483"><ele>159.85714285714286</ele><time>2026-05-01T11:30:34.442Z</time></trkpt><trkpt lat="44.3542967" lon="11.6556483"><ele>159.71428571428572</ele><time>2026-05-01T11:30:35.442Z</time></trkpt><trkpt lat="44.3542717" lon="11.6557433"><ele>159.57142857142856</ele><time>2026-05-01T11:30:36.441Z</time></trkpt><trkpt lat="44.3542467" lon="11.6558383"><ele>159.42857142857144</ele><time>2026-05-01T11:30:37.441Z</time></trkpt><trkpt lat="44.3542167" lon="11.65593"><ele>159.2857142857143</ele><time>2026-05-01T11:30:38.442Z</time></trkpt><trkpt lat="44.3541867" lon="11.656025"><ele>159.14285714285714</ele><time>2026-05-01T11:30:39.442Z</time></trkpt><trkpt lat="44.35416" lon="11.65612"><ele>159.0</ele><time>2026-05-01T11:30:40.442Z</time></trkpt><trkpt lat="44.354135" lon="11.656215"><ele>158.33333333333334</ele><time>2026-05-01T11:30:41.441Z</time></trkpt><trkpt lat="44.354115" lon="11.656315"><ele>157.66666666666666</ele><time>2026-05-01T11:30:42.442Z</time></trkpt><trkpt lat="44.3540933" lon="11.6564167"><ele>157.0</ele><time>2026-05-01T11:30:43.442Z</time></trkpt><trkpt lat="44.3540683" lon="11.656515"><ele>156.33333333333331</ele><time>2026-05-01T11:30:44.443Z</time></trkpt><trkpt lat="44.3540433" lon="11.6566167"><ele>155.66666666666666</ele><time>2026-05-01T11:30:45.441Z</time></trkpt><trkpt lat="44.3540217" lon="11.6567183"><ele>155.0</ele><time>2026-05-01T11:30:46.443Z</time></trkpt><trkpt lat="44.3539983" lon="11.6568167"><ele>155.0</ele><time>2026-05-01T11:30:47.441Z</time></trkpt><trkpt lat="44.3539783" lon="11.6569117"><ele>155.0</ele><time>2026-05-01T11:30:48.443Z</time></trkpt><trkpt lat="44.3539567" lon="11.6570083"><ele>155.0</ele><time>2026-05-01T11:30:49.443Z</time></trkpt><trkpt lat="44.3539333" lon="11.6571033"><ele>155.0</ele><time>2026-05-01T11:30:50.443Z</time></trkpt><trkpt lat="44.353915" lon="11.6572"><ele>155.0</ele><time>2026-05-01T11:30:51.443Z</time></trkpt><trkpt lat="44.3538917" lon="11.6572983"><ele>155.0</ele><time>2026-05-01T11:30:52.443Z</time></trkpt><trkpt lat="44.35387" lon="11.6573933"><ele>155.0</ele><time>2026-05-01T11:30:53.443Z</time></trkpt><trkpt lat="44.353845" lon="11.6574917"><ele>155.0</ele><time>2026-05-01T11:30:54.443Z</time></trkpt><trkpt lat="44.3538217" lon="11.6575867"><ele>155.0</ele><time>2026-05-01T11:30:55.44Z</time></trkpt><trkpt lat="44.3537983" lon="11.6576833"><ele>155.0</ele><time>2026-05-01T11:30:56.442Z</time></trkpt><trkpt lat="44.3537767" lon="11.6577767"><ele>155.0</ele><time>2026-05-01T11:30:57.439Z</time></trkpt><trkpt lat="44.3537533" lon="11.6578717"><ele>155.0</ele><time>2026-05-01T11:30:58.441Z</time></trkpt><trkpt lat="44.3537283" lon="11.6579633"><ele>155.0</ele><time>2026-05-01T11:30:59.441Z</time></trkpt><trkpt lat="44.353705" lon="11.6580583"><ele>155.0</ele><time>2026-05-01T11:31:00.441Z</time></trkpt><trkpt lat="44.353685" lon="11.658155"><ele>154.42857142857144</ele><time>2026-05-01T11:31:01.442Z</time></trkpt><trkpt lat="44.3536633" lon="11.6582517"><ele>153.85714285714286</ele><time>2026-05-01T11:31:02.442Z</time></trkpt><trkpt lat="44.3536383" lon="11.6583417"><ele>153.28571428571428</ele><time>2026-05-01T11:31:03.44Z</time></trkpt><trkpt lat="44.3536167" lon="11.6584367"><ele>152.71428571428572</ele><time>2026-05-01T11:31:04.441Z</time></trkpt><trkpt lat="44.3535933" lon="11.6585333"><ele>152.14285714285714</ele><time>2026-05-01T11:31:05.44Z</time></trkpt><trkpt lat="44.3535683" lon="11.6586283"><ele>151.57142857142858</ele><time>2026-05-01T11:31:06.441Z</time></trkpt><trkpt lat="44.3535417" lon="11.6587233"><ele>151.0</ele><time>2026-05-01T11:31:07.442Z</time></trkpt><trkpt lat="44.3535167" lon="11.6588217"><ele>150.5</ele><time>2026-05-01T11:31:08.442Z</time></trkpt><trkpt lat="44.353485" lon="11.6589233"><ele>150.0</ele><time>2026-05-01T11:31:09.442Z</time></trkpt><trkpt lat="44.3534433" lon="11.6590183"><ele>149.5</ele><time>2026-05-01T11:31:10.442Z</time></trkpt><trkpt lat="44.3533967" lon="11.6591217"><ele>149.0</ele><time>2026-05-01T11:31:11.442Z</time></trkpt><trkpt lat="44.3533517" lon="11.65923"><ele>148.5</ele><time>2026-05-01T11:31:12.44Z</time></trkpt><trkpt lat="44.3533033" lon="11.6593417"><ele>148.0</ele><time>2026-05-01T11:31:13.442Z</time></trkpt><trkpt lat="44.3532517" lon="11.6594533"><ele>146.8</ele><time>2026-05-01T11:31:14.442Z</time></trkpt><trkpt lat="44.3531983" lon="11.6595683"><ele>145.60000000000002</ele><time>2026-05-01T11:31:15.441Z</time></trkpt><trkpt lat="44.3531433" lon="11.6596883"><ele>144.39999999999998</ele><time>2026-05-01T11:31:16.443Z</time></trkpt><trkpt lat="44.3530883" lon="11.65981"><ele>143.2</ele><time>2026-05-01T11:31:17.443Z</time></trkpt><trkpt lat="44.35303" lon="11.6599383"><ele>142.0</ele><time>2026-05-01T11:31:18.443Z</time></trkpt><trkpt lat="44.3529717" lon="11.6600683"><ele>140.75</ele><time>2026-05-01T11:31:19.442Z</time></trkpt><trkpt lat="44.3529117" lon="11.660205"><ele>139.5</ele><time>2026-05-01T11:31:20.444Z</time></trkpt><trkpt lat="44.3528467" lon="11.6603483"><ele>138.25</ele><time>2026-05-01T11:31:21.443Z</time></trkpt><trkpt lat="44.3527783" lon="11.66049"><ele>137.0</ele><time>2026-05-01T11:31:22.443Z</time></trkpt><trkpt lat="44.3527117" lon="11.66062"><ele>135.4</ele><time>2026-05-01T11:31:23.439Z</time></trkpt><trkpt lat="44.3526533" lon="11.6607517"><ele>133.79999999999998</ele><time>2026-05-01T11:31:24.443Z</time></trkpt><trkpt lat="44.3526217" lon="11.6608933"><ele>132.2</ele><time>2026-05-01T11:31:25.442Z</time></trkpt><trkpt lat="44.3526183" lon="11.6610433"><ele>130.6</ele><time>2026-05-01T11:31:26.442Z</time></trkpt><trkpt lat="44.3526433" lon="11.6611867"><ele>129.0</ele><time>2026-05-01T11:31:27.442Z</time></trkpt><trkpt lat="44.3526883" lon="11.6613217"><ele>128.0</ele><time>2026-05-01T11:31:28.442Z</time></trkpt><trkpt lat="44.3527417" lon="11.6614533"><ele>127.0</ele><time>2026-05-01T11:31:29.441Z</time></trkpt><trkpt lat="44.3527983" lon="11.661585"><ele>126.0</ele><time>2026-05-01T11:31:30.442Z</time></trkpt><trkpt lat="44.3528533" lon="11.6617167"><ele>125.0</ele><time>2026-05-01T11:31:31.443Z</time></trkpt><trkpt lat="44.3529067" lon="11.6618533"><ele>124.0</ele><time>2026-05-01T11:31:32.442Z</time></trkpt><trkpt lat="44.3529533" lon="11.6619917"><ele>122.80000000000001</ele><time>2026-05-01T11:31:33.442Z</time></trkpt><trkpt lat="44.3529883" lon="11.6621383"><ele>121.60000000000001</ele><time>2026-05-01T11:31:34.442Z</time></trkpt><trkpt lat="44.3530067" lon="11.6622883"><ele>120.4</ele><time>2026-05-01T11:31:35.442Z</time></trkpt><trkpt lat="44.3530167" lon="11.6624383"><ele>119.2</ele><time>2026-05-01T11:31:36.442Z</time></trkpt><trkpt lat="44.353015" lon="11.66259"><ele>118.0</ele><time>2026-05-01T11:31:37.442Z</time></trkpt><trkpt lat="44.3530117" lon="11.6627367"><ele>117.2</ele><time>2026-05-01T11:31:38.441Z</time></trkpt><trkpt lat="44.3530083" lon="11.6628817"><ele>116.4</ele><time>2026-05-01T11:31:39.442Z</time></trkpt><trkpt lat="44.3530067" lon="11.6630233"><ele>115.60000000000001</ele><time>2026-05-01T11:31:40.443Z</time></trkpt><trkpt lat="44.35301" lon="11.66316"><ele>114.80000000000001</ele><time>2026-05-01T11:31:41.441Z</time></trkpt><trkpt lat="44.3530133" lon="11.6633"><ele>114.0</ele><time>2026-05-01T11:31:42.442Z</time></trkpt><trkpt lat="44.35301" lon="11.6634383"><ele>114.0</ele><time>2026-05-01T11:31:43.443Z</time></trkpt><trkpt lat="44.35301" lon="11.6635767"><ele>114.0</ele><time>2026-05-01T11:31:44.442Z</time></trkpt><trkpt lat="44.3530083" lon="11.6637117"><ele>114.0</ele><time>2026-05-01T11:31:45.442Z</time></trkpt><trkpt lat="44.35301" lon="11.6638433"><ele>114.0</ele><time>2026-05-01T11:31:46.444Z</time></trkpt><trkpt lat="44.3530117" lon="11.663975"><ele>114.0</ele><time>2026-05-01T11:31:47.443Z</time></trkpt><trkpt lat="44.3530083" lon="11.664105"><ele>113.83333333333333</ele><time>2026-05-01T11:31:48.443Z</time></trkpt><trkpt lat="44.353005" lon="11.66423"><ele>113.66666666666666</ele><time>2026-05-01T11:31:49.442Z</time></trkpt><trkpt lat="44.3530017" lon="11.6643533"><ele>113.5</ele><time>2026-05-01T11:31:50.443Z</time></trkpt><trkpt lat="44.3529983" lon="11.664475"><ele>113.33333333333333</ele><time>2026-05-01T11:31:51.443Z</time></trkpt><trkpt lat="44.3529933" lon="11.664595"><ele>113.16666666666666</ele><time>2026-05-01T11:31:52.443Z</time></trkpt><trkpt lat="44.35299" lon="11.664715"><ele>113.0</ele><time>2026-05-01T11:31:53.443Z</time></trkpt><trkpt lat="44.3529883" lon="11.6648383"><ele>112.99999999999999</ele><time>2026-05-01T11:31:54.443Z</time></trkpt><trkpt lat="44.35299" lon="11.6649633"><ele>113.0</ele><time>2026-05-01T11:31:55.44Z</time></trkpt><trkpt lat="44.352995" lon="11.665085"><ele>113.0</ele><time>2026-05-01T11:31:56.439Z</time></trkpt><trkpt lat="44.3529967" lon="11.6652067"><ele>113.0</ele><time>2026-05-01T11:31:57.439Z</time></trkpt><trkpt lat="44.3530017" lon="11.665325"><ele>112.99999999999999</ele><time>2026-05-01T11:31:58.439Z</time></trkpt><trkpt lat="44.3530017" lon="11.665445"><ele>113.0</ele><time>2026-05-01T11:31:59.441Z</time></trkpt><trkpt lat="44.353" lon="11.665565"><ele>112.99999999999999</ele><time>2026-05-01T11:32:00.439Z</time></trkpt><trkpt lat="44.3529967" lon="11.6656833"><ele>113.0</ele><time>2026-05-01T11:32:01.441Z</time></trkpt><trkpt lat="44.3529983" lon="11.665805"><ele>113.0</ele><time>2026-05-01T11:32:02.44Z</time></trkpt><trkpt lat="44.352995" lon="11.665925"><ele>113.0</ele><time>2026-05-01T11:32:03.441Z</time></trkpt><trkpt lat="44.3529933" lon="11.6660417"><ele>112.99999999999999</ele><time>2026-05-01T11:32:04.44Z</time></trkpt><trkpt lat="44.352995" lon="11.66616"><ele>113.0</ele><time>2026-05-01T11:32:05.44Z</time></trkpt><trkpt lat="44.3529967" lon="11.66628"><ele>112.99999999999999</ele><time>2026-05-01T11:32:06.439Z</time></trkpt><trkpt lat="44.3529967" lon="11.6663983"><ele>113.0</ele><time>2026-05-01T11:32:07.44Z</time></trkpt><trkpt lat="44.3530033" lon="11.666515"><ele>113.0</ele><time>2026-05-01T11:32:08.44Z</time></trkpt><trkpt lat="44.353" lon="11.6666317"><ele>113.0</ele><time>2026-05-01T11:32:09.439Z</time></trkpt><trkpt lat="44.3529983" lon="11.6667483"><ele>112.99999999999999</ele><time>2026-05-01T11:32:10.44Z</time></trkpt><trkpt lat="44.3529983" lon="11.6668633"><ele>113.0</ele><time>2026-05-01T11:32:11.44Z</time></trkpt><trkpt lat="44.3529967" lon="11.6669817"><ele>112.83333333333333</ele><time>2026-05-01T11:32:12.44Z</time></trkpt><trkpt lat="44.3529933" lon="11.6670967"><ele>112.66666666666666</ele><time>2026-05-01T11:32:13.441Z</time></trkpt><trkpt lat="44.3529933" lon="11.6672133"><ele>112.5</ele><time>2026-05-01T11:32:14.441Z</time></trkpt><trkpt lat="44.3529933" lon="11.6673267"><ele>112.33333333333334</ele><time>2026-05-01T11:32:15.439Z</time></trkpt><trkpt lat="44.3529933" lon="11.6674383"><ele>112.16666666666667</ele><time>2026-05-01T11:32:16.443Z</time></trkpt><trkpt lat="44.3529933" lon="11.66755"><ele>112.0</ele><time>2026-05-01T11:32:17.442Z</time></trkpt><trkpt lat="44.35299" lon="11.6676583"><ele>112.00000000000001</ele><time>2026-05-01T11:32:18.442Z</time></trkpt><trkpt lat="44.3529883" lon="11.66777"><ele>112.0</ele><time>2026-05-01T11:32:19.443Z</time></trkpt><trkpt lat="44.352985" lon="11.6678783"><ele>112.0</ele><time>2026-05-01T11:32:20.443Z</time></trkpt><trkpt lat="44.3529733" lon="11.6679883"><ele>112.0</ele><time>2026-05-01T11:32:21.443Z</time></trkpt><trkpt lat="44.3529633" lon="11.6681"><ele>112.00000000000001</ele><time>2026-05-01T11:32:22.443Z</time></trkpt><trkpt lat="44.3529517" lon="11.6682133"><ele>112.0</ele><time>2026-05-01T11:32:23.442Z</time></trkpt><trkpt lat="44.35294" lon="11.6683267"><ele>112.16666666666667</ele><time>2026-05-01T11:32:24.443Z</time></trkpt><trkpt lat="44.3529267" lon="11.6684383"><ele>112.33333333333334</ele><time>2026-05-01T11:32:25.44Z</time></trkpt><trkpt lat="44.352915" lon="11.6685483"><ele>112.5</ele><time>2026-05-01T11:32:26.443Z</time></trkpt><trkpt lat="44.3529" lon="11.66866"><ele>112.66666666666666</ele><time>2026-05-01T11:32:27.442Z</time></trkpt><trkpt lat="44.3528867" lon="11.6687683"><ele>112.83333333333333</ele><time>2026-05-01T11:32:28.441Z</time></trkpt><trkpt lat="44.352875" lon="11.668875"><ele>113.0</ele><time>2026-05-01T11:32:29.443Z</time></trkpt><trkpt lat="44.352865" lon="11.6689817"><ele>112.49999999999999</ele><time>2026-05-01T11:32:30.442Z</time></trkpt><trkpt lat="44.35285" lon="11.6690883"><ele>112.0</ele><time>2026-05-01T11:32:31.443Z</time></trkpt><trkpt lat="44.352835" lon="11.669195"><ele>111.5</ele><time>2026-05-01T11:32:32.442Z</time></trkpt><trkpt lat="44.3528183" lon="11.6693"><ele>111.0</ele><time>2026-05-01T11:32:33.443Z</time></trkpt><trkpt lat="44.3528017" lon="11.6694033"><ele>110.49999999999999</ele><time>2026-05-01T11:32:34.441Z</time></trkpt><trkpt lat="44.3527883" lon="11.66951"><ele>110.0</ele><time>2026-05-01T11:32:35.442Z</time></trkpt><trkpt lat="44.3527733" lon="11.669615"><ele>109.99999999999999</ele><time>2026-05-01T11:32:36.443Z</time></trkpt><trkpt lat="44.352755" lon="11.6697217"><ele>110.0</ele><time>2026-05-01T11:32:37.443Z</time></trkpt><trkpt lat="44.35274" lon="11.6698283"><ele>110.0</ele><time>2026-05-01T11:32:38.442Z</time></trkpt><trkpt lat="44.3527267" lon="11.6699367"><ele>110.0</ele><time>2026-05-01T11:32:39.442Z</time></trkpt><trkpt lat="44.35272" lon="11.670045"><ele>109.99999999999999</ele><time>2026-05-01T11:32:40.443Z</time></trkpt><trkpt lat="44.352735" lon="11.67015"><ele>110.0</ele><time>2026-05-01T11:32:41.441Z</time></trkpt><trkpt lat="44.3527733" lon="11.67025"><ele>109.99999999999999</ele><time>2026-05-01T11:32:42.442Z</time></trkpt><trkpt lat="44.3528333" lon="11.670325"><ele>110.0</ele><time>2026-05-01T11:32:43.442Z</time></trkpt><trkpt lat="44.3529117" lon="11.6703433"><ele>110.0</ele><time>2026-05-01T11:32:44.443Z</time></trkpt><trkpt lat="44.352995" lon="11.6703383"><ele>110.0</ele><time>2026-05-01T11:32:45.442Z</time></trkpt><trkpt lat="44.3530767" lon="11.6703317"><ele>109.99999999999999</ele><time>2026-05-01T11:32:46.442Z</time></trkpt><trkpt lat="44.3531583" lon="11.670325"><ele>110.0</ele><time>2026-05-01T11:32:47.443Z</time></trkpt><trkpt lat="44.3532383" lon="11.6703233"><ele>109.49999999999999</ele><time>2026-05-01T11:32:48.443Z</time></trkpt><trkpt lat="44.35332" lon="11.6703217"><ele>109.0</ele><time>2026-05-01T11:32:49.443Z</time></trkpt><trkpt lat="44.3534" lon="11.6703167"><ele>108.5</ele><time>2026-05-01T11:32:50.443Z</time></trkpt><trkpt lat="44.353485" lon="11.6703233"><ele>108.0</ele><time>2026-05-01T11:32:51.441Z</time></trkpt><trkpt lat="44.3535667" lon="11.6703283"><ele>107.49999999999999</ele><time>2026-05-01T11:32:52.441Z</time></trkpt><trkpt lat="44.3536517" lon="11.6703317"><ele>107.0</ele><time>2026-05-01T11:32:53.443Z</time></trkpt><trkpt lat="44.3537367" lon="11.6703433"><ele>106.99999999999999</ele><time>2026-05-01T11:32:54.442Z</time></trkpt><trkpt lat="44.3538167" lon="11.670375"><ele>107.0</ele><time>2026-05-01T11:32:55.444Z</time></trkpt><trkpt lat="44.3539" lon="11.6704217"><ele>107.0</ele><time>2026-05-01T11:32:56.442Z</time></trkpt><trkpt lat="44.3539717" lon="11.6704933"><ele>107.0</ele><time>2026-05-01T11:32:57.442Z</time></trkpt><trkpt lat="44.3540367" lon="11.670575"><ele>106.99999999999999</ele><time>2026-05-01T11:32:58.442Z</time></trkpt><trkpt lat="44.3541" lon="11.67066"><ele>107.0</ele><time>2026-05-01T11:32:59.443Z</time></trkpt><trkpt lat="44.354165" lon="11.6707467"><ele>106.49999999999999</ele><time>2026-05-01T11:33:00.441Z</time></trkpt><trkpt lat="44.354225" lon="11.6708367"><ele>106.0</ele><time>2026-05-01T11:33:01.442Z</time></trkpt><trkpt lat="44.354285" lon="11.6709233"><ele>105.5</ele><time>2026-05-01T11:33:02.442Z</time></trkpt><trkpt lat="44.3543483" lon="11.6710117"><ele>105.0</ele><time>2026-05-01T11:33:03.441Z</time></trkpt><trkpt lat="44.35441" lon="11.6710967"><ele>104.49999999999999</ele><time>2026-05-01T11:33:04.443Z</time></trkpt><trkpt lat="44.3544717" lon="11.6711767"><ele>104.0</ele><time>2026-05-01T11:33:05.441Z</time></trkpt><trkpt lat="44.3545317" lon="11.671255"><ele>103.49999999999999</ele><time>2026-05-01T11:33:06.442Z</time></trkpt><trkpt lat="44.3545883" lon="11.6713367"><ele>103.0</ele><time>2026-05-01T11:33:07.442Z</time></trkpt><trkpt lat="44.354645" lon="11.6714167"><ele>102.5</ele><time>2026-05-01T11:33:08.442Z</time></trkpt><trkpt lat="44.3547017" lon="11.671495"><ele>102.0</ele><time>2026-05-01T11:33:09.442Z</time></trkpt><trkpt lat="44.3547567" lon="11.6715733"><ele>101.49999999999999</ele><time>2026-05-01T11:33:10.441Z</time></trkpt><trkpt lat="44.35481" lon="11.6716483"><ele>101.0</ele><time>2026-05-01T11:33:11.441Z</time></trkpt><trkpt lat="44.3548617" lon="11.6717233"><ele>100.99999999999999</ele><time>2026-05-01T11:33:12.442Z</time></trkpt><trkpt lat="44.3549133" lon="11.6718"><ele>101.0</ele><time>2026-05-01T11:33:13.442Z</time></trkpt><trkpt lat="44.3549633" lon="11.67188"><ele>101.0</ele><time>2026-05-01T11:33:14.443Z</time></trkpt><trkpt lat="44.3550117" lon="11.671965"><ele>101.0</ele><time>2026-05-01T11:33:15.442Z</time></trkpt><trkpt lat="44.3550583" lon="11.672055"><ele>100.99999999999999</ele><time>2026-05-01T11:33:16.442Z</time></trkpt><trkpt lat="44.355095" lon="11.67215"><ele>101.0</ele><time>2026-05-01T11:33:17.443Z</time></trkpt><trkpt lat="44.3551317" lon="11.6722483"><ele>100.66666666666666</ele><time>2026-05-01T11:33:18.443Z</time></trkpt><trkpt lat="44.3551667" lon="11.67235"><ele>100.33333333333333</ele><time>2026-05-01T11:33:19.44Z</time></trkpt><trkpt lat="44.3552017" lon="11.6724517"><ele>100.0</ele><time>2026-05-01T11:33:20.443Z</time></trkpt><trkpt lat="44.355235" lon="11.6725583"><ele>99.66666666666666</ele><time>2026-05-01T11:33:21.442Z</time></trkpt><trkpt lat="44.3552683" lon="11.6726667"><ele>99.33333333333333</ele><time>2026-05-01T11:33:22.443Z</time></trkpt><trkpt lat="44.3553067" lon="11.6727733"><ele>99.0</ele><time>2026-05-01T11:33:23.443Z</time></trkpt><trkpt lat="44.355345" lon="11.6728883"><ele>98.4</ele><time>2026-05-01T11:33:24.443Z</time></trkpt><trkpt lat="44.3553817" lon="11.673005"><ele>97.80000000000001</ele><time>2026-05-01T11:33:25.44Z</time></trkpt><trkpt lat="44.3554183" lon="11.673125"><ele>97.19999999999999</ele><time>2026-05-01T11:33:26.439Z</time></trkpt><trkpt lat="44.355455" lon="11.6732517"><ele>96.6</ele><time>2026-05-01T11:33:27.44Z</time></trkpt><trkpt lat="44.3554917" lon="11.6733817"><ele>96.0</ele><time>2026-05-01T11:33:28.441Z</time></trkpt><trkpt lat="44.3555333" lon="11.6735133"><ele>93.0</ele><time>2026-05-01T11:33:29.44Z</time></trkpt><trkpt lat="44.355575" lon="11.67365"><ele>90.0</ele><time>2026-05-01T11:33:30.441Z</time></trkpt><trkpt lat="44.3556183" lon="11.6737933"><ele>87.0</ele><time>2026-05-01T11:33:31.44Z</time></trkpt><trkpt lat="44.3556633" lon="11.67394"><ele>84.0</ele><time>2026-05-01T11:33:32.441Z</time></trkpt><trkpt lat="44.3557133" lon="11.67409"><ele>84.0</ele><time>2026-05-01T11:33:33.439Z</time></trkpt><trkpt lat="44.35577" lon="11.6742417"><ele>84.0</ele><time>2026-05-01T11:33:34.441Z</time></trkpt><trkpt lat="44.3558333" lon="11.6743817"><ele>84.0</ele><time>2026-05-01T11:33:35.441Z</time></trkpt><trkpt lat="44.3559117" lon="11.6745"><ele>84.0</ele><time>2026-05-01T11:33:36.44Z</time></trkpt><trkpt lat="44.3560017" lon="11.6745983"><ele>83.0</ele><time>2026-05-01T11:33:37.44Z</time></trkpt><trkpt lat="44.356095" lon="11.6746867"><ele>82.0</ele><time>2026-05-01T11:33:38.441Z</time></trkpt><trkpt lat="44.3561967" lon="11.6747683"><ele>81.0</ele><time>2026-05-01T11:33:39.44Z</time></trkpt><trkpt lat="44.3562983" lon="11.6748417"><ele>80.0</ele><time>2026-05-01T11:33:40.441Z</time></trkpt><trkpt lat="44.3564" lon="11.67491"><ele>79.4</ele><time>2026-05-01T11:33:41.44Z</time></trkpt><trkpt lat="44.3565" lon="11.6749783"><ele>78.8</ele><time>2026-05-01T11:33:42.44Z</time></trkpt><trkpt lat="44.3565967" lon="11.6750517"><ele>78.2</ele><time>2026-05-01T11:33:43.441Z</time></trkpt><trkpt lat="44.356695" lon="11.6751283"><ele>77.6</ele><time>2026-05-01T11:33:44.439Z</time></trkpt><trkpt lat="44.35679" lon="11.675205"><ele>77.0</ele><time>2026-05-01T11:33:45.445Z</time></trkpt><trkpt lat="44.35689" lon="11.6752783"><ele>76.6</ele><time>2026-05-01T11:33:46.44Z</time></trkpt><trkpt lat="44.356975" lon="11.6753733"><ele>76.2</ele><time>2026-05-01T11:33:47.443Z</time></trkpt><trkpt lat="44.3570567" lon="11.675475"><ele>75.8</ele><time>2026-05-01T11:33:48.44Z</time></trkpt><trkpt lat="44.3571317" lon="11.6755833"><ele>75.4</ele><time>2026-05-01T11:33:49.444Z</time></trkpt><trkpt lat="44.3572" lon="11.6756933"><ele>75.0</ele><time>2026-05-01T11:33:50.441Z</time></trkpt><trkpt lat="44.3572633" lon="11.6758067"><ele>75.0</ele><time>2026-05-01T11:33:51.443Z</time></trkpt><trkpt lat="44.3573233" lon="11.67592"><ele>75.0</ele><time>2026-05-01T11:33:52.442Z</time></trkpt><trkpt lat="44.35739" lon="11.67603"><ele>75.0</ele><time>2026-05-01T11:33:53.442Z</time></trkpt><trkpt lat="44.3574583" lon="11.67614"><ele>75.0</ele><time>2026-05-01T11:33:54.443Z</time></trkpt><trkpt lat="44.3575283" lon="11.67624"><ele>75.0</ele><time>2026-05-01T11:33:55.442Z</time></trkpt><trkpt lat="44.3576067" lon="11.6763367"><ele>74.2</ele><time>2026-05-01T11:33:56.442Z</time></trkpt><trkpt lat="44.3576883" lon="11.67642"><ele>73.4</ele><time>2026-05-01T11:33:57.442Z</time></trkpt><trkpt lat="44.35777" lon="11.6765017"><ele>72.6</ele><time>2026-05-01T11:33:58.442Z</time></trkpt><trkpt lat="44.3578483" lon="11.6765833"><ele>71.8</ele><time>2026-05-01T11:33:59.442Z</time></trkpt><trkpt lat="44.35793" lon="11.6766683"><ele>71.0</ele><time>2026-05-01T11:34:00.443Z</time></trkpt><trkpt lat="44.35801" lon="11.6767483"><ele>71.39999999999999</ele><time>2026-05-01T11:34:01.443Z</time></trkpt><trkpt lat="44.3580883" lon="11.6768333"><ele>71.8</ele><time>2026-05-01T11:34:02.442Z</time></trkpt><trkpt lat="44.3581633" lon="11.6769167"><ele>72.19999999999999</ele><time>2026-05-01T11:34:03.442Z</time></trkpt><trkpt lat="44.3582383" lon="11.6770017"><ele>72.6</ele><time>2026-05-01T11:34:04.443Z</time></trkpt><trkpt lat="44.35831" lon="11.67708"><ele>73.0</ele><time>2026-05-01T11:34:05.442Z</time></trkpt><trkpt lat="44.3583817" lon="11.67716"><ele>72.16666666666666</ele><time>2026-05-01T11:34:06.442Z</time></trkpt><trkpt lat="44.3584533" lon="11.67724"><ele>71.33333333333333</ele><time>2026-05-01T11:34:07.443Z</time></trkpt><trkpt lat="44.3585217" lon="11.67732"><ele>70.5</ele><time>2026-05-01T11:34:08.443Z</time></trkpt><trkpt lat="44.3585933" lon="11.6773983"><ele>69.66666666666667</ele><time>2026-05-01T11:34:09.442Z</time></trkpt><trkpt lat="44.3586617" lon="11.677475"><ele>68.83333333333334</ele><time>2026-05-01T11:34:10.441Z</time></trkpt><trkpt lat="44.3587283" lon="11.6775483"><ele>68.0</ele><time>2026-05-01T11:34:11.441Z</time></trkpt><trkpt lat="44.3587917" lon="11.67762"><ele>68.0</ele><time>2026-05-01T11:34:12.442Z</time></trkpt><trkpt lat="44.3588533" lon="11.67769"><ele>68.0</ele><time>2026-05-01T11:34:13.442Z</time></trkpt><trkpt lat="44.358915" lon="11.6777583"><ele>68.0</ele><time>2026-05-01T11:34:14.442Z</time></trkpt><trkpt lat="44.3589733" lon="11.6778233"><ele>68.0</ele><time>2026-05-01T11:34:15.443Z</time></trkpt><trkpt lat="44.3590283" lon="11.6778933"><ele>68.0</ele><time>2026-05-01T11:34:16.443Z</time></trkpt><trkpt lat="44.3590817" lon="11.6779617"><ele>68.0</ele><time>2026-05-01T11:34:17.443Z</time></trkpt><trkpt lat="44.3591383" lon="11.6780267"><ele>68.14285714285714</ele><time>2026-05-01T11:34:18.441Z</time></trkpt><trkpt lat="44.3591967" lon="11.6780867"><ele>68.28571428571428</ele><time>2026-05-01T11:34:19.441Z</time></trkpt><trkpt lat="44.3592533" lon="11.6781483"><ele>68.42857142857143</ele><time>2026-05-01T11:34:20.44Z</time></trkpt><trkpt lat="44.3593083" lon="11.6782117"><ele>68.57142857142857</ele><time>2026-05-01T11:34:21.441Z</time></trkpt><trkpt lat="44.3593633" lon="11.6782717"><ele>68.71428571428572</ele><time>2026-05-01T11:34:22.443Z</time></trkpt><trkpt lat="44.359415" lon="11.67833"><ele>68.85714285714286</ele><time>2026-05-01T11:34:23.443Z</time></trkpt><trkpt lat="44.359465" lon="11.6783883"><ele>69.0</ele><time>2026-05-01T11:34:24.443Z</time></trkpt><trkpt lat="44.359515" lon="11.6784467"><ele>69.0</ele><time>2026-05-01T11:34:25.443Z</time></trkpt><trkpt lat="44.3595617" lon="11.6785133"><ele>69.0</ele><time>2026-05-01T11:34:26.442Z</time></trkpt><trkpt lat="44.3596067" lon="11.678575"><ele>69.0</ele><time>2026-05-01T11:34:27.444Z</time></trkpt><trkpt lat="44.35967" lon="11.678705"><ele>69.0</ele><time>2026-05-01T11:34:29.441Z</time></trkpt><trkpt lat="44.35974" lon="11.6788517"><ele>69.0</ele><time>2026-05-01T11:34:31.443Z</time></trkpt><trkpt lat="44.3597783" lon="11.678925"><ele>69.0</ele><time>2026-05-01T11:34:32.442Z</time></trkpt><trkpt lat="44.3598133" lon="11.679"><ele>69.0</ele><time>2026-05-01T11:34:33.442Z</time></trkpt><trkpt lat="44.3598433" lon="11.6790817"><ele>69.0</ele><time>2026-05-01T11:34:34.443Z</time></trkpt><trkpt lat="44.359875" lon="11.6791667"><ele>69.0</ele><time>2026-05-01T11:34:35.442Z</time></trkpt><trkpt lat="44.3599083" lon="11.6792533"><ele>69.0</ele><time>2026-05-01T11:34:36.444Z</time></trkpt><trkpt lat="44.3599383" lon="11.6793417"><ele>69.0</ele><time>2026-05-01T11:34:37.443Z</time></trkpt><trkpt lat="44.3599717" lon="11.6794317"><ele>69.0</ele><time>2026-05-01T11:34:38.443Z</time></trkpt><trkpt lat="44.3600017" lon="11.679525"><ele>69.0</ele><time>2026-05-01T11:34:39.442Z</time></trkpt><trkpt lat="44.3600283" lon="11.67962"><ele>68.5</ele><time>2026-05-01T11:34:40.443Z</time></trkpt><trkpt lat="44.36005" lon="11.6797167"><ele>68.0</ele><time>2026-05-01T11:34:41.441Z</time></trkpt><trkpt lat="44.360065" lon="11.67982"><ele>67.5</ele><time>2026-05-01T11:34:42.442Z</time></trkpt><trkpt lat="44.3600817" lon="11.6799233"><ele>67.0</ele><time>2026-05-01T11:34:43.443Z</time></trkpt><trkpt lat="44.3600933" lon="11.6800267"><ele>66.5</ele><time>2026-05-01T11:34:44.443Z</time></trkpt><trkpt lat="44.3601017" lon="11.6801317"><ele>66.0</ele><time>2026-05-01T11:34:45.442Z</time></trkpt><trkpt lat="44.36011" lon="11.6802383"><ele>65.85714285714286</ele><time>2026-05-01T11:34:46.44Z</time></trkpt><trkpt lat="44.3601233" lon="11.6803433"><ele>65.71428571428572</ele><time>2026-05-01T11:34:47.441Z</time></trkpt><trkpt lat="44.360135" lon="11.680445"><ele>65.57142857142858</ele><time>2026-05-01T11:34:48.44Z</time></trkpt><trkpt lat="44.3601517" lon="11.6805467"><ele>65.42857142857143</ele><time>2026-05-01T11:34:49.44Z</time></trkpt><trkpt lat="44.3601733" lon="11.680645"><ele>65.28571428571429</ele><time>2026-05-01T11:34:50.44Z</time></trkpt><trkpt lat="44.3602" lon="11.6807433"><ele>65.14285714285715</ele><time>2026-05-01T11:34:51.441Z</time></trkpt><trkpt lat="44.3602317" lon="11.6808383"><ele>65.0</ele><time>2026-05-01T11:34:52.44Z</time></trkpt><trkpt lat="44.3602583" lon="11.6809333"><ele>65.00000000000001</ele><time>2026-05-01T11:34:53.44Z</time></trkpt><trkpt lat="44.3602867" lon="11.6810267"><ele>65.0</ele><time>2026-05-01T11:34:54.44Z</time></trkpt><trkpt lat="44.3603133" lon="11.681125"><ele>65.0</ele><time>2026-05-01T11:34:55.443Z</time></trkpt><trkpt lat="44.3603367" lon="11.68122"><ele>65.0</ele><time>2026-05-01T11:34:56.441Z</time></trkpt><trkpt lat="44.360355" lon="11.6813183"><ele>65.0</ele><time>2026-05-01T11:34:57.441Z</time></trkpt><trkpt lat="44.3603717" lon="11.6814167"><ele>65.00000000000001</ele><time>2026-05-01T11:34:58.442Z</time></trkpt><trkpt lat="44.36038" lon="11.6815183"><ele>65.0</ele><time>2026-05-01T11:34:59.44Z</time></trkpt><trkpt lat="44.3603867" lon="11.6816183"><ele>64.71428571428572</ele><time>2026-05-01T11:35:00.44Z</time></trkpt><trkpt lat="44.36039" lon="11.6817183"><ele>64.42857142857143</ele><time>2026-05-01T11:35:01.442Z</time></trkpt><trkpt lat="44.3603917" lon="11.68182"><ele>64.14285714285714</ele><time>2026-05-01T11:35:02.44Z</time></trkpt><trkpt lat="44.3603933" lon="11.6819217"><ele>63.85714285714286</ele><time>2026-05-01T11:35:03.442Z</time></trkpt><trkpt lat="44.36039" lon="11.68202"><ele>63.57142857142857</ele><time>2026-05-01T11:35:04.44Z</time></trkpt><trkpt lat="44.3603833" lon="11.6821167"><ele>63.285714285714285</ele><time>2026-05-01T11:35:05.44Z</time></trkpt><trkpt lat="44.3603683" lon="11.6822167"><ele>63.0</ele><time>2026-05-01T11:35:06.442Z</time></trkpt><trkpt lat="44.3603517" lon="11.682315"><ele>63.0</ele><time>2026-05-01T11:35:07.443Z</time></trkpt><trkpt lat="44.3603317" lon="11.6824133"><ele>63.0</ele><time>2026-05-01T11:35:08.439Z</time></trkpt><trkpt lat="44.3603083" lon="11.68251"><ele>63.0</ele><time>2026-05-01T11:35:09.44Z</time></trkpt><trkpt lat="44.360285" lon="11.682605"><ele>63.0</ele><time>2026-05-01T11:35:10.44Z</time></trkpt><trkpt lat="44.36026" lon="11.6826983"><ele>63.0</ele><time>2026-05-01T11:35:11.441Z</time></trkpt><trkpt lat="44.3602367" lon="11.6827967"><ele>63.0</ele><time>2026-05-01T11:35:12.442Z</time></trkpt><trkpt lat="44.3602117" lon="11.6828933"><ele>63.0</ele><time>2026-05-01T11:35:13.442Z</time></trkpt><trkpt lat="44.360185" lon="11.6829917"><ele>63.0</ele><time>2026-05-01T11:35:14.442Z</time></trkpt><trkpt lat="44.3601567" lon="11.6830883"><ele>63.0</ele><time>2026-05-01T11:35:15.441Z</time></trkpt><trkpt lat="44.3601267" lon="11.68319"><ele>63.0</ele><time>2026-05-01T11:35:16.442Z</time></trkpt><trkpt lat="44.3600933" lon="11.6832933"><ele>63.0</ele><time>2026-05-01T11:35:17.442Z</time></trkpt><trkpt lat="44.3600617" lon="11.6834"><ele>63.0</ele><time>2026-05-01T11:35:18.439Z</time></trkpt><trkpt lat="44.3600317" lon="11.6835067"><ele>63.0</ele><time>2026-05-01T11:35:19.44Z</time></trkpt><trkpt lat="44.3600033" lon="11.6836133"><ele>63.0</ele><time>2026-05-01T11:35:20.44Z</time></trkpt><trkpt lat="44.3599783" lon="11.6837183"><ele>63.0</ele><time>2026-05-01T11:35:21.441Z</time></trkpt><trkpt lat="44.3599567" lon="11.6838233"><ele>63.0</ele><time>2026-05-01T11:35:22.439Z</time></trkpt><trkpt lat="44.3599367" lon="11.6839267"><ele>63.0</ele><time>2026-05-01T11:35:23.44Z</time></trkpt><trkpt lat="44.3599233" lon="11.6840233"><ele>63.0</ele><time>2026-05-01T11:35:24.44Z</time></trkpt><trkpt lat="44.359915" lon="11.68412"><ele>63.0</ele><time>2026-05-01T11:35:25.439Z</time></trkpt><trkpt lat="44.3599117" lon="11.6842183"><ele>63.0</ele><time>2026-05-01T11:35:26.441Z</time></trkpt><trkpt lat="44.3599133" lon="11.6843133"><ele>63.0</ele><time>2026-05-01T11:35:27.44Z</time></trkpt><trkpt lat="44.3599183" lon="11.6844083"><ele>63.0</ele><time>2026-05-01T11:35:28.441Z</time></trkpt><trkpt lat="44.3599217" lon="11.6845"><ele>63.0</ele><time>2026-05-01T11:35:29.441Z</time></trkpt><trkpt lat="44.3599267" lon="11.6845933"><ele>63.0</ele><time>2026-05-01T11:35:30.44Z</time></trkpt><trkpt lat="44.3599367" lon="11.6846833"><ele>63.0</ele><time>2026-05-01T11:35:31.44Z</time></trkpt><trkpt lat="44.3599467" lon="11.6847717"><ele>63.0</ele><time>2026-05-01T11:35:32.439Z</time></trkpt><trkpt lat="44.35996" lon="11.68486"><ele>63.0</ele><time>2026-05-01T11:35:33.441Z</time></trkpt><trkpt lat="44.35998" lon="11.6850283"><ele>62.8</ele><time>2026-05-01T11:35:35.441Z</time></trkpt><trkpt lat="44.3599967" lon="11.68519"><ele>62.599999999999994</ele><time>2026-05-01T11:35:37.439Z</time></trkpt><trkpt lat="44.3600117" lon="11.6853433"><ele>62.400000000000006</ele><time>2026-05-01T11:35:39.441Z</time></trkpt><trkpt lat="44.3600283" lon="11.6854867"><ele>62.2</ele><time>2026-05-01T11:35:41.44Z</time></trkpt><trkpt lat="44.3600533" lon="11.6856267"><ele>62.0</ele><time>2026-05-01T11:35:43.441Z</time></trkpt><trkpt lat="44.36008" lon="11.685775"><ele>62.0</ele><time>2026-05-01T11:35:45.44Z</time></trkpt><trkpt lat="44.3601017" lon="11.6859267"><ele>62.0</ele><time>2026-05-01T11:35:47.441Z</time></trkpt><trkpt lat="44.3601183" lon="11.686085"><ele>62.0</ele><time>2026-05-01T11:35:49.442Z</time></trkpt><trkpt lat="44.3601333" lon="11.686245"><ele>62.0</ele><time>2026-05-01T11:35:51.44Z</time></trkpt><trkpt lat="44.3601417" lon="11.6864067"><ele>62.0</ele><time>2026-05-01T11:35:53.44Z</time></trkpt><trkpt lat="44.3601467" lon="11.6865717"><ele>62.0</ele><time>2026-05-01T11:35:55.44Z</time></trkpt><trkpt lat="44.3601517" lon="11.6867417"><ele>62.0</ele><time>2026-05-01T11:35:57.442Z</time></trkpt><trkpt lat="44.360155" lon="11.686915"><ele>62.0</ele><time>2026-05-01T11:35:59.439Z</time></trkpt><trkpt lat="44.3601617" lon="11.6870033"><ele>62.0</ele><time>2026-05-01T11:36:00.44Z</time></trkpt><trkpt lat="44.3601667" lon="11.6871717"><ele>62.0</ele><time>2026-05-01T11:36:02.442Z</time></trkpt><trkpt lat="44.3601783" lon="11.6873383"><ele>62.0</ele><time>2026-05-01T11:36:04.441Z</time></trkpt><trkpt lat="44.3601833" lon="11.6875067"><ele>62.0</ele><time>2026-05-01T11:36:06.44Z</time></trkpt><trkpt lat="44.3601883" lon="11.6876783"><ele>62.0</ele><time>2026-05-01T11:36:08.441Z</time></trkpt><trkpt lat="44.3601917" lon="11.6877683"><ele>62.0</ele><time>2026-05-01T11:36:09.442Z</time></trkpt><trkpt lat="44.3602033" lon="11.6878583"><ele>61.2</ele><time>2026-05-01T11:36:10.439Z</time></trkpt><trkpt lat="44.3602117" lon="11.6879467"><ele>60.400000000000006</ele><time>2026-05-01T11:36:11.44Z</time></trkpt><trkpt lat="44.3602167" lon="11.6880367"><ele>59.599999999999994</ele><time>2026-05-01T11:36:12.44Z</time></trkpt><trkpt lat="44.3602233" lon="11.6882083"><ele>58.8</ele><time>2026-05-01T11:36:14.441Z</time></trkpt><trkpt lat="44.3602217" lon="11.68838"><ele>58.0</ele><time>2026-05-01T11:36:16.439Z</time></trkpt><trkpt lat="44.3602133" lon="11.6885533"><ele>57.49999999999999</ele><time>2026-05-01T11:36:18.439Z</time></trkpt><trkpt lat="44.3601983" lon="11.68873"><ele>57.0</ele><time>2026-05-01T11:36:20.44Z</time></trkpt><trkpt lat="44.3601867" lon="11.6888233"><ele>56.5</ele><time>2026-05-01T11:36:21.442Z</time></trkpt><trkpt lat="44.3601767" lon="11.68892"><ele>56.0</ele><time>2026-05-01T11:36:22.44Z</time></trkpt><trkpt lat="44.3601633" lon="11.689015"><ele>55.49999999999999</ele><time>2026-05-01T11:36:23.44Z</time></trkpt><trkpt lat="44.3601067" lon="11.689135"><ele>55.0</ele><time>2026-05-01T11:36:25.444Z</time></trkpt><trkpt lat="44.3600467" lon="11.6892083"><ele>54.99999999999999</ele><time>2026-05-01T11:36:27.44Z</time></trkpt><trkpt lat="44.3599767" lon="11.689235"><ele>55.0</ele><time>2026-05-01T11:36:29.441Z</time></trkpt><trkpt lat="44.3598933" lon="11.6892683"><ele>55.0</ele><time>2026-05-01T11:36:32.441Z</time></trkpt><trkpt lat="44.3599483" lon="11.6893383"><ele>55.0</ele><time>2026-05-01T11:36:35.441Z</time></trkpt><trkpt lat="44.3600167" lon="11.68935"><ele>55.0</ele><time>2026-05-01T11:36:37.44Z</time></trkpt><trkpt lat="44.3600867" lon="11.689355"><ele>54.99999999999999</ele><time>2026-05-01T11:36:39.439Z</time></trkpt><trkpt lat="44.3601533" lon="11.6893917"><ele>55.0</ele><time>2026-05-01T11:36:41.441Z</time></trkpt><trkpt lat="44.3601983" lon="11.6894833"><ele>55.0</ele><time>2026-05-01T11:36:43.441Z</time></trkpt><trkpt lat="44.3602033" lon="11.68961"><ele>55.0</ele><time>2026-05-01T11:36:45.44Z</time></trkpt><trkpt lat="44.3601933" lon="11.6897467"><ele>55.0</ele><time>2026-05-01T11:36:47.444Z</time></trkpt><trkpt lat="44.360165" lon="11.6898883"><ele>55.0</ele><time>2026-05-01T11:36:49.442Z</time></trkpt><trkpt lat="44.3601233" lon="11.6900317"><ele>55.0</ele><time>2026-05-01T11:36:51.439Z</time></trkpt><trkpt lat="44.3600667" lon="11.690165"><ele>55.0</ele><time>2026-05-01T11:36:53.44Z</time></trkpt><trkpt lat="44.3599817" lon="11.6902667"><ele>55.0</ele><time>2026-05-01T11:36:55.441Z</time></trkpt><trkpt lat="44.35988" lon="11.690295"><ele>55.0</ele><time>2026-05-01T11:36:57.442Z</time></trkpt><trkpt lat="44.3597833" lon="11.6902667"><ele>55.0</ele><time>2026-05-01T11:36:59.44Z</time></trkpt><trkpt lat="44.3597201" lon="11.6902126"><ele>55.0</ele><time>2026-05-01T11:37:01.443Z</time></trkpt><trkpt lat="44.3596807" lon="11.6901113"><ele>54.99999999999999</ele><time>2026-05-01T11:37:04.44Z</time></trkpt><trkpt lat="44.3596085" lon="11.690067"><ele>55.0</ele><time>2026-05-01T11:37:10.443Z</time></trkpt><trkpt lat="44.3595259" lon="11.6900821"><ele>55.0</ele><time>2026-05-01T11:37:13.44Z</time></trkpt><trkpt lat="44.3594805" lon="11.6901442"><ele>55.0</ele><time>2026-05-01T11:37:15.439Z</time></trkpt><trkpt lat="44.3594175" lon="11.6902331"><ele>54.99999999999999</ele><time>2026-05-01T11:37:18.441Z</time></trkpt><trkpt lat="44.3594307" lon="11.6903348"><ele>55.0</ele><time>2026-05-01T11:37:22.441Z</time></trkpt><trkpt lat="44.3594729" lon="11.6904085"><ele>55.166666666666664</ele><time>2026-05-01T11:37:25.442Z</time></trkpt><trkpt lat="44.3595396" lon="11.6904235"><ele>55.33333333333333</ele><time>2026-05-01T11:37:28.439Z</time></trkpt><trkpt lat="44.359618" lon="11.6904346"><ele>55.5</ele><time>2026-05-01T11:37:31.439Z</time></trkpt><trkpt lat="44.3596829" lon="11.6904669"><ele>55.66666666666667</ele><time>2026-05-01T11:37:33.441Z</time></trkpt><trkpt lat="44.3597522" lon="11.6905228"><ele>55.833333333333336</ele><time>2026-05-01T11:37:35.44Z</time></trkpt><trkpt lat="44.3598217" lon="11.6905842"><ele>56.0</ele><time>2026-05-01T11:37:37.44Z</time></trkpt><trkpt lat="44.3598869" lon="11.6906438"><ele>56.00000000000001</ele><time>2026-05-01T11:37:39.439Z</time></trkpt><trkpt lat="44.3599586" lon="11.6907048"><ele>56.0</ele><time>2026-05-01T11:37:41.439Z</time></trkpt><trkpt lat="44.3600323" lon="11.6907724"><ele>56.0</ele><time>2026-05-01T11:37:43.439Z</time></trkpt><trkpt lat="44.3600978" lon="11.6908462"><ele>56.0</ele><time>2026-05-01T11:37:45.439Z</time></trkpt><trkpt lat="44.3601668" lon="11.6909156"><ele>56.00000000000001</ele><time>2026-05-01T11:37:47.44Z</time></trkpt><trkpt lat="44.3602381" lon="11.6909811"><ele>56.0</ele><time>2026-05-01T11:37:49.44Z</time></trkpt><trkpt lat="44.3603173" lon="11.6910524"><ele>56.16666666666667</ele><time>2026-05-01T11:37:51.439Z</time></trkpt><trkpt lat="44.3603883" lon="11.6911289"><ele>56.333333333333336</ele><time>2026-05-01T11:37:53.439Z</time></trkpt><trkpt lat="44.3604484" lon="11.6912277"><ele>56.5</ele><time>2026-05-01T11:37:55.44Z</time></trkpt><trkpt lat="44.3605051" lon="11.6913125"><ele>56.66666666666667</ele><time>2026-05-01T11:37:57.442Z</time></trkpt><trkpt lat="44.3605676" lon="11.6913674"><ele>56.833333333333336</ele><time>2026-05-01T11:37:59.442Z</time></trkpt><trkpt lat="44.3606427" lon="11.6914069"><ele>57.0</ele><time>2026-05-01T11:38:01.442Z</time></trkpt><trkpt lat="44.3607383" lon="11.6914418"><ele>57.8</ele><time>2026-05-01T11:38:03.442Z</time></trkpt><trkpt lat="44.3608197" lon="11.6915054"><ele>58.6</ele><time>2026-05-01T11:38:05.441Z</time></trkpt><trkpt lat="44.3609114" lon="11.6915742"><ele>59.39999999999999</ele><time>2026-05-01T11:38:07.441Z</time></trkpt><trkpt lat="44.3609967" lon="11.6916505"><ele>60.199999999999996</ele><time>2026-05-01T11:38:09.442Z</time></trkpt><trkpt lat="44.361074" lon="11.6917254"><ele>61.0</ele><time>2026-05-01T11:38:11.441Z</time></trkpt><trkpt lat="44.3611621" lon="11.6918015"><ele>61.0</ele><time>2026-05-01T11:38:13.442Z</time></trkpt><trkpt lat="44.361244" lon="11.6918759"><ele>60.99999999999999</ele><time>2026-05-01T11:38:15.444Z</time></trkpt><trkpt lat="44.3613275" lon="11.6919568"><ele>60.99999999999999</ele><time>2026-05-01T11:38:17.443Z</time></trkpt><trkpt lat="44.3614259" lon="11.6920358"><ele>61.0</ele><time>2026-05-01T11:38:19.443Z</time></trkpt><trkpt lat="44.3615183" lon="11.6921116"><ele>61.0</ele><time>2026-05-01T11:38:21.442Z</time></trkpt><trkpt lat="44.3615941" lon="11.6921902"><ele>60.199999999999996</ele><time>2026-05-01T11:38:23.442Z</time></trkpt><trkpt lat="44.3616708" lon="11.6922662"><ele>59.39999999999999</ele><time>2026-05-01T11:38:25.441Z</time></trkpt><trkpt lat="44.3617543" lon="11.6923421"><ele>58.6</ele><time>2026-05-01T11:38:27.441Z</time></trkpt><trkpt lat="44.3618197" lon="11.6924331"><ele>57.8</ele><time>2026-05-01T11:38:29.441Z</time></trkpt><trkpt lat="44.3618249" lon="11.6925435"><ele>57.0</ele><time>2026-05-01T11:38:31.441Z</time></trkpt><trkpt lat="44.3617686" lon="11.6926777"><ele>57.0</ele><time>2026-05-01T11:38:33.442Z</time></trkpt><trkpt lat="44.361738" lon="11.6927557"><ele>57.0</ele><time>2026-05-01T11:38:34.443Z</time></trkpt><trkpt lat="44.3617099" lon="11.6928373"><ele>57.0</ele><time>2026-05-01T11:38:35.44Z</time></trkpt><trkpt lat="44.3616787" lon="11.692916"><ele>57.0</ele><time>2026-05-01T11:38:36.441Z</time></trkpt><trkpt lat="44.3616159" lon="11.6930648"><ele>57.0</ele><time>2026-05-01T11:38:38.44Z</time></trkpt><trkpt lat="44.361551" lon="11.6932146"><ele>57.0</ele><time>2026-05-01T11:38:40.441Z</time></trkpt><trkpt lat="44.3615178" lon="11.6932926"><ele>56.8</ele><time>2026-05-01T11:38:41.44Z</time></trkpt><trkpt lat="44.3614881" lon="11.6933715"><ele>56.6</ele><time>2026-05-01T11:38:42.44Z</time></trkpt><trkpt lat="44.361457" lon="11.6934499"><ele>56.39999999999999</ele><time>2026-05-01T11:38:43.44Z</time></trkpt><trkpt lat="44.3613979" lon="11.6935999"><ele>56.199999999999996</ele><time>2026-05-01T11:38:45.441Z</time></trkpt><trkpt lat="44.3613363" lon="11.693754"><ele>56.0</ele><time>2026-05-01T11:38:47.443Z</time></trkpt><trkpt lat="44.3612738" lon="11.693913"><ele>55.66666666666667</ele><time>2026-05-01T11:38:49.44Z</time></trkpt><trkpt lat="44.3612434" lon="11.6939981"><ele>55.333333333333336</ele><time>2026-05-01T11:38:50.441Z</time></trkpt><trkpt lat="44.3612129" lon="11.6940822"><ele>55.0</ele><time>2026-05-01T11:38:51.443Z</time></trkpt><trkpt lat="44.3611829" lon="11.6941636"><ele>54.66666666666667</ele><time>2026-05-01T11:38:52.442Z</time></trkpt><trkpt lat="44.3611542" lon="11.6942461"><ele>54.333333333333336</ele><time>2026-05-01T11:38:53.443Z</time></trkpt><trkpt lat="44.3610923" lon="11.6944001"><ele>54.0</ele><time>2026-05-01T11:38:55.442Z</time></trkpt><trkpt lat="44.3610616" lon="11.6944778"><ele>53.5</ele><time>2026-05-01T11:38:56.44Z</time></trkpt><trkpt lat="44.3610002" lon="11.6946352"><ele>53.0</ele><time>2026-05-01T11:38:58.442Z</time></trkpt><trkpt lat="44.36097" lon="11.6947168"><ele>52.5</ele><time>2026-05-01T11:38:59.441Z</time></trkpt><trkpt lat="44.3609399" lon="11.6947988"><ele>52.0</ele><time>2026-05-01T11:39:00.441Z</time></trkpt><trkpt lat="44.3609114" lon="11.6948823"><ele>51.5</ele><time>2026-05-01T11:39:01.443Z</time></trkpt><trkpt lat="44.3608804" lon="11.6949672"><ele>51.0</ele><time>2026-05-01T11:39:02.442Z</time></trkpt><trkpt lat="44.3608486" lon="11.6950471"><ele>51.0</ele><time>2026-05-01T11:39:03.441Z</time></trkpt><trkpt lat="44.3608154" lon="11.6951234"><ele>51.0</ele><time>2026-05-01T11:39:04.442Z</time></trkpt><trkpt lat="44.3607833" lon="11.6952026"><ele>51.0</ele><time>2026-05-01T11:39:05.441Z</time></trkpt><trkpt lat="44.3607515" lon="11.6952811"><ele>51.0</ele><time>2026-05-01T11:39:06.441Z</time></trkpt><trkpt lat="44.3607216" lon="11.6953622"><ele>51.0</ele><time>2026-05-01T11:39:07.443Z</time></trkpt><trkpt lat="44.3606617" lon="11.6955191"><ele>51.0</ele><time>2026-05-01T11:39:09.44Z</time></trkpt><trkpt lat="44.36063" lon="11.6955985"><ele>51.0</ele><time>2026-05-01T11:39:10.442Z</time></trkpt><trkpt lat="44.3605997" lon="11.6956793"><ele>51.0</ele><time>2026-05-01T11:39:11.441Z</time></trkpt><trkpt lat="44.3605684" lon="11.6957568"><ele>51.0</ele><time>2026-05-01T11:39:12.442Z</time></trkpt><trkpt lat="44.3605118" lon="11.695909"><ele>51.0</ele><time>2026-05-01T11:39:14.443Z</time></trkpt><trkpt lat="44.3604536" lon="11.6960635"><ele>51.0</ele><time>2026-05-01T11:39:16.444Z</time></trkpt><trkpt lat="44.3603938" lon="11.696206"><ele>51.199999999999996</ele><time>2026-05-01T11:39:18.442Z</time></trkpt><trkpt lat="44.3603452" lon="11.6963287"><ele>51.4</ele><time>2026-05-01T11:39:20.443Z</time></trkpt><trkpt lat="44.3603103" lon="11.696434"><ele>51.6</ele><time>2026-05-01T11:39:22.441Z</time></trkpt><trkpt lat="44.3602705" lon="11.6965348"><ele>51.8</ele><time>2026-05-01T11:39:24.442Z</time></trkpt><trkpt lat="44.3602253" lon="11.6966485"><ele>52.0</ele><time>2026-05-01T11:39:26.441Z</time></trkpt><trkpt lat="44.3601799" lon="11.6967609"><ele>52.0</ele><time>2026-05-01T11:39:28.442Z</time></trkpt><trkpt lat="44.3601303" lon="11.6968787"><ele>52.0</ele><time>2026-05-01T11:39:30.443Z</time></trkpt><trkpt lat="44.3600795" lon="11.6970059"><ele>52.0</ele><time>2026-05-01T11:39:32.441Z</time></trkpt><trkpt lat="44.3600305" lon="11.697132"><ele>52.0</ele><time>2026-05-01T11:39:34.441Z</time></trkpt><trkpt lat="44.3599736" lon="11.6972594"><ele>52.0</ele><time>2026-05-01T11:39:36.442Z</time></trkpt><trkpt lat="44.3599205" lon="11.6973872"><ele>51.8</ele><time>2026-05-01T11:39:38.443Z</time></trkpt><trkpt lat="44.3598643" lon="11.6975184"><ele>51.6</ele><time>2026-05-01T11:39:40.441Z</time></trkpt><trkpt lat="44.3598135" lon="11.6976477"><ele>51.4</ele><time>2026-05-01T11:39:42.442Z</time></trkpt><trkpt lat="44.3597619" lon="11.6977762"><ele>51.199999999999996</ele><time>2026-05-01T11:39:44.441Z</time></trkpt><trkpt lat="44.3597108" lon="11.6979069"><ele>51.0</ele><time>2026-05-01T11:39:46.443Z</time></trkpt><trkpt lat="44.359658" lon="11.698041"><ele>51.4</ele><time>2026-05-01T11:39:48.443Z</time></trkpt><trkpt lat="44.3596061" lon="11.6981779"><ele>51.8</ele><time>2026-05-01T11:39:50.44Z</time></trkpt><trkpt lat="44.3595541" lon="11.698317"><ele>52.199999999999996</ele><time>2026-05-01T11:39:52.441Z</time></trkpt><trkpt lat="44.3595077" lon="11.6984572"><ele>52.599999999999994</ele><time>2026-05-01T11:39:54.443Z</time></trkpt><trkpt lat="44.3594646" lon="11.6985901"><ele>53.0</ele><time>2026-05-01T11:39:56.442Z</time></trkpt><trkpt lat="44.3594169" lon="11.6987145"><ele>53.0</ele><time>2026-05-01T11:39:58.442Z</time></trkpt><trkpt lat="44.3593788" lon="11.6988311"><ele>53.0</ele><time>2026-05-01T11:40:00.442Z</time></trkpt><trkpt lat="44.3593304" lon="11.6989397"><ele>53.0</ele><time>2026-05-01T11:40:02.441Z</time></trkpt><trkpt lat="44.3592759" lon="11.6990635"><ele>53.0</ele><time>2026-05-01T11:40:04.439Z</time></trkpt><trkpt lat="44.3592267" lon="11.6991912"><ele>53.0</ele><time>2026-05-01T11:40:06.44Z</time></trkpt><trkpt lat="44.3591828" lon="11.6993236"><ele>53.0</ele><time>2026-05-01T11:40:08.441Z</time></trkpt><trkpt lat="44.3591322" lon="11.6994537"><ele>53.0</ele><time>2026-05-01T11:40:10.441Z</time></trkpt><trkpt lat="44.3590773" lon="11.6995898"><ele>53.0</ele><time>2026-05-01T11:40:12.439Z</time></trkpt><trkpt lat="44.3590242" lon="11.699718"><ele>53.0</ele><time>2026-05-01T11:40:14.439Z</time></trkpt><trkpt lat="44.3589689" lon="11.6998435"><ele>53.0</ele><time>2026-05-01T11:40:16.439Z</time></trkpt><trkpt lat="44.3589165" lon="11.6999746"><ele>53.0</ele><time>2026-05-01T11:40:18.443Z</time></trkpt><trkpt lat="44.3588698" lon="11.7001058"><ele>53.0</ele><time>2026-05-01T11:40:20.443Z</time></trkpt><trkpt lat="44.3588199" lon="11.7002331"><ele>53.0</ele><time>2026-05-01T11:40:22.441Z</time></trkpt><trkpt lat="44.3587655" lon="11.7003668"><ele>53.0</ele><time>2026-05-01T11:40:24.443Z</time></trkpt><trkpt lat="44.3587089" lon="11.7005084"><ele>53.0</ele><time>2026-05-01T11:40:26.443Z</time></trkpt><trkpt lat="44.3586541" lon="11.700663"><ele>53.25</ele><time>2026-05-01T11:40:28.447Z</time></trkpt><trkpt lat="44.3585955" lon="11.700809"><ele>53.5</ele><time>2026-05-01T11:40:30.442Z</time></trkpt><trkpt lat="44.3585424" lon="11.700945"><ele>53.75</ele><time>2026-05-01T11:40:32.442Z</time></trkpt><trkpt lat="44.3584872" lon="11.7010877"><ele>54.0</ele><time>2026-05-01T11:40:34.441Z</time></trkpt><trkpt lat="44.35843" lon="11.7012376"><ele>53.5</ele><time>2026-05-01T11:40:36.441Z</time></trkpt><trkpt lat="44.3583671" lon="11.7013847"><ele>53.0</ele><time>2026-05-01T11:40:38.441Z</time></trkpt><trkpt lat="44.358312" lon="11.7015281"><ele>52.5</ele><time>2026-05-01T11:40:40.443Z</time></trkpt><trkpt lat="44.3582644" lon="11.7016794"><ele>52.0</ele><time>2026-05-01T11:40:42.441Z</time></trkpt><trkpt lat="44.3582084" lon="11.7018244"><ele>51.8</ele><time>2026-05-01T11:40:44.443Z</time></trkpt><trkpt lat="44.3581466" lon="11.7019624"><ele>51.6</ele><time>2026-05-01T11:40:46.442Z</time></trkpt><trkpt lat="44.3580945" lon="11.7021029"><ele>51.4</ele><time>2026-05-01T11:40:48.439Z</time></trkpt><trkpt lat="44.3580425" lon="11.7022408"><ele>51.199999999999996</ele><time>2026-05-01T11:40:50.441Z</time></trkpt><trkpt lat="44.3579851" lon="11.7023675"><ele>51.0</ele><time>2026-05-01T11:40:52.441Z</time></trkpt><trkpt lat="44.3579358" lon="11.7024975"><ele>51.0</ele><time>2026-05-01T11:40:54.443Z</time></trkpt><trkpt lat="44.3578827" lon="11.702632"><ele>51.0</ele><time>2026-05-01T11:40:56.442Z</time></trkpt><trkpt lat="44.3578387" lon="11.7027533"><ele>51.0</ele><time>2026-05-01T11:40:58.443Z</time></trkpt><trkpt lat="44.3577957" lon="11.7028653"><ele>51.0</ele><time>2026-05-01T11:41:00.443Z</time></trkpt><trkpt lat="44.3577495" lon="11.7029736"><ele>51.0</ele><time>2026-05-01T11:41:02.443Z</time></trkpt><trkpt lat="44.3577017" lon="11.70309"><ele>50.599999999999994</ele><time>2026-05-01T11:41:04.445Z</time></trkpt><trkpt lat="44.3576506" lon="11.7032199"><ele>50.2</ele><time>2026-05-01T11:41:06.442Z</time></trkpt><trkpt lat="44.3575982" lon="11.7033521"><ele>49.8</ele><time>2026-05-01T11:41:08.442Z</time></trkpt><trkpt lat="44.3575495" lon="11.7034739"><ele>49.400000000000006</ele><time>2026-05-01T11:41:10.441Z</time></trkpt><trkpt lat="44.3574989" lon="11.7035943"><ele>49.0</ele><time>2026-05-01T11:41:12.442Z</time></trkpt><trkpt lat="44.3574464" lon="11.7037228"><ele>49.6</ele><time>2026-05-01T11:41:14.442Z</time></trkpt><trkpt lat="44.3573988" lon="11.7038487"><ele>50.2</ele><time>2026-05-01T11:41:16.441Z</time></trkpt><trkpt lat="44.3573427" lon="11.7039851"><ele>50.800000000000004</ele><time>2026-05-01T11:41:18.442Z</time></trkpt><trkpt lat="44.3572965" lon="11.7041178"><ele>51.400000000000006</ele><time>2026-05-01T11:41:20.441Z</time></trkpt><trkpt lat="44.3572446" lon="11.7042572"><ele>52.0</ele><time>2026-05-01T11:41:22.442Z</time></trkpt><trkpt lat="44.3571962" lon="11.7043885"><ele>51.6</ele><time>2026-05-01T11:41:24.441Z</time></trkpt><trkpt lat="44.3571512" lon="11.7045027"><ele>51.2</ele><time>2026-05-01T11:41:26.443Z</time></trkpt><trkpt lat="44.3571111" lon="11.704624"><ele>50.8</ele><time>2026-05-01T11:41:28.443Z</time></trkpt><trkpt lat="44.3570725" lon="11.704759"><ele>50.4</ele><time>2026-05-01T11:41:30.442Z</time></trkpt><trkpt lat="44.3570223" lon="11.7048821"><ele>50.0</ele><time>2026-05-01T11:41:32.442Z</time></trkpt><trkpt lat="44.3569788" lon="11.7049505"><ele>50.00000000000001</ele><time>2026-05-01T11:41:34.439Z</time></trkpt><trkpt lat="44.3569352" lon="11.7050256"><ele>50.0</ele><time>2026-05-01T11:42:18.442Z</time></trkpt><trkpt lat="44.3568992" lon="11.7051014"><ele>50.0</ele><time>2026-05-01T11:42:20.44Z</time></trkpt><trkpt lat="44.3568524" lon="11.7052174"><ele>50.0</ele><time>2026-05-01T11:42:23.439Z</time></trkpt><trkpt lat="44.3568157" lon="11.7053094"><ele>50.00000000000001</ele><time>2026-05-01T11:42:25.44Z</time></trkpt><trkpt lat="44.3567683" lon="11.7054164"><ele>50.0</ele><time>2026-05-01T11:42:27.439Z</time></trkpt><trkpt lat="44.3567257" lon="11.705525"><ele>50.2</ele><time>2026-05-01T11:42:29.44Z</time></trkpt><trkpt lat="44.3566854" lon="11.7056351"><ele>50.4</ele><time>2026-05-01T11:42:31.44Z</time></trkpt><trkpt lat="44.3566564" lon="11.7057638"><ele>50.599999999999994</ele><time>2026-05-01T11:42:33.439Z</time></trkpt><trkpt lat="44.3566107" lon="11.7058933"><ele>50.8</ele><time>2026-05-01T11:42:35.439Z</time></trkpt><trkpt lat="44.3565599" lon="11.7060369"><ele>51.0</ele><time>2026-05-01T11:42:37.44Z</time></trkpt><trkpt lat="44.356508" lon="11.7061689"><ele>51.0</ele><time>2026-05-01T11:42:39.439Z</time></trkpt><trkpt lat="44.3564596" lon="11.706299"><ele>51.0</ele><time>2026-05-01T11:42:41.44Z</time></trkpt><trkpt lat="44.3564031" lon="11.7064307"><ele>51.0</ele><time>2026-05-01T11:42:43.44Z</time></trkpt><trkpt lat="44.3563493" lon="11.7065591"><ele>51.0</ele><time>2026-05-01T11:42:45.44Z</time></trkpt><trkpt lat="44.356315" lon="11.7066815"><ele>51.0</ele><time>2026-05-01T11:42:47.442Z</time></trkpt><trkpt lat="44.3562596" lon="11.7067856"><ele>51.4</ele><time>2026-05-01T11:42:49.442Z</time></trkpt><trkpt lat="44.3562109" lon="11.7068998"><ele>51.8</ele><time>2026-05-01T11:42:51.44Z</time></trkpt><trkpt lat="44.3561499" lon="11.707019"><ele>52.199999999999996</ele><time>2026-05-01T11:42:53.44Z</time></trkpt><trkpt lat="44.3560843" lon="11.7071429"><ele>52.599999999999994</ele><time>2026-05-01T11:42:55.44Z</time></trkpt><trkpt lat="44.3560231" lon="11.7072701"><ele>53.0</ele><time>2026-05-01T11:42:57.44Z</time></trkpt><trkpt lat="44.3559537" lon="11.7073811"><ele>53.00000000000001</ele><time>2026-05-01T11:42:59.44Z</time></trkpt><trkpt lat="44.3558869" lon="11.707487"><ele>53.0</ele><time>2026-05-01T11:43:01.441Z</time></trkpt><trkpt lat="44.3558495" lon="11.7075662"><ele>53.0</ele><time>2026-05-01T11:43:03.44Z</time></trkpt><trkpt lat="44.3557778" lon="11.7075991"><ele>53.0</ele><time>2026-05-01T11:43:06.439Z</time></trkpt><trkpt lat="44.355718" lon="11.7075403"><ele>53.00000000000001</ele><time>2026-05-01T11:43:08.439Z</time></trkpt><trkpt lat="44.355639" lon="11.7074921"><ele>53.0</ele><time>2026-05-01T11:43:10.44Z</time></trkpt><trkpt lat="44.3555644" lon="11.7074579"><ele>52.833333333333336</ele><time>2026-05-01T11:43:12.443Z</time></trkpt><trkpt lat="44.3554929" lon="11.7073833"><ele>52.66666666666667</ele><time>2026-05-01T11:43:14.439Z</time></trkpt><trkpt lat="44.3554297" lon="11.7073176"><ele>52.5</ele><time>2026-05-01T11:43:16.44Z</time></trkpt><trkpt lat="44.3553483" lon="11.7072459"><ele>52.33333333333333</ele><time>2026-05-01T11:43:18.442Z</time></trkpt><trkpt lat="44.3552671" lon="11.7071725"><ele>52.166666666666664</ele><time>2026-05-01T11:43:20.441Z</time></trkpt><trkpt lat="44.3551919" lon="11.7071103"><ele>52.0</ele><time>2026-05-01T11:43:22.443Z</time></trkpt><trkpt lat="44.355125" lon="11.7070587"><ele>51.99999999999999</ele><time>2026-05-01T11:43:24.442Z</time></trkpt><trkpt lat="44.3550604" lon="11.7070168"><ele>52.0</ele><time>2026-05-01T11:43:26.44Z</time></trkpt><trkpt lat="44.3549848" lon="11.7069796"><ele>52.0</ele><time>2026-05-01T11:43:29.439Z</time></trkpt><trkpt lat="44.3549203" lon="11.7069485"><ele>52.0</ele><time>2026-05-01T11:43:31.44Z</time></trkpt><trkpt lat="44.3548488" lon="11.7069099"><ele>51.99999999999999</ele><time>2026-05-01T11:43:35.44Z</time></trkpt><trkpt lat="44.3547656" lon="11.7069832"><ele>52.0</ele><time>2026-05-01T11:43:38.44Z</time></trkpt><trkpt lat="44.3546866" lon="11.7070903"><ele>51.8</ele><time>2026-05-01T11:43:40.443Z</time></trkpt><trkpt lat="44.3546279" lon="11.7072087"><ele>51.6</ele><time>2026-05-01T11:43:42.442Z</time></trkpt><trkpt lat="44.3545795" lon="11.7073314"><ele>51.4</ele><time>2026-05-01T11:43:44.44Z</time></trkpt><trkpt lat="44.3545307" lon="11.7074453"><ele>51.199999999999996</ele><time>2026-05-01T11:43:46.443Z</time></trkpt><trkpt lat="44.354482" lon="11.707559"><ele>51.0</ele><time>2026-05-01T11:43:48.443Z</time></trkpt><trkpt lat="44.3544343" lon="11.7076758"><ele>51.0</ele><time>2026-05-01T11:43:50.44Z</time></trkpt><trkpt lat="44.3543839" lon="11.7077901"><ele>51.0</ele><time>2026-05-01T11:43:52.44Z</time></trkpt><trkpt lat="44.3543346" lon="11.7079027"><ele>51.0</ele><time>2026-05-01T11:43:54.439Z</time></trkpt><trkpt lat="44.3542901" lon="11.7079768"><ele>51.0</ele><time>2026-05-01T11:43:56.44Z</time></trkpt><trkpt lat="44.3542521" lon="11.7080817"><ele>51.0</ele><time>2026-05-01T11:43:59.44Z</time></trkpt><trkpt lat="44.3542177" lon="11.7081959"><ele>51.0</ele><time>2026-05-01T11:44:01.441Z</time></trkpt><trkpt lat="44.3541724" lon="11.7083023"><ele>51.0</ele><time>2026-05-01T11:44:03.44Z</time></trkpt><trkpt lat="44.3541235" lon="11.7083992"><ele>51.0</ele><time>2026-05-01T11:44:05.44Z</time></trkpt><trkpt lat="44.3540726" lon="11.7085268"><ele>51.0</ele><time>2026-05-01T11:44:07.44Z</time></trkpt><trkpt lat="44.3540138" lon="11.7086639"><ele>51.0</ele><time>2026-05-01T11:44:09.441Z</time></trkpt><trkpt lat="44.3539557" lon="11.7088114"><ele>51.0</ele><time>2026-05-01T11:44:11.44Z</time></trkpt><trkpt lat="44.3538994" lon="11.7089507"><ele>51.4</ele><time>2026-05-01T11:44:13.441Z</time></trkpt><trkpt lat="44.3538508" lon="11.7090898"><ele>51.8</ele><time>2026-05-01T11:44:15.441Z</time></trkpt><trkpt lat="44.3538039" lon="11.7092194"><ele>52.199999999999996</ele><time>2026-05-01T11:44:17.442Z</time></trkpt><trkpt lat="44.353756" lon="11.7093467"><ele>52.599999999999994</ele><time>2026-05-01T11:44:19.441Z</time></trkpt><trkpt lat="44.3537105" lon="11.7094758"><ele>53.0</ele><time>2026-05-01T11:44:21.439Z</time></trkpt><trkpt lat="44.353669" lon="11.7096177"><ele>53.0</ele><time>2026-05-01T11:44:23.44Z</time></trkpt><trkpt lat="44.353625" lon="11.7097593"><ele>53.0</ele><time>2026-05-01T11:44:25.44Z</time></trkpt><trkpt lat="44.3535791" lon="11.7098841"><ele>53.0</ele><time>2026-05-01T11:44:27.44Z</time></trkpt><trkpt lat="44.3535362" lon="11.7099993"><ele>53.0</ele><time>2026-05-01T11:44:29.439Z</time></trkpt><trkpt lat="44.3534936" lon="11.710107"><ele>53.0</ele><time>2026-05-01T11:44:31.44Z</time></trkpt><trkpt lat="44.3534511" lon="11.7101992"><ele>53.00000000000001</ele><time>2026-05-01T11:44:33.441Z</time></trkpt><trkpt lat="44.3534342" lon="11.7102986"><ele>53.0</ele><time>2026-05-01T11:44:35.439Z</time></trkpt><trkpt lat="44.3535011" lon="11.7103674"><ele>53.0</ele><time>2026-05-01T11:44:37.44Z</time></trkpt><trkpt lat="44.353565" lon="11.7103947"><ele>53.0</ele><time>2026-05-01T11:44:38.44Z</time></trkpt><trkpt lat="44.3536643" lon="11.7104483"><ele>53.00000000000001</ele><time>2026-05-01T11:44:40.44Z</time></trkpt><trkpt lat="44.353738" lon="11.7105076"><ele>53.0</ele><time>2026-05-01T11:44:42.441Z</time></trkpt><trkpt lat="44.3538182" lon="11.7105707"><ele>52.8</ele><time>2026-05-01T11:44:44.44Z</time></trkpt><trkpt lat="44.3538981" lon="11.710641"><ele>52.599999999999994</ele><time>2026-05-01T11:44:46.441Z</time></trkpt><trkpt lat="44.3539853" lon="11.7107122"><ele>52.400000000000006</ele><time>2026-05-01T11:44:48.441Z</time></trkpt><trkpt lat="44.3540753" lon="11.71079"><ele>52.2</ele><time>2026-05-01T11:44:50.443Z</time></trkpt><trkpt lat="44.3541674" lon="11.7108759"><ele>52.0</ele><time>2026-05-01T11:44:52.441Z</time></trkpt><trkpt lat="44.3542535" lon="11.7109286"><ele>51.99999999999999</ele><time>2026-05-01T11:44:54.439Z</time></trkpt><trkpt lat="44.3543347" lon="11.7109776"><ele>52.0</ele><time>2026-05-01T11:44:56.44Z</time></trkpt><trkpt lat="44.354405" lon="11.7110249"><ele>52.0</ele><time>2026-05-01T11:44:58.44Z</time></trkpt><trkpt lat="44.3544818" lon="11.7110621"><ele>52.0</ele><time>2026-05-01T11:45:00.439Z</time></trkpt><trkpt lat="44.3545427" lon="11.7111159"><ele>51.99999999999999</ele><time>2026-05-01T11:45:02.442Z</time></trkpt><trkpt lat="44.3545978" lon="11.7111652"><ele>52.0</ele><time>2026-05-01T11:45:05.439Z</time></trkpt><trkpt lat="44.3546208" lon="11.7112517"><ele>51.83333333333333</ele><time>2026-05-01T11:45:09.44Z</time></trkpt><trkpt lat="44.354593" lon="11.7113439"><ele>51.666666666666664</ele><time>2026-05-01T11:45:11.441Z</time></trkpt><trkpt lat="44.3545456" lon="11.7114398"><ele>51.5</ele><time>2026-05-01T11:45:13.44Z</time></trkpt><trkpt lat="44.3544994" lon="11.711541"><ele>51.33333333333333</ele><time>2026-05-01T11:45:15.44Z</time></trkpt><trkpt lat="44.3544551" lon="11.7116531"><ele>51.166666666666664</ele><time>2026-05-01T11:45:17.441Z</time></trkpt><trkpt lat="44.3544014" lon="11.7117594"><ele>51.0</ele><time>2026-05-01T11:45:19.441Z</time></trkpt><trkpt lat="44.3543608" lon="11.7118783"><ele>51.4</ele><time>2026-05-01T11:45:21.44Z</time></trkpt><trkpt lat="44.354321" lon="11.7119971"><ele>51.8</ele><time>2026-05-01T11:45:23.443Z</time></trkpt><trkpt lat="44.3542858" lon="11.7121164"><ele>52.199999999999996</ele><time>2026-05-01T11:45:25.441Z</time></trkpt><trkpt lat="44.3542384" lon="11.7122212"><ele>52.599999999999994</ele><time>2026-05-01T11:45:27.44Z</time></trkpt><trkpt lat="44.3541695" lon="11.7123246"><ele>53.0</ele><time>2026-05-01T11:45:29.44Z</time></trkpt><trkpt lat="44.3541038" lon="11.7124267"><ele>53.0</ele><time>2026-05-01T11:45:31.439Z</time></trkpt><trkpt lat="44.3540397" lon="11.7125301"><ele>53.0</ele><time>2026-05-01T11:45:33.441Z</time></trkpt><trkpt lat="44.3539932" lon="11.7126433"><ele>53.0</ele><time>2026-05-01T11:45:35.44Z</time></trkpt><trkpt lat="44.3539415" lon="11.7127606"><ele>53.0</ele><time>2026-05-01T11:45:37.44Z</time></trkpt><trkpt lat="44.3538845" lon="11.712864"><ele>53.0</ele><time>2026-05-01T11:45:39.44Z</time></trkpt><trkpt lat="44.353823" lon="11.7129718"><ele>53.4</ele><time>2026-05-01T11:45:41.44Z</time></trkpt><trkpt lat="44.3537563" lon="11.7130816"><ele>53.8</ele><time>2026-05-01T11:45:43.441Z</time></trkpt><trkpt lat="44.3536965" lon="11.7131865"><ele>54.2</ele><time>2026-05-01T11:45:45.44Z</time></trkpt><trkpt lat="44.3536611" lon="11.7132985"><ele>54.6</ele><time>2026-05-01T11:45:47.44Z</time></trkpt><trkpt lat="44.353617" lon="11.7134078"><ele>55.0</ele><time>2026-05-01T11:45:49.44Z</time></trkpt><trkpt lat="44.3535626" lon="11.7135248"><ele>55.0</ele><time>2026-05-01T11:45:51.439Z</time></trkpt><trkpt lat="44.3535083" lon="11.7136507"><ele>55.0</ele><time>2026-05-01T11:45:53.441Z</time></trkpt><trkpt lat="44.3534571" lon="11.7137721"><ele>55.0</ele><time>2026-05-01T11:45:55.44Z</time></trkpt><trkpt lat="44.3534451" lon="11.7139172"><ele>55.0</ele><time>2026-05-01T11:45:57.441Z</time></trkpt><trkpt lat="44.3534224" lon="11.7140553"><ele>55.0</ele><time>2026-05-01T11:45:59.439Z</time></trkpt><trkpt lat="44.3533813" lon="11.7141579"><ele>55.0</ele><time>2026-05-01T11:46:01.441Z</time></trkpt><trkpt lat="44.3533043" lon="11.7142391"><ele>55.0</ele><time>2026-05-01T11:46:03.439Z</time></trkpt><trkpt lat="44.353213" lon="11.7143582"><ele>55.0</ele><time>2026-05-01T11:46:05.44Z</time></trkpt><trkpt lat="44.3531617" lon="11.7144691"><ele>55.0</ele><time>2026-05-01T11:46:07.441Z</time></trkpt><trkpt lat="44.3531571" lon="11.7145883"><ele>55.0</ele><time>2026-05-01T11:46:09.44Z</time></trkpt><trkpt lat="44.3531365" lon="11.7146785"><ele>54.857142857142854</ele><time>2026-05-01T11:46:11.441Z</time></trkpt><trkpt lat="44.3531115" lon="11.7147932"><ele>54.714285714285715</ele><time>2026-05-01T11:46:14.441Z</time></trkpt><trkpt lat="44.3530754" lon="11.7148717"><ele>54.57142857142857</ele><time>2026-05-01T11:46:16.441Z</time></trkpt><trkpt lat="44.3530588" lon="11.7149665"><ele>54.42857142857143</ele><time>2026-05-01T11:46:18.441Z</time></trkpt><trkpt lat="44.3530668" lon="11.7150715"><ele>54.285714285714285</ele><time>2026-05-01T11:46:20.441Z</time></trkpt><trkpt lat="44.3530776" lon="11.7151696"><ele>54.14285714285714</ele><time>2026-05-01T11:46:22.441Z</time></trkpt><trkpt lat="44.3530627" lon="11.7152575"><ele>54.0</ele><time>2026-05-01T11:46:24.442Z</time></trkpt><trkpt lat="44.3530353" lon="11.7153459"><ele>54.0</ele><time>2026-05-01T11:46:26.442Z</time></trkpt><trkpt lat="44.3529943" lon="11.715442"><ele>54.0</ele><time>2026-05-01T11:46:29.441Z</time></trkpt><trkpt lat="44.3529727" lon="11.7153388"><ele>54.0</ele><time>2026-05-01T11:46:39.443Z</time></trkpt><trkpt lat="44.3530377" lon="11.7152694"><ele>54.0</ele><time>2026-05-01T11:46:41.443Z</time></trkpt><trkpt lat="44.3530587" lon="11.7151748"><ele>54.0</ele><time>2026-05-01T11:46:44.441Z</time></trkpt><trkpt lat="44.3530887" lon="11.715065"><ele>54.0</ele><time>2026-05-01T11:46:47.442Z</time></trkpt><trkpt lat="44.3531749" lon="11.7150735"><ele>54.0</ele><time>2026-05-01T11:47:47.442Z</time></trkpt><trkpt lat="44.3532025" lon="11.7151724"><ele>54.0</ele><time>2026-05-01T11:47:56.443Z</time></trkpt><trkpt lat="44.3532469" lon="11.715251"><ele>54.0</ele><time>2026-05-01T11:47:59.441Z</time></trkpt><trkpt lat="44.3533132" lon="11.7153033"><ele>54.0</ele><time>2026-05-01T11:48:02.442Z</time></trkpt><trkpt lat="44.3533981" lon="11.7153605"><ele>54.0</ele><time>2026-05-01T11:48:05.441Z</time></trkpt><trkpt lat="44.353455" lon="11.7153988"><ele>54.0</ele><time>2026-05-01T11:48:07.443Z</time></trkpt><trkpt lat="44.3535109" lon="11.7154426"><ele>54.0</ele><time>2026-05-01T11:48:09.443Z</time></trkpt><trkpt lat="44.3535733" lon="11.7154825"><ele>53.714285714285715</ele><time>2026-05-01T11:48:11.443Z</time></trkpt><trkpt lat="44.3536463" lon="11.7155383"><ele>53.42857142857143</ele><time>2026-05-01T11:48:13.442Z</time></trkpt><trkpt lat="44.3537096" lon="11.7155811"><ele>53.14285714285714</ele><time>2026-05-01T11:48:15.442Z</time></trkpt><trkpt lat="44.3537712" lon="11.7156225"><ele>52.85714285714286</ele><time>2026-05-01T11:48:19.443Z</time></trkpt><trkpt lat="44.3538377" lon="11.715689"><ele>52.57142857142858</ele><time>2026-05-01T11:48:22.442Z</time></trkpt><trkpt lat="44.3539123" lon="11.7157116"><ele>52.285714285714285</ele><time>2026-05-01T11:48:24.443Z</time></trkpt><trkpt lat="44.353977" lon="11.7156947"><ele>52.0</ele><time>2026-05-01T11:48:26.442Z</time></trkpt><trkpt lat="44.3540366" lon="11.7157232"><ele>52.0</ele><time>2026-05-01T11:48:29.443Z</time></trkpt><trkpt lat="44.3542105" lon="11.7157326"><ele>52.0</ele><time>2026-05-01T11:48:41.93Z</time></trkpt><trkpt lat="44.3531993" lon="11.7150497"><ele>52.0</ele><time>2026-05-01T11:48:54.142Z</time></trkpt><trkpt lat="44.354503" lon="11.7155373"><ele>52.0</ele><time>2026-05-01T11:50:34.443Z</time></trkpt><trkpt lat="44.3544383" lon="11.7154884"><ele>52.0</ele><time>2026-05-01T11:50:40.441Z</time></trkpt><trkpt lat="44.3543748" lon="11.7155225"><ele>52.0</ele><time>2026-05-01T11:50:42.441Z</time></trkpt><trkpt lat="44.3542841" lon="11.7156786"><ele>52.0</ele><time>2026-05-01T11:50:46.441Z</time></trkpt><trkpt lat="44.3541493" lon="11.7156813"><ele>52.0</ele><time>2026-05-01T11:59:30.441Z</time></trkpt><trkpt lat="44.3540883" lon="11.7157258"><ele>52.0</ele><time>2026-05-01T11:59:32.442Z</time></trkpt><trkpt lat="44.3540357" lon="11.7157861"><ele>52.0</ele><time>2026-05-01T11:59:34.442Z</time></trkpt><trkpt lat="44.353967" lon="11.7158514"><ele>52.0</ele><time>2026-05-01T11:59:36.441Z</time></trkpt><trkpt lat="44.3537435" lon="11.7155658"><ele>51.8</ele><time>2026-05-01T11:59:37.442Z</time></trkpt><trkpt lat="44.3536604" lon="11.715547"><ele>51.6</ele><time>2026-05-01T11:59:38.442Z</time></trkpt><trkpt lat="44.3535162" lon="11.7155862"><ele>51.4</ele><time>2026-05-01T11:59:39.441Z</time></trkpt><trkpt lat="44.353413" lon="11.7156183"><ele>51.199999999999996</ele><time>2026-05-01T11:59:41.441Z</time></trkpt><trkpt lat="44.3533356" lon="11.7156662"><ele>51.0</ele><time>2026-05-01T11:59:43.443Z</time></trkpt><trkpt lat="44.3532722" lon="11.7156684"><ele>51.0</ele><time>2026-05-01T11:59:44.442Z</time></trkpt><trkpt lat="44.3531853" lon="11.715705"><ele>51.0</ele><time>2026-05-01T11:59:46.441Z</time></trkpt><trkpt lat="44.3531125" lon="11.715751"><ele>51.0</ele><time>2026-05-01T11:59:48.44Z</time></trkpt><trkpt lat="44.3530382" lon="11.7157984"><ele>51.0</ele><time>2026-05-01T11:59:50.442Z</time></trkpt><trkpt lat="44.3529664" lon="11.715848"><ele>51.0</ele><time>2026-05-01T11:59:52.441Z</time></trkpt><trkpt lat="44.3529116" lon="11.7159042"><ele>51.0</ele><time>2026-05-01T11:59:54.442Z</time></trkpt><trkpt lat="44.3528374" lon="11.7159215"><ele>51.0</ele><time>2026-05-01T11:59:57.445Z</time></trkpt><trkpt lat="44.3527413" lon="11.7158531"><ele>51.0</ele><time>2026-05-01T12:00:00.441Z</time></trkpt><trkpt lat="44.3526685" lon="11.7157899"><ele>51.0</ele><time>2026-05-01T12:00:02.442Z</time></trkpt><trkpt lat="44.3525988" lon="11.7157307"><ele>51.0</ele><time>2026-05-01T12:00:04.442Z</time></trkpt><trkpt lat="44.3525394" lon="11.7156746"><ele>51.0</ele><time>2026-05-01T12:00:06.442Z</time></trkpt><trkpt lat="44.35248" lon="11.7156107"><ele>51.0</ele><time>2026-05-01T12:00:08.442Z</time></trkpt><trkpt lat="44.352413" lon="11.715553"><ele>51.0</ele><time>2026-05-01T12:00:10.442Z</time></trkpt><trkpt lat="44.3523409" lon="11.715499"><ele>51.0</ele><time>2026-05-01T12:00:12.443Z</time></trkpt><trkpt lat="44.3522811" lon="11.7154451"><ele>51.0</ele><time>2026-05-01T12:00:14.444Z</time></trkpt><trkpt lat="44.3522019" lon="11.715404"><ele>51.0</ele><time>2026-05-01T12:00:17.444Z</time></trkpt><trkpt lat="44.3521166" lon="11.7154151"><ele>51.0</ele><time>2026-05-01T12:00:20.442Z</time></trkpt><trkpt lat="44.3520551" lon="11.7154696"><ele>51.0</ele><time>2026-05-01T12:00:22.441Z</time></trkpt><trkpt lat="44.3519904" lon="11.7155414"><ele>50.599999999999994</ele><time>2026-05-01T12:00:24.44Z</time></trkpt><trkpt lat="44.3519157" lon="11.7156205"><ele>50.2</ele><time>2026-05-01T12:00:26.441Z</time></trkpt><trkpt lat="44.3518338" lon="11.7156894"><ele>49.8</ele><time>2026-05-01T12:00:28.441Z</time></trkpt><trkpt lat="44.3517366" lon="11.7157188"><ele>49.400000000000006</ele><time>2026-05-01T12:00:30.439Z</time></trkpt><trkpt lat="44.3516322" lon="11.7157611"><ele>49.0</ele><time>2026-05-01T12:00:32.442Z</time></trkpt><trkpt lat="44.3515534" lon="11.7157741"><ele>49.0</ele><time>2026-05-01T12:00:34.442Z</time></trkpt><trkpt lat="44.3514709" lon="11.7157667"><ele>49.0</ele><time>2026-05-01T12:00:36.443Z</time></trkpt><trkpt lat="44.3513748" lon="11.7157828"><ele>49.0</ele><time>2026-05-01T12:00:38.442Z</time></trkpt><trkpt lat="44.3512823" lon="11.7157801"><ele>49.0</ele><time>2026-05-01T12:00:40.441Z</time></trkpt><trkpt lat="44.3511949" lon="11.7157593"><ele>49.0</ele><time>2026-05-01T12:00:42.443Z</time></trkpt><trkpt lat="44.351104" lon="11.7157393"><ele>48.666666666666664</ele><time>2026-05-01T12:00:44.441Z</time></trkpt><trkpt lat="44.3510069" lon="11.71572"><ele>48.33333333333333</ele><time>2026-05-01T12:00:46.441Z</time></trkpt><trkpt lat="44.3509198" lon="11.7157136"><ele>48.0</ele><time>2026-05-01T12:00:48.441Z</time></trkpt><trkpt lat="44.3508449" lon="11.7156869"><ele>47.666666666666664</ele><time>2026-05-01T12:00:50.444Z</time></trkpt><trkpt lat="44.3507624" lon="11.7156631"><ele>47.33333333333333</ele><time>2026-05-01T12:00:52.444Z</time></trkpt><trkpt lat="44.3506721" lon="11.7156542"><ele>47.0</ele><time>2026-05-01T12:00:54.443Z</time></trkpt><trkpt lat="44.3505826" lon="11.7156398"><ele>46.83333333333333</ele><time>2026-05-01T12:00:56.444Z</time></trkpt><trkpt lat="44.3505007" lon="11.7156092"><ele>46.666666666666664</ele><time>2026-05-01T12:00:58.441Z</time></trkpt><trkpt lat="44.3504262" lon="11.7155982"><ele>46.5</ele><time>2026-05-01T12:01:00.442Z</time></trkpt><trkpt lat="44.3503447" lon="11.7156017"><ele>46.333333333333336</ele><time>2026-05-01T12:01:02.443Z</time></trkpt><trkpt lat="44.3502747" lon="11.7155905"><ele>46.16666666666667</ele><time>2026-05-01T12:01:05.442Z</time></trkpt><trkpt lat="44.3501854" lon="11.7155753"><ele>46.0</ele><time>2026-05-01T12:01:24.441Z</time></trkpt><trkpt lat="44.3501118" lon="11.7155971"><ele>46.0</ele><time>2026-05-01T12:01:26.44Z</time></trkpt><trkpt lat="44.350027" lon="11.7156105"><ele>46.0</ele><time>2026-05-01T12:01:28.44Z</time></trkpt><trkpt lat="44.3499212" lon="11.7156158"><ele>46.0</ele><time>2026-05-01T12:01:30.441Z</time></trkpt><trkpt lat="44.3498021" lon="11.7156227"><ele>46.0</ele><time>2026-05-01T12:01:32.44Z</time></trkpt><trkpt lat="44.349739" lon="11.7156326"><ele>46.0</ele><time>2026-05-01T12:01:33.441Z</time></trkpt><trkpt lat="44.3496751" lon="11.715636"><ele>46.0</ele><time>2026-05-01T12:01:34.442Z</time></trkpt><trkpt lat="44.3495927" lon="11.7156226"><ele>45.66666666666667</ele><time>2026-05-01T12:01:36.44Z</time></trkpt><trkpt lat="44.3495835" lon="11.7155237"><ele>45.333333333333336</ele><time>2026-05-01T12:01:40.442Z</time></trkpt><trkpt lat="44.3496023" lon="11.7154298"><ele>45.0</ele><time>2026-05-01T12:01:43.442Z</time></trkpt><trkpt lat="44.3496199" lon="11.7153223"><ele>44.666666666666664</ele><time>2026-05-01T12:01:46.443Z</time></trkpt><trkpt lat="44.3496045" lon="11.715214"><ele>44.33333333333333</ele><time>2026-05-01T12:01:49.443Z</time></trkpt><trkpt lat="44.3496079" lon="11.7151086"><ele>44.0</ele><time>2026-05-01T12:01:52.442Z</time></trkpt><trkpt lat="44.3496035" lon="11.7149879"><ele>44.0</ele><time>2026-05-01T12:01:55.443Z</time></trkpt><trkpt lat="44.3496023" lon="11.7148935"><ele>44.0</ele><time>2026-05-01T12:01:57.442Z</time></trkpt><trkpt lat="44.3496032" lon="11.7147967"><ele>44.0</ele><time>2026-05-01T12:01:59.441Z</time></trkpt><trkpt lat="44.3495976" lon="11.7146853"><ele>44.0</ele><time>2026-05-01T12:02:01.442Z</time></trkpt><trkpt lat="44.349601" lon="11.7145731"><ele>44.0</ele><time>2026-05-01T12:02:03.441Z</time></trkpt><trkpt lat="44.3496004" lon="11.7144597"><ele>44.0</ele><time>2026-05-01T12:02:05.443Z</time></trkpt><trkpt lat="44.3495949" lon="11.7143536"><ele>44.166666666666664</ele><time>2026-05-01T12:02:07.442Z</time></trkpt><trkpt lat="44.3495929" lon="11.7142378"><ele>44.33333333333333</ele><time>2026-05-01T12:02:09.441Z</time></trkpt><trkpt lat="44.3495999" lon="11.7141394"><ele>44.5</ele><time>2026-05-01T12:02:11.441Z</time></trkpt><trkpt lat="44.3496032" lon="11.7140511"><ele>44.666666666666664</ele><time>2026-05-01T12:02:14.441Z</time></trkpt><trkpt lat="44.3496" lon="11.7139285"><ele>44.833333333333336</ele><time>2026-05-01T12:02:18.443Z</time></trkpt><trkpt lat="44.3496034" lon="11.7138333"><ele>45.0</ele><time>2026-05-01T12:02:20.444Z</time></trkpt><trkpt lat="44.349606" lon="11.7137089"><ele>45.0</ele><time>2026-05-01T12:02:22.443Z</time></trkpt><trkpt lat="44.3496053" lon="11.7135869"><ele>45.0</ele><time>2026-05-01T12:02:24.442Z</time></trkpt><trkpt lat="44.349611" lon="11.7134615"><ele>45.0</ele><time>2026-05-01T12:02:26.441Z</time></trkpt><trkpt lat="44.3496169" lon="11.7133305"><ele>45.0</ele><time>2026-05-01T12:02:28.441Z</time></trkpt><trkpt lat="44.3496135" lon="11.7131959"><ele>45.0</ele><time>2026-05-01T12:02:30.441Z</time></trkpt><trkpt lat="44.3496059" lon="11.7130711"><ele>45.333333333333336</ele><time>2026-05-01T12:02:32.441Z</time></trkpt><trkpt lat="44.3496107" lon="11.7129694"><ele>45.666666666666664</ele><time>2026-05-01T12:02:34.442Z</time></trkpt><trkpt lat="44.3496097" lon="11.7128648"><ele>46.0</ele><time>2026-05-01T12:02:37.441Z</time></trkpt><trkpt lat="44.349538" lon="11.7128334"><ele>46.33333333333333</ele><time>2026-05-01T12:02:40.442Z</time></trkpt><trkpt lat="44.3494701" lon="11.7128365"><ele>46.666666666666664</ele><time>2026-05-01T12:02:42.442Z</time></trkpt><trkpt lat="44.349391" lon="11.7128262"><ele>47.0</ele><time>2026-05-01T12:02:44.44Z</time></trkpt><trkpt lat="44.3493021" lon="11.7128266"><ele>47.0</ele><time>2026-05-01T12:02:46.44Z</time></trkpt><trkpt lat="44.3492058" lon="11.7128297"><ele>47.0</ele><time>2026-05-01T12:02:48.442Z</time></trkpt><trkpt lat="44.349101" lon="11.7128351"><ele>47.0</ele><time>2026-05-01T12:02:50.443Z</time></trkpt><trkpt lat="44.3490006" lon="11.7128395"><ele>47.0</ele><time>2026-05-01T12:02:52.442Z</time></trkpt><trkpt lat="44.3489038" lon="11.7128335"><ele>47.0</ele><time>2026-05-01T12:02:54.442Z</time></trkpt><trkpt lat="44.3488045" lon="11.7128258"><ele>47.0</ele><time>2026-05-01T12:02:56.441Z</time></trkpt><trkpt lat="44.3487042" lon="11.7128109"><ele>47.0</ele><time>2026-05-01T12:02:58.441Z</time></trkpt><trkpt lat="44.3485948" lon="11.7128055"><ele>47.0</ele><time>2026-05-01T12:03:00.441Z</time></trkpt><trkpt lat="44.3484888" lon="11.7127862"><ele>47.0</ele><time>2026-05-01T12:03:02.441Z</time></trkpt><trkpt lat="44.3483912" lon="11.7127159"><ele>47.0</ele><time>2026-05-01T12:03:04.441Z</time></trkpt><trkpt lat="44.3482892" lon="11.7126447"><ele>47.0</ele><time>2026-05-01T12:03:06.44Z</time></trkpt><trkpt lat="44.3481837" lon="11.7126456"><ele>47.0</ele><time>2026-05-01T12:03:08.439Z</time></trkpt><trkpt lat="44.348089" lon="11.7127368"><ele>47.0</ele><time>2026-05-01T12:03:10.441Z</time></trkpt><trkpt lat="44.3479953" lon="11.7128193"><ele>47.0</ele><time>2026-05-01T12:03:12.439Z</time></trkpt><trkpt lat="44.3478841" lon="11.7128344"><ele>47.0</ele><time>2026-05-01T12:03:14.44Z</time></trkpt><trkpt lat="44.3477719" lon="11.7128321"><ele>47.25</ele><time>2026-05-01T12:03:16.44Z</time></trkpt><trkpt lat="44.347654" lon="11.7128299"><ele>47.5</ele><time>2026-05-01T12:03:18.44Z</time></trkpt><trkpt lat="44.3475454" lon="11.712833"><ele>47.75</ele><time>2026-05-01T12:03:20.44Z</time></trkpt><trkpt lat="44.3474318" lon="11.712833"><ele>48.0</ele><time>2026-05-01T12:03:22.441Z</time></trkpt><trkpt lat="44.3473107" lon="11.7128255"><ele>47.0</ele><time>2026-05-01T12:03:24.439Z</time></trkpt><trkpt lat="44.34719" lon="11.712814"><ele>46.0</ele><time>2026-05-01T12:03:26.441Z</time></trkpt><trkpt lat="44.3470689" lon="11.7128041"><ele>45.0</ele><time>2026-05-01T12:03:28.44Z</time></trkpt><trkpt lat="44.3469522" lon="11.7128078"><ele>44.0</ele><time>2026-05-01T12:03:30.44Z</time></trkpt><trkpt lat="44.3468404" lon="11.712807"><ele>44.0</ele><time>2026-05-01T12:03:32.439Z</time></trkpt><trkpt lat="44.3467254" lon="11.7128083"><ele>44.0</ele><time>2026-05-01T12:03:34.44Z</time></trkpt><trkpt lat="44.3466046" lon="11.7128143"><ele>44.0</ele><time>2026-05-01T12:03:36.44Z</time></trkpt><trkpt lat="44.3464857" lon="11.7128212"><ele>44.0</ele><time>2026-05-01T12:03:38.44Z</time></trkpt><trkpt lat="44.3463685" lon="11.7128259"><ele>43.25</ele><time>2026-05-01T12:03:40.442Z</time></trkpt><trkpt lat="44.3462488" lon="11.7128243"><ele>42.5</ele><time>2026-05-01T12:03:42.44Z</time></trkpt><trkpt lat="44.346132" lon="11.7128274"><ele>41.75</ele><time>2026-05-01T12:03:44.44Z</time></trkpt><trkpt lat="44.3460358" lon="11.7128245"><ele>41.0</ele><time>2026-05-01T12:03:46.44Z</time></trkpt><trkpt lat="44.3459185" lon="11.7128148"><ele>40.99999999999999</ele><time>2026-05-01T12:03:48.441Z</time></trkpt><trkpt lat="44.3458458" lon="11.712809"><ele>41.0</ele><time>2026-05-01T12:03:49.44Z</time></trkpt><trkpt lat="44.3457742" lon="11.7128093"><ele>41.0</ele><time>2026-05-01T12:03:50.44Z</time></trkpt><trkpt lat="44.3457022" lon="11.7128094"><ele>41.0</ele><time>2026-05-01T12:03:51.44Z</time></trkpt><trkpt lat="44.3456328" lon="11.7128063"><ele>41.0</ele><time>2026-05-01T12:03:52.441Z</time></trkpt><trkpt lat="44.3455632" lon="11.7128044"><ele>40.99999999999999</ele><time>2026-05-01T12:03:53.439Z</time></trkpt><trkpt lat="44.3454984" lon="11.7128051"><ele>41.0</ele><time>2026-05-01T12:03:54.441Z</time></trkpt><trkpt lat="44.3453764" lon="11.7128117"><ele>40.25</ele><time>2026-05-01T12:03:56.441Z</time></trkpt><trkpt lat="44.3452555" lon="11.7128128"><ele>39.5</ele><time>2026-05-01T12:03:58.441Z</time></trkpt><trkpt lat="44.3451351" lon="11.7128088"><ele>38.75</ele><time>2026-05-01T12:04:00.44Z</time></trkpt><trkpt lat="44.3450239" lon="11.712813"><ele>38.0</ele><time>2026-05-01T12:04:02.44Z</time></trkpt><trkpt lat="44.344922" lon="11.7127952"><ele>38.4</ele><time>2026-05-01T12:04:04.441Z</time></trkpt><trkpt lat="44.344844" lon="11.7127253"><ele>38.8</ele><time>2026-05-01T12:04:06.441Z</time></trkpt><trkpt lat="44.3448148" lon="11.7125928"><ele>39.2</ele><time>2026-05-01T12:04:08.44Z</time></trkpt><trkpt lat="44.3448176" lon="11.7124384"><ele>39.6</ele><time>2026-05-01T12:04:10.44Z</time></trkpt><trkpt lat="44.3448318" lon="11.7122923"><ele>40.0</ele><time>2026-05-01T12:04:12.44Z</time></trkpt><trkpt lat="44.3448506" lon="11.7121667"><ele>40.0</ele><time>2026-05-01T12:04:14.44Z</time></trkpt><trkpt lat="44.3448529" lon="11.7120451"><ele>40.0</ele><time>2026-05-01T12:04:16.442Z</time></trkpt><trkpt lat="44.344843" lon="11.7119245"><ele>40.0</ele><time>2026-05-01T12:04:18.442Z</time></trkpt><trkpt lat="44.3448369" lon="11.7117863"><ele>40.0</ele><time>2026-05-01T12:04:20.441Z</time></trkpt><trkpt lat="44.3448282" lon="11.7116424"><ele>40.0</ele><time>2026-05-01T12:04:22.441Z</time></trkpt><trkpt lat="44.3448117" lon="11.7114861"><ele>41.0</ele><time>2026-05-01T12:04:24.44Z</time></trkpt><trkpt lat="44.3447963" lon="11.7113302"><ele>42.0</ele><time>2026-05-01T12:04:26.441Z</time></trkpt><trkpt lat="44.3447791" lon="11.7111671"><ele>43.0</ele><time>2026-05-01T12:04:28.44Z</time></trkpt><trkpt lat="44.3447608" lon="11.711002"><ele>44.0</ele><time>2026-05-01T12:04:30.44Z</time></trkpt><trkpt lat="44.3447464" lon="11.7108369"><ele>44.0</ele><time>2026-05-01T12:04:32.44Z</time></trkpt><trkpt lat="44.3447295" lon="11.7106685"><ele>44.0</ele><time>2026-05-01T12:04:34.441Z</time></trkpt><trkpt lat="44.3446833" lon="11.7105221"><ele>44.0</ele><time>2026-05-01T12:04:36.441Z</time></trkpt><trkpt lat="44.3445823" lon="11.7104343"><ele>44.0</ele><time>2026-05-01T12:04:38.439Z</time></trkpt><trkpt lat="44.3444819" lon="11.7103776"><ele>44.0</ele><time>2026-05-01T12:04:40.441Z</time></trkpt><trkpt lat="44.344381" lon="11.7103374"><ele>44.0</ele><time>2026-05-01T12:04:42.441Z</time></trkpt><trkpt lat="44.3443171" lon="11.71034"><ele>44.0</ele><time>2026-05-01T12:04:43.441Z</time></trkpt><trkpt lat="44.3442293" lon="11.7103361"><ele>44.0</ele><time>2026-05-01T12:04:45.441Z</time></trkpt><trkpt lat="44.3441784" lon="11.7102211"><ele>44.0</ele><time>2026-05-01T12:04:48.439Z</time></trkpt><trkpt lat="44.3441649" lon="11.710134"><ele>44.0</ele><time>2026-05-01T12:04:50.439Z</time></trkpt><trkpt lat="44.3441515" lon="11.710021"><ele>43.83333333333333</ele><time>2026-05-01T12:04:52.439Z</time></trkpt><trkpt lat="44.3441481" lon="11.7098959"><ele>43.666666666666664</ele><time>2026-05-01T12:04:54.439Z</time></trkpt><trkpt lat="44.3441671" lon="11.7097776"><ele>43.5</ele><time>2026-05-01T12:04:56.439Z</time></trkpt><trkpt lat="44.3441984" lon="11.7096583"><ele>43.333333333333336</ele><time>2026-05-01T12:04:58.44Z</time></trkpt><trkpt lat="44.3442027" lon="11.7095364"><ele>43.16666666666667</ele><time>2026-05-01T12:05:00.44Z</time></trkpt><trkpt lat="44.344186" lon="11.7094171"><ele>43.0</ele><time>2026-05-01T12:05:02.44Z</time></trkpt><trkpt lat="44.3441596" lon="11.7092975"><ele>43.00000000000001</ele><time>2026-05-01T12:05:04.44Z</time></trkpt><trkpt lat="44.3441369" lon="11.7091833"><ele>43.0</ele><time>2026-05-01T12:05:06.439Z</time></trkpt><trkpt lat="44.344115" lon="11.7090776"><ele>43.0</ele><time>2026-05-01T12:05:08.44Z</time></trkpt><trkpt lat="44.3440883" lon="11.7089828"><ele>43.0</ele><time>2026-05-01T12:05:10.44Z</time></trkpt><trkpt lat="44.3440426" lon="11.7089158"><ele>43.0</ele><time>2026-05-01T12:05:12.439Z</time></trkpt><trkpt lat="44.3439787" lon="11.7088723"><ele>43.00000000000001</ele><time>2026-05-01T12:05:14.44Z</time></trkpt><trkpt lat="44.3439158" lon="11.7088386"><ele>43.0</ele><time>2026-05-01T12:05:16.443Z</time></trkpt><trkpt lat="44.343846" lon="11.7088101"><ele>43.142857142857146</ele><time>2026-05-01T12:05:18.439Z</time></trkpt><trkpt lat="44.3437816" lon="11.7087636"><ele>43.285714285714285</ele><time>2026-05-01T12:05:20.44Z</time></trkpt><trkpt lat="44.3437215" lon="11.7087144"><ele>43.42857142857143</ele><time>2026-05-01T12:05:22.44Z</time></trkpt><trkpt lat="44.3436596" lon="11.7086747"><ele>43.57142857142857</ele><time>2026-05-01T12:05:24.439Z</time></trkpt><trkpt lat="44.3435982" lon="11.7086373"><ele>43.714285714285715</ele><time>2026-05-01T12:05:26.44Z</time></trkpt><trkpt lat="44.3435315" lon="11.7086001"><ele>43.85714285714286</ele><time>2026-05-01T12:05:28.44Z</time></trkpt><trkpt lat="44.3434661" lon="11.7085604"><ele>44.0</ele><time>2026-05-01T12:05:30.44Z</time></trkpt><trkpt lat="44.3433931" lon="11.7085139"><ele>44.142857142857146</ele><time>2026-05-01T12:05:32.44Z</time></trkpt><trkpt lat="44.3433341" lon="11.7084699"><ele>44.285714285714285</ele><time>2026-05-01T12:05:34.44Z</time></trkpt><trkpt lat="44.3432738" lon="11.7084308"><ele>44.42857142857143</ele><time>2026-05-01T12:05:36.439Z</time></trkpt><trkpt lat="44.3432096" lon="11.7083827"><ele>44.57142857142857</ele><time>2026-05-01T12:05:38.44Z</time></trkpt><trkpt lat="44.3431313" lon="11.7083493"><ele>44.714285714285715</ele><time>2026-05-01T12:05:41.438Z</time></trkpt><trkpt lat="44.3430516" lon="11.708319"><ele>44.857142857142854</ele><time>2026-05-01T12:05:44.44Z</time></trkpt><trkpt lat="44.3430033" lon="11.7082408"><ele>45.0</ele><time>2026-05-01T12:05:48.44Z</time></trkpt><trkpt lat="44.342953" lon="11.7081492"><ele>46.0</ele><time>2026-05-01T12:05:52.442Z</time></trkpt><trkpt lat="44.3428984" lon="11.7080888"><ele>47.0</ele><time>2026-05-01T12:05:54.442Z</time></trkpt><trkpt lat="44.3428431" lon="11.7079887"><ele>48.0</ele><time>2026-05-01T12:05:57.442Z</time></trkpt><trkpt lat="44.3427985" lon="11.7078967"><ele>49.0</ele><time>2026-05-01T12:06:00.441Z</time></trkpt><trkpt lat="44.3427895" lon="11.7077634"><ele>50.0</ele><time>2026-05-01T12:06:03.443Z</time></trkpt><trkpt lat="44.3427747" lon="11.7076527"><ele>51.0</ele><time>2026-05-01T12:06:06.439Z</time></trkpt><trkpt lat="44.3427238" lon="11.7075914"><ele>51.0</ele><time>2026-05-01T12:06:08.44Z</time></trkpt><trkpt lat="44.3426467" lon="11.7075314"><ele>51.0</ele><time>2026-05-01T12:06:10.441Z</time></trkpt><trkpt lat="44.3425685" lon="11.7074972"><ele>51.0</ele><time>2026-05-01T12:06:12.44Z</time></trkpt><trkpt lat="44.3424896" lon="11.7074803"><ele>51.0</ele><time>2026-05-01T12:06:14.44Z</time></trkpt><trkpt lat="44.34242" lon="11.7074966"><ele>51.0</ele><time>2026-05-01T12:06:16.442Z</time></trkpt><trkpt lat="44.3423349" lon="11.7075315"><ele>51.0</ele><time>2026-05-01T12:06:19.44Z</time></trkpt><trkpt lat="44.342266" lon="11.7075588"><ele>51.0</ele><time>2026-05-01T12:06:22.44Z</time></trkpt><trkpt lat="44.3422027" lon="11.7075749"><ele>51.0</ele><time>2026-05-01T12:06:26.44Z</time></trkpt><trkpt lat="44.3422415" lon="11.7075024"><ele>51.0</ele><time>2026-05-01T12:06:35.44Z</time></trkpt><trkpt lat="44.3422236" lon="11.7074107"><ele>51.0</ele><time>2026-05-01T12:06:37.44Z</time></trkpt><trkpt lat="44.3421928" lon="11.7072963"><ele>51.0</ele><time>2026-05-01T12:06:39.44Z</time></trkpt><trkpt lat="44.342154" lon="11.7071878"><ele>51.0</ele><time>2026-05-01T12:06:41.44Z</time></trkpt><trkpt lat="44.3421025" lon="11.7071313"><ele>51.0</ele><time>2026-05-01T12:06:43.439Z</time></trkpt><trkpt lat="44.3420385" lon="11.7070981"><ele>51.166666666666664</ele><time>2026-05-01T12:06:46.443Z</time></trkpt><trkpt lat="44.34197" lon="11.7070778"><ele>51.33333333333333</ele><time>2026-05-01T12:06:49.442Z</time></trkpt><trkpt lat="44.341896" lon="11.707062"><ele>51.5</ele><time>2026-05-01T12:06:52.442Z</time></trkpt><trkpt lat="44.3418199" lon="11.706985"><ele>51.666666666666664</ele><time>2026-05-01T12:06:55.44Z</time></trkpt><trkpt lat="44.3417609" lon="11.7069077"><ele>51.83333333333333</ele><time>2026-05-01T12:06:57.441Z</time></trkpt><trkpt lat="44.3416903" lon="11.7068528"><ele>52.0</ele><time>2026-05-01T12:06:59.44Z</time></trkpt><trkpt lat="44.3416328" lon="11.7067769"><ele>51.166666666666664</ele><time>2026-05-01T12:07:01.441Z</time></trkpt><trkpt lat="44.3416164" lon="11.7066715"><ele>50.33333333333333</ele><time>2026-05-01T12:07:03.44Z</time></trkpt><trkpt lat="44.3416139" lon="11.706558"><ele>49.5</ele><time>2026-05-01T12:07:05.44Z</time></trkpt><trkpt lat="44.3415982" lon="11.7064544"><ele>48.666666666666664</ele><time>2026-05-01T12:07:07.441Z</time></trkpt><trkpt lat="44.3415732" lon="11.7063503"><ele>47.83333333333333</ele><time>2026-05-01T12:07:09.441Z</time></trkpt><trkpt lat="44.3415434" lon="11.7062458"><ele>47.0</ele><time>2026-05-01T12:07:11.44Z</time></trkpt><trkpt lat="44.3415147" lon="11.7061557"><ele>47.0</ele><time>2026-05-01T12:07:13.441Z</time></trkpt><trkpt lat="44.3414673" lon="11.7060916"><ele>47.0</ele><time>2026-05-01T12:07:15.44Z</time></trkpt><trkpt lat="44.3413961" lon="11.7060677"><ele>47.0</ele><time>2026-05-01T12:07:17.442Z</time></trkpt><trkpt lat="44.3413195" lon="11.7060539"><ele>47.0</ele><time>2026-05-01T12:07:19.443Z</time></trkpt><trkpt lat="44.3412484" lon="11.7060567"><ele>47.0</ele><time>2026-05-01T12:07:21.439Z</time></trkpt><trkpt lat="44.3411867" lon="11.7060807"><ele>47.0</ele><time>2026-05-01T12:07:23.443Z</time></trkpt><trkpt lat="44.3410954" lon="11.7061215"><ele>47.0</ele><time>2026-05-01T12:07:26.442Z</time></trkpt><trkpt lat="44.341026" lon="11.7061527"><ele>47.0</ele><time>2026-05-01T12:07:28.44Z</time></trkpt><trkpt lat="44.3409646" lon="11.7061967"><ele>47.0</ele><time>2026-05-01T12:07:30.441Z</time></trkpt><trkpt lat="44.340881" lon="11.7062281"><ele>47.0</ele><time>2026-05-01T12:07:33.442Z</time></trkpt><trkpt lat="44.3408737" lon="11.706109"><ele>47.0</ele><time>2026-05-01T12:07:36.443Z</time></trkpt><trkpt lat="44.3409016" lon="11.705996"><ele>47.0</ele><time>2026-05-01T12:07:38.442Z</time></trkpt><trkpt lat="44.3408979" lon="11.7058732"><ele>47.0</ele><time>2026-05-01T12:07:40.441Z</time></trkpt><trkpt lat="44.3408878" lon="11.7057568"><ele>46.5</ele><time>2026-05-01T12:07:42.442Z</time></trkpt><trkpt lat="44.3408577" lon="11.7056767"><ele>46.0</ele><time>2026-05-01T12:07:44.44Z</time></trkpt><trkpt lat="44.3408101" lon="11.7056052"><ele>45.5</ele><time>2026-05-01T12:07:47.445Z</time></trkpt><trkpt lat="44.3407342" lon="11.7056253"><ele>45.0</ele><time>2026-05-01T12:07:51.443Z</time></trkpt><trkpt lat="44.3406653" lon="11.7055923"><ele>44.5</ele><time>2026-05-01T12:07:53.443Z</time></trkpt><trkpt lat="44.3405877" lon="11.7055427"><ele>44.0</ele><time>2026-05-01T12:07:55.441Z</time></trkpt><trkpt lat="44.3405112" lon="11.7054926"><ele>44.0</ele><time>2026-05-01T12:07:57.439Z</time></trkpt><trkpt lat="44.3404282" lon="11.7054536"><ele>44.0</ele><time>2026-05-01T12:07:59.44Z</time></trkpt><trkpt lat="44.3403504" lon="11.7054262"><ele>44.0</ele><time>2026-05-01T12:08:01.441Z</time></trkpt><trkpt lat="44.3402699" lon="11.705407"><ele>44.0</ele><time>2026-05-01T12:08:03.44Z</time></trkpt><trkpt lat="44.3401885" lon="11.7053648"><ele>44.0</ele><time>2026-05-01T12:08:05.441Z</time></trkpt><trkpt lat="44.3401031" lon="11.7053205"><ele>44.0</ele><time>2026-05-01T12:08:07.44Z</time></trkpt><trkpt lat="44.3400202" lon="11.7052737"><ele>43.83333333333333</ele><time>2026-05-01T12:08:09.44Z</time></trkpt><trkpt lat="44.3399412" lon="11.7052284"><ele>43.666666666666664</ele><time>2026-05-01T12:08:11.439Z</time></trkpt><trkpt lat="44.339858" lon="11.7051928"><ele>43.5</ele><time>2026-05-01T12:08:13.439Z</time></trkpt><trkpt lat="44.3397727" lon="11.7051595"><ele>43.333333333333336</ele><time>2026-05-01T12:08:15.439Z</time></trkpt><trkpt lat="44.3396868" lon="11.7051143"><ele>43.16666666666667</ele><time>2026-05-01T12:08:17.443Z</time></trkpt><trkpt lat="44.3395952" lon="11.7050752"><ele>43.0</ele><time>2026-05-01T12:08:19.442Z</time></trkpt><trkpt lat="44.3394988" lon="11.7050389"><ele>42.599999999999994</ele><time>2026-05-01T12:08:21.443Z</time></trkpt><trkpt lat="44.3393992" lon="11.7050049"><ele>42.199999999999996</ele><time>2026-05-01T12:08:23.442Z</time></trkpt><trkpt lat="44.339302" lon="11.7049798"><ele>41.8</ele><time>2026-05-01T12:08:25.439Z</time></trkpt><trkpt lat="44.3392002" lon="11.704962"><ele>41.4</ele><time>2026-05-01T12:08:27.44Z</time></trkpt><trkpt lat="44.339097" lon="11.7049632"><ele>41.0</ele><time>2026-05-01T12:08:29.44Z</time></trkpt><trkpt lat="44.3389935" lon="11.704966"><ele>41.0</ele><time>2026-05-01T12:08:31.441Z</time></trkpt><trkpt lat="44.3388883" lon="11.7049674"><ele>41.0</ele><time>2026-05-01T12:08:33.44Z</time></trkpt><trkpt lat="44.3387834" lon="11.7049582"><ele>41.0</ele><time>2026-05-01T12:08:35.441Z</time></trkpt><trkpt lat="44.338682" lon="11.7049345"><ele>41.0</ele><time>2026-05-01T12:08:37.44Z</time></trkpt><trkpt lat="44.3385804" lon="11.7049222"><ele>41.0</ele><time>2026-05-01T12:08:39.441Z</time></trkpt><trkpt lat="44.3384768" lon="11.7049006"><ele>41.4</ele><time>2026-05-01T12:08:41.44Z</time></trkpt><trkpt lat="44.3383752" lon="11.7048879"><ele>41.8</ele><time>2026-05-01T12:08:43.44Z</time></trkpt><trkpt lat="44.3382734" lon="11.7048705"><ele>42.199999999999996</ele><time>2026-05-01T12:08:45.44Z</time></trkpt><trkpt lat="44.3381781" lon="11.7048465"><ele>42.599999999999994</ele><time>2026-05-01T12:08:47.442Z</time></trkpt><trkpt lat="44.3380798" lon="11.7048203"><ele>43.0</ele><time>2026-05-01T12:08:49.444Z</time></trkpt><trkpt lat="44.3379783" lon="11.704795"><ele>44.0</ele><time>2026-05-01T12:08:51.443Z</time></trkpt><trkpt lat="44.3378783" lon="11.7047767"><ele>45.0</ele><time>2026-05-01T12:08:53.443Z</time></trkpt><trkpt lat="44.3377783" lon="11.704745"><ele>46.0</ele><time>2026-05-01T12:08:55.44Z</time></trkpt><trkpt lat="44.33769" lon="11.704665"><ele>47.0</ele><time>2026-05-01T12:08:57.439Z</time></trkpt><trkpt lat="44.3376283" lon="11.7045167"><ele>48.0</ele><time>2026-05-01T12:08:59.441Z</time></trkpt><trkpt lat="44.3376083" lon="11.704425"><ele>47.57142857142857</ele><time>2026-05-01T12:09:00.441Z</time></trkpt><trkpt lat="44.3376017" lon="11.70433"><ele>47.14285714285714</ele><time>2026-05-01T12:09:01.441Z</time></trkpt><trkpt lat="44.3376017" lon="11.7042317"><ele>46.71428571428571</ele><time>2026-05-01T12:09:02.439Z</time></trkpt><trkpt lat="44.3376033" lon="11.7041267"><ele>46.285714285714285</ele><time>2026-05-01T12:09:03.439Z</time></trkpt><trkpt lat="44.3376067" lon="11.7040217"><ele>45.85714285714286</ele><time>2026-05-01T12:09:04.44Z</time></trkpt><trkpt lat="44.3376217" lon="11.7039233"><ele>45.42857142857142</ele><time>2026-05-01T12:09:05.441Z</time></trkpt><trkpt lat="44.3376483" lon="11.70383"><ele>45.0</ele><time>2026-05-01T12:09:06.44Z</time></trkpt><trkpt lat="44.33768" lon="11.7037417"><ele>45.0</ele><time>2026-05-01T12:09:07.44Z</time></trkpt><trkpt lat="44.3377233" lon="11.7036567"><ele>45.0</ele><time>2026-05-01T12:09:08.44Z</time></trkpt><trkpt lat="44.33777" lon="11.7035767"><ele>45.0</ele><time>2026-05-01T12:09:09.44Z</time></trkpt><trkpt lat="44.337815" lon="11.7035033"><ele>45.0</ele><time>2026-05-01T12:09:10.442Z</time></trkpt><trkpt lat="44.3378567" lon="11.703425"><ele>45.0</ele><time>2026-05-01T12:09:11.442Z</time></trkpt><trkpt lat="44.3378983" lon="11.7033317"><ele>45.0</ele><time>2026-05-01T12:09:12.441Z</time></trkpt><trkpt lat="44.3379467" lon="11.703255"><ele>45.0</ele><time>2026-05-01T12:09:13.44Z</time></trkpt><trkpt lat="44.337985" lon="11.7031767"><ele>45.0</ele><time>2026-05-01T12:09:14.441Z</time></trkpt><trkpt lat="44.3380517" lon="11.70312"><ele>45.0</ele><time>2026-05-01T12:09:16.439Z</time></trkpt><trkpt lat="44.3381333" lon="11.7030483"><ele>45.0</ele><time>2026-05-01T12:09:18.442Z</time></trkpt><trkpt lat="44.3381483" lon="11.7029333"><ele>45.0</ele><time>2026-05-01T12:09:21.441Z</time></trkpt><trkpt lat="44.3380717" lon="11.7028767"><ele>45.0</ele><time>2026-05-01T12:09:24.441Z</time></trkpt><trkpt lat="44.338005" lon="11.70287"><ele>45.0</ele><time>2026-05-01T12:09:26.442Z</time></trkpt><trkpt lat="44.3379333" lon="11.702875"><ele>45.166666666666664</ele><time>2026-05-01T12:09:28.443Z</time></trkpt><trkpt lat="44.3378483" lon="11.7028633"><ele>45.333333333333336</ele><time>2026-05-01T12:09:31.441Z</time></trkpt><trkpt lat="44.337775" lon="11.7028483"><ele>45.5</ele><time>2026-05-01T12:09:34.441Z</time></trkpt><trkpt lat="44.3377133" lon="11.7028133"><ele>45.66666666666667</ele><time>2026-05-01T12:09:37.44Z</time></trkpt><trkpt lat="44.33765" lon="11.702725"><ele>45.833333333333336</ele><time>2026-05-01T12:09:40.441Z</time></trkpt><trkpt lat="44.3376167" lon="11.7026467"><ele>46.0</ele><time>2026-05-01T12:09:42.44Z</time></trkpt><trkpt lat="44.3376167" lon="11.70254"><ele>46.0</ele><time>2026-05-01T12:09:45.441Z</time></trkpt><trkpt lat="44.3376033" lon="11.7024417"><ele>46.0</ele><time>2026-05-01T12:09:48.44Z</time></trkpt><trkpt lat="44.3376233" lon="11.7025483"><ele>46.0</ele><time>2026-05-01T12:09:54.439Z</time></trkpt><trkpt lat="44.3376833" lon="11.7026333"><ele>46.0</ele><time>2026-05-01T12:09:56.439Z</time></trkpt><trkpt lat="44.3377583" lon="11.7027167"><ele>46.0</ele><time>2026-05-01T12:09:58.441Z</time></trkpt><trkpt lat="44.3378433" lon="11.7027767"><ele>46.0</ele><time>2026-05-01T12:10:00.441Z</time></trkpt><trkpt lat="44.3379367" lon="11.702805"><ele>46.0</ele><time>2026-05-01T12:10:02.439Z</time></trkpt><trkpt lat="44.33802" lon="11.7027633"><ele>46.0</ele><time>2026-05-01T12:10:04.44Z</time></trkpt><trkpt lat="44.33807" lon="11.7026933"><ele>46.0</ele><time>2026-05-01T12:10:07.44Z</time></trkpt><trkpt lat="44.3380633" lon="11.70257"><ele>46.0</ele><time>2026-05-01T12:10:11.44Z</time></trkpt><trkpt lat="44.3381083" lon="11.70247"><ele>46.0</ele><time>2026-05-01T12:10:13.44Z</time></trkpt><trkpt lat="44.3381533" lon="11.7023583"><ele>46.0</ele><time>2026-05-01T12:10:15.44Z</time></trkpt><trkpt lat="44.3382033" lon="11.702245"><ele>45.199999999999996</ele><time>2026-05-01T12:10:17.443Z</time></trkpt><trkpt lat="44.3382517" lon="11.7021133"><ele>44.4</ele><time>2026-05-01T12:10:19.442Z</time></trkpt><trkpt lat="44.3383" lon="11.7019767"><ele>43.6</ele><time>2026-05-01T12:10:21.442Z</time></trkpt><trkpt lat="44.3383533" lon="11.7018417"><ele>42.8</ele><time>2026-05-01T12:10:23.442Z</time></trkpt><trkpt lat="44.3384017" lon="11.701705"><ele>42.0</ele><time>2026-05-01T12:10:25.441Z</time></trkpt><trkpt lat="44.33846" lon="11.7015717"><ele>41.75</ele><time>2026-05-01T12:10:27.441Z</time></trkpt><trkpt lat="44.3385217" lon="11.701435"><ele>41.5</ele><time>2026-05-01T12:10:29.442Z</time></trkpt><trkpt lat="44.338585" lon="11.70129"><ele>41.25</ele><time>2026-05-01T12:10:31.44Z</time></trkpt><trkpt lat="44.3386467" lon="11.70114"><ele>41.0</ele><time>2026-05-01T12:10:33.441Z</time></trkpt><trkpt lat="44.3387083" lon="11.7009933"><ele>40.8</ele><time>2026-05-01T12:10:35.441Z</time></trkpt><trkpt lat="44.3387767" lon="11.7008517"><ele>40.599999999999994</ele><time>2026-05-01T12:10:37.441Z</time></trkpt><trkpt lat="44.338865" lon="11.700765"><ele>40.4</ele><time>2026-05-01T12:10:39.44Z</time></trkpt><trkpt lat="44.3389617" lon="11.7007417"><ele>40.2</ele><time>2026-05-01T12:10:41.439Z</time></trkpt><trkpt lat="44.3390267" lon="11.7007383"><ele>40.0</ele><time>2026-05-01T12:10:43.44Z</time></trkpt><trkpt lat="44.3390767" lon="11.7006617"><ele>40.0</ele><time>2026-05-01T12:10:57.439Z</time></trkpt><trkpt lat="44.33908" lon="11.7005433"><ele>40.0</ele><time>2026-05-01T12:11:00.439Z</time></trkpt><trkpt lat="44.339095" lon="11.7004333"><ele>40.0</ele><time>2026-05-01T12:11:03.44Z</time></trkpt><trkpt lat="44.33912" lon="11.7002767"><ele>40.0</ele><time>2026-05-01T12:11:11.439Z</time></trkpt><trkpt lat="44.3391333" lon="11.7001883"><ele>40.0</ele><time>2026-05-01T12:11:17.443Z</time></trkpt><trkpt lat="44.3391767" lon="11.7001217"><ele>40.0</ele><time>2026-05-01T12:11:19.439Z</time></trkpt><trkpt lat="44.33924" lon="11.7000233"><ele>40.6</ele><time>2026-05-01T12:11:21.439Z</time></trkpt><trkpt lat="44.3393133" lon="11.6999133"><ele>41.2</ele><time>2026-05-01T12:11:23.439Z</time></trkpt><trkpt lat="44.339385" lon="11.6998033"><ele>41.8</ele><time>2026-05-01T12:11:25.439Z</time></trkpt><trkpt lat="44.33946" lon="11.6996983"><ele>42.4</ele><time>2026-05-01T12:11:27.439Z</time></trkpt><trkpt lat="44.3395367" lon="11.6995933"><ele>43.0</ele><time>2026-05-01T12:11:29.439Z</time></trkpt><trkpt lat="44.3396183" lon="11.6994933"><ele>43.0</ele><time>2026-05-01T12:11:31.44Z</time></trkpt><trkpt lat="44.339695" lon="11.6993833"><ele>43.0</ele><time>2026-05-01T12:11:33.44Z</time></trkpt><trkpt lat="44.3397733" lon="11.699275"><ele>43.0</ele><time>2026-05-01T12:11:35.439Z</time></trkpt><trkpt lat="44.3398533" lon="11.6991717"><ele>43.0</ele><time>2026-05-01T12:11:37.44Z</time></trkpt><trkpt lat="44.3399167" lon="11.6990733"><ele>43.0</ele><time>2026-05-01T12:11:39.439Z</time></trkpt><trkpt lat="44.33999" lon="11.6989733"><ele>43.0</ele><time>2026-05-01T12:11:41.439Z</time></trkpt><trkpt lat="44.3400633" lon="11.6988817"><ele>43.0</ele><time>2026-05-01T12:11:43.44Z</time></trkpt><trkpt lat="44.3401383" lon="11.6987917"><ele>43.0</ele><time>2026-05-01T12:11:45.44Z</time></trkpt><trkpt lat="44.3402117" lon="11.698705"><ele>43.0</ele><time>2026-05-01T12:11:47.443Z</time></trkpt><trkpt lat="44.340285" lon="11.69861"><ele>43.0</ele><time>2026-05-01T12:11:49.44Z</time></trkpt><trkpt lat="44.3403617" lon="11.6985083"><ele>43.0</ele><time>2026-05-01T12:11:51.439Z</time></trkpt><trkpt lat="44.3404367" lon="11.6984133"><ele>43.0</ele><time>2026-05-01T12:11:53.439Z</time></trkpt><trkpt lat="44.3405" lon="11.69832"><ele>43.0</ele><time>2026-05-01T12:11:55.44Z</time></trkpt><trkpt lat="44.3405767" lon="11.6982333"><ele>43.0</ele><time>2026-05-01T12:11:57.44Z</time></trkpt><trkpt lat="44.340655" lon="11.698145"><ele>43.0</ele><time>2026-05-01T12:11:59.439Z</time></trkpt><trkpt lat="44.3407367" lon="11.6980517"><ele>43.2</ele><time>2026-05-01T12:12:01.44Z</time></trkpt><trkpt lat="44.340815" lon="11.6979467"><ele>43.4</ele><time>2026-05-01T12:12:03.439Z</time></trkpt><trkpt lat="44.3408933" lon="11.6978483"><ele>43.6</ele><time>2026-05-01T12:12:05.44Z</time></trkpt><trkpt lat="44.3409683" lon="11.6977583"><ele>43.800000000000004</ele><time>2026-05-01T12:12:07.439Z</time></trkpt><trkpt lat="44.3410483" lon="11.6976617"><ele>44.0</ele><time>2026-05-01T12:12:09.44Z</time></trkpt><trkpt lat="44.3411267" lon="11.697565"><ele>43.800000000000004</ele><time>2026-05-01T12:12:11.439Z</time></trkpt><trkpt lat="44.341205" lon="11.6974667"><ele>43.6</ele><time>2026-05-01T12:12:13.439Z</time></trkpt><trkpt lat="44.34128" lon="11.6973733"><ele>43.4</ele><time>2026-05-01T12:12:15.44Z</time></trkpt><trkpt lat="44.341355" lon="11.6972717"><ele>43.2</ele><time>2026-05-01T12:12:17.443Z</time></trkpt><trkpt lat="44.3414383" lon="11.6971667"><ele>43.0</ele><time>2026-05-01T12:12:19.44Z</time></trkpt><trkpt lat="44.3415117" lon="11.69707"><ele>43.0</ele><time>2026-05-01T12:12:21.44Z</time></trkpt><trkpt lat="44.341585" lon="11.6969767"><ele>43.0</ele><time>2026-05-01T12:12:23.439Z</time></trkpt><trkpt lat="44.3416633" lon="11.6968783"><ele>43.0</ele><time>2026-05-01T12:12:25.44Z</time></trkpt><trkpt lat="44.341745" lon="11.6967733"><ele>43.0</ele><time>2026-05-01T12:12:27.44Z</time></trkpt><trkpt lat="44.34182" lon="11.696675"><ele>43.0</ele><time>2026-05-01T12:12:29.439Z</time></trkpt><trkpt lat="44.341895" lon="11.696585"><ele>43.4</ele><time>2026-05-01T12:12:31.439Z</time></trkpt><trkpt lat="44.3419667" lon="11.696485"><ele>43.8</ele><time>2026-05-01T12:12:33.44Z</time></trkpt><trkpt lat="44.34204" lon="11.69639"><ele>44.2</ele><time>2026-05-01T12:12:35.438Z</time></trkpt><trkpt lat="44.3421017" lon="11.6963017"><ele>44.6</ele><time>2026-05-01T12:12:37.44Z</time></trkpt><trkpt lat="44.3421733" lon="11.6962033"><ele>45.0</ele><time>2026-05-01T12:12:39.44Z</time></trkpt><trkpt lat="44.3422483" lon="11.6960933"><ele>45.2</ele><time>2026-05-01T12:12:41.444Z</time></trkpt><trkpt lat="44.3423067" lon="11.6959717"><ele>45.4</ele><time>2026-05-01T12:12:43.439Z</time></trkpt><trkpt lat="44.3423367" lon="11.6958317"><ele>45.599999999999994</ele><time>2026-05-01T12:12:45.442Z</time></trkpt><trkpt lat="44.34234" lon="11.6956867"><ele>45.8</ele><time>2026-05-01T12:12:47.443Z</time></trkpt><trkpt lat="44.342315" lon="11.6955517"><ele>46.0</ele><time>2026-05-01T12:12:49.44Z</time></trkpt><trkpt lat="44.3422733" lon="11.6954417"><ele>46.0</ele><time>2026-05-01T12:12:51.439Z</time></trkpt><trkpt lat="44.3422267" lon="11.69533"><ele>46.0</ele><time>2026-05-01T12:12:53.439Z</time></trkpt><trkpt lat="44.3421817" lon="11.6952133"><ele>46.0</ele><time>2026-05-01T12:12:55.44Z</time></trkpt><trkpt lat="44.3421317" lon="11.6950867"><ele>46.0</ele><time>2026-05-01T12:12:57.439Z</time></trkpt><trkpt lat="44.3420767" lon="11.69496"><ele>46.0</ele><time>2026-05-01T12:12:59.439Z</time></trkpt><trkpt lat="44.3420183" lon="11.6948267"><ele>45.8</ele><time>2026-05-01T12:13:01.439Z</time></trkpt><trkpt lat="44.3419633" lon="11.6947017"><ele>45.599999999999994</ele><time>2026-05-01T12:13:03.44Z</time></trkpt><trkpt lat="44.3419083" lon="11.6945867"><ele>45.4</ele><time>2026-05-01T12:13:05.44Z</time></trkpt><trkpt lat="44.3418567" lon="11.69446"><ele>45.2</ele><time>2026-05-01T12:13:07.44Z</time></trkpt><trkpt lat="44.3418083" lon="11.6943333"><ele>45.0</ele><time>2026-05-01T12:13:09.441Z</time></trkpt><trkpt lat="44.341755" lon="11.6942117"><ele>45.6</ele><time>2026-05-01T12:13:11.44Z</time></trkpt><trkpt lat="44.3417067" lon="11.6940933"><ele>46.2</ele><time>2026-05-01T12:13:13.44Z</time></trkpt><trkpt lat="44.3416617" lon="11.6939667"><ele>46.8</ele><time>2026-05-01T12:13:15.44Z</time></trkpt><trkpt lat="44.3416083" lon="11.6938483"><ele>47.4</ele><time>2026-05-01T12:13:17.442Z</time></trkpt><trkpt lat="44.3415583" lon="11.693745"><ele>48.0</ele><time>2026-05-01T12:13:19.443Z</time></trkpt><trkpt lat="44.3414983" lon="11.6936517"><ele>48.166666666666664</ele><time>2026-05-01T12:13:21.439Z</time></trkpt><trkpt lat="44.34145" lon="11.6935733"><ele>48.33333333333333</ele><time>2026-05-01T12:13:23.44Z</time></trkpt><trkpt lat="44.341405" lon="11.6934783"><ele>48.5</ele><time>2026-05-01T12:13:26.44Z</time></trkpt><trkpt lat="44.341415" lon="11.693355"><ele>48.666666666666664</ele><time>2026-05-01T12:13:33.441Z</time></trkpt><trkpt lat="44.3413817" lon="11.6932467"><ele>48.83333333333333</ele><time>2026-05-01T12:13:36.441Z</time></trkpt><trkpt lat="44.3413033" lon="11.6931667"><ele>49.0</ele><time>2026-05-01T12:13:39.441Z</time></trkpt><trkpt lat="44.34125" lon="11.6931017"><ele>48.99999999999999</ele><time>2026-05-01T12:13:41.446Z</time></trkpt><trkpt lat="44.3411933" lon="11.6930317"><ele>49.0</ele><time>2026-05-01T12:13:43.441Z</time></trkpt><trkpt lat="44.34113" lon="11.69296"><ele>49.0</ele><time>2026-05-01T12:13:45.44Z</time></trkpt><trkpt lat="44.34107" lon="11.69288"><ele>49.0</ele><time>2026-05-01T12:13:47.441Z</time></trkpt><trkpt lat="44.3410067" lon="11.6928117"><ele>48.99999999999999</ele><time>2026-05-01T12:13:49.443Z</time></trkpt><trkpt lat="44.3409367" lon="11.6927517"><ele>49.0</ele><time>2026-05-01T12:13:51.442Z</time></trkpt><trkpt lat="44.3408683" lon="11.69267"><ele>48.800000000000004</ele><time>2026-05-01T12:13:53.442Z</time></trkpt><trkpt lat="44.3407967" lon="11.6925783"><ele>48.6</ele><time>2026-05-01T12:13:55.44Z</time></trkpt><trkpt lat="44.340725" lon="11.6924917"><ele>48.4</ele><time>2026-05-01T12:13:57.44Z</time></trkpt><trkpt lat="44.3406517" lon="11.6923983"><ele>48.2</ele><time>2026-05-01T12:13:59.44Z</time></trkpt><trkpt lat="44.340575" lon="11.6923083"><ele>48.0</ele><time>2026-05-01T12:14:01.439Z</time></trkpt><trkpt lat="44.3405067" lon="11.6922233"><ele>48.0</ele><time>2026-05-01T12:14:03.439Z</time></trkpt><trkpt lat="44.340435" lon="11.69213"><ele>48.0</ele><time>2026-05-01T12:14:05.44Z</time></trkpt><trkpt lat="44.3403683" lon="11.6920417"><ele>48.0</ele><time>2026-05-01T12:14:07.441Z</time></trkpt><trkpt lat="44.3403083" lon="11.6919583"><ele>48.0</ele><time>2026-05-01T12:14:09.439Z</time></trkpt><trkpt lat="44.3402533" lon="11.6918783"><ele>48.0</ele><time>2026-05-01T12:14:11.439Z</time></trkpt><trkpt lat="44.3402417" lon="11.6917717"><ele>48.0</ele><time>2026-05-01T12:14:13.44Z</time></trkpt><trkpt lat="44.3402267" lon="11.6916417"><ele>48.4</ele><time>2026-05-01T12:14:15.44Z</time></trkpt><trkpt lat="44.3401783" lon="11.6915217"><ele>48.8</ele><time>2026-05-01T12:14:17.439Z</time></trkpt><trkpt lat="44.3401033" lon="11.691385"><ele>49.2</ele><time>2026-05-01T12:14:19.443Z</time></trkpt><trkpt lat="44.3400533" lon="11.6913267"><ele>49.6</ele><time>2026-05-01T12:14:20.443Z</time></trkpt><trkpt lat="44.3399617" lon="11.69123"><ele>50.0</ele><time>2026-05-01T12:14:22.442Z</time></trkpt><trkpt lat="44.3398717" lon="11.691185"><ele>50.0</ele><time>2026-05-01T12:14:24.443Z</time></trkpt><trkpt lat="44.33981" lon="11.6912117"><ele>50.0</ele><time>2026-05-01T12:14:26.44Z</time></trkpt><trkpt lat="44.3397433" lon="11.6911833"><ele>50.0</ele><time>2026-05-01T12:14:29.44Z</time></trkpt><trkpt lat="44.339675" lon="11.6910783"><ele>50.0</ele><time>2026-05-01T12:14:31.441Z</time></trkpt><trkpt lat="44.3396017" lon="11.6909533"><ele>50.0</ele><time>2026-05-01T12:14:33.44Z</time></trkpt><trkpt lat="44.339535" lon="11.69084"><ele>50.2</ele><time>2026-05-01T12:14:35.439Z</time></trkpt><trkpt lat="44.3394683" lon="11.6907333"><ele>50.4</ele><time>2026-05-01T12:14:37.441Z</time></trkpt><trkpt lat="44.3394067" lon="11.6906383"><ele>50.599999999999994</ele><time>2026-05-01T12:14:39.44Z</time></trkpt><trkpt lat="44.33935" lon="11.690545"><ele>50.8</ele><time>2026-05-01T12:14:41.44Z</time></trkpt><trkpt lat="44.3392967" lon="11.6904433"><ele>51.0</ele><time>2026-05-01T12:14:43.44Z</time></trkpt><trkpt lat="44.3392517" lon="11.6903333"><ele>51.166666666666664</ele><time>2026-05-01T12:14:45.44Z</time></trkpt><trkpt lat="44.3392083" lon="11.69022"><ele>51.33333333333333</ele><time>2026-05-01T12:14:47.443Z</time></trkpt><trkpt lat="44.3391817" lon="11.6901033"><ele>51.5</ele><time>2026-05-01T12:14:49.442Z</time></trkpt><trkpt lat="44.3392233" lon="11.6900017"><ele>51.666666666666664</ele><time>2026-05-01T12:14:51.443Z</time></trkpt><trkpt lat="44.3392167" lon="11.689885"><ele>51.83333333333333</ele><time>2026-05-01T12:14:53.443Z</time></trkpt><trkpt lat="44.3391733" lon="11.6897883"><ele>52.0</ele><time>2026-05-01T12:14:55.44Z</time></trkpt><trkpt lat="44.3391233" lon="11.6897033"><ele>52.0</ele><time>2026-05-01T12:14:57.441Z</time></trkpt><trkpt lat="44.3390567" lon="11.6896167"><ele>52.0</ele><time>2026-05-01T12:14:59.44Z</time></trkpt><trkpt lat="44.33899" lon="11.6895433"><ele>52.0</ele><time>2026-05-01T12:15:01.441Z</time></trkpt><trkpt lat="44.3389283" lon="11.6894467"><ele>52.0</ele><time>2026-05-01T12:15:03.44Z</time></trkpt><trkpt lat="44.3388733" lon="11.6893367"><ele>52.0</ele><time>2026-05-01T12:15:05.439Z</time></trkpt><trkpt lat="44.3388133" lon="11.6892317"><ele>51.8</ele><time>2026-05-01T12:15:07.443Z</time></trkpt><trkpt lat="44.3387467" lon="11.689125"><ele>51.6</ele><time>2026-05-01T12:15:09.443Z</time></trkpt><trkpt lat="44.33868" lon="11.6890233"><ele>51.4</ele><time>2026-05-01T12:15:11.44Z</time></trkpt><trkpt lat="44.3386117" lon="11.6889233"><ele>51.199999999999996</ele><time>2026-05-01T12:15:13.442Z</time></trkpt><trkpt lat="44.33854" lon="11.68883"><ele>51.0</ele><time>2026-05-01T12:15:15.439Z</time></trkpt><trkpt lat="44.3384683" lon="11.6887483"><ele>51.0</ele><time>2026-05-01T12:15:17.443Z</time></trkpt><trkpt lat="44.3384067" lon="11.6886433"><ele>51.0</ele><time>2026-05-01T12:15:19.44Z</time></trkpt><trkpt lat="44.338335" lon="11.68853"><ele>51.0</ele><time>2026-05-01T12:15:21.442Z</time></trkpt><trkpt lat="44.3382717" lon="11.68842"><ele>51.0</ele><time>2026-05-01T12:15:23.44Z</time></trkpt><trkpt lat="44.3382083" lon="11.6883117"><ele>51.0</ele><time>2026-05-01T12:15:25.44Z</time></trkpt><trkpt lat="44.3381367" lon="11.6882083"><ele>51.4</ele><time>2026-05-01T12:15:27.441Z</time></trkpt><trkpt lat="44.3380667" lon="11.6881083"><ele>51.8</ele><time>2026-05-01T12:15:29.441Z</time></trkpt><trkpt lat="44.3379967" lon="11.6880017"><ele>52.199999999999996</ele><time>2026-05-01T12:15:31.443Z</time></trkpt><trkpt lat="44.3379217" lon="11.6878967"><ele>52.599999999999994</ele><time>2026-05-01T12:15:33.443Z</time></trkpt><trkpt lat="44.3378467" lon="11.6877933"><ele>53.0</ele><time>2026-05-01T12:15:35.44Z</time></trkpt><trkpt lat="44.3377667" lon="11.6876867"><ele>53.0</ele><time>2026-05-01T12:15:37.44Z</time></trkpt><trkpt lat="44.3376867" lon="11.6875783"><ele>53.0</ele><time>2026-05-01T12:15:39.44Z</time></trkpt><trkpt lat="44.3376083" lon="11.6874717"><ele>53.0</ele><time>2026-05-01T12:15:41.44Z</time></trkpt><trkpt lat="44.3375333" lon="11.687365"><ele>53.0</ele><time>2026-05-01T12:15:43.44Z</time></trkpt><trkpt lat="44.3374617" lon="11.6872683"><ele>53.0</ele><time>2026-05-01T12:15:45.44Z</time></trkpt><trkpt lat="44.3373883" lon="11.6871767"><ele>53.0</ele><time>2026-05-01T12:15:47.443Z</time></trkpt><trkpt lat="44.337315" lon="11.68708"><ele>53.0</ele><time>2026-05-01T12:15:49.44Z</time></trkpt><trkpt lat="44.3372417" lon="11.6869717"><ele>53.0</ele><time>2026-05-01T12:15:51.441Z</time></trkpt><trkpt lat="44.337155" lon="11.6868517"><ele>53.0</ele><time>2026-05-01T12:15:53.44Z</time></trkpt><trkpt lat="44.3371033" lon="11.68679"><ele>53.0</ele><time>2026-05-01T12:15:54.441Z</time></trkpt><trkpt lat="44.3370517" lon="11.6867233"><ele>53.00000000000001</ele><time>2026-05-01T12:15:55.442Z</time></trkpt><trkpt lat="44.3370067" lon="11.6866533"><ele>53.0</ele><time>2026-05-01T12:15:56.441Z</time></trkpt><trkpt lat="44.3369617" lon="11.6865817"><ele>53.0</ele><time>2026-05-01T12:15:57.441Z</time></trkpt><trkpt lat="44.336915" lon="11.6865133"><ele>53.0</ele><time>2026-05-01T12:15:58.441Z</time></trkpt><trkpt lat="44.3368667" lon="11.686455"><ele>53.00000000000001</ele><time>2026-05-01T12:15:59.441Z</time></trkpt><trkpt lat="44.336785" lon="11.68634"><ele>53.0</ele><time>2026-05-01T12:16:01.442Z</time></trkpt><trkpt lat="44.3367117" lon="11.6862283"><ele>53.0</ele><time>2026-05-01T12:16:03.441Z</time></trkpt><trkpt lat="44.33664" lon="11.686125"><ele>53.0</ele><time>2026-05-01T12:16:05.44Z</time></trkpt><trkpt lat="44.33656" lon="11.6860333"><ele>53.0</ele><time>2026-05-01T12:16:07.441Z</time></trkpt><trkpt lat="44.33648" lon="11.6859467"><ele>53.0</ele><time>2026-05-01T12:16:09.44Z</time></trkpt><trkpt lat="44.3363983" lon="11.6858633"><ele>53.0</ele><time>2026-05-01T12:16:11.44Z</time></trkpt><trkpt lat="44.336315" lon="11.68578"><ele>52.599999999999994</ele><time>2026-05-01T12:16:13.441Z</time></trkpt><trkpt lat="44.33623" lon="11.6857017"><ele>52.199999999999996</ele><time>2026-05-01T12:16:15.441Z</time></trkpt><trkpt lat="44.33615" lon="11.6856183"><ele>51.8</ele><time>2026-05-01T12:16:17.444Z</time></trkpt><trkpt lat="44.3360733" lon="11.68553"><ele>51.4</ele><time>2026-05-01T12:16:19.439Z</time></trkpt><trkpt lat="44.3359933" lon="11.6854317"><ele>51.0</ele><time>2026-05-01T12:16:21.44Z</time></trkpt><trkpt lat="44.3359167" lon="11.6853467"><ele>51.0</ele><time>2026-05-01T12:16:23.44Z</time></trkpt><trkpt lat="44.3358417" lon="11.6852867"><ele>51.0</ele><time>2026-05-01T12:16:25.44Z</time></trkpt><trkpt lat="44.335805" lon="11.6852017"><ele>51.0</ele><time>2026-05-01T12:16:28.44Z</time></trkpt><trkpt lat="44.3357867" lon="11.6850733"><ele>51.0</ele><time>2026-05-01T12:16:31.441Z</time></trkpt><trkpt lat="44.3357383" lon="11.6849817"><ele>51.0</ele><time>2026-05-01T12:16:33.441Z</time></trkpt><trkpt lat="44.335675" lon="11.6848867"><ele>51.0</ele><time>2026-05-01T12:16:35.44Z</time></trkpt><trkpt lat="44.3355967" lon="11.6847933"><ele>51.0</ele><time>2026-05-01T12:16:37.443Z</time></trkpt><trkpt lat="44.3355083" lon="11.6847183"><ele>51.0</ele><time>2026-05-01T12:16:39.442Z</time></trkpt><trkpt lat="44.33542" lon="11.684645"><ele>51.0</ele><time>2026-05-01T12:16:41.443Z</time></trkpt><trkpt lat="44.335335" lon="11.684565"><ele>51.0</ele><time>2026-05-01T12:16:43.443Z</time></trkpt><trkpt lat="44.33526" lon="11.6844617"><ele>51.0</ele><time>2026-05-01T12:16:45.443Z</time></trkpt><trkpt lat="44.3351967" lon="11.6843483"><ele>51.199999999999996</ele><time>2026-05-01T12:16:47.443Z</time></trkpt><trkpt lat="44.3351333" lon="11.6842333"><ele>51.4</ele><time>2026-05-01T12:16:49.44Z</time></trkpt><trkpt lat="44.3350617" lon="11.6841233"><ele>51.6</ele><time>2026-05-01T12:16:51.44Z</time></trkpt><trkpt lat="44.3349783" lon="11.68402"><ele>51.8</ele><time>2026-05-01T12:16:53.441Z</time></trkpt><trkpt lat="44.3349" lon="11.683915"><ele>52.0</ele><time>2026-05-01T12:16:55.442Z</time></trkpt><trkpt lat="44.3348167" lon="11.6838"><ele>52.0</ele><time>2026-05-01T12:16:57.439Z</time></trkpt><trkpt lat="44.33474" lon="11.6836733"><ele>52.0</ele><time>2026-05-01T12:16:59.44Z</time></trkpt><trkpt lat="44.3346583" lon="11.6835633"><ele>52.0</ele><time>2026-05-01T12:17:01.441Z</time></trkpt><trkpt lat="44.3345667" lon="11.6834717"><ele>52.0</ele><time>2026-05-01T12:17:03.44Z</time></trkpt><trkpt lat="44.3344683" lon="11.6833883"><ele>51.75</ele><time>2026-05-01T12:17:05.44Z</time></trkpt><trkpt lat="44.33437" lon="11.6833133"><ele>51.5</ele><time>2026-05-01T12:17:07.441Z</time></trkpt><trkpt lat="44.334285" lon="11.6832017"><ele>51.25</ele><time>2026-05-01T12:17:09.439Z</time></trkpt><trkpt lat="44.3342017" lon="11.683075"><ele>51.0</ele><time>2026-05-01T12:17:11.44Z</time></trkpt><trkpt lat="44.334115" lon="11.6829517"><ele>51.0</ele><time>2026-05-01T12:17:13.443Z</time></trkpt><trkpt lat="44.3340233" lon="11.6828467"><ele>51.0</ele><time>2026-05-01T12:17:15.44Z</time></trkpt><trkpt lat="44.333975" lon="11.68279"><ele>51.0</ele><time>2026-05-01T12:17:16.442Z</time></trkpt><trkpt lat="44.3338867" lon="11.6826767"><ele>51.0</ele><time>2026-05-01T12:17:18.442Z</time></trkpt><trkpt lat="44.3338017" lon="11.68256"><ele>51.0</ele><time>2026-05-01T12:17:20.441Z</time></trkpt><trkpt lat="44.3337017" lon="11.6824767"><ele>51.0</ele><time>2026-05-01T12:17:22.441Z</time></trkpt><trkpt lat="44.3335933" lon="11.6824083"><ele>51.0</ele><time>2026-05-01T12:17:24.442Z</time></trkpt><trkpt lat="44.3334833" lon="11.6823433"><ele>51.0</ele><time>2026-05-01T12:17:26.441Z</time></trkpt><trkpt lat="44.3333817" lon="11.6822767"><ele>51.0</ele><time>2026-05-01T12:17:28.442Z</time></trkpt><trkpt lat="44.3332733" lon="11.682215"><ele>51.0</ele><time>2026-05-01T12:17:30.442Z</time></trkpt><trkpt lat="44.333165" lon="11.682145"><ele>51.0</ele><time>2026-05-01T12:17:32.441Z</time></trkpt><trkpt lat="44.3330617" lon="11.6820767"><ele>51.0</ele><time>2026-05-01T12:17:34.442Z</time></trkpt><trkpt lat="44.33296" lon="11.6820133"><ele>51.0</ele><time>2026-05-01T12:17:36.442Z</time></trkpt><trkpt lat="44.3328533" lon="11.6819517"><ele>51.5</ele><time>2026-05-01T12:17:38.441Z</time></trkpt><trkpt lat="44.3327467" lon="11.6818833"><ele>52.0</ele><time>2026-05-01T12:17:40.441Z</time></trkpt><trkpt lat="44.33264" lon="11.6818167"><ele>52.5</ele><time>2026-05-01T12:17:42.442Z</time></trkpt><trkpt lat="44.332545" lon="11.6817317"><ele>53.0</ele><time>2026-05-01T12:17:44.441Z</time></trkpt><trkpt lat="44.3324417" lon="11.6816767"><ele>53.0</ele><time>2026-05-01T12:17:46.443Z</time></trkpt><trkpt lat="44.332335" lon="11.6816233"><ele>53.0</ele><time>2026-05-01T12:17:48.443Z</time></trkpt><trkpt lat="44.3322383" lon="11.6815533"><ele>53.0</ele><time>2026-05-01T12:17:50.442Z</time></trkpt><trkpt lat="44.3321517" lon="11.6814617"><ele>53.0</ele><time>2026-05-01T12:17:52.443Z</time></trkpt><trkpt lat="44.3320633" lon="11.6813667"><ele>53.0</ele><time>2026-05-01T12:17:54.442Z</time></trkpt><trkpt lat="44.3319767" lon="11.68127"><ele>52.833333333333336</ele><time>2026-05-01T12:17:56.442Z</time></trkpt><trkpt lat="44.3318917" lon="11.6811683"><ele>52.66666666666667</ele><time>2026-05-01T12:17:58.442Z</time></trkpt><trkpt lat="44.3318133" lon="11.6810767"><ele>52.5</ele><time>2026-05-01T12:18:00.443Z</time></trkpt><trkpt lat="44.3317517" lon="11.681005"><ele>52.33333333333333</ele><time>2026-05-01T12:18:02.442Z</time></trkpt><trkpt lat="44.3317183" lon="11.6808967"><ele>52.166666666666664</ele><time>2026-05-01T12:18:05.442Z</time></trkpt><trkpt lat="44.331655" lon="11.6808633"><ele>52.0</ele><time>2026-05-01T12:18:09.441Z</time></trkpt><trkpt lat="44.331605" lon="11.680935"><ele>51.99999999999999</ele><time>2026-05-01T12:18:12.443Z</time></trkpt><trkpt lat="44.3315483" lon="11.68104"><ele>52.0</ele><time>2026-05-01T12:18:15.439Z</time></trkpt><trkpt lat="44.3315083" lon="11.6811367"><ele>52.0</ele><time>2026-05-01T12:18:18.444Z</time></trkpt><trkpt lat="44.33147" lon="11.6812217"><ele>52.0</ele><time>2026-05-01T12:18:23.443Z</time></trkpt><trkpt lat="44.3313867" lon="11.6812083"><ele>51.99999999999999</ele><time>2026-05-01T12:18:26.441Z</time></trkpt><trkpt lat="44.3313217" lon="11.681155"><ele>52.0</ele><time>2026-05-01T12:18:28.441Z</time></trkpt><trkpt lat="44.331245" lon="11.68108"><ele>52.0</ele><time>2026-05-01T12:18:30.439Z</time></trkpt><trkpt lat="44.3311583" lon="11.6810067"><ele>52.0</ele><time>2026-05-01T12:18:32.439Z</time></trkpt><trkpt lat="44.3310667" lon="11.680925"><ele>52.0</ele><time>2026-05-01T12:18:34.438Z</time></trkpt><trkpt lat="44.330975" lon="11.6808467"><ele>52.0</ele><time>2026-05-01T12:18:36.438Z</time></trkpt><trkpt lat="44.3308917" lon="11.6807583"><ele>52.0</ele><time>2026-05-01T12:18:38.439Z</time></trkpt><trkpt lat="44.3308" lon="11.6806783"><ele>52.0</ele><time>2026-05-01T12:18:40.445Z</time></trkpt><trkpt lat="44.3307083" lon="11.6806083"><ele>52.0</ele><time>2026-05-01T12:18:42.44Z</time></trkpt><trkpt lat="44.3306117" lon="11.680535"><ele>52.0</ele><time>2026-05-01T12:18:44.441Z</time></trkpt><trkpt lat="44.3305167" lon="11.6804567"><ele>52.0</ele><time>2026-05-01T12:18:46.442Z</time></trkpt><trkpt lat="44.330415" lon="11.6803867"><ele>52.0</ele><time>2026-05-01T12:18:48.442Z</time></trkpt><trkpt lat="44.3303167" lon="11.68032"><ele>52.0</ele><time>2026-05-01T12:18:50.443Z</time></trkpt><trkpt lat="44.33022" lon="11.6802617"><ele>52.0</ele><time>2026-05-01T12:18:52.442Z</time></trkpt><trkpt lat="44.330125" lon="11.68021"><ele>52.0</ele><time>2026-05-01T12:18:54.443Z</time></trkpt><trkpt lat="44.3300317" lon="11.6801533"><ele>52.0</ele><time>2026-05-01T12:18:56.44Z</time></trkpt><trkpt lat="44.3299333" lon="11.6800933"><ele>52.0</ele><time>2026-05-01T12:18:58.44Z</time></trkpt><trkpt lat="44.3298233" lon="11.680055"><ele>52.2</ele><time>2026-05-01T12:19:00.44Z</time></trkpt><trkpt lat="44.3297167" lon="11.6800767"><ele>52.400000000000006</ele><time>2026-05-01T12:19:02.441Z</time></trkpt><trkpt lat="44.32962" lon="11.6801233"><ele>52.599999999999994</ele><time>2026-05-01T12:19:04.44Z</time></trkpt><trkpt lat="44.3295133" lon="11.680155"><ele>52.8</ele><time>2026-05-01T12:19:06.44Z</time></trkpt><trkpt lat="44.32941" lon="11.6801483"><ele>53.0</ele><time>2026-05-01T12:19:08.44Z</time></trkpt><trkpt lat="44.32931" lon="11.6801067"><ele>53.0</ele><time>2026-05-01T12:19:10.439Z</time></trkpt><trkpt lat="44.329215" lon="11.6800483"><ele>53.0</ele><time>2026-05-01T12:19:12.442Z</time></trkpt><trkpt lat="44.3291233" lon="11.6799783"><ele>53.0</ele><time>2026-05-01T12:19:14.44Z</time></trkpt><trkpt lat="44.3290383" lon="11.6799117"><ele>53.0</ele><time>2026-05-01T12:19:16.44Z</time></trkpt><trkpt lat="44.32895" lon="11.6798467"><ele>53.0</ele><time>2026-05-01T12:19:18.442Z</time></trkpt><trkpt lat="44.3288667" lon="11.6797633"><ele>53.0</ele><time>2026-05-01T12:19:20.439Z</time></trkpt><trkpt lat="44.328785" lon="11.6796667"><ele>53.0</ele><time>2026-05-01T12:19:22.443Z</time></trkpt><trkpt lat="44.3287167" lon="11.6795517"><ele>53.0</ele><time>2026-05-01T12:19:24.443Z</time></trkpt><trkpt lat="44.3286517" lon="11.6794233"><ele>53.0</ele><time>2026-05-01T12:19:26.44Z</time></trkpt><trkpt lat="44.32859" lon="11.67929"><ele>53.0</ele><time>2026-05-01T12:19:28.44Z</time></trkpt><trkpt lat="44.3285267" lon="11.6791517"><ele>53.00000000000001</ele><time>2026-05-01T12:19:30.442Z</time></trkpt><trkpt lat="44.3284633" lon="11.6790167"><ele>53.0</ele><time>2026-05-01T12:19:32.442Z</time></trkpt><trkpt lat="44.3283983" lon="11.6788767"><ele>53.0</ele><time>2026-05-01T12:19:34.44Z</time></trkpt><trkpt lat="44.3283667" lon="11.6787983"><ele>53.0</ele><time>2026-05-01T12:19:35.439Z</time></trkpt><trkpt lat="44.3283367" lon="11.6787183"><ele>53.00000000000001</ele><time>2026-05-01T12:19:36.44Z</time></trkpt><trkpt lat="44.3283" lon="11.6786417"><ele>53.0</ele><time>2026-05-01T12:19:37.439Z</time></trkpt><trkpt lat="44.3282083" lon="11.6785183"><ele>53.142857142857146</ele><time>2026-05-01T12:19:39.441Z</time></trkpt><trkpt lat="44.3281517" lon="11.6784617"><ele>53.285714285714285</ele><time>2026-05-01T12:19:40.442Z</time></trkpt><trkpt lat="44.32808" lon="11.6784333"><ele>53.42857142857143</ele><time>2026-05-01T12:19:41.441Z</time></trkpt><trkpt lat="44.32801" lon="11.6784117"><ele>53.57142857142857</ele><time>2026-05-01T12:19:42.439Z</time></trkpt><trkpt lat="44.3279383" lon="11.678395"><ele>53.71428571428571</ele><time>2026-05-01T12:19:43.44Z</time></trkpt><trkpt lat="44.3278733" lon="11.6783767"><ele>53.857142857142854</ele><time>2026-05-01T12:19:44.44Z</time></trkpt><trkpt lat="44.3278117" lon="11.678355"><ele>54.0</ele><time>2026-05-01T12:19:45.44Z</time></trkpt><trkpt lat="44.3277483" lon="11.6783283"><ele>53.666666666666664</ele><time>2026-05-01T12:19:46.443Z</time></trkpt><trkpt lat="44.3276867" lon="11.678305"><ele>53.33333333333333</ele><time>2026-05-01T12:19:47.439Z</time></trkpt><trkpt lat="44.3276267" lon="11.6782783"><ele>53.0</ele><time>2026-05-01T12:19:48.443Z</time></trkpt><trkpt lat="44.327565" lon="11.6782533"><ele>52.666666666666664</ele><time>2026-05-01T12:19:49.443Z</time></trkpt><trkpt lat="44.3275033" lon="11.678225"><ele>52.33333333333333</ele><time>2026-05-01T12:19:50.439Z</time></trkpt><trkpt lat="44.3273933" lon="11.6781667"><ele>52.0</ele><time>2026-05-01T12:19:52.443Z</time></trkpt><trkpt lat="44.3272917" lon="11.6781067"><ele>51.75</ele><time>2026-05-01T12:19:54.44Z</time></trkpt><trkpt lat="44.3271983" lon="11.6780217"><ele>51.5</ele><time>2026-05-01T12:19:56.44Z</time></trkpt><trkpt lat="44.3271183" lon="11.6779167"><ele>51.25</ele><time>2026-05-01T12:19:58.44Z</time></trkpt><trkpt lat="44.3270433" lon="11.6777933"><ele>51.0</ele><time>2026-05-01T12:20:00.439Z</time></trkpt><trkpt lat="44.32697" lon="11.6776583"><ele>51.8</ele><time>2026-05-01T12:20:02.44Z</time></trkpt><trkpt lat="44.3269" lon="11.677525"><ele>52.599999999999994</ele><time>2026-05-01T12:20:04.441Z</time></trkpt><trkpt lat="44.32683" lon="11.6774017"><ele>53.4</ele><time>2026-05-01T12:20:06.44Z</time></trkpt><trkpt lat="44.3267567" lon="11.67729"><ele>54.2</ele><time>2026-05-01T12:20:08.441Z</time></trkpt><trkpt lat="44.3266833" lon="11.6771817"><ele>55.0</ele><time>2026-05-01T12:20:10.44Z</time></trkpt><trkpt lat="44.3266133" lon="11.6770583"><ele>55.0</ele><time>2026-05-01T12:20:12.44Z</time></trkpt><trkpt lat="44.3265383" lon="11.6769467"><ele>55.0</ele><time>2026-05-01T12:20:14.441Z</time></trkpt><trkpt lat="44.3264667" lon="11.676835"><ele>55.0</ele><time>2026-05-01T12:20:16.44Z</time></trkpt><trkpt lat="44.326395" lon="11.6767183"><ele>55.0</ele><time>2026-05-01T12:20:18.44Z</time></trkpt><trkpt lat="44.32632" lon="11.6766017"><ele>55.0</ele><time>2026-05-01T12:20:20.441Z</time></trkpt><trkpt lat="44.3262467" lon="11.6764917"><ele>55.0</ele><time>2026-05-01T12:20:22.443Z</time></trkpt><trkpt lat="44.32618" lon="11.6763683"><ele>55.0</ele><time>2026-05-01T12:20:24.443Z</time></trkpt><trkpt lat="44.3261033" lon="11.67625"><ele>55.0</ele><time>2026-05-01T12:20:26.442Z</time></trkpt><trkpt lat="44.3260233" lon="11.6761283"><ele>55.0</ele><time>2026-05-01T12:20:28.44Z</time></trkpt><trkpt lat="44.3259433" lon="11.6760033"><ele>54.83333333333333</ele><time>2026-05-01T12:20:30.439Z</time></trkpt><trkpt lat="44.325905" lon="11.6759333"><ele>54.666666666666664</ele><time>2026-05-01T12:20:31.44Z</time></trkpt><trkpt lat="44.3258383" lon="11.6757917"><ele>54.5</ele><time>2026-05-01T12:20:33.44Z</time></trkpt><trkpt lat="44.3257733" lon="11.67565"><ele>54.33333333333333</ele><time>2026-05-01T12:20:35.439Z</time></trkpt><trkpt lat="44.325735" lon="11.6755783"><ele>54.166666666666664</ele><time>2026-05-01T12:20:36.44Z</time></trkpt><trkpt lat="44.3256917" lon="11.67551"><ele>54.0</ele><time>2026-05-01T12:20:37.44Z</time></trkpt><trkpt lat="44.3256417" lon="11.6754483"><ele>54.0</ele><time>2026-05-01T12:20:38.441Z</time></trkpt><trkpt lat="44.3255933" lon="11.67539"><ele>54.00000000000001</ele><time>2026-05-01T12:20:39.44Z</time></trkpt><trkpt lat="44.3255417" lon="11.675335"><ele>54.00000000000001</ele><time>2026-05-01T12:20:40.439Z</time></trkpt><trkpt lat="44.3254433" lon="11.67523"><ele>54.0</ele><time>2026-05-01T12:20:42.44Z</time></trkpt><trkpt lat="44.3253433" lon="11.6751283"><ele>54.0</ele><time>2026-05-01T12:20:44.439Z</time></trkpt><trkpt lat="44.3252417" lon="11.67503"><ele>54.166666666666664</ele><time>2026-05-01T12:20:46.442Z</time></trkpt><trkpt lat="44.3251883" lon="11.6749833"><ele>54.33333333333333</ele><time>2026-05-01T12:20:47.443Z</time></trkpt><trkpt lat="44.3251333" lon="11.6749383"><ele>54.5</ele><time>2026-05-01T12:20:48.442Z</time></trkpt><trkpt lat="44.3250783" lon="11.6748917"><ele>54.666666666666664</ele><time>2026-05-01T12:20:49.443Z</time></trkpt><trkpt lat="44.3249733" lon="11.6748033"><ele>54.83333333333333</ele><time>2026-05-01T12:20:51.442Z</time></trkpt><trkpt lat="44.3248667" lon="11.67472"><ele>55.0</ele><time>2026-05-01T12:20:53.443Z</time></trkpt><trkpt lat="44.32481" lon="11.6746717"><ele>54.99999999999999</ele><time>2026-05-01T12:20:54.442Z</time></trkpt><trkpt lat="44.3247517" lon="11.6746283"><ele>55.0</ele><time>2026-05-01T12:20:55.44Z</time></trkpt><trkpt lat="44.3246933" lon="11.6745883"><ele>55.0</ele><time>2026-05-01T12:20:56.44Z</time></trkpt><trkpt lat="44.3246367" lon="11.6745483"><ele>55.0</ele><time>2026-05-01T12:20:57.441Z</time></trkpt><trkpt lat="44.32458" lon="11.6745083"><ele>55.0</ele><time>2026-05-01T12:20:58.441Z</time></trkpt><trkpt lat="44.3245233" lon="11.67447"><ele>54.99999999999999</ele><time>2026-05-01T12:20:59.44Z</time></trkpt><trkpt lat="44.32441" lon="11.6743983"><ele>55.0</ele><time>2026-05-01T12:21:01.441Z</time></trkpt><trkpt lat="44.3243517" lon="11.674365"><ele>55.0</ele><time>2026-05-01T12:21:02.44Z</time></trkpt><trkpt lat="44.3242933" lon="11.67433"><ele>55.0</ele><time>2026-05-01T12:21:03.44Z</time></trkpt><trkpt lat="44.3241817" lon="11.6742583"><ele>55.0</ele><time>2026-05-01T12:21:05.441Z</time></trkpt><trkpt lat="44.32407" lon="11.6741917"><ele>55.0</ele><time>2026-05-01T12:21:07.44Z</time></trkpt><trkpt lat="44.323955" lon="11.67413"><ele>55.0</ele><time>2026-05-01T12:21:09.439Z</time></trkpt><trkpt lat="44.3238417" lon="11.6740633"><ele>55.0</ele><time>2026-05-01T12:21:11.44Z</time></trkpt><trkpt lat="44.3237333" lon="11.6739733"><ele>55.0</ele><time>2026-05-01T12:21:13.439Z</time></trkpt><trkpt lat="44.3236483" lon="11.6738517"><ele>55.0</ele><time>2026-05-01T12:21:15.44Z</time></trkpt><trkpt lat="44.3235833" lon="11.6737067"><ele>55.0</ele><time>2026-05-01T12:21:17.443Z</time></trkpt><trkpt lat="44.323555" lon="11.6736267"><ele>55.0</ele><time>2026-05-01T12:21:18.442Z</time></trkpt><trkpt lat="44.3234983" lon="11.6734833"><ele>55.0</ele><time>2026-05-01T12:21:20.442Z</time></trkpt><trkpt lat="44.3234433" lon="11.67335"><ele>55.0</ele><time>2026-05-01T12:21:22.443Z</time></trkpt><trkpt lat="44.3233833" lon="11.6732317"><ele>55.0</ele><time>2026-05-01T12:21:24.443Z</time></trkpt><trkpt lat="44.3233017" lon="11.6731333"><ele>55.0</ele><time>2026-05-01T12:21:26.443Z</time></trkpt><trkpt lat="44.3232083" lon="11.6730467"><ele>55.0</ele><time>2026-05-01T12:21:28.44Z</time></trkpt><trkpt lat="44.323105" lon="11.67296"><ele>54.75</ele><time>2026-05-01T12:21:30.44Z</time></trkpt><trkpt lat="44.3230017" lon="11.6728783"><ele>54.5</ele><time>2026-05-01T12:21:32.44Z</time></trkpt><trkpt lat="44.3229" lon="11.6727917"><ele>54.25</ele><time>2026-05-01T12:21:34.44Z</time></trkpt><trkpt lat="44.3227983" lon="11.67271"><ele>54.0</ele><time>2026-05-01T12:21:36.441Z</time></trkpt><trkpt lat="44.3226983" lon="11.67263"><ele>54.0</ele><time>2026-05-01T12:21:38.44Z</time></trkpt><trkpt lat="44.3226" lon="11.6725483"><ele>54.00000000000001</ele><time>2026-05-01T12:21:40.44Z</time></trkpt><trkpt lat="44.3225017" lon="11.6724633"><ele>54.00000000000001</ele><time>2026-05-01T12:21:42.441Z</time></trkpt><trkpt lat="44.3224167" lon="11.6723783"><ele>54.0</ele><time>2026-05-01T12:21:44.44Z</time></trkpt><trkpt lat="44.3223317" lon="11.6723017"><ele>54.0</ele><time>2026-05-01T12:21:46.443Z</time></trkpt><trkpt lat="44.3222483" lon="11.6722233"><ele>53.800000000000004</ele><time>2026-05-01T12:21:48.441Z</time></trkpt><trkpt lat="44.32218" lon="11.6721167"><ele>53.60000000000001</ele><time>2026-05-01T12:21:50.439Z</time></trkpt><trkpt lat="44.32213" lon="11.6719867"><ele>53.4</ele><time>2026-05-01T12:21:52.44Z</time></trkpt><trkpt lat="44.3220817" lon="11.67184"><ele>53.2</ele><time>2026-05-01T12:21:54.439Z</time></trkpt><trkpt lat="44.3220183" lon="11.6716883"><ele>53.0</ele><time>2026-05-01T12:21:56.439Z</time></trkpt><trkpt lat="44.3219767" lon="11.6716133"><ele>53.4</ele><time>2026-05-01T12:21:57.439Z</time></trkpt><trkpt lat="44.3219333" lon="11.671545"><ele>53.8</ele><time>2026-05-01T12:21:58.439Z</time></trkpt><trkpt lat="44.3218567" lon="11.6714067"><ele>54.2</ele><time>2026-05-01T12:22:00.439Z</time></trkpt><trkpt lat="44.3217767" lon="11.6712783"><ele>54.6</ele><time>2026-05-01T12:22:02.442Z</time></trkpt><trkpt lat="44.321705" lon="11.6711467"><ele>55.0</ele><time>2026-05-01T12:22:04.44Z</time></trkpt><trkpt lat="44.32163" lon="11.6710217"><ele>55.0</ele><time>2026-05-01T12:22:06.441Z</time></trkpt><trkpt lat="44.3215533" lon="11.6708983"><ele>55.0</ele><time>2026-05-01T12:22:08.44Z</time></trkpt><trkpt lat="44.32148" lon="11.6707767"><ele>55.0</ele><time>2026-05-01T12:22:10.443Z</time></trkpt><trkpt lat="44.32141" lon="11.6706567"><ele>55.0</ele><time>2026-05-01T12:22:12.443Z</time></trkpt><trkpt lat="44.3213433" lon="11.67053"><ele>54.857142857142854</ele><time>2026-05-01T12:22:14.442Z</time></trkpt><trkpt lat="44.3212733" lon="11.6703967"><ele>54.714285714285715</ele><time>2026-05-01T12:22:16.44Z</time></trkpt><trkpt lat="44.3212367" lon="11.670325"><ele>54.57142857142857</ele><time>2026-05-01T12:22:17.443Z</time></trkpt><trkpt lat="44.3212" lon="11.6702517"><ele>54.42857142857143</ele><time>2026-05-01T12:22:18.44Z</time></trkpt><trkpt lat="44.3211617" lon="11.670175"><ele>54.285714285714285</ele><time>2026-05-01T12:22:19.439Z</time></trkpt><trkpt lat="44.321125" lon="11.6700983"><ele>54.14285714285714</ele><time>2026-05-01T12:22:20.441Z</time></trkpt><trkpt lat="44.3210917" lon="11.6700217"><ele>54.0</ele><time>2026-05-01T12:22:21.44Z</time></trkpt><trkpt lat="44.32106" lon="11.669945"><ele>54.0</ele><time>2026-05-01T12:22:22.439Z</time></trkpt><trkpt lat="44.3209967" lon="11.669795"><ele>54.0</ele><time>2026-05-01T12:22:24.44Z</time></trkpt><trkpt lat="44.3209583" lon="11.6697217"><ele>54.0</ele><time>2026-05-01T12:22:25.441Z</time></trkpt><trkpt lat="44.320915" lon="11.6696467"><ele>54.0</ele><time>2026-05-01T12:22:26.44Z</time></trkpt><trkpt lat="44.320875" lon="11.6695767"><ele>54.0</ele><time>2026-05-01T12:22:27.44Z</time></trkpt><trkpt lat="44.32081" lon="11.6694417"><ele>54.0</ele><time>2026-05-01T12:22:29.443Z</time></trkpt><trkpt lat="44.3207483" lon="11.6693117"><ele>54.2</ele><time>2026-05-01T12:22:31.443Z</time></trkpt><trkpt lat="44.3206983" lon="11.6691733"><ele>54.400000000000006</ele><time>2026-05-01T12:22:33.443Z</time></trkpt><trkpt lat="44.3206517" lon="11.6690367"><ele>54.6</ele><time>2026-05-01T12:22:35.439Z</time></trkpt><trkpt lat="44.3206167" lon="11.6688983"><ele>54.8</ele><time>2026-05-01T12:22:37.443Z</time></trkpt><trkpt lat="44.32058" lon="11.6687433"><ele>55.0</ele><time>2026-05-01T12:22:39.439Z</time></trkpt><trkpt lat="44.3205433" lon="11.66859"><ele>55.75</ele><time>2026-05-01T12:22:41.444Z</time></trkpt><trkpt lat="44.3204983" lon="11.6684333"><ele>56.5</ele><time>2026-05-01T12:22:43.44Z</time></trkpt><trkpt lat="44.3204583" lon="11.668275"><ele>57.25</ele><time>2026-05-01T12:22:45.44Z</time></trkpt><trkpt lat="44.3204167" lon="11.6681167"><ele>58.0</ele><time>2026-05-01T12:22:47.442Z</time></trkpt><trkpt lat="44.3203783" lon="11.6679583"><ele>58.0</ele><time>2026-05-01T12:22:49.441Z</time></trkpt><trkpt lat="44.320335" lon="11.6677933"><ele>58.0</ele><time>2026-05-01T12:22:51.44Z</time></trkpt><trkpt lat="44.3203083" lon="11.66771"><ele>58.0</ele><time>2026-05-01T12:22:52.441Z</time></trkpt><trkpt lat="44.32026" lon="11.66755"><ele>58.0</ele><time>2026-05-01T12:22:54.44Z</time></trkpt><trkpt lat="44.3202133" lon="11.6673867"><ele>58.0</ele><time>2026-05-01T12:22:56.44Z</time></trkpt><trkpt lat="44.3201683" lon="11.6672383"><ele>58.0</ele><time>2026-05-01T12:22:58.44Z</time></trkpt><trkpt lat="44.3201283" lon="11.6670917"><ele>58.0</ele><time>2026-05-01T12:23:00.441Z</time></trkpt><trkpt lat="44.320085" lon="11.66695"><ele>58.0</ele><time>2026-05-01T12:23:02.44Z</time></trkpt><trkpt lat="44.3200467" lon="11.6668067"><ele>58.0</ele><time>2026-05-01T12:23:04.441Z</time></trkpt><trkpt lat="44.3200083" lon="11.6666617"><ele>58.0</ele><time>2026-05-01T12:23:06.441Z</time></trkpt><trkpt lat="44.31997" lon="11.666525"><ele>58.0</ele><time>2026-05-01T12:23:08.44Z</time></trkpt><trkpt lat="44.3199217" lon="11.6664017"><ele>58.0</ele><time>2026-05-01T12:23:10.441Z</time></trkpt><trkpt lat="44.3198667" lon="11.6662983"><ele>58.0</ele><time>2026-05-01T12:23:12.441Z</time></trkpt><trkpt lat="44.31981" lon="11.6662183"><ele>58.0</ele><time>2026-05-01T12:23:14.44Z</time></trkpt><trkpt lat="44.31974" lon="11.6661583"><ele>58.0</ele><time>2026-05-01T12:23:16.443Z</time></trkpt><trkpt lat="44.3196633" lon="11.6660733"><ele>58.0</ele><time>2026-05-01T12:23:18.44Z</time></trkpt><trkpt lat="44.3195917" lon="11.6659633"><ele>58.0</ele><time>2026-05-01T12:23:20.441Z</time></trkpt><trkpt lat="44.3195267" lon="11.66586"><ele>58.0</ele><time>2026-05-01T12:23:22.442Z</time></trkpt><trkpt lat="44.3194567" lon="11.66577"><ele>58.0</ele><time>2026-05-01T12:23:24.442Z</time></trkpt><trkpt lat="44.3193833" lon="11.6656633"><ele>58.0</ele><time>2026-05-01T12:23:26.442Z</time></trkpt><trkpt lat="44.319295" lon="11.6655617"><ele>58.0</ele><time>2026-05-01T12:23:28.443Z</time></trkpt><trkpt lat="44.3192083" lon="11.66547"><ele>58.0</ele><time>2026-05-01T12:23:30.441Z</time></trkpt><trkpt lat="44.3191033" lon="11.6653983"><ele>58.0</ele><time>2026-05-01T12:23:32.442Z</time></trkpt><trkpt lat="44.318995" lon="11.6653367"><ele>58.0</ele><time>2026-05-01T12:23:34.442Z</time></trkpt><trkpt lat="44.3188867" lon="11.6652867"><ele>57.8</ele><time>2026-05-01T12:23:36.44Z</time></trkpt><trkpt lat="44.31878" lon="11.6652383"><ele>57.599999999999994</ele><time>2026-05-01T12:23:38.442Z</time></trkpt><trkpt lat="44.318675" lon="11.665195"><ele>57.400000000000006</ele><time>2026-05-01T12:23:40.443Z</time></trkpt><trkpt lat="44.3185717" lon="11.6651467"><ele>57.2</ele><time>2026-05-01T12:23:42.441Z</time></trkpt><trkpt lat="44.3184683" lon="11.665105"><ele>57.0</ele><time>2026-05-01T12:23:44.442Z</time></trkpt><trkpt lat="44.31837" lon="11.6650467"><ele>57.0</ele><time>2026-05-01T12:23:46.443Z</time></trkpt><trkpt lat="44.318265" lon="11.6649983"><ele>57.0</ele><time>2026-05-01T12:23:48.442Z</time></trkpt><trkpt lat="44.3181617" lon="11.664945"><ele>57.0</ele><time>2026-05-01T12:23:50.441Z</time></trkpt><trkpt lat="44.3180583" lon="11.664895"><ele>57.0</ele><time>2026-05-01T12:23:52.441Z</time></trkpt><trkpt lat="44.3179567" lon="11.66485"><ele>57.0</ele><time>2026-05-01T12:23:54.441Z</time></trkpt><trkpt lat="44.317855" lon="11.664805"><ele>57.2</ele><time>2026-05-01T12:23:56.442Z</time></trkpt><trkpt lat="44.317755" lon="11.6647483"><ele>57.400000000000006</ele><time>2026-05-01T12:23:58.441Z</time></trkpt><trkpt lat="44.3176733" lon="11.6646617"><ele>57.599999999999994</ele><time>2026-05-01T12:24:00.44Z</time></trkpt><trkpt lat="44.3176067" lon="11.66457"><ele>57.8</ele><time>2026-05-01T12:24:02.443Z</time></trkpt><trkpt lat="44.3175383" lon="11.6645083"><ele>58.0</ele><time>2026-05-01T12:24:04.44Z</time></trkpt><trkpt lat="44.3174683" lon="11.66446"><ele>58.0</ele><time>2026-05-01T12:24:06.441Z</time></trkpt><trkpt lat="44.317385" lon="11.6644217"><ele>58.0</ele><time>2026-05-01T12:24:08.44Z</time></trkpt><trkpt lat="44.3172983" lon="11.6644117"><ele>58.0</ele><time>2026-05-01T12:24:10.441Z</time></trkpt><trkpt lat="44.317215" lon="11.6644883"><ele>58.0</ele><time>2026-05-01T12:24:12.44Z</time></trkpt><trkpt lat="44.3171317" lon="11.664595"><ele>58.0</ele><time>2026-05-01T12:24:14.441Z</time></trkpt><trkpt lat="44.3170533" lon="11.6647017"><ele>58.2</ele><time>2026-05-01T12:24:16.444Z</time></trkpt><trkpt lat="44.3169733" lon="11.6648167"><ele>58.4</ele><time>2026-05-01T12:24:18.442Z</time></trkpt><trkpt lat="44.3168967" lon="11.6649283"><ele>58.60000000000001</ele><time>2026-05-01T12:24:20.44Z</time></trkpt><trkpt lat="44.3168183" lon="11.6650383"><ele>58.800000000000004</ele><time>2026-05-01T12:24:22.441Z</time></trkpt><trkpt lat="44.3167367" lon="11.6651433"><ele>59.0</ele><time>2026-05-01T12:24:24.44Z</time></trkpt><trkpt lat="44.31666" lon="11.6652483"><ele>58.6</ele><time>2026-05-01T12:24:26.441Z</time></trkpt><trkpt lat="44.3165817" lon="11.6653517"><ele>58.2</ele><time>2026-05-01T12:24:28.442Z</time></trkpt><trkpt lat="44.3165067" lon="11.6654483"><ele>57.800000000000004</ele><time>2026-05-01T12:24:30.44Z</time></trkpt><trkpt lat="44.3164267" lon="11.6655267"><ele>57.400000000000006</ele><time>2026-05-01T12:24:32.442Z</time></trkpt><trkpt lat="44.3163367" lon="11.6655867"><ele>57.0</ele><time>2026-05-01T12:24:34.441Z</time></trkpt><trkpt lat="44.31624" lon="11.6656283"><ele>57.0</ele><time>2026-05-01T12:24:36.441Z</time></trkpt><trkpt lat="44.316145" lon="11.6656533"><ele>57.0</ele><time>2026-05-01T12:24:38.442Z</time></trkpt><trkpt lat="44.31605" lon="11.6656683"><ele>57.0</ele><time>2026-05-01T12:24:40.441Z</time></trkpt><trkpt lat="44.3159517" lon="11.66568"><ele>57.0</ele><time>2026-05-01T12:24:42.441Z</time></trkpt><trkpt lat="44.3158517" lon="11.6656917"><ele>57.0</ele><time>2026-05-01T12:24:44.441Z</time></trkpt><trkpt lat="44.315755" lon="11.6657033"><ele>57.0</ele><time>2026-05-01T12:24:46.442Z</time></trkpt><trkpt lat="44.3156533" lon="11.6657267"><ele>57.0</ele><time>2026-05-01T12:24:48.441Z</time></trkpt><trkpt lat="44.3155517" lon="11.6657417"><ele>57.0</ele><time>2026-05-01T12:24:50.442Z</time></trkpt><trkpt lat="44.3154617" lon="11.665725"><ele>57.0</ele><time>2026-05-01T12:24:52.441Z</time></trkpt><trkpt lat="44.3154" lon="11.6656467"><ele>57.0</ele><time>2026-05-01T12:24:54.441Z</time></trkpt><trkpt lat="44.3153617" lon="11.6655383"><ele>57.0</ele><time>2026-05-01T12:24:56.441Z</time></trkpt><trkpt lat="44.3153083" lon="11.6654567"><ele>57.0</ele><time>2026-05-01T12:24:58.44Z</time></trkpt><trkpt lat="44.3152267" lon="11.6653833"><ele>57.0</ele><time>2026-05-01T12:25:00.441Z</time></trkpt><trkpt lat="44.315145" lon="11.6652967"><ele>57.0</ele><time>2026-05-01T12:25:02.44Z</time></trkpt><trkpt lat="44.31507" lon="11.6652017"><ele>57.0</ele><time>2026-05-01T12:25:04.443Z</time></trkpt><trkpt lat="44.3149967" lon="11.665105"><ele>57.0</ele><time>2026-05-01T12:25:06.44Z</time></trkpt><trkpt lat="44.31493" lon="11.6649933"><ele>57.0</ele><time>2026-05-01T12:25:08.44Z</time></trkpt><trkpt lat="44.31486" lon="11.6648717"><ele>57.0</ele><time>2026-05-01T12:25:10.44Z</time></trkpt><trkpt lat="44.3147817" lon="11.66474"><ele>57.0</ele><time>2026-05-01T12:25:12.441Z</time></trkpt><trkpt lat="44.3147383" lon="11.664675"><ele>57.0</ele><time>2026-05-01T12:25:13.44Z</time></trkpt><trkpt lat="44.31465" lon="11.6645517"><ele>56.833333333333336</ele><time>2026-05-01T12:25:15.444Z</time></trkpt><trkpt lat="44.3146017" lon="11.6644933"><ele>56.66666666666667</ele><time>2026-05-01T12:25:16.444Z</time></trkpt><trkpt lat="44.314555" lon="11.66443"><ele>56.5</ele><time>2026-05-01T12:25:17.443Z</time></trkpt><trkpt lat="44.31451" lon="11.6643667"><ele>56.333333333333336</ele><time>2026-05-01T12:25:18.441Z</time></trkpt><trkpt lat="44.3144617" lon="11.6643033"><ele>56.16666666666667</ele><time>2026-05-01T12:25:19.441Z</time></trkpt><trkpt lat="44.3143683" lon="11.664185"><ele>56.0</ele><time>2026-05-01T12:25:21.439Z</time></trkpt><trkpt lat="44.3143183" lon="11.664125"><ele>56.0</ele><time>2026-05-01T12:25:22.44Z</time></trkpt><trkpt lat="44.31427" lon="11.6640667"><ele>55.99999999999999</ele><time>2026-05-01T12:25:23.439Z</time></trkpt><trkpt lat="44.3141783" lon="11.6639517"><ele>55.99999999999999</ele><time>2026-05-01T12:25:25.442Z</time></trkpt><trkpt lat="44.3140883" lon="11.663835"><ele>56.0</ele><time>2026-05-01T12:25:27.442Z</time></trkpt><trkpt lat="44.3139983" lon="11.6637217"><ele>56.0</ele><time>2026-05-01T12:25:29.44Z</time></trkpt><trkpt lat="44.3139117" lon="11.6636083"><ele>56.0</ele><time>2026-05-01T12:25:31.443Z</time></trkpt><trkpt lat="44.3138267" lon="11.6634883"><ele>56.0</ele><time>2026-05-01T12:25:33.443Z</time></trkpt><trkpt lat="44.3137367" lon="11.6633733"><ele>56.0</ele><time>2026-05-01T12:25:35.444Z</time></trkpt><trkpt lat="44.313645" lon="11.6632583"><ele>56.0</ele><time>2026-05-01T12:25:37.443Z</time></trkpt><trkpt lat="44.3135567" lon="11.6631433"><ele>56.0</ele><time>2026-05-01T12:25:39.441Z</time></trkpt><trkpt lat="44.31347" lon="11.6630333"><ele>56.0</ele><time>2026-05-01T12:25:41.441Z</time></trkpt><trkpt lat="44.3133783" lon="11.662915"><ele>56.0</ele><time>2026-05-01T12:25:43.442Z</time></trkpt><trkpt lat="44.3132917" lon="11.6628"><ele>56.0</ele><time>2026-05-01T12:25:45.44Z</time></trkpt><trkpt lat="44.3132067" lon="11.6626867"><ele>56.0</ele><time>2026-05-01T12:25:47.44Z</time></trkpt><trkpt lat="44.31312" lon="11.66258"><ele>55.99999999999999</ele><time>2026-05-01T12:25:49.442Z</time></trkpt><trkpt lat="44.313045" lon="11.6624767"><ele>55.99999999999999</ele><time>2026-05-01T12:25:51.447Z</time></trkpt><trkpt lat="44.3129617" lon="11.66237"><ele>56.0</ele><time>2026-05-01T12:25:53.44Z</time></trkpt><trkpt lat="44.31288" lon="11.6622683"><ele>56.0</ele><time>2026-05-01T12:25:55.442Z</time></trkpt><trkpt lat="44.3127983" lon="11.66215"><ele>56.0</ele><time>2026-05-01T12:25:57.44Z</time></trkpt><trkpt lat="44.312705" lon="11.662035"><ele>55.99999999999999</ele><time>2026-05-01T12:25:59.438Z</time></trkpt><trkpt lat="44.312655" lon="11.66198"><ele>55.99999999999999</ele><time>2026-05-01T12:26:00.442Z</time></trkpt><trkpt lat="44.312565" lon="11.6618683"><ele>56.0</ele><time>2026-05-01T12:26:02.439Z</time></trkpt><trkpt lat="44.3124783" lon="11.6617567"><ele>56.0</ele><time>2026-05-01T12:26:04.442Z</time></trkpt><trkpt lat="44.3123933" lon="11.661645"><ele>56.0</ele><time>2026-05-01T12:26:06.44Z</time></trkpt><trkpt lat="44.3122983" lon="11.6615333"><ele>55.99999999999999</ele><time>2026-05-01T12:26:08.44Z</time></trkpt><trkpt lat="44.3122167" lon="11.6614283"><ele>55.99999999999999</ele><time>2026-05-01T12:26:10.44Z</time></trkpt><trkpt lat="44.31215" lon="11.66132"><ele>56.0</ele><time>2026-05-01T12:26:12.44Z</time></trkpt><trkpt lat="44.3121133" lon="11.66122"><ele>56.0</ele><time>2026-05-01T12:26:14.439Z</time></trkpt><trkpt lat="44.312095" lon="11.6611283"><ele>56.0</ele><time>2026-05-01T12:26:16.441Z</time></trkpt><trkpt lat="44.3120933" lon="11.66101"><ele>55.99999999999999</ele><time>2026-05-01T12:26:18.441Z</time></trkpt><trkpt lat="44.3120983" lon="11.6608767"><ele>55.99999999999999</ele><time>2026-05-01T12:26:20.443Z</time></trkpt><trkpt lat="44.3121267" lon="11.6607517"><ele>56.0</ele><time>2026-05-01T12:26:22.443Z</time></trkpt><trkpt lat="44.3121833" lon="11.66066"><ele>56.0</ele><time>2026-05-01T12:26:24.443Z</time></trkpt><trkpt lat="44.31224" lon="11.6605567"><ele>56.0</ele><time>2026-05-01T12:26:26.439Z</time></trkpt><trkpt lat="44.312315" lon="11.6604467"><ele>56.0</ele><time>2026-05-01T12:26:28.439Z</time></trkpt><trkpt lat="44.3124" lon="11.6603317"><ele>56.0</ele><time>2026-05-01T12:26:30.44Z</time></trkpt><trkpt lat="44.312485" lon="11.66022"><ele>56.0</ele><time>2026-05-01T12:26:32.44Z</time></trkpt><trkpt lat="44.3125683" lon="11.6601183"><ele>56.199999999999996</ele><time>2026-05-01T12:26:34.441Z</time></trkpt><trkpt lat="44.3126517" lon="11.6600167"><ele>56.39999999999999</ele><time>2026-05-01T12:26:36.44Z</time></trkpt><trkpt lat="44.3127233" lon="11.6599017"><ele>56.6</ele><time>2026-05-01T12:26:38.44Z</time></trkpt><trkpt lat="44.31277" lon="11.6597517"><ele>56.8</ele><time>2026-05-01T12:26:40.441Z</time></trkpt><trkpt lat="44.3127467" lon="11.6596183"><ele>57.0</ele><time>2026-05-01T12:26:42.439Z</time></trkpt><trkpt lat="44.3126883" lon="11.6594983"><ele>57.2</ele><time>2026-05-01T12:26:44.439Z</time></trkpt><trkpt lat="44.3126283" lon="11.6593883"><ele>57.400000000000006</ele><time>2026-05-01T12:26:46.443Z</time></trkpt><trkpt lat="44.31257" lon="11.6592783"><ele>57.599999999999994</ele><time>2026-05-01T12:26:48.443Z</time></trkpt><trkpt lat="44.31251" lon="11.6591583"><ele>57.8</ele><time>2026-05-01T12:26:50.442Z</time></trkpt><trkpt lat="44.3124583" lon="11.659035"><ele>58.0</ele><time>2026-05-01T12:26:52.442Z</time></trkpt><trkpt lat="44.312455" lon="11.6589333"><ele>57.99999999999999</ele><time>2026-05-01T12:26:54.443Z</time></trkpt><trkpt lat="44.3124967" lon="11.6588567"><ele>58.0</ele><time>2026-05-01T12:26:56.44Z</time></trkpt><trkpt lat="44.3125567" lon="11.6587783"><ele>58.0</ele><time>2026-05-01T12:26:58.439Z</time></trkpt><trkpt lat="44.3126217" lon="11.6587033"><ele>58.0</ele><time>2026-05-01T12:27:00.439Z</time></trkpt><trkpt lat="44.3126883" lon="11.6586217"><ele>57.99999999999999</ele><time>2026-05-01T12:27:02.44Z</time></trkpt><trkpt lat="44.3127417" lon="11.6585033"><ele>58.0</ele><time>2026-05-01T12:27:04.44Z</time></trkpt><trkpt lat="44.3127683" lon="11.6583683"><ele>57.8</ele><time>2026-05-01T12:27:06.44Z</time></trkpt><trkpt lat="44.3127533" lon="11.658225"><ele>57.599999999999994</ele><time>2026-05-01T12:27:08.439Z</time></trkpt><trkpt lat="44.312715" lon="11.6580883"><ele>57.400000000000006</ele><time>2026-05-01T12:27:10.441Z</time></trkpt><trkpt lat="44.31266" lon="11.6579583"><ele>57.2</ele><time>2026-05-01T12:27:12.44Z</time></trkpt><trkpt lat="44.3125983" lon="11.657835"><ele>57.0</ele><time>2026-05-01T12:27:14.439Z</time></trkpt><trkpt lat="44.312545" lon="11.6577083"><ele>57.0</ele><time>2026-05-01T12:27:16.442Z</time></trkpt><trkpt lat="44.312495" lon="11.6575817"><ele>57.0</ele><time>2026-05-01T12:27:18.443Z</time></trkpt><trkpt lat="44.3124367" lon="11.6574583"><ele>57.0</ele><time>2026-05-01T12:27:20.439Z</time></trkpt><trkpt lat="44.3123833" lon="11.657335"><ele>57.0</ele><time>2026-05-01T12:27:22.439Z</time></trkpt><trkpt lat="44.31233" lon="11.6571983"><ele>57.0</ele><time>2026-05-01T12:27:24.44Z</time></trkpt><trkpt lat="44.31228" lon="11.6570633"><ele>57.0</ele><time>2026-05-01T12:27:26.44Z</time></trkpt><trkpt lat="44.3122283" lon="11.6569267"><ele>57.0</ele><time>2026-05-01T12:27:28.439Z</time></trkpt><trkpt lat="44.312175" lon="11.65679"><ele>57.0</ele><time>2026-05-01T12:27:30.44Z</time></trkpt><trkpt lat="44.3121267" lon="11.65665"><ele>57.0</ele><time>2026-05-01T12:27:32.439Z</time></trkpt><trkpt lat="44.3120717" lon="11.65652"><ele>57.0</ele><time>2026-05-01T12:27:34.44Z</time></trkpt><trkpt lat="44.3120117" lon="11.65639"><ele>57.0</ele><time>2026-05-01T12:27:36.439Z</time></trkpt><trkpt lat="44.311955" lon="11.6562633"><ele>57.0</ele><time>2026-05-01T12:27:38.441Z</time></trkpt><trkpt lat="44.3119017" lon="11.6561333"><ele>57.0</ele><time>2026-05-01T12:27:40.439Z</time></trkpt><trkpt lat="44.3118467" lon="11.656"><ele>57.0</ele><time>2026-05-01T12:27:42.439Z</time></trkpt><trkpt lat="44.31179" lon="11.6558767"><ele>57.0</ele><time>2026-05-01T12:27:44.44Z</time></trkpt><trkpt lat="44.31174" lon="11.6557483"><ele>57.400000000000006</ele><time>2026-05-01T12:27:46.44Z</time></trkpt><trkpt lat="44.31169" lon="11.6556233"><ele>57.800000000000004</ele><time>2026-05-01T12:27:48.439Z</time></trkpt><trkpt lat="44.3116317" lon="11.6555"><ele>58.2</ele><time>2026-05-01T12:27:50.44Z</time></trkpt><trkpt lat="44.3115683" lon="11.6553833"><ele>58.6</ele><time>2026-05-01T12:27:52.439Z</time></trkpt><trkpt lat="44.31151" lon="11.6552617"><ele>59.0</ele><time>2026-05-01T12:27:54.44Z</time></trkpt><trkpt lat="44.31145" lon="11.6551483"><ele>59.2</ele><time>2026-05-01T12:27:56.439Z</time></trkpt><trkpt lat="44.3113817" lon="11.6550433"><ele>59.400000000000006</ele><time>2026-05-01T12:27:58.44Z</time></trkpt><trkpt lat="44.3113167" lon="11.6549317"><ele>59.6</ele><time>2026-05-01T12:28:00.44Z</time></trkpt><trkpt lat="44.3112467" lon="11.6548167"><ele>59.8</ele><time>2026-05-01T12:28:02.44Z</time></trkpt><trkpt lat="44.3111867" lon="11.65468"><ele>60.0</ele><time>2026-05-01T12:28:04.439Z</time></trkpt><trkpt lat="44.3111233" lon="11.6545417"><ele>60.25</ele><time>2026-05-01T12:28:06.443Z</time></trkpt><trkpt lat="44.3110583" lon="11.65441"><ele>60.5</ele><time>2026-05-01T12:28:08.439Z</time></trkpt><trkpt lat="44.3109883" lon="11.654285"><ele>60.75</ele><time>2026-05-01T12:28:10.439Z</time></trkpt><trkpt lat="44.3109117" lon="11.654165"><ele>61.0</ele><time>2026-05-01T12:28:12.442Z</time></trkpt><trkpt lat="44.3108483" lon="11.6540367"><ele>61.0</ele><time>2026-05-01T12:28:14.439Z</time></trkpt><trkpt lat="44.3107817" lon="11.653925"><ele>60.99999999999999</ele><time>2026-05-01T12:28:16.441Z</time></trkpt><trkpt lat="44.3107167" lon="11.65382"><ele>60.99999999999999</ele><time>2026-05-01T12:28:18.442Z</time></trkpt><trkpt lat="44.310645" lon="11.6536967"><ele>61.0</ele><time>2026-05-01T12:28:20.44Z</time></trkpt><trkpt lat="44.310575" lon="11.6535767"><ele>61.0</ele><time>2026-05-01T12:28:22.44Z</time></trkpt><trkpt lat="44.3105033" lon="11.6534567"><ele>60.8</ele><time>2026-05-01T12:28:24.44Z</time></trkpt><trkpt lat="44.3104383" lon="11.6533283"><ele>60.599999999999994</ele><time>2026-05-01T12:28:26.44Z</time></trkpt><trkpt lat="44.3103683" lon="11.6531983"><ele>60.4</ele><time>2026-05-01T12:28:28.44Z</time></trkpt><trkpt lat="44.3102933" lon="11.65308"><ele>60.2</ele><time>2026-05-01T12:28:30.443Z</time></trkpt><trkpt lat="44.310255" lon="11.65301"><ele>60.0</ele><time>2026-05-01T12:28:31.439Z</time></trkpt><trkpt lat="44.3102033" lon="11.6528633"><ele>60.0</ele><time>2026-05-01T12:28:33.441Z</time></trkpt><trkpt lat="44.3101367" lon="11.65274"><ele>60.0</ele><time>2026-05-01T12:28:35.443Z</time></trkpt><trkpt lat="44.3100717" lon="11.6526183"><ele>60.0</ele><time>2026-05-01T12:28:37.439Z</time></trkpt><trkpt lat="44.3100067" lon="11.6525033"><ele>60.0</ele><time>2026-05-01T12:28:39.442Z</time></trkpt><trkpt lat="44.3099417" lon="11.6523867"><ele>60.0</ele><time>2026-05-01T12:28:41.439Z</time></trkpt><trkpt lat="44.3098717" lon="11.6522733"><ele>60.0</ele><time>2026-05-01T12:28:43.44Z</time></trkpt><trkpt lat="44.3098233" lon="11.6521683"><ele>60.0</ele><time>2026-05-01T12:28:45.442Z</time></trkpt><trkpt lat="44.3097833" lon="11.6520883"><ele>60.0</ele><time>2026-05-01T12:28:47.443Z</time></trkpt><trkpt lat="44.3097233" lon="11.6520367"><ele>60.0</ele><time>2026-05-01T12:28:49.441Z</time></trkpt><trkpt lat="44.3096483" lon="11.6519433"><ele>60.0</ele><time>2026-05-01T12:28:52.44Z</time></trkpt><trkpt lat="44.30959" lon="11.6518517"><ele>60.0</ele><time>2026-05-01T12:28:54.441Z</time></trkpt><trkpt lat="44.3095267" lon="11.6517467"><ele>60.2</ele><time>2026-05-01T12:28:56.44Z</time></trkpt><trkpt lat="44.3094633" lon="11.6516433"><ele>60.4</ele><time>2026-05-01T12:28:58.44Z</time></trkpt><trkpt lat="44.3093933" lon="11.651545"><ele>60.599999999999994</ele><time>2026-05-01T12:29:00.439Z</time></trkpt><trkpt lat="44.30932" lon="11.6514533"><ele>60.8</ele><time>2026-05-01T12:29:02.44Z</time></trkpt><trkpt lat="44.309255" lon="11.6513517"><ele>61.0</ele><time>2026-05-01T12:29:04.443Z</time></trkpt><trkpt lat="44.3091867" lon="11.6512517"><ele>61.0</ele><time>2026-05-01T12:29:06.439Z</time></trkpt><trkpt lat="44.30912" lon="11.6511517"><ele>60.99999999999999</ele><time>2026-05-01T12:29:08.44Z</time></trkpt><trkpt lat="44.3090467" lon="11.65105"><ele>60.99999999999999</ele><time>2026-05-01T12:29:10.44Z</time></trkpt><trkpt lat="44.3089883" lon="11.6509417"><ele>61.0</ele><time>2026-05-01T12:29:12.44Z</time></trkpt><trkpt lat="44.308935" lon="11.6508283"><ele>61.0</ele><time>2026-05-01T12:29:14.44Z</time></trkpt><trkpt lat="44.3088783" lon="11.65072"><ele>61.4</ele><time>2026-05-01T12:29:16.443Z</time></trkpt><trkpt lat="44.308805" lon="11.650605"><ele>61.8</ele><time>2026-05-01T12:29:18.44Z</time></trkpt><trkpt lat="44.3087367" lon="11.6504967"><ele>62.199999999999996</ele><time>2026-05-01T12:29:20.44Z</time></trkpt><trkpt lat="44.3086633" lon="11.65039"><ele>62.599999999999994</ele><time>2026-05-01T12:29:22.441Z</time></trkpt><trkpt lat="44.3085817" lon="11.6502917"><ele>63.0</ele><time>2026-05-01T12:29:24.44Z</time></trkpt><trkpt lat="44.3084983" lon="11.650195"><ele>63.0</ele><time>2026-05-01T12:29:26.443Z</time></trkpt><trkpt lat="44.3084283" lon="11.6500867"><ele>63.0</ele><time>2026-05-01T12:29:28.443Z</time></trkpt><trkpt lat="44.30837" lon="11.6499567"><ele>63.0</ele><time>2026-05-01T12:29:30.439Z</time></trkpt><trkpt lat="44.3083117" lon="11.6498217"><ele>63.0</ele><time>2026-05-01T12:29:32.441Z</time></trkpt><trkpt lat="44.3082483" lon="11.6496983"><ele>63.0</ele><time>2026-05-01T12:29:34.44Z</time></trkpt><trkpt lat="44.30818" lon="11.64958"><ele>63.0</ele><time>2026-05-01T12:29:36.44Z</time></trkpt><trkpt lat="44.3081117" lon="11.64947"><ele>63.0</ele><time>2026-05-01T12:29:38.44Z</time></trkpt><trkpt lat="44.3080533" lon="11.6493483"><ele>63.0</ele><time>2026-05-01T12:29:40.441Z</time></trkpt><trkpt lat="44.3080233" lon="11.64921"><ele>63.0</ele><time>2026-05-01T12:29:42.441Z</time></trkpt><trkpt lat="44.3080183" lon="11.6490567"><ele>63.0</ele><time>2026-05-01T12:29:44.441Z</time></trkpt><trkpt lat="44.3080217" lon="11.6488983"><ele>63.0</ele><time>2026-05-01T12:29:46.442Z</time></trkpt><trkpt lat="44.3080367" lon="11.648745"><ele>63.0</ele><time>2026-05-01T12:29:48.44Z</time></trkpt><trkpt lat="44.30805" lon="11.6485967"><ele>63.0</ele><time>2026-05-01T12:29:50.441Z</time></trkpt><trkpt lat="44.3080483" lon="11.648455"><ele>63.0</ele><time>2026-05-01T12:29:52.44Z</time></trkpt><trkpt lat="44.3080217" lon="11.6483333"><ele>63.0</ele><time>2026-05-01T12:29:54.443Z</time></trkpt><trkpt lat="44.3079717" lon="11.6482483"><ele>63.0</ele><time>2026-05-01T12:29:56.443Z</time></trkpt><trkpt lat="44.30789" lon="11.6482317"><ele>63.0</ele><time>2026-05-01T12:29:58.44Z</time></trkpt><trkpt lat="44.3078" lon="11.6483217"><ele>63.0</ele><time>2026-05-01T12:30:00.441Z</time></trkpt><trkpt lat="44.30772" lon="11.6484233"><ele>63.0</ele><time>2026-05-01T12:30:02.44Z</time></trkpt><trkpt lat="44.3076267" lon="11.6484583"><ele>63.0</ele><time>2026-05-01T12:30:04.44Z</time></trkpt><trkpt lat="44.3075533" lon="11.6483683"><ele>63.0</ele><time>2026-05-01T12:30:06.441Z</time></trkpt><trkpt lat="44.3074783" lon="11.648265"><ele>63.0</ele><time>2026-05-01T12:30:08.44Z</time></trkpt><trkpt lat="44.3074133" lon="11.648165"><ele>63.0</ele><time>2026-05-01T12:30:10.44Z</time></trkpt><trkpt lat="44.30734" lon="11.6480683"><ele>63.0</ele><time>2026-05-01T12:30:12.443Z</time></trkpt><trkpt lat="44.3072633" lon="11.64797"><ele>63.0</ele><time>2026-05-01T12:30:14.442Z</time></trkpt><trkpt lat="44.30719" lon="11.647865"><ele>62.8</ele><time>2026-05-01T12:30:16.443Z</time></trkpt><trkpt lat="44.3071083" lon="11.6477617"><ele>62.599999999999994</ele><time>2026-05-01T12:30:18.442Z</time></trkpt><trkpt lat="44.307025" lon="11.64766"><ele>62.400000000000006</ele><time>2026-05-01T12:30:20.441Z</time></trkpt><trkpt lat="44.306945" lon="11.647555"><ele>62.2</ele><time>2026-05-01T12:30:22.441Z</time></trkpt><trkpt lat="44.3068683" lon="11.6474517"><ele>62.0</ele><time>2026-05-01T12:30:24.443Z</time></trkpt><trkpt lat="44.3067883" lon="11.64735"><ele>62.0</ele><time>2026-05-01T12:30:26.44Z</time></trkpt><trkpt lat="44.30671" lon="11.647245"><ele>62.0</ele><time>2026-05-01T12:30:28.441Z</time></trkpt><trkpt lat="44.30663" lon="11.6471417"><ele>62.0</ele><time>2026-05-01T12:30:30.441Z</time></trkpt><trkpt lat="44.3065483" lon="11.6470383"><ele>62.0</ele><time>2026-05-01T12:30:32.442Z</time></trkpt><trkpt lat="44.30647" lon="11.64693"><ele>62.0</ele><time>2026-05-01T12:30:34.441Z</time></trkpt><trkpt lat="44.3063883" lon="11.6468267"><ele>62.16666666666667</ele><time>2026-05-01T12:30:36.442Z</time></trkpt><trkpt lat="44.3063083" lon="11.6467317"><ele>62.333333333333336</ele><time>2026-05-01T12:30:38.442Z</time></trkpt><trkpt lat="44.30623" lon="11.646635"><ele>62.5</ele><time>2026-05-01T12:30:40.441Z</time></trkpt><trkpt lat="44.3061617" lon="11.6465467"><ele>62.66666666666667</ele><time>2026-05-01T12:30:42.442Z</time></trkpt><trkpt lat="44.3061083" lon="11.6464683"><ele>62.833333333333336</ele><time>2026-05-01T12:30:44.442Z</time></trkpt><trkpt lat="44.3060917" lon="11.6463767"><ele>63.0</ele><time>2026-05-01T12:30:46.44Z</time></trkpt><trkpt lat="44.306125" lon="11.6462983"><ele>63.0</ele><time>2026-05-01T12:30:48.443Z</time></trkpt><trkpt lat="44.3061683" lon="11.6462217"><ele>63.0</ele><time>2026-05-01T12:30:50.44Z</time></trkpt><trkpt lat="44.3062183" lon="11.6461267"><ele>63.0</ele><time>2026-05-01T12:30:52.443Z</time></trkpt><trkpt lat="44.30627" lon="11.6460333"><ele>63.0</ele><time>2026-05-01T12:30:54.443Z</time></trkpt><trkpt lat="44.30632" lon="11.6459333"><ele>63.0</ele><time>2026-05-01T12:30:56.44Z</time></trkpt><trkpt lat="44.30637" lon="11.64584"><ele>63.0</ele><time>2026-05-01T12:30:58.44Z</time></trkpt><trkpt lat="44.306415" lon="11.6457583"><ele>63.166666666666664</ele><time>2026-05-01T12:31:00.441Z</time></trkpt><trkpt lat="44.3064733" lon="11.6456733"><ele>63.33333333333333</ele><time>2026-05-01T12:31:03.44Z</time></trkpt><trkpt lat="44.3065" lon="11.6455917"><ele>63.5</ele><time>2026-05-01T12:31:06.439Z</time></trkpt><trkpt lat="44.30648" lon="11.6454867"><ele>63.666666666666664</ele><time>2026-05-01T12:31:10.441Z</time></trkpt><trkpt lat="44.3063933" lon="11.645505"><ele>63.83333333333333</ele><time>2026-05-01T12:31:13.44Z</time></trkpt><trkpt lat="44.3063283" lon="11.645535"><ele>64.0</ele><time>2026-05-01T12:31:15.441Z</time></trkpt><trkpt lat="44.306255" lon="11.6455517"><ele>64.0</ele><time>2026-05-01T12:31:17.443Z</time></trkpt><trkpt lat="44.30618" lon="11.64554"><ele>64.0</ele><time>2026-05-01T12:31:19.442Z</time></trkpt><trkpt lat="44.3060983" lon="11.6454967"><ele>64.0</ele><time>2026-05-01T12:31:21.443Z</time></trkpt><trkpt lat="44.3060067" lon="11.6454483"><ele>64.0</ele><time>2026-05-01T12:31:23.442Z</time></trkpt><trkpt lat="44.30591" lon="11.6454017"><ele>64.0</ele><time>2026-05-01T12:31:25.443Z</time></trkpt><trkpt lat="44.305805" lon="11.645355"><ele>64.0</ele><time>2026-05-01T12:31:27.441Z</time></trkpt><trkpt lat="44.3056917" lon="11.645315"><ele>64.0</ele><time>2026-05-01T12:31:29.441Z</time></trkpt><trkpt lat="44.3055867" lon="11.6452767"><ele>64.0</ele><time>2026-05-01T12:31:31.44Z</time></trkpt><trkpt lat="44.3054933" lon="11.6452683"><ele>64.0</ele><time>2026-05-01T12:31:33.44Z</time></trkpt><trkpt lat="44.3053883" lon="11.6452467"><ele>64.0</ele><time>2026-05-01T12:31:35.44Z</time></trkpt><trkpt lat="44.305275" lon="11.6452367"><ele>64.0</ele><time>2026-05-01T12:31:37.44Z</time></trkpt><trkpt lat="44.30517" lon="11.6452433"><ele>64.0</ele><time>2026-05-01T12:31:39.441Z</time></trkpt><trkpt lat="44.3050633" lon="11.645245"><ele>64.0</ele><time>2026-05-01T12:31:41.439Z</time></trkpt><trkpt lat="44.3049583" lon="11.6452467"><ele>64.0</ele><time>2026-05-01T12:31:43.44Z</time></trkpt><trkpt lat="44.3048617" lon="11.6452167"><ele>64.0</ele><time>2026-05-01T12:31:45.439Z</time></trkpt><trkpt lat="44.3047717" lon="11.6451683"><ele>64.2</ele><time>2026-05-01T12:31:47.443Z</time></trkpt><trkpt lat="44.30468" lon="11.6451217"><ele>64.4</ele><time>2026-05-01T12:31:49.443Z</time></trkpt><trkpt lat="44.3045933" lon="11.645085"><ele>64.6</ele><time>2026-05-01T12:31:51.443Z</time></trkpt><trkpt lat="44.3045117" lon="11.6450517"><ele>64.8</ele><time>2026-05-01T12:31:53.442Z</time></trkpt><trkpt lat="44.3044233" lon="11.645005"><ele>65.0</ele><time>2026-05-01T12:31:55.44Z</time></trkpt><trkpt lat="44.3043333" lon="11.6449367"><ele>65.0</ele><time>2026-05-01T12:31:57.444Z</time></trkpt><trkpt lat="44.3042467" lon="11.64485"><ele>65.0</ele><time>2026-05-01T12:31:59.442Z</time></trkpt><trkpt lat="44.3041783" lon="11.6447583"><ele>65.0</ele><time>2026-05-01T12:32:01.44Z</time></trkpt><trkpt lat="44.3041083" lon="11.64467"><ele>65.0</ele><time>2026-05-01T12:32:03.442Z</time></trkpt><trkpt lat="44.3040167" lon="11.64459"><ele>65.0</ele><time>2026-05-01T12:32:05.442Z</time></trkpt><trkpt lat="44.3039333" lon="11.6445733"><ele>64.5</ele><time>2026-05-01T12:32:07.441Z</time></trkpt><trkpt lat="44.3038617" lon="11.644615"><ele>64.0</ele><time>2026-05-01T12:32:09.441Z</time></trkpt><trkpt lat="44.3038" lon="11.6447017"><ele>63.5</ele><time>2026-05-01T12:32:11.441Z</time></trkpt><trkpt lat="44.3037467" lon="11.6448067"><ele>63.0</ele><time>2026-05-01T12:32:13.441Z</time></trkpt><trkpt lat="44.303685" lon="11.6449017"><ele>62.50000000000001</ele><time>2026-05-01T12:32:15.441Z</time></trkpt><trkpt lat="44.30362" lon="11.6450017"><ele>62.0</ele><time>2026-05-01T12:32:17.444Z</time></trkpt><trkpt lat="44.303555" lon="11.6451117"><ele>62.0</ele><time>2026-05-01T12:32:19.444Z</time></trkpt><trkpt lat="44.30348" lon="11.64523"><ele>62.0</ele><time>2026-05-01T12:32:21.443Z</time></trkpt><trkpt lat="44.303405" lon="11.64533"><ele>62.0</ele><time>2026-05-01T12:32:23.443Z</time></trkpt><trkpt lat="44.3033367" lon="11.6454383"><ele>62.0</ele><time>2026-05-01T12:32:25.441Z</time></trkpt><trkpt lat="44.3032667" lon="11.6455367"><ele>62.0</ele><time>2026-05-01T12:32:27.441Z</time></trkpt><trkpt lat="44.3031917" lon="11.6456183"><ele>62.00000000000001</ele><time>2026-05-01T12:32:29.44Z</time></trkpt><trkpt lat="44.30311" lon="11.6456867"><ele>62.0</ele><time>2026-05-01T12:32:31.441Z</time></trkpt><trkpt lat="44.3030317" lon="11.6456983"><ele>62.0</ele><time>2026-05-01T12:32:33.444Z</time></trkpt><trkpt lat="44.3029717" lon="11.6456467"><ele>62.0</ele><time>2026-05-01T12:32:35.44Z</time></trkpt><trkpt lat="44.302935" lon="11.645545"><ele>62.00000000000001</ele><time>2026-05-01T12:32:37.442Z</time></trkpt><trkpt lat="44.3028933" lon="11.645425"><ele>62.0</ele><time>2026-05-01T12:32:39.441Z</time></trkpt><trkpt lat="44.3028433" lon="11.64531"><ele>62.0</ele><time>2026-05-01T12:32:41.441Z</time></trkpt><trkpt lat="44.3027983" lon="11.6452"><ele>62.0</ele><time>2026-05-01T12:32:43.441Z</time></trkpt><trkpt lat="44.30275" lon="11.645085"><ele>62.0</ele><time>2026-05-01T12:32:45.438Z</time></trkpt><trkpt lat="44.3027033" lon="11.6449683"><ele>62.0</ele><time>2026-05-01T12:32:47.442Z</time></trkpt><trkpt lat="44.3026583" lon="11.6448517"><ele>62.0</ele><time>2026-05-01T12:32:49.442Z</time></trkpt><trkpt lat="44.30261" lon="11.64473"><ele>62.0</ele><time>2026-05-01T12:32:51.441Z</time></trkpt><trkpt lat="44.3025633" lon="11.6446117"><ele>62.0</ele><time>2026-05-01T12:32:53.443Z</time></trkpt><trkpt lat="44.3025167" lon="11.644495"><ele>62.0</ele><time>2026-05-01T12:32:55.44Z</time></trkpt><trkpt lat="44.3024633" lon="11.64438"><ele>62.0</ele><time>2026-05-01T12:32:57.439Z</time></trkpt><trkpt lat="44.302415" lon="11.64427"><ele>62.0</ele><time>2026-05-01T12:32:59.44Z</time></trkpt><trkpt lat="44.30237" lon="11.6441567"><ele>62.0</ele><time>2026-05-01T12:33:01.44Z</time></trkpt><trkpt lat="44.3023217" lon="11.6440467"><ele>62.0</ele><time>2026-05-01T12:33:03.44Z</time></trkpt><trkpt lat="44.302275" lon="11.643935"><ele>62.0</ele><time>2026-05-01T12:33:05.44Z</time></trkpt><trkpt lat="44.3022267" lon="11.6438267"><ele>62.0</ele><time>2026-05-01T12:33:07.44Z</time></trkpt><trkpt lat="44.3021817" lon="11.64372"><ele>62.0</ele><time>2026-05-01T12:33:09.439Z</time></trkpt><trkpt lat="44.3021367" lon="11.643615"><ele>62.16666666666667</ele><time>2026-05-01T12:33:11.439Z</time></trkpt><trkpt lat="44.30209" lon="11.6435083"><ele>62.333333333333336</ele><time>2026-05-01T12:33:13.44Z</time></trkpt><trkpt lat="44.3020417" lon="11.6434067"><ele>62.5</ele><time>2026-05-01T12:33:15.439Z</time></trkpt><trkpt lat="44.3019983" lon="11.6433033"><ele>62.66666666666667</ele><time>2026-05-01T12:33:17.443Z</time></trkpt><trkpt lat="44.3019867" lon="11.6432"><ele>62.833333333333336</ele><time>2026-05-01T12:33:19.443Z</time></trkpt><trkpt lat="44.30201" lon="11.6431117"><ele>63.0</ele><time>2026-05-01T12:33:21.442Z</time></trkpt><trkpt lat="44.30205" lon="11.6430317"><ele>63.0</ele><time>2026-05-01T12:33:23.443Z</time></trkpt><trkpt lat="44.3020883" lon="11.6429483"><ele>63.0</ele><time>2026-05-01T12:33:25.441Z</time></trkpt><trkpt lat="44.3021317" lon="11.6428433"><ele>63.0</ele><time>2026-05-01T12:33:27.44Z</time></trkpt><trkpt lat="44.302195" lon="11.6427417"><ele>63.0</ele><time>2026-05-01T12:33:29.44Z</time></trkpt><trkpt lat="44.3022583" lon="11.642645"><ele>63.0</ele><time>2026-05-01T12:33:31.44Z</time></trkpt><trkpt lat="44.3023217" lon="11.64255"><ele>63.0</ele><time>2026-05-01T12:33:33.44Z</time></trkpt><trkpt lat="44.302385" lon="11.6424533"><ele>63.2</ele><time>2026-05-01T12:33:35.439Z</time></trkpt><trkpt lat="44.30245" lon="11.6423483"><ele>63.4</ele><time>2026-05-01T12:33:37.441Z</time></trkpt><trkpt lat="44.3025117" lon="11.6422433"><ele>63.60000000000001</ele><time>2026-05-01T12:33:39.44Z</time></trkpt><trkpt lat="44.3025717" lon="11.6421333"><ele>63.800000000000004</ele><time>2026-05-01T12:33:41.439Z</time></trkpt><trkpt lat="44.3026367" lon="11.642025"><ele>64.0</ele><time>2026-05-01T12:33:43.439Z</time></trkpt><trkpt lat="44.3026833" lon="11.641915"><ele>64.16666666666666</ele><time>2026-05-01T12:33:45.44Z</time></trkpt><trkpt lat="44.3027167" lon="11.641835"><ele>64.33333333333333</ele><time>2026-05-01T12:33:47.442Z</time></trkpt><trkpt lat="44.3027817" lon="11.64174"><ele>64.5</ele><time>2026-05-01T12:33:50.439Z</time></trkpt><trkpt lat="44.302845" lon="11.6416517"><ele>64.66666666666667</ele><time>2026-05-01T12:33:52.439Z</time></trkpt><trkpt lat="44.3029183" lon="11.6415483"><ele>64.83333333333334</ele><time>2026-05-01T12:33:54.439Z</time></trkpt><trkpt lat="44.30297" lon="11.6414667"><ele>65.0</ele><time>2026-05-01T12:33:56.439Z</time></trkpt><trkpt lat="44.3030217" lon="11.641405"><ele>65.00000000000001</ele><time>2026-05-01T12:33:58.44Z</time></trkpt><trkpt lat="44.3030783" lon="11.6413417"><ele>65.0</ele><time>2026-05-01T12:34:00.439Z</time></trkpt><trkpt lat="44.3031483" lon="11.6412533"><ele>65.0</ele><time>2026-05-01T12:34:03.439Z</time></trkpt><trkpt lat="44.3031717" lon="11.6411583"><ele>65.0</ele><time>2026-05-01T12:34:06.44Z</time></trkpt><trkpt lat="44.3031" lon="11.64114"><ele>65.0</ele><time>2026-05-01T12:34:09.44Z</time></trkpt><trkpt lat="44.3030367" lon="11.641145"><ele>65.00000000000001</ele><time>2026-05-01T12:34:11.44Z</time></trkpt><trkpt lat="44.3029667" lon="11.6411417"><ele>65.0</ele><time>2026-05-01T12:34:13.44Z</time></trkpt><trkpt lat="44.302885" lon="11.64114"><ele>65.0</ele><time>2026-05-01T12:34:15.44Z</time></trkpt><trkpt lat="44.3027983" lon="11.6411317"><ele>65.0</ele><time>2026-05-01T12:34:17.442Z</time></trkpt><trkpt lat="44.3027133" lon="11.6411317"><ele>65.0</ele><time>2026-05-01T12:34:19.44Z</time></trkpt><trkpt lat="44.30263" lon="11.64113"><ele>65.0</ele><time>2026-05-01T12:34:21.44Z</time></trkpt><trkpt lat="44.3025433" lon="11.6411283"><ele>65.0</ele><time>2026-05-01T12:34:23.44Z</time></trkpt><trkpt lat="44.302455" lon="11.6411283"><ele>65.0</ele><time>2026-05-01T12:34:25.44Z</time></trkpt><trkpt lat="44.3023617" lon="11.641125"><ele>65.0</ele><time>2026-05-01T12:34:27.439Z</time></trkpt><trkpt lat="44.3022617" lon="11.6411217"><ele>65.0</ele><time>2026-05-01T12:34:29.44Z</time></trkpt><trkpt lat="44.302155" lon="11.641125"><ele>65.0</ele><time>2026-05-01T12:34:31.441Z</time></trkpt><trkpt lat="44.3020433" lon="11.6411167"><ele>65.0</ele><time>2026-05-01T12:34:33.439Z</time></trkpt><trkpt lat="44.3019317" lon="11.6411083"><ele>65.0</ele><time>2026-05-01T12:34:35.44Z</time></trkpt><trkpt lat="44.3018217" lon="11.6410983"><ele>65.2</ele><time>2026-05-01T12:34:37.439Z</time></trkpt><trkpt lat="44.301715" lon="11.641085"><ele>65.4</ele><time>2026-05-01T12:34:39.44Z</time></trkpt><trkpt lat="44.3016117" lon="11.64108"><ele>65.6</ele><time>2026-05-01T12:34:41.438Z</time></trkpt><trkpt lat="44.301505" lon="11.64107"><ele>65.8</ele><time>2026-05-01T12:34:43.441Z</time></trkpt><trkpt lat="44.3014017" lon="11.6410583"><ele>66.0</ele><time>2026-05-01T12:34:45.44Z</time></trkpt><trkpt lat="44.3012933" lon="11.6410467"><ele>66.25</ele><time>2026-05-01T12:34:47.441Z</time></trkpt><trkpt lat="44.30118" lon="11.64104"><ele>66.5</ele><time>2026-05-01T12:34:49.44Z</time></trkpt><trkpt lat="44.301065" lon="11.6410317"><ele>66.75</ele><time>2026-05-01T12:34:51.44Z</time></trkpt><trkpt lat="44.3009483" lon="11.641025"><ele>67.0</ele><time>2026-05-01T12:34:53.44Z</time></trkpt><trkpt lat="44.3008367" lon="11.641015"><ele>67.0</ele><time>2026-05-01T12:34:55.44Z</time></trkpt><trkpt lat="44.300725" lon="11.64101"><ele>67.0</ele><time>2026-05-01T12:34:57.439Z</time></trkpt><trkpt lat="44.3006117" lon="11.641"><ele>67.0</ele><time>2026-05-01T12:34:59.44Z</time></trkpt><trkpt lat="44.3005017" lon="11.640995"><ele>67.0</ele><time>2026-05-01T12:35:01.441Z</time></trkpt><trkpt lat="44.30039" lon="11.6409933"><ele>67.0</ele><time>2026-05-01T12:35:03.44Z</time></trkpt><trkpt lat="44.30028" lon="11.6409883"><ele>67.0</ele><time>2026-05-01T12:35:05.439Z</time></trkpt><trkpt lat="44.300175" lon="11.640985"><ele>67.0</ele><time>2026-05-01T12:35:07.444Z</time></trkpt><trkpt lat="44.3000783" lon="11.640975"><ele>67.0</ele><time>2026-05-01T12:35:09.439Z</time></trkpt><trkpt lat="44.299995" lon="11.6409633"><ele>67.0</ele><time>2026-05-01T12:35:11.439Z</time></trkpt><trkpt lat="44.2999317" lon="11.6409633"><ele>67.0</ele><time>2026-05-01T12:35:13.44Z</time></trkpt><trkpt lat="44.2998767" lon="11.6410333"><ele>67.0</ele><time>2026-05-01T12:35:15.44Z</time></trkpt><trkpt lat="44.29981" lon="11.6411217"><ele>66.83333333333333</ele><time>2026-05-01T12:35:17.443Z</time></trkpt><trkpt lat="44.2997467" lon="11.641215"><ele>66.66666666666666</ele><time>2026-05-01T12:35:19.439Z</time></trkpt><trkpt lat="44.299685" lon="11.6413017"><ele>66.5</ele><time>2026-05-01T12:35:21.44Z</time></trkpt><trkpt lat="44.2996233" lon="11.64139"><ele>66.33333333333333</ele><time>2026-05-01T12:35:23.439Z</time></trkpt><trkpt lat="44.2995683" lon="11.6414817"><ele>66.16666666666667</ele><time>2026-05-01T12:35:25.439Z</time></trkpt><trkpt lat="44.2995133" lon="11.6415783"><ele>66.0</ele><time>2026-05-01T12:35:27.44Z</time></trkpt><trkpt lat="44.2994483" lon="11.641675"><ele>66.0</ele><time>2026-05-01T12:35:29.44Z</time></trkpt><trkpt lat="44.2993833" lon="11.6417783"><ele>66.0</ele><time>2026-05-01T12:35:31.441Z</time></trkpt><trkpt lat="44.29932" lon="11.6418783"><ele>66.0</ele><time>2026-05-01T12:35:33.439Z</time></trkpt><trkpt lat="44.2992583" lon="11.64197"><ele>66.0</ele><time>2026-05-01T12:35:35.439Z</time></trkpt><trkpt lat="44.2992033" lon="11.64205"><ele>66.0</ele><time>2026-05-01T12:35:37.441Z</time></trkpt><trkpt lat="44.299155" lon="11.64212"><ele>66.0</ele><time>2026-05-01T12:35:39.441Z</time></trkpt><trkpt lat="44.2991117" lon="11.642185"><ele>65.2</ele><time>2026-05-01T12:35:41.44Z</time></trkpt><trkpt lat="44.2990617" lon="11.6422683"><ele>64.39999999999999</ele><time>2026-05-01T12:35:43.441Z</time></trkpt><trkpt lat="44.299005" lon="11.6423683"><ele>63.6</ele><time>2026-05-01T12:35:45.439Z</time></trkpt><trkpt lat="44.2989367" lon="11.6424683"><ele>62.8</ele><time>2026-05-01T12:35:47.443Z</time></trkpt><trkpt lat="44.2988717" lon="11.6425633"><ele>62.0</ele><time>2026-05-01T12:35:49.44Z</time></trkpt><trkpt lat="44.2988067" lon="11.642665"><ele>62.0</ele><time>2026-05-01T12:35:51.439Z</time></trkpt><trkpt lat="44.2987417" lon="11.64276"><ele>62.0</ele><time>2026-05-01T12:35:53.439Z</time></trkpt><trkpt lat="44.2986783" lon="11.6428467"><ele>62.0</ele><time>2026-05-01T12:35:55.44Z</time></trkpt><trkpt lat="44.2986167" lon="11.6429417"><ele>62.0</ele><time>2026-05-01T12:35:57.441Z</time></trkpt><trkpt lat="44.29855" lon="11.6430417"><ele>62.0</ele><time>2026-05-01T12:35:59.438Z</time></trkpt><trkpt lat="44.2984833" lon="11.6431467"><ele>62.66666666666667</ele><time>2026-05-01T12:36:01.439Z</time></trkpt><trkpt lat="44.29842" lon="11.643245"><ele>63.333333333333336</ele><time>2026-05-01T12:36:03.44Z</time></trkpt><trkpt lat="44.2983583" lon="11.64333"><ele>64.0</ele><time>2026-05-01T12:36:05.439Z</time></trkpt><trkpt lat="44.298305" lon="11.6434067"><ele>64.66666666666667</ele><time>2026-05-01T12:36:07.442Z</time></trkpt><trkpt lat="44.2982583" lon="11.64348"><ele>65.33333333333333</ele><time>2026-05-01T12:36:09.44Z</time></trkpt><trkpt lat="44.2982067" lon="11.64354"><ele>66.0</ele><time>2026-05-01T12:36:11.439Z</time></trkpt><trkpt lat="44.29815" lon="11.6435867"><ele>68.66666666666667</ele><time>2026-05-01T12:36:13.441Z</time></trkpt><trkpt lat="44.2980633" lon="11.643625"><ele>71.33333333333333</ele><time>2026-05-01T12:36:16.442Z</time></trkpt><trkpt lat="44.2979867" lon="11.6436283"><ele>74.0</ele><time>2026-05-01T12:36:19.441Z</time></trkpt><trkpt lat="44.2979033" lon="11.64361"><ele>76.66666666666666</ele><time>2026-05-01T12:36:22.442Z</time></trkpt><trkpt lat="44.2978267" lon="11.64356"><ele>79.33333333333333</ele><time>2026-05-01T12:36:25.44Z</time></trkpt><trkpt lat="44.2977533" lon="11.64351"><ele>82.0</ele><time>2026-05-01T12:36:28.439Z</time></trkpt><trkpt lat="44.2976817" lon="11.6434567"><ele>81.99999999999999</ele><time>2026-05-01T12:36:31.44Z</time></trkpt><trkpt lat="44.2976133" lon="11.643395"><ele>82.0</ele><time>2026-05-01T12:36:34.443Z</time></trkpt><trkpt lat="44.297545" lon="11.64334"><ele>82.0</ele><time>2026-05-01T12:36:37.441Z</time></trkpt><trkpt lat="44.2974817" lon="11.64329"><ele>82.0</ele><time>2026-05-01T12:36:40.441Z</time></trkpt><trkpt lat="44.297425" lon="11.6432367"><ele>82.0</ele><time>2026-05-01T12:36:43.441Z</time></trkpt><trkpt lat="44.2973617" lon="11.6431867"><ele>81.99999999999999</ele><time>2026-05-01T12:36:46.441Z</time></trkpt><trkpt lat="44.2972933" lon="11.6431467"><ele>82.0</ele><time>2026-05-01T12:36:49.441Z</time></trkpt><trkpt lat="44.2972283" lon="11.643095"><ele>83.0</ele><time>2026-05-01T12:36:52.443Z</time></trkpt><trkpt lat="44.2971667" lon="11.6430417"><ele>84.0</ele><time>2026-05-01T12:36:55.44Z</time></trkpt><trkpt lat="44.29709" lon="11.6430017"><ele>85.0</ele><time>2026-05-01T12:36:59.439Z</time></trkpt><trkpt lat="44.297025" lon="11.6429533"><ele>86.0</ele><time>2026-05-01T12:37:02.44Z</time></trkpt><trkpt lat="44.2969583" lon="11.6428967"><ele>87.0</ele><time>2026-05-01T12:37:05.442Z</time></trkpt><trkpt lat="44.29687" lon="11.6428533"><ele>88.0</ele><time>2026-05-01T12:37:08.445Z</time></trkpt><trkpt lat="44.2967967" lon="11.6428117"><ele>87.66666666666666</ele><time>2026-05-01T12:37:11.44Z</time></trkpt><trkpt lat="44.296745" lon="11.6427583"><ele>87.33333333333333</ele><time>2026-05-01T12:37:14.441Z</time></trkpt><trkpt lat="44.29668" lon="11.64271"><ele>87.0</ele><time>2026-05-01T12:37:17.443Z</time></trkpt><trkpt lat="44.2965983" lon="11.6426867"><ele>86.66666666666667</ele><time>2026-05-01T12:37:21.44Z</time></trkpt><trkpt lat="44.296545" lon="11.6426033"><ele>86.33333333333334</ele><time>2026-05-01T12:37:25.44Z</time></trkpt><trkpt lat="44.296475" lon="11.64256"><ele>86.0</ele><time>2026-05-01T12:37:30.442Z</time></trkpt><trkpt lat="44.29641" lon="11.642495"><ele>86.00000000000001</ele><time>2026-05-01T12:37:34.442Z</time></trkpt><trkpt lat="44.29634" lon="11.642425"><ele>86.0</ele><time>2026-05-01T12:37:38.439Z</time></trkpt><trkpt lat="44.2962783" lon="11.6423833"><ele>86.0</ele><time>2026-05-01T12:37:41.442Z</time></trkpt><trkpt lat="44.296205" lon="11.6423467"><ele>86.0</ele><time>2026-05-01T12:37:45.44Z</time></trkpt><trkpt lat="44.296145" lon="11.642315"><ele>86.0</ele><time>2026-05-01T12:37:48.442Z</time></trkpt><trkpt lat="44.2960833" lon="11.6422933"><ele>86.00000000000001</ele><time>2026-05-01T12:37:51.442Z</time></trkpt><trkpt lat="44.2960267" lon="11.6422367"><ele>86.0</ele><time>2026-05-01T12:37:55.441Z</time></trkpt><trkpt lat="44.2960833" lon="11.6423117"><ele>86.0</ele><time>2026-05-01T12:38:06.442Z</time></trkpt><trkpt lat="44.2961633" lon="11.6423633"><ele>86.0</ele><time>2026-05-01T12:38:09.44Z</time></trkpt><trkpt lat="44.2962467" lon="11.642425"><ele>86.0</ele><time>2026-05-01T12:38:12.44Z</time></trkpt><trkpt lat="44.2963267" lon="11.64248"><ele>86.0</ele><time>2026-05-01T12:38:15.442Z</time></trkpt><trkpt lat="44.2963867" lon="11.6425217"><ele>86.0</ele><time>2026-05-01T12:38:17.442Z</time></trkpt><trkpt lat="44.2964483" lon="11.6425617"><ele>86.0</ele><time>2026-05-01T12:38:19.443Z</time></trkpt><trkpt lat="44.296515" lon="11.6425967"><ele>86.0</ele><time>2026-05-01T12:38:21.44Z</time></trkpt><trkpt lat="44.2965733" lon="11.6426417"><ele>86.0</ele><time>2026-05-01T12:38:23.443Z</time></trkpt><trkpt lat="44.29664" lon="11.6426867"><ele>86.0</ele><time>2026-05-01T12:38:26.44Z</time></trkpt><trkpt lat="44.296585" lon="11.6426333"><ele>86.0</ele><time>2026-05-01T12:38:46.443Z</time></trkpt><trkpt lat="44.29651" lon="11.6425867"><ele>86.0</ele><time>2026-05-01T12:38:49.444Z</time></trkpt><trkpt lat="44.2964317" lon="11.64253"><ele>86.0</ele><time>2026-05-01T12:38:52.443Z</time></trkpt><trkpt lat="44.2963583" lon="11.6424733"><ele>86.0</ele><time>2026-05-01T12:38:55.44Z</time></trkpt><trkpt lat="44.296285" lon="11.6424317"><ele>86.0</ele><time>2026-05-01T12:38:58.44Z</time></trkpt><trkpt lat="44.2962217" lon="11.6423783"><ele>86.0</ele><time>2026-05-01T12:39:01.441Z</time></trkpt><trkpt lat="44.29615" lon="11.6423133"><ele>86.0</ele><time>2026-05-01T12:39:04.441Z</time></trkpt><trkpt lat="44.2960667" lon="11.6422567"><ele>86.0</ele><time>2026-05-01T12:39:07.441Z</time></trkpt><trkpt lat="44.2959833" lon="11.6421967"><ele>86.0</ele><time>2026-05-01T12:39:10.441Z</time></trkpt><trkpt lat="44.295925" lon="11.6421633"><ele>86.00000000000001</ele><time>2026-05-01T12:39:12.441Z</time></trkpt><trkpt lat="44.29584" lon="11.6421233"><ele>86.0</ele><time>2026-05-01T12:39:15.441Z</time></trkpt><trkpt lat="44.2957767" lon="11.6421133"><ele>86.0</ele><time>2026-05-01T12:39:17.442Z</time></trkpt><trkpt lat="44.2957117" lon="11.6421133"><ele>86.0</ele><time>2026-05-01T12:39:19.44Z</time></trkpt><trkpt lat="44.2956233" lon="11.6421567"><ele>86.0</ele><time>2026-05-01T12:39:22.44Z</time></trkpt><trkpt lat="44.2955633" lon="11.6421883"><ele>86.00000000000001</ele><time>2026-05-01T12:39:24.44Z</time></trkpt><trkpt lat="44.29551" lon="11.6422467"><ele>86.0</ele><time>2026-05-01T12:39:26.44Z</time></trkpt><trkpt lat="44.2954417" lon="11.642325"><ele>86.66666666666667</ele><time>2026-05-01T12:39:29.439Z</time></trkpt><trkpt lat="44.29538" lon="11.6423733"><ele>87.33333333333334</ele><time>2026-05-01T12:39:31.441Z</time></trkpt><trkpt lat="44.295305" lon="11.64244"><ele>88.0</ele><time>2026-05-01T12:39:34.44Z</time></trkpt><trkpt lat="44.2952383" lon="11.6425067"><ele>88.66666666666667</ele><time>2026-05-01T12:39:37.439Z</time></trkpt><trkpt lat="44.2951683" lon="11.6425717"><ele>89.33333333333333</ele><time>2026-05-01T12:39:40.44Z</time></trkpt><trkpt lat="44.2950817" lon="11.6426283"><ele>90.0</ele><time>2026-05-01T12:39:43.439Z</time></trkpt><trkpt lat="44.2950233" lon="11.6426717"><ele>90.0</ele><time>2026-05-01T12:39:45.439Z</time></trkpt><trkpt lat="44.29496" lon="11.6427083"><ele>90.0</ele><time>2026-05-01T12:39:47.442Z</time></trkpt><trkpt lat="44.2949017" lon="11.6427483"><ele>90.0</ele><time>2026-05-01T12:39:49.441Z</time></trkpt><trkpt lat="44.2948417" lon="11.642795"><ele>90.0</ele><time>2026-05-01T12:39:51.439Z</time></trkpt><trkpt lat="44.2947733" lon="11.642835"><ele>90.0</ele><time>2026-05-01T12:39:53.44Z</time></trkpt><trkpt lat="44.2947067" lon="11.6428983"><ele>90.0</ele><time>2026-05-01T12:39:55.439Z</time></trkpt><trkpt lat="44.29464" lon="11.6429367"><ele>90.0</ele><time>2026-05-01T12:39:57.44Z</time></trkpt><trkpt lat="44.2945767" lon="11.64297"><ele>90.5</ele><time>2026-05-01T12:39:59.44Z</time></trkpt><trkpt lat="44.2945183" lon="11.6430133"><ele>91.0</ele><time>2026-05-01T12:40:01.439Z</time></trkpt><trkpt lat="44.2944583" lon="11.6430533"><ele>91.5</ele><time>2026-05-01T12:40:03.44Z</time></trkpt><trkpt lat="44.2943833" lon="11.643095"><ele>92.0</ele><time>2026-05-01T12:40:06.44Z</time></trkpt><trkpt lat="44.2943317" lon="11.6431467"><ele>92.5</ele><time>2026-05-01T12:40:09.439Z</time></trkpt><trkpt lat="44.29431" lon="11.6432517"><ele>93.0</ele><time>2026-05-01T12:40:12.438Z</time></trkpt><trkpt lat="44.2943483" lon="11.6433733"><ele>93.0</ele><time>2026-05-01T12:40:15.439Z</time></trkpt><trkpt lat="44.2943833" lon="11.6434517"><ele>93.0</ele><time>2026-05-01T12:40:17.441Z</time></trkpt><trkpt lat="44.2944233" lon="11.64354"><ele>93.0</ele><time>2026-05-01T12:40:19.439Z</time></trkpt><trkpt lat="44.29446" lon="11.6436433"><ele>93.0</ele><time>2026-05-01T12:40:21.439Z</time></trkpt><trkpt lat="44.2945133" lon="11.6437367"><ele>93.0</ele><time>2026-05-01T12:40:23.439Z</time></trkpt><trkpt lat="44.2945733" lon="11.6438283"><ele>93.0</ele><time>2026-05-01T12:40:25.439Z</time></trkpt><trkpt lat="44.2946317" lon="11.6439217"><ele>93.4</ele><time>2026-05-01T12:40:27.44Z</time></trkpt><trkpt lat="44.2946983" lon="11.644015"><ele>93.80000000000001</ele><time>2026-05-01T12:40:29.44Z</time></trkpt><trkpt lat="44.29477" lon="11.6441083"><ele>94.2</ele><time>2026-05-01T12:40:31.44Z</time></trkpt><trkpt lat="44.29483" lon="11.6442083"><ele>94.6</ele><time>2026-05-01T12:40:33.439Z</time></trkpt><trkpt lat="44.2948933" lon="11.6443133"><ele>95.0</ele><time>2026-05-01T12:40:35.438Z</time></trkpt><trkpt lat="44.2949633" lon="11.6444167"><ele>94.2</ele><time>2026-05-01T12:40:37.439Z</time></trkpt><trkpt lat="44.2950433" lon="11.64452"><ele>93.4</ele><time>2026-05-01T12:40:39.439Z</time></trkpt><trkpt lat="44.2951167" lon="11.6446317"><ele>92.6</ele><time>2026-05-01T12:40:41.439Z</time></trkpt><trkpt lat="44.2951917" lon="11.6447383"><ele>91.8</ele><time>2026-05-01T12:40:43.44Z</time></trkpt><trkpt lat="44.2952683" lon="11.64485"><ele>91.0</ele><time>2026-05-01T12:40:45.439Z</time></trkpt><trkpt lat="44.2953467" lon="11.64496"><ele>91.0</ele><time>2026-05-01T12:40:47.442Z</time></trkpt><trkpt lat="44.2954317" lon="11.6450717"><ele>91.0</ele><time>2026-05-01T12:40:49.438Z</time></trkpt><trkpt lat="44.295515" lon="11.6451933"><ele>91.0</ele><time>2026-05-01T12:40:51.439Z</time></trkpt><trkpt lat="44.2956" lon="11.6453183"><ele>91.0</ele><time>2026-05-01T12:40:53.438Z</time></trkpt><trkpt lat="44.2956417" lon="11.645385"><ele>91.0</ele><time>2026-05-01T12:40:54.44Z</time></trkpt><trkpt lat="44.29572" lon="11.645515"><ele>89.5</ele><time>2026-05-01T12:40:56.44Z</time></trkpt><trkpt lat="44.2957967" lon="11.6456483"><ele>88.0</ele><time>2026-05-01T12:40:58.438Z</time></trkpt><trkpt lat="44.29588" lon="11.6457783"><ele>86.5</ele><time>2026-05-01T12:41:00.44Z</time></trkpt><trkpt lat="44.2959617" lon="11.645905"><ele>85.0</ele><time>2026-05-01T12:41:02.44Z</time></trkpt><trkpt lat="44.2960417" lon="11.646035"><ele>84.75</ele><time>2026-05-01T12:41:04.439Z</time></trkpt><trkpt lat="44.2961233" lon="11.646165"><ele>84.5</ele><time>2026-05-01T12:41:06.44Z</time></trkpt><trkpt lat="44.29621" lon="11.64629"><ele>84.25</ele><time>2026-05-01T12:41:08.439Z</time></trkpt><trkpt lat="44.296295" lon="11.6464167"><ele>84.0</ele><time>2026-05-01T12:41:10.439Z</time></trkpt><trkpt lat="44.2963783" lon="11.64654"><ele>83.80000000000001</ele><time>2026-05-01T12:41:12.44Z</time></trkpt><trkpt lat="44.2964583" lon="11.6466567"><ele>83.60000000000001</ele><time>2026-05-01T12:41:14.44Z</time></trkpt><trkpt lat="44.296535" lon="11.6467683"><ele>83.4</ele><time>2026-05-01T12:41:16.443Z</time></trkpt><trkpt lat="44.2966133" lon="11.6468833"><ele>83.2</ele><time>2026-05-01T12:41:18.438Z</time></trkpt><trkpt lat="44.29669" lon="11.6469917"><ele>83.0</ele><time>2026-05-01T12:41:20.44Z</time></trkpt><trkpt lat="44.2967633" lon="11.6470917"><ele>84.0</ele><time>2026-05-01T12:41:22.439Z</time></trkpt><trkpt lat="44.2968283" lon="11.6471917"><ele>85.0</ele><time>2026-05-01T12:41:24.439Z</time></trkpt><trkpt lat="44.2968933" lon="11.647285"><ele>86.0</ele><time>2026-05-01T12:41:26.44Z</time></trkpt><trkpt lat="44.2969483" lon="11.6473867"><ele>87.0</ele><time>2026-05-01T12:41:28.44Z</time></trkpt><trkpt lat="44.29701" lon="11.6474867"><ele>88.0</ele><time>2026-05-01T12:41:30.44Z</time></trkpt><trkpt lat="44.297075" lon="11.6475833"><ele>88.0</ele><time>2026-05-01T12:41:32.44Z</time></trkpt><trkpt lat="44.2971383" lon="11.647675"><ele>88.0</ele><time>2026-05-01T12:41:34.44Z</time></trkpt><trkpt lat="44.2971983" lon="11.64777"><ele>88.0</ele><time>2026-05-01T12:41:36.44Z</time></trkpt><trkpt lat="44.2972617" lon="11.6478567"><ele>88.0</ele><time>2026-05-01T12:41:38.44Z</time></trkpt><trkpt lat="44.2973217" lon="11.6479483"><ele>88.0</ele><time>2026-05-01T12:41:40.439Z</time></trkpt><trkpt lat="44.29738" lon="11.6480433"><ele>88.0</ele><time>2026-05-01T12:41:42.44Z</time></trkpt><trkpt lat="44.2974433" lon="11.6481367"><ele>88.33333333333333</ele><time>2026-05-01T12:41:44.44Z</time></trkpt><trkpt lat="44.2975083" lon="11.6482217"><ele>88.66666666666666</ele><time>2026-05-01T12:41:46.443Z</time></trkpt><trkpt lat="44.29757" lon="11.6483117"><ele>89.0</ele><time>2026-05-01T12:41:48.44Z</time></trkpt><trkpt lat="44.29763" lon="11.6484033"><ele>89.33333333333333</ele><time>2026-05-01T12:41:50.439Z</time></trkpt><trkpt lat="44.2976917" lon="11.648495"><ele>89.66666666666667</ele><time>2026-05-01T12:41:52.44Z</time></trkpt><trkpt lat="44.2977517" lon="11.6485817"><ele>90.0</ele><time>2026-05-01T12:41:54.441Z</time></trkpt><trkpt lat="44.29781" lon="11.6486683"><ele>90.16666666666667</ele><time>2026-05-01T12:41:56.44Z</time></trkpt><trkpt lat="44.2978617" lon="11.6487633"><ele>90.33333333333333</ele><time>2026-05-01T12:41:58.44Z</time></trkpt><trkpt lat="44.2979183" lon="11.6488567"><ele>90.5</ele><time>2026-05-01T12:42:00.439Z</time></trkpt><trkpt lat="44.2979767" lon="11.648945"><ele>90.66666666666666</ele><time>2026-05-01T12:42:02.439Z</time></trkpt><trkpt lat="44.2980367" lon="11.649035"><ele>90.83333333333333</ele><time>2026-05-01T12:42:04.441Z</time></trkpt><trkpt lat="44.2980933" lon="11.649125"><ele>91.0</ele><time>2026-05-01T12:42:06.44Z</time></trkpt><trkpt lat="44.2981333" lon="11.6492267"><ele>91.0</ele><time>2026-05-01T12:42:08.439Z</time></trkpt><trkpt lat="44.2981183" lon="11.649325"><ele>91.0</ele><time>2026-05-01T12:42:10.441Z</time></trkpt><trkpt lat="44.2980617" lon="11.6493717"><ele>91.0</ele><time>2026-05-01T12:42:12.44Z</time></trkpt><trkpt lat="44.2979967" lon="11.649395"><ele>91.0</ele><time>2026-05-01T12:42:14.44Z</time></trkpt><trkpt lat="44.297945" lon="11.6494483"><ele>91.0</ele><time>2026-05-01T12:42:16.443Z</time></trkpt><trkpt lat="44.2978917" lon="11.6495"><ele>91.0</ele><time>2026-05-01T12:42:18.443Z</time></trkpt><trkpt lat="44.297835" lon="11.649555"><ele>91.0</ele><time>2026-05-01T12:42:20.443Z</time></trkpt><trkpt lat="44.29778" lon="11.649615"><ele>91.42857142857143</ele><time>2026-05-01T12:42:22.442Z</time></trkpt><trkpt lat="44.29773" lon="11.649675"><ele>91.85714285714286</ele><time>2026-05-01T12:42:24.442Z</time></trkpt><trkpt lat="44.29768" lon="11.6497383"><ele>92.28571428571428</ele><time>2026-05-01T12:42:26.439Z</time></trkpt><trkpt lat="44.2976233" lon="11.6498"><ele>92.71428571428572</ele><time>2026-05-01T12:42:28.44Z</time></trkpt><trkpt lat="44.29757" lon="11.64986"><ele>93.14285714285714</ele><time>2026-05-01T12:42:30.439Z</time></trkpt><trkpt lat="44.2975183" lon="11.6499217"><ele>93.57142857142857</ele><time>2026-05-01T12:42:32.439Z</time></trkpt><trkpt lat="44.2974683" lon="11.6499883"><ele>94.0</ele><time>2026-05-01T12:42:34.44Z</time></trkpt><trkpt lat="44.2974183" lon="11.6500483"><ele>94.0</ele><time>2026-05-01T12:42:36.44Z</time></trkpt><trkpt lat="44.2973483" lon="11.6501333"><ele>94.0</ele><time>2026-05-01T12:42:39.44Z</time></trkpt><trkpt lat="44.297295" lon="11.6501933"><ele>94.0</ele><time>2026-05-01T12:42:41.44Z</time></trkpt><trkpt lat="44.2972433" lon="11.6502583"><ele>94.0</ele><time>2026-05-01T12:42:43.44Z</time></trkpt><trkpt lat="44.2971983" lon="11.6503317"><ele>94.0</ele><time>2026-05-01T12:42:45.44Z</time></trkpt><trkpt lat="44.29714" lon="11.6504267"><ele>94.0</ele><time>2026-05-01T12:42:48.442Z</time></trkpt><trkpt lat="44.2970717" lon="11.6505"><ele>95.0</ele><time>2026-05-01T12:42:51.443Z</time></trkpt><trkpt lat="44.2970017" lon="11.6505733"><ele>96.0</ele><time>2026-05-01T12:42:54.442Z</time></trkpt><trkpt lat="44.29695" lon="11.6506267"><ele>97.0</ele><time>2026-05-01T12:42:56.44Z</time></trkpt><trkpt lat="44.2968783" lon="11.6507067"><ele>98.0</ele><time>2026-05-01T12:42:59.439Z</time></trkpt><trkpt lat="44.296825" lon="11.6507917"><ele>99.00000000000001</ele><time>2026-05-01T12:43:02.44Z</time></trkpt><trkpt lat="44.2967767" lon="11.6508767"><ele>100.0</ele><time>2026-05-01T12:43:05.439Z</time></trkpt><trkpt lat="44.296725" lon="11.650955"><ele>100.00000000000001</ele><time>2026-05-01T12:43:08.442Z</time></trkpt><trkpt lat="44.2966533" lon="11.651005"><ele>100.0</ele><time>2026-05-01T12:43:11.442Z</time></trkpt><trkpt lat="44.29658" lon="11.6510633"><ele>100.0</ele><time>2026-05-01T12:43:14.441Z</time></trkpt><trkpt lat="44.296515" lon="11.6511367"><ele>100.0</ele><time>2026-05-01T12:43:17.443Z</time></trkpt><trkpt lat="44.296455" lon="11.651205"><ele>100.00000000000001</ele><time>2026-05-01T12:43:20.442Z</time></trkpt><trkpt lat="44.29639" lon="11.6512633"><ele>100.0</ele><time>2026-05-01T12:43:23.442Z</time></trkpt><trkpt lat="44.29632" lon="11.65133"><ele>101.14285714285715</ele><time>2026-05-01T12:43:26.439Z</time></trkpt><trkpt lat="44.2962583" lon="11.65139"><ele>102.28571428571429</ele><time>2026-05-01T12:43:29.439Z</time></trkpt><trkpt lat="44.2962017" lon="11.6514467"><ele>103.42857142857143</ele><time>2026-05-01T12:43:32.443Z</time></trkpt><trkpt lat="44.2961467" lon="11.6515017"><ele>104.57142857142858</ele><time>2026-05-01T12:43:35.439Z</time></trkpt><trkpt lat="44.2960933" lon="11.6515717"><ele>105.71428571428571</ele><time>2026-05-01T12:43:39.442Z</time></trkpt><trkpt lat="44.2960333" lon="11.6516317"><ele>106.85714285714286</ele><time>2026-05-01T12:43:44.442Z</time></trkpt><trkpt lat="44.29598" lon="11.6516933"><ele>108.0</ele><time>2026-05-01T12:43:49.443Z</time></trkpt><trkpt lat="44.2959183" lon="11.6517433"><ele>108.0</ele><time>2026-05-01T12:43:54.443Z</time></trkpt><trkpt lat="44.29587" lon="11.6518083"><ele>108.0</ele><time>2026-05-01T12:44:41.442Z</time></trkpt><trkpt lat="44.2958117" lon="11.651865"><ele>108.0</ele><time>2026-05-01T12:44:46.442Z</time></trkpt><trkpt lat="44.295745" lon="11.651905"><ele>108.0</ele><time>2026-05-01T12:44:51.443Z</time></trkpt><trkpt lat="44.29569" lon="11.6519533"><ele>108.0</ele><time>2026-05-01T12:44:56.441Z</time></trkpt><trkpt lat="44.295625" lon="11.6520117"><ele>108.0</ele><time>2026-05-01T12:45:01.441Z</time></trkpt><trkpt lat="44.2955617" lon="11.6520667"><ele>108.0</ele><time>2026-05-01T12:45:06.441Z</time></trkpt><trkpt lat="44.2955017" lon="11.6520983"><ele>109.85714285714286</ele><time>2026-05-01T12:45:10.441Z</time></trkpt><trkpt lat="44.2954367" lon="11.6521533"><ele>111.71428571428571</ele><time>2026-05-01T12:45:15.441Z</time></trkpt><trkpt lat="44.295375" lon="11.6521933"><ele>113.57142857142857</ele><time>2026-05-01T12:45:21.443Z</time></trkpt><trkpt lat="44.2953083" lon="11.6522233"><ele>115.42857142857142</ele><time>2026-05-01T12:45:26.44Z</time></trkpt><trkpt lat="44.2952483" lon="11.6522567"><ele>117.28571428571428</ele><time>2026-05-01T12:45:31.442Z</time></trkpt><trkpt lat="44.2951817" lon="11.65228"><ele>119.14285714285714</ele><time>2026-05-01T12:45:36.441Z</time></trkpt><trkpt lat="44.2951067" lon="11.6523067"><ele>121.0</ele><time>2026-05-01T12:45:41.441Z</time></trkpt><trkpt lat="44.295035" lon="11.6523083"><ele>121.0</ele><time>2026-05-01T12:45:46.438Z</time></trkpt><trkpt lat="44.2949667" lon="11.6523033"><ele>120.99999999999999</ele><time>2026-05-01T12:45:51.439Z</time></trkpt><trkpt lat="44.2949017" lon="11.65229"><ele>121.0</ele><time>2026-05-01T12:45:56.441Z</time></trkpt><trkpt lat="44.2948367" lon="11.6523167"><ele>121.0</ele><time>2026-05-01T12:46:02.438Z</time></trkpt><trkpt lat="44.2947667" lon="11.6523367"><ele>120.99999999999999</ele><time>2026-05-01T12:46:07.438Z</time></trkpt><trkpt lat="44.2946967" lon="11.6523567"><ele>121.0</ele><time>2026-05-01T12:46:13.439Z</time></trkpt><trkpt lat="44.2946233" lon="11.652375"><ele>121.0</ele><time>2026-05-01T12:46:19.441Z</time></trkpt><trkpt lat="44.2945683" lon="11.6524317"><ele>122.57142857142857</ele><time>2026-05-01T12:46:24.439Z</time></trkpt><trkpt lat="44.2945217" lon="11.6524933"><ele>124.14285714285714</ele><time>2026-05-01T12:46:29.441Z</time></trkpt><trkpt lat="44.294475" lon="11.652555"><ele>125.71428571428571</ele><time>2026-05-01T12:46:34.439Z</time></trkpt><trkpt lat="44.29442" lon="11.6526"><ele>127.28571428571428</ele><time>2026-05-01T12:46:38.44Z</time></trkpt><trkpt lat="44.29436" lon="11.652645"><ele>128.85714285714286</ele><time>2026-05-01T12:46:43.441Z</time></trkpt><trkpt lat="44.2942983" lon="11.652695"><ele>130.42857142857142</ele><time>2026-05-01T12:46:48.44Z</time></trkpt><trkpt lat="44.2942283" lon="11.6527"><ele>132.0</ele><time>2026-05-01T12:46:53.44Z</time></trkpt><trkpt lat="44.2941667" lon="11.6527233"><ele>132.0</ele><time>2026-05-01T12:46:58.44Z</time></trkpt><trkpt lat="44.2941017" lon="11.6527483"><ele>132.0</ele><time>2026-05-01T12:47:03.44Z</time></trkpt><trkpt lat="44.2940417" lon="11.6527833"><ele>132.0</ele><time>2026-05-01T12:47:08.439Z</time></trkpt><trkpt lat="44.2939733" lon="11.652815"><ele>132.0</ele><time>2026-05-01T12:47:14.44Z</time></trkpt><trkpt lat="44.293915" lon="11.65285"><ele>132.0</ele><time>2026-05-01T12:47:20.44Z</time></trkpt><trkpt lat="44.2938517" lon="11.6528717"><ele>132.0</ele><time>2026-05-01T12:47:25.441Z</time></trkpt><trkpt lat="44.29379" lon="11.6528417"><ele>132.0</ele><time>2026-05-01T12:47:30.441Z</time></trkpt><trkpt lat="44.293735" lon="11.6527933"><ele>134.14285714285714</ele><time>2026-05-01T12:47:36.44Z</time></trkpt><trkpt lat="44.2936833" lon="11.6527317"><ele>136.28571428571428</ele><time>2026-05-01T12:47:41.44Z</time></trkpt><trkpt lat="44.293615" lon="11.6527033"><ele>138.42857142857144</ele><time>2026-05-01T12:47:47.443Z</time></trkpt><trkpt lat="44.2935517" lon="11.6526817"><ele>140.57142857142856</ele><time>2026-05-01T12:47:53.44Z</time></trkpt><trkpt lat="44.293495" lon="11.6526317"><ele>142.71428571428572</ele><time>2026-05-01T12:48:00.443Z</time></trkpt><trkpt lat="44.2934233" lon="11.6526033"><ele>144.85714285714286</ele><time>2026-05-01T12:48:07.441Z</time></trkpt><trkpt lat="44.293355" lon="11.6525883"><ele>147.0</ele><time>2026-05-01T12:48:13.441Z</time></trkpt><trkpt lat="44.2932883" lon="11.6525767"><ele>147.0</ele><time>2026-05-01T12:48:19.44Z</time></trkpt><trkpt lat="44.293225" lon="11.652585"><ele>147.0</ele><time>2026-05-01T12:48:24.44Z</time></trkpt><trkpt lat="44.2931383" lon="11.6525833"><ele>147.0</ele><time>2026-05-01T12:48:32.441Z</time></trkpt><trkpt lat="44.2930683" lon="11.65258"><ele>147.0</ele><time>2026-05-01T12:48:39.442Z</time></trkpt><trkpt lat="44.2929983" lon="11.6525683"><ele>147.0</ele><time>2026-05-01T12:48:46.44Z</time></trkpt><trkpt lat="44.292935" lon="11.6525617"><ele>147.0</ele><time>2026-05-01T12:48:51.441Z</time></trkpt><trkpt lat="44.2928633" lon="11.65256"><ele>147.0</ele><time>2026-05-01T12:48:57.442Z</time></trkpt><trkpt lat="44.2927917" lon="11.6525633"><ele>149.42857142857142</ele><time>2026-05-01T12:49:03.441Z</time></trkpt><trkpt lat="44.2927167" lon="11.652565"><ele>151.85714285714286</ele><time>2026-05-01T12:49:09.441Z</time></trkpt><trkpt lat="44.2926483" lon="11.6525833"><ele>154.28571428571428</ele><time>2026-05-01T12:49:15.441Z</time></trkpt><trkpt lat="44.2925783" lon="11.6526067"><ele>156.71428571428572</ele><time>2026-05-01T12:49:22.442Z</time></trkpt><trkpt lat="44.2925133" lon="11.6526183"><ele>159.14285714285714</ele><time>2026-05-01T12:49:27.439Z</time></trkpt><trkpt lat="44.2924533" lon="11.6526683"><ele>161.57142857142856</ele><time>2026-05-01T12:49:33.44Z</time></trkpt><trkpt lat="44.29239" lon="11.6527233"><ele>164.0</ele><time>2026-05-01T12:49:39.44Z</time></trkpt><trkpt lat="44.2923317" lon="11.65276"><ele>165.0</ele><time>2026-05-01T12:49:43.442Z</time></trkpt><trkpt lat="44.2922783" lon="11.652815"><ele>166.0</ele><time>2026-05-01T12:49:48.443Z</time></trkpt><trkpt lat="44.2922083" lon="11.6528717"><ele>167.0</ele><time>2026-05-01T12:49:53.443Z</time></trkpt><trkpt lat="44.2921517" lon="11.6529367"><ele>168.0</ele><time>2026-05-01T12:49:57.441Z</time></trkpt><trkpt lat="44.2920867" lon="11.6530017"><ele>169.0</ele><time>2026-05-01T12:50:01.444Z</time></trkpt><trkpt lat="44.2920167" lon="11.6530767"><ele>170.0</ele><time>2026-05-01T12:50:05.439Z</time></trkpt><trkpt lat="44.2919583" lon="11.6531333"><ele>170.0</ele><time>2026-05-01T12:50:08.444Z</time></trkpt><trkpt lat="44.2919083" lon="11.6531933"><ele>170.0</ele><time>2026-05-01T12:50:11.441Z</time></trkpt><trkpt lat="44.2918417" lon="11.6532533"><ele>170.0</ele><time>2026-05-01T12:50:15.44Z</time></trkpt><trkpt lat="44.2917833" lon="11.6533117"><ele>170.0</ele><time>2026-05-01T12:50:19.442Z</time></trkpt><trkpt lat="44.291725" lon="11.6533667"><ele>170.0</ele><time>2026-05-01T12:50:22.447Z</time></trkpt><trkpt lat="44.2916683" lon="11.6534183"><ele>170.0</ele><time>2026-05-01T12:50:25.441Z</time></trkpt><trkpt lat="44.2916117" lon="11.653475"><ele>170.0</ele><time>2026-05-01T12:50:31.441Z</time></trkpt><trkpt lat="44.2915467" lon="11.6535317"><ele>170.0</ele><time>2026-05-01T12:50:36.44Z</time></trkpt><trkpt lat="44.2914783" lon="11.6535767"><ele>170.0</ele><time>2026-05-01T12:50:40.442Z</time></trkpt><trkpt lat="44.291405" lon="11.653625"><ele>170.0</ele><time>2026-05-01T12:50:44.44Z</time></trkpt><trkpt lat="44.2913517" lon="11.6536833"><ele>170.0</ele><time>2026-05-01T12:50:48.442Z</time></trkpt><trkpt lat="44.2912933" lon="11.653755"><ele>170.0</ele><time>2026-05-01T12:50:54.443Z</time></trkpt><trkpt lat="44.2912333" lon="11.6537967"><ele>170.0</ele><time>2026-05-01T12:50:58.44Z</time></trkpt><trkpt lat="44.2911667" lon="11.65384"><ele>170.0</ele><time>2026-05-01T12:51:02.438Z</time></trkpt><trkpt lat="44.2910967" lon="11.6538683"><ele>170.14285714285714</ele><time>2026-05-01T12:51:07.441Z</time></trkpt><trkpt lat="44.2910267" lon="11.6538817"><ele>170.28571428571428</ele><time>2026-05-01T12:51:12.44Z</time></trkpt><trkpt lat="44.2909667" lon="11.6539183"><ele>170.42857142857142</ele><time>2026-05-01T12:51:16.443Z</time></trkpt><trkpt lat="44.2909033" lon="11.6539117"><ele>170.57142857142856</ele><time>2026-05-01T12:51:20.441Z</time></trkpt><trkpt lat="44.2908283" lon="11.6539067"><ele>170.71428571428572</ele><time>2026-05-01T12:51:24.441Z</time></trkpt><trkpt lat="44.2907517" lon="11.6539133"><ele>170.85714285714283</ele><time>2026-05-01T12:51:29.44Z</time></trkpt><trkpt lat="44.2906817" lon="11.653915"><ele>171.0</ele><time>2026-05-01T12:51:34.441Z</time></trkpt><trkpt lat="44.2906083" lon="11.653925"><ele>172.7142857142857</ele><time>2026-05-01T12:51:40.441Z</time></trkpt><trkpt lat="44.2905417" lon="11.65392"><ele>174.42857142857142</ele><time>2026-05-01T12:51:46.442Z</time></trkpt><trkpt lat="44.2904717" lon="11.6539217"><ele>176.14285714285714</ele><time>2026-05-01T12:51:52.44Z</time></trkpt><trkpt lat="44.2904033" lon="11.65391"><ele>177.85714285714283</ele><time>2026-05-01T12:51:58.44Z</time></trkpt><trkpt lat="44.2903283" lon="11.6539067"><ele>179.57142857142858</ele><time>2026-05-01T12:52:03.44Z</time></trkpt><trkpt lat="44.2902583" lon="11.6539317"><ele>181.28571428571428</ele><time>2026-05-01T12:52:08.442Z</time></trkpt><trkpt lat="44.2901933" lon="11.65395"><ele>183.0</ele><time>2026-05-01T12:52:13.441Z</time></trkpt><trkpt lat="44.2901333" lon="11.65399"><ele>183.0</ele><time>2026-05-01T12:52:18.443Z</time></trkpt><trkpt lat="44.29008" lon="11.654055"><ele>183.0</ele><time>2026-05-01T12:52:22.44Z</time></trkpt><trkpt lat="44.290035" lon="11.6541283"><ele>183.0</ele><time>2026-05-01T12:52:25.44Z</time></trkpt><trkpt lat="44.2899817" lon="11.6542067"><ele>183.0</ele><time>2026-05-01T12:52:28.442Z</time></trkpt><trkpt lat="44.2899383" lon="11.6542783"><ele>183.0</ele><time>2026-05-01T12:52:30.442Z</time></trkpt><trkpt lat="44.2898833" lon="11.65435"><ele>183.0</ele><time>2026-05-01T12:52:32.442Z</time></trkpt><trkpt lat="44.2898333" lon="11.6544367"><ele>183.0</ele><time>2026-05-01T12:52:34.441Z</time></trkpt><trkpt lat="44.2897817" lon="11.6545317"><ele>184.85714285714286</ele><time>2026-05-01T12:52:36.439Z</time></trkpt><trkpt lat="44.2897333" lon="11.6546183"><ele>186.71428571428572</ele><time>2026-05-01T12:52:38.44Z</time></trkpt><trkpt lat="44.2896733" lon="11.6547083"><ele>188.57142857142856</ele><time>2026-05-01T12:52:41.442Z</time></trkpt><trkpt lat="44.2896317" lon="11.6547833"><ele>190.42857142857144</ele><time>2026-05-01T12:52:44.44Z</time></trkpt><trkpt lat="44.2895883" lon="11.654865"><ele>192.28571428571428</ele><time>2026-05-01T12:52:48.439Z</time></trkpt><trkpt lat="44.2895383" lon="11.6549433"><ele>194.14285714285714</ele><time>2026-05-01T12:52:53.44Z</time></trkpt><trkpt lat="44.2894933" lon="11.6550117"><ele>196.0</ele><time>2026-05-01T12:52:57.442Z</time></trkpt><trkpt lat="44.28945" lon="11.6550883"><ele>196.0</ele><time>2026-05-01T12:53:02.441Z</time></trkpt><trkpt lat="44.2894133" lon="11.6551717"><ele>196.0</ele><time>2026-05-01T12:53:07.441Z</time></trkpt><trkpt lat="44.2893667" lon="11.6552583"><ele>196.0</ele><time>2026-05-01T12:53:11.441Z</time></trkpt><trkpt lat="44.2893217" lon="11.6553417"><ele>196.0</ele><time>2026-05-01T12:53:17.443Z</time></trkpt><trkpt lat="44.2892767" lon="11.655415"><ele>196.0</ele><time>2026-05-01T12:53:21.44Z</time></trkpt><trkpt lat="44.2892317" lon="11.6554817"><ele>196.0</ele><time>2026-05-01T12:53:25.441Z</time></trkpt><trkpt lat="44.2891767" lon="11.655535"><ele>196.0</ele><time>2026-05-01T12:53:31.442Z</time></trkpt><trkpt lat="44.2891367" lon="11.6556083"><ele>195.85714285714286</ele><time>2026-05-01T12:53:36.442Z</time></trkpt><trkpt lat="44.289085" lon="11.655675"><ele>195.71428571428572</ele><time>2026-05-01T12:53:41.441Z</time></trkpt><trkpt lat="44.289045" lon="11.6557433"><ele>195.57142857142856</ele><time>2026-05-01T12:53:46.443Z</time></trkpt><trkpt lat="44.2890083" lon="11.65582"><ele>195.42857142857144</ele><time>2026-05-01T12:53:52.441Z</time></trkpt><trkpt lat="44.2889633" lon="11.6559"><ele>195.28571428571428</ele><time>2026-05-01T12:53:57.441Z</time></trkpt><trkpt lat="44.2889117" lon="11.655975"><ele>195.14285714285714</ele><time>2026-05-01T12:54:01.442Z</time></trkpt><trkpt lat="44.2888767" lon="11.6560667"><ele>195.0</ele><time>2026-05-01T12:54:07.441Z</time></trkpt><trkpt lat="44.28883" lon="11.65614"><ele>196.28571428571428</ele><time>2026-05-01T12:54:12.44Z</time></trkpt><trkpt lat="44.2887767" lon="11.6561983"><ele>197.57142857142856</ele><time>2026-05-01T12:54:17.443Z</time></trkpt><trkpt lat="44.2887183" lon="11.656255"><ele>198.85714285714286</ele><time>2026-05-01T12:54:23.443Z</time></trkpt><trkpt lat="44.288665" lon="11.65631"><ele>200.14285714285714</ele><time>2026-05-01T12:54:30.441Z</time></trkpt><trkpt lat="44.2886117" lon="11.6563633"><ele>201.42857142857144</ele><time>2026-05-01T12:54:36.439Z</time></trkpt><trkpt lat="44.2885533" lon="11.6564233"><ele>202.71428571428572</ele><time>2026-05-01T12:54:42.44Z</time></trkpt><trkpt lat="44.2884917" lon="11.6564733"><ele>204.0</ele><time>2026-05-01T12:54:48.442Z</time></trkpt><trkpt lat="44.2884433" lon="11.65654"><ele>204.0</ele><time>2026-05-01T12:54:54.442Z</time></trkpt><trkpt lat="44.288395" lon="11.656615"><ele>204.0</ele><time>2026-05-01T12:55:01.444Z</time></trkpt><trkpt lat="44.2883567" lon="11.6566983"><ele>204.0</ele><time>2026-05-01T12:55:07.441Z</time></trkpt><trkpt lat="44.2883167" lon="11.6567767"><ele>204.0</ele><time>2026-05-01T12:55:14.446Z</time></trkpt><trkpt lat="44.28829" lon="11.65688"><ele>204.0</ele><time>2026-05-01T12:55:21.442Z</time></trkpt><trkpt lat="44.2882667" lon="11.656975"><ele>204.0</ele><time>2026-05-01T12:55:27.44Z</time></trkpt><trkpt lat="44.2882483" lon="11.6570683"><ele>204.0</ele><time>2026-05-01T12:55:33.44Z</time></trkpt><trkpt lat="44.2882333" lon="11.6571583"><ele>204.57142857142858</ele><time>2026-05-01T12:55:39.44Z</time></trkpt><trkpt lat="44.2882233" lon="11.6572633"><ele>205.14285714285717</ele><time>2026-05-01T12:55:46.441Z</time></trkpt><trkpt lat="44.2882083" lon="11.6573567"><ele>205.71428571428572</ele><time>2026-05-01T12:55:51.443Z</time></trkpt><trkpt lat="44.288195" lon="11.657455"><ele>206.28571428571428</ele><time>2026-05-01T12:55:57.441Z</time></trkpt><trkpt lat="44.2881717" lon="11.65755"><ele>206.85714285714286</ele><time>2026-05-01T12:56:03.441Z</time></trkpt><trkpt lat="44.2881533" lon="11.6576417"><ele>207.42857142857142</ele><time>2026-05-01T12:56:08.44Z</time></trkpt><trkpt lat="44.2881417" lon="11.6577467"><ele>208.0</ele><time>2026-05-01T12:56:14.441Z</time></trkpt><trkpt lat="44.2881367" lon="11.657845"><ele>209.85714285714286</ele><time>2026-05-01T12:56:19.442Z</time></trkpt><trkpt lat="44.2881133" lon="11.65795"><ele>211.71428571428572</ele><time>2026-05-01T12:56:24.442Z</time></trkpt><trkpt lat="44.2881167" lon="11.6580383"><ele>213.57142857142858</ele><time>2026-05-01T12:56:28.441Z</time></trkpt><trkpt lat="44.28813" lon="11.6581283"><ele>215.42857142857144</ele><time>2026-05-01T12:56:32.44Z</time></trkpt><trkpt lat="44.2881267" lon="11.6582317"><ele>217.28571428571428</ele><time>2026-05-01T12:56:37.44Z</time></trkpt><trkpt lat="44.28814" lon="11.6583183"><ele>219.14285714285717</ele><time>2026-05-01T12:56:41.44Z</time></trkpt><trkpt lat="44.288155" lon="11.6584083"><ele>221.0</ele><time>2026-05-01T12:56:45.44Z</time></trkpt><trkpt lat="44.28817" lon="11.65852"><ele>222.0</ele><time>2026-05-01T12:56:49.443Z</time></trkpt><trkpt lat="44.2881833" lon="11.658625"><ele>223.0</ele><time>2026-05-01T12:56:53.443Z</time></trkpt><trkpt lat="44.288195" lon="11.6587117"><ele>224.0</ele><time>2026-05-01T12:56:56.441Z</time></trkpt><trkpt lat="44.28822" lon="11.6588033"><ele>225.0</ele><time>2026-05-01T12:56:59.441Z</time></trkpt><trkpt lat="44.2882433" lon="11.6589067"><ele>225.99999999999997</ele><time>2026-05-01T12:57:03.44Z</time></trkpt><trkpt lat="44.2882683" lon="11.6589883"><ele>227.0</ele><time>2026-05-01T12:57:06.441Z</time></trkpt><trkpt lat="44.2883017" lon="11.65909"><ele>228.0</ele><time>2026-05-01T12:57:10.44Z</time></trkpt><trkpt lat="44.288335" lon="11.6591917"><ele>228.0</ele><time>2026-05-01T12:57:14.441Z</time></trkpt><trkpt lat="44.288365" lon="11.6592733"><ele>227.99999999999997</ele><time>2026-05-01T12:57:17.443Z</time></trkpt><trkpt lat="44.2884" lon="11.65937"><ele>228.0</ele><time>2026-05-01T12:57:21.441Z</time></trkpt><trkpt lat="44.2884267" lon="11.6594667"><ele>228.0</ele><time>2026-05-01T12:57:24.443Z</time></trkpt><trkpt lat="44.28846" lon="11.6595417"><ele>227.99999999999997</ele><time>2026-05-01T12:57:27.44Z</time></trkpt><trkpt lat="44.2885033" lon="11.6596133"><ele>228.0</ele><time>2026-05-01T12:57:30.44Z</time></trkpt><trkpt lat="44.28854" lon="11.6596883"><ele>228.0</ele><time>2026-05-01T12:57:33.44Z</time></trkpt><trkpt lat="44.2885767" lon="11.65979"><ele>227.7142857142857</ele><time>2026-05-01T12:57:37.439Z</time></trkpt><trkpt lat="44.288605" lon="11.659895"><ele>227.4285714285714</ele><time>2026-05-01T12:57:41.439Z</time></trkpt><trkpt lat="44.28862" lon="11.6600033"><ele>227.14285714285714</ele><time>2026-05-01T12:57:45.441Z</time></trkpt><trkpt lat="44.28863" lon="11.6601017"><ele>226.85714285714283</ele><time>2026-05-01T12:57:49.441Z</time></trkpt><trkpt lat="44.2886283" lon="11.6601983"><ele>226.57142857142856</ele><time>2026-05-01T12:57:53.441Z</time></trkpt><trkpt lat="44.2886133" lon="11.6602883"><ele>226.28571428571428</ele><time>2026-05-01T12:57:57.441Z</time></trkpt><trkpt lat="44.2886117" lon="11.66038"><ele>226.0</ele><time>2026-05-01T12:58:01.443Z</time></trkpt><trkpt lat="44.28861" lon="11.6604783"><ele>225.85714285714286</ele><time>2026-05-01T12:58:05.443Z</time></trkpt><trkpt lat="44.2886017" lon="11.6605683"><ele>225.71428571428572</ele><time>2026-05-01T12:58:09.442Z</time></trkpt><trkpt lat="44.2885883" lon="11.66066"><ele>225.57142857142858</ele><time>2026-05-01T12:58:13.441Z</time></trkpt><trkpt lat="44.288585" lon="11.6607517"><ele>225.42857142857144</ele><time>2026-05-01T12:58:17.442Z</time></trkpt><trkpt lat="44.28859" lon="11.660845"><ele>225.28571428571428</ele><time>2026-05-01T12:58:21.441Z</time></trkpt><trkpt lat="44.28859" lon="11.6609383"><ele>225.14285714285717</ele><time>2026-05-01T12:58:26.441Z</time></trkpt><trkpt lat="44.28859" lon="11.661045"><ele>225.00000000000003</ele><time>2026-05-01T12:58:31.441Z</time></trkpt><trkpt lat="44.288585" lon="11.661145"><ele>224.8571428571429</ele><time>2026-05-01T12:58:36.441Z</time></trkpt><trkpt lat="44.2885933" lon="11.6612433"><ele>224.71428571428572</ele><time>2026-05-01T12:58:41.442Z</time></trkpt><trkpt lat="44.2886083" lon="11.6613333"><ele>224.57142857142858</ele><time>2026-05-01T12:58:46.443Z</time></trkpt><trkpt lat="44.28863" lon="11.661435"><ele>224.42857142857144</ele><time>2026-05-01T12:58:51.441Z</time></trkpt><trkpt lat="44.2886433" lon="11.6615217"><ele>224.28571428571428</ele><time>2026-05-01T12:58:56.439Z</time></trkpt><trkpt lat="44.2886633" lon="11.6616133"><ele>224.14285714285714</ele><time>2026-05-01T12:59:01.441Z</time></trkpt><trkpt lat="44.288685" lon="11.661705"><ele>224.0</ele><time>2026-05-01T12:59:07.44Z</time></trkpt><trkpt lat="44.288715" lon="11.661785"><ele>224.0</ele><time>2026-05-01T12:59:12.439Z</time></trkpt><trkpt lat="44.28875" lon="11.6618633"><ele>224.0</ele><time>2026-05-01T12:59:17.443Z</time></trkpt><trkpt lat="44.2887667" lon="11.6619633"><ele>224.0</ele><time>2026-05-01T12:59:22.441Z</time></trkpt><trkpt lat="44.288775" lon="11.6620567"><ele>224.0</ele><time>2026-05-01T12:59:26.443Z</time></trkpt><trkpt lat="44.2887733" lon="11.6621633"><ele>224.0</ele><time>2026-05-01T12:59:30.439Z</time></trkpt><trkpt lat="44.2887583" lon="11.6622733"><ele>224.0</ele><time>2026-05-01T12:59:34.439Z</time></trkpt><trkpt lat="44.2887317" lon="11.66236"><ele>224.0</ele><time>2026-05-01T12:59:37.441Z</time></trkpt><trkpt lat="44.2887033" lon="11.662445"><ele>225.16666666666669</ele><time>2026-05-01T12:59:40.439Z</time></trkpt><trkpt lat="44.28866" lon="11.6625367"><ele>226.33333333333334</ele><time>2026-05-01T12:59:43.441Z</time></trkpt><trkpt lat="44.288615" lon="11.66263"><ele>227.5</ele><time>2026-05-01T12:59:45.442Z</time></trkpt><trkpt lat="44.2885633" lon="11.662725"><ele>228.66666666666669</ele><time>2026-05-01T12:59:47.44Z</time></trkpt><trkpt lat="44.2885117" lon="11.66282"><ele>229.83333333333334</ele><time>2026-05-01T12:59:49.443Z</time></trkpt><trkpt lat="44.2884483" lon="11.662925"><ele>231.0</ele><time>2026-05-01T12:59:51.439Z</time></trkpt><trkpt lat="44.28838" lon="11.6630417"><ele>231.66666666666666</ele><time>2026-05-01T12:59:53.441Z</time></trkpt><trkpt lat="44.28831" lon="11.6631583"><ele>232.33333333333331</ele><time>2026-05-01T12:59:55.441Z</time></trkpt><trkpt lat="44.288225" lon="11.663295"><ele>233.0</ele><time>2026-05-01T12:59:57.44Z</time></trkpt><trkpt lat="44.28818" lon="11.663365"><ele>233.66666666666666</ele><time>2026-05-01T12:59:58.44Z</time></trkpt><trkpt lat="44.288135" lon="11.6634433"><ele>234.33333333333331</ele><time>2026-05-01T12:59:59.44Z</time></trkpt><trkpt lat="44.2880933" lon="11.6635183"><ele>235.0</ele><time>2026-05-01T13:00:00.44Z</time></trkpt><trkpt lat="44.2880517" lon="11.6635917"><ele>233.85714285714283</ele><time>2026-05-01T13:00:01.439Z</time></trkpt><trkpt lat="44.2880067" lon="11.663665"><ele>232.7142857142857</ele><time>2026-05-01T13:00:02.441Z</time></trkpt><trkpt lat="44.2879583" lon="11.6637367"><ele>231.57142857142856</ele><time>2026-05-01T13:00:03.441Z</time></trkpt><trkpt lat="44.287905" lon="11.6638033"><ele>230.42857142857144</ele><time>2026-05-01T13:00:04.442Z</time></trkpt><trkpt lat="44.2878483" lon="11.6638683"><ele>229.2857142857143</ele><time>2026-05-01T13:00:05.441Z</time></trkpt><trkpt lat="44.2877917" lon="11.6639217"><ele>228.14285714285717</ele><time>2026-05-01T13:00:06.44Z</time></trkpt><trkpt lat="44.28773" lon="11.6639683"><ele>227.0</ele><time>2026-05-01T13:00:07.441Z</time></trkpt><trkpt lat="44.28767" lon="11.6640033"><ele>227.00000000000003</ele><time>2026-05-01T13:00:08.44Z</time></trkpt><trkpt lat="44.2876083" lon="11.6640367"><ele>227.0</ele><time>2026-05-01T13:00:09.441Z</time></trkpt><trkpt lat="44.287495" lon="11.6640867"><ele>227.0</ele><time>2026-05-01T13:00:11.439Z</time></trkpt><trkpt lat="44.2873983" lon="11.6640967"><ele>227.0</ele><time>2026-05-01T13:00:13.44Z</time></trkpt><trkpt lat="44.2873183" lon="11.6641083"><ele>227.00000000000003</ele><time>2026-05-01T13:00:15.439Z</time></trkpt><trkpt lat="44.2872317" lon="11.6641133"><ele>227.0</ele><time>2026-05-01T13:00:18.44Z</time></trkpt><trkpt lat="44.2871533" lon="11.6641283"><ele>227.85714285714286</ele><time>2026-05-01T13:00:21.439Z</time></trkpt><trkpt lat="44.2870783" lon="11.6641417"><ele>228.71428571428572</ele><time>2026-05-01T13:00:24.439Z</time></trkpt><trkpt lat="44.2870133" lon="11.664165"><ele>229.57142857142858</ele><time>2026-05-01T13:00:27.44Z</time></trkpt><trkpt lat="44.2869567" lon="11.6642133"><ele>230.42857142857144</ele><time>2026-05-01T13:00:30.442Z</time></trkpt><trkpt lat="44.2869017" lon="11.66427"><ele>231.28571428571428</ele><time>2026-05-01T13:00:33.44Z</time></trkpt><trkpt lat="44.2868417" lon="11.66434"><ele>232.14285714285717</ele><time>2026-05-01T13:00:37.44Z</time></trkpt><trkpt lat="44.28678" lon="11.664405"><ele>233.0</ele><time>2026-05-01T13:00:41.44Z</time></trkpt><trkpt lat="44.28672" lon="11.6644667"><ele>233.28571428571428</ele><time>2026-05-01T13:00:45.44Z</time></trkpt><trkpt lat="44.2866567" lon="11.6645133"><ele>233.57142857142856</ele><time>2026-05-01T13:00:49.44Z</time></trkpt><trkpt lat="44.286585" lon="11.6645633"><ele>233.85714285714283</ele><time>2026-05-01T13:00:53.44Z</time></trkpt><trkpt lat="44.2865217" lon="11.664595"><ele>234.14285714285714</ele><time>2026-05-01T13:00:57.44Z</time></trkpt><trkpt lat="44.2864567" lon="11.6646117"><ele>234.4285714285714</ele><time>2026-05-01T13:01:01.442Z</time></trkpt><trkpt lat="44.2863817" lon="11.6646433"><ele>234.7142857142857</ele><time>2026-05-01T13:01:06.441Z</time></trkpt><trkpt lat="44.28631" lon="11.664665"><ele>235.0</ele><time>2026-05-01T13:01:10.441Z</time></trkpt><trkpt lat="44.2862417" lon="11.6646933"><ele>236.85714285714283</ele><time>2026-05-01T13:01:14.441Z</time></trkpt><trkpt lat="44.2861733" lon="11.66473"><ele>238.7142857142857</ele><time>2026-05-01T13:01:19.441Z</time></trkpt><trkpt lat="44.28613" lon="11.6648"><ele>240.57142857142856</ele><time>2026-05-01T13:01:25.441Z</time></trkpt><trkpt lat="44.2860783" lon="11.6648633"><ele>242.42857142857144</ele><time>2026-05-01T13:01:31.44Z</time></trkpt><trkpt lat="44.286035" lon="11.66493"><ele>244.2857142857143</ele><time>2026-05-01T13:01:37.442Z</time></trkpt><trkpt lat="44.2859917" lon="11.6650117"><ele>246.14285714285717</ele><time>2026-05-01T13:01:42.441Z</time></trkpt><trkpt lat="44.2859367" lon="11.6650833"><ele>248.0</ele><time>2026-05-01T13:01:47.441Z</time></trkpt><trkpt lat="44.2858783" lon="11.6651417"><ele>248.00000000000003</ele><time>2026-05-01T13:01:52.442Z</time></trkpt><trkpt lat="44.2858233" lon="11.665185"><ele>248.0</ele><time>2026-05-01T13:01:56.44Z</time></trkpt><trkpt lat="44.2857583" lon="11.6652133"><ele>248.0</ele><time>2026-05-01T13:02:01.442Z</time></trkpt><trkpt lat="44.2856817" lon="11.6652267"><ele>248.0</ele><time>2026-05-01T13:02:05.442Z</time></trkpt><trkpt lat="44.2856067" lon="11.6652367"><ele>248.00000000000003</ele><time>2026-05-01T13:02:08.441Z</time></trkpt><trkpt lat="44.2855183" lon="11.6652333"><ele>248.0</ele><time>2026-05-01T13:02:11.442Z</time></trkpt><trkpt lat="44.2854367" lon="11.6652483"><ele>248.2857142857143</ele><time>2026-05-01T13:02:14.44Z</time></trkpt><trkpt lat="44.2853583" lon="11.6652633"><ele>248.5714285714286</ele><time>2026-05-01T13:02:17.442Z</time></trkpt><trkpt lat="44.2852933" lon="11.6652617"><ele>248.85714285714286</ele><time>2026-05-01T13:02:20.444Z</time></trkpt><trkpt lat="44.2852267" lon="11.6652617"><ele>249.14285714285717</ele><time>2026-05-01T13:02:23.443Z</time></trkpt><trkpt lat="44.2851617" lon="11.6652533"><ele>249.42857142857144</ele><time>2026-05-01T13:02:26.441Z</time></trkpt><trkpt lat="44.2850967" lon="11.66526"><ele>249.71428571428572</ele><time>2026-05-01T13:02:29.439Z</time></trkpt><trkpt lat="44.2850167" lon="11.6652633"><ele>250.0</ele><time>2026-05-01T13:02:33.441Z</time></trkpt><trkpt lat="44.2849533" lon="11.6652867"><ele>248.33333333333331</ele><time>2026-05-01T13:02:36.441Z</time></trkpt><trkpt lat="44.2848817" lon="11.66531"><ele>246.66666666666666</ele><time>2026-05-01T13:02:39.44Z</time></trkpt><trkpt lat="44.284795" lon="11.6653583"><ele>245.0</ele><time>2026-05-01T13:02:42.44Z</time></trkpt><trkpt lat="44.2847283" lon="11.665395"><ele>243.33333333333331</ele><time>2026-05-01T13:02:44.441Z</time></trkpt><trkpt lat="44.2846567" lon="11.6654217"><ele>241.66666666666666</ele><time>2026-05-01T13:02:46.442Z</time></trkpt><trkpt lat="44.2845833" lon="11.6654383"><ele>240.0</ele><time>2026-05-01T13:02:48.442Z</time></trkpt><trkpt lat="44.2845067" lon="11.6654433"><ele>240.0</ele><time>2026-05-01T13:02:50.443Z</time></trkpt><trkpt lat="44.284435" lon="11.6654383"><ele>240.0</ele><time>2026-05-01T13:02:52.443Z</time></trkpt><trkpt lat="44.2843583" lon="11.665425"><ele>240.0</ele><time>2026-05-01T13:02:54.442Z</time></trkpt><trkpt lat="44.284275" lon="11.6654167"><ele>240.0</ele><time>2026-05-01T13:02:56.442Z</time></trkpt><trkpt lat="44.2841983" lon="11.6654183"><ele>240.0</ele><time>2026-05-01T13:02:58.442Z</time></trkpt><trkpt lat="44.28413" lon="11.66542"><ele>240.0</ele><time>2026-05-01T13:03:00.44Z</time></trkpt><trkpt lat="44.2840633" lon="11.6654217"><ele>240.0</ele><time>2026-05-01T13:03:02.44Z</time></trkpt><trkpt lat="44.284" lon="11.6654183"><ele>240.0</ele><time>2026-05-01T13:03:04.441Z</time></trkpt><trkpt lat="44.2839367" lon="11.6654233"><ele>240.0</ele><time>2026-05-01T13:03:06.439Z</time></trkpt><trkpt lat="44.2838717" lon="11.6654333"><ele>240.0</ele><time>2026-05-01T13:03:08.441Z</time></trkpt><trkpt lat="44.2838067" lon="11.665435"><ele>240.0</ele><time>2026-05-01T13:03:10.44Z</time></trkpt><trkpt lat="44.2837417" lon="11.6654383"><ele>240.0</ele><time>2026-05-01T13:03:12.44Z</time></trkpt><trkpt lat="44.2836767" lon="11.665445"><ele>240.0</ele><time>2026-05-01T13:03:14.439Z</time></trkpt><trkpt lat="44.2836083" lon="11.66546"><ele>240.0</ele><time>2026-05-01T13:03:16.443Z</time></trkpt><trkpt lat="44.2835367" lon="11.66547"><ele>242.0</ele><time>2026-05-01T13:03:18.442Z</time></trkpt><trkpt lat="44.2834633" lon="11.665495"><ele>244.0</ele><time>2026-05-01T13:03:20.439Z</time></trkpt><trkpt lat="44.2833933" lon="11.665525"><ele>246.0</ele><time>2026-05-01T13:03:22.439Z</time></trkpt><trkpt lat="44.2833233" lon="11.6655567"><ele>248.0</ele><time>2026-05-01T13:03:24.439Z</time></trkpt><trkpt lat="44.28326" lon="11.6655833"><ele>250.0</ele><time>2026-05-01T13:03:26.44Z</time></trkpt><trkpt lat="44.2831683" lon="11.6656233"><ele>252.0</ele><time>2026-05-01T13:03:29.439Z</time></trkpt><trkpt lat="44.2830867" lon="11.6656533"><ele>253.66666666666666</ele><time>2026-05-01T13:03:32.439Z</time></trkpt><trkpt lat="44.2830167" lon="11.665715"><ele>255.33333333333331</ele><time>2026-05-01T13:03:35.438Z</time></trkpt><trkpt lat="44.2829717" lon="11.66581"><ele>257.0</ele><time>2026-05-01T13:03:38.439Z</time></trkpt><trkpt lat="44.28293" lon="11.6658833"><ele>258.66666666666663</ele><time>2026-05-01T13:03:41.439Z</time></trkpt><trkpt lat="44.282875" lon="11.6659633"><ele>260.3333333333333</ele><time>2026-05-01T13:03:45.44Z</time></trkpt><trkpt lat="44.28282" lon="11.6660417"><ele>262.0</ele><time>2026-05-01T13:03:48.442Z</time></trkpt><trkpt lat="44.2827617" lon="11.6661333"><ele>262.0</ele><time>2026-05-01T13:03:51.44Z</time></trkpt><trkpt lat="44.282705" lon="11.6662183"><ele>262.0</ele><time>2026-05-01T13:03:54.44Z</time></trkpt><trkpt lat="44.28265" lon="11.666305"><ele>262.0</ele><time>2026-05-01T13:03:57.44Z</time></trkpt><trkpt lat="44.2825933" lon="11.6664017"><ele>262.0</ele><time>2026-05-01T13:04:00.439Z</time></trkpt><trkpt lat="44.2825533" lon="11.66647"><ele>262.0</ele><time>2026-05-01T13:04:02.439Z</time></trkpt><trkpt lat="44.2825117" lon="11.66654"><ele>262.0</ele><time>2026-05-01T13:04:04.44Z</time></trkpt><trkpt lat="44.2824583" lon="11.6666317"><ele>262.0</ele><time>2026-05-01T13:04:07.439Z</time></trkpt><trkpt lat="44.2824033" lon="11.6667283"><ele>262.0</ele><time>2026-05-01T13:04:10.44Z</time></trkpt><trkpt lat="44.2823367" lon="11.6668183"><ele>262.0</ele><time>2026-05-01T13:04:13.44Z</time></trkpt><trkpt lat="44.2822733" lon="11.66691"><ele>262.0</ele><time>2026-05-01T13:04:16.444Z</time></trkpt><trkpt lat="44.2822167" lon="11.6669983"><ele>262.0</ele><time>2026-05-01T13:04:19.439Z</time></trkpt><trkpt lat="44.2821733" lon="11.66708"><ele>262.0</ele><time>2026-05-01T13:04:22.44Z</time></trkpt><trkpt lat="44.28214" lon="11.6671617"><ele>263.7142857142857</ele><time>2026-05-01T13:04:26.439Z</time></trkpt><trkpt lat="44.282095" lon="11.667225"><ele>265.42857142857144</ele><time>2026-05-01T13:04:30.443Z</time></trkpt><trkpt lat="44.2820483" lon="11.667295"><ele>267.14285714285717</ele><time>2026-05-01T13:04:34.44Z</time></trkpt><trkpt lat="44.282015" lon="11.66737"><ele>268.8571428571429</ele><time>2026-05-01T13:04:38.439Z</time></trkpt><trkpt lat="44.2819683" lon="11.667455"><ele>270.57142857142856</ele><time>2026-05-01T13:04:43.44Z</time></trkpt><trkpt lat="44.2819233" lon="11.6675183"><ele>272.28571428571433</ele><time>2026-05-01T13:04:47.442Z</time></trkpt><trkpt lat="44.2818783" lon="11.6675833"><ele>274.0</ele><time>2026-05-01T13:04:50.439Z</time></trkpt><trkpt lat="44.2818633" lon="11.66767"><ele>274.0</ele><time>2026-05-01T13:04:54.44Z</time></trkpt><trkpt lat="44.2818433" lon="11.667775"><ele>274.0</ele><time>2026-05-01T13:04:59.439Z</time></trkpt><trkpt lat="44.2818167" lon="11.66787"><ele>274.0</ele><time>2026-05-01T13:05:03.44Z</time></trkpt><trkpt lat="44.2817767" lon="11.6679783"><ele>274.0</ele><time>2026-05-01T13:05:06.44Z</time></trkpt><trkpt lat="44.2817317" lon="11.6680567"><ele>274.0</ele><time>2026-05-01T13:05:08.44Z</time></trkpt><trkpt lat="44.2816767" lon="11.6681533"><ele>274.0</ele><time>2026-05-01T13:05:10.44Z</time></trkpt><trkpt lat="44.2816067" lon="11.6682617"><ele>273.4</ele><time>2026-05-01T13:05:12.44Z</time></trkpt><trkpt lat="44.2815317" lon="11.6683683"><ele>272.79999999999995</ele><time>2026-05-01T13:05:14.44Z</time></trkpt><trkpt lat="44.2814517" lon="11.668465"><ele>272.20000000000005</ele><time>2026-05-01T13:05:16.443Z</time></trkpt><trkpt lat="44.2813717" lon="11.6685783"><ele>271.6</ele><time>2026-05-01T13:05:18.441Z</time></trkpt><trkpt lat="44.2812933" lon="11.66869"><ele>271.0</ele><time>2026-05-01T13:05:20.439Z</time></trkpt><trkpt lat="44.2812267" lon="11.66878"><ele>269.8333333333333</ele><time>2026-05-01T13:05:22.442Z</time></trkpt><trkpt lat="44.2811683" lon="11.668875"><ele>268.66666666666663</ele><time>2026-05-01T13:05:24.44Z</time></trkpt><trkpt lat="44.281115" lon="11.6689767"><ele>267.5</ele><time>2026-05-01T13:05:26.439Z</time></trkpt><trkpt lat="44.28106" lon="11.66906"><ele>266.3333333333333</ele><time>2026-05-01T13:05:28.441Z</time></trkpt><trkpt lat="44.2809967" lon="11.66916"><ele>265.1666666666667</ele><time>2026-05-01T13:05:30.44Z</time></trkpt><trkpt lat="44.2809283" lon="11.6692367"><ele>264.0</ele><time>2026-05-01T13:05:32.44Z</time></trkpt><trkpt lat="44.2808717" lon="11.6693217"><ele>262.8</ele><time>2026-05-01T13:05:34.439Z</time></trkpt><trkpt lat="44.2808183" lon="11.6694433"><ele>261.59999999999997</ele><time>2026-05-01T13:05:36.44Z</time></trkpt><trkpt lat="44.2807633" lon="11.6695967"><ele>260.4</ele><time>2026-05-01T13:05:38.44Z</time></trkpt><trkpt lat="44.2807433" lon="11.6697817"><ele>259.2</ele><time>2026-05-01T13:05:40.442Z</time></trkpt><trkpt lat="44.2807233" lon="11.6698967"><ele>258.0</ele><time>2026-05-01T13:05:41.44Z</time></trkpt><trkpt lat="44.2807133" lon="11.669985"><ele>257.99999999999994</ele><time>2026-05-01T13:05:42.439Z</time></trkpt><trkpt lat="44.2807033" lon="11.6700817"><ele>258.0</ele><time>2026-05-01T13:05:43.441Z</time></trkpt><trkpt lat="44.2806917" lon="11.670185"><ele>258.0</ele><time>2026-05-01T13:05:44.439Z</time></trkpt><trkpt lat="44.2806833" lon="11.6702867"><ele>258.0</ele><time>2026-05-01T13:05:45.439Z</time></trkpt><trkpt lat="44.2806767" lon="11.6703867"><ele>258.0</ele><time>2026-05-01T13:05:46.442Z</time></trkpt><trkpt lat="44.280665" lon="11.6704867"><ele>257.99999999999994</ele><time>2026-05-01T13:05:47.443Z</time></trkpt><trkpt lat="44.2806533" lon="11.6705917"><ele>258.0</ele><time>2026-05-01T13:05:48.44Z</time></trkpt><trkpt lat="44.2806383" lon="11.6706983"><ele>257.2857142857143</ele><time>2026-05-01T13:05:49.441Z</time></trkpt><trkpt lat="44.28062" lon="11.6707983"><ele>256.57142857142856</ele><time>2026-05-01T13:05:50.441Z</time></trkpt><trkpt lat="44.2806017" lon="11.67089"><ele>255.85714285714286</ele><time>2026-05-01T13:05:51.44Z</time></trkpt><trkpt lat="44.280595" lon="11.6709833"><ele>255.14285714285714</ele><time>2026-05-01T13:05:52.442Z</time></trkpt><trkpt lat="44.2806" lon="11.6710817"><ele>254.42857142857144</ele><time>2026-05-01T13:05:53.44Z</time></trkpt><trkpt lat="44.2806183" lon="11.671175"><ele>253.71428571428575</ele><time>2026-05-01T13:05:54.441Z</time></trkpt><trkpt lat="44.2806417" lon="11.67126"><ele>253.00000000000003</ele><time>2026-05-01T13:05:55.44Z</time></trkpt><trkpt lat="44.2806733" lon="11.6713533"><ele>253.00000000000003</ele><time>2026-05-01T13:05:56.441Z</time></trkpt><trkpt lat="44.280705" lon="11.671445"><ele>253.0</ele><time>2026-05-01T13:05:57.44Z</time></trkpt><trkpt lat="44.28074" lon="11.6715333"><ele>253.00000000000003</ele><time>2026-05-01T13:05:58.439Z</time></trkpt><trkpt lat="44.2807767" lon="11.6716183"><ele>253.00000000000003</ele><time>2026-05-01T13:05:59.44Z</time></trkpt><trkpt lat="44.2808233" lon="11.6716933"><ele>253.0</ele><time>2026-05-01T13:06:00.439Z</time></trkpt><trkpt lat="44.280875" lon="11.6717633"><ele>253.00000000000003</ele><time>2026-05-01T13:06:01.441Z</time></trkpt><trkpt lat="44.28093" lon="11.67184"><ele>253.00000000000003</ele><time>2026-05-01T13:06:02.439Z</time></trkpt><trkpt lat="44.2809867" lon="11.6719217"><ele>254.33333333333331</ele><time>2026-05-01T13:06:03.44Z</time></trkpt><trkpt lat="44.2810417" lon="11.6720017"><ele>255.66666666666666</ele><time>2026-05-01T13:06:04.44Z</time></trkpt><trkpt lat="44.2810967" lon="11.67209"><ele>257.0</ele><time>2026-05-01T13:06:05.44Z</time></trkpt><trkpt lat="44.28115" lon="11.6721817"><ele>258.3333333333333</ele><time>2026-05-01T13:06:06.44Z</time></trkpt><trkpt lat="44.281205" lon="11.6722833"><ele>259.6666666666667</ele><time>2026-05-01T13:06:07.441Z</time></trkpt><trkpt lat="44.2812733" lon="11.6723783"><ele>261.0</ele><time>2026-05-01T13:06:08.44Z</time></trkpt><trkpt lat="44.2813517" lon="11.6724717"><ele>261.0</ele><time>2026-05-01T13:06:09.44Z</time></trkpt><trkpt lat="44.28143" lon="11.672565"><ele>261.0</ele><time>2026-05-01T13:06:10.44Z</time></trkpt><trkpt lat="44.281495" lon="11.6726683"><ele>261.0</ele><time>2026-05-01T13:06:11.439Z</time></trkpt><trkpt lat="44.2815467" lon="11.6727817"><ele>261.0</ele><time>2026-05-01T13:06:12.44Z</time></trkpt><trkpt lat="44.2815917" lon="11.6729"><ele>261.0</ele><time>2026-05-01T13:06:13.439Z</time></trkpt><trkpt lat="44.2816317" lon="11.6730183"><ele>259.6666666666667</ele><time>2026-05-01T13:06:14.44Z</time></trkpt><trkpt lat="44.28166" lon="11.67314"><ele>258.3333333333333</ele><time>2026-05-01T13:06:15.44Z</time></trkpt><trkpt lat="44.281685" lon="11.6732633"><ele>257.0</ele><time>2026-05-01T13:06:16.44Z</time></trkpt><trkpt lat="44.281705" lon="11.6733783"><ele>255.66666666666666</ele><time>2026-05-01T13:06:17.441Z</time></trkpt><trkpt lat="44.2817267" lon="11.67349"><ele>254.33333333333331</ele><time>2026-05-01T13:06:18.443Z</time></trkpt><trkpt lat="44.2817483" lon="11.67359"><ele>253.0</ele><time>2026-05-01T13:06:19.443Z</time></trkpt><trkpt lat="44.2817617" lon="11.6736867"><ele>252.99999999999997</ele><time>2026-05-01T13:06:20.443Z</time></trkpt><trkpt lat="44.2817817" lon="11.6737867"><ele>253.0</ele><time>2026-05-01T13:06:21.442Z</time></trkpt><trkpt lat="44.2818033" lon="11.6738867"><ele>253.0</ele><time>2026-05-01T13:06:22.441Z</time></trkpt><trkpt lat="44.2818333" lon="11.673985"><ele>253.0</ele><time>2026-05-01T13:06:23.442Z</time></trkpt><trkpt lat="44.281875" lon="11.6740767"><ele>252.99999999999997</ele><time>2026-05-01T13:06:24.443Z</time></trkpt><trkpt lat="44.2819317" lon="11.67417"><ele>253.0</ele><time>2026-05-01T13:06:25.44Z</time></trkpt><trkpt lat="44.28199" lon="11.6742683"><ele>252.99999999999997</ele><time>2026-05-01T13:06:26.442Z</time></trkpt><trkpt lat="44.28204" lon="11.67437"><ele>253.0</ele><time>2026-05-01T13:06:27.439Z</time></trkpt><trkpt lat="44.2820937" lon="11.6744708"><ele>253.0</ele><time>2026-05-01T13:06:28.441Z</time></trkpt><trkpt lat="44.2821488" lon="11.6745625"><ele>253.0</ele><time>2026-05-01T13:06:29.439Z</time></trkpt><trkpt lat="44.2822052" lon="11.6746455"><ele>252.99999999999997</ele><time>2026-05-01T13:06:30.442Z</time></trkpt><trkpt lat="44.2822585" lon="11.6747264"><ele>253.0</ele><time>2026-05-01T13:06:31.441Z</time></trkpt><trkpt lat="44.2823091" lon="11.6747901"><ele>252.0</ele><time>2026-05-01T13:06:32.441Z</time></trkpt><trkpt lat="44.282393" lon="11.6748888"><ele>251.0</ele><time>2026-05-01T13:06:34.441Z</time></trkpt><trkpt lat="44.2824704" lon="11.6749517"><ele>250.0</ele><time>2026-05-01T13:06:36.441Z</time></trkpt><trkpt lat="44.2825566" lon="11.6749987"><ele>249.0</ele><time>2026-05-01T13:06:38.439Z</time></trkpt><trkpt lat="44.2826514" lon="11.6750643"><ele>248.0</ele><time>2026-05-01T13:06:40.441Z</time></trkpt><trkpt lat="44.2827346" lon="11.6751407"><ele>248.0</ele><time>2026-05-01T13:06:42.44Z</time></trkpt><trkpt lat="44.2828092" lon="11.6752401"><ele>248.0</ele><time>2026-05-01T13:06:44.44Z</time></trkpt><trkpt lat="44.282874" lon="11.6753509"><ele>248.0</ele><time>2026-05-01T13:06:46.443Z</time></trkpt><trkpt lat="44.2829176" lon="11.6754692"><ele>248.0</ele><time>2026-05-01T13:06:48.443Z</time></trkpt><trkpt lat="44.2829568" lon="11.6755926"><ele>248.0</ele><time>2026-05-01T13:06:50.442Z</time></trkpt><trkpt lat="44.2829814" lon="11.6757312"><ele>247.2</ele><time>2026-05-01T13:06:52.442Z</time></trkpt><trkpt lat="44.2830098" lon="11.6758695"><ele>246.4</ele><time>2026-05-01T13:06:54.442Z</time></trkpt><trkpt lat="44.2830398" lon="11.6759996"><ele>245.59999999999997</ele><time>2026-05-01T13:06:56.44Z</time></trkpt><trkpt lat="44.2830723" lon="11.6761363"><ele>244.79999999999998</ele><time>2026-05-01T13:06:58.439Z</time></trkpt><trkpt lat="44.2831094" lon="11.6762695"><ele>244.0</ele><time>2026-05-01T13:07:00.44Z</time></trkpt><trkpt lat="44.283155" lon="11.6764147"><ele>243.99999999999997</ele><time>2026-05-01T13:07:02.44Z</time></trkpt><trkpt lat="44.2831789" lon="11.6765032"><ele>244.0</ele><time>2026-05-01T13:07:03.439Z</time></trkpt><trkpt lat="44.2832016" lon="11.6765995"><ele>244.0</ele><time>2026-05-01T13:07:04.441Z</time></trkpt><trkpt lat="44.2832306" lon="11.6767013"><ele>244.0</ele><time>2026-05-01T13:07:05.44Z</time></trkpt><trkpt lat="44.2832636" lon="11.6768123"><ele>243.99999999999997</ele><time>2026-05-01T13:07:06.44Z</time></trkpt><trkpt lat="44.2832973" lon="11.6769318"><ele>244.0</ele><time>2026-05-01T13:07:07.44Z</time></trkpt><trkpt lat="44.2833353" lon="11.677053"><ele>242.49999999999997</ele><time>2026-05-01T13:07:08.44Z</time></trkpt><trkpt lat="44.2833809" lon="11.677171"><ele>241.0</ele><time>2026-05-01T13:07:09.44Z</time></trkpt><trkpt lat="44.283434" lon="11.6772768"><ele>239.5</ele><time>2026-05-01T13:07:10.439Z</time></trkpt><trkpt lat="44.2834995" lon="11.6773647"><ele>238.0</ele><time>2026-05-01T13:07:11.441Z</time></trkpt><trkpt lat="44.2835688" lon="11.6774345"><ele>236.49999999999997</ele><time>2026-05-01T13:07:12.44Z</time></trkpt><trkpt lat="44.2836348" lon="11.6774995"><ele>235.0</ele><time>2026-05-01T13:07:13.441Z</time></trkpt><trkpt lat="44.2836912" lon="11.6775658"><ele>234.99999999999997</ele><time>2026-05-01T13:07:14.439Z</time></trkpt><trkpt lat="44.28374" lon="11.6776303"><ele>235.0</ele><time>2026-05-01T13:07:15.44Z</time></trkpt><trkpt lat="44.2838137" lon="11.6777623"><ele>235.0</ele><time>2026-05-01T13:07:17.442Z</time></trkpt><trkpt lat="44.2838726" lon="11.6778752"><ele>235.0</ele><time>2026-05-01T13:07:19.442Z</time></trkpt><trkpt lat="44.283919" lon="11.6779717"><ele>234.99999999999997</ele><time>2026-05-01T13:07:21.442Z</time></trkpt><trkpt lat="44.283959" lon="11.6780549"><ele>235.0</ele><time>2026-05-01T13:07:23.443Z</time></trkpt><trkpt lat="44.2840029" lon="11.6781564"><ele>236.28571428571428</ele><time>2026-05-01T13:07:26.439Z</time></trkpt><trkpt lat="44.2840398" lon="11.6782364"><ele>237.57142857142856</ele><time>2026-05-01T13:07:29.439Z</time></trkpt><trkpt lat="44.2840788" lon="11.6783301"><ele>238.85714285714283</ele><time>2026-05-01T13:07:33.44Z</time></trkpt><trkpt lat="44.284102" lon="11.6784215"><ele>240.1428571428571</ele><time>2026-05-01T13:07:37.441Z</time></trkpt><trkpt lat="44.2841337" lon="11.6785033"><ele>241.42857142857142</ele><time>2026-05-01T13:07:41.442Z</time></trkpt><trkpt lat="44.2841619" lon="11.6785997"><ele>242.71428571428567</ele><time>2026-05-01T13:07:46.442Z</time></trkpt><trkpt lat="44.2841885" lon="11.6786802"><ele>243.99999999999997</ele><time>2026-05-01T13:07:51.443Z</time></trkpt><trkpt lat="44.2842268" lon="11.678759"><ele>244.1428571428571</ele><time>2026-05-01T13:07:56.44Z</time></trkpt><trkpt lat="44.284274" lon="11.6788276"><ele>244.28571428571428</ele><time>2026-05-01T13:08:01.442Z</time></trkpt><trkpt lat="44.2843262" lon="11.6788779"><ele>244.42857142857142</ele><time>2026-05-01T13:08:05.442Z</time></trkpt><trkpt lat="44.2843695" lon="11.6789496"><ele>244.57142857142856</ele><time>2026-05-01T13:08:10.44Z</time></trkpt><trkpt lat="44.2844037" lon="11.6790268"><ele>244.71428571428572</ele><time>2026-05-01T13:08:15.439Z</time></trkpt><trkpt lat="44.284435" lon="11.6791127"><ele>244.85714285714286</ele><time>2026-05-01T13:08:20.443Z</time></trkpt><trkpt lat="44.2844774" lon="11.6792011"><ele>245.0</ele><time>2026-05-01T13:08:26.441Z</time></trkpt><trkpt lat="44.2845038" lon="11.6792912"><ele>245.0</ele><time>2026-05-01T13:08:31.44Z</time></trkpt><trkpt lat="44.2845216" lon="11.6793926"><ele>245.0</ele><time>2026-05-01T13:08:37.44Z</time></trkpt><trkpt lat="44.2845417" lon="11.6794799"><ele>245.0</ele><time>2026-05-01T13:08:42.441Z</time></trkpt><trkpt lat="44.2845647" lon="11.6795748"><ele>245.0</ele><time>2026-05-01T13:08:48.443Z</time></trkpt><trkpt lat="44.2845782" lon="11.6796769"><ele>245.0</ele><time>2026-05-01T13:08:53.441Z</time></trkpt><trkpt lat="44.2845763" lon="11.6797679"><ele>245.0</ele><time>2026-05-01T13:08:57.439Z</time></trkpt><trkpt lat="44.2845681" lon="11.679865"><ele>245.0</ele><time>2026-05-01T13:09:02.44Z</time></trkpt><trkpt lat="44.2845656" lon="11.6799709"><ele>245.66666666666669</ele><time>2026-05-01T13:09:06.441Z</time></trkpt><trkpt lat="44.284567" lon="11.6800679"><ele>246.33333333333334</ele><time>2026-05-01T13:09:09.44Z</time></trkpt><trkpt lat="44.2845623" lon="11.6801784"><ele>247.0</ele><time>2026-05-01T13:09:12.44Z</time></trkpt><trkpt lat="44.2845713" lon="11.6802951"><ele>247.66666666666669</ele><time>2026-05-01T13:09:15.439Z</time></trkpt><trkpt lat="44.2846033" lon="11.6804083"><ele>248.33333333333334</ele><time>2026-05-01T13:09:18.443Z</time></trkpt><trkpt lat="44.2846417" lon="11.68048"><ele>249.0</ele><time>2026-05-01T13:09:21.442Z</time></trkpt><trkpt lat="44.2846417" lon="11.6806"><ele>250.5</ele><time>2026-05-01T13:09:24.443Z</time></trkpt><trkpt lat="44.2846083" lon="11.6807317"><ele>252.0</ele><time>2026-05-01T13:09:26.44Z</time></trkpt><trkpt lat="44.284585" lon="11.6808167"><ele>253.5</ele><time>2026-05-01T13:09:27.44Z</time></trkpt><trkpt lat="44.28456" lon="11.6809067"><ele>255.0</ele><time>2026-05-01T13:09:28.44Z</time></trkpt><trkpt lat="44.2845333" lon="11.6810033"><ele>256.5</ele><time>2026-05-01T13:09:29.439Z</time></trkpt><trkpt lat="44.284505" lon="11.681105"><ele>258.0</ele><time>2026-05-01T13:09:30.439Z</time></trkpt><trkpt lat="44.2844767" lon="11.6812117"><ele>258.0</ele><time>2026-05-01T13:09:31.44Z</time></trkpt><trkpt lat="44.2844483" lon="11.681315"><ele>258.0</ele><time>2026-05-01T13:09:32.439Z</time></trkpt><trkpt lat="44.2844183" lon="11.6814183"><ele>258.0</ele><time>2026-05-01T13:09:33.44Z</time></trkpt><trkpt lat="44.28439" lon="11.681525"><ele>258.0</ele><time>2026-05-01T13:09:34.44Z</time></trkpt><trkpt lat="44.2843633" lon="11.6816333"><ele>258.0</ele><time>2026-05-01T13:09:35.441Z</time></trkpt><trkpt lat="44.2843383" lon="11.6817317"><ele>258.0</ele><time>2026-05-01T13:09:36.441Z</time></trkpt><trkpt lat="44.2843067" lon="11.68183"><ele>258.0</ele><time>2026-05-01T13:09:37.44Z</time></trkpt><trkpt lat="44.2842733" lon="11.681925"><ele>258.0</ele><time>2026-05-01T13:09:38.441Z</time></trkpt><trkpt lat="44.2842317" lon="11.6820083"><ele>258.0</ele><time>2026-05-01T13:09:39.44Z</time></trkpt><trkpt lat="44.2841833" lon="11.68209"><ele>258.0</ele><time>2026-05-01T13:09:40.439Z</time></trkpt><trkpt lat="44.284125" lon="11.6821583"><ele>258.0</ele><time>2026-05-01T13:09:41.439Z</time></trkpt><trkpt lat="44.284065" lon="11.6822233"><ele>258.0</ele><time>2026-05-01T13:09:42.44Z</time></trkpt><trkpt lat="44.2840033" lon="11.682285"><ele>257.3333333333333</ele><time>2026-05-01T13:09:43.441Z</time></trkpt><trkpt lat="44.2839467" lon="11.6823467"><ele>256.6666666666667</ele><time>2026-05-01T13:09:44.439Z</time></trkpt><trkpt lat="44.28389" lon="11.6824033"><ele>256.0</ele><time>2026-05-01T13:09:45.44Z</time></trkpt><trkpt lat="44.283835" lon="11.6824467"><ele>255.33333333333334</ele><time>2026-05-01T13:09:46.442Z</time></trkpt><trkpt lat="44.28375" lon="11.6825667"><ele>254.66666666666669</ele><time>2026-05-01T13:09:48.44Z</time></trkpt><trkpt lat="44.2836617" lon="11.6826833"><ele>254.0</ele><time>2026-05-01T13:09:50.439Z</time></trkpt><trkpt lat="44.2835817" lon="11.6828"><ele>254.0</ele><time>2026-05-01T13:09:52.44Z</time></trkpt><trkpt lat="44.283505" lon="11.6829117"><ele>253.99999999999997</ele><time>2026-05-01T13:09:54.441Z</time></trkpt><trkpt lat="44.28343" lon="11.6830317"><ele>253.99999999999997</ele><time>2026-05-01T13:09:56.44Z</time></trkpt><trkpt lat="44.2833617" lon="11.6831433"><ele>254.0</ele><time>2026-05-01T13:09:58.44Z</time></trkpt><trkpt lat="44.2832983" lon="11.6832367"><ele>254.0</ele><time>2026-05-01T13:10:00.439Z</time></trkpt><trkpt lat="44.283235" lon="11.6833033"><ele>254.0</ele><time>2026-05-01T13:10:02.439Z</time></trkpt><trkpt lat="44.2831717" lon="11.68335"><ele>254.0</ele><time>2026-05-01T13:10:04.439Z</time></trkpt><trkpt lat="44.2831033" lon="11.6833767"><ele>254.0</ele><time>2026-05-01T13:10:06.44Z</time></trkpt><trkpt lat="44.2830383" lon="11.6833933"><ele>254.0</ele><time>2026-05-01T13:10:08.44Z</time></trkpt><trkpt lat="44.2829733" lon="11.6834117"><ele>254.0</ele><time>2026-05-01T13:10:10.44Z</time></trkpt><trkpt lat="44.2829117" lon="11.6834383"><ele>254.0</ele><time>2026-05-01T13:10:12.439Z</time></trkpt><trkpt lat="44.28285" lon="11.6834633"><ele>254.0</ele><time>2026-05-01T13:10:14.44Z</time></trkpt><trkpt lat="44.2827867" lon="11.6834783"><ele>254.66666666666669</ele><time>2026-05-01T13:10:16.443Z</time></trkpt><trkpt lat="44.282695" lon="11.6834933"><ele>255.33333333333334</ele><time>2026-05-01T13:10:19.439Z</time></trkpt><trkpt lat="44.2826067" lon="11.6834933"><ele>256.0</ele><time>2026-05-01T13:10:22.44Z</time></trkpt><trkpt lat="44.2825233" lon="11.6834917"><ele>256.6666666666667</ele><time>2026-05-01T13:10:25.44Z</time></trkpt><trkpt lat="44.28246" lon="11.6834933"><ele>257.3333333333333</ele><time>2026-05-01T13:10:27.439Z</time></trkpt><trkpt lat="44.2823917" lon="11.6834967"><ele>258.0</ele><time>2026-05-01T13:10:29.439Z</time></trkpt><trkpt lat="44.2822967" lon="11.6835"><ele>257.6666666666667</ele><time>2026-05-01T13:10:32.44Z</time></trkpt><trkpt lat="44.282215" lon="11.683545"><ele>257.3333333333333</ele><time>2026-05-01T13:11:06.44Z</time></trkpt><trkpt lat="44.2821533" lon="11.6835733"><ele>257.0</ele><time>2026-05-01T13:11:08.44Z</time></trkpt><trkpt lat="44.2820817" lon="11.6835983"><ele>256.66666666666663</ele><time>2026-05-01T13:11:10.441Z</time></trkpt><trkpt lat="44.2819967" lon="11.6836267"><ele>256.3333333333333</ele><time>2026-05-01T13:11:12.441Z</time></trkpt><trkpt lat="44.2819033" lon="11.6836667"><ele>256.0</ele><time>2026-05-01T13:11:14.441Z</time></trkpt><trkpt lat="44.2817917" lon="11.6837133"><ele>256.0</ele><time>2026-05-01T13:11:16.443Z</time></trkpt><trkpt lat="44.2817317" lon="11.6837417"><ele>255.99999999999997</ele><time>2026-05-01T13:11:17.442Z</time></trkpt><trkpt lat="44.2816717" lon="11.6837717"><ele>256.0</ele><time>2026-05-01T13:11:18.44Z</time></trkpt><trkpt lat="44.2816083" lon="11.6838117"><ele>256.0</ele><time>2026-05-01T13:11:19.441Z</time></trkpt><trkpt lat="44.28155" lon="11.6838567"><ele>255.99999999999997</ele><time>2026-05-01T13:11:20.439Z</time></trkpt><trkpt lat="44.28149" lon="11.683905"><ele>256.0</ele><time>2026-05-01T13:11:21.439Z</time></trkpt><trkpt lat="44.2814317" lon="11.6839633"><ele>256.0</ele><time>2026-05-01T13:11:22.44Z</time></trkpt><trkpt lat="44.2813783" lon="11.6840267"><ele>256.5</ele><time>2026-05-01T13:11:23.441Z</time></trkpt><trkpt lat="44.281325" lon="11.684095"><ele>257.0</ele><time>2026-05-01T13:11:24.44Z</time></trkpt><trkpt lat="44.2812767" lon="11.6841683"><ele>257.5</ele><time>2026-05-01T13:11:25.44Z</time></trkpt><trkpt lat="44.2812317" lon="11.68425"><ele>258.0</ele><time>2026-05-01T13:11:26.439Z</time></trkpt><trkpt lat="44.2811883" lon="11.6843367"><ele>258.5</ele><time>2026-05-01T13:11:27.44Z</time></trkpt><trkpt lat="44.2811467" lon="11.6844267"><ele>259.0</ele><time>2026-05-01T13:11:28.44Z</time></trkpt><trkpt lat="44.2811033" lon="11.6845233"><ele>257.8333333333333</ele><time>2026-05-01T13:11:29.44Z</time></trkpt><trkpt lat="44.2810583" lon="11.6846267"><ele>256.66666666666663</ele><time>2026-05-01T13:11:30.44Z</time></trkpt><trkpt lat="44.28101" lon="11.6847317"><ele>255.5</ele><time>2026-05-01T13:11:31.44Z</time></trkpt><trkpt lat="44.28096" lon="11.684835"><ele>254.33333333333331</ele><time>2026-05-01T13:11:32.44Z</time></trkpt><trkpt lat="44.2809117" lon="11.684925"><ele>253.16666666666666</ele><time>2026-05-01T13:11:33.439Z</time></trkpt><trkpt lat="44.28087" lon="11.685"><ele>252.0</ele><time>2026-05-01T13:11:34.44Z</time></trkpt><trkpt lat="44.28082" lon="11.685105"><ele>252.0</ele><time>2026-05-01T13:11:36.44Z</time></trkpt><trkpt lat="44.2807917" lon="11.685185"><ele>252.0</ele><time>2026-05-01T13:11:38.439Z</time></trkpt><trkpt lat="44.2808633" lon="11.6852333"><ele>252.0</ele><time>2026-05-01T13:11:41.44Z</time></trkpt><trkpt lat="44.2809433" lon="11.6852367"><ele>252.0</ele><time>2026-05-01T13:11:43.441Z</time></trkpt><trkpt lat="44.28103" lon="11.6852383"><ele>252.0</ele><time>2026-05-01T13:11:45.44Z</time></trkpt><trkpt lat="44.2811317" lon="11.6852067"><ele>252.0</ele><time>2026-05-01T13:11:47.443Z</time></trkpt><trkpt lat="44.281235" lon="11.6851767"><ele>252.0</ele><time>2026-05-01T13:11:49.441Z</time></trkpt><trkpt lat="44.28136" lon="11.685145"><ele>252.0</ele><time>2026-05-01T13:11:51.44Z</time></trkpt><trkpt lat="44.2814333" lon="11.6851317"><ele>252.0</ele><time>2026-05-01T13:11:52.439Z</time></trkpt><trkpt lat="44.2815117" lon="11.6851167"><ele>252.0</ele><time>2026-05-01T13:11:53.44Z</time></trkpt><trkpt lat="44.281595" lon="11.6851117"><ele>252.0</ele><time>2026-05-01T13:11:54.442Z</time></trkpt><trkpt lat="44.281685" lon="11.685115"><ele>251.2</ele><time>2026-05-01T13:11:55.441Z</time></trkpt><trkpt lat="44.2817783" lon="11.6851217"><ele>250.39999999999998</ele><time>2026-05-01T13:11:56.439Z</time></trkpt><trkpt lat="44.2818783" lon="11.68512"><ele>249.60000000000002</ele><time>2026-05-01T13:11:57.44Z</time></trkpt><trkpt lat="44.281975" lon="11.6850983"><ele>248.8</ele><time>2026-05-01T13:11:58.441Z</time></trkpt><trkpt lat="44.2820717" lon="11.68505"><ele>248.0</ele><time>2026-05-01T13:11:59.44Z</time></trkpt><trkpt lat="44.282165" lon="11.6849917"><ele>248.0</ele><time>2026-05-01T13:12:00.441Z</time></trkpt><trkpt lat="44.2822567" lon="11.684935"><ele>248.0</ele><time>2026-05-01T13:12:01.441Z</time></trkpt><trkpt lat="44.2823533" lon="11.684895"><ele>248.0</ele><time>2026-05-01T13:12:02.44Z</time></trkpt><trkpt lat="44.282445" lon="11.68487"><ele>248.0</ele><time>2026-05-01T13:12:03.441Z</time></trkpt><trkpt lat="44.2825417" lon="11.684865"><ele>248.0</ele><time>2026-05-01T13:12:04.441Z</time></trkpt><trkpt lat="44.28264" lon="11.6848683"><ele>246.2</ele><time>2026-05-01T13:12:05.441Z</time></trkpt><trkpt lat="44.2827383" lon="11.6848667"><ele>244.4</ele><time>2026-05-01T13:12:06.439Z</time></trkpt><trkpt lat="44.2828367" lon="11.6848633"><ele>242.59999999999997</ele><time>2026-05-01T13:12:07.441Z</time></trkpt><trkpt lat="44.2829333" lon="11.6848667"><ele>240.79999999999998</ele><time>2026-05-01T13:12:08.44Z</time></trkpt><trkpt lat="44.283035" lon="11.6848683"><ele>239.0</ele><time>2026-05-01T13:12:09.441Z</time></trkpt><trkpt lat="44.28313" lon="11.68488"><ele>237.6</ele><time>2026-05-01T13:12:10.445Z</time></trkpt><trkpt lat="44.283225" lon="11.684895"><ele>236.2</ele><time>2026-05-01T13:12:11.44Z</time></trkpt><trkpt lat="44.2833183" lon="11.6849183"><ele>234.79999999999998</ele><time>2026-05-01T13:12:12.44Z</time></trkpt><trkpt lat="44.283415" lon="11.6849567"><ele>233.39999999999998</ele><time>2026-05-01T13:12:13.44Z</time></trkpt><trkpt lat="44.2835083" lon="11.685005"><ele>232.0</ele><time>2026-05-01T13:12:14.439Z</time></trkpt><trkpt lat="44.2836033" lon="11.6850483"><ele>232.0</ele><time>2026-05-01T13:12:15.44Z</time></trkpt><trkpt lat="44.283705" lon="11.6850717"><ele>232.0</ele><time>2026-05-01T13:12:16.44Z</time></trkpt><trkpt lat="44.2838017" lon="11.6850833"><ele>232.0</ele><time>2026-05-01T13:12:17.443Z</time></trkpt><trkpt lat="44.2839033" lon="11.6850767"><ele>232.0</ele><time>2026-05-01T13:12:18.439Z</time></trkpt><trkpt lat="44.2840017" lon="11.685065"><ele>232.0</ele><time>2026-05-01T13:12:19.441Z</time></trkpt><trkpt lat="44.2841" lon="11.6850517"><ele>232.2</ele><time>2026-05-01T13:12:20.439Z</time></trkpt><trkpt lat="44.2841983" lon="11.6850317"><ele>232.39999999999998</ele><time>2026-05-01T13:12:21.44Z</time></trkpt><trkpt lat="44.2842967" lon="11.6850217"><ele>232.60000000000002</ele><time>2026-05-01T13:12:22.44Z</time></trkpt><trkpt lat="44.2843883" lon="11.685015"><ele>232.8</ele><time>2026-05-01T13:12:23.441Z</time></trkpt><trkpt lat="44.28448" lon="11.685005"><ele>233.0</ele><time>2026-05-01T13:12:24.443Z</time></trkpt><trkpt lat="44.2845667" lon="11.68499"><ele>233.0</ele><time>2026-05-01T13:12:25.44Z</time></trkpt><trkpt lat="44.28465" lon="11.6849817"><ele>233.0</ele><time>2026-05-01T13:12:26.44Z</time></trkpt><trkpt lat="44.2847267" lon="11.684975"><ele>233.0</ele><time>2026-05-01T13:12:27.44Z</time></trkpt><trkpt lat="44.2847983" lon="11.6849767"><ele>233.0</ele><time>2026-05-01T13:12:28.44Z</time></trkpt><trkpt lat="44.2848617" lon="11.6849967"><ele>233.0</ele><time>2026-05-01T13:12:29.44Z</time></trkpt><trkpt lat="44.2849267" lon="11.685035"><ele>233.0</ele><time>2026-05-01T13:12:30.441Z</time></trkpt><trkpt lat="44.28498" lon="11.6851083"><ele>233.0</ele><time>2026-05-01T13:12:31.441Z</time></trkpt><trkpt lat="44.285015" lon="11.6851983"><ele>231.00000000000003</ele><time>2026-05-01T13:12:32.442Z</time></trkpt><trkpt lat="44.2850333" lon="11.6852933"><ele>229.0</ele><time>2026-05-01T13:12:33.44Z</time></trkpt><trkpt lat="44.28502" lon="11.685405"><ele>227.0</ele><time>2026-05-01T13:12:34.441Z</time></trkpt><trkpt lat="44.28499" lon="11.6855233"><ele>225.0</ele><time>2026-05-01T13:12:35.44Z</time></trkpt><trkpt lat="44.28497" lon="11.6856417"><ele>223.00000000000003</ele><time>2026-05-01T13:12:36.44Z</time></trkpt><trkpt lat="44.2849533" lon="11.6857667"><ele>221.0</ele><time>2026-05-01T13:12:37.441Z</time></trkpt><trkpt lat="44.284945" lon="11.6858933"><ele>221.00000000000003</ele><time>2026-05-01T13:12:38.44Z</time></trkpt><trkpt lat="44.2849483" lon="11.6860083"><ele>221.0</ele><time>2026-05-01T13:12:39.439Z</time></trkpt><trkpt lat="44.284955" lon="11.6861217"><ele>221.0</ele><time>2026-05-01T13:12:40.439Z</time></trkpt><trkpt lat="44.28496" lon="11.6862283"><ele>221.0</ele><time>2026-05-01T13:12:41.44Z</time></trkpt><trkpt lat="44.284965" lon="11.6863383"><ele>221.00000000000003</ele><time>2026-05-01T13:12:42.44Z</time></trkpt><trkpt lat="44.2849783" lon="11.6864417"><ele>221.0</ele><time>2026-05-01T13:12:43.441Z</time></trkpt><trkpt lat="44.2849883" lon="11.6865417"><ele>220.57142857142858</ele><time>2026-05-01T13:12:44.441Z</time></trkpt><trkpt lat="44.2849867" lon="11.6866433"><ele>220.14285714285714</ele><time>2026-05-01T13:12:45.439Z</time></trkpt><trkpt lat="44.2849833" lon="11.6867433"><ele>219.71428571428572</ele><time>2026-05-01T13:12:46.444Z</time></trkpt><trkpt lat="44.284985" lon="11.6868383"><ele>219.28571428571428</ele><time>2026-05-01T13:12:47.443Z</time></trkpt><trkpt lat="44.284985" lon="11.686935"><ele>218.85714285714286</ele><time>2026-05-01T13:12:48.442Z</time></trkpt><trkpt lat="44.2849833" lon="11.6870317"><ele>218.42857142857144</ele><time>2026-05-01T13:12:49.441Z</time></trkpt><trkpt lat="44.2849783" lon="11.6871283"><ele>218.0</ele><time>2026-05-01T13:12:50.442Z</time></trkpt><trkpt lat="44.2849717" lon="11.6872217"><ele>217.57142857142858</ele><time>2026-05-01T13:12:51.441Z</time></trkpt><trkpt lat="44.2849667" lon="11.6873167"><ele>217.14285714285717</ele><time>2026-05-01T13:12:52.44Z</time></trkpt><trkpt lat="44.28496" lon="11.687415"><ele>216.71428571428572</ele><time>2026-05-01T13:12:53.441Z</time></trkpt><trkpt lat="44.2849583" lon="11.68751"><ele>216.28571428571428</ele><time>2026-05-01T13:12:54.44Z</time></trkpt><trkpt lat="44.2849617" lon="11.6876033"><ele>215.85714285714286</ele><time>2026-05-01T13:12:55.441Z</time></trkpt><trkpt lat="44.2849633" lon="11.6877"><ele>215.42857142857142</ele><time>2026-05-01T13:12:56.442Z</time></trkpt><trkpt lat="44.2849683" lon="11.68779"><ele>215.0</ele><time>2026-05-01T13:12:57.441Z</time></trkpt><trkpt lat="44.2849767" lon="11.68788"><ele>214.4</ele><time>2026-05-01T13:12:58.441Z</time></trkpt><trkpt lat="44.2849867" lon="11.68797"><ele>213.8</ele><time>2026-05-01T13:12:59.441Z</time></trkpt><trkpt lat="44.2850167" lon="11.68814"><ele>213.2</ele><time>2026-05-01T13:13:01.442Z</time></trkpt><trkpt lat="44.2850533" lon="11.688285"><ele>212.6</ele><time>2026-05-01T13:13:03.439Z</time></trkpt><trkpt lat="44.285095" lon="11.6884267"><ele>212.0</ele><time>2026-05-01T13:13:05.442Z</time></trkpt><trkpt lat="44.28515" lon="11.6885783"><ele>211.57142857142858</ele><time>2026-05-01T13:13:07.442Z</time></trkpt><trkpt lat="44.28518" lon="11.6886583"><ele>211.14285714285714</ele><time>2026-05-01T13:13:08.441Z</time></trkpt><trkpt lat="44.2852117" lon="11.6887417"><ele>210.71428571428572</ele><time>2026-05-01T13:13:09.44Z</time></trkpt><trkpt lat="44.2852417" lon="11.6888267"><ele>210.28571428571428</ele><time>2026-05-01T13:13:10.442Z</time></trkpt><trkpt lat="44.2852733" lon="11.6889167"><ele>209.85714285714283</ele><time>2026-05-01T13:13:11.442Z</time></trkpt><trkpt lat="44.285305" lon="11.6890083"><ele>209.42857142857142</ele><time>2026-05-01T13:13:12.441Z</time></trkpt><trkpt lat="44.28533" lon="11.689095"><ele>209.0</ele><time>2026-05-01T13:13:13.441Z</time></trkpt><trkpt lat="44.2853767" lon="11.6892517"><ele>209.0</ele><time>2026-05-01T13:13:15.439Z</time></trkpt><trkpt lat="44.2854283" lon="11.689395"><ele>209.0</ele><time>2026-05-01T13:13:17.443Z</time></trkpt><trkpt lat="44.285475" lon="11.6895317"><ele>209.0</ele><time>2026-05-01T13:13:19.44Z</time></trkpt><trkpt lat="44.2855117" lon="11.6896483"><ele>209.0</ele><time>2026-05-01T13:13:21.439Z</time></trkpt><trkpt lat="44.2855383" lon="11.689755"><ele>209.0</ele><time>2026-05-01T13:13:23.44Z</time></trkpt><trkpt lat="44.285555" lon="11.68986"><ele>212.33333333333334</ele><time>2026-05-01T13:13:25.441Z</time></trkpt><trkpt lat="44.28556" lon="11.6899583"><ele>215.66666666666669</ele><time>2026-05-01T13:13:27.44Z</time></trkpt><trkpt lat="44.2855517" lon="11.6900817"><ele>219.0</ele><time>2026-05-01T13:13:30.44Z</time></trkpt><trkpt lat="44.2855417" lon="11.6902033"><ele>222.33333333333331</ele><time>2026-05-01T13:13:33.439Z</time></trkpt><trkpt lat="44.28552" lon="11.6902967"><ele>225.66666666666666</ele><time>2026-05-01T13:13:35.44Z</time></trkpt><trkpt lat="44.2854883" lon="11.6903867"><ele>229.0</ele><time>2026-05-01T13:13:37.439Z</time></trkpt><trkpt lat="44.28547" lon="11.6904817"><ele>228.71428571428572</ele><time>2026-05-01T13:13:39.44Z</time></trkpt><trkpt lat="44.2854583" lon="11.6905817"><ele>228.42857142857144</ele><time>2026-05-01T13:13:41.439Z</time></trkpt><trkpt lat="44.285445" lon="11.6906767"><ele>228.14285714285717</ele><time>2026-05-01T13:13:43.441Z</time></trkpt><trkpt lat="44.2854317" lon="11.69077"><ele>227.85714285714286</ele><time>2026-05-01T13:13:45.44Z</time></trkpt><trkpt lat="44.28541" lon="11.690855"><ele>227.5714285714286</ele><time>2026-05-01T13:13:47.443Z</time></trkpt><trkpt lat="44.2853867" lon="11.6909467"><ele>227.2857142857143</ele><time>2026-05-01T13:13:49.443Z</time></trkpt><trkpt lat="44.2853583" lon="11.6910433"><ele>227.0</ele><time>2026-05-01T13:13:51.443Z</time></trkpt><trkpt lat="44.2853367" lon="11.69114"><ele>227.00000000000003</ele><time>2026-05-01T13:13:53.443Z</time></trkpt><trkpt lat="44.2853133" lon="11.691235"><ele>227.0</ele><time>2026-05-01T13:13:55.44Z</time></trkpt><trkpt lat="44.2852817" lon="11.6913367"><ele>227.0</ele><time>2026-05-01T13:13:57.441Z</time></trkpt><trkpt lat="44.2852567" lon="11.69145"><ele>227.0</ele><time>2026-05-01T13:13:59.44Z</time></trkpt><trkpt lat="44.285235" lon="11.69157"><ele>227.00000000000003</ele><time>2026-05-01T13:14:01.441Z</time></trkpt><trkpt lat="44.2852333" lon="11.6917"><ele>227.0</ele><time>2026-05-01T13:14:03.441Z</time></trkpt><trkpt lat="44.2852733" lon="11.6918283"><ele>227.39999999999998</ele><time>2026-05-01T13:14:05.44Z</time></trkpt><trkpt lat="44.2853333" lon="11.6919517"><ele>227.79999999999998</ele><time>2026-05-01T13:14:07.441Z</time></trkpt><trkpt lat="44.2854067" lon="11.69206"><ele>228.2</ele><time>2026-05-01T13:14:09.44Z</time></trkpt><trkpt lat="44.285485" lon="11.692165"><ele>228.6</ele><time>2026-05-01T13:14:11.439Z</time></trkpt><trkpt lat="44.28556" lon="11.69228"><ele>229.0</ele><time>2026-05-01T13:14:13.44Z</time></trkpt><trkpt lat="44.2856217" lon="11.6924067"><ele>229.0</ele><time>2026-05-01T13:14:15.441Z</time></trkpt><trkpt lat="44.2856633" lon="11.69254"><ele>228.99999999999997</ele><time>2026-05-01T13:14:17.444Z</time></trkpt><trkpt lat="44.2856967" lon="11.692675"><ele>228.99999999999997</ele><time>2026-05-01T13:14:19.443Z</time></trkpt><trkpt lat="44.28573" lon="11.6928167"><ele>229.0</ele><time>2026-05-01T13:14:21.443Z</time></trkpt><trkpt lat="44.2857567" lon="11.6929533"><ele>229.0</ele><time>2026-05-01T13:14:23.443Z</time></trkpt><trkpt lat="44.2857767" lon="11.6930717"><ele>229.0</ele><time>2026-05-01T13:14:25.44Z</time></trkpt><trkpt lat="44.2857933" lon="11.6931717"><ele>229.0</ele><time>2026-05-01T13:14:27.441Z</time></trkpt><trkpt lat="44.2858167" lon="11.6932733"><ele>229.0</ele><time>2026-05-01T13:14:30.442Z</time></trkpt><trkpt lat="44.2858167" lon="11.693375"><ele>229.0</ele><time>2026-05-01T13:14:33.443Z</time></trkpt><trkpt lat="44.2857683" lon="11.6934517"><ele>229.0</ele><time>2026-05-01T13:14:37.442Z</time></trkpt><trkpt lat="44.28571" lon="11.69353"><ele>229.0</ele><time>2026-05-01T13:14:41.44Z</time></trkpt><trkpt lat="44.285665" lon="11.693595"><ele>229.0</ele><time>2026-05-01T13:14:44.442Z</time></trkpt><trkpt lat="44.285615" lon="11.6936667"><ele>226.66666666666666</ele><time>2026-05-01T13:14:47.443Z</time></trkpt><trkpt lat="44.2855567" lon="11.6937517"><ele>224.33333333333331</ele><time>2026-05-01T13:14:50.442Z</time></trkpt><trkpt lat="44.2855167" lon="11.6938217"><ele>222.0</ele><time>2026-05-01T13:14:52.44Z</time></trkpt><trkpt lat="44.2854683" lon="11.6939033"><ele>219.66666666666669</ele><time>2026-05-01T13:14:54.444Z</time></trkpt><trkpt lat="44.2854233" lon="11.694005"><ele>217.33333333333334</ele><time>2026-05-01T13:14:56.442Z</time></trkpt><trkpt lat="44.2853833" lon="11.6940867"><ele>215.0</ele><time>2026-05-01T13:14:58.441Z</time></trkpt><trkpt lat="44.2853383" lon="11.6941667"><ele>215.00000000000003</ele><time>2026-05-01T13:15:00.442Z</time></trkpt><trkpt lat="44.285285" lon="11.6942533"><ele>215.0</ele><time>2026-05-01T13:15:02.441Z</time></trkpt><trkpt lat="44.2852433" lon="11.6943217"><ele>215.0</ele><time>2026-05-01T13:15:04.441Z</time></trkpt><trkpt lat="44.285195" lon="11.6943817"><ele>215.0</ele><time>2026-05-01T13:15:06.442Z</time></trkpt><trkpt lat="44.2851317" lon="11.694465"><ele>215.00000000000003</ele><time>2026-05-01T13:15:08.44Z</time></trkpt><trkpt lat="44.2850583" lon="11.694555"><ele>215.0</ele><time>2026-05-01T13:15:10.442Z</time></trkpt><trkpt lat="44.2849767" lon="11.694645"><ele>214.8</ele><time>2026-05-01T13:15:12.441Z</time></trkpt><trkpt lat="44.2848933" lon="11.69473"><ele>214.6</ele><time>2026-05-01T13:15:14.443Z</time></trkpt><trkpt lat="44.284815" lon="11.69482"><ele>214.39999999999998</ele><time>2026-05-01T13:15:16.444Z</time></trkpt><trkpt lat="44.2847267" lon="11.69491"><ele>214.2</ele><time>2026-05-01T13:15:18.442Z</time></trkpt><trkpt lat="44.284635" lon="11.6949917"><ele>214.0</ele><time>2026-05-01T13:15:20.44Z</time></trkpt><trkpt lat="44.2845567" lon="11.6950483"><ele>214.00000000000003</ele><time>2026-05-01T13:15:22.441Z</time></trkpt><trkpt lat="44.2845017" lon="11.695105"><ele>214.0</ele><time>2026-05-01T13:15:24.441Z</time></trkpt><trkpt lat="44.2844883" lon="11.695195"><ele>214.0</ele><time>2026-05-01T13:15:27.441Z</time></trkpt><trkpt lat="44.2845583" lon="11.6952317"><ele>214.0</ele><time>2026-05-01T13:15:29.439Z</time></trkpt><trkpt lat="44.2846433" lon="11.6952367"><ele>214.0</ele><time>2026-05-01T13:15:31.438Z</time></trkpt><trkpt lat="44.2847083" lon="11.6952333"><ele>214.00000000000003</ele><time>2026-05-01T13:15:33.439Z</time></trkpt><trkpt lat="44.28478" lon="11.6952267"><ele>214.0</ele><time>2026-05-01T13:15:36.438Z</time></trkpt><trkpt lat="44.2848467" lon="11.6951567"><ele>214.00000000000003</ele><time>2026-05-01T13:15:39.438Z</time></trkpt><trkpt lat="44.284925" lon="11.6951333"><ele>214.0</ele><time>2026-05-01T13:15:42.44Z</time></trkpt><trkpt lat="44.2849917" lon="11.695125"><ele>214.0</ele><time>2026-05-01T13:15:45.439Z</time></trkpt><trkpt lat="44.2850617" lon="11.6951183"><ele>214.0</ele><time>2026-05-01T13:15:51.439Z</time></trkpt><trkpt lat="44.28507" lon="11.69522"><ele>214.0</ele><time>2026-05-01T13:15:56.44Z</time></trkpt><trkpt lat="44.2850717" lon="11.6953117"><ele>214.00000000000003</ele><time>2026-05-01T13:15:59.44Z</time></trkpt><trkpt lat="44.2850683" lon="11.6954167"><ele>214.0</ele><time>2026-05-01T13:16:02.439Z</time></trkpt><trkpt lat="44.2850567" lon="11.695525"><ele>211.42857142857144</ele><time>2026-05-01T13:16:05.44Z</time></trkpt><trkpt lat="44.2850083" lon="11.6955967"><ele>208.85714285714286</ele><time>2026-05-01T13:16:08.439Z</time></trkpt><trkpt lat="44.2849333" lon="11.6955817"><ele>206.28571428571428</ele><time>2026-05-01T13:16:12.441Z</time></trkpt><trkpt lat="44.2848767" lon="11.6955367"><ele>203.71428571428572</ele><time>2026-05-01T13:16:16.443Z</time></trkpt><trkpt lat="44.2848067" lon="11.695495"><ele>201.14285714285714</ele><time>2026-05-01T13:16:21.44Z</time></trkpt><trkpt lat="44.2847417" lon="11.6954617"><ele>198.57142857142858</ele><time>2026-05-01T13:16:26.439Z</time></trkpt><trkpt lat="44.2846767" lon="11.6954317"><ele>196.0</ele><time>2026-05-01T13:16:30.44Z</time></trkpt><trkpt lat="44.2846083" lon="11.69541"><ele>195.57142857142858</ele><time>2026-05-01T13:16:35.44Z</time></trkpt><trkpt lat="44.2845383" lon="11.695385"><ele>195.14285714285714</ele><time>2026-05-01T13:16:40.439Z</time></trkpt><trkpt lat="44.28447" lon="11.69536"><ele>194.71428571428572</ele><time>2026-05-01T13:16:45.439Z</time></trkpt><trkpt lat="44.2844017" lon="11.6953317"><ele>194.28571428571428</ele><time>2026-05-01T13:16:49.44Z</time></trkpt><trkpt lat="44.2843383" lon="11.695305"><ele>193.85714285714286</ele><time>2026-05-01T13:16:53.439Z</time></trkpt><trkpt lat="44.2842667" lon="11.6952967"><ele>193.42857142857144</ele><time>2026-05-01T13:16:57.44Z</time></trkpt><trkpt lat="44.2842033" lon="11.6952917"><ele>193.0</ele><time>2026-05-01T13:17:00.441Z</time></trkpt><trkpt lat="44.2841417" lon="11.695325"><ele>192.99999999999997</ele><time>2026-05-01T13:17:03.44Z</time></trkpt><trkpt lat="44.284075" lon="11.6953767"><ele>193.0</ele><time>2026-05-01T13:17:06.44Z</time></trkpt><trkpt lat="44.2840017" lon="11.6954217"><ele>193.0</ele><time>2026-05-01T13:17:09.441Z</time></trkpt><trkpt lat="44.2839267" lon="11.695485"><ele>193.0</ele><time>2026-05-01T13:17:12.441Z</time></trkpt><trkpt lat="44.283845" lon="11.6955383"><ele>192.99999999999997</ele><time>2026-05-01T13:17:15.439Z</time></trkpt><trkpt lat="44.2837767" lon="11.6955867"><ele>193.0</ele><time>2026-05-01T13:17:18.441Z</time></trkpt><trkpt lat="44.2837233" lon="11.6956533"><ele>191.14285714285717</ele><time>2026-05-01T13:17:21.44Z</time></trkpt><trkpt lat="44.28372" lon="11.6957433"><ele>189.28571428571428</ele><time>2026-05-01T13:17:24.44Z</time></trkpt><trkpt lat="44.2837183" lon="11.6958617"><ele>187.42857142857144</ele><time>2026-05-01T13:17:27.442Z</time></trkpt><trkpt lat="44.28372" lon="11.69595"><ele>185.57142857142858</ele><time>2026-05-01T13:17:29.44Z</time></trkpt><trkpt lat="44.283715" lon="11.6960667"><ele>183.71428571428572</ele><time>2026-05-01T13:17:32.44Z</time></trkpt><trkpt lat="44.283715" lon="11.69617"><ele>181.85714285714286</ele><time>2026-05-01T13:17:35.44Z</time></trkpt><trkpt lat="44.2837117" lon="11.69628"><ele>180.0</ele><time>2026-05-01T13:17:38.443Z</time></trkpt><trkpt lat="44.2837" lon="11.696385"><ele>177.85714285714286</ele><time>2026-05-01T13:17:41.441Z</time></trkpt><trkpt lat="44.2836883" lon="11.696485"><ele>175.71428571428572</ele><time>2026-05-01T13:17:44.44Z</time></trkpt><trkpt lat="44.2836817" lon="11.6965933"><ele>173.57142857142858</ele><time>2026-05-01T13:17:47.443Z</time></trkpt><trkpt lat="44.2836783" lon="11.6966933"><ele>171.42857142857144</ele><time>2026-05-01T13:17:50.439Z</time></trkpt><trkpt lat="44.283675" lon="11.696795"><ele>169.28571428571428</ele><time>2026-05-01T13:17:53.44Z</time></trkpt><trkpt lat="44.2836667" lon="11.6968917"><ele>167.14285714285717</ele><time>2026-05-01T13:17:56.439Z</time></trkpt><trkpt lat="44.2836617" lon="11.6970067"><ele>165.0</ele><time>2026-05-01T13:17:59.439Z</time></trkpt><trkpt lat="44.2836717" lon="11.6971117"><ele>163.42857142857144</ele><time>2026-05-01T13:18:02.441Z</time></trkpt><trkpt lat="44.2837367" lon="11.6972033"><ele>161.85714285714286</ele><time>2026-05-01T13:18:05.44Z</time></trkpt><trkpt lat="44.283795" lon="11.6972417"><ele>160.28571428571428</ele><time>2026-05-01T13:18:07.44Z</time></trkpt><trkpt lat="44.2838583" lon="11.6972783"><ele>158.71428571428572</ele><time>2026-05-01T13:18:09.439Z</time></trkpt><trkpt lat="44.2839167" lon="11.69732"><ele>157.14285714285714</ele><time>2026-05-01T13:18:11.44Z</time></trkpt><trkpt lat="44.2839967" lon="11.69738"><ele>155.57142857142858</ele><time>2026-05-01T13:18:14.44Z</time></trkpt><trkpt lat="44.2840583" lon="11.6974183"><ele>154.0</ele><time>2026-05-01T13:18:16.442Z</time></trkpt><trkpt lat="44.2841117" lon="11.6974667"><ele>154.0</ele><time>2026-05-01T13:18:18.439Z</time></trkpt><trkpt lat="44.2841767" lon="11.6975117"><ele>154.0</ele><time>2026-05-01T13:18:20.443Z</time></trkpt><trkpt lat="44.28425" lon="11.6975517"><ele>154.0</ele><time>2026-05-01T13:18:22.442Z</time></trkpt><trkpt lat="44.2843183" lon="11.6975983"><ele>154.0</ele><time>2026-05-01T13:18:24.442Z</time></trkpt><trkpt lat="44.284375" lon="11.697645"><ele>154.0</ele><time>2026-05-01T13:18:26.439Z</time></trkpt><trkpt lat="44.2844367" lon="11.6976967"><ele>154.0</ele><time>2026-05-01T13:18:28.439Z</time></trkpt><trkpt lat="44.284505" lon="11.6977517"><ele>154.0</ele><time>2026-05-01T13:18:30.439Z</time></trkpt><trkpt lat="44.2845733" lon="11.6978117"><ele>152.16666666666669</ele><time>2026-05-01T13:18:32.44Z</time></trkpt><trkpt lat="44.2846433" lon="11.697865"><ele>150.33333333333334</ele><time>2026-05-01T13:18:34.441Z</time></trkpt><trkpt lat="44.28472" lon="11.6979167"><ele>148.5</ele><time>2026-05-01T13:18:36.44Z</time></trkpt><trkpt lat="44.284795" lon="11.69797"><ele>146.66666666666666</ele><time>2026-05-01T13:18:38.439Z</time></trkpt><trkpt lat="44.2848717" lon="11.6980317"><ele>144.83333333333331</ele><time>2026-05-01T13:18:40.44Z</time></trkpt><trkpt lat="44.28495" lon="11.698095"><ele>143.0</ele><time>2026-05-01T13:18:42.439Z</time></trkpt><trkpt lat="44.2850367" lon="11.6981617"><ele>143.0</ele><time>2026-05-01T13:18:44.44Z</time></trkpt><trkpt lat="44.28512" lon="11.6982283"><ele>143.0</ele><time>2026-05-01T13:18:46.443Z</time></trkpt><trkpt lat="44.28521" lon="11.6982533"><ele>143.0</ele><time>2026-05-01T13:18:48.443Z</time></trkpt><trkpt lat="44.2852783" lon="11.6982083"><ele>143.0</ele><time>2026-05-01T13:18:51.442Z</time></trkpt><trkpt lat="44.2853417" lon="11.6981833"><ele>143.0</ele><time>2026-05-01T13:18:55.439Z</time></trkpt><trkpt lat="44.2853033" lon="11.6982617"><ele>143.0</ele><time>2026-05-01T13:18:59.44Z</time></trkpt><trkpt lat="44.2852417" lon="11.6983183"><ele>143.0</ele><time>2026-05-01T13:19:01.441Z</time></trkpt><trkpt lat="44.2851517" lon="11.698365"><ele>143.0</ele><time>2026-05-01T13:19:03.441Z</time></trkpt><trkpt lat="44.2850533" lon="11.6983883"><ele>143.0</ele><time>2026-05-01T13:19:05.442Z</time></trkpt><trkpt lat="44.2849617" lon="11.698405"><ele>143.0</ele><time>2026-05-01T13:19:07.442Z</time></trkpt><trkpt lat="44.2848517" lon="11.6984367"><ele>143.0</ele><time>2026-05-01T13:19:09.441Z</time></trkpt><trkpt lat="44.2847517" lon="11.6984683"><ele>142.0</ele><time>2026-05-01T13:19:11.441Z</time></trkpt><trkpt lat="44.284655" lon="11.6984983"><ele>141.0</ele><time>2026-05-01T13:19:13.442Z</time></trkpt><trkpt lat="44.2845583" lon="11.69853"><ele>140.0</ele><time>2026-05-01T13:19:15.44Z</time></trkpt><trkpt lat="44.2844667" lon="11.6985617"><ele>139.0</ele><time>2026-05-01T13:19:17.442Z</time></trkpt><trkpt lat="44.284375" lon="11.6986"><ele>138.0</ele><time>2026-05-01T13:19:19.443Z</time></trkpt><trkpt lat="44.28428" lon="11.6986233"><ele>138.0</ele><time>2026-05-01T13:19:21.442Z</time></trkpt><trkpt lat="44.28418" lon="11.6986283"><ele>138.0</ele><time>2026-05-01T13:19:23.443Z</time></trkpt><trkpt lat="44.2840833" lon="11.6986333"><ele>138.0</ele><time>2026-05-01T13:19:25.44Z</time></trkpt><trkpt lat="44.2839883" lon="11.698645"><ele>138.0</ele><time>2026-05-01T13:19:27.439Z</time></trkpt><trkpt lat="44.28388" lon="11.6986517"><ele>138.0</ele><time>2026-05-01T13:19:29.44Z</time></trkpt><trkpt lat="44.2837633" lon="11.69865"><ele>136.8</ele><time>2026-05-01T13:19:31.44Z</time></trkpt><trkpt lat="44.2836367" lon="11.6986567"><ele>135.60000000000002</ele><time>2026-05-01T13:19:33.44Z</time></trkpt><trkpt lat="44.2835667" lon="11.6986667"><ele>134.39999999999998</ele><time>2026-05-01T13:19:34.44Z</time></trkpt><trkpt lat="44.2835017" lon="11.698665"><ele>133.2</ele><time>2026-05-01T13:19:35.44Z</time></trkpt><trkpt lat="44.2833867" lon="11.6986517"><ele>132.0</ele><time>2026-05-01T13:19:37.441Z</time></trkpt><trkpt lat="44.2832617" lon="11.6986167"><ele>132.0</ele><time>2026-05-01T13:19:39.439Z</time></trkpt><trkpt lat="44.2831983" lon="11.69858"><ele>132.0</ele><time>2026-05-01T13:19:40.439Z</time></trkpt><trkpt lat="44.2831267" lon="11.698555"><ele>132.0</ele><time>2026-05-01T13:19:41.44Z</time></trkpt><trkpt lat="44.2830583" lon="11.69853"><ele>132.0</ele><time>2026-05-01T13:19:42.439Z</time></trkpt><trkpt lat="44.2829933" lon="11.6985033"><ele>132.0</ele><time>2026-05-01T13:19:43.44Z</time></trkpt><trkpt lat="44.2829183" lon="11.6984867"><ele>132.0</ele><time>2026-05-01T13:19:44.439Z</time></trkpt><trkpt lat="44.28285" lon="11.6984633"><ele>132.0</ele><time>2026-05-01T13:19:45.44Z</time></trkpt><trkpt lat="44.2827783" lon="11.6984333"><ele>130.85714285714286</ele><time>2026-05-01T13:19:46.442Z</time></trkpt><trkpt lat="44.2827133" lon="11.698395"><ele>129.71428571428572</ele><time>2026-05-01T13:19:47.443Z</time></trkpt><trkpt lat="44.28265" lon="11.6983483"><ele>128.57142857142858</ele><time>2026-05-01T13:19:48.441Z</time></trkpt><trkpt lat="44.282585" lon="11.6983083"><ele>127.42857142857143</ele><time>2026-05-01T13:19:49.441Z</time></trkpt><trkpt lat="44.2825133" lon="11.698265"><ele>126.2857142857143</ele><time>2026-05-01T13:19:50.442Z</time></trkpt><trkpt lat="44.28245" lon="11.6982133"><ele>125.14285714285715</ele><time>2026-05-01T13:19:51.442Z</time></trkpt><trkpt lat="44.2823933" lon="11.69815"><ele>124.0</ele><time>2026-05-01T13:19:52.441Z</time></trkpt><trkpt lat="44.2823383" lon="11.6980883"><ele>124.0</ele><time>2026-05-01T13:19:53.44Z</time></trkpt><trkpt lat="44.282285" lon="11.6980267"><ele>124.00000000000001</ele><time>2026-05-01T13:19:54.441Z</time></trkpt><trkpt lat="44.2822283" lon="11.6979667"><ele>124.0</ele><time>2026-05-01T13:19:55.442Z</time></trkpt><trkpt lat="44.2821667" lon="11.6979083"><ele>124.0</ele><time>2026-05-01T13:19:56.442Z</time></trkpt><trkpt lat="44.282115" lon="11.6978517"><ele>124.00000000000001</ele><time>2026-05-01T13:19:57.442Z</time></trkpt><trkpt lat="44.2820533" lon="11.6977867"><ele>124.0</ele><time>2026-05-01T13:19:58.442Z</time></trkpt><trkpt lat="44.2820017" lon="11.6977117"><ele>124.0</ele><time>2026-05-01T13:19:59.442Z</time></trkpt><trkpt lat="44.2819533" lon="11.6976333"><ele>123.00000000000001</ele><time>2026-05-01T13:20:00.442Z</time></trkpt><trkpt lat="44.2819083" lon="11.6975483"><ele>122.0</ele><time>2026-05-01T13:20:01.441Z</time></trkpt><trkpt lat="44.2818583" lon="11.697465"><ele>121.0</ele><time>2026-05-01T13:20:02.442Z</time></trkpt><trkpt lat="44.2818033" lon="11.6973817"><ele>120.0</ele><time>2026-05-01T13:20:03.441Z</time></trkpt><trkpt lat="44.281755" lon="11.6972967"><ele>119.00000000000001</ele><time>2026-05-01T13:20:04.442Z</time></trkpt><trkpt lat="44.28171" lon="11.6972083"><ele>118.0</ele><time>2026-05-01T13:20:05.441Z</time></trkpt><trkpt lat="44.2816667" lon="11.6971233"><ele>118.00000000000001</ele><time>2026-05-01T13:20:06.441Z</time></trkpt><trkpt lat="44.2816267" lon="11.69704"><ele>118.0</ele><time>2026-05-01T13:20:07.443Z</time></trkpt><trkpt lat="44.28158" lon="11.69696"><ele>118.0</ele><time>2026-05-01T13:20:08.44Z</time></trkpt><trkpt lat="44.281525" lon="11.6968917"><ele>118.0</ele><time>2026-05-01T13:20:09.441Z</time></trkpt><trkpt lat="44.2814567" lon="11.6968233"><ele>118.00000000000001</ele><time>2026-05-01T13:20:10.441Z</time></trkpt><trkpt lat="44.281365" lon="11.696765"><ele>118.0</ele><time>2026-05-01T13:20:11.441Z</time></trkpt><trkpt lat="44.2812983" lon="11.6966967"><ele>117.16666666666667</ele><time>2026-05-01T13:20:12.442Z</time></trkpt><trkpt lat="44.2812233" lon="11.6966417"><ele>116.33333333333334</ele><time>2026-05-01T13:20:13.441Z</time></trkpt><trkpt lat="44.2811567" lon="11.6965817"><ele>115.5</ele><time>2026-05-01T13:20:14.443Z</time></trkpt><trkpt lat="44.2811" lon="11.696515"><ele>114.66666666666666</ele><time>2026-05-01T13:20:15.44Z</time></trkpt><trkpt lat="44.2810433" lon="11.6964383"><ele>113.83333333333333</ele><time>2026-05-01T13:20:16.441Z</time></trkpt><trkpt lat="44.2809867" lon="11.6963667"><ele>113.0</ele><time>2026-05-01T13:20:17.441Z</time></trkpt><trkpt lat="44.2809333" lon="11.69629"><ele>112.99999999999999</ele><time>2026-05-01T13:20:18.44Z</time></trkpt><trkpt lat="44.2808817" lon="11.6962117"><ele>113.0</ele><time>2026-05-01T13:20:19.443Z</time></trkpt><trkpt lat="44.2808333" lon="11.6961233"><ele>113.0</ele><time>2026-05-01T13:20:20.441Z</time></trkpt><trkpt lat="44.28078" lon="11.6960417"><ele>113.0</ele><time>2026-05-01T13:20:21.441Z</time></trkpt><trkpt lat="44.2807233" lon="11.6959667"><ele>112.99999999999999</ele><time>2026-05-01T13:20:22.441Z</time></trkpt><trkpt lat="44.2806617" lon="11.6959017"><ele>113.0</ele><time>2026-05-01T13:20:23.441Z</time></trkpt><trkpt lat="44.2805983" lon="11.6958367"><ele>112.16666666666666</ele><time>2026-05-01T13:20:24.441Z</time></trkpt><trkpt lat="44.2805333" lon="11.695785"><ele>111.33333333333333</ele><time>2026-05-01T13:20:25.441Z</time></trkpt><trkpt lat="44.2804717" lon="11.6957267"><ele>110.5</ele><time>2026-05-01T13:20:26.441Z</time></trkpt><trkpt lat="44.280415" lon="11.6956483"><ele>109.66666666666666</ele><time>2026-05-01T13:20:27.44Z</time></trkpt><trkpt lat="44.28035" lon="11.6955817"><ele>108.83333333333333</ele><time>2026-05-01T13:20:28.44Z</time></trkpt><trkpt lat="44.2802817" lon="11.6955383"><ele>108.0</ele><time>2026-05-01T13:20:29.442Z</time></trkpt><trkpt lat="44.2802067" lon="11.6955217"><ele>108.0</ele><time>2026-05-01T13:20:30.442Z</time></trkpt><trkpt lat="44.28013" lon="11.6955067"><ele>108.00000000000001</ele><time>2026-05-01T13:20:31.442Z</time></trkpt><trkpt lat="44.2800633" lon="11.6954833"><ele>108.00000000000001</ele><time>2026-05-01T13:20:32.441Z</time></trkpt><trkpt lat="44.2799633" lon="11.6954183"><ele>108.0</ele><time>2026-05-01T13:20:34.441Z</time></trkpt><trkpt lat="44.2798617" lon="11.6953567"><ele>108.0</ele><time>2026-05-01T13:20:36.442Z</time></trkpt><trkpt lat="44.2797617" lon="11.695295"><ele>107.4</ele><time>2026-05-01T13:20:38.441Z</time></trkpt><trkpt lat="44.2796683" lon="11.6952567"><ele>106.80000000000001</ele><time>2026-05-01T13:20:40.441Z</time></trkpt><trkpt lat="44.27958" lon="11.6952133"><ele>106.2</ele><time>2026-05-01T13:20:42.44Z</time></trkpt><trkpt lat="44.2794867" lon="11.6951883"><ele>105.6</ele><time>2026-05-01T13:20:44.442Z</time></trkpt><trkpt lat="44.2793967" lon="11.6951683"><ele>105.0</ele><time>2026-05-01T13:20:46.443Z</time></trkpt><trkpt lat="44.2793017" lon="11.6951817"><ele>105.0</ele><time>2026-05-01T13:20:48.441Z</time></trkpt><trkpt lat="44.2792217" lon="11.6952567"><ele>105.0</ele><time>2026-05-01T13:20:50.443Z</time></trkpt><trkpt lat="44.2791667" lon="11.6953567"><ele>105.0</ele><time>2026-05-01T13:20:52.443Z</time></trkpt><trkpt lat="44.2791167" lon="11.6954683"><ele>105.0</ele><time>2026-05-01T13:20:54.442Z</time></trkpt><trkpt lat="44.2790583" lon="11.6955833"><ele>105.0</ele><time>2026-05-01T13:20:56.444Z</time></trkpt><trkpt lat="44.2789917" lon="11.6956867"><ele>106.0</ele><time>2026-05-01T13:20:58.44Z</time></trkpt><trkpt lat="44.278925" lon="11.6957783"><ele>107.0</ele><time>2026-05-01T13:21:00.44Z</time></trkpt><trkpt lat="44.2788433" lon="11.6958533"><ele>108.0</ele><time>2026-05-01T13:21:02.44Z</time></trkpt><trkpt lat="44.2787483" lon="11.6959133"><ele>109.0</ele><time>2026-05-01T13:21:04.443Z</time></trkpt><trkpt lat="44.27866" lon="11.6959767"><ele>110.0</ele><time>2026-05-01T13:21:06.441Z</time></trkpt><trkpt lat="44.2785783" lon="11.69604"><ele>109.4</ele><time>2026-05-01T13:21:08.441Z</time></trkpt><trkpt lat="44.2785033" lon="11.6961017"><ele>108.8</ele><time>2026-05-01T13:21:10.442Z</time></trkpt><trkpt lat="44.278425" lon="11.69616"><ele>108.19999999999999</ele><time>2026-05-01T13:21:12.442Z</time></trkpt><trkpt lat="44.278355" lon="11.6962283"><ele>107.6</ele><time>2026-05-01T13:21:14.441Z</time></trkpt><trkpt lat="44.2782767" lon="11.6963033"><ele>107.0</ele><time>2026-05-01T13:21:16.443Z</time></trkpt><trkpt lat="44.2781917" lon="11.6963767"><ele>107.0</ele><time>2026-05-01T13:21:18.443Z</time></trkpt><trkpt lat="44.2781083" lon="11.69645"><ele>106.99999999999999</ele><time>2026-05-01T13:21:20.441Z</time></trkpt><trkpt lat="44.2780217" lon="11.6965067"><ele>106.99999999999999</ele><time>2026-05-01T13:21:22.44Z</time></trkpt><trkpt lat="44.2779267" lon="11.6965533"><ele>107.0</ele><time>2026-05-01T13:21:24.441Z</time></trkpt><trkpt lat="44.2778367" lon="11.696595"><ele>107.0</ele><time>2026-05-01T13:21:26.441Z</time></trkpt><trkpt lat="44.277745" lon="11.696615"><ele>106.66666666666666</ele><time>2026-05-01T13:21:28.441Z</time></trkpt><trkpt lat="44.27765" lon="11.6966367"><ele>106.33333333333333</ele><time>2026-05-01T13:21:30.441Z</time></trkpt><trkpt lat="44.27757" lon="11.6966417"><ele>106.0</ele><time>2026-05-01T13:21:32.441Z</time></trkpt><trkpt lat="44.2774933" lon="11.696645"><ele>105.66666666666666</ele><time>2026-05-01T13:21:34.441Z</time></trkpt><trkpt lat="44.2774083" lon="11.696675"><ele>105.33333333333333</ele><time>2026-05-01T13:21:36.44Z</time></trkpt><trkpt lat="44.2773317" lon="11.6967"><ele>105.0</ele><time>2026-05-01T13:21:38.44Z</time></trkpt><trkpt lat="44.2772633" lon="11.6967217"><ele>105.71428571428571</ele><time>2026-05-01T13:21:40.441Z</time></trkpt><trkpt lat="44.2771817" lon="11.6967433"><ele>106.42857142857143</ele><time>2026-05-01T13:21:43.441Z</time></trkpt><trkpt lat="44.27712" lon="11.69677"><ele>107.14285714285714</ele><time>2026-05-01T13:21:46.442Z</time></trkpt><trkpt lat="44.2770617" lon="11.6968033"><ele>107.85714285714286</ele><time>2026-05-01T13:21:49.44Z</time></trkpt><trkpt lat="44.2769883" lon="11.69684"><ele>108.57142857142857</ele><time>2026-05-01T13:21:53.441Z</time></trkpt><trkpt lat="44.2769183" lon="11.696875"><ele>109.28571428571428</ele><time>2026-05-01T13:21:57.441Z</time></trkpt><trkpt lat="44.2768383" lon="11.6968933"><ele>110.0</ele><time>2026-05-01T13:22:02.441Z</time></trkpt><trkpt lat="44.2767683" lon="11.6969167"><ele>109.85714285714285</ele><time>2026-05-01T13:22:06.44Z</time></trkpt><trkpt lat="44.2767017" lon="11.69693"><ele>109.71428571428571</ele><time>2026-05-01T13:22:10.44Z</time></trkpt><trkpt lat="44.2766317" lon="11.6969367"><ele>109.57142857142857</ele><time>2026-05-01T13:22:14.44Z</time></trkpt><trkpt lat="44.2765567" lon="11.696945"><ele>109.42857142857142</ele><time>2026-05-01T13:22:18.439Z</time></trkpt><trkpt lat="44.2764783" lon="11.6969517"><ele>109.28571428571429</ele><time>2026-05-01T13:22:22.44Z</time></trkpt><trkpt lat="44.276405" lon="11.6969633"><ele>109.14285714285714</ele><time>2026-05-01T13:22:26.439Z</time></trkpt><trkpt lat="44.2763267" lon="11.696965"><ele>109.0</ele><time>2026-05-01T13:22:30.441Z</time></trkpt><trkpt lat="44.2762583" lon="11.696965"><ele>109.0</ele><time>2026-05-01T13:22:34.441Z</time></trkpt><trkpt lat="44.2761867" lon="11.69699"><ele>109.0</ele><time>2026-05-01T13:22:38.441Z</time></trkpt><trkpt lat="44.2761233" lon="11.6970033"><ele>109.0</ele><time>2026-05-01T13:22:42.443Z</time></trkpt><trkpt lat="44.276045" lon="11.697025"><ele>109.0</ele><time>2026-05-01T13:22:47.44Z</time></trkpt><trkpt lat="44.2759667" lon="11.6970683"><ele>109.0</ele><time>2026-05-01T13:22:51.442Z</time></trkpt><trkpt lat="44.275905" lon="11.69709"><ele>109.0</ele><time>2026-05-01T13:22:54.441Z</time></trkpt><trkpt lat="44.2758317" lon="11.697135"><ele>109.0</ele><time>2026-05-01T13:22:58.443Z</time></trkpt><trkpt lat="44.2757567" lon="11.6971683"><ele>109.00000000000001</ele><time>2026-05-01T13:23:02.442Z</time></trkpt><trkpt lat="44.2756883" lon="11.6971933"><ele>109.0</ele><time>2026-05-01T13:23:06.444Z</time></trkpt><trkpt lat="44.2756067" lon="11.6971933"><ele>109.0</ele><time>2026-05-01T13:23:10.442Z</time></trkpt><trkpt lat="44.2755333" lon="11.69721"><ele>109.0</ele><time>2026-05-01T13:23:13.441Z</time></trkpt><trkpt lat="44.2754617" lon="11.6972617"><ele>109.00000000000001</ele><time>2026-05-01T13:23:16.444Z</time></trkpt><trkpt lat="44.2753883" lon="11.6973233"><ele>109.0</ele><time>2026-05-01T13:23:19.439Z</time></trkpt><trkpt lat="44.275315" lon="11.697365"><ele>109.83333333333334</ele><time>2026-05-01T13:23:22.44Z</time></trkpt><trkpt lat="44.275235" lon="11.6974167"><ele>110.66666666666667</ele><time>2026-05-01T13:23:25.439Z</time></trkpt><trkpt lat="44.2751517" lon="11.6974617"><ele>111.5</ele><time>2026-05-01T13:23:28.44Z</time></trkpt><trkpt lat="44.2750867" lon="11.697465"><ele>112.33333333333334</ele><time>2026-05-01T13:23:30.439Z</time></trkpt><trkpt lat="44.2750183" lon="11.697435"><ele>113.16666666666667</ele><time>2026-05-01T13:23:32.439Z</time></trkpt><trkpt lat="44.274975" lon="11.697355"><ele>114.0</ele><time>2026-05-01T13:23:34.44Z</time></trkpt><trkpt lat="44.2749383" lon="11.697255"><ele>114.0</ele><time>2026-05-01T13:23:36.44Z</time></trkpt><trkpt lat="44.2749083" lon="11.6971433"><ele>114.0</ele><time>2026-05-01T13:23:38.44Z</time></trkpt><trkpt lat="44.2748717" lon="11.697025"><ele>114.0</ele><time>2026-05-01T13:23:40.44Z</time></trkpt><trkpt lat="44.2748317" lon="11.6969017"><ele>114.0</ele><time>2026-05-01T13:23:42.441Z</time></trkpt><trkpt lat="44.2747833" lon="11.696775"><ele>114.0</ele><time>2026-05-01T13:23:44.44Z</time></trkpt><trkpt lat="44.2747383" lon="11.6966433"><ele>113.75</ele><time>2026-05-01T13:23:46.443Z</time></trkpt><trkpt lat="44.2746883" lon="11.696505"><ele>113.5</ele><time>2026-05-01T13:23:48.44Z</time></trkpt><trkpt lat="44.2746383" lon="11.6963617"><ele>113.25</ele><time>2026-05-01T13:23:50.44Z</time></trkpt><trkpt lat="44.274585" lon="11.69622"><ele>113.0</ele><time>2026-05-01T13:23:52.441Z</time></trkpt><trkpt lat="44.2745283" lon="11.6960817"><ele>113.0</ele><time>2026-05-01T13:23:54.44Z</time></trkpt><trkpt lat="44.2744683" lon="11.6959483"><ele>113.00000000000001</ele><time>2026-05-01T13:23:56.44Z</time></trkpt><trkpt lat="44.2744017" lon="11.6958283"><ele>113.00000000000001</ele><time>2026-05-01T13:23:58.441Z</time></trkpt><trkpt lat="44.2743267" lon="11.695725"><ele>113.0</ele><time>2026-05-01T13:24:00.441Z</time></trkpt><trkpt lat="44.2742283" lon="11.69567"><ele>113.0</ele><time>2026-05-01T13:24:02.439Z</time></trkpt><trkpt lat="44.2741217" lon="11.6957133"><ele>112.99999999999999</ele><time>2026-05-01T13:24:04.44Z</time></trkpt><trkpt lat="44.2740167" lon="11.695815"><ele>113.0</ele><time>2026-05-01T13:24:06.441Z</time></trkpt><trkpt lat="44.273965" lon="11.69587"><ele>113.0</ele><time>2026-05-01T13:24:07.441Z</time></trkpt><trkpt lat="44.2739133" lon="11.695925"><ele>113.0</ele><time>2026-05-01T13:24:08.441Z</time></trkpt><trkpt lat="44.2738617" lon="11.69598"><ele>112.99999999999999</ele><time>2026-05-01T13:24:09.44Z</time></trkpt><trkpt lat="44.2738083" lon="11.6960367"><ele>113.0</ele><time>2026-05-01T13:24:10.44Z</time></trkpt><trkpt lat="44.2737533" lon="11.6960933"><ele>112.71428571428572</ele><time>2026-05-01T13:24:11.44Z</time></trkpt><trkpt lat="44.2737017" lon="11.69615"><ele>112.42857142857142</ele><time>2026-05-01T13:24:12.44Z</time></trkpt><trkpt lat="44.2736417" lon="11.6962"><ele>112.14285714285714</ele><time>2026-05-01T13:24:13.441Z</time></trkpt><trkpt lat="44.2735767" lon="11.6962367"><ele>111.85714285714286</ele><time>2026-05-01T13:24:14.44Z</time></trkpt><trkpt lat="44.27351" lon="11.6962583"><ele>111.57142857142858</ele><time>2026-05-01T13:24:15.44Z</time></trkpt><trkpt lat="44.27344" lon="11.6962617"><ele>111.28571428571428</ele><time>2026-05-01T13:24:16.442Z</time></trkpt><trkpt lat="44.2733767" lon="11.6962517"><ele>111.0</ele><time>2026-05-01T13:24:17.443Z</time></trkpt><trkpt lat="44.2733133" lon="11.696235"><ele>111.0</ele><time>2026-05-01T13:24:18.439Z</time></trkpt><trkpt lat="44.2732467" lon="11.696215"><ele>111.0</ele><time>2026-05-01T13:24:19.439Z</time></trkpt><trkpt lat="44.2731833" lon="11.6961967"><ele>111.0</ele><time>2026-05-01T13:24:20.443Z</time></trkpt><trkpt lat="44.2730617" lon="11.69617"><ele>111.0</ele><time>2026-05-01T13:24:22.44Z</time></trkpt><trkpt lat="44.27294" lon="11.6961417"><ele>111.0</ele><time>2026-05-01T13:24:24.442Z</time></trkpt><trkpt lat="44.2728767" lon="11.696125"><ele>111.0</ele><time>2026-05-01T13:24:25.439Z</time></trkpt><trkpt lat="44.27276" lon="11.696095"><ele>111.28571428571428</ele><time>2026-05-01T13:24:27.438Z</time></trkpt><trkpt lat="44.2726967" lon="11.696075"><ele>111.57142857142858</ele><time>2026-05-01T13:24:28.439Z</time></trkpt><trkpt lat="44.2726283" lon="11.6960533"><ele>111.85714285714286</ele><time>2026-05-01T13:24:29.44Z</time></trkpt><trkpt lat="44.27256" lon="11.69603"><ele>112.14285714285714</ele><time>2026-05-01T13:24:30.439Z</time></trkpt><trkpt lat="44.2724883" lon="11.6960117"><ele>112.42857142857142</ele><time>2026-05-01T13:24:31.441Z</time></trkpt><trkpt lat="44.2724159" lon="11.6959965"><ele>112.71428571428572</ele><time>2026-05-01T13:24:32.439Z</time></trkpt><trkpt lat="44.2723435" lon="11.6959792"><ele>113.0</ele><time>2026-05-01T13:24:33.44Z</time></trkpt><trkpt lat="44.2722724" lon="11.6959651"><ele>111.57142857142857</ele><time>2026-05-01T13:24:34.44Z</time></trkpt><trkpt lat="44.2722032" lon="11.6959505"><ele>110.14285714285714</ele><time>2026-05-01T13:24:35.44Z</time></trkpt><trkpt lat="44.2721346" lon="11.6959376"><ele>108.71428571428571</ele><time>2026-05-01T13:24:36.44Z</time></trkpt><trkpt lat="44.2720658" lon="11.6959302"><ele>107.28571428571428</ele><time>2026-05-01T13:24:37.44Z</time></trkpt><trkpt lat="44.271997" lon="11.6959254"><ele>105.85714285714286</ele><time>2026-05-01T13:24:38.439Z</time></trkpt><trkpt lat="44.2719263" lon="11.6959202"><ele>104.42857142857142</ele><time>2026-05-01T13:24:39.439Z</time></trkpt><trkpt lat="44.2718518" lon="11.6959077"><ele>103.0</ele><time>2026-05-01T13:24:40.44Z</time></trkpt><trkpt lat="44.2717743" lon="11.6958944"><ele>103.00000000000001</ele><time>2026-05-01T13:24:41.44Z</time></trkpt><trkpt lat="44.2716967" lon="11.6958727"><ele>103.0</ele><time>2026-05-01T13:24:42.439Z</time></trkpt><trkpt lat="44.2716149" lon="11.6958448"><ele>103.0</ele><time>2026-05-01T13:24:43.44Z</time></trkpt><trkpt lat="44.2715354" lon="11.6958069"><ele>103.0</ele><time>2026-05-01T13:24:44.439Z</time></trkpt><trkpt lat="44.2714637" lon="11.6957483"><ele>103.00000000000001</ele><time>2026-05-01T13:24:45.44Z</time></trkpt><trkpt lat="44.2714096" lon="11.6956633"><ele>103.0</ele><time>2026-05-01T13:24:46.441Z</time></trkpt><trkpt lat="44.27138" lon="11.6955595"><ele>102.4</ele><time>2026-05-01T13:24:47.441Z</time></trkpt><trkpt lat="44.2713803" lon="11.6954392"><ele>101.80000000000001</ele><time>2026-05-01T13:24:48.439Z</time></trkpt><trkpt lat="44.2714051" lon="11.6953018"><ele>101.2</ele><time>2026-05-01T13:24:49.441Z</time></trkpt><trkpt lat="44.2714262" lon="11.6951719"><ele>100.6</ele><time>2026-05-01T13:24:50.439Z</time></trkpt><trkpt lat="44.2714374" lon="11.6950501"><ele>100.0</ele><time>2026-05-01T13:24:51.441Z</time></trkpt><trkpt lat="44.2714447" lon="11.6949395"><ele>100.0</ele><time>2026-05-01T13:24:52.44Z</time></trkpt><trkpt lat="44.2714464" lon="11.6948435"><ele>100.0</ele><time>2026-05-01T13:24:53.439Z</time></trkpt><trkpt lat="44.2713985" lon="11.6946886"><ele>100.0</ele><time>2026-05-01T13:24:55.44Z</time></trkpt><trkpt lat="44.2713017" lon="11.6946093"><ele>100.0</ele><time>2026-05-01T13:24:57.439Z</time></trkpt><trkpt lat="44.2712393" lon="11.6946815"><ele>100.0</ele><time>2026-05-01T13:24:59.44Z</time></trkpt><trkpt lat="44.2712028" lon="11.6947725"><ele>100.00000000000001</ele><time>2026-05-01T13:25:01.44Z</time></trkpt><trkpt lat="44.2711463" lon="11.6948433"><ele>100.0</ele><time>2026-05-01T13:25:03.438Z</time></trkpt><trkpt lat="44.2710939" lon="11.6948942"><ele>100.0</ele><time>2026-05-01T13:25:05.438Z</time></trkpt><trkpt lat="44.271156" lon="11.6949385"><ele>100.0</ele><time>2026-05-01T13:25:10.439Z</time></trkpt><trkpt lat="44.2712289" lon="11.6949346"><ele>100.00000000000001</ele><time>2026-05-01T13:25:12.439Z</time></trkpt><trkpt lat="44.2712598" lon="11.6950405"><ele>100.0</ele><time>2026-05-01T13:25:15.439Z</time></trkpt><trkpt lat="44.2712375" lon="11.6951643"><ele>98.66666666666667</ele><time>2026-05-01T13:25:17.442Z</time></trkpt><trkpt lat="44.2711935" lon="11.6953105"><ele>97.33333333333334</ele><time>2026-05-01T13:25:19.44Z</time></trkpt><trkpt lat="44.2711568" lon="11.6953909"><ele>96.0</ele><time>2026-05-01T13:25:20.439Z</time></trkpt><trkpt lat="44.2711065" lon="11.6954747"><ele>94.66666666666667</ele><time>2026-05-01T13:25:21.439Z</time></trkpt><trkpt lat="44.2710456" lon="11.6955593"><ele>93.33333333333334</ele><time>2026-05-01T13:25:22.441Z</time></trkpt><trkpt lat="44.2709815" lon="11.6956509"><ele>92.0</ele><time>2026-05-01T13:25:23.441Z</time></trkpt><trkpt lat="44.2709132" lon="11.6957348"><ele>92.0</ele><time>2026-05-01T13:25:24.441Z</time></trkpt><trkpt lat="44.2708363" lon="11.6958088"><ele>92.0</ele><time>2026-05-01T13:25:25.44Z</time></trkpt><trkpt lat="44.2707542" lon="11.6958731"><ele>92.0</ele><time>2026-05-01T13:25:26.439Z</time></trkpt><trkpt lat="44.2706673" lon="11.6959289"><ele>92.0</ele><time>2026-05-01T13:25:27.442Z</time></trkpt><trkpt lat="44.27058" lon="11.6959814"><ele>92.0</ele><time>2026-05-01T13:25:28.442Z</time></trkpt><trkpt lat="44.2704959" lon="11.6960351"><ele>90.16666666666667</ele><time>2026-05-01T13:25:29.439Z</time></trkpt><trkpt lat="44.2704165" lon="11.6960955"><ele>88.33333333333334</ele><time>2026-05-01T13:25:30.44Z</time></trkpt><trkpt lat="44.2703467" lon="11.6961711"><ele>86.5</ele><time>2026-05-01T13:25:31.441Z</time></trkpt><trkpt lat="44.2702912" lon="11.6962516"><ele>84.66666666666667</ele><time>2026-05-01T13:25:32.44Z</time></trkpt><trkpt lat="44.2702513" lon="11.6963291"><ele>82.83333333333333</ele><time>2026-05-01T13:25:33.439Z</time></trkpt><trkpt lat="44.2701934" lon="11.6964259"><ele>81.0</ele><time>2026-05-01T13:25:35.44Z</time></trkpt><trkpt lat="44.2701261" lon="11.696408"><ele>81.0</ele><time>2026-05-01T13:25:39.44Z</time></trkpt><trkpt lat="44.2701391" lon="11.696517"><ele>81.0</ele><time>2026-05-01T13:25:49.441Z</time></trkpt><trkpt lat="44.2701035" lon="11.6966064"><ele>81.0</ele><time>2026-05-01T13:25:51.442Z</time></trkpt><trkpt lat="44.2700585" lon="11.6966834"><ele>81.0</ele><time>2026-05-01T13:25:53.441Z</time></trkpt><trkpt lat="44.2700189" lon="11.6967549"><ele>81.0</ele><time>2026-05-01T13:25:57.44Z</time></trkpt><trkpt lat="44.2700837" lon="11.6966653"><ele>81.0</ele><time>2026-05-01T13:26:03.44Z</time></trkpt><trkpt lat="44.2701406" lon="11.6965674"><ele>81.0</ele><time>2026-05-01T13:26:06.439Z</time></trkpt><trkpt lat="44.270166" lon="11.6964675"><ele>81.0</ele><time>2026-05-01T13:26:09.439Z</time></trkpt><trkpt lat="44.2701501" lon="11.6963697"><ele>81.0</ele><time>2026-05-01T13:26:12.44Z</time></trkpt><trkpt lat="44.2700871" lon="11.6962998"><ele>81.0</ele><time>2026-05-01T13:26:15.44Z</time></trkpt><trkpt lat="44.2700232" lon="11.6962078"><ele>81.0</ele><time>2026-05-01T13:26:18.442Z</time></trkpt><trkpt lat="44.2699679" lon="11.6961136"><ele>81.0</ele><time>2026-05-01T13:26:21.441Z</time></trkpt><trkpt lat="44.2699052" lon="11.6960414"><ele>81.57142857142857</ele><time>2026-05-01T13:26:24.443Z</time></trkpt><trkpt lat="44.2698412" lon="11.6960223"><ele>82.14285714285714</ele><time>2026-05-01T13:26:28.44Z</time></trkpt><trkpt lat="44.2697629" lon="11.6959936"><ele>82.71428571428572</ele><time>2026-05-01T13:26:31.439Z</time></trkpt><trkpt lat="44.2696896" lon="11.6959646"><ele>83.28571428571428</ele><time>2026-05-01T13:26:33.44Z</time></trkpt><trkpt lat="44.2696206" lon="11.6959323"><ele>83.85714285714285</ele><time>2026-05-01T13:26:35.439Z</time></trkpt><trkpt lat="44.2695507" lon="11.6959087"><ele>84.42857142857143</ele><time>2026-05-01T13:26:37.44Z</time></trkpt><trkpt lat="44.2694781" lon="11.6958937"><ele>85.0</ele><time>2026-05-01T13:26:39.44Z</time></trkpt><trkpt lat="44.2694139" lon="11.6958743"><ele>85.0</ele><time>2026-05-01T13:26:41.44Z</time></trkpt><trkpt lat="44.2693394" lon="11.6958535"><ele>85.0</ele><time>2026-05-01T13:26:43.44Z</time></trkpt><trkpt lat="44.2692738" lon="11.6958279"><ele>85.0</ele><time>2026-05-01T13:26:45.439Z</time></trkpt><trkpt lat="44.2691866" lon="11.6958028"><ele>85.0</ele><time>2026-05-01T13:26:48.441Z</time></trkpt><trkpt lat="44.2691018" lon="11.6957718"><ele>85.0</ele><time>2026-05-01T13:26:51.441Z</time></trkpt><trkpt lat="44.269039" lon="11.6957543"><ele>85.0</ele><time>2026-05-01T13:26:53.443Z</time></trkpt><trkpt lat="44.268976" lon="11.6957397"><ele>85.0</ele><time>2026-05-01T13:26:55.439Z</time></trkpt><trkpt lat="44.2688909" lon="11.6957216"><ele>84.83333333333333</ele><time>2026-05-01T13:26:58.44Z</time></trkpt><trkpt lat="44.2688211" lon="11.6957074"><ele>84.66666666666666</ele><time>2026-05-01T13:27:01.441Z</time></trkpt><trkpt lat="44.2687472" lon="11.6957061"><ele>84.5</ele><time>2026-05-01T13:27:04.44Z</time></trkpt><trkpt lat="44.2686724" lon="11.6956885"><ele>84.33333333333333</ele><time>2026-05-01T13:27:08.44Z</time></trkpt><trkpt lat="44.2685967" lon="11.6956694"><ele>84.16666666666667</ele><time>2026-05-01T13:27:11.439Z</time></trkpt><trkpt lat="44.268514" lon="11.6956605"><ele>84.0</ele><time>2026-05-01T13:27:14.439Z</time></trkpt><trkpt lat="44.2684331" lon="11.6956623"><ele>84.0</ele><time>2026-05-01T13:27:17.442Z</time></trkpt><trkpt lat="44.2683489" lon="11.6956612"><ele>84.0</ele><time>2026-05-01T13:27:20.443Z</time></trkpt><trkpt lat="44.2682673" lon="11.6956586"><ele>84.0</ele><time>2026-05-01T13:27:23.441Z</time></trkpt><trkpt lat="44.2681921" lon="11.6956526"><ele>84.0</ele><time>2026-05-01T13:27:26.441Z</time></trkpt><trkpt lat="44.2681198" lon="11.6956461"><ele>84.0</ele><time>2026-05-01T13:27:29.442Z</time></trkpt><trkpt lat="44.2680505" lon="11.6956339"><ele>84.0</ele><time>2026-05-01T13:27:32.441Z</time></trkpt><trkpt lat="44.2679762" lon="11.6956131"><ele>84.16666666666667</ele><time>2026-05-01T13:27:35.442Z</time></trkpt><trkpt lat="44.2679029" lon="11.6956064"><ele>84.33333333333333</ele><time>2026-05-01T13:27:37.441Z</time></trkpt><trkpt lat="44.2678389" lon="11.6955764"><ele>84.5</ele><time>2026-05-01T13:27:39.442Z</time></trkpt><trkpt lat="44.2677677" lon="11.6956235"><ele>84.66666666666666</ele><time>2026-05-01T13:27:43.442Z</time></trkpt><trkpt lat="44.2677412" lon="11.6957312"><ele>84.83333333333333</ele><time>2026-05-01T13:27:45.442Z</time></trkpt><trkpt lat="44.2677104" lon="11.695863"><ele>85.0</ele><time>2026-05-01T13:27:47.441Z</time></trkpt><trkpt lat="44.2676708" lon="11.6959988"><ele>84.25</ele><time>2026-05-01T13:27:49.44Z</time></trkpt><trkpt lat="44.2676252" lon="11.696145"><ele>83.5</ele><time>2026-05-01T13:27:51.44Z</time></trkpt><trkpt lat="44.2675803" lon="11.6963049"><ele>82.75</ele><time>2026-05-01T13:27:53.442Z</time></trkpt><trkpt lat="44.2675354" lon="11.6964692"><ele>82.0</ele><time>2026-05-01T13:27:55.441Z</time></trkpt><trkpt lat="44.2674886" lon="11.6966252"><ele>82.0</ele><time>2026-05-01T13:27:57.44Z</time></trkpt><trkpt lat="44.2674372" lon="11.6967536"><ele>82.0</ele><time>2026-05-01T13:27:59.44Z</time></trkpt><trkpt lat="44.2673854" lon="11.6968563"><ele>82.0</ele><time>2026-05-01T13:28:01.441Z</time></trkpt><trkpt lat="44.2673416" lon="11.6969463"><ele>82.0</ele><time>2026-05-01T13:28:04.44Z</time></trkpt><trkpt lat="44.2673265" lon="11.6970519"><ele>82.0</ele><time>2026-05-01T13:28:08.44Z</time></trkpt><trkpt lat="44.2672842" lon="11.6971311"><ele>82.0</ele><time>2026-05-01T13:28:11.44Z</time></trkpt><trkpt lat="44.267245" lon="11.6972293"><ele>81.83333333333333</ele><time>2026-05-01T13:28:14.44Z</time></trkpt><trkpt lat="44.267204" lon="11.6973455"><ele>81.66666666666666</ele><time>2026-05-01T13:28:17.442Z</time></trkpt><trkpt lat="44.2671715" lon="11.6974337"><ele>81.5</ele><time>2026-05-01T13:28:19.439Z</time></trkpt><trkpt lat="44.2671389" lon="11.6975114"><ele>81.33333333333333</ele><time>2026-05-01T13:28:21.44Z</time></trkpt><trkpt lat="44.2671136" lon="11.6976186"><ele>81.16666666666667</ele><time>2026-05-01T13:28:24.439Z</time></trkpt><trkpt lat="44.267182" lon="11.6976564"><ele>81.0</ele><time>2026-05-01T13:28:27.44Z</time></trkpt><trkpt lat="44.267255" lon="11.6976919"><ele>80.8</ele><time>2026-05-01T13:28:29.44Z</time></trkpt><trkpt lat="44.2673456" lon="11.6977486"><ele>80.6</ele><time>2026-05-01T13:28:31.439Z</time></trkpt><trkpt lat="44.267442" lon="11.6978062"><ele>80.4</ele><time>2026-05-01T13:28:33.44Z</time></trkpt><trkpt lat="44.2675336" lon="11.697864"><ele>80.2</ele><time>2026-05-01T13:28:35.44Z</time></trkpt><trkpt lat="44.2676214" lon="11.6979217"><ele>80.0</ele><time>2026-05-01T13:28:37.44Z</time></trkpt><trkpt lat="44.2677038" lon="11.6979747"><ele>79.8</ele><time>2026-05-01T13:28:39.44Z</time></trkpt><trkpt lat="44.2677884" lon="11.6980375"><ele>79.6</ele><time>2026-05-01T13:28:41.44Z</time></trkpt><trkpt lat="44.2678689" lon="11.6981039"><ele>79.4</ele><time>2026-05-01T13:28:43.44Z</time></trkpt><trkpt lat="44.2679534" lon="11.6981749"><ele>79.2</ele><time>2026-05-01T13:28:45.439Z</time></trkpt><trkpt lat="44.2680398" lon="11.6982493"><ele>79.0</ele><time>2026-05-01T13:28:47.441Z</time></trkpt><trkpt lat="44.2681202" lon="11.6983315"><ele>79.4</ele><time>2026-05-01T13:28:49.442Z</time></trkpt><trkpt lat="44.2682003" lon="11.6984166"><ele>79.80000000000001</ele><time>2026-05-01T13:28:51.441Z</time></trkpt><trkpt lat="44.2682818" lon="11.6985162"><ele>80.19999999999999</ele><time>2026-05-01T13:28:53.441Z</time></trkpt><trkpt lat="44.2683605" lon="11.6986275"><ele>80.6</ele><time>2026-05-01T13:28:55.442Z</time></trkpt><trkpt lat="44.2684406" lon="11.6987448"><ele>81.0</ele><time>2026-05-01T13:28:57.442Z</time></trkpt><trkpt lat="44.2685172" lon="11.6988582"><ele>81.0</ele><time>2026-05-01T13:28:59.441Z</time></trkpt><trkpt lat="44.2685918" lon="11.6989713"><ele>81.0</ele><time>2026-05-01T13:29:01.443Z</time></trkpt><trkpt lat="44.2686664" lon="11.699088"><ele>81.0</ele><time>2026-05-01T13:29:03.442Z</time></trkpt><trkpt lat="44.2687438" lon="11.6992003"><ele>81.0</ele><time>2026-05-01T13:29:05.441Z</time></trkpt><trkpt lat="44.2688216" lon="11.6993113"><ele>81.0</ele><time>2026-05-01T13:29:07.442Z</time></trkpt><trkpt lat="44.2688953" lon="11.6994323"><ele>80.75</ele><time>2026-05-01T13:29:09.442Z</time></trkpt><trkpt lat="44.268967" lon="11.6995545"><ele>80.5</ele><time>2026-05-01T13:29:11.441Z</time></trkpt><trkpt lat="44.2690411" lon="11.699676"><ele>80.25</ele><time>2026-05-01T13:29:13.442Z</time></trkpt><trkpt lat="44.269112" lon="11.6998013"><ele>80.0</ele><time>2026-05-01T13:29:15.442Z</time></trkpt><trkpt lat="44.2691862" lon="11.6999263"><ele>80.0</ele><time>2026-05-01T13:29:17.442Z</time></trkpt><trkpt lat="44.2692528" lon="11.700051"><ele>80.0</ele><time>2026-05-01T13:29:19.441Z</time></trkpt><trkpt lat="44.2693132" lon="11.700176"><ele>80.0</ele><time>2026-05-01T13:29:21.44Z</time></trkpt><trkpt lat="44.2693713" lon="11.7003094"><ele>80.0</ele><time>2026-05-01T13:29:23.439Z</time></trkpt><trkpt lat="44.2694338" lon="11.7004349"><ele>80.0</ele><time>2026-05-01T13:29:25.44Z</time></trkpt><trkpt lat="44.2694995" lon="11.7005611"><ele>79.6</ele><time>2026-05-01T13:29:27.44Z</time></trkpt><trkpt lat="44.2695695" lon="11.7006893"><ele>79.2</ele><time>2026-05-01T13:29:29.44Z</time></trkpt><trkpt lat="44.2696352" lon="11.7008146"><ele>78.8</ele><time>2026-05-01T13:29:31.44Z</time></trkpt><trkpt lat="44.2696998" lon="11.7009421"><ele>78.4</ele><time>2026-05-01T13:29:33.44Z</time></trkpt><trkpt lat="44.2697587" lon="11.7010684"><ele>78.0</ele><time>2026-05-01T13:29:35.44Z</time></trkpt><trkpt lat="44.2698104" lon="11.7011994"><ele>78.0</ele><time>2026-05-01T13:29:37.441Z</time></trkpt><trkpt lat="44.2698544" lon="11.7013407"><ele>78.0</ele><time>2026-05-01T13:29:39.44Z</time></trkpt><trkpt lat="44.2698775" lon="11.7014865"><ele>78.0</ele><time>2026-05-01T13:29:41.44Z</time></trkpt><trkpt lat="44.2698881" lon="11.7016382"><ele>78.0</ele><time>2026-05-01T13:29:43.44Z</time></trkpt><trkpt lat="44.2698831" lon="11.7017963"><ele>78.0</ele><time>2026-05-01T13:29:45.439Z</time></trkpt><trkpt lat="44.2698631" lon="11.7019516"><ele>77.8</ele><time>2026-05-01T13:29:47.442Z</time></trkpt><trkpt lat="44.2698317" lon="11.7021036"><ele>77.6</ele><time>2026-05-01T13:29:49.441Z</time></trkpt><trkpt lat="44.2697848" lon="11.7022473"><ele>77.4</ele><time>2026-05-01T13:29:51.441Z</time></trkpt><trkpt lat="44.269726" lon="11.7023826"><ele>77.2</ele><time>2026-05-01T13:29:53.441Z</time></trkpt><trkpt lat="44.2696622" lon="11.7025073"><ele>77.0</ele><time>2026-05-01T13:29:55.441Z</time></trkpt><trkpt lat="44.269594" lon="11.702632"><ele>76.75</ele><time>2026-05-01T13:29:57.44Z</time></trkpt><trkpt lat="44.2695177" lon="11.7027551"><ele>76.5</ele><time>2026-05-01T13:29:59.44Z</time></trkpt><trkpt lat="44.2694402" lon="11.7028704"><ele>76.25</ele><time>2026-05-01T13:30:01.44Z</time></trkpt><trkpt lat="44.2693576" lon="11.7029888"><ele>76.0</ele><time>2026-05-01T13:30:03.441Z</time></trkpt><trkpt lat="44.2692724" lon="11.703108"><ele>76.0</ele><time>2026-05-01T13:30:05.441Z</time></trkpt><trkpt lat="44.2691885" lon="11.7032247"><ele>76.0</ele><time>2026-05-01T13:30:07.44Z</time></trkpt><trkpt lat="44.269105" lon="11.7033413"><ele>76.0</ele><time>2026-05-01T13:30:09.441Z</time></trkpt><trkpt lat="44.2690173" lon="11.703449"><ele>76.0</ele><time>2026-05-01T13:30:11.44Z</time></trkpt><trkpt lat="44.2689325" lon="11.7035556"><ele>75.75</ele><time>2026-05-01T13:30:13.441Z</time></trkpt><trkpt lat="44.2688437" lon="11.7036596"><ele>75.5</ele><time>2026-05-01T13:30:15.442Z</time></trkpt><trkpt lat="44.2687529" lon="11.7037578"><ele>75.25</ele><time>2026-05-01T13:30:17.443Z</time></trkpt><trkpt lat="44.2686513" lon="11.7038408"><ele>75.0</ele><time>2026-05-01T13:30:19.443Z</time></trkpt><trkpt lat="44.2685397" lon="11.703918"><ele>75.0</ele><time>2026-05-01T13:30:21.443Z</time></trkpt><trkpt lat="44.2684247" lon="11.7039801"><ele>75.0</ele><time>2026-05-01T13:30:23.443Z</time></trkpt><trkpt lat="44.2683105" lon="11.7040386"><ele>75.0</ele><time>2026-05-01T13:30:25.44Z</time></trkpt><trkpt lat="44.2681939" lon="11.7040791"><ele>75.0</ele><time>2026-05-01T13:30:27.442Z</time></trkpt><trkpt lat="44.2680798" lon="11.7041148"><ele>75.8</ele><time>2026-05-01T13:30:29.441Z</time></trkpt><trkpt lat="44.2679713" lon="11.7041481"><ele>76.6</ele><time>2026-05-01T13:30:31.442Z</time></trkpt><trkpt lat="44.2678678" lon="11.70417"><ele>77.4</ele><time>2026-05-01T13:30:33.443Z</time></trkpt><trkpt lat="44.2677651" lon="11.7042041"><ele>78.2</ele><time>2026-05-01T13:30:35.441Z</time></trkpt><trkpt lat="44.2676676" lon="11.7042313"><ele>79.0</ele><time>2026-05-01T13:30:37.443Z</time></trkpt><trkpt lat="44.2675732" lon="11.7042613"><ele>79.0</ele><time>2026-05-01T13:30:39.441Z</time></trkpt><trkpt lat="44.2674819" lon="11.7042947"><ele>79.0</ele><time>2026-05-01T13:30:41.441Z</time></trkpt><trkpt lat="44.2673968" lon="11.7043344"><ele>79.0</ele><time>2026-05-01T13:30:43.443Z</time></trkpt><trkpt lat="44.2673259" lon="11.7043871"><ele>79.0</ele><time>2026-05-01T13:30:45.442Z</time></trkpt><trkpt lat="44.2672648" lon="11.7044497"><ele>79.0</ele><time>2026-05-01T13:30:47.443Z</time></trkpt><trkpt lat="44.2672123" lon="11.704507"><ele>79.0</ele><time>2026-05-01T13:30:49.443Z</time></trkpt><trkpt lat="44.2671662" lon="11.7045766"><ele>82.0</ele><time>2026-05-01T13:30:51.442Z</time></trkpt><trkpt lat="44.2671239" lon="11.7046557"><ele>85.0</ele><time>2026-05-01T13:30:53.443Z</time></trkpt><trkpt lat="44.2670896" lon="11.7047526"><ele>88.0</ele><time>2026-05-01T13:30:55.442Z</time></trkpt><trkpt lat="44.2670766" lon="11.704856"><ele>91.0</ele><time>2026-05-01T13:30:57.441Z</time></trkpt><trkpt lat="44.2670678" lon="11.7049611"><ele>94.00000000000001</ele><time>2026-05-01T13:30:59.442Z</time></trkpt><trkpt lat="44.2670643" lon="11.7050702"><ele>97.0</ele><time>2026-05-01T13:31:01.443Z</time></trkpt><trkpt lat="44.2670702" lon="11.7051842"><ele>95.66666666666667</ele><time>2026-05-01T13:31:03.441Z</time></trkpt><trkpt lat="44.2670844" lon="11.7053024"><ele>94.33333333333334</ele><time>2026-05-01T13:31:05.442Z</time></trkpt><trkpt lat="44.2671027" lon="11.7054182"><ele>93.0</ele><time>2026-05-01T13:31:07.442Z</time></trkpt><trkpt lat="44.2671229" lon="11.7055396"><ele>91.66666666666667</ele><time>2026-05-01T13:31:09.441Z</time></trkpt><trkpt lat="44.267148" lon="11.7056601"><ele>90.33333333333334</ele><time>2026-05-01T13:31:11.442Z</time></trkpt><trkpt lat="44.2671763" lon="11.7057815"><ele>89.0</ele><time>2026-05-01T13:31:13.443Z</time></trkpt><trkpt lat="44.2672047" lon="11.7059112"><ele>89.0</ele><time>2026-05-01T13:31:15.442Z</time></trkpt><trkpt lat="44.2672347" lon="11.7060357"><ele>89.0</ele><time>2026-05-01T13:31:17.443Z</time></trkpt><trkpt lat="44.2672694" lon="11.7061583"><ele>89.0</ele><time>2026-05-01T13:31:19.442Z</time></trkpt><trkpt lat="44.2673082" lon="11.7062836"><ele>89.0</ele><time>2026-05-01T13:31:21.443Z</time></trkpt><trkpt lat="44.2673534" lon="11.7064136"><ele>89.0</ele><time>2026-05-01T13:31:23.443Z</time></trkpt><trkpt lat="44.2674171" lon="11.7065514"><ele>87.66666666666667</ele><time>2026-05-01T13:31:25.439Z</time></trkpt><trkpt lat="44.2674568" lon="11.706622"><ele>86.33333333333334</ele><time>2026-05-01T13:31:26.441Z</time></trkpt><trkpt lat="44.2675002" lon="11.7066936"><ele>85.0</ele><time>2026-05-01T13:31:27.441Z</time></trkpt><trkpt lat="44.2675429" lon="11.7067613"><ele>83.66666666666667</ele><time>2026-05-01T13:31:28.441Z</time></trkpt><trkpt lat="44.2675868" lon="11.7068261"><ele>82.33333333333333</ele><time>2026-05-01T13:31:29.44Z</time></trkpt><trkpt lat="44.2676316" lon="11.7068891"><ele>81.0</ele><time>2026-05-01T13:31:30.438Z</time></trkpt><trkpt lat="44.2677199" lon="11.7070167"><ele>81.0</ele><time>2026-05-01T13:31:32.44Z</time></trkpt><trkpt lat="44.2677999" lon="11.707148"><ele>81.0</ele><time>2026-05-01T13:31:34.44Z</time></trkpt><trkpt lat="44.2678805" lon="11.7072751"><ele>81.0</ele><time>2026-05-01T13:31:36.439Z</time></trkpt><trkpt lat="44.2679657" lon="11.7073926"><ele>81.0</ele><time>2026-05-01T13:31:38.44Z</time></trkpt><trkpt lat="44.2680532" lon="11.7075096"><ele>80.39999999999999</ele><time>2026-05-01T13:31:40.44Z</time></trkpt><trkpt lat="44.2681382" lon="11.7076359"><ele>79.8</ele><time>2026-05-01T13:31:42.44Z</time></trkpt><trkpt lat="44.2682214" lon="11.7077597"><ele>79.19999999999999</ele><time>2026-05-01T13:31:44.44Z</time></trkpt><trkpt lat="44.2682645" lon="11.7078241"><ele>78.6</ele><time>2026-05-01T13:31:45.439Z</time></trkpt><trkpt lat="44.2683066" lon="11.7078895"><ele>78.0</ele><time>2026-05-01T13:31:46.443Z</time></trkpt><trkpt lat="44.2683926" lon="11.7080069"><ele>79.75</ele><time>2026-05-01T13:31:48.442Z</time></trkpt><trkpt lat="44.2684869" lon="11.7081185"><ele>81.5</ele><time>2026-05-01T13:31:50.44Z</time></trkpt><trkpt lat="44.2685691" lon="11.7082406"><ele>83.25</ele><time>2026-05-01T13:31:52.443Z</time></trkpt><trkpt lat="44.2686385" lon="11.7083644"><ele>85.0</ele><time>2026-05-01T13:31:54.442Z</time></trkpt><trkpt lat="44.2687113" lon="11.7084801"><ele>86.0</ele><time>2026-05-01T13:31:56.44Z</time></trkpt><trkpt lat="44.2687766" lon="11.7085806"><ele>87.0</ele><time>2026-05-01T13:31:58.44Z</time></trkpt><trkpt lat="44.2688172" lon="11.7086689"><ele>88.0</ele><time>2026-05-01T13:32:00.44Z</time></trkpt><trkpt lat="44.2688576" lon="11.7087464"><ele>89.0</ele><time>2026-05-01T13:32:03.44Z</time></trkpt><trkpt lat="44.268943" lon="11.7088091"><ele>90.0</ele><time>2026-05-01T13:32:06.441Z</time></trkpt><trkpt lat="44.2690211" lon="11.7088414"><ele>91.0</ele><time>2026-05-01T13:32:08.44Z</time></trkpt><trkpt lat="44.2691071" lon="11.7088812"><ele>91.0</ele><time>2026-05-01T13:32:10.44Z</time></trkpt><trkpt lat="44.269203" lon="11.7089046"><ele>91.0</ele><time>2026-05-01T13:32:12.439Z</time></trkpt><trkpt lat="44.2692996" lon="11.7089297"><ele>91.0</ele><time>2026-05-01T13:32:14.438Z</time></trkpt><trkpt lat="44.2694085" lon="11.7089678"><ele>91.0</ele><time>2026-05-01T13:32:16.442Z</time></trkpt><trkpt lat="44.2695181" lon="11.7090088"><ele>91.0</ele><time>2026-05-01T13:32:18.441Z</time></trkpt><trkpt lat="44.2696226" lon="11.7090406"><ele>91.0</ele><time>2026-05-01T13:32:20.442Z</time></trkpt><trkpt lat="44.2697214" lon="11.7090436"><ele>91.0</ele><time>2026-05-01T13:32:22.442Z</time></trkpt><trkpt lat="44.2698226" lon="11.7090411"><ele>91.0</ele><time>2026-05-01T13:32:24.44Z</time></trkpt><trkpt lat="44.2699307" lon="11.709025"><ele>91.0</ele><time>2026-05-01T13:32:26.439Z</time></trkpt><trkpt lat="44.2700271" lon="11.7090069"><ele>91.0</ele><time>2026-05-01T13:32:28.439Z</time></trkpt><trkpt lat="44.2701179" lon="11.7089788"><ele>89.0</ele><time>2026-05-01T13:32:30.441Z</time></trkpt><trkpt lat="44.2702052" lon="11.7089542"><ele>87.0</ele><time>2026-05-01T13:32:32.439Z</time></trkpt><trkpt lat="44.270279" lon="11.7089535"><ele>85.0</ele><time>2026-05-01T13:32:34.44Z</time></trkpt><trkpt lat="44.270327" lon="11.709034"><ele>83.0</ele><time>2026-05-01T13:32:37.441Z</time></trkpt><trkpt lat="44.2703184" lon="11.7091286"><ele>81.0</ele><time>2026-05-01T13:32:41.44Z</time></trkpt><trkpt lat="44.2703093" lon="11.7092215"><ele>79.0</ele><time>2026-05-01T13:32:45.441Z</time></trkpt><trkpt lat="44.2702947" lon="11.709316"><ele>77.0</ele><time>2026-05-01T13:32:51.443Z</time></trkpt><trkpt lat="44.2702721" lon="11.7093989"><ele>77.0</ele><time>2026-05-01T13:32:56.439Z</time></trkpt><trkpt lat="44.2702869" lon="11.7093038"><ele>77.0</ele><time>2026-05-01T13:33:00.44Z</time></trkpt><trkpt lat="44.2703037" lon="11.7092012"><ele>77.0</ele><time>2026-05-01T13:33:02.439Z</time></trkpt><trkpt lat="44.270322" lon="11.7091124"><ele>77.0</ele><time>2026-05-01T13:33:04.438Z</time></trkpt><trkpt lat="44.2703869" lon="11.7091553"><ele>77.0</ele><time>2026-05-01T13:33:07.44Z</time></trkpt><trkpt lat="44.2704272" lon="11.7092423"><ele>77.0</ele><time>2026-05-01T13:33:09.439Z</time></trkpt><trkpt lat="44.2704847" lon="11.7093304"><ele>77.0</ele><time>2026-05-01T13:33:11.439Z</time></trkpt><trkpt lat="44.2705503" lon="11.7094287"><ele>76.4</ele><time>2026-05-01T13:33:13.439Z</time></trkpt><trkpt lat="44.2706169" lon="11.7095371"><ele>75.80000000000001</ele><time>2026-05-01T13:33:15.439Z</time></trkpt><trkpt lat="44.2706601" lon="11.7096723"><ele>75.2</ele><time>2026-05-01T13:33:17.441Z</time></trkpt><trkpt lat="44.2706544" lon="11.7098237"><ele>74.60000000000001</ele><time>2026-05-01T13:33:19.441Z</time></trkpt><trkpt lat="44.270624" lon="11.7099678"><ele>74.0</ele><time>2026-05-01T13:33:21.44Z</time></trkpt><trkpt lat="44.2705763" lon="11.7100952"><ele>74.2</ele><time>2026-05-01T13:33:23.442Z</time></trkpt><trkpt lat="44.2705208" lon="11.7102049"><ele>74.4</ele><time>2026-05-01T13:33:25.438Z</time></trkpt><trkpt lat="44.2704682" lon="11.7103177"><ele>74.6</ele><time>2026-05-01T13:33:27.438Z</time></trkpt><trkpt lat="44.2704253" lon="11.7104672"><ele>74.8</ele><time>2026-05-01T13:33:29.44Z</time></trkpt><trkpt lat="44.2704317" lon="11.7106256"><ele>75.0</ele><time>2026-05-01T13:33:31.44Z</time></trkpt><trkpt lat="44.2704836" lon="11.7107575"><ele>75.0</ele><time>2026-05-01T13:33:33.438Z</time></trkpt><trkpt lat="44.2705128" lon="11.7108872"><ele>75.0</ele><time>2026-05-01T13:33:35.44Z</time></trkpt><trkpt lat="44.2704812" lon="11.7109965"><ele>75.0</ele><time>2026-05-01T13:33:37.44Z</time></trkpt><trkpt lat="44.2704215" lon="11.7111016"><ele>75.0</ele><time>2026-05-01T13:33:39.44Z</time></trkpt><trkpt lat="44.2703574" lon="11.7112061"><ele>75.0</ele><time>2026-05-01T13:33:41.439Z</time></trkpt><trkpt lat="44.2702903" lon="11.7113111"><ele>74.2</ele><time>2026-05-01T13:33:43.439Z</time></trkpt><trkpt lat="44.2702207" lon="11.7114155"><ele>73.4</ele><time>2026-05-01T13:33:45.438Z</time></trkpt><trkpt lat="44.2701442" lon="11.7114934"><ele>72.6</ele><time>2026-05-01T13:33:47.441Z</time></trkpt><trkpt lat="44.2700591" lon="11.7115556"><ele>71.8</ele><time>2026-05-01T13:33:49.439Z</time></trkpt><trkpt lat="44.2699817" lon="11.7116337"><ele>71.0</ele><time>2026-05-01T13:33:51.441Z</time></trkpt><trkpt lat="44.2699217" lon="11.7117294"><ele>71.0</ele><time>2026-05-01T13:33:53.44Z</time></trkpt><trkpt lat="44.2698752" lon="11.7118351"><ele>71.0</ele><time>2026-05-01T13:33:55.44Z</time></trkpt><trkpt lat="44.2698269" lon="11.7119511"><ele>71.0</ele><time>2026-05-01T13:33:57.441Z</time></trkpt><trkpt lat="44.2697715" lon="11.7120639"><ele>71.0</ele><time>2026-05-01T13:33:59.44Z</time></trkpt><trkpt lat="44.2697169" lon="11.7121778"><ele>71.0</ele><time>2026-05-01T13:34:01.439Z</time></trkpt><trkpt lat="44.2696651" lon="11.712288"><ele>71.8</ele><time>2026-05-01T13:34:03.44Z</time></trkpt><trkpt lat="44.2696109" lon="11.7124033"><ele>72.6</ele><time>2026-05-01T13:34:05.44Z</time></trkpt><trkpt lat="44.2695566" lon="11.7125074"><ele>73.4</ele><time>2026-05-01T13:34:07.439Z</time></trkpt><trkpt lat="44.2695088" lon="11.712621"><ele>74.2</ele><time>2026-05-01T13:34:09.44Z</time></trkpt><trkpt lat="44.2694629" lon="11.7127389"><ele>75.0</ele><time>2026-05-01T13:34:11.44Z</time></trkpt><trkpt lat="44.2694168" lon="11.71286"><ele>75.0</ele><time>2026-05-01T13:34:13.441Z</time></trkpt><trkpt lat="44.2693582" lon="11.7129709"><ele>75.0</ele><time>2026-05-01T13:34:15.441Z</time></trkpt><trkpt lat="44.2693056" lon="11.7130731"><ele>75.0</ele><time>2026-05-01T13:34:17.442Z</time></trkpt><trkpt lat="44.2692505" lon="11.713171"><ele>75.0</ele><time>2026-05-01T13:34:19.439Z</time></trkpt><trkpt lat="44.2692241" lon="11.7132762"><ele>75.0</ele><time>2026-05-01T13:34:21.439Z</time></trkpt><trkpt lat="44.2692381" lon="11.7133996"><ele>75.0</ele><time>2026-05-01T13:34:23.44Z</time></trkpt><trkpt lat="44.2692536" lon="11.7135239"><ele>74.6</ele><time>2026-05-01T13:34:25.439Z</time></trkpt><trkpt lat="44.2692472" lon="11.7136642"><ele>74.2</ele><time>2026-05-01T13:34:27.438Z</time></trkpt><trkpt lat="44.2692428" lon="11.7138127"><ele>73.8</ele><time>2026-05-01T13:34:29.439Z</time></trkpt><trkpt lat="44.2692445" lon="11.7139629"><ele>73.4</ele><time>2026-05-01T13:34:31.439Z</time></trkpt><trkpt lat="44.2692535" lon="11.7141112"><ele>73.0</ele><time>2026-05-01T13:34:33.44Z</time></trkpt><trkpt lat="44.2692745" lon="11.7142497"><ele>73.0</ele><time>2026-05-01T13:34:35.438Z</time></trkpt><trkpt lat="44.269322" lon="11.7143721"><ele>73.0</ele><time>2026-05-01T13:34:37.439Z</time></trkpt><trkpt lat="44.2693844" lon="11.7144729"><ele>73.0</ele><time>2026-05-01T13:34:39.439Z</time></trkpt><trkpt lat="44.2694513" lon="11.7145619"><ele>73.0</ele><time>2026-05-01T13:34:41.439Z</time></trkpt><trkpt lat="44.2695159" lon="11.7146586"><ele>73.0</ele><time>2026-05-01T13:34:43.44Z</time></trkpt><trkpt lat="44.2695835" lon="11.7147391"><ele>72.83333333333333</ele><time>2026-05-01T13:34:45.44Z</time></trkpt><trkpt lat="44.2696433" lon="11.7148043"><ele>72.66666666666666</ele><time>2026-05-01T13:34:47.441Z</time></trkpt><trkpt lat="44.2697057" lon="11.7148589"><ele>72.5</ele><time>2026-05-01T13:34:49.439Z</time></trkpt><trkpt lat="44.269769" lon="11.7148907"><ele>72.33333333333333</ele><time>2026-05-01T13:34:51.438Z</time></trkpt><trkpt lat="44.2698568" lon="11.7149121"><ele>72.16666666666667</ele><time>2026-05-01T13:34:54.44Z</time></trkpt><trkpt lat="44.2699268" lon="11.714897"><ele>72.0</ele><time>2026-05-01T13:34:57.44Z</time></trkpt><trkpt lat="44.2700088" lon="11.7148934"><ele>72.0</ele><time>2026-05-01T13:35:00.44Z</time></trkpt><trkpt lat="44.2700872" lon="11.7148986"><ele>72.0</ele><time>2026-05-01T13:35:03.44Z</time></trkpt><trkpt lat="44.2701676" lon="11.714912"><ele>72.0</ele><time>2026-05-01T13:35:06.439Z</time></trkpt><trkpt lat="44.270255" lon="11.7149038"><ele>72.0</ele><time>2026-05-01T13:35:09.44Z</time></trkpt><trkpt lat="44.2703486" lon="11.714888"><ele>72.0</ele><time>2026-05-01T13:35:12.44Z</time></trkpt><trkpt lat="44.2704356" lon="11.714873"><ele>72.0</ele><time>2026-05-01T13:35:15.44Z</time></trkpt><trkpt lat="44.270503" lon="11.7148644"><ele>72.0</ele><time>2026-05-01T13:35:17.442Z</time></trkpt><trkpt lat="44.2705933" lon="11.7148617"><ele>72.0</ele><time>2026-05-01T13:35:20.439Z</time></trkpt><trkpt lat="44.2706862" lon="11.7148464"><ele>72.0</ele><time>2026-05-01T13:35:23.441Z</time></trkpt><trkpt lat="44.2707802" lon="11.7148326"><ele>72.0</ele><time>2026-05-01T13:35:26.44Z</time></trkpt><trkpt lat="44.270851" lon="11.714795"><ele>72.0</ele><time>2026-05-01T13:35:29.439Z</time></trkpt><trkpt lat="44.2709208" lon="11.7148019"><ele>72.0</ele><time>2026-05-01T13:35:33.442Z</time></trkpt><trkpt lat="44.2709831" lon="11.7148351"><ele>72.00000000000001</ele><time>2026-05-01T13:35:36.44Z</time></trkpt><trkpt lat="44.270974" lon="11.714945"><ele>72.0</ele><time>2026-05-01T13:35:40.439Z</time></trkpt><trkpt lat="44.2709244" lon="11.7150094"><ele>72.0</ele><time>2026-05-01T13:35:44.44Z</time></trkpt><trkpt lat="44.2708562" lon="11.7150701"><ele>72.0</ele><time>2026-05-01T13:35:47.443Z</time></trkpt><trkpt lat="44.270842" lon="11.7151565"><ele>72.0</ele><time>2026-05-01T13:35:50.44Z</time></trkpt><trkpt lat="44.2708399" lon="11.7152646"><ele>72.00000000000001</ele><time>2026-05-01T13:35:53.44Z</time></trkpt><trkpt lat="44.2708376" lon="11.7153591"><ele>72.0</ele><time>2026-05-01T13:35:55.439Z</time></trkpt><trkpt lat="44.2708287" lon="11.715452"><ele>72.0</ele><time>2026-05-01T13:35:57.44Z</time></trkpt><trkpt lat="44.2708205" lon="11.7155533"><ele>72.0</ele><time>2026-05-01T13:35:59.439Z</time></trkpt><trkpt lat="44.2708136" lon="11.7156536"><ele>72.0</ele><time>2026-05-01T13:36:01.44Z</time></trkpt><trkpt lat="44.2708003" lon="11.71576"><ele>72.0</ele><time>2026-05-01T13:36:03.439Z</time></trkpt><trkpt lat="44.2707916" lon="11.7158726"><ele>72.0</ele><time>2026-05-01T13:36:05.439Z</time></trkpt><trkpt lat="44.2707832" lon="11.7159863"><ele>72.0</ele><time>2026-05-01T13:36:07.44Z</time></trkpt><trkpt lat="44.2707767" lon="11.7161013"><ele>72.0</ele><time>2026-05-01T13:36:09.44Z</time></trkpt><trkpt lat="44.2707686" lon="11.716221"><ele>72.0</ele><time>2026-05-01T13:36:11.439Z</time></trkpt><trkpt lat="44.2707599" lon="11.7163463"><ele>72.0</ele><time>2026-05-01T13:36:13.44Z</time></trkpt><trkpt lat="44.2707521" lon="11.7164731"><ele>72.0</ele><time>2026-05-01T13:36:15.44Z</time></trkpt><trkpt lat="44.2707432" lon="11.7166032"><ele>72.0</ele><time>2026-05-01T13:36:17.44Z</time></trkpt><trkpt lat="44.2707399" lon="11.7167286"><ele>72.0</ele><time>2026-05-01T13:36:19.439Z</time></trkpt><trkpt lat="44.2707318" lon="11.716855"><ele>72.0</ele><time>2026-05-01T13:36:21.44Z</time></trkpt><trkpt lat="44.270725" lon="11.7169817"><ele>72.0</ele><time>2026-05-01T13:36:23.44Z</time></trkpt><trkpt lat="44.2707083" lon="11.7171133"><ele>72.0</ele><time>2026-05-01T13:36:25.44Z</time></trkpt><trkpt lat="44.2707017" lon="11.7172483"><ele>72.0</ele><time>2026-05-01T13:36:27.44Z</time></trkpt><trkpt lat="44.2706917" lon="11.71738"><ele>72.33333333333333</ele><time>2026-05-01T13:36:29.442Z</time></trkpt><trkpt lat="44.270695" lon="11.7174917"><ele>72.66666666666667</ele><time>2026-05-01T13:36:31.439Z</time></trkpt><trkpt lat="44.270765" lon="11.71755"><ele>73.0</ele><time>2026-05-01T13:36:33.439Z</time></trkpt><trkpt lat="44.270845" lon="11.71758"><ele>73.33333333333334</ele><time>2026-05-01T13:36:35.439Z</time></trkpt><trkpt lat="44.2709233" lon="11.7176183"><ele>73.66666666666667</ele><time>2026-05-01T13:36:38.44Z</time></trkpt><trkpt lat="44.2709933" lon="11.7176383"><ele>74.0</ele><time>2026-05-01T13:36:49.439Z</time></trkpt><trkpt lat="44.271045" lon="11.7177383"><ele>74.4</ele><time>2026-05-01T13:36:52.44Z</time></trkpt><trkpt lat="44.271075" lon="11.7178367"><ele>74.80000000000001</ele><time>2026-05-01T13:36:54.44Z</time></trkpt><trkpt lat="44.2710983" lon="11.717945"><ele>75.19999999999999</ele><time>2026-05-01T13:36:56.44Z</time></trkpt><trkpt lat="44.2711367" lon="11.718065"><ele>75.6</ele><time>2026-05-01T13:36:58.44Z</time></trkpt><trkpt lat="44.27118" lon="11.7182033"><ele>76.0</ele><time>2026-05-01T13:37:00.441Z</time></trkpt><trkpt lat="44.2712217" lon="11.718345"><ele>76.0</ele><time>2026-05-01T13:37:02.439Z</time></trkpt><trkpt lat="44.271265" lon="11.718495"><ele>76.0</ele><time>2026-05-01T13:37:04.439Z</time></trkpt><trkpt lat="44.2713133" lon="11.7186333"><ele>76.0</ele><time>2026-05-01T13:37:06.44Z</time></trkpt><trkpt lat="44.271355" lon="11.718765"><ele>76.0</ele><time>2026-05-01T13:37:08.439Z</time></trkpt><trkpt lat="44.2713933" lon="11.718905"><ele>76.0</ele><time>2026-05-01T13:37:10.439Z</time></trkpt><trkpt lat="44.2714283" lon="11.7190433"><ele>75.8</ele><time>2026-05-01T13:37:12.44Z</time></trkpt><trkpt lat="44.2714733" lon="11.71919"><ele>75.6</ele><time>2026-05-01T13:37:14.44Z</time></trkpt><trkpt lat="44.2715117" lon="11.7193333"><ele>75.4</ele><time>2026-05-01T13:37:16.442Z</time></trkpt><trkpt lat="44.2715617" lon="11.719475"><ele>75.2</ele><time>2026-05-01T13:37:18.439Z</time></trkpt><trkpt lat="44.2715983" lon="11.7196183"><ele>75.0</ele><time>2026-05-01T13:37:20.441Z</time></trkpt><trkpt lat="44.2716417" lon="11.71976"><ele>75.0</ele><time>2026-05-01T13:37:22.441Z</time></trkpt><trkpt lat="44.2716783" lon="11.7199083"><ele>75.0</ele><time>2026-05-01T13:37:24.441Z</time></trkpt><trkpt lat="44.2717183" lon="11.72005"><ele>75.0</ele><time>2026-05-01T13:37:26.44Z</time></trkpt><trkpt lat="44.271765" lon="11.7201933"><ele>75.0</ele><time>2026-05-01T13:37:28.439Z</time></trkpt><trkpt lat="44.2718083" lon="11.7203417"><ele>75.0</ele><time>2026-05-01T13:37:30.441Z</time></trkpt><trkpt lat="44.2718517" lon="11.7204883"><ele>74.75</ele><time>2026-05-01T13:37:32.44Z</time></trkpt><trkpt lat="44.2719083" lon="11.720625"><ele>74.5</ele><time>2026-05-01T13:37:34.44Z</time></trkpt><trkpt lat="44.2719783" lon="11.7207517"><ele>74.25</ele><time>2026-05-01T13:37:36.439Z</time></trkpt><trkpt lat="44.2720583" lon="11.7208667"><ele>74.0</ele><time>2026-05-01T13:37:38.44Z</time></trkpt><trkpt lat="44.2721433" lon="11.7209633"><ele>73.60000000000001</ele><time>2026-05-01T13:37:40.439Z</time></trkpt><trkpt lat="44.2722033" lon="11.7210867"><ele>73.2</ele><time>2026-05-01T13:37:42.44Z</time></trkpt><trkpt lat="44.27217" lon="11.72124"><ele>72.80000000000001</ele><time>2026-05-01T13:37:44.44Z</time></trkpt><trkpt lat="44.272095" lon="11.7213617"><ele>72.4</ele><time>2026-05-01T13:37:46.445Z</time></trkpt><trkpt lat="44.2720317" lon="11.7214883"><ele>72.0</ele><time>2026-05-01T13:37:48.443Z</time></trkpt><trkpt lat="44.2719533" lon="11.721605"><ele>72.0</ele><time>2026-05-01T13:37:50.442Z</time></trkpt><trkpt lat="44.2718817" lon="11.721725"><ele>72.0</ele><time>2026-05-01T13:37:52.443Z</time></trkpt><trkpt lat="44.27182" lon="11.7218417"><ele>72.0</ele><time>2026-05-01T13:37:54.443Z</time></trkpt><trkpt lat="44.2717567" lon="11.7219583"><ele>72.0</ele><time>2026-05-01T13:37:56.44Z</time></trkpt><trkpt lat="44.2716833" lon="11.7220633"><ele>72.0</ele><time>2026-05-01T13:37:58.442Z</time></trkpt><trkpt lat="44.2716167" lon="11.72218"><ele>71.6</ele><time>2026-05-01T13:38:00.44Z</time></trkpt><trkpt lat="44.2715517" lon="11.7223"><ele>71.2</ele><time>2026-05-01T13:38:02.439Z</time></trkpt><trkpt lat="44.2714883" lon="11.7224217"><ele>70.8</ele><time>2026-05-01T13:38:04.44Z</time></trkpt><trkpt lat="44.2714283" lon="11.7225417"><ele>70.4</ele><time>2026-05-01T13:38:06.44Z</time></trkpt><trkpt lat="44.27136" lon="11.72266"><ele>70.0</ele><time>2026-05-01T13:38:08.439Z</time></trkpt><trkpt lat="44.271295" lon="11.7227933"><ele>70.0</ele><time>2026-05-01T13:38:10.44Z</time></trkpt><trkpt lat="44.271235" lon="11.7229233"><ele>70.0</ele><time>2026-05-01T13:38:12.439Z</time></trkpt><trkpt lat="44.27118" lon="11.72306"><ele>70.0</ele><time>2026-05-01T13:38:14.441Z</time></trkpt><trkpt lat="44.2711233" lon="11.723195"><ele>70.0</ele><time>2026-05-01T13:38:16.443Z</time></trkpt><trkpt lat="44.2710767" lon="11.7233267"><ele>70.0</ele><time>2026-05-01T13:38:18.442Z</time></trkpt><trkpt lat="44.2710283" lon="11.7234617"><ele>69.5</ele><time>2026-05-01T13:38:20.443Z</time></trkpt><trkpt lat="44.2709767" lon="11.7236033"><ele>69.0</ele><time>2026-05-01T13:38:22.442Z</time></trkpt><trkpt lat="44.2709267" lon="11.7237483"><ele>68.5</ele><time>2026-05-01T13:38:24.443Z</time></trkpt><trkpt lat="44.2708767" lon="11.723895"><ele>68.0</ele><time>2026-05-01T13:38:26.439Z</time></trkpt><trkpt lat="44.2708267" lon="11.7240433"><ele>68.0</ele><time>2026-05-01T13:38:28.44Z</time></trkpt><trkpt lat="44.2707767" lon="11.7241917"><ele>68.0</ele><time>2026-05-01T13:38:30.44Z</time></trkpt><trkpt lat="44.2707217" lon="11.7243417"><ele>68.0</ele><time>2026-05-01T13:38:32.44Z</time></trkpt><trkpt lat="44.2706717" lon="11.724495"><ele>68.0</ele><time>2026-05-01T13:38:34.441Z</time></trkpt><trkpt lat="44.27062" lon="11.7246517"><ele>68.5</ele><time>2026-05-01T13:38:36.441Z</time></trkpt><trkpt lat="44.2705667" lon="11.724805"><ele>69.0</ele><time>2026-05-01T13:38:38.441Z</time></trkpt><trkpt lat="44.2705117" lon="11.7249567"><ele>69.5</ele><time>2026-05-01T13:38:40.443Z</time></trkpt><trkpt lat="44.2704583" lon="11.7251083"><ele>70.0</ele><time>2026-05-01T13:38:42.443Z</time></trkpt><trkpt lat="44.2704067" lon="11.72526"><ele>70.0</ele><time>2026-05-01T13:38:44.44Z</time></trkpt><trkpt lat="44.2703533" lon="11.72541"><ele>70.0</ele><time>2026-05-01T13:38:46.443Z</time></trkpt><trkpt lat="44.2703017" lon="11.72556"><ele>70.0</ele><time>2026-05-01T13:38:48.443Z</time></trkpt><trkpt lat="44.27025" lon="11.7257083"><ele>70.0</ele><time>2026-05-01T13:38:50.443Z</time></trkpt><trkpt lat="44.270195" lon="11.7258583"><ele>70.0</ele><time>2026-05-01T13:38:52.443Z</time></trkpt><trkpt lat="44.2701383" lon="11.7260117"><ele>70.0</ele><time>2026-05-01T13:38:54.442Z</time></trkpt><trkpt lat="44.2701117" lon="11.7260917"><ele>70.0</ele><time>2026-05-01T13:38:55.441Z</time></trkpt><trkpt lat="44.27006" lon="11.7262417"><ele>70.0</ele><time>2026-05-01T13:38:57.442Z</time></trkpt><trkpt lat="44.270005" lon="11.7263917"><ele>70.0</ele><time>2026-05-01T13:38:59.44Z</time></trkpt><trkpt lat="44.26995" lon="11.72654"><ele>69.8</ele><time>2026-05-01T13:39:01.441Z</time></trkpt><trkpt lat="44.269895" lon="11.7266917"><ele>69.6</ele><time>2026-05-01T13:39:03.442Z</time></trkpt><trkpt lat="44.2698433" lon="11.7268517"><ele>69.4</ele><time>2026-05-01T13:39:05.442Z</time></trkpt><trkpt lat="44.2698133" lon="11.7269317"><ele>69.2</ele><time>2026-05-01T13:39:06.44Z</time></trkpt><trkpt lat="44.2697833" lon="11.72701"><ele>69.0</ele><time>2026-05-01T13:39:07.441Z</time></trkpt><trkpt lat="44.2697283" lon="11.727165"><ele>68.85714285714286</ele><time>2026-05-01T13:39:09.441Z</time></trkpt><trkpt lat="44.2697017" lon="11.7272467"><ele>68.71428571428572</ele><time>2026-05-01T13:39:10.441Z</time></trkpt><trkpt lat="44.2696717" lon="11.72733"><ele>68.57142857142857</ele><time>2026-05-01T13:39:11.442Z</time></trkpt><trkpt lat="44.2696417" lon="11.7274133"><ele>68.42857142857143</ele><time>2026-05-01T13:39:12.441Z</time></trkpt><trkpt lat="44.2696133" lon="11.727495"><ele>68.28571428571428</ele><time>2026-05-01T13:39:13.442Z</time></trkpt><trkpt lat="44.269585" lon="11.727575"><ele>68.14285714285714</ele><time>2026-05-01T13:39:14.441Z</time></trkpt><trkpt lat="44.2695567" lon="11.727655"><ele>68.0</ele><time>2026-05-01T13:39:15.44Z</time></trkpt><trkpt lat="44.269505" lon="11.7278133"><ele>67.25</ele><time>2026-05-01T13:39:17.443Z</time></trkpt><trkpt lat="44.2694533" lon="11.7279667"><ele>66.5</ele><time>2026-05-01T13:39:19.44Z</time></trkpt><trkpt lat="44.2694017" lon="11.7281183"><ele>65.75</ele><time>2026-05-01T13:39:21.441Z</time></trkpt><trkpt lat="44.2693517" lon="11.728265"><ele>65.0</ele><time>2026-05-01T13:39:23.441Z</time></trkpt><trkpt lat="44.269305" lon="11.7284067"><ele>65.0</ele><time>2026-05-01T13:39:25.441Z</time></trkpt><trkpt lat="44.2692533" lon="11.728535"><ele>65.0</ele><time>2026-05-01T13:39:27.44Z</time></trkpt><trkpt lat="44.2692067" lon="11.7286517"><ele>65.0</ele><time>2026-05-01T13:39:29.439Z</time></trkpt><trkpt lat="44.2691633" lon="11.728765"><ele>65.0</ele><time>2026-05-01T13:39:31.441Z</time></trkpt><trkpt lat="44.2691317" lon="11.7288733"><ele>65.0</ele><time>2026-05-01T13:39:33.441Z</time></trkpt><trkpt lat="44.2691017" lon="11.72897"><ele>65.83333333333334</ele><time>2026-05-01T13:39:35.44Z</time></trkpt><trkpt lat="44.2690717" lon="11.7290667"><ele>66.66666666666667</ele><time>2026-05-01T13:39:37.438Z</time></trkpt><trkpt lat="44.2690433" lon="11.7291517"><ele>67.5</ele><time>2026-05-01T13:39:39.439Z</time></trkpt><trkpt lat="44.2690233" lon="11.7292717"><ele>68.33333333333333</ele><time>2026-05-01T13:39:42.439Z</time></trkpt><trkpt lat="44.2690083" lon="11.7293867"><ele>69.16666666666666</ele><time>2026-05-01T13:39:45.439Z</time></trkpt><trkpt lat="44.268995" lon="11.7294967"><ele>70.0</ele><time>2026-05-01T13:39:48.44Z</time></trkpt><trkpt lat="44.2689933" lon="11.7296067"><ele>70.71428571428571</ele><time>2026-05-01T13:39:51.44Z</time></trkpt><trkpt lat="44.26899" lon="11.7297117"><ele>71.42857142857143</ele><time>2026-05-01T13:39:54.441Z</time></trkpt><trkpt lat="44.26899" lon="11.7298117"><ele>72.14285714285714</ele><time>2026-05-01T13:39:57.44Z</time></trkpt><trkpt lat="44.2689883" lon="11.7299083"><ele>72.85714285714286</ele><time>2026-05-01T13:40:00.441Z</time></trkpt><trkpt lat="44.2689833" lon="11.730025"><ele>73.57142857142857</ele><time>2026-05-01T13:40:04.441Z</time></trkpt><trkpt lat="44.2689867" lon="11.7301167"><ele>74.28571428571428</ele><time>2026-05-01T13:40:07.441Z</time></trkpt><trkpt lat="44.2689733" lon="11.730205"><ele>75.0</ele><time>2026-05-01T13:40:10.44Z</time></trkpt><trkpt lat="44.26894" lon="11.7302833"><ele>75.85714285714285</ele><time>2026-05-01T13:40:13.442Z</time></trkpt><trkpt lat="44.2688883" lon="11.7303433"><ele>76.71428571428571</ele><time>2026-05-01T13:40:16.44Z</time></trkpt><trkpt lat="44.268825" lon="11.730365"><ele>77.57142857142857</ele><time>2026-05-01T13:40:19.439Z</time></trkpt><trkpt lat="44.2687617" lon="11.7303533"><ele>78.42857142857142</ele><time>2026-05-01T13:40:22.441Z</time></trkpt><trkpt lat="44.2687083" lon="11.7303067"><ele>79.28571428571428</ele><time>2026-05-01T13:40:25.442Z</time></trkpt><trkpt lat="44.2686683" lon="11.7302083"><ele>80.14285714285714</ele><time>2026-05-01T13:40:29.44Z</time></trkpt><trkpt lat="44.2686433" lon="11.7301267"><ele>81.0</ele><time>2026-05-01T13:40:32.442Z</time></trkpt><trkpt lat="44.2686183" lon="11.730045"><ele>81.5</ele><time>2026-05-01T13:40:35.441Z</time></trkpt><trkpt lat="44.2685883" lon="11.7299617"><ele>82.0</ele><time>2026-05-01T13:40:38.441Z</time></trkpt><trkpt lat="44.2685617" lon="11.7298533"><ele>82.5</ele><time>2026-05-01T13:40:42.442Z</time></trkpt><trkpt lat="44.2685283" lon="11.72975"><ele>83.0</ele><time>2026-05-01T13:40:46.442Z</time></trkpt><trkpt lat="44.2685133" lon="11.72966"><ele>83.5</ele><time>2026-05-01T13:40:49.441Z</time></trkpt><trkpt lat="44.2684883" lon="11.72956"><ele>84.0</ele><time>2026-05-01T13:40:53.441Z</time></trkpt><trkpt lat="44.26846" lon="11.729455"><ele>83.66666666666667</ele><time>2026-05-01T13:40:57.441Z</time></trkpt><trkpt lat="44.2684317" lon="11.7293517"><ele>83.33333333333333</ele><time>2026-05-01T13:41:01.441Z</time></trkpt><trkpt lat="44.2684083" lon="11.7292467"><ele>83.0</ele><time>2026-05-01T13:41:05.441Z</time></trkpt><trkpt lat="44.2683733" lon="11.7291433"><ele>82.66666666666666</ele><time>2026-05-01T13:41:09.441Z</time></trkpt><trkpt lat="44.26834" lon="11.729045"><ele>82.33333333333333</ele><time>2026-05-01T13:41:13.44Z</time></trkpt><trkpt lat="44.26828" lon="11.7289617"><ele>82.0</ele><time>2026-05-01T13:41:17.443Z</time></trkpt><trkpt lat="44.2682117" lon="11.7288983"><ele>82.0</ele><time>2026-05-01T13:41:21.441Z</time></trkpt><trkpt lat="44.2681467" lon="11.7288683"><ele>82.0</ele><time>2026-05-01T13:41:24.442Z</time></trkpt><trkpt lat="44.2680883" lon="11.7288333"><ele>82.0</ele><time>2026-05-01T13:41:27.44Z</time></trkpt><trkpt lat="44.2680167" lon="11.7287867"><ele>82.0</ele><time>2026-05-01T13:41:31.441Z</time></trkpt><trkpt lat="44.26795" lon="11.7287317"><ele>82.0</ele><time>2026-05-01T13:41:35.44Z</time></trkpt><trkpt lat="44.2678767" lon="11.7286883"><ele>82.0</ele><time>2026-05-01T13:41:39.441Z</time></trkpt><trkpt lat="44.267795" lon="11.7286533"><ele>83.66666666666666</ele><time>2026-05-01T13:41:43.441Z</time></trkpt><trkpt lat="44.267735" lon="11.728625"><ele>85.33333333333333</ele><time>2026-05-01T13:41:46.442Z</time></trkpt><trkpt lat="44.2676533" lon="11.7286117"><ele>87.0</ele><time>2026-05-01T13:41:50.439Z</time></trkpt><trkpt lat="44.26758" lon="11.7285967"><ele>88.66666666666667</ele><time>2026-05-01T13:41:55.438Z</time></trkpt><trkpt lat="44.267505" lon="11.7286133"><ele>90.33333333333334</ele><time>2026-05-01T13:41:59.439Z</time></trkpt><trkpt lat="44.26742" lon="11.728645"><ele>92.0</ele><time>2026-05-01T13:42:03.439Z</time></trkpt><trkpt lat="44.2673517" lon="11.7286633"><ele>92.0</ele><time>2026-05-01T13:42:07.439Z</time></trkpt><trkpt lat="44.267285" lon="11.7286783"><ele>92.0</ele><time>2026-05-01T13:42:10.44Z</time></trkpt><trkpt lat="44.267215" lon="11.7287083"><ele>92.0</ele><time>2026-05-01T13:42:14.44Z</time></trkpt><trkpt lat="44.2671383" lon="11.728735"><ele>92.0</ele><time>2026-05-01T13:42:18.441Z</time></trkpt><trkpt lat="44.2670583" lon="11.72876"><ele>92.0</ele><time>2026-05-01T13:42:22.441Z</time></trkpt><trkpt lat="44.266985" lon="11.728785"><ele>92.0</ele><time>2026-05-01T13:42:26.439Z</time></trkpt><trkpt lat="44.2669217" lon="11.7288117"><ele>92.0</ele><time>2026-05-01T13:42:29.439Z</time></trkpt><trkpt lat="44.2668567" lon="11.728825"><ele>93.16666666666667</ele><time>2026-05-01T13:42:32.439Z</time></trkpt><trkpt lat="44.2667783" lon="11.728815"><ele>94.33333333333334</ele><time>2026-05-01T13:42:36.439Z</time></trkpt><trkpt lat="44.2667033" lon="11.7287883"><ele>95.5</ele><time>2026-05-01T13:42:40.44Z</time></trkpt><trkpt lat="44.2666233" lon="11.7287583"><ele>96.66666666666667</ele><time>2026-05-01T13:42:44.44Z</time></trkpt><trkpt lat="44.26655" lon="11.7287183"><ele>97.83333333333333</ele><time>2026-05-01T13:42:48.443Z</time></trkpt><trkpt lat="44.2664717" lon="11.7286933"><ele>99.0</ele><time>2026-05-01T13:42:52.443Z</time></trkpt><trkpt lat="44.266395" lon="11.7286667"><ele>99.71428571428572</ele><time>2026-05-01T13:42:56.439Z</time></trkpt><trkpt lat="44.2663217" lon="11.7286317"><ele>100.42857142857142</ele><time>2026-05-01T13:43:00.441Z</time></trkpt><trkpt lat="44.2662417" lon="11.7286"><ele>101.14285714285714</ele><time>2026-05-01T13:43:04.441Z</time></trkpt><trkpt lat="44.2661783" lon="11.7285767"><ele>101.85714285714286</ele><time>2026-05-01T13:43:07.441Z</time></trkpt><trkpt lat="44.2661167" lon="11.7285567"><ele>102.57142857142858</ele><time>2026-05-01T13:43:10.439Z</time></trkpt><trkpt lat="44.26605" lon="11.7285583"><ele>103.28571428571428</ele><time>2026-05-01T13:43:13.44Z</time></trkpt><trkpt lat="44.2659867" lon="11.72856"><ele>104.0</ele><time>2026-05-01T13:43:16.443Z</time></trkpt><trkpt lat="44.2659233" lon="11.7285567"><ele>104.0</ele><time>2026-05-01T13:43:19.442Z</time></trkpt><trkpt lat="44.2658617" lon="11.7285767"><ele>104.0</ele><time>2026-05-01T13:43:22.441Z</time></trkpt><trkpt lat="44.2657783" lon="11.7286117"><ele>104.0</ele><time>2026-05-01T13:43:26.44Z</time></trkpt><trkpt lat="44.265715" lon="11.7286617"><ele>104.0</ele><time>2026-05-01T13:43:29.441Z</time></trkpt><trkpt lat="44.2656467" lon="11.7287283"><ele>104.0</ele><time>2026-05-01T13:43:32.441Z</time></trkpt><trkpt lat="44.2655983" lon="11.7287867"><ele>104.0</ele><time>2026-05-01T13:43:34.44Z</time></trkpt><trkpt lat="44.2655483" lon="11.7288483"><ele>104.0</ele><time>2026-05-01T13:43:36.441Z</time></trkpt><trkpt lat="44.265505" lon="11.72892"><ele>103.99999999999999</ele><time>2026-05-01T13:43:38.439Z</time></trkpt><trkpt lat="44.2654667" lon="11.7290033"><ele>104.0</ele><time>2026-05-01T13:43:40.44Z</time></trkpt><trkpt lat="44.2654267" lon="11.7290933"><ele>104.0</ele><time>2026-05-01T13:43:42.439Z</time></trkpt><trkpt lat="44.2653917" lon="11.7291883"><ele>104.0</ele><time>2026-05-01T13:43:44.439Z</time></trkpt><trkpt lat="44.2653583" lon="11.729285"><ele>103.99999999999999</ele><time>2026-05-01T13:43:46.442Z</time></trkpt><trkpt lat="44.2653183" lon="11.7294033"><ele>104.0</ele><time>2026-05-01T13:43:48.442Z</time></trkpt><trkpt lat="44.26528" lon="11.7295233"><ele>103.80000000000001</ele><time>2026-05-01T13:43:50.442Z</time></trkpt><trkpt lat="44.2652383" lon="11.7296617"><ele>103.60000000000001</ele><time>2026-05-01T13:43:52.442Z</time></trkpt><trkpt lat="44.2652067" lon="11.7297967"><ele>103.4</ele><time>2026-05-01T13:43:54.443Z</time></trkpt><trkpt lat="44.2651783" lon="11.7299433"><ele>103.2</ele><time>2026-05-01T13:43:56.44Z</time></trkpt><trkpt lat="44.2651533" lon="11.730095"><ele>103.0</ele><time>2026-05-01T13:43:58.439Z</time></trkpt><trkpt lat="44.265135" lon="11.7302417"><ele>102.80000000000001</ele><time>2026-05-01T13:44:00.441Z</time></trkpt><trkpt lat="44.2651167" lon="11.7303867"><ele>102.6</ele><time>2026-05-01T13:44:02.439Z</time></trkpt><trkpt lat="44.2651" lon="11.7305317"><ele>102.4</ele><time>2026-05-01T13:44:04.439Z</time></trkpt><trkpt lat="44.2650967" lon="11.7306833"><ele>102.19999999999999</ele><time>2026-05-01T13:44:06.44Z</time></trkpt><trkpt lat="44.2651" lon="11.7308317"><ele>102.0</ele><time>2026-05-01T13:44:08.441Z</time></trkpt><trkpt lat="44.26511" lon="11.730985"><ele>102.25</ele><time>2026-05-01T13:44:10.441Z</time></trkpt><trkpt lat="44.2651217" lon="11.7311433"><ele>102.5</ele><time>2026-05-01T13:44:12.442Z</time></trkpt><trkpt lat="44.2651367" lon="11.7313083"><ele>102.75</ele><time>2026-05-01T13:44:14.441Z</time></trkpt><trkpt lat="44.2651567" lon="11.73147"><ele>103.0</ele><time>2026-05-01T13:44:16.444Z</time></trkpt><trkpt lat="44.265175" lon="11.7316317"><ele>103.0</ele><time>2026-05-01T13:44:18.443Z</time></trkpt><trkpt lat="44.265185" lon="11.73172"><ele>103.0</ele><time>2026-05-01T13:44:19.442Z</time></trkpt><trkpt lat="44.2652067" lon="11.731885"><ele>103.0</ele><time>2026-05-01T13:44:21.443Z</time></trkpt><trkpt lat="44.2652267" lon="11.7320383"><ele>103.0</ele><time>2026-05-01T13:44:23.443Z</time></trkpt><trkpt lat="44.2652417" lon="11.732185"><ele>103.0</ele><time>2026-05-01T13:44:25.44Z</time></trkpt><trkpt lat="44.2652583" lon="11.732325"><ele>102.60000000000001</ele><time>2026-05-01T13:44:27.44Z</time></trkpt><trkpt lat="44.265285" lon="11.7324567"><ele>102.2</ele><time>2026-05-01T13:44:29.439Z</time></trkpt><trkpt lat="44.26529" lon="11.7325917"><ele>101.8</ele><time>2026-05-01T13:44:31.44Z</time></trkpt><trkpt lat="44.2652783" lon="11.7327217"><ele>101.4</ele><time>2026-05-01T13:44:33.441Z</time></trkpt><trkpt lat="44.2652633" lon="11.7328433"><ele>101.0</ele><time>2026-05-01T13:44:35.439Z</time></trkpt><trkpt lat="44.265245" lon="11.732965"><ele>100.8</ele><time>2026-05-01T13:44:37.441Z</time></trkpt><trkpt lat="44.265235" lon="11.7330833"><ele>100.6</ele><time>2026-05-01T13:44:39.441Z</time></trkpt><trkpt lat="44.2652167" lon="11.7332017"><ele>100.4</ele><time>2026-05-01T13:44:41.439Z</time></trkpt><trkpt lat="44.265195" lon="11.733335"><ele>100.2</ele><time>2026-05-01T13:44:43.441Z</time></trkpt><trkpt lat="44.2651767" lon="11.73348"><ele>100.0</ele><time>2026-05-01T13:44:45.44Z</time></trkpt><trkpt lat="44.2651567" lon="11.7336233"><ele>100.0</ele><time>2026-05-01T13:44:47.443Z</time></trkpt><trkpt lat="44.265135" lon="11.7337733"><ele>100.0</ele><time>2026-05-01T13:44:49.442Z</time></trkpt><trkpt lat="44.2651133" lon="11.7339183"><ele>100.0</ele><time>2026-05-01T13:44:51.442Z</time></trkpt><trkpt lat="44.2651033" lon="11.73407"><ele>100.0</ele><time>2026-05-01T13:44:53.443Z</time></trkpt><trkpt lat="44.2650867" lon="11.7342267"><ele>100.0</ele><time>2026-05-01T13:44:55.44Z</time></trkpt><trkpt lat="44.265075" lon="11.7343733"><ele>99.75</ele><time>2026-05-01T13:44:57.439Z</time></trkpt><trkpt lat="44.2650533" lon="11.734525"><ele>99.5</ele><time>2026-05-01T13:44:59.441Z</time></trkpt><trkpt lat="44.2650283" lon="11.7346833"><ele>99.25</ele><time>2026-05-01T13:45:01.441Z</time></trkpt><trkpt lat="44.2650067" lon="11.7348433"><ele>99.0</ele><time>2026-05-01T13:45:03.439Z</time></trkpt><trkpt lat="44.2649817" lon="11.735005"><ele>99.0</ele><time>2026-05-01T13:45:05.439Z</time></trkpt><trkpt lat="44.2649583" lon="11.7351667"><ele>99.0</ele><time>2026-05-01T13:45:07.442Z</time></trkpt><trkpt lat="44.2649367" lon="11.735335"><ele>99.0</ele><time>2026-05-01T13:45:09.44Z</time></trkpt><trkpt lat="44.2649017" lon="11.7355"><ele>99.0</ele><time>2026-05-01T13:45:11.439Z</time></trkpt><trkpt lat="44.2648417" lon="11.7356533"><ele>98.4</ele><time>2026-05-01T13:45:13.44Z</time></trkpt><trkpt lat="44.26477" lon="11.7357983"><ele>97.80000000000001</ele><time>2026-05-01T13:45:15.44Z</time></trkpt><trkpt lat="44.2646917" lon="11.735935"><ele>97.19999999999999</ele><time>2026-05-01T13:45:17.442Z</time></trkpt><trkpt lat="44.26462" lon="11.7360733"><ele>96.6</ele><time>2026-05-01T13:45:19.443Z</time></trkpt><trkpt lat="44.2645817" lon="11.736145"><ele>96.0</ele><time>2026-05-01T13:45:20.442Z</time></trkpt><trkpt lat="44.26451" lon="11.73628"><ele>95.5</ele><time>2026-05-01T13:45:22.442Z</time></trkpt><trkpt lat="44.264435" lon="11.7364133"><ele>95.0</ele><time>2026-05-01T13:45:24.442Z</time></trkpt><trkpt lat="44.2643617" lon="11.7365417"><ele>94.5</ele><time>2026-05-01T13:45:26.44Z</time></trkpt><trkpt lat="44.2642917" lon="11.73667"><ele>94.0</ele><time>2026-05-01T13:45:28.439Z</time></trkpt><trkpt lat="44.2642183" lon="11.7367983"><ele>93.5</ele><time>2026-05-01T13:45:30.44Z</time></trkpt><trkpt lat="44.2641483" lon="11.7369183"><ele>93.0</ele><time>2026-05-01T13:45:32.439Z</time></trkpt><trkpt lat="44.264075" lon="11.7370383"><ele>92.5</ele><time>2026-05-01T13:45:34.439Z</time></trkpt><trkpt lat="44.2639983" lon="11.7371617"><ele>92.0</ele><time>2026-05-01T13:45:36.439Z</time></trkpt><trkpt lat="44.2639167" lon="11.7372983"><ele>92.8</ele><time>2026-05-01T13:45:38.439Z</time></trkpt><trkpt lat="44.2638767" lon="11.73737"><ele>93.6</ele><time>2026-05-01T13:45:39.44Z</time></trkpt><trkpt lat="44.2638383" lon="11.73744"><ele>94.39999999999999</ele><time>2026-05-01T13:45:40.439Z</time></trkpt><trkpt lat="44.2637717" lon="11.7375683"><ele>95.19999999999999</ele><time>2026-05-01T13:45:42.44Z</time></trkpt><trkpt lat="44.26371" lon="11.7376917"><ele>96.0</ele><time>2026-05-01T13:45:44.44Z</time></trkpt><trkpt lat="44.2636517" lon="11.73782"><ele>96.8</ele><time>2026-05-01T13:45:46.443Z</time></trkpt><trkpt lat="44.263595" lon="11.7379533"><ele>97.6</ele><time>2026-05-01T13:45:48.44Z</time></trkpt><trkpt lat="44.26354" lon="11.7380833"><ele>98.4</ele><time>2026-05-01T13:45:50.441Z</time></trkpt><trkpt lat="44.26349" lon="11.738215"><ele>99.2</ele><time>2026-05-01T13:45:52.44Z</time></trkpt><trkpt lat="44.2634467" lon="11.7383467"><ele>100.0</ele><time>2026-05-01T13:45:54.44Z</time></trkpt><trkpt lat="44.2633983" lon="11.738475"><ele>100.2</ele><time>2026-05-01T13:45:56.441Z</time></trkpt><trkpt lat="44.263345" lon="11.7386033"><ele>100.4</ele><time>2026-05-01T13:45:58.442Z</time></trkpt><trkpt lat="44.2632917" lon="11.738745"><ele>100.6</ele><time>2026-05-01T13:46:00.44Z</time></trkpt><trkpt lat="44.2632383" lon="11.73888"><ele>100.8</ele><time>2026-05-01T13:46:02.442Z</time></trkpt><trkpt lat="44.2631867" lon="11.7390183"><ele>101.0</ele><time>2026-05-01T13:46:04.44Z</time></trkpt><trkpt lat="44.2631317" lon="11.7391533"><ele>100.6</ele><time>2026-05-01T13:46:06.439Z</time></trkpt><trkpt lat="44.2630817" lon="11.739285"><ele>100.19999999999999</ele><time>2026-05-01T13:46:08.441Z</time></trkpt><trkpt lat="44.2630367" lon="11.7394117"><ele>99.80000000000001</ele><time>2026-05-01T13:46:10.441Z</time></trkpt><trkpt lat="44.26299" lon="11.7395383"><ele>99.4</ele><time>2026-05-01T13:46:12.441Z</time></trkpt><trkpt lat="44.2629417" lon="11.7396767"><ele>99.0</ele><time>2026-05-01T13:46:14.44Z</time></trkpt><trkpt lat="44.262905" lon="11.7398283"><ele>98.75</ele><time>2026-05-01T13:46:16.442Z</time></trkpt><trkpt lat="44.2628833" lon="11.73998"><ele>98.5</ele><time>2026-05-01T13:46:18.44Z</time></trkpt><trkpt lat="44.262865" lon="11.740135"><ele>98.25</ele><time>2026-05-01T13:46:20.44Z</time></trkpt><trkpt lat="44.2628567" lon="11.740295"><ele>98.0</ele><time>2026-05-01T13:46:22.44Z</time></trkpt><trkpt lat="44.2628483" lon="11.7404567"><ele>97.75</ele><time>2026-05-01T13:46:24.44Z</time></trkpt><trkpt lat="44.2628383" lon="11.74062"><ele>97.5</ele><time>2026-05-01T13:46:26.441Z</time></trkpt><trkpt lat="44.262825" lon="11.7407783"><ele>97.25</ele><time>2026-05-01T13:46:28.439Z</time></trkpt><trkpt lat="44.262815" lon="11.7409317"><ele>97.0</ele><time>2026-05-01T13:46:30.439Z</time></trkpt><trkpt lat="44.2628067" lon="11.741085"><ele>97.0</ele><time>2026-05-01T13:46:32.438Z</time></trkpt><trkpt lat="44.2627767" lon="11.74124"><ele>97.0</ele><time>2026-05-01T13:46:34.44Z</time></trkpt><trkpt lat="44.2627483" lon="11.7414017"><ele>97.0</ele><time>2026-05-01T13:46:36.44Z</time></trkpt><trkpt lat="44.26271" lon="11.74156"><ele>97.0</ele><time>2026-05-01T13:46:38.44Z</time></trkpt><trkpt lat="44.2626667" lon="11.7417083"><ele>97.0</ele><time>2026-05-01T13:46:40.44Z</time></trkpt><trkpt lat="44.2626167" lon="11.74185"><ele>97.0</ele><time>2026-05-01T13:46:42.438Z</time></trkpt><trkpt lat="44.2625667" lon="11.7419817"><ele>97.0</ele><time>2026-05-01T13:46:44.439Z</time></trkpt><trkpt lat="44.2625183" lon="11.742115"><ele>97.0</ele><time>2026-05-01T13:46:46.441Z</time></trkpt><trkpt lat="44.2624667" lon="11.7422417"><ele>97.0</ele><time>2026-05-01T13:46:48.439Z</time></trkpt><trkpt lat="44.2624183" lon="11.7423667"><ele>96.6</ele><time>2026-05-01T13:46:50.439Z</time></trkpt><trkpt lat="44.2623683" lon="11.7424867"><ele>96.19999999999999</ele><time>2026-05-01T13:46:52.44Z</time></trkpt><trkpt lat="44.26232" lon="11.742605"><ele>95.8</ele><time>2026-05-01T13:46:54.438Z</time></trkpt><trkpt lat="44.2622717" lon="11.742725"><ele>95.4</ele><time>2026-05-01T13:46:56.437Z</time></trkpt><trkpt lat="44.2622217" lon="11.74285"><ele>95.0</ele><time>2026-05-01T13:46:58.44Z</time></trkpt><trkpt lat="44.2621717" lon="11.7429767"><ele>95.0</ele><time>2026-05-01T13:47:00.439Z</time></trkpt><trkpt lat="44.2621233" lon="11.7431017"><ele>95.0</ele><time>2026-05-01T13:47:02.439Z</time></trkpt><trkpt lat="44.2620783" lon="11.7432267"><ele>95.0</ele><time>2026-05-01T13:47:04.44Z</time></trkpt><trkpt lat="44.2620317" lon="11.74335"><ele>95.0</ele><time>2026-05-01T13:47:06.441Z</time></trkpt><trkpt lat="44.2619833" lon="11.743475"><ele>95.0</ele><time>2026-05-01T13:47:08.439Z</time></trkpt><trkpt lat="44.2619333" lon="11.7436"><ele>95.0</ele><time>2026-05-01T13:47:10.44Z</time></trkpt><trkpt lat="44.2618833" lon="11.7437267"><ele>95.0</ele><time>2026-05-01T13:47:12.439Z</time></trkpt><trkpt lat="44.2618333" lon="11.7438567"><ele>95.0</ele><time>2026-05-01T13:47:14.44Z</time></trkpt><trkpt lat="44.2617867" lon="11.7439933"><ele>95.0</ele><time>2026-05-01T13:47:16.442Z</time></trkpt><trkpt lat="44.2617367" lon="11.7441283"><ele>95.0</ele><time>2026-05-01T13:47:18.44Z</time></trkpt><trkpt lat="44.2616833" lon="11.7442683"><ele>95.0</ele><time>2026-05-01T13:47:20.44Z</time></trkpt><trkpt lat="44.26163" lon="11.7444083"><ele>95.0</ele><time>2026-05-01T13:47:22.439Z</time></trkpt><trkpt lat="44.2615733" lon="11.74455"><ele>95.0</ele><time>2026-05-01T13:47:24.44Z</time></trkpt><trkpt lat="44.26152" lon="11.7446917"><ele>95.0</ele><time>2026-05-01T13:47:26.439Z</time></trkpt><trkpt lat="44.2614717" lon="11.744835"><ele>95.16666666666667</ele><time>2026-05-01T13:47:28.439Z</time></trkpt><trkpt lat="44.2614233" lon="11.7449683"><ele>95.33333333333334</ele><time>2026-05-01T13:47:30.44Z</time></trkpt><trkpt lat="44.2613667" lon="11.7450733"><ele>95.5</ele><time>2026-05-01T13:47:32.44Z</time></trkpt><trkpt lat="44.261315" lon="11.7451433"><ele>95.66666666666667</ele><time>2026-05-01T13:47:34.44Z</time></trkpt><trkpt lat="44.2612433" lon="11.7452033"><ele>95.83333333333333</ele><time>2026-05-01T13:47:37.44Z</time></trkpt><trkpt lat="44.2611733" lon="11.7452267"><ele>96.0</ele><time>2026-05-01T13:47:40.439Z</time></trkpt><trkpt lat="44.2611317" lon="11.745295"><ele>95.66666666666667</ele><time>2026-05-01T13:47:43.439Z</time></trkpt><trkpt lat="44.2611883" lon="11.7454033"><ele>95.33333333333333</ele><time>2026-05-01T13:47:46.443Z</time></trkpt><trkpt lat="44.2612567" lon="11.7454583"><ele>95.0</ele><time>2026-05-01T13:47:48.44Z</time></trkpt><trkpt lat="44.261335" lon="11.7455167"><ele>94.66666666666666</ele><time>2026-05-01T13:47:50.439Z</time></trkpt><trkpt lat="44.2614117" lon="11.7455867"><ele>94.33333333333333</ele><time>2026-05-01T13:47:52.439Z</time></trkpt><trkpt lat="44.2614883" lon="11.7456617"><ele>94.0</ele><time>2026-05-01T13:47:54.439Z</time></trkpt><trkpt lat="44.261575" lon="11.7457333"><ele>94.0</ele><time>2026-05-01T13:47:56.439Z</time></trkpt><trkpt lat="44.26166" lon="11.7458167"><ele>94.0</ele><time>2026-05-01T13:47:58.439Z</time></trkpt><trkpt lat="44.261735" lon="11.74591"><ele>94.0</ele><time>2026-05-01T13:48:00.439Z</time></trkpt><trkpt lat="44.26182" lon="11.7459833"><ele>94.0</ele><time>2026-05-01T13:48:02.44Z</time></trkpt><trkpt lat="44.2619083" lon="11.7460533"><ele>94.0</ele><time>2026-05-01T13:48:04.44Z</time></trkpt><trkpt lat="44.262" lon="11.7461283"><ele>94.0</ele><time>2026-05-01T13:48:06.439Z</time></trkpt><trkpt lat="44.2620933" lon="11.7462083"><ele>94.0</ele><time>2026-05-01T13:48:08.441Z</time></trkpt><trkpt lat="44.2621883" lon="11.74629"><ele>94.0</ele><time>2026-05-01T13:48:10.439Z</time></trkpt><trkpt lat="44.2622883" lon="11.7463567"><ele>94.0</ele><time>2026-05-01T13:48:12.44Z</time></trkpt><trkpt lat="44.262385" lon="11.7464367"><ele>94.0</ele><time>2026-05-01T13:48:14.44Z</time></trkpt><trkpt lat="44.2624833" lon="11.74652"><ele>93.6</ele><time>2026-05-01T13:48:16.443Z</time></trkpt><trkpt lat="44.2625783" lon="11.7466083"><ele>93.2</ele><time>2026-05-01T13:48:18.439Z</time></trkpt><trkpt lat="44.2626817" lon="11.7466933"><ele>92.8</ele><time>2026-05-01T13:48:20.44Z</time></trkpt><trkpt lat="44.2627883" lon="11.7467767"><ele>92.39999999999999</ele><time>2026-05-01T13:48:22.44Z</time></trkpt><trkpt lat="44.2628433" lon="11.7468217"><ele>92.0</ele><time>2026-05-01T13:48:23.439Z</time></trkpt><trkpt lat="44.2629" lon="11.746865"><ele>92.0</ele><time>2026-05-01T13:48:24.441Z</time></trkpt><trkpt lat="44.262955" lon="11.7469117"><ele>92.0</ele><time>2026-05-01T13:48:25.446Z</time></trkpt><trkpt lat="44.2630117" lon="11.7469583"><ele>92.0</ele><time>2026-05-01T13:48:26.439Z</time></trkpt><trkpt lat="44.2630683" lon="11.7470033"><ele>92.0</ele><time>2026-05-01T13:48:27.44Z</time></trkpt><trkpt lat="44.263125" lon="11.7470483"><ele>92.0</ele><time>2026-05-01T13:48:28.439Z</time></trkpt><trkpt lat="44.2631817" lon="11.747095"><ele>92.0</ele><time>2026-05-01T13:48:29.44Z</time></trkpt><trkpt lat="44.2632367" lon="11.74714"><ele>92.0</ele><time>2026-05-01T13:48:30.439Z</time></trkpt><trkpt lat="44.2632917" lon="11.7471867"><ele>91.5</ele><time>2026-05-01T13:48:31.441Z</time></trkpt><trkpt lat="44.263395" lon="11.7472767"><ele>91.0</ele><time>2026-05-01T13:48:33.44Z</time></trkpt><trkpt lat="44.2634983" lon="11.7473633"><ele>90.5</ele><time>2026-05-01T13:48:35.439Z</time></trkpt><trkpt lat="44.2635933" lon="11.7474467"><ele>90.0</ele><time>2026-05-01T13:48:37.439Z</time></trkpt><trkpt lat="44.26369" lon="11.74752"><ele>90.0</ele><time>2026-05-01T13:48:39.443Z</time></trkpt><trkpt lat="44.263785" lon="11.747595"><ele>90.0</ele><time>2026-05-01T13:48:41.44Z</time></trkpt><trkpt lat="44.26388" lon="11.7476717"><ele>90.0</ele><time>2026-05-01T13:48:43.44Z</time></trkpt><trkpt lat="44.263985" lon="11.7477417"><ele>90.0</ele><time>2026-05-01T13:48:45.439Z</time></trkpt><trkpt lat="44.2640883" lon="11.747815"><ele>90.0</ele><time>2026-05-01T13:48:47.442Z</time></trkpt><trkpt lat="44.2641967" lon="11.7478667"><ele>90.0</ele><time>2026-05-01T13:48:49.441Z</time></trkpt><trkpt lat="44.2643" lon="11.7479133"><ele>90.0</ele><time>2026-05-01T13:48:51.439Z</time></trkpt><trkpt lat="44.264395" lon="11.7479633"><ele>90.0</ele><time>2026-05-01T13:48:53.44Z</time></trkpt><trkpt lat="44.2644883" lon="11.7480217"><ele>90.0</ele><time>2026-05-01T13:48:55.44Z</time></trkpt><trkpt lat="44.2645767" lon="11.7480867"><ele>90.0</ele><time>2026-05-01T13:48:57.44Z</time></trkpt><trkpt lat="44.26465" lon="11.74815"><ele>90.0</ele><time>2026-05-01T13:48:59.439Z</time></trkpt><trkpt lat="44.2646867" lon="11.7482367"><ele>90.0</ele><time>2026-05-01T13:49:02.44Z</time></trkpt><trkpt lat="44.2647533" lon="11.7482917"><ele>90.0</ele><time>2026-05-01T13:49:06.439Z</time></trkpt><trkpt lat="44.26481" lon="11.7483333"><ele>90.0</ele><time>2026-05-01T13:49:08.443Z</time></trkpt><trkpt lat="44.2648917" lon="11.7483867"><ele>90.0</ele><time>2026-05-01T13:49:11.44Z</time></trkpt><trkpt lat="44.2649733" lon="11.7484517"><ele>89.85714285714285</ele><time>2026-05-01T13:49:14.44Z</time></trkpt><trkpt lat="44.2650117" lon="11.7485233"><ele>89.71428571428572</ele><time>2026-05-01T13:49:16.443Z</time></trkpt><trkpt lat="44.26498" lon="11.7486067"><ele>89.57142857142857</ele><time>2026-05-01T13:49:18.439Z</time></trkpt><trkpt lat="44.26493" lon="11.74868"><ele>89.42857142857142</ele><time>2026-05-01T13:49:20.44Z</time></trkpt><trkpt lat="44.264875" lon="11.7487467"><ele>89.28571428571428</ele><time>2026-05-01T13:49:22.441Z</time></trkpt><trkpt lat="44.26483" lon="11.74882"><ele>89.14285714285714</ele><time>2026-05-01T13:49:24.44Z</time></trkpt><trkpt lat="44.2647733" lon="11.7488767"><ele>89.0</ele><time>2026-05-01T13:49:26.439Z</time></trkpt><trkpt lat="44.2647" lon="11.7488933"><ele>88.83333333333334</ele><time>2026-05-01T13:49:28.439Z</time></trkpt><trkpt lat="44.2646183" lon="11.7488933"><ele>88.66666666666667</ele><time>2026-05-01T13:49:30.439Z</time></trkpt><trkpt lat="44.2645417" lon="11.7489117"><ele>88.5</ele><time>2026-05-01T13:49:32.439Z</time></trkpt><trkpt lat="44.26447" lon="11.7489433"><ele>88.33333333333333</ele><time>2026-05-01T13:49:34.439Z</time></trkpt><trkpt lat="44.2644" lon="11.74899"><ele>88.16666666666666</ele><time>2026-05-01T13:49:36.44Z</time></trkpt><trkpt lat="44.2643433" lon="11.7490567"><ele>88.0</ele><time>2026-05-01T13:49:38.44Z</time></trkpt><trkpt lat="44.26429" lon="11.7491417"><ele>88.0</ele><time>2026-05-01T13:49:40.44Z</time></trkpt><trkpt lat="44.264235" lon="11.749235"><ele>88.0</ele><time>2026-05-01T13:49:42.44Z</time></trkpt><trkpt lat="44.264185" lon="11.7493333"><ele>88.0</ele><time>2026-05-01T13:49:44.441Z</time></trkpt><trkpt lat="44.26413" lon="11.7494317"><ele>88.0</ele><time>2026-05-01T13:49:46.444Z</time></trkpt><trkpt lat="44.2640783" lon="11.7495383"><ele>88.0</ele><time>2026-05-01T13:49:48.442Z</time></trkpt><trkpt lat="44.26402" lon="11.7496433"><ele>88.0</ele><time>2026-05-01T13:49:50.443Z</time></trkpt><trkpt lat="44.2639683" lon="11.7497517"><ele>88.0</ele><time>2026-05-01T13:49:52.442Z</time></trkpt><trkpt lat="44.2639183" lon="11.749855"><ele>88.0</ele><time>2026-05-01T13:49:54.443Z</time></trkpt><trkpt lat="44.26387" lon="11.749965"><ele>88.0</ele><time>2026-05-01T13:49:56.44Z</time></trkpt><trkpt lat="44.2638217" lon="11.7500817"><ele>88.0</ele><time>2026-05-01T13:49:58.441Z</time></trkpt><trkpt lat="44.263775" lon="11.7502"><ele>87.4</ele><time>2026-05-01T13:50:00.44Z</time></trkpt><trkpt lat="44.2637317" lon="11.7503133"><ele>86.80000000000001</ele><time>2026-05-01T13:50:02.44Z</time></trkpt><trkpt lat="44.2636833" lon="11.750435"><ele>86.2</ele><time>2026-05-01T13:50:04.44Z</time></trkpt><trkpt lat="44.2636367" lon="11.750555"><ele>85.6</ele><time>2026-05-01T13:50:06.441Z</time></trkpt><trkpt lat="44.2636" lon="11.7506683"><ele>85.0</ele><time>2026-05-01T13:50:08.441Z</time></trkpt><trkpt lat="44.2635567" lon="11.750775"><ele>85.0</ele><time>2026-05-01T13:50:10.44Z</time></trkpt><trkpt lat="44.26351" lon="11.7508817"><ele>85.0</ele><time>2026-05-01T13:50:12.441Z</time></trkpt><trkpt lat="44.2634767" lon="11.7510033"><ele>85.0</ele><time>2026-05-01T13:50:14.442Z</time></trkpt><trkpt lat="44.2634317" lon="11.751125"><ele>85.0</ele><time>2026-05-01T13:50:16.442Z</time></trkpt><trkpt lat="44.2633817" lon="11.7512517"><ele>85.0</ele><time>2026-05-01T13:50:18.442Z</time></trkpt><trkpt lat="44.263335" lon="11.75138"><ele>83.75</ele><time>2026-05-01T13:50:20.442Z</time></trkpt><trkpt lat="44.2632833" lon="11.7515217"><ele>82.5</ele><time>2026-05-01T13:50:22.443Z</time></trkpt><trkpt lat="44.2632517" lon="11.751675"><ele>81.25</ele><time>2026-05-01T13:50:24.443Z</time></trkpt><trkpt lat="44.26325" lon="11.75184"><ele>80.0</ele><time>2026-05-01T13:50:26.44Z</time></trkpt><trkpt lat="44.2632783" lon="11.7520033"><ele>79.0</ele><time>2026-05-01T13:50:28.44Z</time></trkpt><trkpt lat="44.263315" lon="11.7521683"><ele>78.0</ele><time>2026-05-01T13:50:30.44Z</time></trkpt><trkpt lat="44.2633367" lon="11.7522567"><ele>77.0</ele><time>2026-05-01T13:50:31.441Z</time></trkpt><trkpt lat="44.263355" lon="11.75235"><ele>76.0</ele><time>2026-05-01T13:50:32.44Z</time></trkpt><trkpt lat="44.2633783" lon="11.75245"><ele>75.0</ele><time>2026-05-01T13:50:33.44Z</time></trkpt><trkpt lat="44.2634083" lon="11.7525483"><ele>74.0</ele><time>2026-05-01T13:50:34.44Z</time></trkpt><trkpt lat="44.2634533" lon="11.7526467"><ele>72.83333333333334</ele><time>2026-05-01T13:50:35.439Z</time></trkpt><trkpt lat="44.263495" lon="11.7527483"><ele>71.66666666666667</ele><time>2026-05-01T13:50:36.439Z</time></trkpt><trkpt lat="44.263525" lon="11.7528517"><ele>70.5</ele><time>2026-05-01T13:50:37.44Z</time></trkpt><trkpt lat="44.2635433" lon="11.7529583"><ele>69.33333333333333</ele><time>2026-05-01T13:50:38.441Z</time></trkpt><trkpt lat="44.2635583" lon="11.7530617"><ele>68.16666666666666</ele><time>2026-05-01T13:50:39.44Z</time></trkpt><trkpt lat="44.2635567" lon="11.753165"><ele>67.0</ele><time>2026-05-01T13:50:40.44Z</time></trkpt><trkpt lat="44.263535" lon="11.7532583"><ele>67.0</ele><time>2026-05-01T13:50:41.44Z</time></trkpt><trkpt lat="44.263505" lon="11.753345"><ele>67.0</ele><time>2026-05-01T13:50:42.439Z</time></trkpt><trkpt lat="44.263475" lon="11.753435"><ele>67.0</ele><time>2026-05-01T13:50:43.44Z</time></trkpt><trkpt lat="44.263435" lon="11.7535167"><ele>67.0</ele><time>2026-05-01T13:50:44.44Z</time></trkpt><trkpt lat="44.2633883" lon="11.75358"><ele>67.0</ele><time>2026-05-01T13:50:45.441Z</time></trkpt><trkpt lat="44.26327" lon="11.75363"><ele>67.0</ele><time>2026-05-01T13:50:47.443Z</time></trkpt><trkpt lat="44.263195" lon="11.7536317"><ele>66.57142857142857</ele><time>2026-05-01T13:50:48.443Z</time></trkpt><trkpt lat="44.2631183" lon="11.753635"><ele>66.14285714285714</ele><time>2026-05-01T13:50:49.442Z</time></trkpt><trkpt lat="44.263045" lon="11.7536483"><ele>65.71428571428571</ele><time>2026-05-01T13:50:50.443Z</time></trkpt><trkpt lat="44.2629733" lon="11.753665"><ele>65.28571428571428</ele><time>2026-05-01T13:50:51.443Z</time></trkpt><trkpt lat="44.2629033" lon="11.75368"><ele>64.85714285714285</ele><time>2026-05-01T13:50:52.443Z</time></trkpt><trkpt lat="44.2628367" lon="11.7537"><ele>64.42857142857143</ele><time>2026-05-01T13:50:53.442Z</time></trkpt><trkpt lat="44.2627717" lon="11.7537267"><ele>64.0</ele><time>2026-05-01T13:50:54.443Z</time></trkpt><trkpt lat="44.2627083" lon="11.7537583"><ele>63.99999999999999</ele><time>2026-05-01T13:50:55.44Z</time></trkpt><trkpt lat="44.2626517" lon="11.7538017"><ele>64.0</ele><time>2026-05-01T13:50:56.439Z</time></trkpt><trkpt lat="44.2625967" lon="11.753845"><ele>64.0</ele><time>2026-05-01T13:50:57.44Z</time></trkpt><trkpt lat="44.2625017" lon="11.75393"><ele>64.0</ele><time>2026-05-01T13:50:59.44Z</time></trkpt><trkpt lat="44.26242" lon="11.7540083"><ele>63.99999999999999</ele><time>2026-05-01T13:51:01.44Z</time></trkpt><trkpt lat="44.2623467" lon="11.7540933"><ele>64.0</ele><time>2026-05-01T13:51:03.439Z</time></trkpt><trkpt lat="44.26228" lon="11.7541617"><ele>65.83333333333333</ele><time>2026-05-01T13:51:05.44Z</time></trkpt><trkpt lat="44.2622217" lon="11.754215"><ele>67.66666666666666</ele><time>2026-05-01T13:51:07.439Z</time></trkpt><trkpt lat="44.262165" lon="11.754285"><ele>69.5</ele><time>2026-05-01T13:51:10.44Z</time></trkpt><trkpt lat="44.2621317" lon="11.7543683"><ele>71.33333333333333</ele><time>2026-05-01T13:51:13.44Z</time></trkpt><trkpt lat="44.26214" lon="11.754485"><ele>73.16666666666667</ele><time>2026-05-01T13:51:16.443Z</time></trkpt><trkpt lat="44.262175" lon="11.754585"><ele>75.0</ele><time>2026-05-01T13:51:19.44Z</time></trkpt><trkpt lat="44.2622083" lon="11.75468"><ele>74.14285714285714</ele><time>2026-05-01T13:51:22.441Z</time></trkpt><trkpt lat="44.2622417" lon="11.7547683"><ele>73.28571428571428</ele><time>2026-05-01T13:51:25.441Z</time></trkpt><trkpt lat="44.262265" lon="11.7548533"><ele>72.42857142857143</ele><time>2026-05-01T13:51:28.44Z</time></trkpt><trkpt lat="44.2622967" lon="11.7549317"><ele>71.57142857142857</ele><time>2026-05-01T13:51:31.44Z</time></trkpt><trkpt lat="44.2623233" lon="11.7550117"><ele>70.71428571428572</ele><time>2026-05-01T13:51:34.441Z</time></trkpt><trkpt lat="44.26235" lon="11.7551017"><ele>69.85714285714286</ele><time>2026-05-01T13:51:37.44Z</time></trkpt><trkpt lat="44.262385" lon="11.75518"><ele>69.0</ele><time>2026-05-01T13:51:40.44Z</time></trkpt><trkpt lat="44.262425" lon="11.7552583"><ele>71.0</ele><time>2026-05-01T13:51:43.439Z</time></trkpt><trkpt lat="44.262465" lon="11.7553483"><ele>73.0</ele><time>2026-05-01T13:51:47.443Z</time></trkpt><trkpt lat="44.26251" lon="11.7554217"><ele>75.0</ele><time>2026-05-01T13:51:51.439Z</time></trkpt><trkpt lat="44.2625617" lon="11.7554983"><ele>77.0</ele><time>2026-05-01T13:51:55.442Z</time></trkpt><trkpt lat="44.26261" lon="11.75558"><ele>79.0</ele><time>2026-05-01T13:51:59.438Z</time></trkpt><trkpt lat="44.2626517" lon="11.75567"><ele>81.0</ele><time>2026-05-01T13:52:04.439Z</time></trkpt><trkpt lat="44.26269" lon="11.755745"><ele>83.0</ele><time>2026-05-01T13:52:08.439Z</time></trkpt><trkpt lat="44.2627283" lon="11.7558267"><ele>83.0</ele><time>2026-05-01T13:52:12.439Z</time></trkpt><trkpt lat="44.2627683" lon="11.7559083"><ele>83.0</ele><time>2026-05-01T13:52:16.438Z</time></trkpt><trkpt lat="44.2628" lon="11.7559967"><ele>83.0</ele><time>2026-05-01T13:52:20.44Z</time></trkpt><trkpt lat="44.262825" lon="11.7561017"><ele>83.0</ele><time>2026-05-01T13:52:25.44Z</time></trkpt><trkpt lat="44.26283" lon="11.7561933"><ele>83.0</ele><time>2026-05-01T13:52:29.439Z</time></trkpt><trkpt lat="44.2628117" lon="11.7562983"><ele>83.0</ele><time>2026-05-01T13:52:34.439Z</time></trkpt><trkpt lat="44.2627883" lon="11.75639"><ele>83.0</ele><time>2026-05-01T13:52:38.439Z</time></trkpt><trkpt lat="44.2627567" lon="11.75647"><ele>84.14285714285714</ele><time>2026-05-01T13:52:42.439Z</time></trkpt><trkpt lat="44.2627167" lon="11.7565433"><ele>85.28571428571429</ele><time>2026-05-01T13:52:46.439Z</time></trkpt><trkpt lat="44.2626767" lon="11.7566283"><ele>86.42857142857143</ele><time>2026-05-01T13:52:50.438Z</time></trkpt><trkpt lat="44.262645" lon="11.7567117"><ele>87.57142857142857</ele><time>2026-05-01T13:52:54.44Z</time></trkpt><trkpt lat="44.2626433" lon="11.7568"><ele>88.71428571428572</ele><time>2026-05-01T13:52:57.438Z</time></trkpt><trkpt lat="44.262655" lon="11.7569117"><ele>89.85714285714286</ele><time>2026-05-01T13:53:01.438Z</time></trkpt><trkpt lat="44.2626833" lon="11.756995"><ele>91.0</ele><time>2026-05-01T13:53:05.438Z</time></trkpt><trkpt lat="44.2627217" lon="11.7570767"><ele>92.0</ele><time>2026-05-01T13:53:10.439Z</time></trkpt><trkpt lat="44.2627767" lon="11.7571417"><ele>93.0</ele><time>2026-05-01T13:53:14.44Z</time></trkpt><trkpt lat="44.2628417" lon="11.7571883"><ele>94.0</ele><time>2026-05-01T13:53:18.44Z</time></trkpt><trkpt lat="44.2629017" lon="11.757225"><ele>95.0</ele><time>2026-05-01T13:53:22.44Z</time></trkpt><trkpt lat="44.2629717" lon="11.757185"><ele>96.0</ele><time>2026-05-01T13:53:27.439Z</time></trkpt><trkpt lat="44.2630217" lon="11.75713"><ele>97.0</ele><time>2026-05-01T13:53:31.44Z</time></trkpt><trkpt lat="44.2630767" lon="11.7570817"><ele>98.0</ele><time>2026-05-01T13:53:35.44Z</time></trkpt><trkpt lat="44.2631233" lon="11.75702"><ele>98.0</ele><time>2026-05-01T13:53:39.44Z</time></trkpt><trkpt lat="44.2631817" lon="11.75695"><ele>98.0</ele><time>2026-05-01T13:53:44.44Z</time></trkpt><trkpt lat="44.263245" lon="11.75689"><ele>98.0</ele><time>2026-05-01T13:53:49.439Z</time></trkpt><trkpt lat="44.2633017" lon="11.756825"><ele>98.0</ele><time>2026-05-01T13:53:54.44Z</time></trkpt><trkpt lat="44.2633533" lon="11.7567733"><ele>98.0</ele><time>2026-05-01T13:53:58.44Z</time></trkpt><trkpt lat="44.263415" lon="11.7567467"><ele>98.0</ele><time>2026-05-01T13:54:03.44Z</time></trkpt><trkpt lat="44.263475" lon="11.7567183"><ele>98.0</ele><time>2026-05-01T13:54:09.44Z</time></trkpt><trkpt lat="44.2635467" lon="11.75674"><ele>98.0</ele><time>2026-05-01T13:54:13.441Z</time></trkpt><trkpt lat="44.26361" lon="11.7567583"><ele>98.0</ele><time>2026-05-01T13:54:16.44Z</time></trkpt><trkpt lat="44.2636733" lon="11.7567817"><ele>98.0</ele><time>2026-05-01T13:54:20.439Z</time></trkpt><trkpt lat="44.2637383" lon="11.7568"><ele>98.0</ele><time>2026-05-01T13:54:26.439Z</time></trkpt><trkpt lat="44.2638083" lon="11.7568233"><ele>98.0</ele><time>2026-05-01T13:54:31.441Z</time></trkpt><trkpt lat="44.2638683" lon="11.75686"><ele>98.0</ele><time>2026-05-01T13:54:35.44Z</time></trkpt><trkpt lat="44.2639017" lon="11.7569417"><ele>98.0</ele><time>2026-05-01T13:54:40.44Z</time></trkpt><trkpt lat="44.2638633" lon="11.757015"><ele>98.0</ele><time>2026-05-01T13:54:45.44Z</time></trkpt><trkpt lat="44.263805" lon="11.7570683"><ele>98.0</ele><time>2026-05-01T13:54:49.443Z</time></trkpt><trkpt lat="44.2637383" lon="11.7570783"><ele>98.0</ele><time>2026-05-01T13:54:53.442Z</time></trkpt><trkpt lat="44.2636667" lon="11.7570917"><ele>98.0</ele><time>2026-05-01T13:54:57.44Z</time></trkpt><trkpt lat="44.2636033" lon="11.757095"><ele>98.0</ele><time>2026-05-01T13:55:01.441Z</time></trkpt><trkpt lat="44.2635283" lon="11.75712"><ele>98.0</ele><time>2026-05-01T13:55:05.44Z</time></trkpt><trkpt lat="44.2634683" lon="11.757155"><ele>98.0</ele><time>2026-05-01T13:55:10.441Z</time></trkpt><trkpt lat="44.263405" lon="11.7572033"><ele>98.0</ele><time>2026-05-01T13:55:15.441Z</time></trkpt><trkpt lat="44.263355" lon="11.7572667"><ele>98.0</ele><time>2026-05-01T13:55:20.443Z</time></trkpt><trkpt lat="44.263335" lon="11.7573617"><ele>98.0</ele><time>2026-05-01T13:55:26.44Z</time></trkpt><trkpt lat="44.26334" lon="11.757465"><ele>98.0</ele><time>2026-05-01T13:55:32.44Z</time></trkpt><trkpt lat="44.2633533" lon="11.7575617"><ele>98.0</ele><time>2026-05-01T13:55:37.441Z</time></trkpt><trkpt lat="44.2633517" lon="11.7576517"><ele>98.0</ele><time>2026-05-01T13:55:42.439Z</time></trkpt><trkpt lat="44.2633583" lon="11.7577467"><ele>98.0</ele><time>2026-05-01T13:55:47.438Z</time></trkpt><trkpt lat="44.2633617" lon="11.7578417"><ele>99.85714285714286</ele><time>2026-05-01T13:55:51.445Z</time></trkpt><trkpt lat="44.2633767" lon="11.75794"><ele>101.71428571428572</ele><time>2026-05-01T13:55:56.44Z</time></trkpt><trkpt lat="44.263395" lon="11.7580383"><ele>103.57142857142857</ele><time>2026-05-01T13:56:01.44Z</time></trkpt><trkpt lat="44.263405" lon="11.7581417"><ele>105.42857142857143</ele><time>2026-05-01T13:56:06.439Z</time></trkpt><trkpt lat="44.2634033" lon="11.7582417"><ele>107.28571428571429</ele><time>2026-05-01T13:56:11.44Z</time></trkpt><trkpt lat="44.2634067" lon="11.7583333"><ele>109.14285714285714</ele><time>2026-05-01T13:56:16.441Z</time></trkpt><trkpt lat="44.26341" lon="11.758435"><ele>111.0</ele><time>2026-05-01T13:56:21.44Z</time></trkpt><trkpt lat="44.2634083" lon="11.758535"><ele>111.85714285714286</ele><time>2026-05-01T13:56:26.44Z</time></trkpt><trkpt lat="44.2634117" lon="11.7586383"><ele>112.71428571428572</ele><time>2026-05-01T13:56:31.439Z</time></trkpt><trkpt lat="44.2634267" lon="11.7587267"><ele>113.57142857142858</ele><time>2026-05-01T13:56:35.438Z</time></trkpt><trkpt lat="44.2634383" lon="11.758815"><ele>114.42857142857143</ele><time>2026-05-01T13:56:39.44Z</time></trkpt><trkpt lat="44.2634333" lon="11.75891"><ele>115.2857142857143</ele><time>2026-05-01T13:56:43.439Z</time></trkpt><trkpt lat="44.263445" lon="11.7590217"><ele>116.14285714285715</ele><time>2026-05-01T13:56:47.438Z</time></trkpt><trkpt lat="44.26345" lon="11.7591183"><ele>117.0</ele><time>2026-05-01T13:56:50.44Z</time></trkpt><trkpt lat="44.2634533" lon="11.7592167"><ele>117.0</ele><time>2026-05-01T13:56:53.439Z</time></trkpt><trkpt lat="44.2634617" lon="11.75932"><ele>117.00000000000001</ele><time>2026-05-01T13:56:56.439Z</time></trkpt><trkpt lat="44.2634683" lon="11.7594267"><ele>117.0</ele><time>2026-05-01T13:56:59.439Z</time></trkpt><trkpt lat="44.2634833" lon="11.7595267"><ele>117.0</ele><time>2026-05-01T13:57:02.439Z</time></trkpt><trkpt lat="44.2635017" lon="11.7596217"><ele>117.00000000000001</ele><time>2026-05-01T13:57:05.439Z</time></trkpt><trkpt lat="44.2635117" lon="11.75971"><ele>117.0</ele><time>2026-05-01T13:57:08.439Z</time></trkpt><trkpt lat="44.2635217" lon="11.7598117"><ele>117.0</ele><time>2026-05-01T13:57:12.44Z</time></trkpt><trkpt lat="44.2635333" lon="11.7599"><ele>117.0</ele><time>2026-05-01T13:57:16.442Z</time></trkpt><trkpt lat="44.2635517" lon="11.7599933"><ele>117.00000000000001</ele><time>2026-05-01T13:57:21.443Z</time></trkpt><trkpt lat="44.2635617" lon="11.7600883"><ele>117.0</ele><time>2026-05-01T13:57:26.439Z</time></trkpt><trkpt lat="44.26355" lon="11.7601883"><ele>117.0</ele><time>2026-05-01T13:57:31.44Z</time></trkpt><trkpt lat="44.2635233" lon="11.7602817"><ele>117.00000000000001</ele><time>2026-05-01T13:57:36.44Z</time></trkpt><trkpt lat="44.2634667" lon="11.7603517"><ele>117.0</ele><time>2026-05-01T13:57:41.438Z</time></trkpt><trkpt lat="44.26341" lon="11.7604017"><ele>117.0</ele><time>2026-05-01T13:57:46.443Z</time></trkpt><trkpt lat="44.26335" lon="11.7604567"><ele>117.0</ele><time>2026-05-01T13:57:51.439Z</time></trkpt><trkpt lat="44.26329" lon="11.7604967"><ele>117.00000000000001</ele><time>2026-05-01T13:57:56.439Z</time></trkpt><trkpt lat="44.2632317" lon="11.7605467"><ele>117.0</ele><time>2026-05-01T13:58:01.44Z</time></trkpt><trkpt lat="44.263175" lon="11.7605967"><ele>117.0</ele><time>2026-05-01T13:58:06.438Z</time></trkpt><trkpt lat="44.2631183" lon="11.7606483"><ele>117.00000000000001</ele><time>2026-05-01T13:58:11.439Z</time></trkpt><trkpt lat="44.26305" lon="11.7607133"><ele>117.0</ele><time>2026-05-01T13:58:17.441Z</time></trkpt><trkpt lat="44.26299" lon="11.7607817"><ele>117.0</ele><time>2026-05-01T13:58:21.439Z</time></trkpt><trkpt lat="44.2629183" lon="11.7608383"><ele>119.42857142857143</ele><time>2026-05-01T13:58:26.438Z</time></trkpt><trkpt lat="44.2628533" lon="11.76089"><ele>121.85714285714286</ele><time>2026-05-01T13:58:31.44Z</time></trkpt><trkpt lat="44.262795" lon="11.7609383"><ele>124.28571428571429</ele><time>2026-05-01T13:58:35.441Z</time></trkpt><trkpt lat="44.2627367" lon="11.7609733"><ele>126.71428571428572</ele><time>2026-05-01T13:58:39.439Z</time></trkpt><trkpt lat="44.262675" lon="11.7609967"><ele>129.14285714285714</ele><time>2026-05-01T13:58:43.44Z</time></trkpt><trkpt lat="44.2626133" lon="11.7610183"><ele>131.57142857142858</ele><time>2026-05-01T13:58:47.443Z</time></trkpt><trkpt lat="44.2625483" lon="11.761025"><ele>134.0</ele><time>2026-05-01T13:58:52.439Z</time></trkpt><trkpt lat="44.2624817" lon="11.76103"><ele>134.0</ele><time>2026-05-01T13:58:57.44Z</time></trkpt><trkpt lat="44.262415" lon="11.76102"><ele>134.0</ele><time>2026-05-01T13:59:02.439Z</time></trkpt><trkpt lat="44.2623533" lon="11.7609983"><ele>134.0</ele><time>2026-05-01T13:59:07.441Z</time></trkpt><trkpt lat="44.2622883" lon="11.7609667"><ele>134.0</ele><time>2026-05-01T13:59:12.442Z</time></trkpt><trkpt lat="44.2622267" lon="11.76093"><ele>134.0</ele><time>2026-05-01T13:59:17.443Z</time></trkpt><trkpt lat="44.2621567" lon="11.7608917"><ele>134.0</ele><time>2026-05-01T13:59:22.44Z</time></trkpt><trkpt lat="44.26209" lon="11.7608733"><ele>134.0</ele><time>2026-05-01T13:59:27.443Z</time></trkpt><trkpt lat="44.2620333" lon="11.7608267"><ele>134.42857142857144</ele><time>2026-05-01T13:59:31.44Z</time></trkpt><trkpt lat="44.2619717" lon="11.760775"><ele>134.85714285714286</ele><time>2026-05-01T13:59:36.44Z</time></trkpt><trkpt lat="44.261905" lon="11.7607267"><ele>135.28571428571428</ele><time>2026-05-01T13:59:41.44Z</time></trkpt><trkpt lat="44.261835" lon="11.760685"><ele>135.71428571428572</ele><time>2026-05-01T13:59:46.442Z</time></trkpt><trkpt lat="44.261765" lon="11.7606467"><ele>136.14285714285714</ele><time>2026-05-01T13:59:51.44Z</time></trkpt><trkpt lat="44.2616917" lon="11.7606117"><ele>136.57142857142858</ele><time>2026-05-01T13:59:56.441Z</time></trkpt><trkpt lat="44.2616217" lon="11.7605833"><ele>137.0</ele><time>2026-05-01T14:00:01.44Z</time></trkpt><trkpt lat="44.261555" lon="11.760555"><ele>137.00000000000003</ele><time>2026-05-01T14:00:06.439Z</time></trkpt><trkpt lat="44.2614833" lon="11.7605417"><ele>137.0</ele><time>2026-05-01T14:00:11.439Z</time></trkpt><trkpt lat="44.261405" lon="11.76052"><ele>137.0</ele><time>2026-05-01T14:00:17.443Z</time></trkpt><trkpt lat="44.261345" lon="11.7604917"><ele>137.0</ele><time>2026-05-01T14:00:21.44Z</time></trkpt><trkpt lat="44.261275" lon="11.7604717"><ele>137.0</ele><time>2026-05-01T14:00:26.439Z</time></trkpt><trkpt lat="44.261205" lon="11.7604267"><ele>137.00000000000003</ele><time>2026-05-01T14:00:31.441Z</time></trkpt><trkpt lat="44.26113" lon="11.7603983"><ele>137.0</ele><time>2026-05-01T14:00:36.441Z</time></trkpt><trkpt lat="44.26107" lon="11.76037"><ele>137.71428571428572</ele><time>2026-05-01T14:00:41.439Z</time></trkpt><trkpt lat="44.261" lon="11.7603283"><ele>138.42857142857144</ele><time>2026-05-01T14:00:47.443Z</time></trkpt><trkpt lat="44.2609367" lon="11.76029"><ele>139.14285714285714</ele><time>2026-05-01T14:00:52.44Z</time></trkpt><trkpt lat="44.2608733" lon="11.7602267"><ele>139.85714285714286</ele><time>2026-05-01T14:00:58.44Z</time></trkpt><trkpt lat="44.2608067" lon="11.760175"><ele>140.57142857142856</ele><time>2026-05-01T14:01:03.439Z</time></trkpt><trkpt lat="44.2607467" lon="11.7601267"><ele>141.28571428571428</ele><time>2026-05-01T14:01:08.44Z</time></trkpt><trkpt lat="44.2606783" lon="11.760085"><ele>142.0</ele><time>2026-05-01T14:01:14.439Z</time></trkpt><trkpt lat="44.2606" lon="11.7600767"><ele>145.14285714285714</ele><time>2026-05-01T14:01:19.441Z</time></trkpt><trkpt lat="44.260525" lon="11.760045"><ele>148.28571428571428</ele><time>2026-05-01T14:01:24.441Z</time></trkpt><trkpt lat="44.2604567" lon="11.7600267"><ele>151.42857142857142</ele><time>2026-05-01T14:01:29.44Z</time></trkpt><trkpt lat="44.2603883" lon="11.7600233"><ele>154.57142857142856</ele><time>2026-05-01T14:01:33.44Z</time></trkpt><trkpt lat="44.260315" lon="11.7600183"><ele>157.71428571428572</ele><time>2026-05-01T14:01:38.439Z</time></trkpt><trkpt lat="44.2602417" lon="11.760025"><ele>160.85714285714283</ele><time>2026-05-01T14:01:43.441Z</time></trkpt><trkpt lat="44.26017" lon="11.76003"><ele>164.0</ele><time>2026-05-01T14:01:48.443Z</time></trkpt><trkpt lat="44.260105" lon="11.7600433"><ele>163.99999999999997</ele><time>2026-05-01T14:01:54.442Z</time></trkpt><trkpt lat="44.2600417" lon="11.7600483"><ele>164.0</ele><time>2026-05-01T14:01:58.441Z</time></trkpt><trkpt lat="44.2599683" lon="11.760065"><ele>164.0</ele><time>2026-05-01T14:02:04.443Z</time></trkpt><trkpt lat="44.2598983" lon="11.76009"><ele>164.0</ele><time>2026-05-01T14:02:09.439Z</time></trkpt><trkpt lat="44.2598417" lon="11.7601433"><ele>164.0</ele><time>2026-05-01T14:02:14.44Z</time></trkpt><trkpt lat="44.2597767" lon="11.7601317"><ele>163.99999999999997</ele><time>2026-05-01T14:02:19.443Z</time></trkpt><trkpt lat="44.2597183" lon="11.7601717"><ele>164.0</ele><time>2026-05-01T14:02:23.443Z</time></trkpt><trkpt lat="44.259645" lon="11.7602"><ele>164.28571428571428</ele><time>2026-05-01T14:02:29.438Z</time></trkpt><trkpt lat="44.2595833" lon="11.7602233"><ele>164.57142857142856</ele><time>2026-05-01T14:02:34.439Z</time></trkpt><trkpt lat="44.259515" lon="11.76021"><ele>164.85714285714283</ele><time>2026-05-01T14:02:39.44Z</time></trkpt><trkpt lat="44.259445" lon="11.7601983"><ele>165.14285714285714</ele><time>2026-05-01T14:02:44.44Z</time></trkpt><trkpt lat="44.2593767" lon="11.760215"><ele>165.42857142857144</ele><time>2026-05-01T14:02:49.441Z</time></trkpt><trkpt lat="44.2593233" lon="11.760265"><ele>165.7142857142857</ele><time>2026-05-01T14:02:53.443Z</time></trkpt><trkpt lat="44.2592733" lon="11.7603383"><ele>166.0</ele><time>2026-05-01T14:02:57.441Z</time></trkpt><trkpt lat="44.2592417" lon="11.760415"><ele>166.0</ele><time>2026-05-01T14:03:01.44Z</time></trkpt><trkpt lat="44.2592167" lon="11.7605"><ele>166.0</ele><time>2026-05-01T14:03:06.44Z</time></trkpt><trkpt lat="44.2591783" lon="11.7605967"><ele>166.0</ele><time>2026-05-01T14:03:10.439Z</time></trkpt><trkpt lat="44.2591367" lon="11.76067"><ele>166.0</ele><time>2026-05-01T14:03:13.439Z</time></trkpt><trkpt lat="44.2590917" lon="11.7607383"><ele>166.0</ele><time>2026-05-01T14:03:16.442Z</time></trkpt><trkpt lat="44.259045" lon="11.760805"><ele>166.0</ele><time>2026-05-01T14:03:19.439Z</time></trkpt><trkpt lat="44.2589917" lon="11.7608783"><ele>166.0</ele><time>2026-05-01T14:03:22.439Z</time></trkpt><trkpt lat="44.2589383" lon="11.7609383"><ele>166.33333333333334</ele><time>2026-05-01T14:03:25.44Z</time></trkpt><trkpt lat="44.2588867" lon="11.7610067"><ele>166.66666666666669</ele><time>2026-05-01T14:03:28.44Z</time></trkpt><trkpt lat="44.25883" lon="11.7610833"><ele>167.0</ele><time>2026-05-01T14:03:31.439Z</time></trkpt><trkpt lat="44.2587683" lon="11.761165"><ele>167.33333333333334</ele><time>2026-05-01T14:03:34.439Z</time></trkpt><trkpt lat="44.2586983" lon="11.7612433"><ele>167.66666666666666</ele><time>2026-05-01T14:03:37.44Z</time></trkpt><trkpt lat="44.2586317" lon="11.761295"><ele>168.0</ele><time>2026-05-01T14:03:40.44Z</time></trkpt><trkpt lat="44.25855" lon="11.7613283"><ele>168.0</ele><time>2026-05-01T14:03:43.44Z</time></trkpt><trkpt lat="44.2584667" lon="11.7613683"><ele>168.0</ele><time>2026-05-01T14:03:46.441Z</time></trkpt><trkpt lat="44.2583917" lon="11.761415"><ele>168.0</ele><time>2026-05-01T14:03:49.44Z</time></trkpt><trkpt lat="44.258315" lon="11.7614567"><ele>168.0</ele><time>2026-05-01T14:03:52.44Z</time></trkpt><trkpt lat="44.2582467" lon="11.7614883"><ele>168.0</ele><time>2026-05-01T14:03:55.44Z</time></trkpt><trkpt lat="44.25818" lon="11.761505"><ele>168.0</ele><time>2026-05-01T14:03:58.439Z</time></trkpt><trkpt lat="44.2581183" lon="11.7615367"><ele>169.0</ele><time>2026-05-01T14:04:01.444Z</time></trkpt><trkpt lat="44.2580333" lon="11.7615717"><ele>170.0</ele><time>2026-05-01T14:04:04.438Z</time></trkpt><trkpt lat="44.2579567" lon="11.761625"><ele>171.0</ele><time>2026-05-01T14:04:07.439Z</time></trkpt><trkpt lat="44.2578783" lon="11.7616567"><ele>172.0</ele><time>2026-05-01T14:04:10.439Z</time></trkpt><trkpt lat="44.2578083" lon="11.7616883"><ele>173.0</ele><time>2026-05-01T14:04:13.439Z</time></trkpt><trkpt lat="44.2577317" lon="11.761715"><ele>174.0</ele><time>2026-05-01T14:04:16.443Z</time></trkpt><trkpt lat="44.2576517" lon="11.7617183"><ele>174.0</ele><time>2026-05-01T14:04:19.441Z</time></trkpt><trkpt lat="44.257575" lon="11.761705"><ele>174.0</ele><time>2026-05-01T14:04:22.441Z</time></trkpt><trkpt lat="44.2575067" lon="11.7616783"><ele>174.0</ele><time>2026-05-01T14:04:25.44Z</time></trkpt><trkpt lat="44.2574367" lon="11.76162"><ele>174.0</ele><time>2026-05-01T14:04:28.439Z</time></trkpt><trkpt lat="44.2573733" lon="11.7615567"><ele>174.0</ele><time>2026-05-01T14:04:31.439Z</time></trkpt><trkpt lat="44.2573133" lon="11.761485"><ele>174.0</ele><time>2026-05-01T14:04:34.44Z</time></trkpt><trkpt lat="44.2572433" lon="11.76142"><ele>172.16666666666666</ele><time>2026-05-01T14:04:37.439Z</time></trkpt><trkpt lat="44.2571867" lon="11.761355"><ele>170.33333333333334</ele><time>2026-05-01T14:04:40.439Z</time></trkpt><trkpt lat="44.2571133" lon="11.7612867"><ele>168.5</ele><time>2026-05-01T14:04:43.439Z</time></trkpt><trkpt lat="44.2570383" lon="11.7612217"><ele>166.66666666666669</ele><time>2026-05-01T14:04:46.443Z</time></trkpt><trkpt lat="44.2569483" lon="11.761175"><ele>164.83333333333334</ele><time>2026-05-01T14:04:49.44Z</time></trkpt><trkpt lat="44.2568767" lon="11.7611433"><ele>163.0</ele><time>2026-05-01T14:04:51.439Z</time></trkpt><trkpt lat="44.2568083" lon="11.7610983"><ele>166.16666666666669</ele><time>2026-05-01T14:04:53.439Z</time></trkpt><trkpt lat="44.25674" lon="11.7610183"><ele>169.33333333333334</ele><time>2026-05-01T14:04:56.44Z</time></trkpt><trkpt lat="44.2566867" lon="11.760955"><ele>172.5</ele><time>2026-05-01T14:04:59.44Z</time></trkpt><trkpt lat="44.2566333" lon="11.76087"><ele>175.66666666666666</ele><time>2026-05-01T14:05:03.439Z</time></trkpt><trkpt lat="44.2565917" lon="11.7608033"><ele>178.83333333333331</ele><time>2026-05-01T14:05:06.44Z</time></trkpt><trkpt lat="44.2565333" lon="11.7607233"><ele>182.0</ele><time>2026-05-01T14:05:10.44Z</time></trkpt><trkpt lat="44.2564783" lon="11.7606533"><ele>182.5</ele><time>2026-05-01T14:05:14.44Z</time></trkpt><trkpt lat="44.25643" lon="11.7605633"><ele>183.0</ele><time>2026-05-01T14:05:18.44Z</time></trkpt><trkpt lat="44.2563867" lon="11.760465"><ele>183.5</ele><time>2026-05-01T14:05:22.439Z</time></trkpt><trkpt lat="44.2563367" lon="11.76038"><ele>184.0</ele><time>2026-05-01T14:05:26.441Z</time></trkpt><trkpt lat="44.2563017" lon="11.760295"><ele>184.5</ele><time>2026-05-01T14:05:30.439Z</time></trkpt><trkpt lat="44.256255" lon="11.760205"><ele>185.0</ele><time>2026-05-01T14:05:34.44Z</time></trkpt><trkpt lat="44.2562067" lon="11.7601183"><ele>184.99999999999997</ele><time>2026-05-01T14:05:38.439Z</time></trkpt><trkpt lat="44.256165" lon="11.760045"><ele>185.0</ele><time>2026-05-01T14:05:42.442Z</time></trkpt><trkpt lat="44.2561133" lon="11.75998"><ele>185.0</ele><time>2026-05-01T14:05:46.442Z</time></trkpt><trkpt lat="44.256055" lon="11.7599367"><ele>185.0</ele><time>2026-05-01T14:05:50.44Z</time></trkpt><trkpt lat="44.255995" lon="11.7598867"><ele>185.0</ele><time>2026-05-01T14:05:54.44Z</time></trkpt><trkpt lat="44.2559533" lon="11.7598083"><ele>184.99999999999997</ele><time>2026-05-01T14:05:58.44Z</time></trkpt><trkpt lat="44.2558983" lon="11.7597533"><ele>185.0</ele><time>2026-05-01T14:06:02.439Z</time></trkpt><trkpt lat="44.25584" lon="11.759695"><ele>184.99999999999997</ele><time>2026-05-01T14:06:06.44Z</time></trkpt><trkpt lat="44.2557883" lon="11.7596317"><ele>185.0</ele><time>2026-05-01T14:06:10.44Z</time></trkpt><trkpt lat="44.2557333" lon="11.7595783"><ele>185.0</ele><time>2026-05-01T14:06:14.44Z</time></trkpt><trkpt lat="44.25569" lon="11.7594883"><ele>185.0</ele><time>2026-05-01T14:06:19.443Z</time></trkpt><trkpt lat="44.25564" lon="11.7594317"><ele>185.0</ele><time>2026-05-01T14:06:23.443Z</time></trkpt><trkpt lat="44.255595" lon="11.759355"><ele>184.99999999999997</ele><time>2026-05-01T14:06:27.441Z</time></trkpt><trkpt lat="44.2555433" lon="11.7592783"><ele>185.0</ele><time>2026-05-01T14:06:31.442Z</time></trkpt><trkpt lat="44.2554833" lon="11.7591983"><ele>185.7142857142857</ele><time>2026-05-01T14:06:35.44Z</time></trkpt><trkpt lat="44.25543" lon="11.759135"><ele>186.42857142857142</ele><time>2026-05-01T14:06:38.44Z</time></trkpt><trkpt lat="44.2553783" lon="11.7590733"><ele>187.14285714285714</ele><time>2026-05-01T14:06:41.44Z</time></trkpt><trkpt lat="44.2553183" lon="11.7590233"><ele>187.85714285714283</ele><time>2026-05-01T14:06:44.44Z</time></trkpt><trkpt lat="44.2552617" lon="11.7589717"><ele>188.57142857142858</ele><time>2026-05-01T14:06:47.442Z</time></trkpt><trkpt lat="44.2551983" lon="11.7589317"><ele>189.28571428571428</ele><time>2026-05-01T14:06:50.443Z</time></trkpt><trkpt lat="44.255135" lon="11.758885"><ele>190.0</ele><time>2026-05-01T14:08:12.441Z</time></trkpt><trkpt lat="44.25506" lon="11.758845"><ele>190.0</ele><time>2026-05-01T14:08:16.443Z</time></trkpt><trkpt lat="44.2549933" lon="11.7587933"><ele>190.0</ele><time>2026-05-01T14:08:19.443Z</time></trkpt><trkpt lat="44.2549133" lon="11.7587533"><ele>190.0</ele><time>2026-05-01T14:08:22.443Z</time></trkpt><trkpt lat="44.2548233" lon="11.7587267"><ele>190.0</ele><time>2026-05-01T14:08:25.44Z</time></trkpt><trkpt lat="44.2547267" lon="11.7587083"><ele>190.0</ele><time>2026-05-01T14:08:28.44Z</time></trkpt><trkpt lat="44.254655" lon="11.7586933"><ele>190.0</ele><time>2026-05-01T14:08:30.44Z</time></trkpt><trkpt lat="44.2545683" lon="11.7586817"><ele>189.6</ele><time>2026-05-01T14:08:32.44Z</time></trkpt><trkpt lat="44.2544733" lon="11.7586683"><ele>189.2</ele><time>2026-05-01T14:08:34.439Z</time></trkpt><trkpt lat="44.2543767" lon="11.7586617"><ele>188.8</ele><time>2026-05-01T14:08:36.439Z</time></trkpt><trkpt lat="44.254275" lon="11.7586517"><ele>188.4</ele><time>2026-05-01T14:08:38.439Z</time></trkpt><trkpt lat="44.2541733" lon="11.7586517"><ele>188.0</ele><time>2026-05-01T14:08:40.44Z</time></trkpt><trkpt lat="44.2540683" lon="11.7586617"><ele>188.0</ele><time>2026-05-01T14:08:42.443Z</time></trkpt><trkpt lat="44.2539617" lon="11.7586667"><ele>188.0</ele><time>2026-05-01T14:08:44.439Z</time></trkpt><trkpt lat="44.2538533" lon="11.758675"><ele>188.0</ele><time>2026-05-01T14:08:46.443Z</time></trkpt><trkpt lat="44.253755" lon="11.758665"><ele>188.0</ele><time>2026-05-01T14:08:48.443Z</time></trkpt><trkpt lat="44.2536533" lon="11.7586517"><ele>188.0</ele><time>2026-05-01T14:08:50.442Z</time></trkpt><trkpt lat="44.2535583" lon="11.7586383"><ele>188.33333333333331</ele><time>2026-05-01T14:08:52.442Z</time></trkpt><trkpt lat="44.2534733" lon="11.7586417"><ele>188.66666666666666</ele><time>2026-05-01T14:08:54.443Z</time></trkpt><trkpt lat="44.2534" lon="11.7586333"><ele>189.0</ele><time>2026-05-01T14:08:56.441Z</time></trkpt><trkpt lat="44.2533383" lon="11.7586017"><ele>189.33333333333334</ele><time>2026-05-01T14:08:58.441Z</time></trkpt><trkpt lat="44.2532783" lon="11.7585483"><ele>189.66666666666669</ele><time>2026-05-01T14:09:00.44Z</time></trkpt><trkpt lat="44.2532133" lon="11.75849"><ele>190.0</ele><time>2026-05-01T14:09:02.441Z</time></trkpt><trkpt lat="44.253145" lon="11.758435"><ele>190.83333333333334</ele><time>2026-05-01T14:09:04.44Z</time></trkpt><trkpt lat="44.253075" lon="11.7583817"><ele>191.66666666666669</ele><time>2026-05-01T14:09:06.44Z</time></trkpt><trkpt lat="44.2530067" lon="11.7583283"><ele>192.5</ele><time>2026-05-01T14:09:08.441Z</time></trkpt><trkpt lat="44.2529417" lon="11.7582667"><ele>193.33333333333334</ele><time>2026-05-01T14:09:10.441Z</time></trkpt><trkpt lat="44.2528733" lon="11.7582117"><ele>194.16666666666666</ele><time>2026-05-01T14:09:12.44Z</time></trkpt><trkpt lat="44.252805" lon="11.758155"><ele>195.0</ele><time>2026-05-01T14:09:14.441Z</time></trkpt><trkpt lat="44.2527367" lon="11.758095"><ele>195.0</ele><time>2026-05-01T14:09:16.444Z</time></trkpt><trkpt lat="44.252665" lon="11.75804"><ele>195.0</ele><time>2026-05-01T14:09:18.443Z</time></trkpt><trkpt lat="44.2525967" lon="11.7579883"><ele>195.0</ele><time>2026-05-01T14:09:20.444Z</time></trkpt><trkpt lat="44.2525367" lon="11.757935"><ele>195.0</ele><time>2026-05-01T14:09:22.443Z</time></trkpt><trkpt lat="44.252485" lon="11.7578833"><ele>195.0</ele><time>2026-05-01T14:09:24.444Z</time></trkpt><trkpt lat="44.25243" lon="11.757835"><ele>195.0</ele><time>2026-05-01T14:09:26.44Z</time></trkpt><trkpt lat="44.2523667" lon="11.7577917"><ele>195.0</ele><time>2026-05-01T14:09:28.441Z</time></trkpt><trkpt lat="44.2523067" lon="11.7577467"><ele>195.0</ele><time>2026-05-01T14:09:30.441Z</time></trkpt><trkpt lat="44.2522533" lon="11.7577"><ele>195.0</ele><time>2026-05-01T14:09:32.44Z</time></trkpt><trkpt lat="44.2521733" lon="11.7576317"><ele>195.0</ele><time>2026-05-01T14:09:35.44Z</time></trkpt><trkpt lat="44.2520933" lon="11.75756"><ele>195.0</ele><time>2026-05-01T14:09:38.441Z</time></trkpt><trkpt lat="44.2520333" lon="11.7575133"><ele>195.0</ele><time>2026-05-01T14:09:40.441Z</time></trkpt><trkpt lat="44.2519767" lon="11.75747"><ele>195.0</ele><time>2026-05-01T14:09:42.441Z</time></trkpt><trkpt lat="44.251895" lon="11.75741"><ele>195.0</ele><time>2026-05-01T14:09:45.44Z</time></trkpt><trkpt lat="44.2518083" lon="11.7573467"><ele>195.0</ele><time>2026-05-01T14:09:48.44Z</time></trkpt><trkpt lat="44.2517533" lon="11.7573"><ele>195.0</ele><time>2026-05-01T14:09:50.44Z</time></trkpt><trkpt lat="44.2516983" lon="11.7572567"><ele>195.0</ele><time>2026-05-01T14:09:52.441Z</time></trkpt><trkpt lat="44.25162" lon="11.7571917"><ele>195.0</ele><time>2026-05-01T14:09:55.44Z</time></trkpt><trkpt lat="44.2515617" lon="11.75715"><ele>195.0</ele><time>2026-05-01T14:09:57.442Z</time></trkpt><trkpt lat="44.2515067" lon="11.7571067"><ele>195.0</ele><time>2026-05-01T14:09:59.442Z</time></trkpt><trkpt lat="44.2514267" lon="11.757045"><ele>196.5</ele><time>2026-05-01T14:10:02.441Z</time></trkpt><trkpt lat="44.251345" lon="11.7569867"><ele>198.0</ele><time>2026-05-01T14:10:05.44Z</time></trkpt><trkpt lat="44.2512617" lon="11.75694"><ele>199.5</ele><time>2026-05-01T14:10:08.442Z</time></trkpt><trkpt lat="44.2511783" lon="11.7568883"><ele>201.0</ele><time>2026-05-01T14:10:11.439Z</time></trkpt><trkpt lat="44.2510983" lon="11.7568233"><ele>202.5</ele><time>2026-05-01T14:10:14.442Z</time></trkpt><trkpt lat="44.2510383" lon="11.7567883"><ele>204.0</ele><time>2026-05-01T14:10:16.442Z</time></trkpt><trkpt lat="44.2509717" lon="11.7567533"><ele>204.0</ele><time>2026-05-01T14:10:18.44Z</time></trkpt><trkpt lat="44.2509083" lon="11.7567233"><ele>204.0</ele><time>2026-05-01T14:10:20.438Z</time></trkpt><trkpt lat="44.2508483" lon="11.7566933"><ele>204.0</ele><time>2026-05-01T14:10:22.44Z</time></trkpt><trkpt lat="44.2507867" lon="11.75667"><ele>204.0</ele><time>2026-05-01T14:10:24.44Z</time></trkpt><trkpt lat="44.25072" lon="11.7566533"><ele>204.0</ele><time>2026-05-01T14:10:26.441Z</time></trkpt><trkpt lat="44.2506517" lon="11.75664"><ele>204.0</ele><time>2026-05-01T14:10:28.439Z</time></trkpt><trkpt lat="44.250585" lon="11.7566317"><ele>204.0</ele><time>2026-05-01T14:10:30.44Z</time></trkpt><trkpt lat="44.25052" lon="11.756615"><ele>202.16666666666666</ele><time>2026-05-01T14:10:32.44Z</time></trkpt><trkpt lat="44.2504567" lon="11.7565983"><ele>200.33333333333331</ele><time>2026-05-01T14:10:34.441Z</time></trkpt><trkpt lat="44.2503883" lon="11.7565767"><ele>198.5</ele><time>2026-05-01T14:10:36.439Z</time></trkpt><trkpt lat="44.2503217" lon="11.7565517"><ele>196.66666666666666</ele><time>2026-05-01T14:10:38.44Z</time></trkpt><trkpt lat="44.2502383" lon="11.7565167"><ele>194.83333333333331</ele><time>2026-05-01T14:10:40.439Z</time></trkpt><trkpt lat="44.2501333" lon="11.7564717"><ele>193.0</ele><time>2026-05-01T14:10:42.44Z</time></trkpt><trkpt lat="44.2500033" lon="11.7564383"><ele>192.99999999999997</ele><time>2026-05-01T14:10:44.439Z</time></trkpt><trkpt lat="44.2499283" lon="11.7564367"><ele>193.0</ele><time>2026-05-01T14:10:45.438Z</time></trkpt><trkpt lat="44.24985" lon="11.7564367"><ele>193.0</ele><time>2026-05-01T14:10:46.442Z</time></trkpt><trkpt lat="44.2497733" lon="11.7564333"><ele>193.0</ele><time>2026-05-01T14:10:47.442Z</time></trkpt><trkpt lat="44.2497" lon="11.7564017"><ele>192.99999999999997</ele><time>2026-05-01T14:10:48.439Z</time></trkpt><trkpt lat="44.249635" lon="11.7563333"><ele>193.0</ele><time>2026-05-01T14:10:49.44Z</time></trkpt><trkpt lat="44.2495567" lon="11.7562633"><ele>191.8</ele><time>2026-05-01T14:10:50.439Z</time></trkpt><trkpt lat="44.249475" lon="11.75622"><ele>190.60000000000002</ele><time>2026-05-01T14:10:51.438Z</time></trkpt><trkpt lat="44.24939" lon="11.7562167"><ele>189.39999999999998</ele><time>2026-05-01T14:10:52.44Z</time></trkpt><trkpt lat="44.2492983" lon="11.7562617"><ele>188.2</ele><time>2026-05-01T14:10:53.44Z</time></trkpt><trkpt lat="44.2492267" lon="11.7563417"><ele>187.0</ele><time>2026-05-01T14:10:54.44Z</time></trkpt><trkpt lat="44.2491583" lon="11.7564333"><ele>187.0</ele><time>2026-05-01T14:10:55.44Z</time></trkpt><trkpt lat="44.2490883" lon="11.75651"><ele>187.0</ele><time>2026-05-01T14:10:56.441Z</time></trkpt><trkpt lat="44.249005" lon="11.7565517"><ele>187.0</ele><time>2026-05-01T14:10:57.439Z</time></trkpt><trkpt lat="44.2489183" lon="11.7565483"><ele>187.0</ele><time>2026-05-01T14:10:58.441Z</time></trkpt><trkpt lat="44.248825" lon="11.756545"><ele>187.0</ele><time>2026-05-01T14:10:59.44Z</time></trkpt><trkpt lat="44.248725" lon="11.7565567"><ele>187.0</ele><time>2026-05-01T14:11:00.44Z</time></trkpt><trkpt lat="44.2486267" lon="11.7565833"><ele>187.0</ele><time>2026-05-01T14:11:01.439Z</time></trkpt><trkpt lat="44.2485283" lon="11.7566117"><ele>187.0</ele><time>2026-05-01T14:11:02.441Z</time></trkpt><trkpt lat="44.2484233" lon="11.7566183"><ele>187.0</ele><time>2026-05-01T14:11:03.441Z</time></trkpt><trkpt lat="44.2483183" lon="11.756615"><ele>187.0</ele><time>2026-05-01T14:11:04.441Z</time></trkpt><trkpt lat="44.2482083" lon="11.7566333"><ele>187.6</ele><time>2026-05-01T14:11:05.439Z</time></trkpt><trkpt lat="44.2481067" lon="11.7566817"><ele>188.2</ele><time>2026-05-01T14:11:06.441Z</time></trkpt><trkpt lat="44.2480167" lon="11.7567367"><ele>188.8</ele><time>2026-05-01T14:11:07.44Z</time></trkpt><trkpt lat="44.2479333" lon="11.7567933"><ele>189.4</ele><time>2026-05-01T14:11:08.441Z</time></trkpt><trkpt lat="44.2478517" lon="11.7568217"><ele>190.0</ele><time>2026-05-01T14:11:09.441Z</time></trkpt><trkpt lat="44.24777" lon="11.7568067"><ele>190.0</ele><time>2026-05-01T14:11:10.441Z</time></trkpt><trkpt lat="44.2476717" lon="11.756785"><ele>190.0</ele><time>2026-05-01T14:11:11.439Z</time></trkpt><trkpt lat="44.247565" lon="11.7567833"><ele>190.0</ele><time>2026-05-01T14:11:12.44Z</time></trkpt><trkpt lat="44.2474683" lon="11.756815"><ele>190.0</ele><time>2026-05-01T14:11:13.441Z</time></trkpt><trkpt lat="44.247385" lon="11.75689"><ele>190.0</ele><time>2026-05-01T14:11:14.44Z</time></trkpt><trkpt lat="44.2473217" lon="11.75699"><ele>188.16666666666669</ele><time>2026-05-01T14:11:15.44Z</time></trkpt><trkpt lat="44.2472517" lon="11.757075"><ele>186.33333333333334</ele><time>2026-05-01T14:11:16.441Z</time></trkpt><trkpt lat="44.2471717" lon="11.7571117"><ele>184.5</ele><time>2026-05-01T14:11:17.443Z</time></trkpt><trkpt lat="44.247085" lon="11.757115"><ele>182.66666666666666</ele><time>2026-05-01T14:11:18.439Z</time></trkpt><trkpt lat="44.247" lon="11.7571183"><ele>180.83333333333331</ele><time>2026-05-01T14:11:19.439Z</time></trkpt><trkpt lat="44.2469183" lon="11.7571433"><ele>179.0</ele><time>2026-05-01T14:11:20.44Z</time></trkpt><trkpt lat="44.246845" lon="11.7571983"><ele>179.0</ele><time>2026-05-01T14:11:21.44Z</time></trkpt><trkpt lat="44.246795" lon="11.7572983"><ele>179.0</ele><time>2026-05-01T14:11:22.44Z</time></trkpt><trkpt lat="44.2467617" lon="11.7573983"><ele>179.0</ele><time>2026-05-01T14:11:23.439Z</time></trkpt><trkpt lat="44.2467367" lon="11.757535"><ele>179.0</ele><time>2026-05-01T14:11:24.439Z</time></trkpt><trkpt lat="44.246725" lon="11.7576833"><ele>179.0</ele><time>2026-05-01T14:11:25.443Z</time></trkpt><trkpt lat="44.2467433" lon="11.7578517"><ele>179.25</ele><time>2026-05-01T14:11:26.439Z</time></trkpt><trkpt lat="44.2467733" lon="11.7580233"><ele>179.5</ele><time>2026-05-01T14:11:27.438Z</time></trkpt><trkpt lat="44.2468283" lon="11.7581683"><ele>179.75</ele><time>2026-05-01T14:11:28.44Z</time></trkpt><trkpt lat="44.24691" lon="11.758285"><ele>180.0</ele><time>2026-05-01T14:11:29.442Z</time></trkpt><trkpt lat="44.24701" lon="11.7583533"><ele>180.0</ele><time>2026-05-01T14:11:30.44Z</time></trkpt><trkpt lat="44.24709" lon="11.7584133"><ele>180.0</ele><time>2026-05-01T14:11:31.439Z</time></trkpt><trkpt lat="44.2471633" lon="11.7584683"><ele>180.0</ele><time>2026-05-01T14:11:32.439Z</time></trkpt><trkpt lat="44.2472133" lon="11.7585383"><ele>180.0</ele><time>2026-05-01T14:11:33.439Z</time></trkpt><trkpt lat="44.2472883" lon="11.7586533"><ele>180.0</ele><time>2026-05-01T14:11:35.439Z</time></trkpt><trkpt lat="44.2473417" lon="11.75872"><ele>180.0</ele><time>2026-05-01T14:11:37.44Z</time></trkpt><trkpt lat="44.24739" lon="11.7587983"><ele>180.0</ele><time>2026-05-01T14:11:40.439Z</time></trkpt><trkpt lat="44.2474283" lon="11.758875"><ele>180.0</ele><time>2026-05-01T14:11:43.44Z</time></trkpt><trkpt lat="44.2474633" lon="11.7589483"><ele>180.0</ele><time>2026-05-01T14:11:46.443Z</time></trkpt><trkpt lat="44.2475033" lon="11.7590433"><ele>180.0</ele><time>2026-05-01T14:11:50.44Z</time></trkpt><trkpt lat="44.2475583" lon="11.7591183"><ele>180.0</ele><time>2026-05-01T14:11:54.441Z</time></trkpt><trkpt lat="44.247585" lon="11.7592117"><ele>180.0</ele><time>2026-05-01T14:11:58.442Z</time></trkpt><trkpt lat="44.247615" lon="11.7593133"><ele>180.0</ele><time>2026-05-01T14:12:02.441Z</time></trkpt><trkpt lat="44.2476183" lon="11.7594083"><ele>180.0</ele><time>2026-05-01T14:12:06.441Z</time></trkpt><trkpt lat="44.2476283" lon="11.7595117"><ele>180.0</ele><time>2026-05-01T14:12:11.439Z</time></trkpt><trkpt lat="44.2476333" lon="11.75961"><ele>180.0</ele><time>2026-05-01T14:12:16.443Z</time></trkpt><trkpt lat="44.2476133" lon="11.7597083"><ele>180.0</ele><time>2026-05-01T14:12:22.441Z</time></trkpt><trkpt lat="44.2476033" lon="11.7598"><ele>180.0</ele><time>2026-05-01T14:12:27.442Z</time></trkpt><trkpt lat="44.2475767" lon="11.7599033"><ele>180.0</ele><time>2026-05-01T14:12:34.441Z</time></trkpt><trkpt lat="44.2475667" lon="11.7599917"><ele>180.0</ele><time>2026-05-01T14:12:38.44Z</time></trkpt><trkpt lat="44.2475433" lon="11.760075"><ele>180.0</ele><time>2026-05-01T14:12:42.441Z</time></trkpt><trkpt lat="44.2475217" lon="11.760165"><ele>180.0</ele><time>2026-05-01T14:12:47.442Z</time></trkpt><trkpt lat="44.2474783" lon="11.7602467"><ele>180.0</ele><time>2026-05-01T14:12:52.44Z</time></trkpt><trkpt lat="44.2474433" lon="11.760325"><ele>180.0</ele><time>2026-05-01T14:12:57.442Z</time></trkpt><trkpt lat="44.2474167" lon="11.760415"><ele>180.0</ele><time>2026-05-01T14:13:02.441Z</time></trkpt><trkpt lat="44.247385" lon="11.7605067"><ele>180.0</ele><time>2026-05-01T14:13:06.44Z</time></trkpt><trkpt lat="44.2473633" lon="11.7605967"><ele>180.0</ele><time>2026-05-01T14:13:11.439Z</time></trkpt><trkpt lat="44.2473483" lon="11.7606883"><ele>180.14285714285714</ele><time>2026-05-01T14:13:16.442Z</time></trkpt><trkpt lat="44.24735" lon="11.7607817"><ele>180.2857142857143</ele><time>2026-05-01T14:13:21.439Z</time></trkpt><trkpt lat="44.2473583" lon="11.7608867"><ele>180.42857142857144</ele><time>2026-05-01T14:13:26.439Z</time></trkpt><trkpt lat="44.247345" lon="11.760985"><ele>180.57142857142856</ele><time>2026-05-01T14:13:31.44Z</time></trkpt><trkpt lat="44.2473367" lon="11.7610783"><ele>180.71428571428572</ele><time>2026-05-01T14:13:36.439Z</time></trkpt><trkpt lat="44.2473267" lon="11.7611767"><ele>180.85714285714286</ele><time>2026-05-01T14:13:41.44Z</time></trkpt><trkpt lat="44.2473117" lon="11.7612817"><ele>181.0</ele><time>2026-05-01T14:13:46.442Z</time></trkpt><trkpt lat="44.24728" lon="11.761385"><ele>181.66666666666669</ele><time>2026-05-01T14:13:51.442Z</time></trkpt><trkpt lat="44.247215" lon="11.7614383"><ele>182.33333333333334</ele><time>2026-05-01T14:13:56.441Z</time></trkpt><trkpt lat="44.2471467" lon="11.7614617"><ele>183.0</ele><time>2026-05-01T14:14:00.439Z</time></trkpt><trkpt lat="44.24706" lon="11.7614833"><ele>183.66666666666666</ele><time>2026-05-01T14:14:04.44Z</time></trkpt><trkpt lat="44.2469783" lon="11.7615317"><ele>184.33333333333331</ele><time>2026-05-01T14:14:07.442Z</time></trkpt><trkpt lat="44.246895" lon="11.7615617"><ele>185.0</ele><time>2026-05-01T14:14:09.442Z</time></trkpt><trkpt lat="44.2468033" lon="11.7615283"><ele>185.0</ele><time>2026-05-01T14:14:11.439Z</time></trkpt><trkpt lat="44.2467233" lon="11.7613983"><ele>185.0</ele><time>2026-05-01T14:14:13.44Z</time></trkpt><trkpt lat="44.246685" lon="11.76132"><ele>185.0</ele><time>2026-05-01T14:14:14.441Z</time></trkpt><trkpt lat="44.2466317" lon="11.7612417"><ele>185.0</ele><time>2026-05-01T14:14:15.441Z</time></trkpt><trkpt lat="44.246575" lon="11.761165"><ele>185.0</ele><time>2026-05-01T14:14:16.443Z</time></trkpt><trkpt lat="44.24652" lon="11.7611117"><ele>185.0</ele><time>2026-05-01T14:14:17.443Z</time></trkpt><trkpt lat="44.2464517" lon="11.7610467"><ele>181.66666666666666</ele><time>2026-05-01T14:14:18.443Z</time></trkpt><trkpt lat="44.24639" lon="11.7609633"><ele>178.33333333333331</ele><time>2026-05-01T14:14:19.442Z</time></trkpt><trkpt lat="44.2463333" lon="11.7608717"><ele>175.0</ele><time>2026-05-01T14:14:20.443Z</time></trkpt><trkpt lat="44.2462683" lon="11.7607783"><ele>171.66666666666666</ele><time>2026-05-01T14:14:21.443Z</time></trkpt><trkpt lat="44.2461983" lon="11.760705"><ele>168.33333333333334</ele><time>2026-05-01T14:14:22.444Z</time></trkpt><trkpt lat="44.24613" lon="11.760635"><ele>165.0</ele><time>2026-05-01T14:14:23.443Z</time></trkpt><trkpt lat="44.24608" lon="11.76055"><ele>165.0</ele><time>2026-05-01T14:14:24.442Z</time></trkpt><trkpt lat="44.2460417" lon="11.760445"><ele>165.0</ele><time>2026-05-01T14:14:25.44Z</time></trkpt><trkpt lat="44.2460133" lon="11.76034"><ele>165.0</ele><time>2026-05-01T14:14:26.441Z</time></trkpt><trkpt lat="44.2459817" lon="11.7602417"><ele>165.0</ele><time>2026-05-01T14:14:27.439Z</time></trkpt><trkpt lat="44.245935" lon="11.7601467"><ele>165.0</ele><time>2026-05-01T14:14:28.441Z</time></trkpt><trkpt lat="44.2458717" lon="11.7600833"><ele>165.0</ele><time>2026-05-01T14:14:29.44Z</time></trkpt><trkpt lat="44.2458" lon="11.7600567"><ele>165.66666666666666</ele><time>2026-05-01T14:14:30.444Z</time></trkpt><trkpt lat="44.245725" lon="11.760065"><ele>166.33333333333334</ele><time>2026-05-01T14:14:31.44Z</time></trkpt><trkpt lat="44.2456383" lon="11.7601117"><ele>167.0</ele><time>2026-05-01T14:14:32.44Z</time></trkpt><trkpt lat="44.2455567" lon="11.76016"><ele>167.66666666666669</ele><time>2026-05-01T14:14:33.439Z</time></trkpt><trkpt lat="44.2454733" lon="11.7602067"><ele>168.33333333333334</ele><time>2026-05-01T14:14:34.44Z</time></trkpt><trkpt lat="44.24538" lon="11.76023"><ele>169.0</ele><time>2026-05-01T14:14:35.441Z</time></trkpt><trkpt lat="44.2452933" lon="11.7602267"><ele>166.0</ele><time>2026-05-01T14:14:36.441Z</time></trkpt><trkpt lat="44.2452183" lon="11.76023"><ele>163.0</ele><time>2026-05-01T14:14:37.442Z</time></trkpt><trkpt lat="44.24515" lon="11.7602617"><ele>160.0</ele><time>2026-05-01T14:14:38.44Z</time></trkpt><trkpt lat="44.2451" lon="11.76032"><ele>157.0</ele><time>2026-05-01T14:14:39.44Z</time></trkpt><trkpt lat="44.2451017" lon="11.7604817"><ele>154.0</ele><time>2026-05-01T14:14:41.439Z</time></trkpt><trkpt lat="44.2451867" lon="11.76057"><ele>151.0</ele><time>2026-05-01T14:14:43.441Z</time></trkpt><trkpt lat="44.245285" lon="11.7605617"><ele>151.0</ele><time>2026-05-01T14:14:44.44Z</time></trkpt><trkpt lat="44.2453717" lon="11.760555"><ele>151.0</ele><time>2026-05-01T14:14:45.441Z</time></trkpt><trkpt lat="44.24548" lon="11.7605567"><ele>151.0</ele><time>2026-05-01T14:14:46.439Z</time></trkpt><trkpt lat="44.2456083" lon="11.760575"><ele>151.0</ele><time>2026-05-01T14:14:47.439Z</time></trkpt><trkpt lat="44.2456917" lon="11.7606267"><ele>151.0</ele><time>2026-05-01T14:14:48.442Z</time></trkpt><trkpt lat="44.24576" lon="11.760705"><ele>153.16666666666669</ele><time>2026-05-01T14:14:49.443Z</time></trkpt><trkpt lat="44.2458033" lon="11.7608283"><ele>155.33333333333334</ele><time>2026-05-01T14:14:50.442Z</time></trkpt><trkpt lat="44.2458467" lon="11.76093"><ele>157.5</ele><time>2026-05-01T14:14:51.442Z</time></trkpt><trkpt lat="44.24587" lon="11.76104"><ele>159.66666666666666</ele><time>2026-05-01T14:14:52.443Z</time></trkpt><trkpt lat="44.2458917" lon="11.76113"><ele>161.83333333333331</ele><time>2026-05-01T14:14:53.439Z</time></trkpt><trkpt lat="44.2458867" lon="11.7612483"><ele>164.0</ele><time>2026-05-01T14:14:54.44Z</time></trkpt><trkpt lat="44.2458017" lon="11.7613817"><ele>164.0</ele><time>2026-05-01T14:14:56.44Z</time></trkpt><trkpt lat="44.2457267" lon="11.7613917"><ele>164.0</ele><time>2026-05-01T14:14:57.44Z</time></trkpt><trkpt lat="44.2456367" lon="11.76138"><ele>164.0</ele><time>2026-05-01T14:14:58.44Z</time></trkpt><trkpt lat="44.24554" lon="11.7613833"><ele>164.0</ele><time>2026-05-01T14:14:59.439Z</time></trkpt><trkpt lat="44.2454483" lon="11.7613883"><ele>164.0</ele><time>2026-05-01T14:15:00.439Z</time></trkpt><trkpt lat="44.245375" lon="11.7614617"><ele>164.0</ele><time>2026-05-01T14:15:01.439Z</time></trkpt><trkpt lat="44.24532" lon="11.7615567"><ele>162.5</ele><time>2026-05-01T14:15:02.44Z</time></trkpt><trkpt lat="44.2452917" lon="11.76167"><ele>161.0</ele><time>2026-05-01T14:15:03.439Z</time></trkpt><trkpt lat="44.245285" lon="11.761795"><ele>159.5</ele><time>2026-05-01T14:15:04.439Z</time></trkpt><trkpt lat="44.2452817" lon="11.761925"><ele>158.0</ele><time>2026-05-01T14:15:05.443Z</time></trkpt><trkpt lat="44.2452767" lon="11.7620567"><ele>156.5</ele><time>2026-05-01T14:15:06.442Z</time></trkpt><trkpt lat="44.2452683" lon="11.7621667"><ele>155.0</ele><time>2026-05-01T14:15:07.44Z</time></trkpt><trkpt lat="44.24524" lon="11.7622533"><ele>155.0</ele><time>2026-05-01T14:15:08.442Z</time></trkpt><trkpt lat="44.245145" lon="11.7623167"><ele>155.0</ele><time>2026-05-01T14:15:10.441Z</time></trkpt><trkpt lat="44.2450267" lon="11.7622217"><ele>155.0</ele><time>2026-05-01T14:15:12.44Z</time></trkpt><trkpt lat="44.24497" lon="11.7620917"><ele>155.0</ele><time>2026-05-01T14:15:13.44Z</time></trkpt><trkpt lat="44.2449133" lon="11.761975"><ele>155.0</ele><time>2026-05-01T14:15:14.44Z</time></trkpt><trkpt lat="44.244835" lon="11.7618683"><ele>155.0</ele><time>2026-05-01T14:15:15.44Z</time></trkpt><trkpt lat="44.2447517" lon="11.7617783"><ele>155.0</ele><time>2026-05-01T14:15:16.443Z</time></trkpt><trkpt lat="44.2446783" lon="11.761675"><ele>155.0</ele><time>2026-05-01T14:15:17.442Z</time></trkpt><trkpt lat="44.2446" lon="11.7615883"><ele>155.0</ele><time>2026-05-01T14:15:18.443Z</time></trkpt><trkpt lat="44.2445117" lon="11.7615167"><ele>153.6</ele><time>2026-05-01T14:15:19.439Z</time></trkpt><trkpt lat="44.2444167" lon="11.7614483"><ele>152.2</ele><time>2026-05-01T14:15:20.441Z</time></trkpt><trkpt lat="44.2443217" lon="11.7613867"><ele>150.8</ele><time>2026-05-01T14:15:21.439Z</time></trkpt><trkpt lat="44.2442217" lon="11.761325"><ele>149.4</ele><time>2026-05-01T14:15:22.441Z</time></trkpt><trkpt lat="44.2441283" lon="11.761265"><ele>148.0</ele><time>2026-05-01T14:15:23.439Z</time></trkpt><trkpt lat="44.244035" lon="11.76121"><ele>149.4</ele><time>2026-05-01T14:15:24.44Z</time></trkpt><trkpt lat="44.2439383" lon="11.761155"><ele>150.8</ele><time>2026-05-01T14:15:25.441Z</time></trkpt><trkpt lat="44.2438417" lon="11.7611033"><ele>152.2</ele><time>2026-05-01T14:15:26.44Z</time></trkpt><trkpt lat="44.2437467" lon="11.7610583"><ele>153.6</ele><time>2026-05-01T14:15:27.441Z</time></trkpt><trkpt lat="44.24365" lon="11.76101"><ele>155.0</ele><time>2026-05-01T14:15:28.44Z</time></trkpt><trkpt lat="44.2435533" lon="11.7609583"><ele>153.4</ele><time>2026-05-01T14:15:29.441Z</time></trkpt><trkpt lat="44.24346" lon="11.7608933"><ele>151.8</ele><time>2026-05-01T14:15:30.441Z</time></trkpt><trkpt lat="44.2433667" lon="11.76082"><ele>150.2</ele><time>2026-05-01T14:15:31.44Z</time></trkpt><trkpt lat="44.2432783" lon="11.7607367"><ele>148.6</ele><time>2026-05-01T14:15:32.441Z</time></trkpt><trkpt lat="44.24319" lon="11.7606483"><ele>147.0</ele><time>2026-05-01T14:15:33.441Z</time></trkpt><trkpt lat="44.243105" lon="11.76056"><ele>147.0</ele><time>2026-05-01T14:15:34.441Z</time></trkpt><trkpt lat="44.2430133" lon="11.76047"><ele>147.0</ele><time>2026-05-01T14:15:35.439Z</time></trkpt><trkpt lat="44.2429267" lon="11.760385"><ele>147.0</ele><time>2026-05-01T14:15:36.44Z</time></trkpt><trkpt lat="44.2428417" lon="11.7602983"><ele>147.0</ele><time>2026-05-01T14:15:37.44Z</time></trkpt><trkpt lat="44.24276" lon="11.76021"><ele>147.0</ele><time>2026-05-01T14:15:38.44Z</time></trkpt><trkpt lat="44.24268" lon="11.76013"><ele>143.4</ele><time>2026-05-01T14:15:39.439Z</time></trkpt><trkpt lat="44.2425967" lon="11.7600567"><ele>139.79999999999998</ele><time>2026-05-01T14:15:40.441Z</time></trkpt><trkpt lat="44.24251" lon="11.7599883"><ele>136.2</ele><time>2026-05-01T14:15:41.441Z</time></trkpt><trkpt lat="44.24242" lon="11.7599367"><ele>132.6</ele><time>2026-05-01T14:15:42.441Z</time></trkpt><trkpt lat="44.2423267" lon="11.7599033"><ele>129.0</ele><time>2026-05-01T14:15:43.442Z</time></trkpt><trkpt lat="44.24223" lon="11.7598967"><ele>128.0</ele><time>2026-05-01T14:15:44.441Z</time></trkpt><trkpt lat="44.2421317" lon="11.7599117"><ele>127.0</ele><time>2026-05-01T14:15:45.441Z</time></trkpt><trkpt lat="44.2420417" lon="11.7599533"><ele>126.0</ele><time>2026-05-01T14:15:46.443Z</time></trkpt><trkpt lat="44.2419467" lon="11.76"><ele>125.0</ele><time>2026-05-01T14:15:47.441Z</time></trkpt><trkpt lat="44.241855" lon="11.7600433"><ele>124.0</ele><time>2026-05-01T14:15:48.441Z</time></trkpt><trkpt lat="44.2417617" lon="11.7600867"><ele>124.0</ele><time>2026-05-01T14:15:49.441Z</time></trkpt><trkpt lat="44.2416733" lon="11.7601333"><ele>124.0</ele><time>2026-05-01T14:15:50.441Z</time></trkpt><trkpt lat="44.2415833" lon="11.7601783"><ele>124.0</ele><time>2026-05-01T14:15:51.443Z</time></trkpt><trkpt lat="44.2414933" lon="11.7602267"><ele>124.0</ele><time>2026-05-01T14:15:52.44Z</time></trkpt><trkpt lat="44.24141" lon="11.7602733"><ele>124.0</ele><time>2026-05-01T14:15:53.44Z</time></trkpt><trkpt lat="44.241325" lon="11.7603233"><ele>123.66666666666667</ele><time>2026-05-01T14:15:54.44Z</time></trkpt><trkpt lat="44.2412433" lon="11.760375"><ele>123.33333333333334</ele><time>2026-05-01T14:15:55.441Z</time></trkpt><trkpt lat="44.2411667" lon="11.7604317"><ele>123.0</ele><time>2026-05-01T14:15:56.441Z</time></trkpt><trkpt lat="44.2410883" lon="11.760485"><ele>122.66666666666666</ele><time>2026-05-01T14:15:57.441Z</time></trkpt><trkpt lat="44.2410167" lon="11.760545"><ele>122.33333333333333</ele><time>2026-05-01T14:15:58.441Z</time></trkpt><trkpt lat="44.240945" lon="11.760605"><ele>122.0</ele><time>2026-05-01T14:15:59.44Z</time></trkpt><trkpt lat="44.240875" lon="11.7606667"><ele>121.99999999999999</ele><time>2026-05-01T14:16:00.442Z</time></trkpt><trkpt lat="44.2408017" lon="11.7607317"><ele>122.0</ele><time>2026-05-01T14:16:01.441Z</time></trkpt><trkpt lat="44.2407333" lon="11.7607983"><ele>122.0</ele><time>2026-05-01T14:16:02.44Z</time></trkpt><trkpt lat="44.240665" lon="11.76086"><ele>122.0</ele><time>2026-05-01T14:16:03.44Z</time></trkpt><trkpt lat="44.2405967" lon="11.7609083"><ele>121.99999999999999</ele><time>2026-05-01T14:16:04.441Z</time></trkpt><trkpt lat="44.2405283" lon="11.76095"><ele>122.0</ele><time>2026-05-01T14:16:05.44Z</time></trkpt><trkpt lat="44.2404633" lon="11.7609983"><ele>121.33333333333333</ele><time>2026-05-01T14:16:06.44Z</time></trkpt><trkpt lat="44.2404017" lon="11.76105"><ele>120.66666666666666</ele><time>2026-05-01T14:16:07.44Z</time></trkpt><trkpt lat="44.2403417" lon="11.761105"><ele>120.0</ele><time>2026-05-01T14:16:08.44Z</time></trkpt><trkpt lat="44.2402817" lon="11.761155"><ele>119.33333333333334</ele><time>2026-05-01T14:16:09.44Z</time></trkpt><trkpt lat="44.2402267" lon="11.7612017"><ele>118.66666666666667</ele><time>2026-05-01T14:16:10.44Z</time></trkpt><trkpt lat="44.2401733" lon="11.7612517"><ele>118.0</ele><time>2026-05-01T14:16:11.44Z</time></trkpt><trkpt lat="44.2400833" lon="11.7613617"><ele>118.00000000000001</ele><time>2026-05-01T14:16:13.441Z</time></trkpt><trkpt lat="44.2400117" lon="11.7614967"><ele>118.0</ele><time>2026-05-01T14:16:15.44Z</time></trkpt><trkpt lat="44.2399683" lon="11.7615767"><ele>118.0</ele><time>2026-05-01T14:16:16.44Z</time></trkpt><trkpt lat="44.23992" lon="11.7616433"><ele>118.0</ele><time>2026-05-01T14:16:17.441Z</time></trkpt><trkpt lat="44.2398517" lon="11.7616883"><ele>118.00000000000001</ele><time>2026-05-01T14:16:18.442Z</time></trkpt><trkpt lat="44.2397783" lon="11.76171"><ele>118.0</ele><time>2026-05-01T14:16:19.441Z</time></trkpt><trkpt lat="44.2397133" lon="11.7617167"><ele>118.33333333333334</ele><time>2026-05-01T14:16:20.441Z</time></trkpt><trkpt lat="44.2396183" lon="11.761745"><ele>118.66666666666667</ele><time>2026-05-01T14:16:22.44Z</time></trkpt><trkpt lat="44.23957" lon="11.7618017"><ele>119.0</ele><time>2026-05-01T14:16:24.441Z</time></trkpt><trkpt lat="44.2395883" lon="11.7619083"><ele>119.33333333333334</ele><time>2026-05-01T14:17:12.441Z</time></trkpt><trkpt lat="44.23958" lon="11.7620483"><ele>119.66666666666667</ele><time>2026-05-01T14:17:15.441Z</time></trkpt><trkpt lat="44.239585" lon="11.7621617"><ele>120.0</ele><time>2026-05-01T14:17:17.441Z</time></trkpt><trkpt lat="44.2396" lon="11.7622917"><ele>120.0</ele><time>2026-05-01T14:17:19.441Z</time></trkpt><trkpt lat="44.2396083" lon="11.7624317"><ele>120.0</ele><time>2026-05-01T14:17:21.441Z</time></trkpt><trkpt lat="44.239595" lon="11.762575"><ele>120.0</ele><time>2026-05-01T14:17:23.442Z</time></trkpt><trkpt lat="44.2395567" lon="11.76271"><ele>120.0</ele><time>2026-05-01T14:17:25.442Z</time></trkpt><trkpt lat="44.2395217" lon="11.762855"><ele>120.0</ele><time>2026-05-01T14:17:27.441Z</time></trkpt><trkpt lat="44.2394783" lon="11.7630117"><ele>118.8</ele><time>2026-05-01T14:17:29.442Z</time></trkpt><trkpt lat="44.2394283" lon="11.7631783"><ele>117.6</ele><time>2026-05-01T14:17:31.44Z</time></trkpt><trkpt lat="44.2394017" lon="11.7632617"><ele>116.4</ele><time>2026-05-01T14:17:32.441Z</time></trkpt><trkpt lat="44.239345" lon="11.7634017"><ele>115.2</ele><time>2026-05-01T14:17:34.442Z</time></trkpt><trkpt lat="44.2392833" lon="11.7635533"><ele>114.0</ele><time>2026-05-01T14:17:36.442Z</time></trkpt><trkpt lat="44.2392533" lon="11.7636333"><ele>113.6</ele><time>2026-05-01T14:17:37.441Z</time></trkpt><trkpt lat="44.23922" lon="11.7637117"><ele>113.2</ele><time>2026-05-01T14:17:38.441Z</time></trkpt><trkpt lat="44.2391633" lon="11.7638617"><ele>112.79999999999998</ele><time>2026-05-01T14:17:40.442Z</time></trkpt><trkpt lat="44.23911" lon="11.7640167"><ele>112.39999999999999</ele><time>2026-05-01T14:17:42.441Z</time></trkpt><trkpt lat="44.2390533" lon="11.764165"><ele>112.0</ele><time>2026-05-01T14:17:44.442Z</time></trkpt><trkpt lat="44.2389983" lon="11.7643167"><ele>111.75</ele><time>2026-05-01T14:17:46.441Z</time></trkpt><trkpt lat="44.2389233" lon="11.7644567"><ele>111.5</ele><time>2026-05-01T14:17:48.441Z</time></trkpt><trkpt lat="44.2388467" lon="11.76459"><ele>111.25</ele><time>2026-05-01T14:17:50.441Z</time></trkpt><trkpt lat="44.2387683" lon="11.7647133"><ele>111.0</ele><time>2026-05-01T14:17:52.44Z</time></trkpt><trkpt lat="44.2386883" lon="11.7648433"><ele>111.0</ele><time>2026-05-01T14:17:54.441Z</time></trkpt><trkpt lat="44.2386033" lon="11.7649733"><ele>111.0</ele><time>2026-05-01T14:17:56.441Z</time></trkpt><trkpt lat="44.238555" lon="11.7650383"><ele>111.0</ele><time>2026-05-01T14:17:57.441Z</time></trkpt><trkpt lat="44.2385067" lon="11.7651033"><ele>111.0</ele><time>2026-05-01T14:17:58.442Z</time></trkpt><trkpt lat="44.2384617" lon="11.7651717"><ele>111.0</ele><time>2026-05-01T14:17:59.441Z</time></trkpt><trkpt lat="44.238415" lon="11.7652467"><ele>111.0</ele><time>2026-05-01T14:18:00.44Z</time></trkpt><trkpt lat="44.2383683" lon="11.7653183"><ele>110.71428571428571</ele><time>2026-05-01T14:18:01.442Z</time></trkpt><trkpt lat="44.2383217" lon="11.765395"><ele>110.42857142857143</ele><time>2026-05-01T14:18:02.44Z</time></trkpt><trkpt lat="44.2382733" lon="11.7654717"><ele>110.14285714285714</ele><time>2026-05-01T14:18:03.441Z</time></trkpt><trkpt lat="44.238225" lon="11.7655467"><ele>109.85714285714286</ele><time>2026-05-01T14:18:04.44Z</time></trkpt><trkpt lat="44.238175" lon="11.76562"><ele>109.57142857142858</ele><time>2026-05-01T14:18:05.441Z</time></trkpt><trkpt lat="44.2381283" lon="11.7656867"><ele>109.28571428571429</ele><time>2026-05-01T14:18:06.441Z</time></trkpt><trkpt lat="44.2380833" lon="11.7657517"><ele>109.0</ele><time>2026-05-01T14:18:07.441Z</time></trkpt><trkpt lat="44.23804" lon="11.76582"><ele>109.0</ele><time>2026-05-01T14:18:08.442Z</time></trkpt><trkpt lat="44.2379983" lon="11.765895"><ele>109.0</ele><time>2026-05-01T14:18:09.441Z</time></trkpt><trkpt lat="44.2379583" lon="11.76597"><ele>109.0</ele><time>2026-05-01T14:18:10.443Z</time></trkpt><trkpt lat="44.2379183" lon="11.7660433"><ele>109.0</ele><time>2026-05-01T14:18:11.441Z</time></trkpt><trkpt lat="44.237885" lon="11.7661333"><ele>109.0</ele><time>2026-05-01T14:18:12.44Z</time></trkpt><trkpt lat="44.2378583" lon="11.7662233"><ele>109.0</ele><time>2026-05-01T14:18:13.44Z</time></trkpt><trkpt lat="44.2378383" lon="11.7663117"><ele>109.0</ele><time>2026-05-01T14:18:14.44Z</time></trkpt><trkpt lat="44.2378183" lon="11.7664017"><ele>109.0</ele><time>2026-05-01T14:18:15.44Z</time></trkpt><trkpt lat="44.2377967" lon="11.7664933"><ele>109.0</ele><time>2026-05-01T14:18:16.442Z</time></trkpt><trkpt lat="44.2377633" lon="11.7665817"><ele>109.0</ele><time>2026-05-01T14:18:17.444Z</time></trkpt><trkpt lat="44.237725" lon="11.7666617"><ele>109.0</ele><time>2026-05-01T14:18:18.441Z</time></trkpt><trkpt lat="44.2376767" lon="11.766735"><ele>109.0</ele><time>2026-05-01T14:18:19.444Z</time></trkpt><trkpt lat="44.237625" lon="11.7667983"><ele>109.0</ele><time>2026-05-01T14:18:20.444Z</time></trkpt><trkpt lat="44.23757" lon="11.766855"><ele>109.0</ele><time>2026-05-01T14:18:21.442Z</time></trkpt><trkpt lat="44.2375133" lon="11.7669183"><ele>108.50000000000001</ele><time>2026-05-01T14:18:22.443Z</time></trkpt><trkpt lat="44.237455" lon="11.7669817"><ele>108.0</ele><time>2026-05-01T14:18:23.444Z</time></trkpt><trkpt lat="44.2374017" lon="11.7670383"><ele>107.5</ele><time>2026-05-01T14:18:24.442Z</time></trkpt><trkpt lat="44.23735" lon="11.7670917"><ele>107.0</ele><time>2026-05-01T14:18:25.441Z</time></trkpt><trkpt lat="44.23725" lon="11.7672183"><ele>106.50000000000001</ele><time>2026-05-01T14:18:27.44Z</time></trkpt><trkpt lat="44.2372" lon="11.7672783"><ele>106.0</ele><time>2026-05-01T14:18:28.439Z</time></trkpt><trkpt lat="44.2371483" lon="11.7673467"><ele>105.71428571428572</ele><time>2026-05-01T14:18:29.44Z</time></trkpt><trkpt lat="44.2371033" lon="11.76742"><ele>105.42857142857142</ele><time>2026-05-01T14:18:30.44Z</time></trkpt><trkpt lat="44.237065" lon="11.7675"><ele>105.14285714285714</ele><time>2026-05-01T14:18:31.439Z</time></trkpt><trkpt lat="44.2370283" lon="11.767585"><ele>104.85714285714286</ele><time>2026-05-01T14:18:32.439Z</time></trkpt><trkpt lat="44.2369933" lon="11.76769"><ele>104.57142857142858</ele><time>2026-05-01T14:18:33.441Z</time></trkpt><trkpt lat="44.2369617" lon="11.7677767"><ele>104.28571428571428</ele><time>2026-05-01T14:18:34.441Z</time></trkpt><trkpt lat="44.23693" lon="11.767865"><ele>104.0</ele><time>2026-05-01T14:18:35.439Z</time></trkpt><trkpt lat="44.2369017" lon="11.7679517"><ele>104.0</ele><time>2026-05-01T14:18:36.438Z</time></trkpt><trkpt lat="44.2368733" lon="11.7680367"><ele>104.0</ele><time>2026-05-01T14:18:37.44Z</time></trkpt><trkpt lat="44.2368383" lon="11.7681117"><ele>104.0</ele><time>2026-05-01T14:18:38.44Z</time></trkpt><trkpt lat="44.2368033" lon="11.7681867"><ele>104.0</ele><time>2026-05-01T14:18:39.439Z</time></trkpt><trkpt lat="44.2367633" lon="11.768255"><ele>104.0</ele><time>2026-05-01T14:18:40.439Z</time></trkpt><trkpt lat="44.2367267" lon="11.7683267"><ele>104.0</ele><time>2026-05-01T14:18:41.438Z</time></trkpt><trkpt lat="44.2366867" lon="11.768405"><ele>104.0</ele><time>2026-05-01T14:18:42.439Z</time></trkpt><trkpt lat="44.2366483" lon="11.768475"><ele>104.0</ele><time>2026-05-01T14:18:43.44Z</time></trkpt><trkpt lat="44.2365733" lon="11.7686183"><ele>104.0</ele><time>2026-05-01T14:18:45.438Z</time></trkpt><trkpt lat="44.236535" lon="11.768695"><ele>104.0</ele><time>2026-05-01T14:18:46.441Z</time></trkpt><trkpt lat="44.236495" lon="11.7687683"><ele>104.0</ele><time>2026-05-01T14:18:47.438Z</time></trkpt><trkpt lat="44.2364283" lon="11.7689117"><ele>104.0</ele><time>2026-05-01T14:18:49.442Z</time></trkpt><trkpt lat="44.236395" lon="11.7689967"><ele>104.4</ele><time>2026-05-01T14:18:50.442Z</time></trkpt><trkpt lat="44.23636" lon="11.7690717"><ele>104.80000000000001</ele><time>2026-05-01T14:18:51.441Z</time></trkpt><trkpt lat="44.236325" lon="11.7691467"><ele>105.19999999999999</ele><time>2026-05-01T14:18:52.441Z</time></trkpt><trkpt lat="44.2362683" lon="11.769305"><ele>105.6</ele><time>2026-05-01T14:18:54.442Z</time></trkpt><trkpt lat="44.2362167" lon="11.76946"><ele>106.0</ele><time>2026-05-01T14:18:56.442Z</time></trkpt><trkpt lat="44.2361717" lon="11.7696067"><ele>106.0</ele><time>2026-05-01T14:18:58.441Z</time></trkpt><trkpt lat="44.2361317" lon="11.769745"><ele>106.0</ele><time>2026-05-01T14:19:00.442Z</time></trkpt><trkpt lat="44.2361117" lon="11.7698833"><ele>106.0</ele><time>2026-05-01T14:19:02.441Z</time></trkpt><trkpt lat="44.2360867" lon="11.7700483"><ele>106.0</ele><time>2026-05-01T14:19:04.44Z</time></trkpt><trkpt lat="44.2360667" lon="11.770135"><ele>106.0</ele><time>2026-05-01T14:19:05.442Z</time></trkpt><trkpt lat="44.236045" lon="11.77022"><ele>105.42857142857143</ele><time>2026-05-01T14:19:06.443Z</time></trkpt><trkpt lat="44.2360083" lon="11.7703083"><ele>104.85714285714285</ele><time>2026-05-01T14:19:07.441Z</time></trkpt><trkpt lat="44.2359767" lon="11.7703967"><ele>104.28571428571428</ele><time>2026-05-01T14:19:08.441Z</time></trkpt><trkpt lat="44.2359433" lon="11.7704833"><ele>103.71428571428572</ele><time>2026-05-01T14:19:09.441Z</time></trkpt><trkpt lat="44.23591" lon="11.77057"><ele>103.14285714285714</ele><time>2026-05-01T14:19:10.442Z</time></trkpt><trkpt lat="44.2358817" lon="11.7706533"><ele>102.57142857142857</ele><time>2026-05-01T14:19:11.44Z</time></trkpt><trkpt lat="44.2358467" lon="11.7707317"><ele>102.0</ele><time>2026-05-01T14:19:12.442Z</time></trkpt><trkpt lat="44.2358083" lon="11.770815"><ele>102.0</ele><time>2026-05-01T14:19:13.442Z</time></trkpt><trkpt lat="44.2357733" lon="11.7708983"><ele>102.0</ele><time>2026-05-01T14:19:14.441Z</time></trkpt><trkpt lat="44.2357367" lon="11.7709833"><ele>102.0</ele><time>2026-05-01T14:19:15.441Z</time></trkpt><trkpt lat="44.2356983" lon="11.7710667"><ele>102.0</ele><time>2026-05-01T14:19:16.44Z</time></trkpt><trkpt lat="44.23566" lon="11.77115"><ele>102.0</ele><time>2026-05-01T14:19:17.44Z</time></trkpt><trkpt lat="44.2356217" lon="11.7712367"><ele>102.0</ele><time>2026-05-01T14:19:18.442Z</time></trkpt><trkpt lat="44.2355833" lon="11.77132"><ele>102.0</ele><time>2026-05-01T14:19:19.442Z</time></trkpt><trkpt lat="44.2355433" lon="11.7714"><ele>102.28571428571429</ele><time>2026-05-01T14:19:20.442Z</time></trkpt><trkpt lat="44.2355033" lon="11.7714833"><ele>102.57142857142858</ele><time>2026-05-01T14:19:21.443Z</time></trkpt><trkpt lat="44.2354617" lon="11.7715633"><ele>102.85714285714286</ele><time>2026-05-01T14:19:22.442Z</time></trkpt><trkpt lat="44.2354217" lon="11.7716417"><ele>103.14285714285714</ele><time>2026-05-01T14:19:23.442Z</time></trkpt><trkpt lat="44.23538" lon="11.7717233"><ele>103.42857142857143</ele><time>2026-05-01T14:19:24.442Z</time></trkpt><trkpt lat="44.2353417" lon="11.771805"><ele>103.71428571428571</ele><time>2026-05-01T14:19:25.441Z</time></trkpt><trkpt lat="44.235305" lon="11.7718917"><ele>104.0</ele><time>2026-05-01T14:19:26.441Z</time></trkpt><trkpt lat="44.23527" lon="11.7719683"><ele>103.14285714285714</ele><time>2026-05-01T14:19:27.441Z</time></trkpt><trkpt lat="44.2352317" lon="11.77205"><ele>102.28571428571429</ele><time>2026-05-01T14:19:28.44Z</time></trkpt><trkpt lat="44.2351867" lon="11.7721283"><ele>101.42857142857143</ele><time>2026-05-01T14:19:29.442Z</time></trkpt><trkpt lat="44.2351433" lon="11.7722083"><ele>100.57142857142857</ele><time>2026-05-01T14:19:30.441Z</time></trkpt><trkpt lat="44.2351067" lon="11.7722933"><ele>99.71428571428572</ele><time>2026-05-01T14:19:31.441Z</time></trkpt><trkpt lat="44.235075" lon="11.7723817"><ele>98.85714285714286</ele><time>2026-05-01T14:19:32.442Z</time></trkpt><trkpt lat="44.2350383" lon="11.7724617"><ele>98.0</ele><time>2026-05-01T14:19:33.441Z</time></trkpt><trkpt lat="44.2349983" lon="11.772535"><ele>98.0</ele><time>2026-05-01T14:19:34.442Z</time></trkpt><trkpt lat="44.2349617" lon="11.772615"><ele>98.0</ele><time>2026-05-01T14:19:35.441Z</time></trkpt><trkpt lat="44.2349217" lon="11.7726917"><ele>98.0</ele><time>2026-05-01T14:19:36.443Z</time></trkpt><trkpt lat="44.2348867" lon="11.772775"><ele>98.0</ele><time>2026-05-01T14:19:37.442Z</time></trkpt><trkpt lat="44.2348517" lon="11.7728583"><ele>98.0</ele><time>2026-05-01T14:19:38.442Z</time></trkpt><trkpt lat="44.2348183" lon="11.7729433"><ele>98.0</ele><time>2026-05-01T14:19:39.442Z</time></trkpt><trkpt lat="44.2347917" lon="11.77303"><ele>98.0</ele><time>2026-05-01T14:19:40.442Z</time></trkpt><trkpt lat="44.2347717" lon="11.773125"><ele>97.99999999999999</ele><time>2026-05-01T14:19:41.441Z</time></trkpt><trkpt lat="44.2347483" lon="11.7732133"><ele>98.0</ele><time>2026-05-01T14:19:42.442Z</time></trkpt><trkpt lat="44.2347267" lon="11.7733033"><ele>98.0</ele><time>2026-05-01T14:19:43.441Z</time></trkpt><trkpt lat="44.2346817" lon="11.7734717"><ele>98.0</ele><time>2026-05-01T14:19:45.443Z</time></trkpt><trkpt lat="44.2346517" lon="11.7735583"><ele>97.99999999999999</ele><time>2026-05-01T14:19:46.44Z</time></trkpt><trkpt lat="44.2346283" lon="11.7736417"><ele>98.0</ele><time>2026-05-01T14:19:47.44Z</time></trkpt><trkpt lat="44.2346117" lon="11.7737267"><ele>98.0</ele><time>2026-05-01T14:19:48.441Z</time></trkpt><trkpt lat="44.2345683" lon="11.7738833"><ele>98.0</ele><time>2026-05-01T14:19:50.442Z</time></trkpt><trkpt lat="44.23458" lon="11.7740533"><ele>98.0</ele><time>2026-05-01T14:19:52.442Z</time></trkpt><trkpt lat="44.2346083" lon="11.7741383"><ele>98.0</ele><time>2026-05-01T14:19:53.443Z</time></trkpt><trkpt lat="44.23464" lon="11.7742183"><ele>98.0</ele><time>2026-05-01T14:19:54.441Z</time></trkpt><trkpt lat="44.2347" lon="11.77428"><ele>97.99999999999999</ele><time>2026-05-01T14:19:55.44Z</time></trkpt><trkpt lat="44.2347583" lon="11.7743367"><ele>98.0</ele><time>2026-05-01T14:19:56.441Z</time></trkpt><trkpt lat="44.234805" lon="11.7744017"><ele>98.0</ele><time>2026-05-01T14:19:57.439Z</time></trkpt><trkpt lat="44.2348383" lon="11.7744833"><ele>98.0</ele><time>2026-05-01T14:19:58.439Z</time></trkpt><trkpt lat="44.234855" lon="11.7746517"><ele>97.99999999999999</ele><time>2026-05-01T14:20:00.439Z</time></trkpt><trkpt lat="44.2348433" lon="11.7747383"><ele>98.0</ele><time>2026-05-01T14:20:01.439Z</time></trkpt><trkpt lat="44.23481" lon="11.7748317"><ele>97.49999999999999</ele><time>2026-05-01T14:20:02.439Z</time></trkpt><trkpt lat="44.234785" lon="11.77493"><ele>97.0</ele><time>2026-05-01T14:20:03.44Z</time></trkpt><trkpt lat="44.234755" lon="11.7750267"><ele>96.5</ele><time>2026-05-01T14:20:04.44Z</time></trkpt><trkpt lat="44.2347333" lon="11.775125"><ele>96.0</ele><time>2026-05-01T14:20:05.439Z</time></trkpt><trkpt lat="44.234715" lon="11.7752267"><ele>95.5</ele><time>2026-05-01T14:20:06.44Z</time></trkpt><trkpt lat="44.2346967" lon="11.775335"><ele>95.0</ele><time>2026-05-01T14:20:07.44Z</time></trkpt><trkpt lat="44.2346833" lon="11.7754417"><ele>94.5</ele><time>2026-05-01T14:20:08.44Z</time></trkpt><trkpt lat="44.2346717" lon="11.77555"><ele>94.0</ele><time>2026-05-01T14:20:09.44Z</time></trkpt><trkpt lat="44.2346583" lon="11.7756567"><ele>93.5</ele><time>2026-05-01T14:20:10.441Z</time></trkpt><trkpt lat="44.23465" lon="11.775765"><ele>93.0</ele><time>2026-05-01T14:20:11.44Z</time></trkpt><trkpt lat="44.2346417" lon="11.77587"><ele>92.5</ele><time>2026-05-01T14:20:12.441Z</time></trkpt><trkpt lat="44.2346333" lon="11.7759683"><ele>92.0</ele><time>2026-05-01T14:20:13.439Z</time></trkpt><trkpt lat="44.234625" lon="11.7760683"><ele>91.85714285714286</ele><time>2026-05-01T14:20:14.439Z</time></trkpt><trkpt lat="44.2346183" lon="11.7761717"><ele>91.71428571428571</ele><time>2026-05-01T14:20:15.439Z</time></trkpt><trkpt lat="44.2346133" lon="11.7762667"><ele>91.57142857142857</ele><time>2026-05-01T14:20:16.44Z</time></trkpt><trkpt lat="44.234605" lon="11.776365"><ele>91.42857142857143</ele><time>2026-05-01T14:20:17.44Z</time></trkpt><trkpt lat="44.2345967" lon="11.77646"><ele>91.28571428571428</ele><time>2026-05-01T14:20:18.44Z</time></trkpt><trkpt lat="44.2345933" lon="11.7765567"><ele>91.14285714285714</ele><time>2026-05-01T14:20:19.441Z</time></trkpt><trkpt lat="44.2345867" lon="11.7766567"><ele>91.0</ele><time>2026-05-01T14:20:20.442Z</time></trkpt><trkpt lat="44.2345767" lon="11.7767533"><ele>91.0</ele><time>2026-05-01T14:20:21.442Z</time></trkpt><trkpt lat="44.2345633" lon="11.7768467"><ele>91.0</ele><time>2026-05-01T14:20:22.442Z</time></trkpt><trkpt lat="44.2345567" lon="11.77694"><ele>91.0</ele><time>2026-05-01T14:20:23.443Z</time></trkpt><trkpt lat="44.2345417" lon="11.77703"><ele>91.0</ele><time>2026-05-01T14:20:24.442Z</time></trkpt><trkpt lat="44.2345333" lon="11.77713"><ele>91.0</ele><time>2026-05-01T14:20:25.438Z</time></trkpt><trkpt lat="44.2345217" lon="11.77723"><ele>91.0</ele><time>2026-05-01T14:20:26.44Z</time></trkpt><trkpt lat="44.2345133" lon="11.77733"><ele>91.0</ele><time>2026-05-01T14:20:27.438Z</time></trkpt><trkpt lat="44.2345017" lon="11.77743"><ele>90.57142857142857</ele><time>2026-05-01T14:20:28.441Z</time></trkpt><trkpt lat="44.2344867" lon="11.7775317"><ele>90.14285714285714</ele><time>2026-05-01T14:20:29.44Z</time></trkpt><trkpt lat="44.2344817" lon="11.777635"><ele>89.71428571428572</ele><time>2026-05-01T14:20:30.44Z</time></trkpt><trkpt lat="44.2344733" lon="11.7777417"><ele>89.28571428571428</ele><time>2026-05-01T14:20:31.439Z</time></trkpt><trkpt lat="44.234465" lon="11.7778433"><ele>88.85714285714286</ele><time>2026-05-01T14:20:32.44Z</time></trkpt><trkpt lat="44.2344483" lon="11.777935"><ele>88.42857142857143</ele><time>2026-05-01T14:20:33.441Z</time></trkpt><trkpt lat="44.23443" lon="11.77803"><ele>88.0</ele><time>2026-05-01T14:20:34.439Z</time></trkpt><trkpt lat="44.234415" lon="11.7781433"><ele>88.0</ele><time>2026-05-01T14:20:35.441Z</time></trkpt><trkpt lat="44.2344033" lon="11.7782483"><ele>88.0</ele><time>2026-05-01T14:20:36.442Z</time></trkpt><trkpt lat="44.23438" lon="11.7783467"><ele>88.0</ele><time>2026-05-01T14:20:37.439Z</time></trkpt><trkpt lat="44.2343483" lon="11.7784533"><ele>88.0</ele><time>2026-05-01T14:20:38.441Z</time></trkpt><trkpt lat="44.2343133" lon="11.77855"><ele>88.0</ele><time>2026-05-01T14:20:39.44Z</time></trkpt><trkpt lat="44.2342867" lon="11.77864"><ele>88.0</ele><time>2026-05-01T14:20:40.443Z</time></trkpt><trkpt lat="44.2342583" lon="11.7787333"><ele>88.0</ele><time>2026-05-01T14:20:41.441Z</time></trkpt><trkpt lat="44.2342317" lon="11.77883"><ele>88.0</ele><time>2026-05-01T14:20:42.441Z</time></trkpt><trkpt lat="44.2342183" lon="11.77893"><ele>88.0</ele><time>2026-05-01T14:20:43.44Z</time></trkpt><trkpt lat="44.2342183" lon="11.7790217"><ele>88.0</ele><time>2026-05-01T14:20:44.44Z</time></trkpt><trkpt lat="44.2342183" lon="11.7791183"><ele>88.0</ele><time>2026-05-01T14:20:45.441Z</time></trkpt><trkpt lat="44.2342217" lon="11.77922"><ele>88.0</ele><time>2026-05-01T14:20:46.442Z</time></trkpt><trkpt lat="44.2342233" lon="11.7793217"><ele>88.0</ele><time>2026-05-01T14:20:47.441Z</time></trkpt><trkpt lat="44.2342217" lon="11.779425"><ele>87.71428571428572</ele><time>2026-05-01T14:20:48.443Z</time></trkpt><trkpt lat="44.234215" lon="11.779525"><ele>87.42857142857143</ele><time>2026-05-01T14:20:49.442Z</time></trkpt><trkpt lat="44.2342117" lon="11.7796233"><ele>87.14285714285714</ele><time>2026-05-01T14:20:50.444Z</time></trkpt><trkpt lat="44.234205" lon="11.7797183"><ele>86.85714285714286</ele><time>2026-05-01T14:20:51.444Z</time></trkpt><trkpt lat="44.2341917" lon="11.7798167"><ele>86.57142857142857</ele><time>2026-05-01T14:20:52.442Z</time></trkpt><trkpt lat="44.2341783" lon="11.77991"><ele>86.28571428571429</ele><time>2026-05-01T14:20:53.44Z</time></trkpt><trkpt lat="44.2341667" lon="11.7800067"><ele>86.0</ele><time>2026-05-01T14:20:54.442Z</time></trkpt><trkpt lat="44.234155" lon="11.7801"><ele>86.57142857142858</ele><time>2026-05-01T14:20:55.44Z</time></trkpt><trkpt lat="44.23414" lon="11.7801967"><ele>87.14285714285714</ele><time>2026-05-01T14:20:56.44Z</time></trkpt><trkpt lat="44.23412" lon="11.7802917"><ele>87.71428571428572</ele><time>2026-05-01T14:20:57.44Z</time></trkpt><trkpt lat="44.2341" lon="11.780385"><ele>88.28571428571429</ele><time>2026-05-01T14:20:58.44Z</time></trkpt><trkpt lat="44.2340717" lon="11.780475"><ele>88.85714285714286</ele><time>2026-05-01T14:20:59.443Z</time></trkpt><trkpt lat="44.2340417" lon="11.7805617"><ele>89.42857142857143</ele><time>2026-05-01T14:21:00.44Z</time></trkpt><trkpt lat="44.2340117" lon="11.7806483"><ele>90.0</ele><time>2026-05-01T14:21:01.441Z</time></trkpt><trkpt lat="44.23398" lon="11.7807333"><ele>90.33333333333333</ele><time>2026-05-01T14:21:02.441Z</time></trkpt><trkpt lat="44.23395" lon="11.7808133"><ele>90.66666666666667</ele><time>2026-05-01T14:21:03.442Z</time></trkpt><trkpt lat="44.23392" lon="11.7808983"><ele>91.0</ele><time>2026-05-01T14:21:04.44Z</time></trkpt><trkpt lat="44.23389" lon="11.7809867"><ele>91.33333333333334</ele><time>2026-05-01T14:21:05.441Z</time></trkpt><trkpt lat="44.233835" lon="11.7811433"><ele>91.66666666666667</ele><time>2026-05-01T14:21:07.441Z</time></trkpt><trkpt lat="44.2338017" lon="11.7812267"><ele>92.0</ele><time>2026-05-01T14:21:08.442Z</time></trkpt><trkpt lat="44.2337667" lon="11.78131"><ele>91.71428571428572</ele><time>2026-05-01T14:21:09.443Z</time></trkpt><trkpt lat="44.2337283" lon="11.781395"><ele>91.42857142857142</ele><time>2026-05-01T14:21:10.441Z</time></trkpt><trkpt lat="44.2336917" lon="11.7814717"><ele>91.14285714285714</ele><time>2026-05-01T14:21:11.441Z</time></trkpt><trkpt lat="44.2336533" lon="11.7815517"><ele>90.85714285714286</ele><time>2026-05-01T14:21:12.444Z</time></trkpt><trkpt lat="44.2336167" lon="11.7816317"><ele>90.57142857142858</ele><time>2026-05-01T14:21:13.44Z</time></trkpt><trkpt lat="44.2335767" lon="11.7817133"><ele>90.28571428571428</ele><time>2026-05-01T14:21:14.441Z</time></trkpt><trkpt lat="44.2335283" lon="11.7817867"><ele>90.0</ele><time>2026-05-01T14:21:15.442Z</time></trkpt><trkpt lat="44.2334767" lon="11.781855"><ele>90.0</ele><time>2026-05-01T14:21:16.441Z</time></trkpt><trkpt lat="44.2334283" lon="11.781925"><ele>90.0</ele><time>2026-05-01T14:21:17.442Z</time></trkpt><trkpt lat="44.2333733" lon="11.7819933"><ele>90.0</ele><time>2026-05-01T14:21:18.443Z</time></trkpt><trkpt lat="44.233325" lon="11.7820617"><ele>90.0</ele><time>2026-05-01T14:21:19.441Z</time></trkpt><trkpt lat="44.2332767" lon="11.78213"><ele>90.0</ele><time>2026-05-01T14:21:20.44Z</time></trkpt><trkpt lat="44.23323" lon="11.782195"><ele>90.0</ele><time>2026-05-01T14:21:21.441Z</time></trkpt><trkpt lat="44.2331483" lon="11.78232"><ele>90.0</ele><time>2026-05-01T14:21:23.442Z</time></trkpt><trkpt lat="44.2330683" lon="11.7824583"><ele>90.0</ele><time>2026-05-01T14:21:25.442Z</time></trkpt><trkpt lat="44.23303" lon="11.7825333"><ele>90.0</ele><time>2026-05-01T14:21:26.44Z</time></trkpt><trkpt lat="44.2329983" lon="11.7826133"><ele>90.0</ele><time>2026-05-01T14:21:27.442Z</time></trkpt><trkpt lat="44.2329683" lon="11.7826933"><ele>90.0</ele><time>2026-05-01T14:21:28.442Z</time></trkpt><trkpt lat="44.232945" lon="11.7827783"><ele>90.0</ele><time>2026-05-01T14:21:29.441Z</time></trkpt><trkpt lat="44.23292" lon="11.7828617"><ele>89.42857142857143</ele><time>2026-05-01T14:21:30.441Z</time></trkpt><trkpt lat="44.23289" lon="11.78295"><ele>88.85714285714286</ele><time>2026-05-01T14:21:31.442Z</time></trkpt><trkpt lat="44.2328583" lon="11.7830383"><ele>88.28571428571429</ele><time>2026-05-01T14:21:32.441Z</time></trkpt><trkpt lat="44.2328233" lon="11.783125"><ele>87.71428571428572</ele><time>2026-05-01T14:21:33.444Z</time></trkpt><trkpt lat="44.2327867" lon="11.7832033"><ele>87.14285714285714</ele><time>2026-05-01T14:21:34.441Z</time></trkpt><trkpt lat="44.232745" lon="11.7832767"><ele>86.57142857142858</ele><time>2026-05-01T14:21:35.442Z</time></trkpt><trkpt lat="44.23269" lon="11.783335"><ele>86.0</ele><time>2026-05-01T14:21:36.441Z</time></trkpt><trkpt lat="44.2326317" lon="11.783375"><ele>86.0</ele><time>2026-05-01T14:21:37.441Z</time></trkpt><trkpt lat="44.23257" lon="11.7834033"><ele>86.0</ele><time>2026-05-01T14:21:38.442Z</time></trkpt><trkpt lat="44.2324533" lon="11.7834233"><ele>86.0</ele><time>2026-05-01T14:21:40.441Z</time></trkpt><trkpt lat="44.2323317" lon="11.7834217"><ele>86.0</ele><time>2026-05-01T14:21:42.443Z</time></trkpt><trkpt lat="44.2322117" lon="11.7834333"><ele>86.0</ele><time>2026-05-01T14:21:44.442Z</time></trkpt><trkpt lat="44.2320917" lon="11.7834633"><ele>85.75</ele><time>2026-05-01T14:21:46.442Z</time></trkpt><trkpt lat="44.23198" lon="11.7835233"><ele>85.5</ele><time>2026-05-01T14:21:48.441Z</time></trkpt><trkpt lat="44.23188" lon="11.7835983"><ele>85.25</ele><time>2026-05-01T14:21:50.441Z</time></trkpt><trkpt lat="44.23178" lon="11.783685"><ele>85.0</ele><time>2026-05-01T14:21:52.441Z</time></trkpt><trkpt lat="44.23169" lon="11.7837733"><ele>85.0</ele><time>2026-05-01T14:21:54.441Z</time></trkpt><trkpt lat="44.2315917" lon="11.7838683"><ele>85.0</ele><time>2026-05-01T14:21:56.442Z</time></trkpt><trkpt lat="44.23154" lon="11.78392"><ele>85.0</ele><time>2026-05-01T14:21:57.442Z</time></trkpt><trkpt lat="44.2314817" lon="11.7839767"><ele>85.0</ele><time>2026-05-01T14:21:58.441Z</time></trkpt><trkpt lat="44.2313833" lon="11.7840833"><ele>85.0</ele><time>2026-05-01T14:22:00.442Z</time></trkpt><trkpt lat="44.2312867" lon="11.7841883"><ele>85.0</ele><time>2026-05-01T14:22:02.441Z</time></trkpt><trkpt lat="44.2312383" lon="11.7842467"><ele>85.0</ele><time>2026-05-01T14:22:03.442Z</time></trkpt><trkpt lat="44.2311433" lon="11.784345"><ele>85.0</ele><time>2026-05-01T14:22:05.441Z</time></trkpt><trkpt lat="44.2310467" lon="11.7844517"><ele>85.0</ele><time>2026-05-01T14:22:07.441Z</time></trkpt><trkpt lat="44.230995" lon="11.784505"><ele>85.0</ele><time>2026-05-01T14:22:08.442Z</time></trkpt><trkpt lat="44.2309417" lon="11.78456"><ele>85.0</ele><time>2026-05-01T14:22:09.442Z</time></trkpt><trkpt lat="44.2308817" lon="11.7846017"><ele>85.0</ele><time>2026-05-01T14:22:10.44Z</time></trkpt><trkpt lat="44.2307767" lon="11.7846817"><ele>85.0</ele><time>2026-05-01T14:22:12.441Z</time></trkpt><trkpt lat="44.230725" lon="11.7847383"><ele>85.0</ele><time>2026-05-01T14:22:13.442Z</time></trkpt><trkpt lat="44.2306717" lon="11.7848033"><ele>85.0</ele><time>2026-05-01T14:22:14.442Z</time></trkpt><trkpt lat="44.2305717" lon="11.784895"><ele>85.0</ele><time>2026-05-01T14:22:16.441Z</time></trkpt><trkpt lat="44.23051" lon="11.7849583"><ele>85.2</ele><time>2026-05-01T14:22:17.443Z</time></trkpt><trkpt lat="44.2304067" lon="11.7850633"><ele>85.4</ele><time>2026-05-01T14:22:19.442Z</time></trkpt><trkpt lat="44.2303067" lon="11.7851483"><ele>85.6</ele><time>2026-05-01T14:22:21.441Z</time></trkpt><trkpt lat="44.2302067" lon="11.7852483"><ele>85.8</ele><time>2026-05-01T14:22:23.443Z</time></trkpt><trkpt lat="44.2301467" lon="11.7852967"><ele>86.0</ele><time>2026-05-01T14:22:24.441Z</time></trkpt><trkpt lat="44.2300833" lon="11.7853433"><ele>86.0</ele><time>2026-05-01T14:22:25.44Z</time></trkpt><trkpt lat="44.22998" lon="11.7854033"><ele>86.0</ele><time>2026-05-01T14:22:27.44Z</time></trkpt><trkpt lat="44.2298867" lon="11.7854667"><ele>86.0</ele><time>2026-05-01T14:22:29.44Z</time></trkpt><trkpt lat="44.2297933" lon="11.7855367"><ele>86.0</ele><time>2026-05-01T14:22:31.44Z</time></trkpt><trkpt lat="44.2297" lon="11.7856267"><ele>86.0</ele><time>2026-05-01T14:22:33.441Z</time></trkpt><trkpt lat="44.2296" lon="11.785695"><ele>84.8</ele><time>2026-05-01T14:22:35.441Z</time></trkpt><trkpt lat="44.2295017" lon="11.7857533"><ele>83.6</ele><time>2026-05-01T14:22:37.441Z</time></trkpt><trkpt lat="44.2294067" lon="11.7857883"><ele>82.4</ele><time>2026-05-01T14:22:39.441Z</time></trkpt><trkpt lat="44.229325" lon="11.78575"><ele>81.2</ele><time>2026-05-01T14:22:41.44Z</time></trkpt><trkpt lat="44.2292767" lon="11.7856517"><ele>80.0</ele><time>2026-05-01T14:22:43.441Z</time></trkpt><trkpt lat="44.229235" lon="11.785555"><ele>80.0</ele><time>2026-05-01T14:22:45.441Z</time></trkpt><trkpt lat="44.22918" lon="11.7854833"><ele>80.0</ele><time>2026-05-01T14:22:47.442Z</time></trkpt><trkpt lat="44.2291033" lon="11.7854533"><ele>80.0</ele><time>2026-05-01T14:22:49.443Z</time></trkpt><trkpt lat="44.2290183" lon="11.78546"><ele>80.0</ele><time>2026-05-01T14:22:51.441Z</time></trkpt><trkpt lat="44.2289417" lon="11.785475"><ele>80.0</ele><time>2026-05-01T14:22:53.442Z</time></trkpt><trkpt lat="44.2288767" lon="11.7855"><ele>80.0</ele><time>2026-05-01T14:22:55.441Z</time></trkpt><trkpt lat="44.2288183" lon="11.7855383"><ele>80.0</ele><time>2026-05-01T14:22:57.443Z</time></trkpt><trkpt lat="44.228745" lon="11.7855817"><ele>80.42857142857143</ele><time>2026-05-01T14:23:00.443Z</time></trkpt><trkpt lat="44.2286667" lon="11.7856117"><ele>80.85714285714286</ele><time>2026-05-01T14:23:03.441Z</time></trkpt><trkpt lat="44.228595" lon="11.7856433"><ele>81.28571428571428</ele><time>2026-05-01T14:23:06.441Z</time></trkpt><trkpt lat="44.2285217" lon="11.7856767"><ele>81.71428571428572</ele><time>2026-05-01T14:23:09.44Z</time></trkpt><trkpt lat="44.2284567" lon="11.7856933"><ele>82.14285714285715</ele><time>2026-05-01T14:23:12.442Z</time></trkpt><trkpt lat="44.228385" lon="11.7857233"><ele>82.57142857142857</ele><time>2026-05-01T14:23:16.443Z</time></trkpt><trkpt lat="44.2283183" lon="11.7857567"><ele>83.0</ele><time>2026-05-01T14:23:20.441Z</time></trkpt><trkpt lat="44.228255" lon="11.7857983"><ele>83.0</ele><time>2026-05-01T14:23:24.443Z</time></trkpt><trkpt lat="44.2281883" lon="11.7858383"><ele>83.0</ele><time>2026-05-01T14:23:29.441Z</time></trkpt><trkpt lat="44.2281183" lon="11.78588"><ele>83.0</ele><time>2026-05-01T14:23:34.442Z</time></trkpt><trkpt lat="44.2280567" lon="11.7859133"><ele>83.0</ele><time>2026-05-01T14:23:38.443Z</time></trkpt><trkpt lat="44.227985" lon="11.785945"><ele>83.0</ele><time>2026-05-01T14:23:43.443Z</time></trkpt><trkpt lat="44.2279133" lon="11.7859883"><ele>83.0</ele><time>2026-05-01T14:23:48.441Z</time></trkpt><trkpt lat="44.2278483" lon="11.7860383"><ele>83.0</ele><time>2026-05-01T14:23:52.443Z</time></trkpt><trkpt lat="44.2277867" lon="11.78609"><ele>83.57142857142857</ele><time>2026-05-01T14:23:57.441Z</time></trkpt><trkpt lat="44.227735" lon="11.78615"><ele>84.14285714285715</ele><time>2026-05-01T14:24:01.441Z</time></trkpt><trkpt lat="44.2276767" lon="11.786215"><ele>84.71428571428572</ele><time>2026-05-01T14:24:05.441Z</time></trkpt><trkpt lat="44.227615" lon="11.7862483"><ele>85.28571428571428</ele><time>2026-05-01T14:24:10.44Z</time></trkpt><trkpt lat="44.2275483" lon="11.786245"><ele>85.85714285714286</ele><time>2026-05-01T14:24:14.441Z</time></trkpt><trkpt lat="44.227475" lon="11.78626"><ele>86.42857142857143</ele><time>2026-05-01T14:24:18.441Z</time></trkpt><trkpt lat="44.2274" lon="11.78628"><ele>87.0</ele><time>2026-05-01T14:24:22.44Z</time></trkpt><trkpt lat="44.2273283" lon="11.7862783"><ele>87.16666666666667</ele><time>2026-05-01T14:24:27.44Z</time></trkpt><trkpt lat="44.227295" lon="11.7861883"><ele>87.33333333333333</ele><time>2026-05-01T14:24:31.441Z</time></trkpt><trkpt lat="44.227285" lon="11.78608"><ele>87.5</ele><time>2026-05-01T14:24:34.443Z</time></trkpt><trkpt lat="44.2272767" lon="11.7859783"><ele>87.66666666666666</ele><time>2026-05-01T14:24:37.443Z</time></trkpt><trkpt lat="44.2272717" lon="11.78586"><ele>87.83333333333333</ele><time>2026-05-01T14:24:40.442Z</time></trkpt><trkpt lat="44.22726" lon="11.7857383"><ele>88.0</ele><time>2026-05-01T14:24:43.442Z</time></trkpt><trkpt lat="44.227245" lon="11.7856167"><ele>88.0</ele><time>2026-05-01T14:24:46.442Z</time></trkpt><trkpt lat="44.2272267" lon="11.78549"><ele>88.0</ele><time>2026-05-01T14:24:49.443Z</time></trkpt><trkpt lat="44.22721" lon="11.7853983"><ele>88.0</ele><time>2026-05-01T14:24:51.443Z</time></trkpt><trkpt lat="44.2271833" lon="11.7852683"><ele>88.0</ele><time>2026-05-01T14:24:54.443Z</time></trkpt><trkpt lat="44.2271583" lon="11.7851717"><ele>88.0</ele><time>2026-05-01T14:24:56.443Z</time></trkpt><trkpt lat="44.2271383" lon="11.7850717"><ele>88.0</ele><time>2026-05-01T14:24:58.443Z</time></trkpt><trkpt lat="44.2271183" lon="11.784975"><ele>88.42857142857143</ele><time>2026-05-01T14:25:00.442Z</time></trkpt><trkpt lat="44.2270933" lon="11.7848767"><ele>88.85714285714286</ele><time>2026-05-01T14:25:02.443Z</time></trkpt><trkpt lat="44.2270583" lon="11.7847867"><ele>89.28571428571428</ele><time>2026-05-01T14:25:04.442Z</time></trkpt><trkpt lat="44.227035" lon="11.7846867"><ele>89.71428571428572</ele><time>2026-05-01T14:25:06.441Z</time></trkpt><trkpt lat="44.227015" lon="11.78459"><ele>90.14285714285714</ele><time>2026-05-01T14:25:08.442Z</time></trkpt><trkpt lat="44.2269867" lon="11.7844917"><ele>90.57142857142857</ele><time>2026-05-01T14:25:10.442Z</time></trkpt><trkpt lat="44.2269583" lon="11.7843983"><ele>91.0</ele><time>2026-05-01T14:25:12.442Z</time></trkpt><trkpt lat="44.22693" lon="11.7843033"><ele>91.42857142857143</ele><time>2026-05-01T14:25:14.439Z</time></trkpt><trkpt lat="44.2269117" lon="11.7842067"><ele>91.85714285714286</ele><time>2026-05-01T14:25:16.441Z</time></trkpt><trkpt lat="44.22688" lon="11.7841083"><ele>92.28571428571428</ele><time>2026-05-01T14:25:18.441Z</time></trkpt><trkpt lat="44.2268417" lon="11.7840133"><ele>92.71428571428572</ele><time>2026-05-01T14:25:20.441Z</time></trkpt><trkpt lat="44.2268167" lon="11.7839167"><ele>93.14285714285714</ele><time>2026-05-01T14:25:22.442Z</time></trkpt><trkpt lat="44.2267867" lon="11.783825"><ele>93.57142857142857</ele><time>2026-05-01T14:25:24.442Z</time></trkpt><trkpt lat="44.2267567" lon="11.7837317"><ele>94.0</ele><time>2026-05-01T14:25:26.441Z</time></trkpt><trkpt lat="44.2267283" lon="11.7836483"><ele>94.0</ele><time>2026-05-01T14:25:28.442Z</time></trkpt><trkpt lat="44.2266967" lon="11.7835417"><ele>94.0</ele><time>2026-05-01T14:25:31.442Z</time></trkpt><trkpt lat="44.2266633" lon="11.7834583"><ele>94.0</ele><time>2026-05-01T14:25:34.442Z</time></trkpt><trkpt lat="44.2266383" lon="11.783365"><ele>94.0</ele><time>2026-05-01T14:25:36.442Z</time></trkpt><trkpt lat="44.2266133" lon="11.7832717"><ele>94.0</ele><time>2026-05-01T14:25:38.441Z</time></trkpt><trkpt lat="44.2265883" lon="11.7831617"><ele>94.0</ele><time>2026-05-01T14:25:41.441Z</time></trkpt><trkpt lat="44.2265633" lon="11.78305"><ele>93.85714285714286</ele><time>2026-05-01T14:25:44.442Z</time></trkpt><trkpt lat="44.2265233" lon="11.7829767"><ele>93.71428571428571</ele><time>2026-05-01T14:25:46.441Z</time></trkpt><trkpt lat="44.2264933" lon="11.782895"><ele>93.57142857142858</ele><time>2026-05-01T14:25:48.443Z</time></trkpt><trkpt lat="44.2264683" lon="11.7828033"><ele>93.42857142857143</ele><time>2026-05-01T14:25:50.441Z</time></trkpt><trkpt lat="44.2264433" lon="11.7827167"><ele>93.28571428571429</ele><time>2026-05-01T14:25:52.443Z</time></trkpt><trkpt lat="44.2264183" lon="11.782625"><ele>93.14285714285715</ele><time>2026-05-01T14:25:54.442Z</time></trkpt><trkpt lat="44.2263917" lon="11.7825333"><ele>93.0</ele><time>2026-05-01T14:25:56.44Z</time></trkpt><trkpt lat="44.2263517" lon="11.78245"><ele>93.66666666666667</ele><time>2026-05-01T14:25:58.44Z</time></trkpt><trkpt lat="44.226315" lon="11.7823583"><ele>94.33333333333334</ele><time>2026-05-01T14:26:00.44Z</time></trkpt><trkpt lat="44.2262783" lon="11.782265"><ele>95.0</ele><time>2026-05-01T14:26:02.44Z</time></trkpt><trkpt lat="44.2262417" lon="11.7821733"><ele>95.66666666666667</ele><time>2026-05-01T14:26:04.44Z</time></trkpt><trkpt lat="44.2261967" lon="11.78208"><ele>96.33333333333334</ele><time>2026-05-01T14:26:06.44Z</time></trkpt><trkpt lat="44.2261533" lon="11.781995"><ele>97.0</ele><time>2026-05-01T14:26:08.441Z</time></trkpt><trkpt lat="44.226105" lon="11.78192"><ele>97.00000000000001</ele><time>2026-05-01T14:26:10.441Z</time></trkpt><trkpt lat="44.2260517" lon="11.78185"><ele>97.0</ele><time>2026-05-01T14:26:12.442Z</time></trkpt><trkpt lat="44.225995" lon="11.7817717"><ele>97.0</ele><time>2026-05-01T14:26:14.441Z</time></trkpt><trkpt lat="44.2259417" lon="11.781695"><ele>97.0</ele><time>2026-05-01T14:26:16.441Z</time></trkpt><trkpt lat="44.2258917" lon="11.781615"><ele>97.00000000000001</ele><time>2026-05-01T14:26:18.441Z</time></trkpt><trkpt lat="44.2258317" lon="11.7815467"><ele>97.0</ele><time>2026-05-01T14:26:20.442Z</time></trkpt><trkpt lat="44.2257733" lon="11.7814817"><ele>97.00000000000001</ele><time>2026-05-01T14:26:22.442Z</time></trkpt><trkpt lat="44.2257183" lon="11.7814117"><ele>97.0</ele><time>2026-05-01T14:26:24.442Z</time></trkpt><trkpt lat="44.225665" lon="11.7813333"><ele>97.0</ele><time>2026-05-01T14:26:26.44Z</time></trkpt><trkpt lat="44.2256" lon="11.7812583"><ele>97.0</ele><time>2026-05-01T14:26:28.44Z</time></trkpt><trkpt lat="44.22554" lon="11.7811733"><ele>97.00000000000001</ele><time>2026-05-01T14:26:30.44Z</time></trkpt><trkpt lat="44.2254833" lon="11.7810883"><ele>97.0</ele><time>2026-05-01T14:26:32.44Z</time></trkpt><trkpt lat="44.2254267" lon="11.7810067"><ele>97.00000000000001</ele><time>2026-05-01T14:26:34.441Z</time></trkpt><trkpt lat="44.225375" lon="11.7809183"><ele>97.0</ele><time>2026-05-01T14:26:36.44Z</time></trkpt><trkpt lat="44.22533" lon="11.7808283"><ele>97.0</ele><time>2026-05-01T14:26:38.44Z</time></trkpt><trkpt lat="44.22529" lon="11.7807333"><ele>97.0</ele><time>2026-05-01T14:26:40.439Z</time></trkpt><trkpt lat="44.2252533" lon="11.7806367"><ele>97.00000000000001</ele><time>2026-05-01T14:26:42.439Z</time></trkpt><trkpt lat="44.225215" lon="11.78054"><ele>97.0</ele><time>2026-05-01T14:26:44.44Z</time></trkpt><trkpt lat="44.2251733" lon="11.780445"><ele>97.00000000000001</ele><time>2026-05-01T14:26:46.44Z</time></trkpt><trkpt lat="44.2251383" lon="11.7803517"><ele>97.0</ele><time>2026-05-01T14:26:48.439Z</time></trkpt><trkpt lat="44.2251033" lon="11.7802533"><ele>97.0</ele><time>2026-05-01T14:26:50.44Z</time></trkpt><trkpt lat="44.22506" lon="11.7801517"><ele>97.0</ele><time>2026-05-01T14:26:52.439Z</time></trkpt><trkpt lat="44.2250167" lon="11.7800533"><ele>97.00000000000001</ele><time>2026-05-01T14:26:54.44Z</time></trkpt><trkpt lat="44.2249783" lon="11.779955"><ele>97.0</ele><time>2026-05-01T14:26:56.44Z</time></trkpt><trkpt lat="44.2249417" lon="11.779855"><ele>96.83333333333334</ele><time>2026-05-01T14:26:58.439Z</time></trkpt><trkpt lat="44.224905" lon="11.7797567"><ele>96.66666666666667</ele><time>2026-05-01T14:27:00.44Z</time></trkpt><trkpt lat="44.224865" lon="11.7796633"><ele>96.5</ele><time>2026-05-01T14:27:02.441Z</time></trkpt><trkpt lat="44.2248267" lon="11.77957"><ele>96.33333333333334</ele><time>2026-05-01T14:27:04.441Z</time></trkpt><trkpt lat="44.224795" lon="11.7794733"><ele>96.16666666666667</ele><time>2026-05-01T14:27:06.441Z</time></trkpt><trkpt lat="44.22476" lon="11.7793767"><ele>96.0</ele><time>2026-05-01T14:27:08.442Z</time></trkpt><trkpt lat="44.2247233" lon="11.7792817"><ele>96.66666666666667</ele><time>2026-05-01T14:27:10.442Z</time></trkpt><trkpt lat="44.2246867" lon="11.7791867"><ele>97.33333333333334</ele><time>2026-05-01T14:27:12.441Z</time></trkpt><trkpt lat="44.2246433" lon="11.77909"><ele>98.0</ele><time>2026-05-01T14:27:14.442Z</time></trkpt><trkpt lat="44.2246033" lon="11.7789933"><ele>98.66666666666667</ele><time>2026-05-01T14:27:16.443Z</time></trkpt><trkpt lat="44.224565" lon="11.7788983"><ele>99.33333333333334</ele><time>2026-05-01T14:27:18.442Z</time></trkpt><trkpt lat="44.2245267" lon="11.7788067"><ele>100.0</ele><time>2026-05-01T14:27:20.44Z</time></trkpt><trkpt lat="44.22449" lon="11.778715"><ele>100.00000000000001</ele><time>2026-05-01T14:27:22.441Z</time></trkpt><trkpt lat="44.2244617" lon="11.77862"><ele>100.0</ele><time>2026-05-01T14:27:24.44Z</time></trkpt><trkpt lat="44.22443" lon="11.7785317"><ele>100.0</ele><time>2026-05-01T14:27:26.441Z</time></trkpt><trkpt lat="44.2243983" lon="11.7784417"><ele>100.0</ele><time>2026-05-01T14:27:28.44Z</time></trkpt><trkpt lat="44.2243633" lon="11.7783467"><ele>100.0</ele><time>2026-05-01T14:27:30.441Z</time></trkpt><trkpt lat="44.2243267" lon="11.778255"><ele>100.00000000000001</ele><time>2026-05-01T14:27:32.44Z</time></trkpt><trkpt lat="44.224295" lon="11.7781617"><ele>100.0</ele><time>2026-05-01T14:27:34.441Z</time></trkpt><trkpt lat="44.2242583" lon="11.7780733"><ele>100.71428571428572</ele><time>2026-05-01T14:27:36.441Z</time></trkpt><trkpt lat="44.2242217" lon="11.7779867"><ele>101.42857142857143</ele><time>2026-05-01T14:27:38.44Z</time></trkpt><trkpt lat="44.22419" lon="11.7779017"><ele>102.14285714285714</ele><time>2026-05-01T14:27:40.441Z</time></trkpt><trkpt lat="44.22416" lon="11.777815"><ele>102.85714285714286</ele><time>2026-05-01T14:27:42.441Z</time></trkpt><trkpt lat="44.2241217" lon="11.7777267"><ele>103.57142857142857</ele><time>2026-05-01T14:27:44.441Z</time></trkpt><trkpt lat="44.2240833" lon="11.77764"><ele>104.28571428571429</ele><time>2026-05-01T14:27:46.443Z</time></trkpt><trkpt lat="44.2240517" lon="11.77755"><ele>105.0</ele><time>2026-05-01T14:27:48.442Z</time></trkpt><trkpt lat="44.2240283" lon="11.7774533"><ele>104.71428571428571</ele><time>2026-05-01T14:27:50.442Z</time></trkpt><trkpt lat="44.2240133" lon="11.7773533"><ele>104.42857142857143</ele><time>2026-05-01T14:27:52.441Z</time></trkpt><trkpt lat="44.2239967" lon="11.7772583"><ele>104.14285714285714</ele><time>2026-05-01T14:27:54.441Z</time></trkpt><trkpt lat="44.2239717" lon="11.7771617"><ele>103.85714285714286</ele><time>2026-05-01T14:27:56.442Z</time></trkpt><trkpt lat="44.2239517" lon="11.777055"><ele>103.57142857142857</ele><time>2026-05-01T14:27:58.441Z</time></trkpt><trkpt lat="44.2239333" lon="11.77695"><ele>103.28571428571428</ele><time>2026-05-01T14:28:00.442Z</time></trkpt><trkpt lat="44.2239117" lon="11.7768483"><ele>103.0</ele><time>2026-05-01T14:28:02.443Z</time></trkpt><trkpt lat="44.2238917" lon="11.77675"><ele>103.71428571428571</ele><time>2026-05-01T14:28:04.442Z</time></trkpt><trkpt lat="44.22387" lon="11.7766483"><ele>104.42857142857143</ele><time>2026-05-01T14:28:06.441Z</time></trkpt><trkpt lat="44.2238483" lon="11.7765433"><ele>105.14285714285714</ele><time>2026-05-01T14:28:08.442Z</time></trkpt><trkpt lat="44.22383" lon="11.776445"><ele>105.85714285714286</ele><time>2026-05-01T14:28:10.442Z</time></trkpt><trkpt lat="44.2238133" lon="11.7763517"><ele>106.57142857142857</ele><time>2026-05-01T14:28:12.441Z</time></trkpt><trkpt lat="44.2237983" lon="11.77626"><ele>107.28571428571428</ele><time>2026-05-01T14:28:14.442Z</time></trkpt><trkpt lat="44.2237817" lon="11.7761733"><ele>108.0</ele><time>2026-05-01T14:28:16.442Z</time></trkpt><trkpt lat="44.223765" lon="11.77605"><ele>108.57142857142857</ele><time>2026-05-01T14:28:19.44Z</time></trkpt><trkpt lat="44.2237567" lon="11.775955"><ele>109.14285714285714</ele><time>2026-05-01T14:28:21.439Z</time></trkpt><trkpt lat="44.2237317" lon="11.7758733"><ele>109.71428571428572</ele><time>2026-05-01T14:28:23.44Z</time></trkpt><trkpt lat="44.22371" lon="11.77576"><ele>110.28571428571428</ele><time>2026-05-01T14:28:26.439Z</time></trkpt><trkpt lat="44.2236883" lon="11.7756633"><ele>110.85714285714286</ele><time>2026-05-01T14:28:29.44Z</time></trkpt><trkpt lat="44.2237017" lon="11.775565"><ele>111.42857142857143</ele><time>2026-05-01T14:28:33.441Z</time></trkpt><trkpt lat="44.2237033" lon="11.7754617"><ele>112.0</ele><time>2026-05-01T14:28:37.441Z</time></trkpt><trkpt lat="44.2237017" lon="11.77536"><ele>112.0</ele><time>2026-05-01T14:28:41.441Z</time></trkpt><trkpt lat="44.2236917" lon="11.775255"><ele>112.0</ele><time>2026-05-01T14:28:45.44Z</time></trkpt><trkpt lat="44.2236883" lon="11.77516"><ele>112.0</ele><time>2026-05-01T14:28:48.442Z</time></trkpt><trkpt lat="44.2236783" lon="11.77507"><ele>112.0</ele><time>2026-05-01T14:28:51.44Z</time></trkpt><trkpt lat="44.223675" lon="11.7749617"><ele>112.0</ele><time>2026-05-01T14:28:55.44Z</time></trkpt><trkpt lat="44.2236617" lon="11.7748583"><ele>112.0</ele><time>2026-05-01T14:28:59.441Z</time></trkpt><trkpt lat="44.2236533" lon="11.77475"><ele>112.0</ele><time>2026-05-01T14:29:03.44Z</time></trkpt><trkpt lat="44.223655" lon="11.7746617"><ele>112.71428571428572</ele><time>2026-05-01T14:29:06.44Z</time></trkpt><trkpt lat="44.2236433" lon="11.7745617"><ele>113.42857142857143</ele><time>2026-05-01T14:29:10.44Z</time></trkpt><trkpt lat="44.223655" lon="11.7744667"><ele>114.14285714285714</ele><time>2026-05-01T14:29:14.44Z</time></trkpt><trkpt lat="44.2236783" lon="11.77438"><ele>114.85714285714286</ele><time>2026-05-01T14:29:19.44Z</time></trkpt><trkpt lat="44.22366" lon="11.774275"><ele>115.57142857142858</ele><time>2026-05-01T14:29:24.44Z</time></trkpt><trkpt lat="44.2236533" lon="11.7741583"><ele>116.28571428571429</ele><time>2026-05-01T14:29:28.44Z</time></trkpt><trkpt lat="44.2236333" lon="11.7740717"><ele>117.0</ele><time>2026-05-01T14:29:31.441Z</time></trkpt><trkpt lat="44.2236017" lon="11.7739783"><ele>118.16666666666667</ele><time>2026-05-01T14:29:35.441Z</time></trkpt><trkpt lat="44.2235917" lon="11.7738783"><ele>119.33333333333334</ele><time>2026-05-01T14:29:40.44Z</time></trkpt><trkpt lat="44.2235933" lon="11.7737667"><ele>120.5</ele><time>2026-05-01T14:29:44.44Z</time></trkpt><trkpt lat="44.2235983" lon="11.773665"><ele>121.66666666666667</ele><time>2026-05-01T14:29:48.441Z</time></trkpt><trkpt lat="44.2235933" lon="11.773553"><ele>122.83333333333334</ele><time>2026-05-01T14:29:52.44Z</time></trkpt><trkpt lat="44.2236386" lon="11.7734569"><ele>124.0</ele><time>2026-05-01T14:29:56.44Z</time></trkpt><trkpt lat="44.2236608" lon="11.7733666"><ele>124.42857142857143</ele><time>2026-05-01T14:29:59.442Z</time></trkpt><trkpt lat="44.2236862" lon="11.7732659"><ele>124.85714285714286</ele><time>2026-05-01T14:30:03.441Z</time></trkpt><trkpt lat="44.2236329" lon="11.7731805"><ele>125.28571428571429</ele><time>2026-05-01T14:31:15.441Z</time></trkpt><trkpt lat="44.2236811" lon="11.7730908"><ele>125.71428571428572</ele><time>2026-05-01T14:31:28.442Z</time></trkpt><trkpt lat="44.2237451" lon="11.7730364"><ele>126.14285714285714</ele><time>2026-05-01T14:31:30.442Z</time></trkpt><trkpt lat="44.2237763" lon="11.7729595"><ele>126.57142857142858</ele><time>2026-05-01T14:31:36.443Z</time></trkpt><trkpt lat="44.2237139" lon="11.7729966"><ele>127.0</ele><time>2026-05-01T14:31:44.442Z</time></trkpt><trkpt lat="44.223674" lon="11.7730694"><ele>127.0</ele><time>2026-05-01T14:31:49.442Z</time></trkpt><trkpt lat="44.2235972" lon="11.7730665"><ele>127.0</ele><time>2026-05-01T14:31:53.441Z</time></trkpt><trkpt lat="44.2236396" lon="11.7729912"><ele>127.0</ele><time>2026-05-01T14:31:56.441Z</time></trkpt><trkpt lat="44.2235732" lon="11.7729968"><ele>127.0</ele><time>2026-05-01T14:32:07.441Z</time></trkpt><trkpt lat="44.2236529" lon="11.7729945"><ele>127.0</ele><time>2026-05-01T14:32:12.441Z</time></trkpt><trkpt lat="44.2237341" lon="11.7730281"><ele>127.0</ele><time>2026-05-01T14:32:15.442Z</time></trkpt><trkpt lat="44.2238058" lon="11.7730104"><ele>127.0</ele><time>2026-05-01T14:32:17.442Z</time></trkpt><trkpt lat="44.2238814" lon="11.7729804"><ele>127.00000000000001</ele><time>2026-05-01T14:32:22.44Z</time></trkpt><trkpt lat="44.2238766" lon="11.7728913"><ele>127.0</ele><time>2026-05-01T14:32:24.441Z</time></trkpt><trkpt lat="44.2239085" lon="11.7727826"><ele>127.0</ele><time>2026-05-01T14:32:28.44Z</time></trkpt><trkpt lat="44.2238567" lon="11.7729067"><ele>127.0</ele><time>2026-05-01T14:32:31.441Z</time></trkpt><trkpt lat="44.2238236" lon="11.7730048"><ele>127.00000000000001</ele><time>2026-05-01T14:32:32.44Z</time></trkpt><trkpt lat="44.2237859" lon="11.7731347"><ele>127.0</ele><time>2026-05-01T14:32:33.439Z</time></trkpt><trkpt lat="44.2237576" lon="11.7732307"><ele>127.0</ele><time>2026-05-01T14:32:35.44Z</time></trkpt><trkpt lat="44.2236961" lon="11.7734027"><ele>126.99999999999999</ele><time>2026-05-01T14:34:41.442Z</time></trkpt><trkpt lat="44.2236173" lon="11.773386"><ele>126.99999999999999</ele><time>2026-05-01T14:34:44.441Z</time></trkpt><trkpt lat="44.2236759" lon="11.7733162"><ele>127.0</ele><time>2026-05-01T14:34:50.44Z</time></trkpt><trkpt lat="44.2236945" lon="11.7732013"><ele>127.0</ele><time>2026-05-01T14:34:56.44Z</time></trkpt><trkpt lat="44.2237337" lon="11.7731089"><ele>127.00000000000001</ele><time>2026-05-01T14:35:00.44Z</time></trkpt><trkpt lat="44.2238169" lon="11.7730279"><ele>127.0</ele><time>2026-05-01T14:35:44.441Z</time></trkpt><trkpt lat="44.2237599" lon="11.7729904"><ele>127.0</ele><time>2026-05-01T14:35:56.441Z</time></trkpt><trkpt lat="44.2236795" lon="11.7729473"><ele>127.0</ele><time>2026-05-01T14:35:59.44Z</time></trkpt><trkpt lat="44.2236228" lon="11.7728638"><ele>127.00000000000001</ele><time>2026-05-01T14:36:03.44Z</time></trkpt><trkpt lat="44.2235675" lon="11.7727851"><ele>127.0</ele><time>2026-05-01T14:36:06.44Z</time></trkpt><trkpt lat="44.2235663" lon="11.7726847"><ele>127.00000000000001</ele><time>2026-05-01T14:36:08.44Z</time></trkpt><trkpt lat="44.2236198" lon="11.772622"><ele>127.0</ele><time>2026-05-01T14:36:14.44Z</time></trkpt><trkpt lat="44.2235758" lon="11.7726889"><ele>127.0</ele><time>2026-05-01T14:36:17.439Z</time></trkpt><trkpt lat="44.2235298" lon="11.7727829"><ele>127.0</ele><time>2026-05-01T14:36:19.441Z</time></trkpt><trkpt lat="44.2234916" lon="11.7728541"><ele>127.00000000000001</ele><time>2026-05-01T14:36:21.44Z</time></trkpt><trkpt lat="44.2235779" lon="11.7728443"><ele>127.0</ele><time>2026-05-01T14:36:27.439Z</time></trkpt><trkpt lat="44.223625" lon="11.7729882"><ele>127.00000000000001</ele><time>2026-05-01T14:36:29.441Z</time></trkpt><trkpt lat="44.2236511" lon="11.7730833"><ele>127.0</ele><time>2026-05-01T14:36:30.442Z</time></trkpt><trkpt lat="44.2235859" lon="11.7729774"><ele>127.0</ele><time>2026-05-01T14:36:31.441Z</time></trkpt><trkpt lat="44.2236568" lon="11.7730669"><ele>127.0</ele><time>2026-05-01T14:36:38.44Z</time></trkpt><trkpt lat="44.2237228" lon="11.7731312"><ele>127.00000000000001</ele><time>2026-05-01T14:36:40.44Z</time></trkpt><trkpt lat="44.2236869" lon="11.7730399"><ele>127.0</ele><time>2026-05-01T14:36:44.441Z</time></trkpt><trkpt lat="44.2237025" lon="11.7731522"><ele>127.0</ele><time>2026-05-01T14:37:03.441Z</time></trkpt><trkpt lat="44.2237162" lon="11.7730576"><ele>126.99999999999999</ele><time>2026-05-01T14:38:53.439Z</time></trkpt><trkpt lat="44.2236327" lon="11.7731204"><ele>126.99999999999999</ele><time>2026-05-01T14:39:00.439Z</time></trkpt><trkpt lat="44.2235573" lon="11.7732094"><ele>127.0</ele><time>2026-05-01T14:39:03.439Z</time></trkpt><trkpt lat="44.2236002" lon="11.7730255"><ele>127.0</ele><time>2026-05-01T14:39:10.44Z</time></trkpt><trkpt lat="44.2237144" lon="11.7728934"><ele>127.0</ele><time>2026-05-01T14:39:12.441Z</time></trkpt><trkpt lat="44.2237876" lon="11.7728443"><ele>127.0</ele><time>2026-05-01T14:39:13.438Z</time></trkpt><trkpt lat="44.2238404" lon="11.7727868"><ele>127.0</ele><time>2026-05-01T14:39:16.439Z</time></trkpt><trkpt lat="44.2237876" lon="11.7728468"><ele>127.0</ele><time>2026-05-01T14:39:20.439Z</time></trkpt><trkpt lat="44.2237425" lon="11.7729342"><ele>127.0</ele><time>2026-05-01T14:39:25.441Z</time></trkpt><trkpt lat="44.2237614" lon="11.7730505"><ele>127.0</ele><time>2026-05-01T14:39:32.439Z</time></trkpt><trkpt lat="44.2237516" lon="11.773139"><ele>127.0</ele><time>2026-05-01T14:39:33.44Z</time></trkpt><trkpt lat="44.2236539" lon="11.7731787"><ele>127.00000000000001</ele><time>2026-05-01T14:39:39.441Z</time></trkpt><trkpt lat="44.2237129" lon="11.7732149"><ele>127.0</ele><time>2026-05-01T14:39:46.441Z</time></trkpt><trkpt lat="44.2237487" lon="11.773294"><ele>127.0</ele><time>2026-05-01T14:39:55.442Z</time></trkpt><trkpt lat="44.2236356" lon="11.7733319"><ele>127.0</ele><time>2026-05-01T14:40:47.441Z</time></trkpt><trkpt lat="44.2235621" lon="11.7734048"><ele>127.00000000000001</ele><time>2026-05-01T14:40:49.442Z</time></trkpt><trkpt lat="44.2236361" lon="11.7733827"><ele>127.0</ele><time>2026-05-01T14:40:55.442Z</time></trkpt><trkpt lat="44.2235731" lon="11.7733688"><ele>127.0</ele><time>2026-05-01T14:41:04.442Z</time></trkpt><trkpt lat="44.2235324" lon="11.7734673"><ele>127.0</ele><time>2026-05-01T14:41:08.441Z</time></trkpt><trkpt lat="44.223483" lon="11.7735698"><ele>127.0</ele><time>2026-05-01T14:41:11.441Z</time></trkpt><trkpt lat="44.2235878" lon="11.7734679"><ele>127.0</ele><time>2026-05-01T14:41:13.442Z</time></trkpt><trkpt lat="44.2233315" lon="11.7738495"><ele>127.0</ele><time>2026-05-01T14:41:26.072Z</time></trkpt><trkpt lat="44.2232525" lon="11.773964"><ele>127.0</ele><time>2026-05-01T14:41:27.442Z</time></trkpt><trkpt lat="44.2233719" lon="11.773664"><ele>127.0</ele><time>2026-05-01T14:41:28.441Z</time></trkpt><trkpt lat="44.2234948" lon="11.7734487"><ele>127.00000000000001</ele><time>2026-05-01T14:41:29.442Z</time></trkpt><trkpt lat="44.2235424" lon="11.7733705"><ele>127.0</ele><time>2026-05-01T14:41:30.442Z</time></trkpt><trkpt lat="44.2235818" lon="11.7732342"><ele>127.0</ele><time>2026-05-01T14:41:36.442Z</time></trkpt><trkpt lat="44.2235588" lon="11.7731437"><ele>127.0</ele><time>2026-05-01T14:41:42.443Z</time></trkpt><trkpt lat="44.2235812" lon="11.7730569"><ele>127.00000000000001</ele><time>2026-05-01T14:41:47.441Z</time></trkpt><trkpt lat="44.2235017" lon="11.7730514"><ele>127.0</ele><time>2026-05-01T14:42:17.44Z</time></trkpt><trkpt lat="44.2234158" lon="11.7730534"><ele>127.0</ele><time>2026-05-01T14:42:19.443Z</time></trkpt><trkpt lat="44.2233127" lon="11.7730624"><ele>126.99999999999999</ele><time>2026-05-01T14:42:21.442Z</time></trkpt><trkpt lat="44.2232382" lon="11.7730577"><ele>126.99999999999999</ele><time>2026-05-01T14:42:23.441Z</time></trkpt><trkpt lat="44.2231752" lon="11.7730356"><ele>127.0</ele><time>2026-05-01T14:42:27.441Z</time></trkpt><trkpt lat="44.2233272" lon="11.7730234"><ele>127.0</ele><time>2026-05-01T14:42:43.44Z</time></trkpt><trkpt lat="44.2234197" lon="11.7730599"><ele>127.0</ele><time>2026-05-01T14:42:44.442Z</time></trkpt><trkpt lat="44.2235171" lon="11.7730982"><ele>127.0</ele><time>2026-05-01T14:42:51.442Z</time></trkpt><trkpt lat="44.2236082" lon="11.7731616"><ele>127.0</ele><time>2026-05-01T14:42:52.441Z</time></trkpt><trkpt lat="44.2234759" lon="11.7730134"><ele>127.0</ele><time>2026-05-01T14:42:55.442Z</time></trkpt><trkpt lat="44.2235324" lon="11.7730947"><ele>127.00000000000001</ele><time>2026-05-01T14:43:25.441Z</time></trkpt><trkpt lat="44.2235978" lon="11.7730799"><ele>127.0</ele><time>2026-05-01T14:43:47.44Z</time></trkpt><trkpt lat="44.2236049" lon="11.7729924"><ele>127.0</ele><time>2026-05-01T14:43:54.442Z</time></trkpt><trkpt lat="44.2236208" lon="11.7730915"><ele>127.0</ele><time>2026-05-01T14:45:10.442Z</time></trkpt><trkpt lat="44.2235465" lon="11.7731173"><ele>127.00000000000001</ele><time>2026-05-01T14:46:20.443Z</time></trkpt><trkpt lat="44.2234631" lon="11.7731079"><ele>127.0</ele><time>2026-05-01T14:46:27.441Z</time></trkpt><trkpt lat="44.2235374" lon="11.7731721"><ele>127.0</ele><time>2026-05-01T14:46:31.441Z</time></trkpt><trkpt lat="44.2236426" lon="11.7732487"><ele>127.0</ele><time>2026-05-01T14:46:36.484Z</time></trkpt><trkpt lat="44.2234975" lon="11.7732742"><ele>127.0</ele><time>2026-05-01T14:46:47.983Z</time></trkpt><trkpt lat="44.223742" lon="11.7732594"><ele>127.0</ele><time>2026-05-01T14:47:05.441Z</time></trkpt><trkpt lat="44.22353" lon="11.7732267"><ele>127.0</ele><time>2026-05-01T15:07:01.441Z</time></trkpt><trkpt lat="44.2236533" lon="11.7732167"><ele>127.0</ele><time>2026-05-01T15:07:21.443Z</time></trkpt><trkpt lat="44.2237567" lon="11.773275"><ele>127.0</ele><time>2026-05-01T15:09:17.44Z</time></trkpt><trkpt lat="44.223815" lon="11.77322"><ele>127.00000000000001</ele><time>2026-05-01T15:09:35.44Z</time></trkpt><trkpt lat="44.22381" lon="11.7731183"><ele>127.0</ele><time>2026-05-01T15:09:38.44Z</time></trkpt><trkpt lat="44.2238017" lon="11.7730083"><ele>127.0</ele><time>2026-05-01T15:09:41.439Z</time></trkpt><trkpt lat="44.2238233" lon="11.7729017"><ele>127.0</ele><time>2026-05-01T15:09:45.44Z</time></trkpt><trkpt lat="44.2238333" lon="11.7728133"><ele>127.00000000000001</ele><time>2026-05-01T15:09:49.443Z</time></trkpt><trkpt lat="44.2238283" lon="11.77271"><ele>127.0</ele><time>2026-05-01T15:09:53.442Z</time></trkpt><trkpt lat="44.2238" lon="11.772575"><ele>127.00000000000001</ele><time>2026-05-01T15:09:56.442Z</time></trkpt><trkpt lat="44.2237783" lon="11.7724883"><ele>127.0</ele><time>2026-05-01T15:09:58.441Z</time></trkpt><trkpt lat="44.2237667" lon="11.7723583"><ele>127.0</ele><time>2026-05-01T15:10:01.44Z</time></trkpt><trkpt lat="44.223755" lon="11.7722567"><ele>127.0</ele><time>2026-05-01T15:10:03.441Z</time></trkpt><trkpt lat="44.2237367" lon="11.772165"><ele>127.00000000000001</ele><time>2026-05-01T15:10:05.442Z</time></trkpt><trkpt lat="44.2237133" lon="11.7720783"><ele>127.0</ele><time>2026-05-01T15:10:07.442Z</time></trkpt><trkpt lat="44.2236317" lon="11.7720133"><ele>127.00000000000001</ele><time>2026-05-01T15:10:10.442Z</time></trkpt><trkpt lat="44.2235717" lon="11.7719833"><ele>127.0</ele><time>2026-05-01T15:10:12.441Z</time></trkpt><trkpt lat="44.223485" lon="11.77193"><ele>127.0</ele><time>2026-05-01T15:10:14.44Z</time></trkpt><trkpt lat="44.2234" lon="11.7718983"><ele>127.0</ele><time>2026-05-01T15:10:16.441Z</time></trkpt><trkpt lat="44.22331" lon="11.7719033"><ele>127.00000000000001</ele><time>2026-05-01T15:10:18.442Z</time></trkpt><trkpt lat="44.22323" lon="11.7718967"><ele>127.0</ele><time>2026-05-01T15:10:20.441Z</time></trkpt><trkpt lat="44.22317" lon="11.7718583"><ele>127.0</ele><time>2026-05-01T15:10:22.441Z</time></trkpt><trkpt lat="44.2231083" lon="11.7718133"><ele>127.0</ele><time>2026-05-01T15:10:26.445Z</time></trkpt><trkpt lat="44.2231033" lon="11.7719167"><ele>127.0</ele><time>2026-05-01T15:10:32.442Z</time></trkpt><trkpt lat="44.2231117" lon="11.772015"><ele>127.0</ele><time>2026-05-01T15:10:35.441Z</time></trkpt><trkpt lat="44.22313" lon="11.7721217"><ele>127.0</ele><time>2026-05-01T15:10:38.44Z</time></trkpt><trkpt lat="44.2231433" lon="11.7722167"><ele>127.0</ele><time>2026-05-01T15:10:41.441Z</time></trkpt><trkpt lat="44.2231567" lon="11.7723033"><ele>127.0</ele><time>2026-05-01T15:10:45.442Z</time></trkpt><trkpt lat="44.223145" lon="11.772405"><ele>125.0</ele><time>2026-05-01T15:10:49.441Z</time></trkpt><trkpt lat="44.2231233" lon="11.7725883"><ele>122.99999999999999</ele><time>2026-05-01T15:10:57.441Z</time></trkpt><trkpt lat="44.2231167" lon="11.7726867"><ele>120.99999999999999</ele><time>2026-05-01T15:11:00.441Z</time></trkpt><trkpt lat="44.2231083" lon="11.77279"><ele>119.0</ele><time>2026-05-01T15:11:03.441Z</time></trkpt><trkpt lat="44.2230917" lon="11.772925"><ele>117.0</ele><time>2026-05-01T15:11:06.44Z</time></trkpt><trkpt lat="44.22309" lon="11.77303"><ele>116.83333333333333</ele><time>2026-05-01T15:11:08.442Z</time></trkpt><trkpt lat="44.2230933" lon="11.773135"><ele>116.66666666666666</ele><time>2026-05-01T15:11:10.441Z</time></trkpt><trkpt lat="44.2231033" lon="11.7732283"><ele>116.5</ele><time>2026-05-01T15:11:12.44Z</time></trkpt><trkpt lat="44.2231167" lon="11.7733283"><ele>116.33333333333333</ele><time>2026-05-01T15:11:14.44Z</time></trkpt><trkpt lat="44.223135" lon="11.7734233"><ele>116.16666666666666</ele><time>2026-05-01T15:11:16.442Z</time></trkpt><trkpt lat="44.2231633" lon="11.7735283"><ele>116.0</ele><time>2026-05-01T15:11:18.441Z</time></trkpt><trkpt lat="44.2231867" lon="11.77364"><ele>117.33333333333333</ele><time>2026-05-01T15:11:20.442Z</time></trkpt><trkpt lat="44.2232067" lon="11.77376"><ele>118.66666666666666</ele><time>2026-05-01T15:11:22.441Z</time></trkpt><trkpt lat="44.2232467" lon="11.7738767"><ele>120.0</ele><time>2026-05-01T15:11:24.442Z</time></trkpt><trkpt lat="44.2232717" lon="11.7739883"><ele>121.33333333333334</ele><time>2026-05-01T15:11:26.441Z</time></trkpt><trkpt lat="44.2232917" lon="11.774115"><ele>122.66666666666667</ele><time>2026-05-01T15:11:28.441Z</time></trkpt><trkpt lat="44.22327" lon="11.77421"><ele>124.0</ele><time>2026-05-01T15:11:31.443Z</time></trkpt><trkpt lat="44.2232067" lon="11.774275"><ele>121.80000000000001</ele><time>2026-05-01T15:11:33.442Z</time></trkpt><trkpt lat="44.2231217" lon="11.7743367"><ele>119.60000000000001</ele><time>2026-05-01T15:11:35.443Z</time></trkpt><trkpt lat="44.2230167" lon="11.7744067"><ele>117.4</ele><time>2026-05-01T15:11:37.441Z</time></trkpt><trkpt lat="44.22292" lon="11.7744817"><ele>115.2</ele><time>2026-05-01T15:11:39.44Z</time></trkpt><trkpt lat="44.222845" lon="11.7745117"><ele>113.0</ele><time>2026-05-01T15:11:41.441Z</time></trkpt><trkpt lat="44.2228483" lon="11.7746417"><ele>112.16666666666666</ele><time>2026-05-01T15:13:06.442Z</time></trkpt><trkpt lat="44.2228717" lon="11.77473"><ele>111.33333333333333</ele><time>2026-05-01T15:13:08.441Z</time></trkpt><trkpt lat="44.2229217" lon="11.7748317"><ele>110.5</ele><time>2026-05-01T15:13:10.441Z</time></trkpt><trkpt lat="44.2229683" lon="11.7749117"><ele>109.66666666666666</ele><time>2026-05-01T15:13:12.441Z</time></trkpt><trkpt lat="44.2229367" lon="11.7750067"><ele>108.83333333333333</ele><time>2026-05-01T15:13:15.442Z</time></trkpt><trkpt lat="44.222865" lon="11.77508"><ele>108.0</ele><time>2026-05-01T15:13:17.441Z</time></trkpt><trkpt lat="44.2227933" lon="11.7751383"><ele>107.2</ele><time>2026-05-01T15:13:19.442Z</time></trkpt><trkpt lat="44.2227283" lon="11.7751883"><ele>106.4</ele><time>2026-05-01T15:13:21.441Z</time></trkpt><trkpt lat="44.22262" lon="11.7752617"><ele>105.60000000000001</ele><time>2026-05-01T15:13:36.443Z</time></trkpt><trkpt lat="44.2225583" lon="11.7753333"><ele>104.80000000000001</ele><time>2026-05-01T15:13:39.442Z</time></trkpt><trkpt lat="44.2224883" lon="11.77542"><ele>104.0</ele><time>2026-05-01T15:13:41.442Z</time></trkpt><trkpt lat="44.2224217" lon="11.7755067"><ele>104.0</ele><time>2026-05-01T15:13:43.443Z</time></trkpt><trkpt lat="44.222365" lon="11.7756"><ele>104.0</ele><time>2026-05-01T15:13:45.441Z</time></trkpt><trkpt lat="44.222295" lon="11.77569"><ele>104.0</ele><time>2026-05-01T15:13:47.44Z</time></trkpt><trkpt lat="44.2222267" lon="11.77579"><ele>104.0</ele><time>2026-05-01T15:13:49.444Z</time></trkpt><trkpt lat="44.2221483" lon="11.775915"><ele>104.0</ele><time>2026-05-01T15:13:51.44Z</time></trkpt><trkpt lat="44.2221017" lon="11.7759833"><ele>103.16666666666666</ele><time>2026-05-01T15:13:52.442Z</time></trkpt><trkpt lat="44.222055" lon="11.7760467"><ele>102.33333333333333</ele><time>2026-05-01T15:13:53.443Z</time></trkpt><trkpt lat="44.2219767" lon="11.7761483"><ele>101.5</ele><time>2026-05-01T15:13:55.442Z</time></trkpt><trkpt lat="44.2219033" lon="11.776255"><ele>100.66666666666666</ele><time>2026-05-01T15:13:57.443Z</time></trkpt><trkpt lat="44.2218417" lon="11.776345"><ele>99.83333333333333</ele><time>2026-05-01T15:13:59.442Z</time></trkpt><trkpt lat="44.2218383" lon="11.77644"><ele>99.0</ele><time>2026-05-01T15:14:01.443Z</time></trkpt><trkpt lat="44.2219" lon="11.776515"><ele>99.0</ele><time>2026-05-01T15:14:03.442Z</time></trkpt><trkpt lat="44.2219467" lon="11.7766167"><ele>99.0</ele><time>2026-05-01T15:14:05.442Z</time></trkpt><trkpt lat="44.2220033" lon="11.7767117"><ele>99.0</ele><time>2026-05-01T15:14:07.443Z</time></trkpt><trkpt lat="44.2220733" lon="11.776795"><ele>99.0</ele><time>2026-05-01T15:14:09.442Z</time></trkpt><trkpt lat="44.2221317" lon="11.7768983"><ele>99.0</ele><time>2026-05-01T15:14:11.441Z</time></trkpt><trkpt lat="44.222205" lon="11.7769983"><ele>99.0</ele><time>2026-05-01T15:14:13.442Z</time></trkpt><trkpt lat="44.22227" lon="11.77711"><ele>99.0</ele><time>2026-05-01T15:14:15.442Z</time></trkpt><trkpt lat="44.2223433" lon="11.7772183"><ele>99.0</ele><time>2026-05-01T15:14:17.442Z</time></trkpt><trkpt lat="44.2224167" lon="11.7773267"><ele>99.0</ele><time>2026-05-01T15:14:19.443Z</time></trkpt><trkpt lat="44.2225017" lon="11.7774233"><ele>99.0</ele><time>2026-05-01T15:14:21.443Z</time></trkpt><trkpt lat="44.222575" lon="11.7775233"><ele>99.0</ele><time>2026-05-01T15:14:23.441Z</time></trkpt><trkpt lat="44.2226483" lon="11.7776183"><ele>99.0</ele><time>2026-05-01T15:14:25.441Z</time></trkpt><trkpt lat="44.22272" lon="11.77771"><ele>99.0</ele><time>2026-05-01T15:14:27.441Z</time></trkpt><trkpt lat="44.2227933" lon="11.7777833"><ele>99.0</ele><time>2026-05-01T15:14:29.439Z</time></trkpt><trkpt lat="44.2228483" lon="11.7778567"><ele>99.0</ele><time>2026-05-01T15:14:31.441Z</time></trkpt><trkpt lat="44.2228967" lon="11.7779283"><ele>99.0</ele><time>2026-05-01T15:14:33.44Z</time></trkpt><trkpt lat="44.2229433" lon="11.7779933"><ele>98.83333333333333</ele><time>2026-05-01T15:14:35.44Z</time></trkpt><trkpt lat="44.2229917" lon="11.778055"><ele>98.66666666666666</ele><time>2026-05-01T15:14:37.441Z</time></trkpt><trkpt lat="44.2230617" lon="11.7781383"><ele>98.5</ele><time>2026-05-01T15:14:40.439Z</time></trkpt><trkpt lat="44.223125" lon="11.778215"><ele>98.33333333333333</ele><time>2026-05-01T15:14:43.442Z</time></trkpt><trkpt lat="44.22319" lon="11.7783233"><ele>98.16666666666666</ele><time>2026-05-01T15:14:46.441Z</time></trkpt><trkpt lat="44.22325" lon="11.778405"><ele>98.0</ele><time>2026-05-01T15:14:48.441Z</time></trkpt><trkpt lat="44.2233167" lon="11.778485"><ele>98.2</ele><time>2026-05-01T15:14:50.441Z</time></trkpt><trkpt lat="44.22338" lon="11.7785717"><ele>98.4</ele><time>2026-05-01T15:14:52.443Z</time></trkpt><trkpt lat="44.223445" lon="11.778665"><ele>98.60000000000001</ele><time>2026-05-01T15:14:54.441Z</time></trkpt><trkpt lat="44.2235083" lon="11.7787683"><ele>98.80000000000001</ele><time>2026-05-01T15:14:56.439Z</time></trkpt><trkpt lat="44.2235783" lon="11.77888"><ele>99.0</ele><time>2026-05-01T15:14:58.44Z</time></trkpt><trkpt lat="44.2236483" lon="11.7790017"><ele>99.0</ele><time>2026-05-01T15:15:00.439Z</time></trkpt><trkpt lat="44.2237083" lon="11.779135"><ele>99.0</ele><time>2026-05-01T15:15:02.438Z</time></trkpt><trkpt lat="44.2237617" lon="11.7792817"><ele>99.0</ele><time>2026-05-01T15:15:04.439Z</time></trkpt><trkpt lat="44.2238217" lon="11.7794283"><ele>99.0</ele><time>2026-05-01T15:15:06.439Z</time></trkpt><trkpt lat="44.223865" lon="11.7795517"><ele>98.4</ele><time>2026-05-01T15:15:08.438Z</time></trkpt><trkpt lat="44.2238617" lon="11.77964"><ele>97.80000000000001</ele><time>2026-05-01T15:15:12.442Z</time></trkpt><trkpt lat="44.2239483" lon="11.7797"><ele>97.19999999999999</ele><time>2026-05-01T15:15:17.442Z</time></trkpt><trkpt lat="44.2239917" lon="11.7798"><ele>96.6</ele><time>2026-05-01T15:15:19.439Z</time></trkpt><trkpt lat="44.2240467" lon="11.7799217"><ele>96.0</ele><time>2026-05-01T15:15:21.438Z</time></trkpt><trkpt lat="44.2241017" lon="11.78005"><ele>96.0</ele><time>2026-05-01T15:15:23.439Z</time></trkpt><trkpt lat="44.224155" lon="11.7801617"><ele>96.0</ele><time>2026-05-01T15:15:25.44Z</time></trkpt><trkpt lat="44.224155" lon="11.7802683"><ele>96.0</ele><time>2026-05-01T15:15:27.439Z</time></trkpt><trkpt lat="44.2240833" lon="11.7803633"><ele>96.0</ele><time>2026-05-01T15:15:29.439Z</time></trkpt><trkpt lat="44.2240367" lon="11.780425"><ele>96.0</ele><time>2026-05-01T15:15:30.439Z</time></trkpt><trkpt lat="44.2239867" lon="11.7804867"><ele>96.0</ele><time>2026-05-01T15:15:31.44Z</time></trkpt><trkpt lat="44.2239317" lon="11.7805667"><ele>94.16666666666667</ele><time>2026-05-01T15:15:32.438Z</time></trkpt><trkpt lat="44.22388" lon="11.7806517"><ele>92.33333333333333</ele><time>2026-05-01T15:15:33.438Z</time></trkpt><trkpt lat="44.2238333" lon="11.78074"><ele>90.5</ele><time>2026-05-01T15:15:34.439Z</time></trkpt><trkpt lat="44.22379" lon="11.78084"><ele>88.66666666666666</ele><time>2026-05-01T15:15:35.439Z</time></trkpt><trkpt lat="44.2237467" lon="11.7809433"><ele>86.83333333333333</ele><time>2026-05-01T15:15:36.439Z</time></trkpt><trkpt lat="44.2237" lon="11.7810417"><ele>85.0</ele><time>2026-05-01T15:15:37.44Z</time></trkpt><trkpt lat="44.2236567" lon="11.7811467"><ele>84.0</ele><time>2026-05-01T15:15:38.44Z</time></trkpt><trkpt lat="44.22361" lon="11.781255"><ele>83.0</ele><time>2026-05-01T15:15:39.439Z</time></trkpt><trkpt lat="44.223565" lon="11.7813633"><ele>82.0</ele><time>2026-05-01T15:15:40.439Z</time></trkpt><trkpt lat="44.22352" lon="11.781475"><ele>81.0</ele><time>2026-05-01T15:15:41.44Z</time></trkpt><trkpt lat="44.2234733" lon="11.7815883"><ele>80.0</ele><time>2026-05-01T15:15:42.438Z</time></trkpt><trkpt lat="44.2234317" lon="11.781705"><ele>80.0</ele><time>2026-05-01T15:15:43.44Z</time></trkpt><trkpt lat="44.22339" lon="11.781825"><ele>80.0</ele><time>2026-05-01T15:15:44.44Z</time></trkpt><trkpt lat="44.2233433" lon="11.7819367"><ele>80.0</ele><time>2026-05-01T15:15:45.44Z</time></trkpt><trkpt lat="44.223295" lon="11.7820467"><ele>80.0</ele><time>2026-05-01T15:15:46.44Z</time></trkpt><trkpt lat="44.22324" lon="11.7821583"><ele>80.0</ele><time>2026-05-01T15:15:47.441Z</time></trkpt><trkpt lat="44.2231883" lon="11.7822817"><ele>79.6</ele><time>2026-05-01T15:15:48.442Z</time></trkpt><trkpt lat="44.2231383" lon="11.7824017"><ele>79.2</ele><time>2026-05-01T15:15:49.44Z</time></trkpt><trkpt lat="44.2230867" lon="11.78252"><ele>78.8</ele><time>2026-05-01T15:15:50.44Z</time></trkpt><trkpt lat="44.2230383" lon="11.782635"><ele>78.4</ele><time>2026-05-01T15:15:51.44Z</time></trkpt><trkpt lat="44.2229883" lon="11.7827517"><ele>78.0</ele><time>2026-05-01T15:15:52.44Z</time></trkpt><trkpt lat="44.22294" lon="11.782865"><ele>78.0</ele><time>2026-05-01T15:15:53.44Z</time></trkpt><trkpt lat="44.222895" lon="11.7829833"><ele>78.0</ele><time>2026-05-01T15:15:54.441Z</time></trkpt><trkpt lat="44.2228533" lon="11.7831017"><ele>78.0</ele><time>2026-05-01T15:15:55.44Z</time></trkpt><trkpt lat="44.2228083" lon="11.7832183"><ele>78.0</ele><time>2026-05-01T15:15:56.441Z</time></trkpt><trkpt lat="44.222765" lon="11.7833333"><ele>78.0</ele><time>2026-05-01T15:15:57.439Z</time></trkpt><trkpt lat="44.222725" lon="11.7834467"><ele>77.33333333333333</ele><time>2026-05-01T15:15:58.44Z</time></trkpt><trkpt lat="44.2226933" lon="11.783565"><ele>76.66666666666667</ele><time>2026-05-01T15:15:59.441Z</time></trkpt><trkpt lat="44.222665" lon="11.7836783"><ele>76.0</ele><time>2026-05-01T15:16:00.441Z</time></trkpt><trkpt lat="44.2226367" lon="11.783795"><ele>75.33333333333334</ele><time>2026-05-01T15:16:01.44Z</time></trkpt><trkpt lat="44.2226117" lon="11.78391"><ele>74.66666666666667</ele><time>2026-05-01T15:16:02.44Z</time></trkpt><trkpt lat="44.2225867" lon="11.7840233"><ele>74.0</ele><time>2026-05-01T15:16:03.443Z</time></trkpt><trkpt lat="44.2225617" lon="11.7841383"><ele>74.0</ele><time>2026-05-01T15:16:04.44Z</time></trkpt><trkpt lat="44.22254" lon="11.7842517"><ele>74.0</ele><time>2026-05-01T15:16:05.44Z</time></trkpt><trkpt lat="44.2225133" lon="11.78436"><ele>74.0</ele><time>2026-05-01T15:16:06.441Z</time></trkpt><trkpt lat="44.2224883" lon="11.7844683"><ele>74.0</ele><time>2026-05-01T15:16:07.439Z</time></trkpt><trkpt lat="44.2224583" lon="11.784585"><ele>74.0</ele><time>2026-05-01T15:16:08.44Z</time></trkpt><trkpt lat="44.2224317" lon="11.784695"><ele>74.0</ele><time>2026-05-01T15:16:09.44Z</time></trkpt><trkpt lat="44.2224033" lon="11.7847983"><ele>73.5</ele><time>2026-05-01T15:16:10.44Z</time></trkpt><trkpt lat="44.22237" lon="11.7849017"><ele>73.0</ele><time>2026-05-01T15:16:11.44Z</time></trkpt><trkpt lat="44.22234" lon="11.7849983"><ele>72.5</ele><time>2026-05-01T15:16:12.44Z</time></trkpt><trkpt lat="44.22231" lon="11.7850933"><ele>72.0</ele><time>2026-05-01T15:16:13.44Z</time></trkpt><trkpt lat="44.2222783" lon="11.7851917"><ele>71.5</ele><time>2026-05-01T15:16:14.44Z</time></trkpt><trkpt lat="44.222245" lon="11.7852817"><ele>71.0</ele><time>2026-05-01T15:16:15.44Z</time></trkpt><trkpt lat="44.2222117" lon="11.7853683"><ele>70.71428571428571</ele><time>2026-05-01T15:16:16.442Z</time></trkpt><trkpt lat="44.222175" lon="11.7854583"><ele>70.42857142857142</ele><time>2026-05-01T15:16:17.44Z</time></trkpt><trkpt lat="44.22214" lon="11.785545"><ele>70.14285714285714</ele><time>2026-05-01T15:16:18.442Z</time></trkpt><trkpt lat="44.2221083" lon="11.7856317"><ele>69.85714285714286</ele><time>2026-05-01T15:16:19.441Z</time></trkpt><trkpt lat="44.222075" lon="11.7857233"><ele>69.57142857142858</ele><time>2026-05-01T15:16:20.439Z</time></trkpt><trkpt lat="44.2220433" lon="11.78581"><ele>69.28571428571429</ele><time>2026-05-01T15:16:21.441Z</time></trkpt><trkpt lat="44.22201" lon="11.7859"><ele>69.0</ele><time>2026-05-01T15:16:22.44Z</time></trkpt><trkpt lat="44.221975" lon="11.7859867"><ele>69.14285714285714</ele><time>2026-05-01T15:16:23.44Z</time></trkpt><trkpt lat="44.22194" lon="11.7860733"><ele>69.28571428571429</ele><time>2026-05-01T15:16:24.44Z</time></trkpt><trkpt lat="44.2219067" lon="11.7861567"><ele>69.42857142857143</ele><time>2026-05-01T15:16:25.441Z</time></trkpt><trkpt lat="44.2218733" lon="11.78624"><ele>69.57142857142857</ele><time>2026-05-01T15:16:26.44Z</time></trkpt><trkpt lat="44.2218367" lon="11.7863167"><ele>69.71428571428572</ele><time>2026-05-01T15:16:27.441Z</time></trkpt><trkpt lat="44.2218" lon="11.7863933"><ele>69.85714285714286</ele><time>2026-05-01T15:16:28.439Z</time></trkpt><trkpt lat="44.2217667" lon="11.7864767"><ele>70.0</ele><time>2026-05-01T15:16:29.439Z</time></trkpt><trkpt lat="44.2217333" lon="11.786555"><ele>70.0</ele><time>2026-05-01T15:16:30.439Z</time></trkpt><trkpt lat="44.2217017" lon="11.7866383"><ele>70.0</ele><time>2026-05-01T15:16:31.442Z</time></trkpt><trkpt lat="44.2216683" lon="11.7867217"><ele>70.0</ele><time>2026-05-01T15:16:32.44Z</time></trkpt><trkpt lat="44.2216133" lon="11.7868817"><ele>70.0</ele><time>2026-05-01T15:16:34.441Z</time></trkpt><trkpt lat="44.2215617" lon="11.787045"><ele>70.0</ele><time>2026-05-01T15:16:36.441Z</time></trkpt><trkpt lat="44.2215317" lon="11.7871283"><ele>70.16666666666666</ele><time>2026-05-01T15:16:37.441Z</time></trkpt><trkpt lat="44.2214983" lon="11.7872117"><ele>70.33333333333333</ele><time>2026-05-01T15:16:38.439Z</time></trkpt><trkpt lat="44.2214617" lon="11.7872933"><ele>70.5</ele><time>2026-05-01T15:16:39.441Z</time></trkpt><trkpt lat="44.2214267" lon="11.787375"><ele>70.66666666666667</ele><time>2026-05-01T15:16:40.441Z</time></trkpt><trkpt lat="44.2213983" lon="11.78746"><ele>70.83333333333334</ele><time>2026-05-01T15:16:41.44Z</time></trkpt><trkpt lat="44.2213517" lon="11.7876183"><ele>71.0</ele><time>2026-05-01T15:16:43.442Z</time></trkpt><trkpt lat="44.2213117" lon="11.7877883"><ele>73.66666666666667</ele><time>2026-05-01T15:16:45.441Z</time></trkpt><trkpt lat="44.2212967" lon="11.7878767"><ele>76.33333333333334</ele><time>2026-05-01T15:16:46.441Z</time></trkpt><trkpt lat="44.2212783" lon="11.7880517"><ele>79.0</ele><time>2026-05-01T15:16:48.44Z</time></trkpt><trkpt lat="44.221275" lon="11.78814"><ele>81.66666666666667</ele><time>2026-05-01T15:16:49.439Z</time></trkpt><trkpt lat="44.2212683" lon="11.7883133"><ele>84.33333333333333</ele><time>2026-05-01T15:16:51.438Z</time></trkpt><trkpt lat="44.2212717" lon="11.7884017"><ele>87.0</ele><time>2026-05-01T15:16:52.439Z</time></trkpt><trkpt lat="44.221275" lon="11.78849"><ele>86.6</ele><time>2026-05-01T15:16:53.441Z</time></trkpt><trkpt lat="44.2213" lon="11.788655"><ele>86.19999999999999</ele><time>2026-05-01T15:16:55.44Z</time></trkpt><trkpt lat="44.2213167" lon="11.7887467"><ele>85.8</ele><time>2026-05-01T15:16:56.44Z</time></trkpt><trkpt lat="44.2213517" lon="11.788905"><ele>85.4</ele><time>2026-05-01T15:16:58.441Z</time></trkpt><trkpt lat="44.2214" lon="11.7890617"><ele>85.0</ele><time>2026-05-01T15:17:00.44Z</time></trkpt><trkpt lat="44.22143" lon="11.78914"><ele>85.0</ele><time>2026-05-01T15:17:01.439Z</time></trkpt><trkpt lat="44.2214617" lon="11.78922"><ele>85.0</ele><time>2026-05-01T15:17:02.441Z</time></trkpt><trkpt lat="44.2214967" lon="11.7892967"><ele>85.0</ele><time>2026-05-01T15:17:03.44Z</time></trkpt><trkpt lat="44.2215367" lon="11.7893683"><ele>85.0</ele><time>2026-05-01T15:17:04.439Z</time></trkpt><trkpt lat="44.221575" lon="11.7894433"><ele>85.0</ele><time>2026-05-01T15:17:05.439Z</time></trkpt><trkpt lat="44.221615" lon="11.7895183"><ele>85.0</ele><time>2026-05-01T15:17:06.439Z</time></trkpt><trkpt lat="44.2216833" lon="11.7896633"><ele>83.83333333333333</ele><time>2026-05-01T15:17:08.44Z</time></trkpt><trkpt lat="44.2217233" lon="11.7897333"><ele>82.66666666666666</ele><time>2026-05-01T15:17:09.44Z</time></trkpt><trkpt lat="44.2217617" lon="11.7898033"><ele>81.5</ele><time>2026-05-01T15:17:10.441Z</time></trkpt><trkpt lat="44.2218367" lon="11.7899417"><ele>80.33333333333333</ele><time>2026-05-01T15:17:12.44Z</time></trkpt><trkpt lat="44.2219133" lon="11.7900767"><ele>79.16666666666667</ele><time>2026-05-01T15:17:14.443Z</time></trkpt><trkpt lat="44.221955" lon="11.7901433"><ele>78.0</ele><time>2026-05-01T15:17:15.443Z</time></trkpt><trkpt lat="44.2220317" lon="11.7902667"><ele>78.0</ele><time>2026-05-01T15:17:17.442Z</time></trkpt><trkpt lat="44.2221117" lon="11.7903933"><ele>78.0</ele><time>2026-05-01T15:17:19.44Z</time></trkpt><trkpt lat="44.2221783" lon="11.7905283"><ele>78.0</ele><time>2026-05-01T15:17:21.441Z</time></trkpt><trkpt lat="44.2222317" lon="11.7906717"><ele>78.0</ele><time>2026-05-01T15:17:23.441Z</time></trkpt><trkpt lat="44.2222867" lon="11.7908133"><ele>76.8</ele><time>2026-05-01T15:17:25.44Z</time></trkpt><trkpt lat="44.2223383" lon="11.7909567"><ele>75.6</ele><time>2026-05-01T15:17:27.442Z</time></trkpt><trkpt lat="44.2223783" lon="11.7911017"><ele>74.4</ele><time>2026-05-01T15:17:29.441Z</time></trkpt><trkpt lat="44.2224133" lon="11.791245"><ele>73.2</ele><time>2026-05-01T15:17:31.442Z</time></trkpt><trkpt lat="44.2224433" lon="11.7913933"><ele>72.0</ele><time>2026-05-01T15:17:33.44Z</time></trkpt><trkpt lat="44.222475" lon="11.7915433"><ele>72.0</ele><time>2026-05-01T15:17:35.441Z</time></trkpt><trkpt lat="44.2225" lon="11.7916933"><ele>72.0</ele><time>2026-05-01T15:17:37.442Z</time></trkpt><trkpt lat="44.2225267" lon="11.7918483"><ele>72.0</ele><time>2026-05-01T15:17:39.441Z</time></trkpt><trkpt lat="44.22255" lon="11.7920033"><ele>72.0</ele><time>2026-05-01T15:17:41.441Z</time></trkpt><trkpt lat="44.22257" lon="11.792155"><ele>72.0</ele><time>2026-05-01T15:17:43.442Z</time></trkpt><trkpt lat="44.2225933" lon="11.7923"><ele>72.2</ele><time>2026-05-01T15:17:45.44Z</time></trkpt><trkpt lat="44.2226183" lon="11.7924467"><ele>72.4</ele><time>2026-05-01T15:17:47.443Z</time></trkpt><trkpt lat="44.2226433" lon="11.7926"><ele>72.6</ele><time>2026-05-01T15:17:49.441Z</time></trkpt><trkpt lat="44.222665" lon="11.7927517"><ele>72.8</ele><time>2026-05-01T15:17:51.441Z</time></trkpt><trkpt lat="44.2226867" lon="11.7929083"><ele>73.0</ele><time>2026-05-01T15:17:53.441Z</time></trkpt><trkpt lat="44.2227083" lon="11.7930767"><ele>73.5</ele><time>2026-05-01T15:17:55.441Z</time></trkpt><trkpt lat="44.2227333" lon="11.7932383"><ele>74.0</ele><time>2026-05-01T15:17:57.441Z</time></trkpt><trkpt lat="44.2227667" lon="11.7933933"><ele>74.5</ele><time>2026-05-01T15:17:59.44Z</time></trkpt><trkpt lat="44.222805" lon="11.7935433"><ele>75.0</ele><time>2026-05-01T15:18:01.442Z</time></trkpt><trkpt lat="44.2228567" lon="11.7936867"><ele>75.57142857142857</ele><time>2026-05-01T15:18:03.441Z</time></trkpt><trkpt lat="44.2229133" lon="11.793835"><ele>76.14285714285714</ele><time>2026-05-01T15:18:05.441Z</time></trkpt><trkpt lat="44.222945" lon="11.7939117"><ele>76.71428571428572</ele><time>2026-05-01T15:18:06.442Z</time></trkpt><trkpt lat="44.2229767" lon="11.7939883"><ele>77.28571428571428</ele><time>2026-05-01T15:18:07.441Z</time></trkpt><trkpt lat="44.22301" lon="11.794065"><ele>77.85714285714286</ele><time>2026-05-01T15:18:08.442Z</time></trkpt><trkpt lat="44.2230467" lon="11.7941383"><ele>78.42857142857143</ele><time>2026-05-01T15:18:09.442Z</time></trkpt><trkpt lat="44.2230817" lon="11.794215"><ele>79.0</ele><time>2026-05-01T15:18:10.44Z</time></trkpt><trkpt lat="44.2231167" lon="11.7942933"><ele>78.0</ele><time>2026-05-01T15:18:11.442Z</time></trkpt><trkpt lat="44.2231517" lon="11.7943717"><ele>77.0</ele><time>2026-05-01T15:18:12.44Z</time></trkpt><trkpt lat="44.2231833" lon="11.7944517"><ele>76.0</ele><time>2026-05-01T15:18:13.442Z</time></trkpt><trkpt lat="44.2232183" lon="11.7945283"><ele>75.0</ele><time>2026-05-01T15:18:14.441Z</time></trkpt><trkpt lat="44.223255" lon="11.7946033"><ele>74.0</ele><time>2026-05-01T15:18:15.44Z</time></trkpt><trkpt lat="44.2233267" lon="11.794745"><ele>73.0</ele><time>2026-05-01T15:18:17.442Z</time></trkpt><trkpt lat="44.2234083" lon="11.7948767"><ele>73.0</ele><time>2026-05-01T15:18:19.443Z</time></trkpt><trkpt lat="44.2234933" lon="11.7949967"><ele>73.0</ele><time>2026-05-01T15:18:21.443Z</time></trkpt><trkpt lat="44.2235783" lon="11.7951133"><ele>73.0</ele><time>2026-05-01T15:18:23.443Z</time></trkpt><trkpt lat="44.2236683" lon="11.795225"><ele>73.0</ele><time>2026-05-01T15:18:25.439Z</time></trkpt><trkpt lat="44.223755" lon="11.79534"><ele>72.0</ele><time>2026-05-01T15:18:27.44Z</time></trkpt><trkpt lat="44.22384" lon="11.7954567"><ele>71.0</ele><time>2026-05-01T15:18:29.439Z</time></trkpt><trkpt lat="44.223915" lon="11.7955833"><ele>70.0</ele><time>2026-05-01T15:18:31.439Z</time></trkpt><trkpt lat="44.22397" lon="11.795725"><ele>69.0</ele><time>2026-05-01T15:18:33.44Z</time></trkpt><trkpt lat="44.2240117" lon="11.7958717"><ele>69.0</ele><time>2026-05-01T15:18:35.441Z</time></trkpt><trkpt lat="44.22404" lon="11.7960233"><ele>69.0</ele><time>2026-05-01T15:18:37.44Z</time></trkpt><trkpt lat="44.2240567" lon="11.7961783"><ele>69.0</ele><time>2026-05-01T15:18:39.441Z</time></trkpt><trkpt lat="44.2240767" lon="11.7963383"><ele>69.0</ele><time>2026-05-01T15:18:41.44Z</time></trkpt><trkpt lat="44.2240817" lon="11.79649"><ele>69.0</ele><time>2026-05-01T15:18:43.44Z</time></trkpt><trkpt lat="44.224095" lon="11.7966367"><ele>69.0</ele><time>2026-05-01T15:18:45.439Z</time></trkpt><trkpt lat="44.2241067" lon="11.79678"><ele>69.0</ele><time>2026-05-01T15:18:47.443Z</time></trkpt><trkpt lat="44.224115" lon="11.7969183"><ele>69.0</ele><time>2026-05-01T15:18:49.441Z</time></trkpt><trkpt lat="44.2241217" lon="11.79704"><ele>69.0</ele><time>2026-05-01T15:18:51.443Z</time></trkpt><trkpt lat="44.2241383" lon="11.7971533"><ele>69.5</ele><time>2026-05-01T15:18:53.442Z</time></trkpt><trkpt lat="44.2241483" lon="11.7972533"><ele>70.0</ele><time>2026-05-01T15:18:55.441Z</time></trkpt><trkpt lat="44.2241567" lon="11.797345"><ele>70.5</ele><time>2026-05-01T15:18:57.439Z</time></trkpt><trkpt lat="44.2241633" lon="11.7974717"><ele>71.0</ele><time>2026-05-01T15:19:00.441Z</time></trkpt><trkpt lat="44.2241667" lon="11.7975983"><ele>71.5</ele><time>2026-05-01T15:19:03.442Z</time></trkpt><trkpt lat="44.2241767" lon="11.7977233"><ele>72.0</ele><time>2026-05-01T15:19:06.441Z</time></trkpt><trkpt lat="44.22419" lon="11.7978417"><ele>72.42857142857143</ele><time>2026-05-01T15:19:09.441Z</time></trkpt><trkpt lat="44.2242" lon="11.797955"><ele>72.85714285714286</ele><time>2026-05-01T15:19:12.442Z</time></trkpt><trkpt lat="44.224215" lon="11.7980517"><ele>73.28571428571428</ele><time>2026-05-01T15:19:15.442Z</time></trkpt><trkpt lat="44.2242233" lon="11.7981417"><ele>73.71428571428572</ele><time>2026-05-01T15:19:18.443Z</time></trkpt><trkpt lat="44.2242367" lon="11.79823"><ele>74.14285714285714</ele><time>2026-05-01T15:19:21.442Z</time></trkpt><trkpt lat="44.2242617" lon="11.7983383"><ele>74.57142857142857</ele><time>2026-05-01T15:19:25.44Z</time></trkpt><trkpt lat="44.2242833" lon="11.7984467"><ele>75.0</ele><time>2026-05-01T15:19:29.441Z</time></trkpt><trkpt lat="44.2243117" lon="11.7985317"><ele>76.28571428571428</ele><time>2026-05-01T15:19:33.439Z</time></trkpt><trkpt lat="44.2243433" lon="11.798625"><ele>77.57142857142857</ele><time>2026-05-01T15:19:37.441Z</time></trkpt><trkpt lat="44.224365" lon="11.7987267"><ele>78.85714285714286</ele><time>2026-05-01T15:19:41.44Z</time></trkpt><trkpt lat="44.2243883" lon="11.7988233"><ele>80.14285714285714</ele><time>2026-05-01T15:19:45.438Z</time></trkpt><trkpt lat="44.2244067" lon="11.7989183"><ele>81.42857142857143</ele><time>2026-05-01T15:19:49.442Z</time></trkpt><trkpt lat="44.2244233" lon="11.7990333"><ele>82.71428571428571</ele><time>2026-05-01T15:19:53.442Z</time></trkpt><trkpt lat="44.2244367" lon="11.799125"><ele>84.0</ele><time>2026-05-01T15:19:56.439Z</time></trkpt><trkpt lat="44.224445" lon="11.79922"><ele>84.42857142857143</ele><time>2026-05-01T15:19:59.44Z</time></trkpt><trkpt lat="44.2244483" lon="11.7993383"><ele>84.85714285714286</ele><time>2026-05-01T15:20:03.44Z</time></trkpt><trkpt lat="44.22445" lon="11.7994317"><ele>85.28571428571428</ele><time>2026-05-01T15:20:06.44Z</time></trkpt><trkpt lat="44.22444" lon="11.7995217"><ele>85.71428571428572</ele><time>2026-05-01T15:20:09.439Z</time></trkpt><trkpt lat="44.22443" lon="11.799615"><ele>86.14285714285714</ele><time>2026-05-01T15:20:12.441Z</time></trkpt><trkpt lat="44.224405" lon="11.7997033"><ele>86.57142857142857</ele><time>2026-05-01T15:20:15.44Z</time></trkpt><trkpt lat="44.2243883" lon="11.79979"><ele>87.0</ele><time>2026-05-01T15:20:18.441Z</time></trkpt><trkpt lat="44.2243767" lon="11.7998983"><ele>87.0</ele><time>2026-05-01T15:20:22.442Z</time></trkpt><trkpt lat="44.2243633" lon="11.7999867"><ele>87.0</ele><time>2026-05-01T15:20:25.439Z</time></trkpt><trkpt lat="44.22435" lon="11.800095"><ele>87.0</ele><time>2026-05-01T15:20:29.44Z</time></trkpt><trkpt lat="44.22434" lon="11.8001833"><ele>87.0</ele><time>2026-05-01T15:20:32.441Z</time></trkpt><trkpt lat="44.224335" lon="11.8002933"><ele>87.0</ele><time>2026-05-01T15:20:36.439Z</time></trkpt><trkpt lat="44.22431" lon="11.8004033"><ele>87.0</ele><time>2026-05-01T15:20:40.44Z</time></trkpt><trkpt lat="44.224285" lon="11.8005133"><ele>87.28571428571428</ele><time>2026-05-01T15:20:44.441Z</time></trkpt><trkpt lat="44.224275" lon="11.8006017"><ele>87.57142857142857</ele><time>2026-05-01T15:20:47.443Z</time></trkpt><trkpt lat="44.2242533" lon="11.8006983"><ele>87.85714285714286</ele><time>2026-05-01T15:20:51.443Z</time></trkpt><trkpt lat="44.2242367" lon="11.8008"><ele>88.14285714285714</ele><time>2026-05-01T15:20:54.442Z</time></trkpt><trkpt lat="44.22422" lon="11.800895"><ele>88.42857142857143</ele><time>2026-05-01T15:20:57.44Z</time></trkpt><trkpt lat="44.224205" lon="11.801"><ele>88.71428571428571</ele><time>2026-05-01T15:21:01.441Z</time></trkpt><trkpt lat="44.2241933" lon="11.8011017"><ele>89.0</ele><time>2026-05-01T15:21:05.44Z</time></trkpt><trkpt lat="44.2241783" lon="11.8012183"><ele>89.33333333333334</ele><time>2026-05-01T15:21:09.44Z</time></trkpt><trkpt lat="44.2241733" lon="11.8013333"><ele>89.66666666666667</ele><time>2026-05-01T15:21:13.44Z</time></trkpt><trkpt lat="44.22417" lon="11.8014283"><ele>90.0</ele><time>2026-05-01T15:21:16.443Z</time></trkpt><trkpt lat="44.224175" lon="11.801525"><ele>90.33333333333333</ele><time>2026-05-01T15:21:19.442Z</time></trkpt><trkpt lat="44.2241917" lon="11.80163"><ele>90.66666666666666</ele><time>2026-05-01T15:21:22.443Z</time></trkpt><trkpt lat="44.224215" lon="11.80175"><ele>91.0</ele><time>2026-05-01T15:21:25.442Z</time></trkpt><trkpt lat="44.22424" lon="11.8018733"><ele>91.0</ele><time>2026-05-01T15:21:28.441Z</time></trkpt><trkpt lat="44.224275" lon="11.802"><ele>91.0</ele><time>2026-05-01T15:21:31.442Z</time></trkpt><trkpt lat="44.2243083" lon="11.8021033"><ele>91.0</ele><time>2026-05-01T15:21:33.442Z</time></trkpt><trkpt lat="44.224355" lon="11.80222"><ele>91.0</ele><time>2026-05-01T15:21:35.441Z</time></trkpt><trkpt lat="44.2244" lon="11.80236"><ele>91.0</ele><time>2026-05-01T15:21:37.442Z</time></trkpt><trkpt lat="44.2244483" lon="11.8025233"><ele>91.0</ele><time>2026-05-01T15:21:39.44Z</time></trkpt><trkpt lat="44.224475" lon="11.8026117"><ele>91.0</ele><time>2026-05-01T15:21:40.442Z</time></trkpt><trkpt lat="44.2245067" lon="11.8027017"><ele>91.0</ele><time>2026-05-01T15:21:41.441Z</time></trkpt><trkpt lat="44.2245383" lon="11.802795"><ele>91.0</ele><time>2026-05-01T15:21:42.441Z</time></trkpt><trkpt lat="44.2245733" lon="11.8028917"><ele>91.0</ele><time>2026-05-01T15:21:43.443Z</time></trkpt><trkpt lat="44.2246083" lon="11.8029933"><ele>91.0</ele><time>2026-05-01T15:21:44.441Z</time></trkpt><trkpt lat="44.2246467" lon="11.8031017"><ele>91.0</ele><time>2026-05-01T15:21:45.443Z</time></trkpt><trkpt lat="44.2246817" lon="11.80321"><ele>91.0</ele><time>2026-05-01T15:21:46.443Z</time></trkpt><trkpt lat="44.22472" lon="11.8033217"><ele>91.0</ele><time>2026-05-01T15:21:47.443Z</time></trkpt><trkpt lat="44.22476" lon="11.8034317"><ele>91.0</ele><time>2026-05-01T15:21:48.44Z</time></trkpt><trkpt lat="44.2247983" lon="11.8035433"><ele>91.0</ele><time>2026-05-01T15:21:49.44Z</time></trkpt><trkpt lat="44.2248417" lon="11.8036567"><ele>91.0</ele><time>2026-05-01T15:21:50.44Z</time></trkpt><trkpt lat="44.224885" lon="11.8037683"><ele>88.6</ele><time>2026-05-01T15:21:51.44Z</time></trkpt><trkpt lat="44.2249283" lon="11.8038783"><ele>86.19999999999999</ele><time>2026-05-01T15:21:52.44Z</time></trkpt><trkpt lat="44.2249733" lon="11.8039883"><ele>83.80000000000001</ele><time>2026-05-01T15:21:53.439Z</time></trkpt><trkpt lat="44.22502" lon="11.8041"><ele>81.4</ele><time>2026-05-01T15:21:54.439Z</time></trkpt><trkpt lat="44.2250667" lon="11.8042133"><ele>79.0</ele><time>2026-05-01T15:21:55.44Z</time></trkpt><trkpt lat="44.2251083" lon="11.8043283"><ele>78.60000000000001</ele><time>2026-05-01T15:21:56.44Z</time></trkpt><trkpt lat="44.22515" lon="11.804445"><ele>78.2</ele><time>2026-05-01T15:21:57.439Z</time></trkpt><trkpt lat="44.2251983" lon="11.8045583"><ele>77.80000000000001</ele><time>2026-05-01T15:21:58.44Z</time></trkpt><trkpt lat="44.2252467" lon="11.8046717"><ele>77.4</ele><time>2026-05-01T15:21:59.439Z</time></trkpt><trkpt lat="44.225295" lon="11.8047867"><ele>77.0</ele><time>2026-05-01T15:22:00.44Z</time></trkpt><trkpt lat="44.2253433" lon="11.8049"><ele>77.0</ele><time>2026-05-01T15:22:01.44Z</time></trkpt><trkpt lat="44.22539" lon="11.8050133"><ele>77.0</ele><time>2026-05-01T15:22:02.439Z</time></trkpt><trkpt lat="44.2254383" lon="11.8051283"><ele>77.0</ele><time>2026-05-01T15:22:03.439Z</time></trkpt><trkpt lat="44.2254867" lon="11.805245"><ele>77.0</ele><time>2026-05-01T15:22:04.439Z</time></trkpt><trkpt lat="44.225535" lon="11.8053617"><ele>77.0</ele><time>2026-05-01T15:22:05.44Z</time></trkpt><trkpt lat="44.225585" lon="11.80548"><ele>77.4</ele><time>2026-05-01T15:22:06.44Z</time></trkpt><trkpt lat="44.2256367" lon="11.8055967"><ele>77.80000000000001</ele><time>2026-05-01T15:22:07.441Z</time></trkpt><trkpt lat="44.2256883" lon="11.8057133"><ele>78.2</ele><time>2026-05-01T15:22:08.44Z</time></trkpt><trkpt lat="44.2257383" lon="11.80583"><ele>78.60000000000001</ele><time>2026-05-01T15:22:09.439Z</time></trkpt><trkpt lat="44.2257883" lon="11.805945"><ele>79.0</ele><time>2026-05-01T15:22:10.44Z</time></trkpt><trkpt lat="44.2258367" lon="11.8060583"><ele>77.4</ele><time>2026-05-01T15:22:11.439Z</time></trkpt><trkpt lat="44.225885" lon="11.806175"><ele>75.80000000000001</ele><time>2026-05-01T15:22:12.44Z</time></trkpt><trkpt lat="44.2259317" lon="11.8062933"><ele>74.19999999999999</ele><time>2026-05-01T15:22:13.44Z</time></trkpt><trkpt lat="44.22598" lon="11.8064117"><ele>72.6</ele><time>2026-05-01T15:22:14.44Z</time></trkpt><trkpt lat="44.2260267" lon="11.806525"><ele>71.0</ele><time>2026-05-01T15:22:15.44Z</time></trkpt><trkpt lat="44.226075" lon="11.806635"><ele>71.0</ele><time>2026-05-01T15:22:16.442Z</time></trkpt><trkpt lat="44.2261167" lon="11.8067417"><ele>71.0</ele><time>2026-05-01T15:22:17.443Z</time></trkpt><trkpt lat="44.22616" lon="11.8068467"><ele>71.0</ele><time>2026-05-01T15:22:18.441Z</time></trkpt><trkpt lat="44.2261983" lon="11.8069467"><ele>71.0</ele><time>2026-05-01T15:22:19.442Z</time></trkpt><trkpt lat="44.2262383" lon="11.8070467"><ele>71.0</ele><time>2026-05-01T15:22:20.44Z</time></trkpt><trkpt lat="44.2262767" lon="11.8071417"><ele>71.0</ele><time>2026-05-01T15:22:21.441Z</time></trkpt><trkpt lat="44.2263133" lon="11.8072367"><ele>70.83333333333334</ele><time>2026-05-01T15:22:22.441Z</time></trkpt><trkpt lat="44.2263467" lon="11.8073283"><ele>70.66666666666667</ele><time>2026-05-01T15:22:23.442Z</time></trkpt><trkpt lat="44.2263767" lon="11.8074217"><ele>70.5</ele><time>2026-05-01T15:22:24.442Z</time></trkpt><trkpt lat="44.2264017" lon="11.8075133"><ele>70.33333333333333</ele><time>2026-05-01T15:22:25.442Z</time></trkpt><trkpt lat="44.2264233" lon="11.8076033"><ele>70.16666666666666</ele><time>2026-05-01T15:22:26.441Z</time></trkpt><trkpt lat="44.226445" lon="11.8076917"><ele>70.0</ele><time>2026-05-01T15:22:27.441Z</time></trkpt><trkpt lat="44.2264817" lon="11.80785"><ele>70.0</ele><time>2026-05-01T15:22:29.442Z</time></trkpt><trkpt lat="44.2265" lon="11.80799"><ele>70.0</ele><time>2026-05-01T15:22:31.442Z</time></trkpt><trkpt lat="44.2265233" lon="11.808105"><ele>70.0</ele><time>2026-05-01T15:22:33.441Z</time></trkpt><trkpt lat="44.2265433" lon="11.8081933"><ele>70.0</ele><time>2026-05-01T15:22:35.442Z</time></trkpt><trkpt lat="44.2265667" lon="11.8083017"><ele>70.0</ele><time>2026-05-01T15:22:38.441Z</time></trkpt><trkpt lat="44.226585" lon="11.80839"><ele>70.0</ele><time>2026-05-01T15:22:41.441Z</time></trkpt><trkpt lat="44.2265983" lon="11.8084767"><ele>71.0</ele><time>2026-05-01T15:22:44.442Z</time></trkpt><trkpt lat="44.22662" lon="11.808585"><ele>72.0</ele><time>2026-05-01T15:22:48.441Z</time></trkpt><trkpt lat="44.2266383" lon="11.8086967"><ele>73.0</ele><time>2026-05-01T15:22:52.441Z</time></trkpt><trkpt lat="44.2266517" lon="11.808785"><ele>74.0</ele><time>2026-05-01T15:22:55.441Z</time></trkpt><trkpt lat="44.2266833" lon="11.8088883"><ele>75.0</ele><time>2026-05-01T15:22:59.442Z</time></trkpt><trkpt lat="44.226705" lon="11.808995"><ele>76.0</ele><time>2026-05-01T15:23:03.441Z</time></trkpt><trkpt lat="44.22672" lon="11.80911"><ele>76.0</ele><time>2026-05-01T15:23:07.441Z</time></trkpt><trkpt lat="44.2267417" lon="11.8092167"><ele>76.0</ele><time>2026-05-01T15:23:11.44Z</time></trkpt><trkpt lat="44.2267583" lon="11.8093283"><ele>76.0</ele><time>2026-05-01T15:23:15.441Z</time></trkpt><trkpt lat="44.2267917" lon="11.8094267"><ele>76.0</ele><time>2026-05-01T15:23:19.441Z</time></trkpt><trkpt lat="44.2268233" lon="11.8095267"><ele>76.0</ele><time>2026-05-01T15:23:23.44Z</time></trkpt><trkpt lat="44.22687" lon="11.80961"><ele>76.0</ele><time>2026-05-01T15:23:27.441Z</time></trkpt><trkpt lat="44.2269167" lon="11.8096833"><ele>77.28571428571428</ele><time>2026-05-01T15:23:31.441Z</time></trkpt><trkpt lat="44.2269733" lon="11.80974"><ele>78.57142857142858</ele><time>2026-05-01T15:23:35.441Z</time></trkpt><trkpt lat="44.227035" lon="11.809795"><ele>79.85714285714286</ele><time>2026-05-01T15:23:39.441Z</time></trkpt><trkpt lat="44.2271017" lon="11.8098533"><ele>81.14285714285714</ele><time>2026-05-01T15:23:43.441Z</time></trkpt><trkpt lat="44.22715" lon="11.8099117"><ele>82.42857142857142</ele><time>2026-05-01T15:23:47.442Z</time></trkpt><trkpt lat="44.2271867" lon="11.809985"><ele>83.71428571428572</ele><time>2026-05-01T15:23:51.44Z</time></trkpt><trkpt lat="44.2272317" lon="11.8100767"><ele>85.0</ele><time>2026-05-01T15:23:56.44Z</time></trkpt><trkpt lat="44.2272867" lon="11.8101567"><ele>86.14285714285715</ele><time>2026-05-01T15:24:00.441Z</time></trkpt><trkpt lat="44.22733" lon="11.81024"><ele>87.28571428571428</ele><time>2026-05-01T15:24:04.441Z</time></trkpt><trkpt lat="44.2273567" lon="11.8103267"><ele>88.42857142857143</ele><time>2026-05-01T15:24:08.441Z</time></trkpt><trkpt lat="44.22741" lon="11.8104167"><ele>89.57142857142858</ele><time>2026-05-01T15:24:12.439Z</time></trkpt><trkpt lat="44.22746" lon="11.8104983"><ele>90.71428571428572</ele><time>2026-05-01T15:24:16.442Z</time></trkpt><trkpt lat="44.2275017" lon="11.8105767"><ele>91.85714285714286</ele><time>2026-05-01T15:24:20.442Z</time></trkpt><trkpt lat="44.2275583" lon="11.8106383"><ele>93.0</ele><time>2026-05-01T15:24:24.442Z</time></trkpt><trkpt lat="44.2276117" lon="11.8106967"><ele>93.0</ele><time>2026-05-01T15:24:27.443Z</time></trkpt><trkpt lat="44.2276633" lon="11.8107483"><ele>93.0</ele><time>2026-05-01T15:24:30.442Z</time></trkpt><trkpt lat="44.227735" lon="11.8108083"><ele>93.0</ele><time>2026-05-01T15:24:34.443Z</time></trkpt><trkpt lat="44.2277933" lon="11.8108583"><ele>93.0</ele><time>2026-05-01T15:24:37.441Z</time></trkpt><trkpt lat="44.2278583" lon="11.81091"><ele>93.0</ele><time>2026-05-01T15:24:40.441Z</time></trkpt><trkpt lat="44.22793" lon="11.81096"><ele>93.0</ele><time>2026-05-01T15:24:43.442Z</time></trkpt><trkpt lat="44.2279967" lon="11.81102"><ele>92.71428571428572</ele><time>2026-05-01T15:24:46.443Z</time></trkpt><trkpt lat="44.2280783" lon="11.8110917"><ele>92.42857142857143</ele><time>2026-05-01T15:24:49.44Z</time></trkpt><trkpt lat="44.2281333" lon="11.811145"><ele>92.14285714285714</ele><time>2026-05-01T15:24:51.441Z</time></trkpt><trkpt lat="44.22819" lon="11.8111933"><ele>91.85714285714286</ele><time>2026-05-01T15:24:53.441Z</time></trkpt><trkpt lat="44.2282483" lon="11.8112433"><ele>91.57142857142857</ele><time>2026-05-01T15:24:55.441Z</time></trkpt><trkpt lat="44.2283067" lon="11.8112933"><ele>91.28571428571429</ele><time>2026-05-01T15:24:57.442Z</time></trkpt><trkpt lat="44.2283683" lon="11.81135"><ele>91.0</ele><time>2026-05-01T15:24:59.442Z</time></trkpt><trkpt lat="44.22843" lon="11.8114017"><ele>91.0</ele><time>2026-05-01T15:25:01.442Z</time></trkpt><trkpt lat="44.22849" lon="11.8114517"><ele>91.0</ele><time>2026-05-01T15:25:03.442Z</time></trkpt><trkpt lat="44.22855" lon="11.8114967"><ele>91.0</ele><time>2026-05-01T15:25:05.441Z</time></trkpt><trkpt lat="44.2286183" lon="11.811545"><ele>91.0</ele><time>2026-05-01T15:25:07.442Z</time></trkpt><trkpt lat="44.2286917" lon="11.811605"><ele>91.0</ele><time>2026-05-01T15:25:09.442Z</time></trkpt><trkpt lat="44.22876" lon="11.8116583"><ele>91.0</ele><time>2026-05-01T15:25:11.442Z</time></trkpt><trkpt lat="44.2288267" lon="11.811725"><ele>91.0</ele><time>2026-05-01T15:25:13.442Z</time></trkpt><trkpt lat="44.2289017" lon="11.8117717"><ele>91.0</ele><time>2026-05-01T15:25:15.44Z</time></trkpt><trkpt lat="44.2289783" lon="11.8118217"><ele>91.0</ele><time>2026-05-01T15:25:17.442Z</time></trkpt><trkpt lat="44.2290567" lon="11.8118733"><ele>91.0</ele><time>2026-05-01T15:25:19.442Z</time></trkpt><trkpt lat="44.2291433" lon="11.8119267"><ele>91.0</ele><time>2026-05-01T15:25:21.442Z</time></trkpt><trkpt lat="44.22923" lon="11.8119833"><ele>91.0</ele><time>2026-05-01T15:25:23.442Z</time></trkpt><trkpt lat="44.2293167" lon="11.8120433"><ele>90.4</ele><time>2026-05-01T15:25:25.442Z</time></trkpt><trkpt lat="44.2294017" lon="11.8121067"><ele>89.8</ele><time>2026-05-01T15:25:27.442Z</time></trkpt><trkpt lat="44.22949" lon="11.81217"><ele>89.2</ele><time>2026-05-01T15:25:29.441Z</time></trkpt><trkpt lat="44.2295733" lon="11.8122333"><ele>88.60000000000001</ele><time>2026-05-01T15:25:31.442Z</time></trkpt><trkpt lat="44.229655" lon="11.8123033"><ele>88.0</ele><time>2026-05-01T15:25:33.442Z</time></trkpt><trkpt lat="44.22973" lon="11.8123783"><ele>88.0</ele><time>2026-05-01T15:25:35.44Z</time></trkpt><trkpt lat="44.2298033" lon="11.8124583"><ele>88.0</ele><time>2026-05-01T15:25:37.442Z</time></trkpt><trkpt lat="44.2298733" lon="11.81254"><ele>88.0</ele><time>2026-05-01T15:25:39.442Z</time></trkpt><trkpt lat="44.229945" lon="11.8126217"><ele>88.0</ele><time>2026-05-01T15:25:41.442Z</time></trkpt><trkpt lat="44.230015" lon="11.8127033"><ele>88.0</ele><time>2026-05-01T15:25:43.441Z</time></trkpt><trkpt lat="44.2300867" lon="11.8127883"><ele>88.2</ele><time>2026-05-01T15:25:45.441Z</time></trkpt><trkpt lat="44.230155" lon="11.8128767"><ele>88.4</ele><time>2026-05-01T15:25:47.443Z</time></trkpt><trkpt lat="44.2302283" lon="11.8129583"><ele>88.60000000000001</ele><time>2026-05-01T15:25:49.442Z</time></trkpt><trkpt lat="44.2302983" lon="11.813045"><ele>88.80000000000001</ele><time>2026-05-01T15:25:51.442Z</time></trkpt><trkpt lat="44.2303683" lon="11.8131317"><ele>89.0</ele><time>2026-05-01T15:25:53.443Z</time></trkpt><trkpt lat="44.2304367" lon="11.813215"><ele>89.0</ele><time>2026-05-01T15:25:55.44Z</time></trkpt><trkpt lat="44.230505" lon="11.8132983"><ele>89.0</ele><time>2026-05-01T15:25:57.439Z</time></trkpt><trkpt lat="44.23057" lon="11.8133783"><ele>89.0</ele><time>2026-05-01T15:25:59.439Z</time></trkpt><trkpt lat="44.2306433" lon="11.813465"><ele>89.0</ele><time>2026-05-01T15:26:01.439Z</time></trkpt><trkpt lat="44.23072" lon="11.8135383"><ele>89.0</ele><time>2026-05-01T15:26:03.442Z</time></trkpt><trkpt lat="44.2307983" lon="11.8136"><ele>89.16666666666667</ele><time>2026-05-01T15:26:05.439Z</time></trkpt><trkpt lat="44.23088" lon="11.8136333"><ele>89.33333333333334</ele><time>2026-05-01T15:26:07.44Z</time></trkpt><trkpt lat="44.2309583" lon="11.8136667"><ele>89.5</ele><time>2026-05-01T15:26:09.442Z</time></trkpt><trkpt lat="44.2309183" lon="11.8137533"><ele>89.66666666666667</ele><time>2026-05-01T15:26:13.44Z</time></trkpt><trkpt lat="44.2308683" lon="11.81382"><ele>89.83333333333333</ele><time>2026-05-01T15:26:19.444Z</time></trkpt><trkpt lat="44.230905" lon="11.8139017"><ele>90.0</ele><time>2026-05-01T15:26:24.443Z</time></trkpt><trkpt lat="44.2309367" lon="11.813995"><ele>90.0</ele><time>2026-05-01T15:26:30.44Z</time></trkpt><trkpt lat="44.23096" lon="11.8140867"><ele>90.0</ele><time>2026-05-01T15:26:36.44Z</time></trkpt><trkpt lat="44.23099" lon="11.81417"><ele>90.0</ele><time>2026-05-01T15:26:40.439Z</time></trkpt><trkpt lat="44.2310167" lon="11.8142733"><ele>90.0</ele><time>2026-05-01T15:26:45.438Z</time></trkpt><trkpt lat="44.2310467" lon="11.8143733"><ele>90.0</ele><time>2026-05-01T15:26:50.442Z</time></trkpt><trkpt lat="44.2310783" lon="11.81445"><ele>90.0</ele><time>2026-05-01T15:26:54.443Z</time></trkpt><trkpt lat="44.2311167" lon="11.814525"><ele>90.0</ele><time>2026-05-01T15:26:59.439Z</time></trkpt><trkpt lat="44.2311667" lon="11.8145983"><ele>90.71428571428571</ele><time>2026-05-01T15:27:04.438Z</time></trkpt><trkpt lat="44.2312133" lon="11.8146617"><ele>91.42857142857143</ele><time>2026-05-01T15:27:08.438Z</time></trkpt><trkpt lat="44.23126" lon="11.8147233"><ele>92.14285714285714</ele><time>2026-05-01T15:27:12.441Z</time></trkpt><trkpt lat="44.2313283" lon="11.814785"><ele>92.85714285714286</ele><time>2026-05-01T15:27:16.442Z</time></trkpt><trkpt lat="44.23139" lon="11.8148417"><ele>93.57142857142858</ele><time>2026-05-01T15:27:20.441Z</time></trkpt><trkpt lat="44.2313883" lon="11.81495"><ele>94.28571428571429</ele><time>2026-05-01T15:27:25.439Z</time></trkpt><trkpt lat="44.23134" lon="11.8150333"><ele>95.0</ele><time>2026-05-01T15:27:29.441Z</time></trkpt><trkpt lat="44.2312883" lon="11.8151283"><ele>95.28571428571429</ele><time>2026-05-01T15:27:33.441Z</time></trkpt><trkpt lat="44.231245" lon="11.815195"><ele>95.57142857142858</ele><time>2026-05-01T15:27:36.441Z</time></trkpt><trkpt lat="44.2311933" lon="11.8152933"><ele>95.85714285714286</ele><time>2026-05-01T15:27:40.441Z</time></trkpt><trkpt lat="44.2311467" lon="11.8153783"><ele>96.14285714285714</ele><time>2026-05-01T15:27:43.44Z</time></trkpt><trkpt lat="44.2310983" lon="11.8154467"><ele>96.42857142857143</ele><time>2026-05-01T15:27:46.442Z</time></trkpt><trkpt lat="44.2310483" lon="11.81553"><ele>96.71428571428571</ele><time>2026-05-01T15:27:49.441Z</time></trkpt><trkpt lat="44.2310017" lon="11.8156083"><ele>97.0</ele><time>2026-05-01T15:27:52.441Z</time></trkpt><trkpt lat="44.2309567" lon="11.81568"><ele>97.0</ele><time>2026-05-01T15:27:55.441Z</time></trkpt><trkpt lat="44.2309117" lon="11.8157483"><ele>97.0</ele><time>2026-05-01T15:27:58.44Z</time></trkpt><trkpt lat="44.23087" lon="11.8158183"><ele>97.0</ele><time>2026-05-01T15:28:01.439Z</time></trkpt><trkpt lat="44.2308217" lon="11.8159067"><ele>97.0</ele><time>2026-05-01T15:28:04.441Z</time></trkpt><trkpt lat="44.23077" lon="11.815985"><ele>97.0</ele><time>2026-05-01T15:28:07.44Z</time></trkpt><trkpt lat="44.230725" lon="11.8160717"><ele>97.0</ele><time>2026-05-01T15:28:10.441Z</time></trkpt><trkpt lat="44.2306817" lon="11.816155"><ele>97.0</ele><time>2026-05-01T15:28:13.44Z</time></trkpt><trkpt lat="44.23064" lon="11.8162383"><ele>97.71428571428571</ele><time>2026-05-01T15:28:16.443Z</time></trkpt><trkpt lat="44.2305983" lon="11.816325"><ele>98.42857142857143</ele><time>2026-05-01T15:28:19.439Z</time></trkpt><trkpt lat="44.2305583" lon="11.8164133"><ele>99.14285714285714</ele><time>2026-05-01T15:28:22.44Z</time></trkpt><trkpt lat="44.2305217" lon="11.8165017"><ele>99.85714285714286</ele><time>2026-05-01T15:28:25.439Z</time></trkpt><trkpt lat="44.230485" lon="11.8165917"><ele>100.57142857142858</ele><time>2026-05-01T15:28:28.439Z</time></trkpt><trkpt lat="44.2304467" lon="11.81668"><ele>101.28571428571429</ele><time>2026-05-01T15:28:31.44Z</time></trkpt><trkpt lat="44.23041" lon="11.8167683"><ele>102.0</ele><time>2026-05-01T15:28:34.439Z</time></trkpt><trkpt lat="44.23037" lon="11.8168567"><ele>102.33333333333333</ele><time>2026-05-01T15:28:37.44Z</time></trkpt><trkpt lat="44.23033" lon="11.8169467"><ele>102.66666666666666</ele><time>2026-05-01T15:28:40.442Z</time></trkpt><trkpt lat="44.230295" lon="11.8170383"><ele>103.0</ele><time>2026-05-01T15:28:43.44Z</time></trkpt><trkpt lat="44.23026" lon="11.8171233"><ele>103.33333333333333</ele><time>2026-05-01T15:28:46.443Z</time></trkpt><trkpt lat="44.230225" lon="11.8172117"><ele>103.66666666666666</ele><time>2026-05-01T15:28:49.44Z</time></trkpt><trkpt lat="44.2301967" lon="11.8173083"><ele>104.0</ele><time>2026-05-01T15:28:52.44Z</time></trkpt><trkpt lat="44.2301683" lon="11.8174217"><ele>104.0</ele><time>2026-05-01T15:28:55.439Z</time></trkpt><trkpt lat="44.2301517" lon="11.8175133"><ele>104.0</ele><time>2026-05-01T15:28:57.44Z</time></trkpt><trkpt lat="44.230135" lon="11.8176"><ele>104.0</ele><time>2026-05-01T15:28:59.439Z</time></trkpt><trkpt lat="44.2301233" lon="11.8176933"><ele>104.0</ele><time>2026-05-01T15:29:01.439Z</time></trkpt><trkpt lat="44.2301167" lon="11.8177917"><ele>104.0</ele><time>2026-05-01T15:29:03.441Z</time></trkpt><trkpt lat="44.2301317" lon="11.81789"><ele>104.0</ele><time>2026-05-01T15:29:05.438Z</time></trkpt><trkpt lat="44.2301667" lon="11.81798"><ele>104.0</ele><time>2026-05-01T15:29:07.44Z</time></trkpt><trkpt lat="44.23022" lon="11.8180567"><ele>104.33333333333333</ele><time>2026-05-01T15:29:09.44Z</time></trkpt><trkpt lat="44.2302833" lon="11.818125"><ele>104.66666666666666</ele><time>2026-05-01T15:29:11.438Z</time></trkpt><trkpt lat="44.2303517" lon="11.8181967"><ele>105.0</ele><time>2026-05-01T15:29:13.44Z</time></trkpt><trkpt lat="44.2304233" lon="11.8182683"><ele>105.33333333333334</ele><time>2026-05-01T15:29:15.439Z</time></trkpt><trkpt lat="44.23049" lon="11.818335"><ele>105.66666666666667</ele><time>2026-05-01T15:29:17.442Z</time></trkpt><trkpt lat="44.2305467" lon="11.8183983"><ele>106.0</ele><time>2026-05-01T15:29:19.439Z</time></trkpt><trkpt lat="44.2305983" lon="11.818465"><ele>106.0</ele><time>2026-05-01T15:29:21.44Z</time></trkpt><trkpt lat="44.2306467" lon="11.8185367"><ele>106.0</ele><time>2026-05-01T15:29:23.439Z</time></trkpt><trkpt lat="44.230695" lon="11.8186117"><ele>106.0</ele><time>2026-05-01T15:29:25.44Z</time></trkpt><trkpt lat="44.2307467" lon="11.818685"><ele>106.0</ele><time>2026-05-01T15:29:27.44Z</time></trkpt><trkpt lat="44.230795" lon="11.8187567"><ele>106.0</ele><time>2026-05-01T15:29:29.441Z</time></trkpt><trkpt lat="44.2308417" lon="11.8188367"><ele>106.0</ele><time>2026-05-01T15:29:31.44Z</time></trkpt><trkpt lat="44.230875" lon="11.818925"><ele>106.0</ele><time>2026-05-01T15:29:33.44Z</time></trkpt><trkpt lat="44.2308833" lon="11.8190233"><ele>106.0</ele><time>2026-05-01T15:29:35.44Z</time></trkpt><trkpt lat="44.2308683" lon="11.8191183"><ele>106.0</ele><time>2026-05-01T15:29:37.44Z</time></trkpt><trkpt lat="44.2308267" lon="11.819215"><ele>106.0</ele><time>2026-05-01T15:29:40.44Z</time></trkpt><trkpt lat="44.2307817" lon="11.8192883"><ele>106.0</ele><time>2026-05-01T15:29:43.439Z</time></trkpt><trkpt lat="44.2307417" lon="11.8193633"><ele>106.0</ele><time>2026-05-01T15:29:46.442Z</time></trkpt><trkpt lat="44.2306933" lon="11.8194567"><ele>106.0</ele><time>2026-05-01T15:29:50.44Z</time></trkpt><trkpt lat="44.2306333" lon="11.819495"><ele>106.0</ele><time>2026-05-01T15:29:54.439Z</time></trkpt><trkpt lat="44.2305983" lon="11.8195967"><ele>107.33333333333334</ele><time>2026-05-01T15:30:53.443Z</time></trkpt><trkpt lat="44.2305383" lon="11.8196617"><ele>108.66666666666667</ele><time>2026-05-01T15:30:57.44Z</time></trkpt><trkpt lat="44.230485" lon="11.819745"><ele>110.0</ele><time>2026-05-01T15:31:01.44Z</time></trkpt><trkpt lat="44.230435" lon="11.81983"><ele>111.33333333333334</ele><time>2026-05-01T15:31:05.439Z</time></trkpt><trkpt lat="44.2303867" lon="11.8199"><ele>112.66666666666667</ele><time>2026-05-01T15:31:09.44Z</time></trkpt><trkpt lat="44.23033" lon="11.819975"><ele>114.0</ele><time>2026-05-01T15:31:14.438Z</time></trkpt><trkpt lat="44.2302817" lon="11.82006"><ele>114.0</ele><time>2026-05-01T15:31:19.441Z</time></trkpt><trkpt lat="44.2302467" lon="11.820135"><ele>113.99999999999999</ele><time>2026-05-01T15:31:23.442Z</time></trkpt><trkpt lat="44.230205" lon="11.8202033"><ele>114.0</ele><time>2026-05-01T15:31:27.44Z</time></trkpt><trkpt lat="44.23016" lon="11.82028"><ele>114.0</ele><time>2026-05-01T15:31:31.44Z</time></trkpt><trkpt lat="44.2301233" lon="11.820355"><ele>113.99999999999999</ele><time>2026-05-01T15:31:35.439Z</time></trkpt><trkpt lat="44.2300883" lon="11.8204383"><ele>114.0</ele><time>2026-05-01T15:31:40.44Z</time></trkpt><trkpt lat="44.2300533" lon="11.8205267"><ele>114.0</ele><time>2026-05-01T15:31:45.44Z</time></trkpt><trkpt lat="44.2300317" lon="11.8206117"><ele>115.14285714285714</ele><time>2026-05-01T15:31:50.439Z</time></trkpt><trkpt lat="44.2300483" lon="11.820705"><ele>116.28571428571428</ele><time>2026-05-01T15:31:55.439Z</time></trkpt><trkpt lat="44.2300883" lon="11.8207867"><ele>117.42857142857142</ele><time>2026-05-01T15:32:00.439Z</time></trkpt><trkpt lat="44.2301417" lon="11.8208433"><ele>118.57142857142856</ele><time>2026-05-01T15:32:05.439Z</time></trkpt><trkpt lat="44.2302117" lon="11.8208833"><ele>119.71428571428571</ele><time>2026-05-01T15:32:11.44Z</time></trkpt><trkpt lat="44.2302783" lon="11.8209133"><ele>120.85714285714283</ele><time>2026-05-01T15:32:16.44Z</time></trkpt><trkpt lat="44.2303383" lon="11.82095"><ele>121.99999999999999</ele><time>2026-05-01T15:32:21.442Z</time></trkpt><trkpt lat="44.23041" lon="11.8209817"><ele>122.7142857142857</ele><time>2026-05-01T15:32:26.44Z</time></trkpt><trkpt lat="44.2304733" lon="11.8210317"><ele>123.42857142857142</ele><time>2026-05-01T15:32:31.44Z</time></trkpt><trkpt lat="44.2305283" lon="11.821085"><ele>124.14285714285714</ele><time>2026-05-01T15:32:36.439Z</time></trkpt><trkpt lat="44.23058" lon="11.8211517"><ele>124.85714285714285</ele><time>2026-05-01T15:32:41.439Z</time></trkpt><trkpt lat="44.2306267" lon="11.8212217"><ele>125.57142857142856</ele><time>2026-05-01T15:32:46.443Z</time></trkpt><trkpt lat="44.2306783" lon="11.82129"><ele>126.28571428571429</ele><time>2026-05-01T15:32:51.443Z</time></trkpt><trkpt lat="44.230715" lon="11.821375"><ele>127.0</ele><time>2026-05-01T15:32:56.44Z</time></trkpt><trkpt lat="44.23075" lon="11.8214667"><ele>127.0</ele><time>2026-05-01T15:33:01.44Z</time></trkpt><trkpt lat="44.23077" lon="11.821555"><ele>127.0</ele><time>2026-05-01T15:33:06.442Z</time></trkpt><trkpt lat="44.2307783" lon="11.8216483"><ele>127.0</ele><time>2026-05-01T15:33:11.441Z</time></trkpt><trkpt lat="44.2307633" lon="11.82174"><ele>127.0</ele><time>2026-05-01T15:33:15.442Z</time></trkpt><trkpt lat="44.2307333" lon="11.82183"><ele>127.0</ele><time>2026-05-01T15:33:20.44Z</time></trkpt><trkpt lat="44.2306983" lon="11.82191"><ele>127.0</ele><time>2026-05-01T15:33:25.44Z</time></trkpt><trkpt lat="44.23068" lon="11.8220083"><ele>127.0</ele><time>2026-05-01T15:33:30.441Z</time></trkpt><trkpt lat="44.230625" lon="11.822085"><ele>129.14285714285714</ele><time>2026-05-01T15:33:35.44Z</time></trkpt><trkpt lat="44.2305817" lon="11.8221633"><ele>131.28571428571428</ele><time>2026-05-01T15:33:40.441Z</time></trkpt><trkpt lat="44.2305367" lon="11.8222417"><ele>133.42857142857142</ele><time>2026-05-01T15:33:45.44Z</time></trkpt><trkpt lat="44.2304917" lon="11.82232"><ele>135.57142857142856</ele><time>2026-05-01T15:33:50.44Z</time></trkpt><trkpt lat="44.2304417" lon="11.8224"><ele>137.7142857142857</ele><time>2026-05-01T15:33:55.441Z</time></trkpt><trkpt lat="44.2303933" lon="11.8224717"><ele>139.85714285714286</ele><time>2026-05-01T15:34:00.442Z</time></trkpt><trkpt lat="44.2303483" lon="11.8225483"><ele>142.0</ele><time>2026-05-01T15:34:05.441Z</time></trkpt><trkpt lat="44.2302967" lon="11.8226167"><ele>142.85714285714286</ele><time>2026-05-01T15:34:10.44Z</time></trkpt><trkpt lat="44.2302517" lon="11.8226917"><ele>143.7142857142857</ele><time>2026-05-01T15:34:15.441Z</time></trkpt><trkpt lat="44.2302067" lon="11.8227667"><ele>144.57142857142856</ele><time>2026-05-01T15:34:20.44Z</time></trkpt><trkpt lat="44.230165" lon="11.8228367"><ele>145.42857142857142</ele><time>2026-05-01T15:34:25.439Z</time></trkpt><trkpt lat="44.2301433" lon="11.8229217"><ele>146.28571428571428</ele><time>2026-05-01T15:34:30.439Z</time></trkpt><trkpt lat="44.230125" lon="11.8230117"><ele>147.14285714285714</ele><time>2026-05-01T15:34:35.439Z</time></trkpt><trkpt lat="44.2301217" lon="11.8231033"><ele>148.0</ele><time>2026-05-01T15:34:40.44Z</time></trkpt><trkpt lat="44.230135" lon="11.8231917"><ele>148.0</ele><time>2026-05-01T15:34:45.44Z</time></trkpt><trkpt lat="44.2301567" lon="11.8232867"><ele>148.0</ele><time>2026-05-01T15:34:50.442Z</time></trkpt><trkpt lat="44.2301733" lon="11.8233817"><ele>148.0</ele><time>2026-05-01T15:34:55.441Z</time></trkpt><trkpt lat="44.2301967" lon="11.8234733"><ele>148.0</ele><time>2026-05-01T15:35:00.441Z</time></trkpt><trkpt lat="44.2302183" lon="11.8235617"><ele>148.0</ele><time>2026-05-01T15:35:05.441Z</time></trkpt><trkpt lat="44.2302283" lon="11.823665"><ele>148.0</ele><time>2026-05-01T15:35:10.442Z</time></trkpt><trkpt lat="44.2302217" lon="11.8237633"><ele>148.0</ele><time>2026-05-01T15:35:15.441Z</time></trkpt><trkpt lat="44.23019" lon="11.8238567"><ele>147.71428571428572</ele><time>2026-05-01T15:35:21.438Z</time></trkpt><trkpt lat="44.2301333" lon="11.82391"><ele>147.42857142857142</ele><time>2026-05-01T15:35:25.44Z</time></trkpt><trkpt lat="44.2301033" lon="11.824"><ele>147.14285714285714</ele><time>2026-05-01T15:35:30.438Z</time></trkpt><trkpt lat="44.2300717" lon="11.8240867"><ele>146.85714285714286</ele><time>2026-05-01T15:35:35.439Z</time></trkpt><trkpt lat="44.2300367" lon="11.8241833"><ele>146.57142857142858</ele><time>2026-05-01T15:35:40.439Z</time></trkpt><trkpt lat="44.2299983" lon="11.824255"><ele>146.28571428571428</ele><time>2026-05-01T15:35:45.439Z</time></trkpt><trkpt lat="44.229965" lon="11.824345"><ele>146.0</ele><time>2026-05-01T15:35:50.438Z</time></trkpt><trkpt lat="44.2299117" lon="11.8244083"><ele>146.0</ele><time>2026-05-01T15:35:55.439Z</time></trkpt><trkpt lat="44.229855" lon="11.824465"><ele>146.0</ele><time>2026-05-01T15:36:00.438Z</time></trkpt><trkpt lat="44.2297917" lon="11.82451"><ele>146.0</ele><time>2026-05-01T15:36:05.439Z</time></trkpt><trkpt lat="44.2297283" lon="11.82454"><ele>146.0</ele><time>2026-05-01T15:36:10.442Z</time></trkpt><trkpt lat="44.2296617" lon="11.824555"><ele>146.0</ele><time>2026-05-01T15:36:15.44Z</time></trkpt><trkpt lat="44.2295983" lon="11.8245733"><ele>146.0</ele><time>2026-05-01T15:36:20.438Z</time></trkpt><trkpt lat="44.2295233" lon="11.8245617"><ele>146.0</ele><time>2026-05-01T15:36:25.439Z</time></trkpt><trkpt lat="44.2294533" lon="11.82458"><ele>147.85714285714286</ele><time>2026-05-01T15:36:30.439Z</time></trkpt><trkpt lat="44.22939" lon="11.8245383"><ele>149.71428571428572</ele><time>2026-05-01T15:36:35.439Z</time></trkpt><trkpt lat="44.229325" lon="11.82449"><ele>151.57142857142856</ele><time>2026-05-01T15:36:40.439Z</time></trkpt><trkpt lat="44.2292533" lon="11.8244517"><ele>153.42857142857144</ele><time>2026-05-01T15:36:45.438Z</time></trkpt><trkpt lat="44.2292117" lon="11.82436"><ele>155.2857142857143</ele><time>2026-05-01T15:36:50.44Z</time></trkpt><trkpt lat="44.2291533" lon="11.8243017"><ele>157.14285714285714</ele><time>2026-05-01T15:36:55.44Z</time></trkpt><trkpt lat="44.2290983" lon="11.824255"><ele>159.0</ele><time>2026-05-01T15:37:00.441Z</time></trkpt><trkpt lat="44.2290233" lon="11.8242333"><ele>161.42857142857142</ele><time>2026-05-01T15:37:06.441Z</time></trkpt><trkpt lat="44.22896" lon="11.82421"><ele>163.85714285714286</ele><time>2026-05-01T15:37:11.441Z</time></trkpt><trkpt lat="44.2288983" lon="11.8242483"><ele>166.28571428571428</ele><time>2026-05-01T15:37:15.44Z</time></trkpt><trkpt lat="44.2288683" lon="11.8243433"><ele>168.71428571428572</ele><time>2026-05-01T15:37:20.439Z</time></trkpt><trkpt lat="44.2288833" lon="11.8244517"><ele>171.14285714285714</ele><time>2026-05-01T15:37:25.441Z</time></trkpt><trkpt lat="44.2289" lon="11.8245367"><ele>173.57142857142858</ele><time>2026-05-01T15:37:29.439Z</time></trkpt><trkpt lat="44.2289283" lon="11.8246317"><ele>176.0</ele><time>2026-05-01T15:37:34.44Z</time></trkpt><trkpt lat="44.2289333" lon="11.8247317"><ele>176.57142857142858</ele><time>2026-05-01T15:37:39.439Z</time></trkpt><trkpt lat="44.2289167" lon="11.8248317"><ele>177.14285714285714</ele><time>2026-05-01T15:37:44.44Z</time></trkpt><trkpt lat="44.2288767" lon="11.8249083"><ele>177.71428571428572</ele><time>2026-05-01T15:37:49.441Z</time></trkpt><trkpt lat="44.22881" lon="11.8249483"><ele>178.28571428571428</ele><time>2026-05-01T15:37:54.443Z</time></trkpt><trkpt lat="44.22875" lon="11.82499"><ele>178.85714285714286</ele><time>2026-05-01T15:37:59.441Z</time></trkpt><trkpt lat="44.2286933" lon="11.8250317"><ele>179.42857142857142</ele><time>2026-05-01T15:38:05.441Z</time></trkpt><trkpt lat="44.2286267" lon="11.8250667"><ele>180.0</ele><time>2026-05-01T15:38:11.441Z</time></trkpt><trkpt lat="44.228565" lon="11.825115"><ele>181.28571428571428</ele><time>2026-05-01T15:38:17.442Z</time></trkpt><trkpt lat="44.2284983" lon="11.8251583"><ele>182.57142857142858</ele><time>2026-05-01T15:38:23.443Z</time></trkpt><trkpt lat="44.2284367" lon="11.825185"><ele>183.85714285714286</ele><time>2026-05-01T15:38:29.438Z</time></trkpt><trkpt lat="44.228375" lon="11.825245"><ele>185.14285714285714</ele><time>2026-05-01T15:38:35.439Z</time></trkpt><trkpt lat="44.2283133" lon="11.8253"><ele>186.42857142857144</ele><time>2026-05-01T15:38:40.44Z</time></trkpt><trkpt lat="44.2282433" lon="11.8253283"><ele>187.71428571428572</ele><time>2026-05-01T15:38:45.441Z</time></trkpt><trkpt lat="44.22817" lon="11.8253783"><ele>189.0</ele><time>2026-05-01T15:38:50.443Z</time></trkpt><trkpt lat="44.2281017" lon="11.825415"><ele>189.0</ele><time>2026-05-01T15:38:56.441Z</time></trkpt><trkpt lat="44.2280233" lon="11.82544"><ele>189.0</ele><time>2026-05-01T15:39:01.44Z</time></trkpt><trkpt lat="44.22796" lon="11.82546"><ele>189.0</ele><time>2026-05-01T15:39:05.443Z</time></trkpt><trkpt lat="44.227885" lon="11.8254883"><ele>189.0</ele><time>2026-05-01T15:39:10.441Z</time></trkpt><trkpt lat="44.2278217" lon="11.825525"><ele>189.0</ele><time>2026-05-01T15:39:15.441Z</time></trkpt><trkpt lat="44.2277633" lon="11.8255833"><ele>189.0</ele><time>2026-05-01T15:39:20.438Z</time></trkpt><trkpt lat="44.227705" lon="11.8256283"><ele>189.0</ele><time>2026-05-01T15:39:25.439Z</time></trkpt><trkpt lat="44.2276533" lon="11.825695"><ele>189.0</ele><time>2026-05-01T15:39:30.439Z</time></trkpt><trkpt lat="44.2276067" lon="11.8257783"><ele>189.0</ele><time>2026-05-01T15:39:35.438Z</time></trkpt><trkpt lat="44.2275617" lon="11.8258633"><ele>189.0</ele><time>2026-05-01T15:39:39.44Z</time></trkpt><trkpt lat="44.2275167" lon="11.8259417"><ele>189.0</ele><time>2026-05-01T15:39:43.441Z</time></trkpt><trkpt lat="44.22747" lon="11.8260183"><ele>189.0</ele><time>2026-05-01T15:39:47.443Z</time></trkpt><trkpt lat="44.227425" lon="11.8261133"><ele>189.0</ele><time>2026-05-01T15:39:51.439Z</time></trkpt><trkpt lat="44.2273733" lon="11.8262"><ele>189.85714285714286</ele><time>2026-05-01T15:39:55.441Z</time></trkpt><trkpt lat="44.2273267" lon="11.82629"><ele>190.71428571428572</ele><time>2026-05-01T15:39:59.441Z</time></trkpt><trkpt lat="44.2272767" lon="11.8263717"><ele>191.57142857142856</ele><time>2026-05-01T15:40:03.44Z</time></trkpt><trkpt lat="44.2272267" lon="11.8264433"><ele>192.42857142857144</ele><time>2026-05-01T15:40:07.44Z</time></trkpt><trkpt lat="44.2271867" lon="11.8265233"><ele>193.28571428571428</ele><time>2026-05-01T15:40:11.441Z</time></trkpt><trkpt lat="44.22715" lon="11.8266017"><ele>194.14285714285714</ele><time>2026-05-01T15:40:15.44Z</time></trkpt><trkpt lat="44.2271217" lon="11.8267083"><ele>195.0</ele><time>2026-05-01T15:40:19.44Z</time></trkpt><trkpt lat="44.2271017" lon="11.8268033"><ele>195.5</ele><time>2026-05-01T15:40:22.441Z</time></trkpt><trkpt lat="44.2270733" lon="11.8269133"><ele>196.0</ele><time>2026-05-01T15:40:26.44Z</time></trkpt><trkpt lat="44.227065" lon="11.82701"><ele>196.5</ele><time>2026-05-01T15:40:29.44Z</time></trkpt><trkpt lat="44.2270967" lon="11.8271283"><ele>197.0</ele><time>2026-05-01T15:40:32.442Z</time></trkpt><trkpt lat="44.2271133" lon="11.827215"><ele>197.5</ele><time>2026-05-01T15:40:34.441Z</time></trkpt><trkpt lat="44.2271467" lon="11.8273167"><ele>198.0</ele><time>2026-05-01T15:40:36.441Z</time></trkpt><trkpt lat="44.227175" lon="11.827435"><ele>198.0</ele><time>2026-05-01T15:40:38.441Z</time></trkpt><trkpt lat="44.2272033" lon="11.827565"><ele>198.0</ele><time>2026-05-01T15:40:40.442Z</time></trkpt><trkpt lat="44.22723" lon="11.8276967"><ele>198.0</ele><time>2026-05-01T15:40:42.441Z</time></trkpt><trkpt lat="44.2272667" lon="11.8278383"><ele>198.0</ele><time>2026-05-01T15:40:44.441Z</time></trkpt><trkpt lat="44.2272967" lon="11.8279817"><ele>198.0</ele><time>2026-05-01T15:40:46.443Z</time></trkpt><trkpt lat="44.2273267" lon="11.8281333"><ele>194.25</ele><time>2026-05-01T15:40:48.441Z</time></trkpt><trkpt lat="44.227355" lon="11.8282883"><ele>190.5</ele><time>2026-05-01T15:40:50.441Z</time></trkpt><trkpt lat="44.227395" lon="11.828445"><ele>186.75</ele><time>2026-05-01T15:40:52.44Z</time></trkpt><trkpt lat="44.2274383" lon="11.8286033"><ele>183.0</ele><time>2026-05-01T15:40:54.44Z</time></trkpt><trkpt lat="44.2274783" lon="11.8287633"><ele>182.25</ele><time>2026-05-01T15:40:56.441Z</time></trkpt><trkpt lat="44.227515" lon="11.828915"><ele>181.5</ele><time>2026-05-01T15:40:58.441Z</time></trkpt><trkpt lat="44.227545" lon="11.8290633"><ele>180.75</ele><time>2026-05-01T15:41:00.444Z</time></trkpt><trkpt lat="44.22757" lon="11.829215"><ele>180.0</ele><time>2026-05-01T15:41:02.442Z</time></trkpt><trkpt lat="44.2276" lon="11.8293683"><ele>179.5</ele><time>2026-05-01T15:41:04.441Z</time></trkpt><trkpt lat="44.2276367" lon="11.82952"><ele>179.0</ele><time>2026-05-01T15:41:06.441Z</time></trkpt><trkpt lat="44.2276683" lon="11.82968"><ele>178.5</ele><time>2026-05-01T15:41:08.441Z</time></trkpt><trkpt lat="44.2277017" lon="11.829835"><ele>178.0</ele><time>2026-05-01T15:41:10.442Z</time></trkpt><trkpt lat="44.227735" lon="11.8299867"><ele>178.0</ele><time>2026-05-01T15:41:12.441Z</time></trkpt><trkpt lat="44.2277683" lon="11.8301367"><ele>178.0</ele><time>2026-05-01T15:41:14.44Z</time></trkpt><trkpt lat="44.2278" lon="11.8302817"><ele>178.0</ele><time>2026-05-01T15:41:16.443Z</time></trkpt><trkpt lat="44.22784" lon="11.8304233"><ele>178.0</ele><time>2026-05-01T15:41:18.44Z</time></trkpt><trkpt lat="44.2278767" lon="11.830555"><ele>178.0</ele><time>2026-05-01T15:41:20.44Z</time></trkpt><trkpt lat="44.227915" lon="11.8306767"><ele>176.83333333333334</ele><time>2026-05-01T15:41:22.44Z</time></trkpt><trkpt lat="44.2279567" lon="11.8307717"><ele>175.66666666666669</ele><time>2026-05-01T15:41:24.44Z</time></trkpt><trkpt lat="44.2279933" lon="11.8308583"><ele>174.5</ele><time>2026-05-01T15:41:26.44Z</time></trkpt><trkpt lat="44.2280467" lon="11.830955"><ele>173.33333333333334</ele><time>2026-05-01T15:41:29.44Z</time></trkpt><trkpt lat="44.2281" lon="11.8310367"><ele>172.16666666666666</ele><time>2026-05-01T15:41:32.44Z</time></trkpt><trkpt lat="44.228155" lon="11.83112"><ele>171.0</ele><time>2026-05-01T15:41:35.439Z</time></trkpt><trkpt lat="44.2282083" lon="11.8311933"><ele>174.33333333333334</ele><time>2026-05-01T15:41:38.44Z</time></trkpt><trkpt lat="44.228265" lon="11.8312683"><ele>177.66666666666666</ele><time>2026-05-01T15:41:42.439Z</time></trkpt><trkpt lat="44.2283117" lon="11.8313283"><ele>181.0</ele><time>2026-05-01T15:41:46.444Z</time></trkpt><trkpt lat="44.228345" lon="11.831425"><ele>184.33333333333331</ele><time>2026-05-01T15:41:50.439Z</time></trkpt><trkpt lat="44.2283883" lon="11.8315767"><ele>187.66666666666666</ele><time>2026-05-01T15:42:01.44Z</time></trkpt><trkpt lat="44.2284133" lon="11.8314917"><ele>191.0</ele><time>2026-05-01T15:42:05.439Z</time></trkpt><trkpt lat="44.2284767" lon="11.8314967"><ele>191.0</ele><time>2026-05-01T15:42:11.44Z</time></trkpt><trkpt lat="44.2285433" lon="11.831555"><ele>191.0</ele><time>2026-05-01T15:42:16.443Z</time></trkpt><trkpt lat="44.2285967" lon="11.8316083"><ele>191.0</ele><time>2026-05-01T15:42:20.442Z</time></trkpt><trkpt lat="44.2286533" lon="11.8316483"><ele>191.0</ele><time>2026-05-01T15:42:24.442Z</time></trkpt><trkpt lat="44.2287133" lon="11.8317"><ele>191.0</ele><time>2026-05-01T15:42:29.441Z</time></trkpt><trkpt lat="44.2287767" lon="11.8317533"><ele>191.0</ele><time>2026-05-01T15:42:34.441Z</time></trkpt><trkpt lat="44.22884" lon="11.8318133"><ele>191.0</ele><time>2026-05-01T15:42:39.44Z</time></trkpt><trkpt lat="44.2289017" lon="11.83185"><ele>191.57142857142858</ele><time>2026-05-01T15:42:43.44Z</time></trkpt><trkpt lat="44.2289633" lon="11.83188"><ele>192.14285714285714</ele><time>2026-05-01T15:42:47.442Z</time></trkpt><trkpt lat="44.2290033" lon="11.831965"><ele>192.71428571428572</ele><time>2026-05-01T15:42:52.438Z</time></trkpt><trkpt lat="44.2290617" lon="11.83202"><ele>193.28571428571428</ele><time>2026-05-01T15:42:57.439Z</time></trkpt><trkpt lat="44.2291267" lon="11.8320817"><ele>193.85714285714283</ele><time>2026-05-01T15:43:02.438Z</time></trkpt><trkpt lat="44.229195" lon="11.8321367"><ele>194.42857142857142</ele><time>2026-05-01T15:43:07.44Z</time></trkpt><trkpt lat="44.22926" lon="11.832195"><ele>195.0</ele><time>2026-05-01T15:43:11.439Z</time></trkpt><trkpt lat="44.2293167" lon="11.8322367"><ele>195.66666666666666</ele><time>2026-05-01T15:43:14.439Z</time></trkpt><trkpt lat="44.2293867" lon="11.8322933"><ele>196.33333333333331</ele><time>2026-05-01T15:43:17.442Z</time></trkpt><trkpt lat="44.22947" lon="11.8323683"><ele>197.0</ele><time>2026-05-01T15:43:20.439Z</time></trkpt><trkpt lat="44.229535" lon="11.832415"><ele>197.66666666666666</ele><time>2026-05-01T15:43:22.442Z</time></trkpt><trkpt lat="44.2296117" lon="11.8324683"><ele>198.33333333333331</ele><time>2026-05-01T15:43:24.442Z</time></trkpt><trkpt lat="44.229695" lon="11.832525"><ele>199.0</ele><time>2026-05-01T15:43:26.439Z</time></trkpt><trkpt lat="44.2297733" lon="11.8326"><ele>197.6</ele><time>2026-05-01T15:43:28.439Z</time></trkpt><trkpt lat="44.2298433" lon="11.8326683"><ele>196.2</ele><time>2026-05-01T15:43:30.439Z</time></trkpt><trkpt lat="44.22992" lon="11.8327383"><ele>194.79999999999998</ele><time>2026-05-01T15:43:32.438Z</time></trkpt><trkpt lat="44.23" lon="11.832825"><ele>193.39999999999998</ele><time>2026-05-01T15:43:34.439Z</time></trkpt><trkpt lat="44.2300683" lon="11.8329083"><ele>192.0</ele><time>2026-05-01T15:43:36.44Z</time></trkpt><trkpt lat="44.2301367" lon="11.83299"><ele>192.0</ele><time>2026-05-01T15:43:38.438Z</time></trkpt><trkpt lat="44.230205" lon="11.8330817"><ele>192.0</ele><time>2026-05-01T15:43:40.44Z</time></trkpt><trkpt lat="44.230265" lon="11.83319"><ele>192.0</ele><time>2026-05-01T15:43:42.439Z</time></trkpt><trkpt lat="44.23032" lon="11.8333017"><ele>192.0</ele><time>2026-05-01T15:43:44.439Z</time></trkpt><trkpt lat="44.2303767" lon="11.8334217"><ele>192.0</ele><time>2026-05-01T15:43:46.441Z</time></trkpt><trkpt lat="44.2304333" lon="11.8335383"><ele>191.8</ele><time>2026-05-01T15:43:48.439Z</time></trkpt><trkpt lat="44.2304933" lon="11.83366"><ele>191.6</ele><time>2026-05-01T15:43:50.442Z</time></trkpt><trkpt lat="44.2305617" lon="11.8337783"><ele>191.4</ele><time>2026-05-01T15:43:52.44Z</time></trkpt><trkpt lat="44.2306317" lon="11.833905"><ele>191.20000000000002</ele><time>2026-05-01T15:43:54.438Z</time></trkpt><trkpt lat="44.2307" lon="11.8340333"><ele>191.0</ele><time>2026-05-01T15:43:56.44Z</time></trkpt><trkpt lat="44.2307733" lon="11.8341617"><ele>191.0</ele><time>2026-05-01T15:43:58.44Z</time></trkpt><trkpt lat="44.23085" lon="11.8342767"><ele>191.0</ele><time>2026-05-01T15:44:00.439Z</time></trkpt><trkpt lat="44.230935" lon="11.83437"><ele>191.0</ele><time>2026-05-01T15:44:02.44Z</time></trkpt><trkpt lat="44.2310317" lon="11.8344233"><ele>191.0</ele><time>2026-05-01T15:44:04.439Z</time></trkpt><trkpt lat="44.2311383" lon="11.8344683"><ele>191.0</ele><time>2026-05-01T15:44:06.44Z</time></trkpt><trkpt lat="44.2312467" lon="11.8345283"><ele>190.4</ele><time>2026-05-01T15:44:08.44Z</time></trkpt><trkpt lat="44.231345" lon="11.8346133"><ele>189.8</ele><time>2026-05-01T15:44:10.439Z</time></trkpt><trkpt lat="44.231435" lon="11.8347"><ele>189.20000000000002</ele><time>2026-05-01T15:44:12.44Z</time></trkpt><trkpt lat="44.2315233" lon="11.8347833"><ele>188.60000000000002</ele><time>2026-05-01T15:44:14.44Z</time></trkpt><trkpt lat="44.231615" lon="11.8348617"><ele>188.0</ele><time>2026-05-01T15:44:16.443Z</time></trkpt><trkpt lat="44.231695" lon="11.8349567"><ele>188.0</ele><time>2026-05-01T15:44:18.443Z</time></trkpt><trkpt lat="44.231755" lon="11.8350817"><ele>188.0</ele><time>2026-05-01T15:44:20.442Z</time></trkpt><trkpt lat="44.2317883" lon="11.8352217"><ele>188.0</ele><time>2026-05-01T15:44:22.448Z</time></trkpt><trkpt lat="44.2317933" lon="11.8353617"><ele>188.0</ele><time>2026-05-01T15:44:24.442Z</time></trkpt><trkpt lat="44.2317833" lon="11.8354933"><ele>188.0</ele><time>2026-05-01T15:44:26.44Z</time></trkpt><trkpt lat="44.2317783" lon="11.83562"><ele>187.60000000000002</ele><time>2026-05-01T15:44:28.439Z</time></trkpt><trkpt lat="44.2317767" lon="11.83575"><ele>187.20000000000002</ele><time>2026-05-01T15:44:30.439Z</time></trkpt><trkpt lat="44.23177" lon="11.8358867"><ele>186.8</ele><time>2026-05-01T15:44:32.439Z</time></trkpt><trkpt lat="44.2317583" lon="11.8360217"><ele>186.4</ele><time>2026-05-01T15:44:34.44Z</time></trkpt><trkpt lat="44.23174" lon="11.8361567"><ele>186.0</ele><time>2026-05-01T15:44:36.44Z</time></trkpt><trkpt lat="44.2317267" lon="11.8362983"><ele>185.60000000000002</ele><time>2026-05-01T15:44:38.439Z</time></trkpt><trkpt lat="44.2317117" lon="11.8364333"><ele>185.2</ele><time>2026-05-01T15:44:40.44Z</time></trkpt><trkpt lat="44.2316933" lon="11.8365767"><ele>184.8</ele><time>2026-05-01T15:44:42.439Z</time></trkpt><trkpt lat="44.2316833" lon="11.836725"><ele>184.39999999999998</ele><time>2026-05-01T15:44:44.44Z</time></trkpt><trkpt lat="44.2316833" lon="11.83686"><ele>184.0</ele><time>2026-05-01T15:44:46.443Z</time></trkpt><trkpt lat="44.23169" lon="11.8369867"><ele>185.0</ele><time>2026-05-01T15:44:48.44Z</time></trkpt><trkpt lat="44.23171" lon="11.83711"><ele>186.0</ele><time>2026-05-01T15:44:50.442Z</time></trkpt><trkpt lat="44.2317367" lon="11.8372283"><ele>187.0</ele><time>2026-05-01T15:44:52.443Z</time></trkpt><trkpt lat="44.231765" lon="11.837335"><ele>188.0</ele><time>2026-05-01T15:44:54.443Z</time></trkpt><trkpt lat="44.2318017" lon="11.83745"><ele>189.0</ele><time>2026-05-01T15:44:56.44Z</time></trkpt><trkpt lat="44.2318383" lon="11.8375667"><ele>190.0</ele><time>2026-05-01T15:44:58.439Z</time></trkpt><trkpt lat="44.23188" lon="11.83767"><ele>191.16666666666669</ele><time>2026-05-01T15:45:00.439Z</time></trkpt><trkpt lat="44.2319233" lon="11.837765"><ele>192.33333333333334</ele><time>2026-05-01T15:45:02.439Z</time></trkpt><trkpt lat="44.2319733" lon="11.837865"><ele>193.5</ele><time>2026-05-01T15:45:04.44Z</time></trkpt><trkpt lat="44.2320267" lon="11.8379633"><ele>194.66666666666669</ele><time>2026-05-01T15:45:06.44Z</time></trkpt><trkpt lat="44.2320767" lon="11.8380567"><ele>195.83333333333334</ele><time>2026-05-01T15:45:08.44Z</time></trkpt><trkpt lat="44.2321167" lon="11.8381467"><ele>197.0</ele><time>2026-05-01T15:45:10.44Z</time></trkpt><trkpt lat="44.23215" lon="11.8382367"><ele>197.00000000000003</ele><time>2026-05-01T15:45:12.438Z</time></trkpt><trkpt lat="44.2321817" lon="11.8383233"><ele>197.0</ele><time>2026-05-01T15:45:14.439Z</time></trkpt><trkpt lat="44.232205" lon="11.83841"><ele>197.0</ele><time>2026-05-01T15:45:16.439Z</time></trkpt><trkpt lat="44.2322317" lon="11.838495"><ele>197.0</ele><time>2026-05-01T15:45:18.443Z</time></trkpt><trkpt lat="44.23227" lon="11.8386117"><ele>197.00000000000003</ele><time>2026-05-01T15:45:21.443Z</time></trkpt><trkpt lat="44.2322983" lon="11.83872"><ele>197.0</ele><time>2026-05-01T15:45:24.443Z</time></trkpt><trkpt lat="44.2323333" lon="11.8388233"><ele>197.28571428571428</ele><time>2026-05-01T15:45:27.439Z</time></trkpt><trkpt lat="44.232375" lon="11.8388933"><ele>197.57142857142858</ele><time>2026-05-01T15:45:30.439Z</time></trkpt><trkpt lat="44.23243" lon="11.8389533"><ele>197.85714285714283</ele><time>2026-05-01T15:45:33.44Z</time></trkpt><trkpt lat="44.23248" lon="11.8390317"><ele>198.14285714285714</ele><time>2026-05-01T15:45:37.44Z</time></trkpt><trkpt lat="44.2325333" lon="11.8390883"><ele>198.42857142857142</ele><time>2026-05-01T15:45:40.44Z</time></trkpt><trkpt lat="44.232585" lon="11.83914"><ele>198.7142857142857</ele><time>2026-05-01T15:45:43.439Z</time></trkpt><trkpt lat="44.23265" lon="11.83921"><ele>199.0</ele><time>2026-05-01T15:45:47.443Z</time></trkpt><trkpt lat="44.2327117" lon="11.839285"><ele>198.85714285714283</ele><time>2026-05-01T15:45:51.439Z</time></trkpt><trkpt lat="44.2327683" lon="11.839355"><ele>198.71428571428572</ele><time>2026-05-01T15:45:55.439Z</time></trkpt><trkpt lat="44.2328183" lon="11.8394133"><ele>198.57142857142856</ele><time>2026-05-01T15:45:59.439Z</time></trkpt><trkpt lat="44.23287" lon="11.839475"><ele>198.42857142857142</ele><time>2026-05-01T15:46:03.44Z</time></trkpt><trkpt lat="44.232915" lon="11.83954"><ele>198.28571428571428</ele><time>2026-05-01T15:46:07.439Z</time></trkpt><trkpt lat="44.2329583" lon="11.839615"><ele>198.14285714285714</ele><time>2026-05-01T15:46:11.439Z</time></trkpt><trkpt lat="44.2329833" lon="11.8397133"><ele>198.0</ele><time>2026-05-01T15:46:16.443Z</time></trkpt><trkpt lat="44.23302" lon="11.8397983"><ele>198.0</ele><time>2026-05-01T15:46:20.44Z</time></trkpt><trkpt lat="44.2330567" lon="11.8398833"><ele>198.0</ele><time>2026-05-01T15:46:24.44Z</time></trkpt><trkpt lat="44.2330883" lon="11.839975"><ele>198.0</ele><time>2026-05-01T15:46:28.439Z</time></trkpt><trkpt lat="44.2331233" lon="11.840065"><ele>198.0</ele><time>2026-05-01T15:46:32.44Z</time></trkpt><trkpt lat="44.2331583" lon="11.8401383"><ele>198.0</ele><time>2026-05-01T15:46:35.438Z</time></trkpt><trkpt lat="44.2332033" lon="11.8402117"><ele>198.0</ele><time>2026-05-01T15:46:38.44Z</time></trkpt><trkpt lat="44.2332467" lon="11.8402833"><ele>198.0</ele><time>2026-05-01T15:46:41.439Z</time></trkpt><trkpt lat="44.23328" lon="11.84036"><ele>198.71428571428572</ele><time>2026-05-01T15:46:44.439Z</time></trkpt><trkpt lat="44.2333167" lon="11.84044"><ele>199.42857142857142</ele><time>2026-05-01T15:46:47.442Z</time></trkpt><trkpt lat="44.23335" lon="11.840525"><ele>200.14285714285714</ele><time>2026-05-01T15:46:50.442Z</time></trkpt><trkpt lat="44.2333833" lon="11.8406"><ele>200.85714285714286</ele><time>2026-05-01T15:46:53.441Z</time></trkpt><trkpt lat="44.233415" lon="11.84068"><ele>201.57142857142856</ele><time>2026-05-01T15:46:56.439Z</time></trkpt><trkpt lat="44.2334483" lon="11.8407567"><ele>202.28571428571428</ele><time>2026-05-01T15:46:59.44Z</time></trkpt><trkpt lat="44.23348" lon="11.84086"><ele>203.0</ele><time>2026-05-01T15:47:03.439Z</time></trkpt><trkpt lat="44.2335033" lon="11.84095"><ele>202.83333333333334</ele><time>2026-05-01T15:47:07.441Z</time></trkpt><trkpt lat="44.2335233" lon="11.8410517"><ele>202.66666666666669</ele><time>2026-05-01T15:47:12.441Z</time></trkpt><trkpt lat="44.2335317" lon="11.841155"><ele>202.5</ele><time>2026-05-01T15:47:17.443Z</time></trkpt><trkpt lat="44.2335333" lon="11.841255"><ele>202.33333333333331</ele><time>2026-05-01T15:47:22.44Z</time></trkpt><trkpt lat="44.2335417" lon="11.8413583"><ele>202.16666666666666</ele><time>2026-05-01T15:47:27.44Z</time></trkpt><trkpt lat="44.2335383" lon="11.8414683"><ele>202.0</ele><time>2026-05-01T15:47:32.439Z</time></trkpt><trkpt lat="44.2335467" lon="11.8415717"><ele>202.0</ele><time>2026-05-01T15:47:37.439Z</time></trkpt><trkpt lat="44.2335517" lon="11.8416733"><ele>202.0</ele><time>2026-05-01T15:47:41.439Z</time></trkpt><trkpt lat="44.2335467" lon="11.841775"><ele>202.0</ele><time>2026-05-01T15:47:46.444Z</time></trkpt><trkpt lat="44.233545" lon="11.841865"><ele>202.0</ele><time>2026-05-01T15:47:50.44Z</time></trkpt><trkpt lat="44.2335417" lon="11.8419617"><ele>202.0</ele><time>2026-05-01T15:47:54.44Z</time></trkpt><trkpt lat="44.233525" lon="11.8420667"><ele>202.0</ele><time>2026-05-01T15:47:58.44Z</time></trkpt><trkpt lat="44.2335117" lon="11.8421733"><ele>202.0</ele><time>2026-05-01T15:48:02.44Z</time></trkpt><trkpt lat="44.2334933" lon="11.8422733"><ele>202.71428571428572</ele><time>2026-05-01T15:48:06.44Z</time></trkpt><trkpt lat="44.2334883" lon="11.842365"><ele>203.42857142857142</ele><time>2026-05-01T15:48:10.44Z</time></trkpt><trkpt lat="44.2335233" lon="11.842445"><ele>204.14285714285717</ele><time>2026-05-01T15:48:14.44Z</time></trkpt><trkpt lat="44.23359" lon="11.84246"><ele>204.85714285714286</ele><time>2026-05-01T15:48:20.439Z</time></trkpt><trkpt lat="44.2336517" lon="11.8424033"><ele>205.57142857142858</ele><time>2026-05-01T15:48:25.44Z</time></trkpt><trkpt lat="44.2337167" lon="11.84235"><ele>206.2857142857143</ele><time>2026-05-01T15:48:30.439Z</time></trkpt><trkpt lat="44.233775" lon="11.8422967"><ele>207.0</ele><time>2026-05-01T15:48:33.44Z</time></trkpt><trkpt lat="44.2338417" lon="11.8422517"><ele>207.0</ele><time>2026-05-01T15:48:36.439Z</time></trkpt><trkpt lat="44.2339183" lon="11.8422067"><ele>207.0</ele><time>2026-05-01T15:48:39.44Z</time></trkpt><trkpt lat="44.2339917" lon="11.8422233"><ele>207.0</ele><time>2026-05-01T15:48:42.44Z</time></trkpt><trkpt lat="44.23405" lon="11.8422767"><ele>207.0</ele><time>2026-05-01T15:48:44.44Z</time></trkpt><trkpt lat="44.2341017" lon="11.84235"><ele>207.0</ele><time>2026-05-01T15:48:46.443Z</time></trkpt><trkpt lat="44.23415" lon="11.842445"><ele>207.0</ele><time>2026-05-01T15:48:48.44Z</time></trkpt><trkpt lat="44.2342267" lon="11.8425217"><ele>207.66666666666666</ele><time>2026-05-01T15:48:50.439Z</time></trkpt><trkpt lat="44.234335" lon="11.8425667"><ele>208.33333333333331</ele><time>2026-05-01T15:48:52.441Z</time></trkpt><trkpt lat="44.2344" lon="11.8425767"><ele>209.0</ele><time>2026-05-01T15:48:53.441Z</time></trkpt><trkpt lat="44.234465" lon="11.84258"><ele>209.66666666666666</ele><time>2026-05-01T15:48:54.44Z</time></trkpt><trkpt lat="44.234535" lon="11.8425767"><ele>210.33333333333331</ele><time>2026-05-01T15:48:55.44Z</time></trkpt><trkpt lat="44.234605" lon="11.8425717"><ele>211.0</ele><time>2026-05-01T15:48:56.439Z</time></trkpt><trkpt lat="44.2346767" lon="11.8425633"><ele>211.0</ele><time>2026-05-01T15:48:57.442Z</time></trkpt><trkpt lat="44.234745" lon="11.8425633"><ele>211.0</ele><time>2026-05-01T15:48:58.44Z</time></trkpt><trkpt lat="44.2348117" lon="11.8425717"><ele>211.0</ele><time>2026-05-01T15:48:59.44Z</time></trkpt><trkpt lat="44.2348767" lon="11.8425817"><ele>211.0</ele><time>2026-05-01T15:49:00.441Z</time></trkpt><trkpt lat="44.2349417" lon="11.8425917"><ele>211.0</ele><time>2026-05-01T15:49:01.441Z</time></trkpt><trkpt lat="44.2350083" lon="11.842605"><ele>211.0</ele><time>2026-05-01T15:49:02.439Z</time></trkpt><trkpt lat="44.23507" lon="11.842625"><ele>211.0</ele><time>2026-05-01T15:49:03.441Z</time></trkpt><trkpt lat="44.2351817" lon="11.842685"><ele>209.66666666666666</ele><time>2026-05-01T15:49:05.439Z</time></trkpt><trkpt lat="44.2352733" lon="11.8427517"><ele>208.33333333333331</ele><time>2026-05-01T15:49:07.439Z</time></trkpt><trkpt lat="44.2353483" lon="11.8428217"><ele>207.0</ele><time>2026-05-01T15:49:09.441Z</time></trkpt><trkpt lat="44.2354183" lon="11.8428883"><ele>205.66666666666669</ele><time>2026-05-01T15:49:11.44Z</time></trkpt><trkpt lat="44.2354817" lon="11.8429617"><ele>204.33333333333334</ele><time>2026-05-01T15:49:13.44Z</time></trkpt><trkpt lat="44.235535" lon="11.8430383"><ele>203.0</ele><time>2026-05-01T15:49:15.441Z</time></trkpt><trkpt lat="44.23558" lon="11.8431117"><ele>203.0</ele><time>2026-05-01T15:49:17.44Z</time></trkpt><trkpt lat="44.235615" lon="11.8432033"><ele>203.0</ele><time>2026-05-01T15:49:19.44Z</time></trkpt><trkpt lat="44.23564" lon="11.8433"><ele>203.0</ele><time>2026-05-01T15:49:21.44Z</time></trkpt><trkpt lat="44.235665" lon="11.8433983"><ele>203.0</ele><time>2026-05-01T15:49:23.44Z</time></trkpt><trkpt lat="44.2356833" lon="11.8435033"><ele>203.0</ele><time>2026-05-01T15:49:25.439Z</time></trkpt><trkpt lat="44.2357033" lon="11.8435967"><ele>203.0</ele><time>2026-05-01T15:49:27.44Z</time></trkpt><trkpt lat="44.2357117" lon="11.8436917"><ele>203.0</ele><time>2026-05-01T15:49:29.441Z</time></trkpt><trkpt lat="44.2357267" lon="11.8437983"><ele>203.83333333333334</ele><time>2026-05-01T15:49:31.441Z</time></trkpt><trkpt lat="44.23574" lon="11.8439017"><ele>204.66666666666669</ele><time>2026-05-01T15:49:33.439Z</time></trkpt><trkpt lat="44.2357517" lon="11.8440033"><ele>205.5</ele><time>2026-05-01T15:49:35.441Z</time></trkpt><trkpt lat="44.2357533" lon="11.8441017"><ele>206.33333333333331</ele><time>2026-05-01T15:49:37.441Z</time></trkpt><trkpt lat="44.2357617" lon="11.8442017"><ele>207.16666666666666</ele><time>2026-05-01T15:49:39.44Z</time></trkpt><trkpt lat="44.235765" lon="11.8443183"><ele>208.0</ele><time>2026-05-01T15:49:41.44Z</time></trkpt><trkpt lat="44.2357683" lon="11.8444533"><ele>208.0</ele><time>2026-05-01T15:49:43.441Z</time></trkpt><trkpt lat="44.2357933" lon="11.8445783"><ele>208.0</ele><time>2026-05-01T15:49:45.441Z</time></trkpt><trkpt lat="44.2358117" lon="11.8446983"><ele>208.0</ele><time>2026-05-01T15:49:47.443Z</time></trkpt><trkpt lat="44.2358383" lon="11.8448133"><ele>208.0</ele><time>2026-05-01T15:49:49.441Z</time></trkpt><trkpt lat="44.2358783" lon="11.8449433"><ele>208.0</ele><time>2026-05-01T15:49:51.443Z</time></trkpt><trkpt lat="44.2359367" lon="11.8450733"><ele>204.8</ele><time>2026-05-01T15:49:53.443Z</time></trkpt><trkpt lat="44.2359983" lon="11.8451933"><ele>201.60000000000002</ele><time>2026-05-01T15:49:55.439Z</time></trkpt><trkpt lat="44.236065" lon="11.8453033"><ele>198.39999999999998</ele><time>2026-05-01T15:49:57.439Z</time></trkpt><trkpt lat="44.23614" lon="11.845405"><ele>195.2</ele><time>2026-05-01T15:49:59.44Z</time></trkpt><trkpt lat="44.23621" lon="11.84551"><ele>192.0</ele><time>2026-05-01T15:50:01.44Z</time></trkpt><trkpt lat="44.23627" lon="11.8456233"><ele>192.0</ele><time>2026-05-01T15:50:03.44Z</time></trkpt><trkpt lat="44.2363283" lon="11.845735"><ele>192.0</ele><time>2026-05-01T15:50:05.44Z</time></trkpt><trkpt lat="44.2363833" lon="11.84585"><ele>192.0</ele><time>2026-05-01T15:50:07.439Z</time></trkpt><trkpt lat="44.23644" lon="11.8459783"><ele>192.0</ele><time>2026-05-01T15:50:09.439Z</time></trkpt><trkpt lat="44.2364883" lon="11.8461167"><ele>192.0</ele><time>2026-05-01T15:50:11.439Z</time></trkpt><trkpt lat="44.2365417" lon="11.84624"><ele>193.39999999999998</ele><time>2026-05-01T15:50:13.441Z</time></trkpt><trkpt lat="44.2365917" lon="11.846375"><ele>194.79999999999998</ele><time>2026-05-01T15:50:15.44Z</time></trkpt><trkpt lat="44.236635" lon="11.84654"><ele>196.2</ele><time>2026-05-01T15:50:17.442Z</time></trkpt><trkpt lat="44.23666" lon="11.8466217"><ele>197.6</ele><time>2026-05-01T15:50:18.443Z</time></trkpt><trkpt lat="44.2367167" lon="11.8467783"><ele>199.0</ele><time>2026-05-01T15:50:20.442Z</time></trkpt><trkpt lat="44.23677" lon="11.846925"><ele>196.99999999999997</ele><time>2026-05-01T15:50:22.443Z</time></trkpt><trkpt lat="44.236825" lon="11.8469817"><ele>195.0</ele><time>2026-05-01T15:50:23.442Z</time></trkpt><trkpt lat="44.2368833" lon="11.84702"><ele>193.0</ele><time>2026-05-01T15:50:24.442Z</time></trkpt><trkpt lat="44.2369383" lon="11.8470733"><ele>191.0</ele><time>2026-05-01T15:50:25.441Z</time></trkpt><trkpt lat="44.2369967" lon="11.8471267"><ele>189.0</ele><time>2026-05-01T15:50:26.44Z</time></trkpt><trkpt lat="44.23704" lon="11.8472"><ele>186.99999999999997</ele><time>2026-05-01T15:50:27.44Z</time></trkpt><trkpt lat="44.2370767" lon="11.847285"><ele>185.0</ele><time>2026-05-01T15:50:28.44Z</time></trkpt><trkpt lat="44.2371033" lon="11.84737"><ele>185.0</ele><time>2026-05-01T15:50:29.44Z</time></trkpt><trkpt lat="44.23714" lon="11.8475317"><ele>185.0</ele><time>2026-05-01T15:50:31.44Z</time></trkpt><trkpt lat="44.2371717" lon="11.847675"><ele>185.0</ele><time>2026-05-01T15:50:33.441Z</time></trkpt><trkpt lat="44.237205" lon="11.84779"><ele>185.0</ele><time>2026-05-01T15:50:35.441Z</time></trkpt><trkpt lat="44.237235" lon="11.8478867"><ele>185.0</ele><time>2026-05-01T15:50:37.441Z</time></trkpt><trkpt lat="44.2372733" lon="11.8479983"><ele>186.42857142857142</ele><time>2026-05-01T15:50:40.442Z</time></trkpt><trkpt lat="44.2373167" lon="11.848075"><ele>187.85714285714286</ele><time>2026-05-01T15:50:43.44Z</time></trkpt><trkpt lat="44.2373467" lon="11.8481667"><ele>189.28571428571428</ele><time>2026-05-01T15:50:47.441Z</time></trkpt><trkpt lat="44.2373717" lon="11.8482617"><ele>190.71428571428572</ele><time>2026-05-01T15:50:51.44Z</time></trkpt><trkpt lat="44.2374083" lon="11.8483617"><ele>192.14285714285714</ele><time>2026-05-01T15:50:55.441Z</time></trkpt><trkpt lat="44.23743" lon="11.84845"><ele>193.57142857142856</ele><time>2026-05-01T15:50:59.441Z</time></trkpt><trkpt lat="44.2374517" lon="11.8485467"><ele>195.0</ele><time>2026-05-01T15:51:03.444Z</time></trkpt><trkpt lat="44.23747" lon="11.8486417"><ele>195.0</ele><time>2026-05-01T15:51:07.443Z</time></trkpt><trkpt lat="44.2375033" lon="11.8487283"><ele>195.0</ele><time>2026-05-01T15:51:11.439Z</time></trkpt><trkpt lat="44.2375317" lon="11.8488217"><ele>195.0</ele><time>2026-05-01T15:51:15.441Z</time></trkpt><trkpt lat="44.2375667" lon="11.8489083"><ele>195.0</ele><time>2026-05-01T15:51:19.44Z</time></trkpt><trkpt lat="44.2376133" lon="11.848995"><ele>195.0</ele><time>2026-05-01T15:51:23.443Z</time></trkpt><trkpt lat="44.2376567" lon="11.849085"><ele>195.0</ele><time>2026-05-01T15:51:27.442Z</time></trkpt><trkpt lat="44.237695" lon="11.849185"><ele>195.0</ele><time>2026-05-01T15:51:31.441Z</time></trkpt><trkpt lat="44.237725" lon="11.8492667"><ele>195.0</ele><time>2026-05-01T15:51:34.442Z</time></trkpt><trkpt lat="44.237755" lon="11.8493517"><ele>195.0</ele><time>2026-05-01T15:51:37.44Z</time></trkpt><trkpt lat="44.237785" lon="11.8494433"><ele>195.0</ele><time>2026-05-01T15:51:40.441Z</time></trkpt><trkpt lat="44.2378167" lon="11.849545"><ele>195.0</ele><time>2026-05-01T15:51:43.442Z</time></trkpt><trkpt lat="44.2378517" lon="11.8496517"><ele>195.0</ele><time>2026-05-01T15:51:46.442Z</time></trkpt><trkpt lat="44.237885" lon="11.84976"><ele>193.83333333333334</ele><time>2026-05-01T15:51:49.442Z</time></trkpt><trkpt lat="44.23791" lon="11.849865"><ele>192.66666666666666</ele><time>2026-05-01T15:51:52.442Z</time></trkpt><trkpt lat="44.2379383" lon="11.849975"><ele>191.5</ele><time>2026-05-01T15:51:55.443Z</time></trkpt><trkpt lat="44.2379667" lon="11.85009"><ele>190.33333333333331</ele><time>2026-05-01T15:51:58.442Z</time></trkpt><trkpt lat="44.238" lon="11.8502017"><ele>189.16666666666666</ele><time>2026-05-01T15:52:01.443Z</time></trkpt><trkpt lat="44.2380333" lon="11.8503133"><ele>188.0</ele><time>2026-05-01T15:52:04.442Z</time></trkpt><trkpt lat="44.2380667" lon="11.8504217"><ele>186.83333333333331</ele><time>2026-05-01T15:52:07.443Z</time></trkpt><trkpt lat="44.2380983" lon="11.8505167"><ele>185.66666666666666</ele><time>2026-05-01T15:52:10.441Z</time></trkpt><trkpt lat="44.2381517" lon="11.8505967"><ele>184.5</ele><time>2026-05-01T15:52:13.442Z</time></trkpt><trkpt lat="44.2382283" lon="11.85066"><ele>183.33333333333334</ele><time>2026-05-01T15:52:16.44Z</time></trkpt><trkpt lat="44.238305" lon="11.8507367"><ele>182.16666666666669</ele><time>2026-05-01T15:52:19.442Z</time></trkpt><trkpt lat="44.238365" lon="11.8507983"><ele>181.0</ele><time>2026-05-01T15:52:21.441Z</time></trkpt><trkpt lat="44.238435" lon="11.850855"><ele>183.5</ele><time>2026-05-01T15:52:23.443Z</time></trkpt><trkpt lat="44.2385067" lon="11.8509317"><ele>186.0</ele><time>2026-05-01T15:52:26.441Z</time></trkpt><trkpt lat="44.23856" lon="11.850995"><ele>188.5</ele><time>2026-05-01T15:52:28.442Z</time></trkpt><trkpt lat="44.2386267" lon="11.8510683"><ele>191.0</ele><time>2026-05-01T15:52:30.442Z</time></trkpt><trkpt lat="44.2386917" lon="11.8511567"><ele>193.49999999999997</ele><time>2026-05-01T15:52:32.442Z</time></trkpt><trkpt lat="44.2387633" lon="11.8512617"><ele>196.0</ele><time>2026-05-01T15:52:34.442Z</time></trkpt><trkpt lat="44.2388317" lon="11.8513717"><ele>195.99999999999997</ele><time>2026-05-01T15:52:36.442Z</time></trkpt><trkpt lat="44.238885" lon="11.8514733"><ele>196.0</ele><time>2026-05-01T15:52:38.442Z</time></trkpt><trkpt lat="44.23893" lon="11.8515717"><ele>196.0</ele><time>2026-05-01T15:52:40.442Z</time></trkpt><trkpt lat="44.2389683" lon="11.8516617"><ele>196.0</ele><time>2026-05-01T15:52:42.44Z</time></trkpt><trkpt lat="44.239005" lon="11.85175"><ele>195.99999999999997</ele><time>2026-05-01T15:52:44.442Z</time></trkpt><trkpt lat="44.2390517" lon="11.8518533"><ele>196.0</ele><time>2026-05-01T15:52:46.443Z</time></trkpt><trkpt lat="44.2391" lon="11.85196"><ele>193.99999999999997</ele><time>2026-05-01T15:52:48.443Z</time></trkpt><trkpt lat="44.2391433" lon="11.852065"><ele>192.0</ele><time>2026-05-01T15:52:50.441Z</time></trkpt><trkpt lat="44.2391833" lon="11.8521533"><ele>190.0</ele><time>2026-05-01T15:52:52.443Z</time></trkpt><trkpt lat="44.239225" lon="11.852235"><ele>188.0</ele><time>2026-05-01T15:52:54.442Z</time></trkpt><trkpt lat="44.239275" lon="11.8522967"><ele>186.0</ele><time>2026-05-01T15:52:56.441Z</time></trkpt><trkpt lat="44.2393517" lon="11.8523567"><ele>184.0</ele><time>2026-05-01T15:52:59.442Z</time></trkpt><trkpt lat="44.239425" lon="11.8524183"><ele>184.0</ele><time>2026-05-01T15:53:02.442Z</time></trkpt><trkpt lat="44.2395033" lon="11.8524767"><ele>184.0</ele><time>2026-05-01T15:53:05.442Z</time></trkpt><trkpt lat="44.2395833" lon="11.852535"><ele>184.0</ele><time>2026-05-01T15:53:08.442Z</time></trkpt><trkpt lat="44.2396467" lon="11.8525767"><ele>184.0</ele><time>2026-05-01T15:53:10.441Z</time></trkpt><trkpt lat="44.23972" lon="11.8526283"><ele>184.0</ele><time>2026-05-01T15:53:12.441Z</time></trkpt><trkpt lat="44.2398" lon="11.8526867"><ele>184.0</ele><time>2026-05-01T15:53:14.443Z</time></trkpt><trkpt lat="44.23988" lon="11.8527483"><ele>181.0</ele><time>2026-05-01T15:53:16.442Z</time></trkpt><trkpt lat="44.23997" lon="11.8528167"><ele>178.0</ele><time>2026-05-01T15:53:18.442Z</time></trkpt><trkpt lat="44.2400567" lon="11.8528967"><ele>175.0</ele><time>2026-05-01T15:53:20.443Z</time></trkpt><trkpt lat="44.24015" lon="11.8529717"><ele>172.0</ele><time>2026-05-01T15:53:22.441Z</time></trkpt><trkpt lat="44.2402417" lon="11.853045"><ele>169.0</ele><time>2026-05-01T15:53:24.443Z</time></trkpt><trkpt lat="44.2403133" lon="11.8530967"><ele>169.0</ele><time>2026-05-01T15:53:26.443Z</time></trkpt><trkpt lat="44.2404033" lon="11.8531533"><ele>169.0</ele><time>2026-05-01T15:53:28.441Z</time></trkpt><trkpt lat="44.24046" lon="11.8531917"><ele>169.0</ele><time>2026-05-01T15:53:29.442Z</time></trkpt><trkpt lat="44.24052" lon="11.85323"><ele>169.0</ele><time>2026-05-01T15:53:30.443Z</time></trkpt><trkpt lat="44.2405817" lon="11.8532683"><ele>169.0</ele><time>2026-05-01T15:53:31.443Z</time></trkpt><trkpt lat="44.2406883" lon="11.8533367"><ele>169.0</ele><time>2026-05-01T15:53:33.442Z</time></trkpt><trkpt lat="44.2407767" lon="11.8534033"><ele>167.5</ele><time>2026-05-01T15:53:35.441Z</time></trkpt><trkpt lat="44.2408517" lon="11.8534533"><ele>166.0</ele><time>2026-05-01T15:53:37.442Z</time></trkpt><trkpt lat="44.2409317" lon="11.8535083"><ele>164.5</ele><time>2026-05-01T15:53:40.442Z</time></trkpt><trkpt lat="44.2409883" lon="11.853585"><ele>163.0</ele><time>2026-05-01T15:53:43.443Z</time></trkpt><trkpt lat="44.2410417" lon="11.8536917"><ele>161.5</ele><time>2026-05-01T15:53:46.442Z</time></trkpt><trkpt lat="44.241085" lon="11.853795"><ele>160.0</ele><time>2026-05-01T15:53:49.444Z</time></trkpt><trkpt lat="44.2411233" lon="11.853875"><ele>159.71428571428572</ele><time>2026-05-01T15:53:51.442Z</time></trkpt><trkpt lat="44.241165" lon="11.8539533"><ele>159.42857142857144</ele><time>2026-05-01T15:53:53.441Z</time></trkpt><trkpt lat="44.24122" lon="11.8540167"><ele>159.14285714285717</ele><time>2026-05-01T15:53:55.44Z</time></trkpt><trkpt lat="44.24128" lon="11.8540533"><ele>158.85714285714286</ele><time>2026-05-01T15:53:57.44Z</time></trkpt><trkpt lat="44.2413483" lon="11.854095"><ele>158.57142857142858</ele><time>2026-05-01T15:53:59.439Z</time></trkpt><trkpt lat="44.24141" lon="11.85414"><ele>158.2857142857143</ele><time>2026-05-01T15:54:01.441Z</time></trkpt><trkpt lat="44.2414717" lon="11.8542"><ele>158.0</ele><time>2026-05-01T15:54:03.44Z</time></trkpt><trkpt lat="44.2415317" lon="11.8542717"><ele>158.42857142857144</ele><time>2026-05-01T15:54:05.439Z</time></trkpt><trkpt lat="44.24158" lon="11.8543583"><ele>158.85714285714286</ele><time>2026-05-01T15:54:07.44Z</time></trkpt><trkpt lat="44.2416233" lon="11.8544517"><ele>159.28571428571428</ele><time>2026-05-01T15:54:10.44Z</time></trkpt><trkpt lat="44.2416567" lon="11.8545433"><ele>159.71428571428572</ele><time>2026-05-01T15:54:15.44Z</time></trkpt><trkpt lat="44.2416867" lon="11.8546317"><ele>160.14285714285714</ele><time>2026-05-01T15:54:20.44Z</time></trkpt><trkpt lat="44.2417117" lon="11.8547183"><ele>160.57142857142858</ele><time>2026-05-01T15:54:25.44Z</time></trkpt><trkpt lat="44.2417433" lon="11.85481"><ele>161.0</ele><time>2026-05-01T15:54:30.44Z</time></trkpt><trkpt lat="44.2417717" lon="11.8548917"><ele>161.0</ele><time>2026-05-01T15:54:35.44Z</time></trkpt><trkpt lat="44.2418017" lon="11.8549817"><ele>161.0</ele><time>2026-05-01T15:54:40.441Z</time></trkpt><trkpt lat="44.2418233" lon="11.85507"><ele>161.0</ele><time>2026-05-01T15:54:45.439Z</time></trkpt><trkpt lat="44.2418583" lon="11.8551533"><ele>161.0</ele><time>2026-05-01T15:54:50.438Z</time></trkpt><trkpt lat="44.2418833" lon="11.8552383"><ele>161.0</ele><time>2026-05-01T15:54:55.438Z</time></trkpt><trkpt lat="44.2418967" lon="11.8553267"><ele>161.0</ele><time>2026-05-01T15:55:00.44Z</time></trkpt><trkpt lat="44.2419183" lon="11.8554183"><ele>161.0</ele><time>2026-05-01T15:55:05.44Z</time></trkpt><trkpt lat="44.241955" lon="11.8554967"><ele>161.14285714285714</ele><time>2026-05-01T15:55:10.44Z</time></trkpt><trkpt lat="44.2419817" lon="11.855595"><ele>161.28571428571428</ele><time>2026-05-01T15:55:15.439Z</time></trkpt><trkpt lat="44.242005" lon="11.8556767"><ele>161.42857142857144</ele><time>2026-05-01T15:55:20.44Z</time></trkpt><trkpt lat="44.24203" lon="11.8557617"><ele>161.57142857142856</ele><time>2026-05-01T15:55:25.441Z</time></trkpt><trkpt lat="44.2420633" lon="11.8558567"><ele>161.71428571428572</ele><time>2026-05-01T15:55:30.44Z</time></trkpt><trkpt lat="44.24208" lon="11.85595"><ele>161.85714285714286</ele><time>2026-05-01T15:55:35.439Z</time></trkpt><trkpt lat="44.2421133" lon="11.8560383"><ele>162.0</ele><time>2026-05-01T15:55:40.44Z</time></trkpt><trkpt lat="44.2421383" lon="11.8561333"><ele>162.0</ele><time>2026-05-01T15:55:45.44Z</time></trkpt><trkpt lat="44.2421633" lon="11.8562267"><ele>162.0</ele><time>2026-05-01T15:55:50.439Z</time></trkpt><trkpt lat="44.2421817" lon="11.8563333"><ele>162.0</ele><time>2026-05-01T15:55:55.438Z</time></trkpt><trkpt lat="44.2422067" lon="11.8564217"><ele>162.0</ele><time>2026-05-01T15:55:59.439Z</time></trkpt><trkpt lat="44.24223" lon="11.856515"><ele>162.0</ele><time>2026-05-01T15:56:03.44Z</time></trkpt><trkpt lat="44.242265" lon="11.8566083"><ele>162.0</ele><time>2026-05-01T15:56:07.439Z</time></trkpt><trkpt lat="44.2422867" lon="11.8567067"><ele>162.0</ele><time>2026-05-01T15:56:11.44Z</time></trkpt><trkpt lat="44.2423083" lon="11.8568083"><ele>163.85714285714286</ele><time>2026-05-01T15:56:15.44Z</time></trkpt><trkpt lat="44.24234" lon="11.856905"><ele>165.71428571428572</ele><time>2026-05-01T15:56:19.439Z</time></trkpt><trkpt lat="44.2423667" lon="11.8569883"><ele>167.57142857142856</ele><time>2026-05-01T15:56:23.438Z</time></trkpt><trkpt lat="44.2423933" lon="11.857075"><ele>169.42857142857144</ele><time>2026-05-01T15:56:27.438Z</time></trkpt><trkpt lat="44.2424117" lon="11.857165"><ele>171.28571428571428</ele><time>2026-05-01T15:56:31.439Z</time></trkpt><trkpt lat="44.2424217" lon="11.85727"><ele>173.14285714285714</ele><time>2026-05-01T15:56:36.44Z</time></trkpt><trkpt lat="44.2424233" lon="11.8573717"><ele>175.0</ele><time>2026-05-01T15:56:40.439Z</time></trkpt><trkpt lat="44.2424433" lon="11.8574817"><ele>175.0</ele><time>2026-05-01T15:56:44.44Z</time></trkpt><trkpt lat="44.242455" lon="11.857575"><ele>175.0</ele><time>2026-05-01T15:56:47.446Z</time></trkpt><trkpt lat="44.2424583" lon="11.8576767"><ele>175.0</ele><time>2026-05-01T15:56:50.439Z</time></trkpt><trkpt lat="44.2424567" lon="11.8577883"><ele>175.0</ele><time>2026-05-01T15:56:53.44Z</time></trkpt><trkpt lat="44.2424717" lon="11.8579067"><ele>175.0</ele><time>2026-05-01T15:56:56.441Z</time></trkpt><trkpt lat="44.2424933" lon="11.8580283"><ele>175.0</ele><time>2026-05-01T15:56:59.441Z</time></trkpt><trkpt lat="44.2425167" lon="11.8581183"><ele>174.83333333333334</ele><time>2026-05-01T15:57:01.442Z</time></trkpt><trkpt lat="44.24254" lon="11.8582133"><ele>174.66666666666669</ele><time>2026-05-01T15:57:03.442Z</time></trkpt><trkpt lat="44.24257" lon="11.8583233"><ele>174.5</ele><time>2026-05-01T15:57:05.441Z</time></trkpt><trkpt lat="44.2426117" lon="11.8584317"><ele>174.33333333333334</ele><time>2026-05-01T15:57:07.442Z</time></trkpt><trkpt lat="44.2426633" lon="11.8585417"><ele>174.16666666666666</ele><time>2026-05-01T15:57:09.442Z</time></trkpt><trkpt lat="44.242725" lon="11.858665"><ele>174.0</ele><time>2026-05-01T15:57:11.442Z</time></trkpt><trkpt lat="44.2427883" lon="11.85879"><ele>171.25</ele><time>2026-05-01T15:57:13.441Z</time></trkpt><trkpt lat="44.2428517" lon="11.85893"><ele>168.5</ele><time>2026-05-01T15:57:15.441Z</time></trkpt><trkpt lat="44.2429283" lon="11.859065"><ele>165.75</ele><time>2026-05-01T15:57:17.442Z</time></trkpt><trkpt lat="44.2430133" lon="11.85919"><ele>163.0</ele><time>2026-05-01T15:57:19.443Z</time></trkpt><trkpt lat="44.243095" lon="11.8593133"><ele>162.85714285714286</ele><time>2026-05-01T15:57:21.442Z</time></trkpt><trkpt lat="44.24314" lon="11.85938"><ele>162.7142857142857</ele><time>2026-05-01T15:57:22.44Z</time></trkpt><trkpt lat="44.243185" lon="11.8594517"><ele>162.57142857142856</ele><time>2026-05-01T15:57:23.443Z</time></trkpt><trkpt lat="44.2432367" lon="11.8595233"><ele>162.42857142857144</ele><time>2026-05-01T15:57:24.441Z</time></trkpt><trkpt lat="44.24329" lon="11.859595"><ele>162.28571428571428</ele><time>2026-05-01T15:57:25.44Z</time></trkpt><trkpt lat="44.2433433" lon="11.85967"><ele>162.14285714285714</ele><time>2026-05-01T15:57:26.44Z</time></trkpt><trkpt lat="44.243395" lon="11.859745"><ele>162.0</ele><time>2026-05-01T15:57:27.441Z</time></trkpt><trkpt lat="44.2434483" lon="11.8598233"><ele>162.0</ele><time>2026-05-01T15:57:28.44Z</time></trkpt><trkpt lat="44.2435033" lon="11.8598967"><ele>162.0</ele><time>2026-05-01T15:57:29.44Z</time></trkpt><trkpt lat="44.2435617" lon="11.8599633"><ele>162.0</ele><time>2026-05-01T15:57:30.44Z</time></trkpt><trkpt lat="44.243615" lon="11.8600183"><ele>162.0</ele><time>2026-05-01T15:57:31.44Z</time></trkpt><trkpt lat="44.2436717" lon="11.8600583"><ele>162.0</ele><time>2026-05-01T15:57:32.44Z</time></trkpt><trkpt lat="44.2437967" lon="11.8601083"><ele>162.0</ele><time>2026-05-01T15:57:34.44Z</time></trkpt><trkpt lat="44.2438683" lon="11.8601367"><ele>161.57142857142858</ele><time>2026-05-01T15:57:35.44Z</time></trkpt><trkpt lat="44.243935" lon="11.86017"><ele>161.14285714285714</ele><time>2026-05-01T15:57:36.44Z</time></trkpt><trkpt lat="44.244" lon="11.8602083"><ele>160.71428571428572</ele><time>2026-05-01T15:57:37.439Z</time></trkpt><trkpt lat="44.24407" lon="11.8602483"><ele>160.28571428571428</ele><time>2026-05-01T15:57:38.44Z</time></trkpt><trkpt lat="44.2441417" lon="11.8602917"><ele>159.85714285714286</ele><time>2026-05-01T15:57:39.439Z</time></trkpt><trkpt lat="44.2442117" lon="11.8603367"><ele>159.42857142857142</ele><time>2026-05-01T15:57:40.44Z</time></trkpt><trkpt lat="44.24428" lon="11.8603817"><ele>159.0</ele><time>2026-05-01T15:57:41.439Z</time></trkpt><trkpt lat="44.24435" lon="11.8604317"><ele>159.0</ele><time>2026-05-01T15:57:42.439Z</time></trkpt><trkpt lat="44.2444217" lon="11.8604817"><ele>159.0</ele><time>2026-05-01T15:57:43.439Z</time></trkpt><trkpt lat="44.2444983" lon="11.8605317"><ele>159.0</ele><time>2026-05-01T15:57:44.44Z</time></trkpt><trkpt lat="44.24458" lon="11.860585"><ele>159.0</ele><time>2026-05-01T15:57:45.44Z</time></trkpt><trkpt lat="44.2446583" lon="11.8606383"><ele>159.0</ele><time>2026-05-01T15:57:46.443Z</time></trkpt><trkpt lat="44.24473" lon="11.8606833"><ele>159.0</ele><time>2026-05-01T15:57:47.443Z</time></trkpt><trkpt lat="44.2447933" lon="11.860735"><ele>157.0</ele><time>2026-05-01T15:57:48.44Z</time></trkpt><trkpt lat="44.2448483" lon="11.8607883"><ele>155.0</ele><time>2026-05-01T15:57:49.439Z</time></trkpt><trkpt lat="44.2449" lon="11.8608567"><ele>153.0</ele><time>2026-05-01T15:57:50.44Z</time></trkpt><trkpt lat="44.2449467" lon="11.860935"><ele>151.0</ele><time>2026-05-01T15:57:51.439Z</time></trkpt><trkpt lat="44.2449917" lon="11.8610217"><ele>149.0</ele><time>2026-05-01T15:57:52.439Z</time></trkpt><trkpt lat="44.2450333" lon="11.8611167"><ele>147.0</ele><time>2026-05-01T15:57:53.438Z</time></trkpt><trkpt lat="44.24507" lon="11.8612117"><ele>145.0</ele><time>2026-05-01T15:57:54.439Z</time></trkpt><trkpt lat="44.2450983" lon="11.8613133"><ele>144.83333333333334</ele><time>2026-05-01T15:57:55.44Z</time></trkpt><trkpt lat="44.2451217" lon="11.8614133"><ele>144.66666666666669</ele><time>2026-05-01T15:57:56.439Z</time></trkpt><trkpt lat="44.2451417" lon="11.8615183"><ele>144.5</ele><time>2026-05-01T15:57:57.44Z</time></trkpt><trkpt lat="44.2451617" lon="11.8616217"><ele>144.33333333333334</ele><time>2026-05-01T15:57:58.441Z</time></trkpt><trkpt lat="44.2451783" lon="11.8617267"><ele>144.16666666666666</ele><time>2026-05-01T15:57:59.439Z</time></trkpt><trkpt lat="44.245185" lon="11.8618317"><ele>144.0</ele><time>2026-05-01T15:58:00.439Z</time></trkpt><trkpt lat="44.24519" lon="11.8619383"><ele>143.0</ele><time>2026-05-01T15:58:01.439Z</time></trkpt><trkpt lat="44.2451917" lon="11.8620383"><ele>142.0</ele><time>2026-05-01T15:58:02.438Z</time></trkpt><trkpt lat="44.24519" lon="11.8621417"><ele>141.0</ele><time>2026-05-01T15:58:03.44Z</time></trkpt><trkpt lat="44.2451867" lon="11.8622533"><ele>140.0</ele><time>2026-05-01T15:58:04.439Z</time></trkpt><trkpt lat="44.2451883" lon="11.8623633"><ele>139.0</ele><time>2026-05-01T15:58:05.439Z</time></trkpt><trkpt lat="44.2451883" lon="11.8624767"><ele>138.0</ele><time>2026-05-01T15:58:06.44Z</time></trkpt><trkpt lat="44.2451917" lon="11.8625883"><ele>137.5</ele><time>2026-05-01T15:58:07.44Z</time></trkpt><trkpt lat="44.2451967" lon="11.8626983"><ele>137.0</ele><time>2026-05-01T15:58:08.44Z</time></trkpt><trkpt lat="44.2452017" lon="11.862805"><ele>136.5</ele><time>2026-05-01T15:58:09.44Z</time></trkpt><trkpt lat="44.2452083" lon="11.8629067"><ele>136.0</ele><time>2026-05-01T15:58:10.44Z</time></trkpt><trkpt lat="44.2452133" lon="11.8630117"><ele>135.5</ele><time>2026-05-01T15:58:11.439Z</time></trkpt><trkpt lat="44.2452183" lon="11.8631167"><ele>135.0</ele><time>2026-05-01T15:58:12.439Z</time></trkpt><trkpt lat="44.2452283" lon="11.8632233"><ele>135.0</ele><time>2026-05-01T15:58:13.439Z</time></trkpt><trkpt lat="44.24524" lon="11.8633283"><ele>135.0</ele><time>2026-05-01T15:58:14.44Z</time></trkpt><trkpt lat="44.2452533" lon="11.8634367"><ele>135.0</ele><time>2026-05-01T15:58:15.439Z</time></trkpt><trkpt lat="44.2452717" lon="11.863545"><ele>135.0</ele><time>2026-05-01T15:58:16.442Z</time></trkpt><trkpt lat="44.24529" lon="11.8636567"><ele>135.0</ele><time>2026-05-01T15:58:17.443Z</time></trkpt><trkpt lat="44.245305" lon="11.8637533"><ele>135.0</ele><time>2026-05-01T15:58:18.44Z</time></trkpt><trkpt lat="44.245325" lon="11.8638467"><ele>134.16666666666666</ele><time>2026-05-01T15:58:19.441Z</time></trkpt><trkpt lat="44.24534" lon="11.8639383"><ele>133.33333333333334</ele><time>2026-05-01T15:58:20.44Z</time></trkpt><trkpt lat="44.2453583" lon="11.864035"><ele>132.5</ele><time>2026-05-01T15:58:21.44Z</time></trkpt><trkpt lat="44.2453833" lon="11.8641317"><ele>131.66666666666669</ele><time>2026-05-01T15:58:22.441Z</time></trkpt><trkpt lat="44.245405" lon="11.8642233"><ele>130.83333333333334</ele><time>2026-05-01T15:58:23.44Z</time></trkpt><trkpt lat="44.24544" lon="11.8643917"><ele>130.0</ele><time>2026-05-01T15:58:25.441Z</time></trkpt><trkpt lat="44.2454617" lon="11.864475"><ele>130.2</ele><time>2026-05-01T15:58:26.441Z</time></trkpt><trkpt lat="44.2455117" lon="11.8646167"><ele>130.4</ele><time>2026-05-01T15:58:28.44Z</time></trkpt><trkpt lat="44.2456183" lon="11.8646733"><ele>130.6</ele><time>2026-05-01T15:58:30.441Z</time></trkpt><trkpt lat="44.24573" lon="11.8647167"><ele>130.8</ele><time>2026-05-01T15:58:32.439Z</time></trkpt><trkpt lat="44.2457983" lon="11.8648283"><ele>131.0</ele><time>2026-05-01T15:58:34.44Z</time></trkpt><trkpt lat="44.2458383" lon="11.8649767"><ele>130.4</ele><time>2026-05-01T15:58:36.44Z</time></trkpt><trkpt lat="44.2458483" lon="11.865125"><ele>129.8</ele><time>2026-05-01T15:58:38.441Z</time></trkpt><trkpt lat="44.24585" lon="11.8652683"><ele>129.20000000000002</ele><time>2026-05-01T15:58:40.441Z</time></trkpt><trkpt lat="44.24585" lon="11.865395"><ele>128.6</ele><time>2026-05-01T15:58:42.439Z</time></trkpt><trkpt lat="44.2458533" lon="11.8655233"><ele>128.0</ele><time>2026-05-01T15:58:44.441Z</time></trkpt><trkpt lat="44.245855" lon="11.865655"><ele>127.99999999999999</ele><time>2026-05-01T15:58:46.441Z</time></trkpt><trkpt lat="44.2458517" lon="11.8657717"><ele>128.0</ele><time>2026-05-01T15:58:48.44Z</time></trkpt><trkpt lat="44.2458533" lon="11.8658817"><ele>128.0</ele><time>2026-05-01T15:59:18.441Z</time></trkpt><trkpt lat="44.2458583" lon="11.8659733"><ele>128.0</ele><time>2026-05-01T15:59:21.439Z</time></trkpt><trkpt lat="44.2458667" lon="11.8661"><ele>127.99999999999999</ele><time>2026-05-01T15:59:24.44Z</time></trkpt><trkpt lat="44.2458717" lon="11.866195"><ele>128.0</ele><time>2026-05-01T15:59:26.442Z</time></trkpt><trkpt lat="44.245875" lon="11.8663017"><ele>127.80000000000001</ele><time>2026-05-01T15:59:28.441Z</time></trkpt><trkpt lat="44.24588" lon="11.8664183"><ele>127.60000000000001</ele><time>2026-05-01T15:59:30.441Z</time></trkpt><trkpt lat="44.2458867" lon="11.86655"><ele>127.39999999999999</ele><time>2026-05-01T15:59:32.44Z</time></trkpt><trkpt lat="44.245895" lon="11.8666933"><ele>127.19999999999999</ele><time>2026-05-01T15:59:34.44Z</time></trkpt><trkpt lat="44.245905" lon="11.8668433"><ele>127.0</ele><time>2026-05-01T15:59:36.44Z</time></trkpt><trkpt lat="44.2459133" lon="11.8670017"><ele>126.6</ele><time>2026-05-01T15:59:38.441Z</time></trkpt><trkpt lat="44.2459233" lon="11.86717"><ele>126.19999999999999</ele><time>2026-05-01T15:59:40.44Z</time></trkpt><trkpt lat="44.2459383" lon="11.8673467"><ele>125.8</ele><time>2026-05-01T15:59:42.441Z</time></trkpt><trkpt lat="44.2459483" lon="11.8674417"><ele>125.4</ele><time>2026-05-01T15:59:43.442Z</time></trkpt><trkpt lat="44.2459583" lon="11.8675367"><ele>125.0</ele><time>2026-05-01T15:59:44.44Z</time></trkpt><trkpt lat="44.24597" lon="11.8676367"><ele>124.33333333333333</ele><time>2026-05-01T15:59:45.44Z</time></trkpt><trkpt lat="44.2459783" lon="11.8677383"><ele>123.66666666666666</ele><time>2026-05-01T15:59:46.442Z</time></trkpt><trkpt lat="44.2459883" lon="11.8678433"><ele>123.0</ele><time>2026-05-01T15:59:47.441Z</time></trkpt><trkpt lat="44.2459983" lon="11.86795"><ele>122.33333333333334</ele><time>2026-05-01T15:59:48.439Z</time></trkpt><trkpt lat="44.2460117" lon="11.86806"><ele>121.66666666666667</ele><time>2026-05-01T15:59:49.441Z</time></trkpt><trkpt lat="44.246025" lon="11.86817"><ele>121.0</ele><time>2026-05-01T15:59:50.44Z</time></trkpt><trkpt lat="44.2460383" lon="11.8682833"><ele>121.00000000000001</ele><time>2026-05-01T15:59:51.441Z</time></trkpt><trkpt lat="44.24605" lon="11.868395"><ele>121.0</ele><time>2026-05-01T15:59:52.441Z</time></trkpt><trkpt lat="44.2460617" lon="11.8685117"><ele>121.0</ele><time>2026-05-01T15:59:53.44Z</time></trkpt><trkpt lat="44.2460733" lon="11.86863"><ele>121.0</ele><time>2026-05-01T15:59:54.44Z</time></trkpt><trkpt lat="44.246085" lon="11.8687517"><ele>121.00000000000001</ele><time>2026-05-01T15:59:55.442Z</time></trkpt><trkpt lat="44.2461" lon="11.8688767"><ele>121.0</ele><time>2026-05-01T15:59:56.441Z</time></trkpt><trkpt lat="44.246115" lon="11.8690033"><ele>120.16666666666667</ele><time>2026-05-01T15:59:57.441Z</time></trkpt><trkpt lat="44.2461267" lon="11.8691267"><ele>119.33333333333334</ele><time>2026-05-01T15:59:58.44Z</time></trkpt><trkpt lat="44.2461383" lon="11.86925"><ele>118.5</ele><time>2026-05-01T15:59:59.44Z</time></trkpt><trkpt lat="44.24615" lon="11.86937"><ele>117.66666666666666</ele><time>2026-05-01T16:00:00.441Z</time></trkpt><trkpt lat="44.24616" lon="11.8694883"><ele>116.83333333333333</ele><time>2026-05-01T16:00:01.441Z</time></trkpt><trkpt lat="44.24617" lon="11.86961"><ele>116.0</ele><time>2026-05-01T16:00:02.44Z</time></trkpt><trkpt lat="44.2461783" lon="11.8697283"><ele>114.99999999999999</ele><time>2026-05-01T16:00:03.439Z</time></trkpt><trkpt lat="44.2461867" lon="11.8698467"><ele>114.0</ele><time>2026-05-01T16:00:04.439Z</time></trkpt><trkpt lat="44.2461967" lon="11.8699633"><ele>113.0</ele><time>2026-05-01T16:00:05.441Z</time></trkpt><trkpt lat="44.24621" lon="11.8700733"><ele>112.0</ele><time>2026-05-01T16:00:06.44Z</time></trkpt><trkpt lat="44.2462383" lon="11.8701867"><ele>110.99999999999999</ele><time>2026-05-01T16:00:07.442Z</time></trkpt><trkpt lat="44.2462717" lon="11.870295"><ele>110.0</ele><time>2026-05-01T16:00:08.441Z</time></trkpt><trkpt lat="44.2463083" lon="11.8703967"><ele>109.99999999999999</ele><time>2026-05-01T16:00:09.44Z</time></trkpt><trkpt lat="44.2463483" lon="11.8704983"><ele>110.0</ele><time>2026-05-01T16:00:10.441Z</time></trkpt><trkpt lat="44.2463883" lon="11.8705983"><ele>110.0</ele><time>2026-05-01T16:00:11.44Z</time></trkpt><trkpt lat="44.246425" lon="11.8706983"><ele>110.0</ele><time>2026-05-01T16:00:12.44Z</time></trkpt><trkpt lat="44.2464617" lon="11.8707983"><ele>109.99999999999999</ele><time>2026-05-01T16:00:13.442Z</time></trkpt><trkpt lat="44.2465" lon="11.8708983"><ele>110.0</ele><time>2026-05-01T16:00:14.441Z</time></trkpt><trkpt lat="44.2465333" lon="11.8709983"><ele>109.66666666666666</ele><time>2026-05-01T16:00:15.44Z</time></trkpt><trkpt lat="44.246565" lon="11.8710983"><ele>109.33333333333333</ele><time>2026-05-01T16:00:16.44Z</time></trkpt><trkpt lat="44.2465983" lon="11.8711983"><ele>109.0</ele><time>2026-05-01T16:00:17.441Z</time></trkpt><trkpt lat="44.2466317" lon="11.8712967"><ele>108.66666666666666</ele><time>2026-05-01T16:00:18.441Z</time></trkpt><trkpt lat="44.2466633" lon="11.8713933"><ele>108.33333333333333</ele><time>2026-05-01T16:00:19.442Z</time></trkpt><trkpt lat="44.2466933" lon="11.8714917"><ele>108.0</ele><time>2026-05-01T16:00:20.44Z</time></trkpt><trkpt lat="44.2467267" lon="11.8715883"><ele>108.0</ele><time>2026-05-01T16:00:21.441Z</time></trkpt><trkpt lat="44.2467617" lon="11.8716817"><ele>108.0</ele><time>2026-05-01T16:00:22.441Z</time></trkpt><trkpt lat="44.2467983" lon="11.8717783"><ele>108.0</ele><time>2026-05-01T16:00:23.439Z</time></trkpt><trkpt lat="44.2468317" lon="11.8718783"><ele>108.0</ele><time>2026-05-01T16:00:24.44Z</time></trkpt><trkpt lat="44.2468633" lon="11.8719817"><ele>108.0</ele><time>2026-05-01T16:00:25.442Z</time></trkpt><trkpt lat="44.2468933" lon="11.8720817"><ele>108.0</ele><time>2026-05-01T16:00:26.44Z</time></trkpt><trkpt lat="44.246925" lon="11.87218"><ele>107.5</ele><time>2026-05-01T16:00:27.441Z</time></trkpt><trkpt lat="44.24696" lon="11.87228"><ele>107.0</ele><time>2026-05-01T16:00:28.441Z</time></trkpt><trkpt lat="44.2469917" lon="11.8723767"><ele>106.5</ele><time>2026-05-01T16:00:29.44Z</time></trkpt><trkpt lat="44.2470233" lon="11.872475"><ele>106.0</ele><time>2026-05-01T16:00:30.439Z</time></trkpt><trkpt lat="44.2470533" lon="11.8725733"><ele>105.5</ele><time>2026-05-01T16:00:31.441Z</time></trkpt><trkpt lat="44.2470867" lon="11.8726717"><ele>105.0</ele><time>2026-05-01T16:00:32.441Z</time></trkpt><trkpt lat="44.2471183" lon="11.8727733"><ele>105.16666666666667</ele><time>2026-05-01T16:00:33.44Z</time></trkpt><trkpt lat="44.2471517" lon="11.8728733"><ele>105.33333333333334</ele><time>2026-05-01T16:00:34.439Z</time></trkpt><trkpt lat="44.2471833" lon="11.8729717"><ele>105.5</ele><time>2026-05-01T16:00:35.439Z</time></trkpt><trkpt lat="44.247215" lon="11.8730667"><ele>105.66666666666667</ele><time>2026-05-01T16:00:36.441Z</time></trkpt><trkpt lat="44.2472433" lon="11.8731633"><ele>105.83333333333334</ele><time>2026-05-01T16:00:37.441Z</time></trkpt><trkpt lat="44.2472717" lon="11.87326"><ele>106.0</ele><time>2026-05-01T16:00:38.44Z</time></trkpt><trkpt lat="44.2473017" lon="11.8733567"><ele>105.85714285714286</ele><time>2026-05-01T16:00:39.441Z</time></trkpt><trkpt lat="44.2473317" lon="11.8734533"><ele>105.71428571428571</ele><time>2026-05-01T16:00:40.441Z</time></trkpt><trkpt lat="44.2473617" lon="11.87355"><ele>105.57142857142857</ele><time>2026-05-01T16:00:41.44Z</time></trkpt><trkpt lat="44.24739" lon="11.8736433"><ele>105.42857142857143</ele><time>2026-05-01T16:00:42.441Z</time></trkpt><trkpt lat="44.24742" lon="11.8737333"><ele>105.28571428571428</ele><time>2026-05-01T16:00:43.441Z</time></trkpt><trkpt lat="44.2474533" lon="11.873825"><ele>105.14285714285714</ele><time>2026-05-01T16:00:44.439Z</time></trkpt><trkpt lat="44.2474783" lon="11.8739133"><ele>105.0</ele><time>2026-05-01T16:00:45.439Z</time></trkpt><trkpt lat="44.247505" lon="11.8740017"><ele>105.0</ele><time>2026-05-01T16:00:46.443Z</time></trkpt><trkpt lat="44.2475317" lon="11.8740867"><ele>105.0</ele><time>2026-05-01T16:00:47.44Z</time></trkpt><trkpt lat="44.2475583" lon="11.8741733"><ele>105.0</ele><time>2026-05-01T16:00:48.439Z</time></trkpt><trkpt lat="44.247595" lon="11.8743183"><ele>105.0</ele><time>2026-05-01T16:00:50.439Z</time></trkpt><trkpt lat="44.2476167" lon="11.8744183"><ele>105.0</ele><time>2026-05-01T16:00:52.44Z</time></trkpt><trkpt lat="44.24757" lon="11.8745417"><ele>105.0</ele><time>2026-05-01T16:00:55.441Z</time></trkpt><trkpt lat="44.247545" lon="11.8746517"><ele>104.57142857142857</ele><time>2026-05-01T16:00:57.44Z</time></trkpt><trkpt lat="44.24753" lon="11.8747433"><ele>104.14285714285714</ele><time>2026-05-01T16:00:59.44Z</time></trkpt><trkpt lat="44.2475133" lon="11.8748383"><ele>103.71428571428572</ele><time>2026-05-01T16:01:01.439Z</time></trkpt><trkpt lat="44.2475" lon="11.8749367"><ele>103.28571428571428</ele><time>2026-05-01T16:01:03.44Z</time></trkpt><trkpt lat="44.247495" lon="11.875035"><ele>102.85714285714286</ele><time>2026-05-01T16:01:05.439Z</time></trkpt><trkpt lat="44.2474867" lon="11.8751333"><ele>102.42857142857143</ele><time>2026-05-01T16:01:07.441Z</time></trkpt><trkpt lat="44.2474617" lon="11.8752333"><ele>102.0</ele><time>2026-05-01T16:01:09.44Z</time></trkpt><trkpt lat="44.2474367" lon="11.875315"><ele>101.5</ele><time>2026-05-01T16:01:11.44Z</time></trkpt><trkpt lat="44.2474283" lon="11.8754383"><ele>101.0</ele><time>2026-05-01T16:01:14.44Z</time></trkpt><trkpt lat="44.2474183" lon="11.8755267"><ele>100.5</ele><time>2026-05-01T16:01:16.442Z</time></trkpt><trkpt lat="44.2473967" lon="11.8756567"><ele>100.0</ele><time>2026-05-01T16:01:19.44Z</time></trkpt><trkpt lat="44.247385" lon="11.87576"><ele>99.5</ele><time>2026-05-01T16:01:21.44Z</time></trkpt><trkpt lat="44.2473767" lon="11.8758583"><ele>99.0</ele><time>2026-05-01T16:01:23.441Z</time></trkpt><trkpt lat="44.24737" lon="11.87595"><ele>99.0</ele><time>2026-05-01T16:01:25.441Z</time></trkpt><trkpt lat="44.2473633" lon="11.8760433"><ele>99.0</ele><time>2026-05-01T16:01:27.44Z</time></trkpt><trkpt lat="44.24735" lon="11.87614"><ele>99.0</ele><time>2026-05-01T16:01:29.44Z</time></trkpt><trkpt lat="44.247335" lon="11.87624"><ele>99.0</ele><time>2026-05-01T16:01:31.441Z</time></trkpt><trkpt lat="44.2473167" lon="11.8763417"><ele>99.0</ele><time>2026-05-01T16:01:33.441Z</time></trkpt><trkpt lat="44.2473" lon="11.8764483"><ele>99.0</ele><time>2026-05-01T16:01:35.44Z</time></trkpt><trkpt lat="44.2472917" lon="11.876545"><ele>99.0</ele><time>2026-05-01T16:01:37.441Z</time></trkpt><trkpt lat="44.2472817" lon="11.87665"><ele>96.33333333333333</ele><time>2026-05-01T16:01:39.444Z</time></trkpt><trkpt lat="44.2472617" lon="11.876775"><ele>93.66666666666667</ele><time>2026-05-01T16:01:41.439Z</time></trkpt><trkpt lat="44.2472483" lon="11.8769"><ele>91.0</ele><time>2026-05-01T16:01:43.441Z</time></trkpt><trkpt lat="44.2472317" lon="11.8770117"><ele>88.33333333333334</ele><time>2026-05-01T16:01:45.44Z</time></trkpt><trkpt lat="44.247215" lon="11.8771233"><ele>85.66666666666667</ele><time>2026-05-01T16:01:47.439Z</time></trkpt><trkpt lat="44.2472033" lon="11.8772233"><ele>83.0</ele><time>2026-05-01T16:01:49.441Z</time></trkpt><trkpt lat="44.2471983" lon="11.87734"><ele>83.0</ele><time>2026-05-01T16:01:51.443Z</time></trkpt><trkpt lat="44.2471917" lon="11.8774317"><ele>83.0</ele><time>2026-05-01T16:01:53.439Z</time></trkpt><trkpt lat="44.247185" lon="11.877525"><ele>83.0</ele><time>2026-05-01T16:01:55.44Z</time></trkpt><trkpt lat="44.2471683" lon="11.8776317"><ele>83.0</ele><time>2026-05-01T16:01:57.44Z</time></trkpt><trkpt lat="44.2471567" lon="11.8777317"><ele>83.0</ele><time>2026-05-01T16:01:59.44Z</time></trkpt><trkpt lat="44.24714" lon="11.877855"><ele>83.0</ele><time>2026-05-01T16:02:01.439Z</time></trkpt><trkpt lat="44.2471317" lon="11.877955"><ele>83.0</ele><time>2026-05-01T16:02:03.44Z</time></trkpt><trkpt lat="44.2471183" lon="11.878045"><ele>82.66666666666667</ele><time>2026-05-01T16:02:06.44Z</time></trkpt><trkpt lat="44.2471117" lon="11.8781933"><ele>82.33333333333334</ele><time>2026-05-01T16:02:18.441Z</time></trkpt><trkpt lat="44.2471033" lon="11.8783117"><ele>82.0</ele><time>2026-05-01T16:02:22.441Z</time></trkpt><trkpt lat="44.24709" lon="11.8784317"><ele>81.66666666666667</ele><time>2026-05-01T16:02:25.441Z</time></trkpt><trkpt lat="44.247085" lon="11.8785417"><ele>81.33333333333333</ele><time>2026-05-01T16:02:28.439Z</time></trkpt><trkpt lat="44.2470683" lon="11.8786283"><ele>81.0</ele><time>2026-05-01T16:02:30.44Z</time></trkpt><trkpt lat="44.24704" lon="11.8787417"><ele>80.85714285714286</ele><time>2026-05-01T16:02:33.439Z</time></trkpt><trkpt lat="44.24702" lon="11.8788317"><ele>80.71428571428571</ele><time>2026-05-01T16:02:35.44Z</time></trkpt><trkpt lat="44.247015" lon="11.878925"><ele>80.57142857142857</ele><time>2026-05-01T16:02:37.441Z</time></trkpt><trkpt lat="44.24701" lon="11.8790217"><ele>80.42857142857143</ele><time>2026-05-01T16:02:39.44Z</time></trkpt><trkpt lat="44.2469867" lon="11.879125"><ele>80.28571428571429</ele><time>2026-05-01T16:02:41.439Z</time></trkpt><trkpt lat="44.24696" lon="11.87922"><ele>80.14285714285714</ele><time>2026-05-01T16:02:43.44Z</time></trkpt><trkpt lat="44.246945" lon="11.8793383"><ele>80.0</ele><time>2026-05-01T16:02:45.44Z</time></trkpt><trkpt lat="44.246915" lon="11.8794567"><ele>80.0</ele><time>2026-05-01T16:02:47.439Z</time></trkpt><trkpt lat="44.24688" lon="11.879575"><ele>80.0</ele><time>2026-05-01T16:02:49.44Z</time></trkpt><trkpt lat="44.2468433" lon="11.8797183"><ele>80.0</ele><time>2026-05-01T16:02:51.443Z</time></trkpt><trkpt lat="44.24681" lon="11.879845"><ele>80.0</ele><time>2026-05-01T16:02:53.443Z</time></trkpt><trkpt lat="44.24678" lon="11.879985"><ele>80.0</ele><time>2026-05-01T16:02:55.441Z</time></trkpt><trkpt lat="44.2467567" lon="11.8801233"><ele>79.8</ele><time>2026-05-01T16:02:57.442Z</time></trkpt><trkpt lat="44.246745" lon="11.8802417"><ele>79.6</ele><time>2026-05-01T16:02:59.441Z</time></trkpt><trkpt lat="44.24673" lon="11.880335"><ele>79.4</ele><time>2026-05-01T16:03:01.443Z</time></trkpt><trkpt lat="44.246735" lon="11.88047"><ele>79.2</ele><time>2026-05-01T16:03:04.442Z</time></trkpt><trkpt lat="44.2467067" lon="11.8806233"><ele>79.0</ele><time>2026-05-01T16:03:06.441Z</time></trkpt><trkpt lat="44.2466833" lon="11.8807967"><ele>79.0</ele><time>2026-05-01T16:03:08.441Z</time></trkpt><trkpt lat="44.2466733" lon="11.8808867"><ele>79.0</ele><time>2026-05-01T16:03:09.442Z</time></trkpt><trkpt lat="44.2466517" lon="11.8810533"><ele>79.0</ele><time>2026-05-01T16:03:11.441Z</time></trkpt><trkpt lat="44.2466367" lon="11.88122"><ele>79.0</ele><time>2026-05-01T16:03:13.442Z</time></trkpt><trkpt lat="44.2466283" lon="11.8813883"><ele>79.0</ele><time>2026-05-01T16:03:15.442Z</time></trkpt><trkpt lat="44.2466333" lon="11.8815533"><ele>79.0</ele><time>2026-05-01T16:03:17.442Z</time></trkpt><trkpt lat="44.24667" lon="11.8817033"><ele>79.0</ele><time>2026-05-01T16:03:19.44Z</time></trkpt><trkpt lat="44.2467217" lon="11.8818533"><ele>79.0</ele><time>2026-05-01T16:03:21.44Z</time></trkpt><trkpt lat="44.2467833" lon="11.8819917"><ele>79.0</ele><time>2026-05-01T16:03:23.44Z</time></trkpt><trkpt lat="44.246835" lon="11.8821283"><ele>78.60000000000001</ele><time>2026-05-01T16:03:25.441Z</time></trkpt><trkpt lat="44.2468917" lon="11.88226"><ele>78.2</ele><time>2026-05-01T16:03:27.44Z</time></trkpt><trkpt lat="44.2469467" lon="11.8823967"><ele>77.80000000000001</ele><time>2026-05-01T16:03:29.439Z</time></trkpt><trkpt lat="44.2469967" lon="11.88253"><ele>77.4</ele><time>2026-05-01T16:03:31.441Z</time></trkpt><trkpt lat="44.2470467" lon="11.8826717"><ele>77.0</ele><time>2026-05-01T16:03:33.44Z</time></trkpt><trkpt lat="44.2470983" lon="11.8828283"><ele>76.0</ele><time>2026-05-01T16:03:35.441Z</time></trkpt><trkpt lat="44.2471367" lon="11.8829967"><ele>75.0</ele><time>2026-05-01T16:03:37.442Z</time></trkpt><trkpt lat="44.247175" lon="11.8831533"><ele>74.0</ele><time>2026-05-01T16:03:39.44Z</time></trkpt><trkpt lat="44.2472133" lon="11.8832917"><ele>73.0</ele><time>2026-05-01T16:03:41.441Z</time></trkpt><trkpt lat="44.247255" lon="11.8834417"><ele>72.0</ele><time>2026-05-01T16:03:43.441Z</time></trkpt><trkpt lat="44.2472967" lon="11.8836033"><ele>71.0</ele><time>2026-05-01T16:03:45.441Z</time></trkpt><trkpt lat="44.2473217" lon="11.8836867"><ele>70.0</ele><time>2026-05-01T16:03:46.441Z</time></trkpt><trkpt lat="44.2473467" lon="11.8837683"><ele>69.0</ele><time>2026-05-01T16:03:47.44Z</time></trkpt><trkpt lat="44.2473683" lon="11.8838533"><ele>68.0</ele><time>2026-05-01T16:03:48.442Z</time></trkpt><trkpt lat="44.2474117" lon="11.88401"><ele>67.0</ele><time>2026-05-01T16:03:50.441Z</time></trkpt><trkpt lat="44.2474333" lon="11.8841317"><ele>67.0</ele><time>2026-05-01T16:03:52.442Z</time></trkpt><trkpt lat="44.2474183" lon="11.88423"><ele>67.0</ele><time>2026-05-01T16:03:56.44Z</time></trkpt><trkpt lat="44.247455" lon="11.88433"><ele>67.0</ele><time>2026-05-01T16:04:00.441Z</time></trkpt><trkpt lat="44.247465" lon="11.8844233"><ele>67.0</ele><time>2026-05-01T16:04:02.441Z</time></trkpt><trkpt lat="44.2474533" lon="11.8845433"><ele>67.0</ele><time>2026-05-01T16:04:04.441Z</time></trkpt><trkpt lat="44.2474483" lon="11.88466"><ele>67.0</ele><time>2026-05-01T16:04:06.44Z</time></trkpt><trkpt lat="44.2474433" lon="11.8847783"><ele>66.4</ele><time>2026-05-01T16:04:08.442Z</time></trkpt><trkpt lat="44.247435" lon="11.8848983"><ele>65.80000000000001</ele><time>2026-05-01T16:04:10.441Z</time></trkpt><trkpt lat="44.2474183" lon="11.8850233"><ele>65.2</ele><time>2026-05-01T16:04:12.441Z</time></trkpt><trkpt lat="44.2473983" lon="11.885155"><ele>64.60000000000001</ele><time>2026-05-01T16:04:14.442Z</time></trkpt><trkpt lat="44.2473817" lon="11.8852917"><ele>64.0</ele><time>2026-05-01T16:04:16.442Z</time></trkpt><trkpt lat="44.2473617" lon="11.88543"><ele>64.0</ele><time>2026-05-01T16:04:18.441Z</time></trkpt><trkpt lat="44.2473417" lon="11.88557"><ele>64.0</ele><time>2026-05-01T16:04:20.441Z</time></trkpt><trkpt lat="44.2473217" lon="11.8857083"><ele>64.0</ele><time>2026-05-01T16:04:22.441Z</time></trkpt><trkpt lat="44.2473" lon="11.885845"><ele>64.0</ele><time>2026-05-01T16:04:24.44Z</time></trkpt><trkpt lat="44.2472733" lon="11.8859767"><ele>64.0</ele><time>2026-05-01T16:04:26.44Z</time></trkpt><trkpt lat="44.24724" lon="11.8861017"><ele>63.6</ele><time>2026-05-01T16:04:28.442Z</time></trkpt><trkpt lat="44.2471867" lon="11.886225"><ele>63.2</ele><time>2026-05-01T16:04:30.44Z</time></trkpt><trkpt lat="44.2471167" lon="11.886325"><ele>62.800000000000004</ele><time>2026-05-01T16:04:32.442Z</time></trkpt><trkpt lat="44.24703" lon="11.8864117"><ele>62.400000000000006</ele><time>2026-05-01T16:04:34.441Z</time></trkpt><trkpt lat="44.2469433" lon="11.88651"><ele>62.0</ele><time>2026-05-01T16:04:36.441Z</time></trkpt><trkpt lat="44.2468433" lon="11.8866033"><ele>62.00000000000001</ele><time>2026-05-01T16:04:38.44Z</time></trkpt><trkpt lat="44.2467883" lon="11.8866483"><ele>62.0</ele><time>2026-05-01T16:04:39.442Z</time></trkpt><trkpt lat="44.2466767" lon="11.88673"><ele>62.0</ele><time>2026-05-01T16:04:41.439Z</time></trkpt><trkpt lat="44.2466133" lon="11.8867717"><ele>62.0</ele><time>2026-05-01T16:04:42.441Z</time></trkpt><trkpt lat="44.2465467" lon="11.8868133"><ele>62.00000000000001</ele><time>2026-05-01T16:04:43.441Z</time></trkpt><trkpt lat="44.2464833" lon="11.8868583"><ele>62.0</ele><time>2026-05-01T16:04:44.442Z</time></trkpt><trkpt lat="44.246425" lon="11.8869083"><ele>60.50000000000001</ele><time>2026-05-01T16:04:45.441Z</time></trkpt><trkpt lat="44.2463683" lon="11.8869667"><ele>59.0</ele><time>2026-05-01T16:04:46.443Z</time></trkpt><trkpt lat="44.2463083" lon="11.8870283"><ele>57.5</ele><time>2026-05-01T16:04:47.443Z</time></trkpt><trkpt lat="44.2462533" lon="11.8871017"><ele>56.0</ele><time>2026-05-01T16:04:48.443Z</time></trkpt><trkpt lat="44.2461967" lon="11.88718"><ele>54.50000000000001</ele><time>2026-05-01T16:04:49.443Z</time></trkpt><trkpt lat="44.2461417" lon="11.887265"><ele>53.0</ele><time>2026-05-01T16:04:50.443Z</time></trkpt><trkpt lat="44.24609" lon="11.8873533"><ele>53.00000000000001</ele><time>2026-05-01T16:04:51.443Z</time></trkpt><trkpt lat="44.246045" lon="11.8874433"><ele>53.0</ele><time>2026-05-01T16:04:52.443Z</time></trkpt><trkpt lat="44.2460017" lon="11.8875367"><ele>53.0</ele><time>2026-05-01T16:04:53.44Z</time></trkpt><trkpt lat="44.2459583" lon="11.88763"><ele>53.0</ele><time>2026-05-01T16:04:54.441Z</time></trkpt><trkpt lat="44.2459167" lon="11.8877283"><ele>53.00000000000001</ele><time>2026-05-01T16:04:55.442Z</time></trkpt><trkpt lat="44.2458733" lon="11.887825"><ele>53.0</ele><time>2026-05-01T16:04:56.441Z</time></trkpt><trkpt lat="44.2458267" lon="11.8879167"><ele>52.333333333333336</ele><time>2026-05-01T16:04:57.44Z</time></trkpt><trkpt lat="44.2457667" lon="11.8879917"><ele>51.66666666666667</ele><time>2026-05-01T16:04:58.442Z</time></trkpt><trkpt lat="44.2456983" lon="11.888045"><ele>51.0</ele><time>2026-05-01T16:04:59.442Z</time></trkpt><trkpt lat="44.24562" lon="11.8880733"><ele>50.33333333333333</ele><time>2026-05-01T16:05:00.442Z</time></trkpt><trkpt lat="44.2455433" lon="11.888085"><ele>49.666666666666664</ele><time>2026-05-01T16:05:01.443Z</time></trkpt><trkpt lat="44.2454667" lon="11.8880767"><ele>49.0</ele><time>2026-05-01T16:05:02.442Z</time></trkpt><trkpt lat="44.2453967" lon="11.888055"><ele>48.99999999999999</ele><time>2026-05-01T16:05:03.442Z</time></trkpt><trkpt lat="44.2453317" lon="11.88802"><ele>49.0</ele><time>2026-05-01T16:05:04.442Z</time></trkpt><trkpt lat="44.24527" lon="11.8879867"><ele>49.0</ele><time>2026-05-01T16:05:05.441Z</time></trkpt><trkpt lat="44.2452117" lon="11.8879483"><ele>49.0</ele><time>2026-05-01T16:05:06.442Z</time></trkpt><trkpt lat="44.245155" lon="11.8879067"><ele>48.99999999999999</ele><time>2026-05-01T16:05:07.442Z</time></trkpt><trkpt lat="44.245055" lon="11.8878267"><ele>49.0</ele><time>2026-05-01T16:05:09.442Z</time></trkpt><trkpt lat="44.2449633" lon="11.8877417"><ele>49.0</ele><time>2026-05-01T16:05:11.442Z</time></trkpt><trkpt lat="44.244875" lon="11.88765"><ele>49.0</ele><time>2026-05-01T16:05:13.442Z</time></trkpt><trkpt lat="44.2447917" lon="11.887555"><ele>49.0</ele><time>2026-05-01T16:05:15.442Z</time></trkpt><trkpt lat="44.2447117" lon="11.8874533"><ele>49.0</ele><time>2026-05-01T16:05:17.442Z</time></trkpt><trkpt lat="44.2446367" lon="11.887355"><ele>49.0</ele><time>2026-05-01T16:05:19.442Z</time></trkpt><trkpt lat="44.2445717" lon="11.8872533"><ele>49.2</ele><time>2026-05-01T16:05:21.441Z</time></trkpt><trkpt lat="44.24451" lon="11.887155"><ele>49.400000000000006</ele><time>2026-05-01T16:05:23.441Z</time></trkpt><trkpt lat="44.244445" lon="11.8870583"><ele>49.6</ele><time>2026-05-01T16:05:25.441Z</time></trkpt><trkpt lat="44.2443783" lon="11.886965"><ele>49.8</ele><time>2026-05-01T16:05:27.442Z</time></trkpt><trkpt lat="44.244315" lon="11.8868717"><ele>50.0</ele><time>2026-05-01T16:05:29.441Z</time></trkpt><trkpt lat="44.24425" lon="11.8867817"><ele>50.16666666666667</ele><time>2026-05-01T16:05:31.442Z</time></trkpt><trkpt lat="44.2441883" lon="11.8866983"><ele>50.333333333333336</ele><time>2026-05-01T16:05:33.442Z</time></trkpt><trkpt lat="44.2441283" lon="11.8866083"><ele>50.5</ele><time>2026-05-01T16:05:35.441Z</time></trkpt><trkpt lat="44.2440667" lon="11.8865283"><ele>50.66666666666667</ele><time>2026-05-01T16:05:37.441Z</time></trkpt><trkpt lat="44.2440067" lon="11.8864517"><ele>50.833333333333336</ele><time>2026-05-01T16:05:39.441Z</time></trkpt><trkpt lat="44.243945" lon="11.8863683"><ele>51.0</ele><time>2026-05-01T16:05:41.44Z</time></trkpt><trkpt lat="44.2438833" lon="11.8862783"><ele>50.4</ele><time>2026-05-01T16:05:43.442Z</time></trkpt><trkpt lat="44.2438117" lon="11.8861883"><ele>49.8</ele><time>2026-05-01T16:05:45.443Z</time></trkpt><trkpt lat="44.2437333" lon="11.8861033"><ele>49.199999999999996</ele><time>2026-05-01T16:05:47.443Z</time></trkpt><trkpt lat="44.2436533" lon="11.8860017"><ele>48.599999999999994</ele><time>2026-05-01T16:05:49.442Z</time></trkpt><trkpt lat="44.2435667" lon="11.8859017"><ele>48.0</ele><time>2026-05-01T16:05:51.441Z</time></trkpt><trkpt lat="44.24347" lon="11.885815"><ele>48.0</ele><time>2026-05-01T16:05:53.44Z</time></trkpt><trkpt lat="44.2433717" lon="11.885755"><ele>48.0</ele><time>2026-05-01T16:05:55.442Z</time></trkpt><trkpt lat="44.2432717" lon="11.8857567"><ele>48.0</ele><time>2026-05-01T16:05:57.441Z</time></trkpt><trkpt lat="44.2431867" lon="11.885825"><ele>48.0</ele><time>2026-05-01T16:05:59.44Z</time></trkpt><trkpt lat="44.2431117" lon="11.8859133"><ele>48.0</ele><time>2026-05-01T16:06:01.44Z</time></trkpt><trkpt lat="44.24304" lon="11.886005"><ele>48.0</ele><time>2026-05-01T16:06:03.441Z</time></trkpt><trkpt lat="44.242965" lon="11.8860933"><ele>48.0</ele><time>2026-05-01T16:06:05.439Z</time></trkpt><trkpt lat="44.242885" lon="11.8861783"><ele>48.0</ele><time>2026-05-01T16:06:07.441Z</time></trkpt><trkpt lat="44.2428067" lon="11.8862617"><ele>48.0</ele><time>2026-05-01T16:06:09.441Z</time></trkpt><trkpt lat="44.242725" lon="11.8863383"><ele>48.0</ele><time>2026-05-01T16:06:11.439Z</time></trkpt><trkpt lat="44.2426467" lon="11.886405"><ele>48.0</ele><time>2026-05-01T16:06:13.441Z</time></trkpt><trkpt lat="44.2425667" lon="11.8864683"><ele>48.0</ele><time>2026-05-01T16:06:15.441Z</time></trkpt><trkpt lat="44.2424917" lon="11.8865233"><ele>48.0</ele><time>2026-05-01T16:06:17.443Z</time></trkpt><trkpt lat="44.2424183" lon="11.88658"><ele>48.0</ele><time>2026-05-01T16:06:19.444Z</time></trkpt><trkpt lat="44.24234" lon="11.88663"><ele>48.0</ele><time>2026-05-01T16:06:21.443Z</time></trkpt><trkpt lat="44.242265" lon="11.8866733"><ele>48.0</ele><time>2026-05-01T16:06:23.443Z</time></trkpt><trkpt lat="44.2421883" lon="11.886715"><ele>47.99999999999999</ele><time>2026-05-01T16:06:25.441Z</time></trkpt><trkpt lat="44.2421183" lon="11.8867367"><ele>48.0</ele><time>2026-05-01T16:06:27.44Z</time></trkpt><trkpt lat="44.2420533" lon="11.88674"><ele>48.0</ele><time>2026-05-01T16:06:29.44Z</time></trkpt><trkpt lat="44.2419933" lon="11.886705"><ele>48.0</ele><time>2026-05-01T16:06:31.441Z</time></trkpt><trkpt lat="44.2419367" lon="11.886645"><ele>48.0</ele><time>2026-05-01T16:06:33.441Z</time></trkpt><trkpt lat="44.24187" lon="11.8865967"><ele>47.99999999999999</ele><time>2026-05-01T16:06:35.44Z</time></trkpt><trkpt lat="44.2418083" lon="11.88654"><ele>48.0</ele><time>2026-05-01T16:06:37.44Z</time></trkpt><trkpt lat="44.24175" lon="11.8864983"><ele>48.0</ele><time>2026-05-01T16:06:39.44Z</time></trkpt><trkpt lat="44.2416867" lon="11.8865117"><ele>48.0</ele><time>2026-05-01T16:06:41.44Z</time></trkpt><trkpt lat="44.241625" lon="11.88658"><ele>48.0</ele><time>2026-05-01T16:06:43.442Z</time></trkpt><trkpt lat="44.2415583" lon="11.88666"><ele>48.0</ele><time>2026-05-01T16:06:45.44Z</time></trkpt><trkpt lat="44.2414933" lon="11.886755"><ele>48.0</ele><time>2026-05-01T16:06:47.443Z</time></trkpt><trkpt lat="44.2414417" lon="11.88687"><ele>48.0</ele><time>2026-05-01T16:06:49.443Z</time></trkpt><trkpt lat="44.241415" lon="11.8869967"><ele>48.333333333333336</ele><time>2026-05-01T16:06:51.443Z</time></trkpt><trkpt lat="44.2413967" lon="11.8871183"><ele>48.66666666666667</ele><time>2026-05-01T16:06:53.442Z</time></trkpt><trkpt lat="44.2413867" lon="11.8872417"><ele>49.0</ele><time>2026-05-01T16:06:55.439Z</time></trkpt><trkpt lat="44.241375" lon="11.8873633"><ele>49.333333333333336</ele><time>2026-05-01T16:06:57.439Z</time></trkpt><trkpt lat="44.24137" lon="11.8874883"><ele>49.66666666666667</ele><time>2026-05-01T16:06:59.44Z</time></trkpt><trkpt lat="44.2413683" lon="11.8876117"><ele>50.0</ele><time>2026-05-01T16:07:01.441Z</time></trkpt><trkpt lat="44.24135" lon="11.8877333"><ele>50.00000000000001</ele><time>2026-05-01T16:07:03.44Z</time></trkpt><trkpt lat="44.2412867" lon="11.8878083"><ele>50.0</ele><time>2026-05-01T16:07:05.44Z</time></trkpt><trkpt lat="44.24121" lon="11.887825"><ele>50.0</ele><time>2026-05-01T16:07:07.441Z</time></trkpt><trkpt lat="44.2411383" lon="11.8878317"><ele>50.0</ele><time>2026-05-01T16:07:09.44Z</time></trkpt><trkpt lat="44.241065" lon="11.887835"><ele>50.0</ele><time>2026-05-01T16:07:11.441Z</time></trkpt><trkpt lat="44.2409967" lon="11.887845"><ele>50.00000000000001</ele><time>2026-05-01T16:07:13.441Z</time></trkpt><trkpt lat="44.2409317" lon="11.8878683"><ele>50.0</ele><time>2026-05-01T16:07:15.44Z</time></trkpt><trkpt lat="44.2408483" lon="11.8879267"><ele>50.00000000000001</ele><time>2026-05-01T16:07:18.44Z</time></trkpt><trkpt lat="44.2407967" lon="11.8879817"><ele>50.0</ele><time>2026-05-01T16:07:20.443Z</time></trkpt><trkpt lat="44.2407467" lon="11.8880367"><ele>50.0</ele><time>2026-05-01T16:07:22.443Z</time></trkpt><trkpt lat="44.2406833" lon="11.8881117"><ele>50.0</ele><time>2026-05-01T16:07:26.442Z</time></trkpt><trkpt lat="44.2406283" lon="11.8881833"><ele>50.0</ele><time>2026-05-01T16:07:30.44Z</time></trkpt><trkpt lat="44.2405567" lon="11.888255"><ele>50.00000000000001</ele><time>2026-05-01T16:07:34.441Z</time></trkpt><trkpt lat="44.2404917" lon="11.8883033"><ele>50.0</ele><time>2026-05-01T16:07:37.442Z</time></trkpt><trkpt lat="44.2404317" lon="11.8883617"><ele>50.142857142857146</ele><time>2026-05-01T16:07:40.44Z</time></trkpt><trkpt lat="44.240375" lon="11.888415"><ele>50.285714285714285</ele><time>2026-05-01T16:07:43.44Z</time></trkpt><trkpt lat="44.240315" lon="11.8884683"><ele>50.42857142857143</ele><time>2026-05-01T16:07:46.44Z</time></trkpt><trkpt lat="44.2402567" lon="11.88853"><ele>50.57142857142857</ele><time>2026-05-01T16:07:49.442Z</time></trkpt><trkpt lat="44.2401933" lon="11.888575"><ele>50.714285714285715</ele><time>2026-05-01T16:07:52.443Z</time></trkpt><trkpt lat="44.2401267" lon="11.8886133"><ele>50.85714285714286</ele><time>2026-05-01T16:07:55.441Z</time></trkpt><trkpt lat="44.2400583" lon="11.8886583"><ele>51.0</ele><time>2026-05-01T16:07:58.442Z</time></trkpt><trkpt lat="44.2399983" lon="11.8886883"><ele>51.0</ele><time>2026-05-01T16:08:01.44Z</time></trkpt><trkpt lat="44.2399367" lon="11.8887267"><ele>51.0</ele><time>2026-05-01T16:08:04.441Z</time></trkpt><trkpt lat="44.2398717" lon="11.8887567"><ele>51.0</ele><time>2026-05-01T16:08:07.441Z</time></trkpt><trkpt lat="44.2398083" lon="11.8887783"><ele>51.0</ele><time>2026-05-01T16:08:10.441Z</time></trkpt><trkpt lat="44.239725" lon="11.888795"><ele>51.0</ele><time>2026-05-01T16:08:13.44Z</time></trkpt><trkpt lat="44.239645" lon="11.888805"><ele>51.0</ele><time>2026-05-01T16:08:16.443Z</time></trkpt><trkpt lat="44.23956" lon="11.8887817"><ele>52.142857142857146</ele><time>2026-05-01T16:08:19.443Z</time></trkpt><trkpt lat="44.23947" lon="11.8887517"><ele>53.28571428571429</ele><time>2026-05-01T16:08:22.44Z</time></trkpt><trkpt lat="44.2394033" lon="11.8887233"><ele>54.42857142857143</ele><time>2026-05-01T16:08:24.44Z</time></trkpt><trkpt lat="44.2393417" lon="11.888685"><ele>55.57142857142857</ele><time>2026-05-01T16:08:26.441Z</time></trkpt><trkpt lat="44.2392783" lon="11.8886433"><ele>56.714285714285715</ele><time>2026-05-01T16:08:28.441Z</time></trkpt><trkpt lat="44.2392117" lon="11.8886033"><ele>57.857142857142854</ele><time>2026-05-01T16:08:30.441Z</time></trkpt><trkpt lat="44.23915" lon="11.8885417"><ele>59.0</ele><time>2026-05-01T16:08:32.44Z</time></trkpt><trkpt lat="44.2390867" lon="11.8884783"><ele>58.857142857142854</ele><time>2026-05-01T16:08:34.442Z</time></trkpt><trkpt lat="44.239025" lon="11.888425"><ele>58.71428571428572</ele><time>2026-05-01T16:08:36.442Z</time></trkpt><trkpt lat="44.2389717" lon="11.8883617"><ele>58.57142857142858</ele><time>2026-05-01T16:08:38.441Z</time></trkpt><trkpt lat="44.238915" lon="11.88832"><ele>58.42857142857143</ele><time>2026-05-01T16:08:40.44Z</time></trkpt><trkpt lat="44.2388583" lon="11.888265"><ele>58.28571428571429</ele><time>2026-05-01T16:08:42.441Z</time></trkpt><trkpt lat="44.2388033" lon="11.8882117"><ele>58.14285714285715</ele><time>2026-05-01T16:08:44.442Z</time></trkpt><trkpt lat="44.2387533" lon="11.8881567"><ele>58.00000000000001</ele><time>2026-05-01T16:08:46.443Z</time></trkpt><trkpt lat="44.238695" lon="11.8881067"><ele>57.85714285714286</ele><time>2026-05-01T16:08:48.444Z</time></trkpt><trkpt lat="44.2386283" lon="11.8880783"><ele>57.714285714285715</ele><time>2026-05-01T16:08:50.443Z</time></trkpt><trkpt lat="44.2385583" lon="11.8880533"><ele>57.57142857142857</ele><time>2026-05-01T16:08:52.443Z</time></trkpt><trkpt lat="44.23849" lon="11.8880617"><ele>57.42857142857143</ele><time>2026-05-01T16:08:54.443Z</time></trkpt><trkpt lat="44.2384167" lon="11.8880733"><ele>57.28571428571428</ele><time>2026-05-01T16:08:56.441Z</time></trkpt><trkpt lat="44.2383433" lon="11.8880833"><ele>57.14285714285714</ele><time>2026-05-01T16:08:58.44Z</time></trkpt><trkpt lat="44.2382667" lon="11.8880983"><ele>57.0</ele><time>2026-05-01T16:09:00.441Z</time></trkpt><trkpt lat="44.238195" lon="11.8881133"><ele>57.285714285714285</ele><time>2026-05-01T16:09:02.44Z</time></trkpt><trkpt lat="44.2381217" lon="11.8881167"><ele>57.57142857142857</ele><time>2026-05-01T16:09:04.44Z</time></trkpt><trkpt lat="44.2380467" lon="11.8881117"><ele>57.857142857142854</ele><time>2026-05-01T16:09:06.442Z</time></trkpt><trkpt lat="44.237975" lon="11.8881067"><ele>58.14285714285714</ele><time>2026-05-01T16:09:08.441Z</time></trkpt><trkpt lat="44.2379017" lon="11.8880883"><ele>58.42857142857143</ele><time>2026-05-01T16:09:10.44Z</time></trkpt><trkpt lat="44.2378333" lon="11.888055"><ele>58.71428571428571</ele><time>2026-05-01T16:09:12.441Z</time></trkpt><trkpt lat="44.2377617" lon="11.8880167"><ele>59.0</ele><time>2026-05-01T16:09:14.441Z</time></trkpt><trkpt lat="44.2376867" lon="11.8879767"><ele>59.00000000000001</ele><time>2026-05-01T16:09:16.443Z</time></trkpt><trkpt lat="44.23761" lon="11.88793"><ele>59.0</ele><time>2026-05-01T16:09:18.442Z</time></trkpt><trkpt lat="44.2375283" lon="11.88789"><ele>59.0</ele><time>2026-05-01T16:09:20.444Z</time></trkpt><trkpt lat="44.23745" lon="11.887845"><ele>59.0</ele><time>2026-05-01T16:09:22.443Z</time></trkpt><trkpt lat="44.237375" lon="11.8877983"><ele>59.00000000000001</ele><time>2026-05-01T16:09:24.444Z</time></trkpt><trkpt lat="44.2373" lon="11.887755"><ele>59.0</ele><time>2026-05-01T16:09:26.441Z</time></trkpt><trkpt lat="44.2372283" lon="11.8877083"><ele>59.00000000000001</ele><time>2026-05-01T16:09:28.439Z</time></trkpt><trkpt lat="44.2371517" lon="11.8876667"><ele>59.0</ele><time>2026-05-01T16:09:30.442Z</time></trkpt><trkpt lat="44.23708" lon="11.8876183"><ele>59.0</ele><time>2026-05-01T16:09:32.44Z</time></trkpt><trkpt lat="44.2369967" lon="11.8875767"><ele>59.0</ele><time>2026-05-01T16:09:34.439Z</time></trkpt><trkpt lat="44.236915" lon="11.887535"><ele>59.00000000000001</ele><time>2026-05-01T16:09:36.44Z</time></trkpt><trkpt lat="44.2368317" lon="11.8874883"><ele>59.0</ele><time>2026-05-01T16:09:38.439Z</time></trkpt><trkpt lat="44.23675" lon="11.8874483"><ele>59.00000000000001</ele><time>2026-05-01T16:09:40.44Z</time></trkpt><trkpt lat="44.2366667" lon="11.8874083"><ele>59.0</ele><time>2026-05-01T16:09:42.439Z</time></trkpt><trkpt lat="44.236585" lon="11.8873733"><ele>59.0</ele><time>2026-05-01T16:09:44.439Z</time></trkpt><trkpt lat="44.2365033" lon="11.8873367"><ele>59.0</ele><time>2026-05-01T16:09:46.443Z</time></trkpt><trkpt lat="44.2364233" lon="11.887305"><ele>59.00000000000001</ele><time>2026-05-01T16:09:48.44Z</time></trkpt><trkpt lat="44.2363433" lon="11.88727"><ele>59.0</ele><time>2026-05-01T16:09:50.44Z</time></trkpt><trkpt lat="44.2362617" lon="11.88724"><ele>59.333333333333336</ele><time>2026-05-01T16:09:52.44Z</time></trkpt><trkpt lat="44.2361733" lon="11.8872183"><ele>59.66666666666667</ele><time>2026-05-01T16:09:54.44Z</time></trkpt><trkpt lat="44.23609" lon="11.8872167"><ele>60.0</ele><time>2026-05-01T16:09:56.439Z</time></trkpt><trkpt lat="44.2360083" lon="11.8872283"><ele>60.33333333333333</ele><time>2026-05-01T16:09:58.439Z</time></trkpt><trkpt lat="44.2359283" lon="11.8872517"><ele>60.666666666666664</ele><time>2026-05-01T16:10:00.44Z</time></trkpt><trkpt lat="44.2358533" lon="11.887285"><ele>61.0</ele><time>2026-05-01T16:10:02.44Z</time></trkpt><trkpt lat="44.2357783" lon="11.8873217"><ele>60.99999999999999</ele><time>2026-05-01T16:10:04.445Z</time></trkpt><trkpt lat="44.2357067" lon="11.88735"><ele>61.0</ele><time>2026-05-01T16:10:06.44Z</time></trkpt><trkpt lat="44.2356317" lon="11.887385"><ele>61.0</ele><time>2026-05-01T16:10:08.44Z</time></trkpt><trkpt lat="44.235555" lon="11.8874217"><ele>61.0</ele><time>2026-05-01T16:10:10.44Z</time></trkpt><trkpt lat="44.2354783" lon="11.887475"><ele>60.99999999999999</ele><time>2026-05-01T16:10:12.44Z</time></trkpt><trkpt lat="44.2353983" lon="11.8875333"><ele>61.0</ele><time>2026-05-01T16:10:14.439Z</time></trkpt><trkpt lat="44.2353183" lon="11.8875867"><ele>60.99999999999999</ele><time>2026-05-01T16:10:16.442Z</time></trkpt><trkpt lat="44.23524" lon="11.8876367"><ele>61.0</ele><time>2026-05-01T16:10:18.44Z</time></trkpt><trkpt lat="44.2351633" lon="11.8877"><ele>61.0</ele><time>2026-05-01T16:10:20.44Z</time></trkpt><trkpt lat="44.2350883" lon="11.8877517"><ele>61.0</ele><time>2026-05-01T16:10:22.439Z</time></trkpt><trkpt lat="44.235015" lon="11.8878117"><ele>60.99999999999999</ele><time>2026-05-01T16:10:24.439Z</time></trkpt><trkpt lat="44.2349383" lon="11.887865"><ele>61.0</ele><time>2026-05-01T16:10:26.439Z</time></trkpt><trkpt lat="44.2348717" lon="11.8879317"><ele>60.599999999999994</ele><time>2026-05-01T16:10:28.439Z</time></trkpt><trkpt lat="44.2348017" lon="11.8879967"><ele>60.199999999999996</ele><time>2026-05-01T16:10:30.44Z</time></trkpt><trkpt lat="44.2347267" lon="11.8880667"><ele>59.800000000000004</ele><time>2026-05-01T16:10:32.44Z</time></trkpt><trkpt lat="44.2346483" lon="11.8881567"><ele>59.400000000000006</ele><time>2026-05-01T16:10:34.44Z</time></trkpt><trkpt lat="44.2345717" lon="11.88824"><ele>59.0</ele><time>2026-05-01T16:10:36.44Z</time></trkpt><trkpt lat="44.23449" lon="11.8883133"><ele>59.0</ele><time>2026-05-01T16:10:38.44Z</time></trkpt><trkpt lat="44.2344017" lon="11.8883633"><ele>59.00000000000001</ele><time>2026-05-01T16:10:40.44Z</time></trkpt><trkpt lat="44.2343133" lon="11.8883717"><ele>59.00000000000001</ele><time>2026-05-01T16:10:42.44Z</time></trkpt><trkpt lat="44.2342267" lon="11.8883433"><ele>59.0</ele><time>2026-05-01T16:10:44.439Z</time></trkpt><trkpt lat="44.23414" lon="11.8883033"><ele>59.0</ele><time>2026-05-01T16:10:46.443Z</time></trkpt><trkpt lat="44.2340533" lon="11.8882667"><ele>59.400000000000006</ele><time>2026-05-01T16:10:48.44Z</time></trkpt><trkpt lat="44.233965" lon="11.8882267"><ele>59.800000000000004</ele><time>2026-05-01T16:10:50.439Z</time></trkpt><trkpt lat="44.2338717" lon="11.88823"><ele>60.199999999999996</ele><time>2026-05-01T16:10:52.44Z</time></trkpt><trkpt lat="44.2337967" lon="11.8882883"><ele>60.599999999999994</ele><time>2026-05-01T16:10:54.44Z</time></trkpt><trkpt lat="44.2337417" lon="11.8883933"><ele>61.0</ele><time>2026-05-01T16:10:56.44Z</time></trkpt><trkpt lat="44.2337117" lon="11.8885033"><ele>61.0</ele><time>2026-05-01T16:10:58.44Z</time></trkpt><trkpt lat="44.2336883" lon="11.8886183"><ele>60.99999999999999</ele><time>2026-05-01T16:11:00.44Z</time></trkpt><trkpt lat="44.2336733" lon="11.8887383"><ele>60.99999999999999</ele><time>2026-05-01T16:11:02.44Z</time></trkpt><trkpt lat="44.2336583" lon="11.8888567"><ele>61.0</ele><time>2026-05-01T16:11:04.439Z</time></trkpt><trkpt lat="44.2336367" lon="11.888985"><ele>61.0</ele><time>2026-05-01T16:11:06.44Z</time></trkpt><trkpt lat="44.23362" lon="11.889125"><ele>60.99999999999999</ele><time>2026-05-01T16:11:08.443Z</time></trkpt><trkpt lat="44.233595" lon="11.8892517"><ele>61.0</ele><time>2026-05-01T16:11:10.439Z</time></trkpt><trkpt lat="44.2335783" lon="11.8893667"><ele>61.0</ele><time>2026-05-01T16:11:12.44Z</time></trkpt><trkpt lat="44.2335617" lon="11.8894733"><ele>61.0</ele><time>2026-05-01T16:11:14.439Z</time></trkpt><trkpt lat="44.2335433" lon="11.8895667"><ele>60.99999999999999</ele><time>2026-05-01T16:11:16.443Z</time></trkpt><trkpt lat="44.2335233" lon="11.8896767"><ele>61.0</ele><time>2026-05-01T16:11:18.44Z</time></trkpt><trkpt lat="44.2335" lon="11.8897967"><ele>61.166666666666664</ele><time>2026-05-01T16:11:20.44Z</time></trkpt><trkpt lat="44.23348" lon="11.889915"><ele>61.33333333333333</ele><time>2026-05-01T16:11:22.44Z</time></trkpt><trkpt lat="44.2334583" lon="11.8900233"><ele>61.5</ele><time>2026-05-01T16:11:24.44Z</time></trkpt><trkpt lat="44.2334333" lon="11.8901167"><ele>61.66666666666667</ele><time>2026-05-01T16:11:26.44Z</time></trkpt><trkpt lat="44.2334167" lon="11.8902167"><ele>61.833333333333336</ele><time>2026-05-01T16:11:28.44Z</time></trkpt><trkpt lat="44.2333967" lon="11.89031"><ele>62.0</ele><time>2026-05-01T16:11:30.44Z</time></trkpt><trkpt lat="44.2333767" lon="11.8904067"><ele>62.00000000000001</ele><time>2026-05-01T16:11:32.44Z</time></trkpt><trkpt lat="44.2333583" lon="11.8905033"><ele>62.0</ele><time>2026-05-01T16:11:34.44Z</time></trkpt><trkpt lat="44.2333417" lon="11.8906"><ele>62.0</ele><time>2026-05-01T16:11:36.44Z</time></trkpt><trkpt lat="44.23332" lon="11.8906983"><ele>62.0</ele><time>2026-05-01T16:11:38.439Z</time></trkpt><trkpt lat="44.2333" lon="11.8908033"><ele>62.00000000000001</ele><time>2026-05-01T16:11:40.44Z</time></trkpt><trkpt lat="44.2332783" lon="11.8909133"><ele>62.0</ele><time>2026-05-01T16:11:42.439Z</time></trkpt><trkpt lat="44.2332567" lon="11.8910233"><ele>62.16666666666667</ele><time>2026-05-01T16:11:44.439Z</time></trkpt><trkpt lat="44.233235" lon="11.8911317"><ele>62.333333333333336</ele><time>2026-05-01T16:11:46.441Z</time></trkpt><trkpt lat="44.2332133" lon="11.891245"><ele>62.5</ele><time>2026-05-01T16:11:48.439Z</time></trkpt><trkpt lat="44.233185" lon="11.89136"><ele>62.66666666666667</ele><time>2026-05-01T16:11:50.439Z</time></trkpt><trkpt lat="44.2331633" lon="11.8914783"><ele>62.833333333333336</ele><time>2026-05-01T16:11:52.44Z</time></trkpt><trkpt lat="44.2331467" lon="11.8915967"><ele>63.0</ele><time>2026-05-01T16:11:54.44Z</time></trkpt><trkpt lat="44.2331317" lon="11.891715"><ele>62.833333333333336</ele><time>2026-05-01T16:11:56.439Z</time></trkpt><trkpt lat="44.2331133" lon="11.8918283"><ele>62.66666666666667</ele><time>2026-05-01T16:11:58.44Z</time></trkpt><trkpt lat="44.2330933" lon="11.891945"><ele>62.5</ele><time>2026-05-01T16:12:00.44Z</time></trkpt><trkpt lat="44.23307" lon="11.89206"><ele>62.333333333333336</ele><time>2026-05-01T16:12:02.44Z</time></trkpt><trkpt lat="44.2330517" lon="11.89218"><ele>62.16666666666667</ele><time>2026-05-01T16:12:04.44Z</time></trkpt><trkpt lat="44.23304" lon="11.8923033"><ele>62.0</ele><time>2026-05-01T16:12:06.439Z</time></trkpt><trkpt lat="44.233065" lon="11.89242"><ele>62.00000000000001</ele><time>2026-05-01T16:12:08.439Z</time></trkpt><trkpt lat="44.23312" lon="11.8925083"><ele>62.0</ele><time>2026-05-01T16:12:10.439Z</time></trkpt><trkpt lat="44.233195" lon="11.8925517"><ele>62.0</ele><time>2026-05-01T16:12:12.44Z</time></trkpt><trkpt lat="44.23327" lon="11.892585"><ele>62.0</ele><time>2026-05-01T16:12:14.439Z</time></trkpt><trkpt lat="44.2333533" lon="11.8926117"><ele>62.00000000000001</ele><time>2026-05-01T16:12:16.443Z</time></trkpt><trkpt lat="44.2334383" lon="11.8926383"><ele>62.0</ele><time>2026-05-01T16:12:18.442Z</time></trkpt><trkpt lat="44.2335217" lon="11.89266"><ele>61.400000000000006</ele><time>2026-05-01T16:12:20.44Z</time></trkpt><trkpt lat="44.23361" lon="11.8926867"><ele>60.800000000000004</ele><time>2026-05-01T16:12:22.44Z</time></trkpt><trkpt lat="44.2337017" lon="11.8927167"><ele>60.2</ele><time>2026-05-01T16:12:24.44Z</time></trkpt><trkpt lat="44.233795" lon="11.8927467"><ele>59.6</ele><time>2026-05-01T16:12:26.44Z</time></trkpt><trkpt lat="44.2338933" lon="11.8927733"><ele>59.0</ele><time>2026-05-01T16:12:28.44Z</time></trkpt><trkpt lat="44.2339933" lon="11.8927983"><ele>59.0</ele><time>2026-05-01T16:12:30.439Z</time></trkpt><trkpt lat="44.2340933" lon="11.8928317"><ele>59.00000000000001</ele><time>2026-05-01T16:12:32.44Z</time></trkpt><trkpt lat="44.2341883" lon="11.8928617"><ele>59.00000000000001</ele><time>2026-05-01T16:12:34.44Z</time></trkpt><trkpt lat="44.2342833" lon="11.8928883"><ele>59.0</ele><time>2026-05-01T16:12:36.44Z</time></trkpt><trkpt lat="44.2343733" lon="11.8929183"><ele>59.0</ele><time>2026-05-01T16:12:38.44Z</time></trkpt><trkpt lat="44.23446" lon="11.89295"><ele>59.0</ele><time>2026-05-01T16:12:40.44Z</time></trkpt><trkpt lat="44.234545" lon="11.892985"><ele>59.00000000000001</ele><time>2026-05-01T16:12:42.439Z</time></trkpt><trkpt lat="44.2346183" lon="11.8930767"><ele>59.00000000000001</ele><time>2026-05-01T16:12:44.44Z</time></trkpt><trkpt lat="44.23467" lon="11.8932117"><ele>59.0</ele><time>2026-05-01T16:12:46.442Z</time></trkpt><trkpt lat="44.2346683" lon="11.893365"><ele>59.0</ele><time>2026-05-01T16:12:48.44Z</time></trkpt><trkpt lat="44.2346233" lon="11.8935233"><ele>58.2</ele><time>2026-05-01T16:12:50.441Z</time></trkpt><trkpt lat="44.2345733" lon="11.8936683"><ele>57.400000000000006</ele><time>2026-05-01T16:12:52.441Z</time></trkpt><trkpt lat="44.2345083" lon="11.89381"><ele>56.6</ele><time>2026-05-01T16:12:54.44Z</time></trkpt><trkpt lat="44.23443" lon="11.8939467"><ele>55.8</ele><time>2026-05-01T16:12:56.44Z</time></trkpt><trkpt lat="44.234385" lon="11.8940117"><ele>55.0</ele><time>2026-05-01T16:12:57.44Z</time></trkpt><trkpt lat="44.2343333" lon="11.89408"><ele>54.99999999999999</ele><time>2026-05-01T16:12:58.441Z</time></trkpt><trkpt lat="44.23428" lon="11.8941533"><ele>55.0</ele><time>2026-05-01T16:12:59.44Z</time></trkpt><trkpt lat="44.2342267" lon="11.8942267"><ele>55.0</ele><time>2026-05-01T16:13:00.441Z</time></trkpt><trkpt lat="44.2341717" lon="11.8942967"><ele>55.0</ele><time>2026-05-01T16:13:01.441Z</time></trkpt><trkpt lat="44.23412" lon="11.894365"><ele>54.99999999999999</ele><time>2026-05-01T16:13:02.439Z</time></trkpt><trkpt lat="44.2340733" lon="11.89443"><ele>55.0</ele><time>2026-05-01T16:13:03.441Z</time></trkpt><trkpt lat="44.2339883" lon="11.8945533"><ele>55.166666666666664</ele><time>2026-05-01T16:13:05.44Z</time></trkpt><trkpt lat="44.23391" lon="11.8946633"><ele>55.33333333333333</ele><time>2026-05-01T16:13:07.439Z</time></trkpt><trkpt lat="44.2338433" lon="11.894755"><ele>55.5</ele><time>2026-05-01T16:13:09.439Z</time></trkpt><trkpt lat="44.2337967" lon="11.8948317"><ele>55.66666666666667</ele><time>2026-05-01T16:13:11.439Z</time></trkpt><trkpt lat="44.23374" lon="11.8949133"><ele>55.833333333333336</ele><time>2026-05-01T16:13:14.44Z</time></trkpt><trkpt lat="44.2336733" lon="11.894975"><ele>56.0</ele><time>2026-05-01T16:16:52.439Z</time></trkpt><trkpt lat="44.2337333" lon="11.8950667"><ele>55.66666666666667</ele><time>2026-05-01T16:16:55.439Z</time></trkpt><trkpt lat="44.23379" lon="11.8951433"><ele>55.333333333333336</ele><time>2026-05-01T16:16:57.44Z</time></trkpt><trkpt lat="44.2338317" lon="11.8952267"><ele>55.0</ele><time>2026-05-01T16:16:59.44Z</time></trkpt><trkpt lat="44.233895" lon="11.8953267"><ele>54.66666666666667</ele><time>2026-05-01T16:17:01.44Z</time></trkpt><trkpt lat="44.233955" lon="11.8954183"><ele>54.333333333333336</ele><time>2026-05-01T16:17:03.439Z</time></trkpt><trkpt lat="44.23403" lon="11.8954917"><ele>54.0</ele><time>2026-05-01T16:17:05.439Z</time></trkpt><trkpt lat="44.2341167" lon="11.8955483"><ele>53.6</ele><time>2026-05-01T16:17:07.44Z</time></trkpt><trkpt lat="44.2342067" lon="11.895585"><ele>53.2</ele><time>2026-05-01T16:17:09.439Z</time></trkpt><trkpt lat="44.234305" lon="11.895625"><ele>52.800000000000004</ele><time>2026-05-01T16:17:11.44Z</time></trkpt><trkpt lat="44.23441" lon="11.8956717"><ele>52.400000000000006</ele><time>2026-05-01T16:17:13.44Z</time></trkpt><trkpt lat="44.2345083" lon="11.8957117"><ele>52.0</ele><time>2026-05-01T16:17:15.44Z</time></trkpt><trkpt lat="44.234605" lon="11.895765"><ele>52.0</ele><time>2026-05-01T16:17:17.443Z</time></trkpt><trkpt lat="44.234695" lon="11.8958333"><ele>52.0</ele><time>2026-05-01T16:17:19.44Z</time></trkpt><trkpt lat="44.2347917" lon="11.8959"><ele>52.0</ele><time>2026-05-01T16:17:21.439Z</time></trkpt><trkpt lat="44.234885" lon="11.895975"><ele>52.0</ele><time>2026-05-01T16:17:23.44Z</time></trkpt><trkpt lat="44.234985" lon="11.8960467"><ele>52.0</ele><time>2026-05-01T16:17:25.439Z</time></trkpt><trkpt lat="44.235075" lon="11.8961183"><ele>53.0</ele><time>2026-05-01T16:17:27.439Z</time></trkpt><trkpt lat="44.2351633" lon="11.8961833"><ele>54.0</ele><time>2026-05-01T16:17:29.441Z</time></trkpt><trkpt lat="44.235255" lon="11.8962433"><ele>55.0</ele><time>2026-05-01T16:17:31.441Z</time></trkpt><trkpt lat="44.23535" lon="11.8963133"><ele>56.0</ele><time>2026-05-01T16:17:33.44Z</time></trkpt><trkpt lat="44.235435" lon="11.89638"><ele>57.0</ele><time>2026-05-01T16:17:35.44Z</time></trkpt><trkpt lat="44.2355217" lon="11.89644"><ele>57.0</ele><time>2026-05-01T16:17:37.44Z</time></trkpt><trkpt lat="44.2356" lon="11.8964983"><ele>57.0</ele><time>2026-05-01T16:17:39.44Z</time></trkpt><trkpt lat="44.2356717" lon="11.89654"><ele>57.0</ele><time>2026-05-01T16:17:41.439Z</time></trkpt><trkpt lat="44.2357417" lon="11.896575"><ele>57.0</ele><time>2026-05-01T16:17:43.441Z</time></trkpt><trkpt lat="44.23581" lon="11.8966133"><ele>57.0</ele><time>2026-05-01T16:17:45.444Z</time></trkpt><trkpt lat="44.2358817" lon="11.8966433"><ele>57.0</ele><time>2026-05-01T16:17:47.442Z</time></trkpt><trkpt lat="44.23595" lon="11.8966717"><ele>57.285714285714285</ele><time>2026-05-01T16:17:49.44Z</time></trkpt><trkpt lat="44.236015" lon="11.896685"><ele>57.57142857142857</ele><time>2026-05-01T16:17:51.44Z</time></trkpt><trkpt lat="44.2360783" lon="11.896695"><ele>57.857142857142854</ele><time>2026-05-01T16:17:53.44Z</time></trkpt><trkpt lat="44.23614" lon="11.896715"><ele>58.14285714285714</ele><time>2026-05-01T16:17:55.44Z</time></trkpt><trkpt lat="44.236235" lon="11.896725"><ele>58.42857142857143</ele><time>2026-05-01T16:17:58.44Z</time></trkpt><trkpt lat="44.2362983" lon="11.8967233"><ele>58.71428571428571</ele><time>2026-05-01T16:18:00.439Z</time></trkpt><trkpt lat="44.236365" lon="11.89672"><ele>59.0</ele><time>2026-05-01T16:18:02.44Z</time></trkpt><trkpt lat="44.2364367" lon="11.896715"><ele>59.0</ele><time>2026-05-01T16:18:04.44Z</time></trkpt><trkpt lat="44.236525" lon="11.896725"><ele>59.0</ele><time>2026-05-01T16:18:07.439Z</time></trkpt><trkpt lat="44.23659" lon="11.8967467"><ele>59.0</ele><time>2026-05-01T16:18:10.44Z</time></trkpt><trkpt lat="44.2365783" lon="11.896835"><ele>59.0</ele><time>2026-05-01T16:18:15.439Z</time></trkpt><trkpt lat="44.23653" lon="11.8969033"><ele>59.0</ele><time>2026-05-01T16:18:20.443Z</time></trkpt><trkpt lat="44.23648" lon="11.89696"><ele>59.0</ele><time>2026-05-01T16:18:25.44Z</time></trkpt><trkpt lat="44.2364267" lon="11.897015"><ele>59.0</ele><time>2026-05-01T16:18:30.439Z</time></trkpt><trkpt lat="44.23636" lon="11.8970683"><ele>60.285714285714285</ele><time>2026-05-01T16:18:35.44Z</time></trkpt><trkpt lat="44.2363117" lon="11.8971333"><ele>61.57142857142857</ele><time>2026-05-01T16:18:40.439Z</time></trkpt><trkpt lat="44.2362533" lon="11.8971783"><ele>62.857142857142854</ele><time>2026-05-01T16:18:45.439Z</time></trkpt><trkpt lat="44.2361967" lon="11.8972217"><ele>64.14285714285714</ele><time>2026-05-01T16:18:50.439Z</time></trkpt><trkpt lat="44.2361367" lon="11.89728"><ele>65.42857142857143</ele><time>2026-05-01T16:18:55.439Z</time></trkpt><trkpt lat="44.23608" lon="11.8973483"><ele>66.71428571428571</ele><time>2026-05-01T16:19:01.439Z</time></trkpt><trkpt lat="44.236025" lon="11.897405"><ele>68.0</ele><time>2026-05-01T16:19:06.441Z</time></trkpt><trkpt lat="44.2359717" lon="11.897465"><ele>67.99999999999999</ele><time>2026-05-01T16:19:12.44Z</time></trkpt><trkpt lat="44.235915" lon="11.897525"><ele>68.0</ele><time>2026-05-01T16:19:17.44Z</time></trkpt><trkpt lat="44.23586" lon="11.8975717"><ele>68.0</ele><time>2026-05-01T16:19:22.443Z</time></trkpt><trkpt lat="44.2358" lon="11.8976317"><ele>68.0</ele><time>2026-05-01T16:19:29.44Z</time></trkpt><trkpt lat="44.2357517" lon="11.897695"><ele>68.0</ele><time>2026-05-01T16:19:35.439Z</time></trkpt><trkpt lat="44.23569" lon="11.8977367"><ele>67.99999999999999</ele><time>2026-05-01T16:19:41.44Z</time></trkpt><trkpt lat="44.23563" lon="11.8977933"><ele>68.0</ele><time>2026-05-01T16:19:47.44Z</time></trkpt><trkpt lat="44.2355667" lon="11.8978533"><ele>71.66666666666667</ele><time>2026-05-01T16:19:54.443Z</time></trkpt><trkpt lat="44.2355067" lon="11.89791"><ele>75.33333333333334</ele><time>2026-05-01T16:20:01.439Z</time></trkpt><trkpt lat="44.2354567" lon="11.89797"><ele>79.0</ele><time>2026-05-01T16:20:07.439Z</time></trkpt><trkpt lat="44.2353983" lon="11.8980517"><ele>82.66666666666667</ele><time>2026-05-01T16:20:16.443Z</time></trkpt><trkpt lat="44.2353583" lon="11.8981483"><ele>86.33333333333333</ele><time>2026-05-01T16:20:24.442Z</time></trkpt><trkpt lat="44.2352583" lon="11.8982217"><ele>90.0</ele><time>2026-05-01T16:20:35.441Z</time></trkpt><trkpt lat="44.23519" lon="11.8982383"><ele>90.0</ele><time>2026-05-01T16:20:41.444Z</time></trkpt><trkpt lat="44.235125" lon="11.898275"><ele>90.0</ele><time>2026-05-01T16:20:47.443Z</time></trkpt><trkpt lat="44.23506" lon="11.89827"><ele>90.0</ele><time>2026-05-01T16:20:52.443Z</time></trkpt><trkpt lat="44.2349883" lon="11.89829"><ele>90.0</ele><time>2026-05-01T16:20:58.441Z</time></trkpt><trkpt lat="44.2349217" lon="11.89831"><ele>90.0</ele><time>2026-05-01T16:21:03.44Z</time></trkpt><trkpt lat="44.2348683" lon="11.8983683"><ele>90.0</ele><time>2026-05-01T16:21:09.441Z</time></trkpt><trkpt lat="44.234805" lon="11.8983967"><ele>90.0</ele><time>2026-05-01T16:21:14.44Z</time></trkpt><trkpt lat="44.2347433" lon="11.8984383"><ele>91.0</ele><time>2026-05-01T16:21:19.443Z</time></trkpt><trkpt lat="44.234685" lon="11.89849"><ele>92.0</ele><time>2026-05-01T16:21:24.443Z</time></trkpt><trkpt lat="44.23463" lon="11.8985617"><ele>93.0</ele><time>2026-05-01T16:21:29.442Z</time></trkpt><trkpt lat="44.2345833" lon="11.8986317"><ele>94.0</ele><time>2026-05-01T16:21:33.441Z</time></trkpt><trkpt lat="44.2345267" lon="11.8987017"><ele>95.0</ele><time>2026-05-01T16:21:37.441Z</time></trkpt><trkpt lat="44.2344683" lon="11.898765"><ele>96.0</ele><time>2026-05-01T16:21:41.441Z</time></trkpt><trkpt lat="44.2344133" lon="11.8988133"><ele>97.0</ele><time>2026-05-01T16:21:44.44Z</time></trkpt><trkpt lat="44.2343533" lon="11.8988517"><ele>97.00000000000001</ele><time>2026-05-01T16:21:47.443Z</time></trkpt><trkpt lat="44.234285" lon="11.8989"><ele>97.0</ele><time>2026-05-01T16:21:50.44Z</time></trkpt><trkpt lat="44.2342233" lon="11.89896"><ele>97.0</ele><time>2026-05-01T16:21:53.442Z</time></trkpt><trkpt lat="44.2341617" lon="11.8990167"><ele>97.0</ele><time>2026-05-01T16:21:56.44Z</time></trkpt><trkpt lat="44.2341033" lon="11.89909"><ele>97.00000000000001</ele><time>2026-05-01T16:21:59.44Z</time></trkpt><trkpt lat="44.23405" lon="11.8991583"><ele>97.0</ele><time>2026-05-01T16:22:02.441Z</time></trkpt><trkpt lat="44.2339933" lon="11.899225"><ele>97.83333333333334</ele><time>2026-05-01T16:22:05.44Z</time></trkpt><trkpt lat="44.2339317" lon="11.89928"><ele>98.66666666666667</ele><time>2026-05-01T16:22:08.442Z</time></trkpt><trkpt lat="44.2338683" lon="11.8993033"><ele>99.5</ele><time>2026-05-01T16:22:11.442Z</time></trkpt><trkpt lat="44.2338" lon="11.899345"><ele>100.33333333333334</ele><time>2026-05-01T16:22:14.441Z</time></trkpt><trkpt lat="44.2337233" lon="11.8994067"><ele>101.16666666666667</ele><time>2026-05-01T16:22:17.443Z</time></trkpt><trkpt lat="44.2336717" lon="11.89948"><ele>102.0</ele><time>2026-05-01T16:22:21.44Z</time></trkpt><trkpt lat="44.23361" lon="11.8995383"><ele>102.0</ele><time>2026-05-01T16:22:26.439Z</time></trkpt><trkpt lat="44.2335433" lon="11.89958"><ele>102.0</ele><time>2026-05-01T16:22:30.441Z</time></trkpt><trkpt lat="44.2334733" lon="11.899635"><ele>102.0</ele><time>2026-05-01T16:22:34.44Z</time></trkpt><trkpt lat="44.2334117" lon="11.8996933"><ele>102.0</ele><time>2026-05-01T16:22:38.441Z</time></trkpt><trkpt lat="44.23335" lon="11.899745"><ele>102.0</ele><time>2026-05-01T16:22:42.439Z</time></trkpt><trkpt lat="44.23328" lon="11.899775"><ele>102.0</ele><time>2026-05-01T16:22:47.443Z</time></trkpt><trkpt lat="44.2332133" lon="11.899795"><ele>102.0</ele><time>2026-05-01T16:22:51.441Z</time></trkpt><trkpt lat="44.2331417" lon="11.8998317"><ele>101.16666666666667</ele><time>2026-05-01T16:22:55.439Z</time></trkpt><trkpt lat="44.2330717" lon="11.8998483"><ele>100.33333333333334</ele><time>2026-05-01T16:22:59.439Z</time></trkpt><trkpt lat="44.2330117" lon="11.8998767"><ele>99.5</ele><time>2026-05-01T16:23:02.439Z</time></trkpt><trkpt lat="44.23294" lon="11.89992"><ele>98.66666666666667</ele><time>2026-05-01T16:23:06.44Z</time></trkpt><trkpt lat="44.2328767" lon="11.8999517"><ele>97.83333333333334</ele><time>2026-05-01T16:23:09.44Z</time></trkpt><trkpt lat="44.232795" lon="11.8999917"><ele>97.0</ele><time>2026-05-01T16:23:13.44Z</time></trkpt><trkpt lat="44.2327183" lon="11.9000417"><ele>97.0</ele><time>2026-05-01T16:23:17.443Z</time></trkpt><trkpt lat="44.2326417" lon="11.9000783"><ele>97.0</ele><time>2026-05-01T16:23:21.442Z</time></trkpt><trkpt lat="44.23257" lon="11.90009"><ele>97.0</ele><time>2026-05-01T16:23:24.44Z</time></trkpt><trkpt lat="44.2325" lon="11.9001133"><ele>97.0</ele><time>2026-05-01T16:23:27.441Z</time></trkpt><trkpt lat="44.2324367" lon="11.90015"><ele>97.0</ele><time>2026-05-01T16:23:30.44Z</time></trkpt><trkpt lat="44.2323717" lon="11.9001883"><ele>97.0</ele><time>2026-05-01T16:23:33.439Z</time></trkpt><trkpt lat="44.2323033" lon="11.90022"><ele>97.0</ele><time>2026-05-01T16:23:36.44Z</time></trkpt><trkpt lat="44.2322367" lon="11.9002417"><ele>99.14285714285714</ele><time>2026-05-01T16:23:39.441Z</time></trkpt><trkpt lat="44.2321633" lon="11.9002633"><ele>101.28571428571429</ele><time>2026-05-01T16:23:42.441Z</time></trkpt><trkpt lat="44.2320983" lon="11.9002917"><ele>103.42857142857143</ele><time>2026-05-01T16:23:45.441Z</time></trkpt><trkpt lat="44.2320383" lon="11.900325"><ele>105.57142857142857</ele><time>2026-05-01T16:23:48.439Z</time></trkpt><trkpt lat="44.231975" lon="11.9003383"><ele>107.71428571428572</ele><time>2026-05-01T16:23:51.439Z</time></trkpt><trkpt lat="44.2319067" lon="11.9003583"><ele>109.85714285714286</ele><time>2026-05-01T16:23:54.439Z</time></trkpt><trkpt lat="44.23184" lon="11.90041"><ele>112.0</ele><time>2026-05-01T16:23:58.44Z</time></trkpt><trkpt lat="44.2317817" lon="11.9004583"><ele>112.0</ele><time>2026-05-01T16:24:02.438Z</time></trkpt><trkpt lat="44.2317133" lon="11.9004883"><ele>112.0</ele><time>2026-05-01T16:24:07.44Z</time></trkpt><trkpt lat="44.2316533" lon="11.9005233"><ele>112.0</ele><time>2026-05-01T16:24:12.438Z</time></trkpt><trkpt lat="44.2315833" lon="11.9005633"><ele>112.0</ele><time>2026-05-01T16:24:18.439Z</time></trkpt><trkpt lat="44.23152" lon="11.9006117"><ele>112.0</ele><time>2026-05-01T16:24:24.44Z</time></trkpt><trkpt lat="44.2314583" lon="11.90064"><ele>112.0</ele><time>2026-05-01T16:24:29.439Z</time></trkpt><trkpt lat="44.2314" lon="11.9006867"><ele>112.0</ele><time>2026-05-01T16:24:34.44Z</time></trkpt><trkpt lat="44.23134" lon="11.9007433"><ele>111.8</ele><time>2026-05-01T16:24:39.44Z</time></trkpt><trkpt lat="44.2312733" lon="11.9007883"><ele>111.6</ele><time>2026-05-01T16:24:44.44Z</time></trkpt><trkpt lat="44.2311983" lon="11.9008133"><ele>111.39999999999999</ele><time>2026-05-01T16:24:49.441Z</time></trkpt><trkpt lat="44.23113" lon="11.9008367"><ele>111.19999999999999</ele><time>2026-05-01T16:24:54.441Z</time></trkpt><trkpt lat="44.231005" lon="11.9009233"><ele>111.0</ele><time>2026-05-01T16:25:42.442Z</time></trkpt><trkpt lat="44.2309167" lon="11.9010183"><ele>112.8</ele><time>2026-05-01T16:25:58.439Z</time></trkpt><trkpt lat="44.230825" lon="11.9011117"><ele>114.6</ele><time>2026-05-01T16:26:18.443Z</time></trkpt><trkpt lat="44.2307367" lon="11.9012167"><ele>116.4</ele><time>2026-05-01T16:26:34.44Z</time></trkpt><trkpt lat="44.230645" lon="11.9012183"><ele>118.2</ele><time>2026-05-01T16:27:32.44Z</time></trkpt><trkpt lat="44.2305717" lon="11.901205"><ele>120.0</ele><time>2026-05-01T16:27:36.44Z</time></trkpt><trkpt lat="44.230505" lon="11.9012167"><ele>120.0</ele><time>2026-05-01T16:27:40.44Z</time></trkpt><trkpt lat="44.23043" lon="11.9012433"><ele>120.0</ele><time>2026-05-01T16:27:44.44Z</time></trkpt><trkpt lat="44.2303633" lon="11.9012483"><ele>120.0</ele><time>2026-05-01T16:27:48.443Z</time></trkpt><trkpt lat="44.2303" lon="11.9012667"><ele>120.0</ele><time>2026-05-01T16:27:52.439Z</time></trkpt><trkpt lat="44.2302333" lon="11.9012833"><ele>120.0</ele><time>2026-05-01T16:27:56.44Z</time></trkpt><trkpt lat="44.2301717" lon="11.9013167"><ele>120.0</ele><time>2026-05-01T16:28:00.44Z</time></trkpt><trkpt lat="44.230085" lon="11.9013883"><ele>120.0</ele><time>2026-05-01T16:28:11.44Z</time></trkpt><trkpt lat="44.2299767" lon="11.90146"><ele>120.0</ele><time>2026-05-01T16:28:28.441Z</time></trkpt><trkpt lat="44.22986" lon="11.9015"><ele>120.0</ele><time>2026-05-01T16:28:48.441Z</time></trkpt><trkpt lat="44.2297867" lon="11.9015367"><ele>120.0</ele><time>2026-05-01T16:28:52.44Z</time></trkpt><trkpt lat="44.2297167" lon="11.9015833"><ele>120.0</ele><time>2026-05-01T16:28:55.439Z</time></trkpt><trkpt lat="44.2296483" lon="11.901625"><ele>120.0</ele><time>2026-05-01T16:28:58.44Z</time></trkpt><trkpt lat="44.2295717" lon="11.9016867"><ele>120.0</ele><time>2026-05-01T16:29:01.441Z</time></trkpt><trkpt lat="44.2295033" lon="11.9017483"><ele>121.0</ele><time>2026-05-01T16:29:04.44Z</time></trkpt><trkpt lat="44.22944" lon="11.90181"><ele>122.0</ele><time>2026-05-01T16:29:07.441Z</time></trkpt><trkpt lat="44.2293733" lon="11.9018583"><ele>123.0</ele><time>2026-05-01T16:29:10.441Z</time></trkpt><trkpt lat="44.22931" lon="11.9019083"><ele>124.0</ele><time>2026-05-01T16:29:13.44Z</time></trkpt><trkpt lat="44.2292517" lon="11.901965"><ele>125.0</ele><time>2026-05-01T16:29:16.443Z</time></trkpt><trkpt lat="44.2291933" lon="11.902015"><ele>126.0</ele><time>2026-05-01T16:29:19.441Z</time></trkpt><trkpt lat="44.2291417" lon="11.90207"><ele>127.0</ele><time>2026-05-01T16:29:22.441Z</time></trkpt><trkpt lat="44.2290917" lon="11.9021267"><ele>127.0</ele><time>2026-05-01T16:29:25.441Z</time></trkpt><trkpt lat="44.22904" lon="11.9021883"><ele>127.0</ele><time>2026-05-01T16:29:28.442Z</time></trkpt><trkpt lat="44.2289817" lon="11.90224"><ele>127.0</ele><time>2026-05-01T16:29:31.44Z</time></trkpt><trkpt lat="44.22892" lon="11.9023033"><ele>127.0</ele><time>2026-05-01T16:29:35.44Z</time></trkpt><trkpt lat="44.2288633" lon="11.9023817"><ele>127.0</ele><time>2026-05-01T16:29:39.44Z</time></trkpt><trkpt lat="44.2287983" lon="11.9024567"><ele>127.0</ele><time>2026-05-01T16:29:43.441Z</time></trkpt><trkpt lat="44.228745" lon="11.9025217"><ele>127.0</ele><time>2026-05-01T16:29:47.44Z</time></trkpt><trkpt lat="44.2287017" lon="11.9025917"><ele>129.42857142857144</ele><time>2026-05-01T16:29:51.441Z</time></trkpt><trkpt lat="44.228645" lon="11.9026633"><ele>131.85714285714286</ele><time>2026-05-01T16:29:56.44Z</time></trkpt><trkpt lat="44.228595" lon="11.9027317"><ele>134.28571428571428</ele><time>2026-05-01T16:30:01.44Z</time></trkpt><trkpt lat="44.2285417" lon="11.9027983"><ele>136.71428571428572</ele><time>2026-05-01T16:30:06.44Z</time></trkpt><trkpt lat="44.228495" lon="11.90288"><ele>139.14285714285714</ele><time>2026-05-01T16:30:11.44Z</time></trkpt><trkpt lat="44.2284533" lon="11.90295"><ele>141.57142857142858</ele><time>2026-05-01T16:30:16.44Z</time></trkpt><trkpt lat="44.2284117" lon="11.9030283"><ele>144.0</ele><time>2026-05-01T16:30:21.443Z</time></trkpt><trkpt lat="44.22839" lon="11.9031117"><ele>144.00000000000003</ele><time>2026-05-01T16:30:26.441Z</time></trkpt><trkpt lat="44.228375" lon="11.9032033"><ele>144.0</ele><time>2026-05-01T16:30:31.44Z</time></trkpt><trkpt lat="44.2283583" lon="11.9032967"><ele>144.0</ele><time>2026-05-01T16:30:36.442Z</time></trkpt><trkpt lat="44.22832" lon="11.9033817"><ele>144.0</ele><time>2026-05-01T16:30:41.441Z</time></trkpt><trkpt lat="44.2283" lon="11.903475"><ele>144.0</ele><time>2026-05-01T16:30:46.442Z</time></trkpt><trkpt lat="44.2282617" lon="11.903565"><ele>144.00000000000003</ele><time>2026-05-01T16:30:52.443Z</time></trkpt><trkpt lat="44.2282083" lon="11.9036417"><ele>144.0</ele><time>2026-05-01T16:30:57.438Z</time></trkpt><trkpt lat="44.2281667" lon="11.90371"><ele>146.2857142857143</ele><time>2026-05-01T16:31:02.439Z</time></trkpt><trkpt lat="44.2281167" lon="11.9037967"><ele>148.57142857142858</ele><time>2026-05-01T16:31:08.44Z</time></trkpt><trkpt lat="44.2280733" lon="11.9038767"><ele>150.85714285714286</ele><time>2026-05-01T16:31:13.44Z</time></trkpt><trkpt lat="44.2280367" lon="11.9039633"><ele>153.14285714285717</ele><time>2026-05-01T16:31:19.441Z</time></trkpt><trkpt lat="44.2280067" lon="11.9040517"><ele>155.42857142857144</ele><time>2026-05-01T16:31:24.442Z</time></trkpt><trkpt lat="44.227995" lon="11.9041433"><ele>157.71428571428572</ele><time>2026-05-01T16:31:29.439Z</time></trkpt><trkpt lat="44.22796" lon="11.90422"><ele>160.0</ele><time>2026-05-01T16:31:34.44Z</time></trkpt><trkpt lat="44.22793" lon="11.90431"><ele>160.0</ele><time>2026-05-01T16:31:39.439Z</time></trkpt><trkpt lat="44.2279217" lon="11.9044033"><ele>160.0</ele><time>2026-05-01T16:31:44.44Z</time></trkpt><trkpt lat="44.22794" lon="11.9044983"><ele>160.0</ele><time>2026-05-01T16:31:50.442Z</time></trkpt><trkpt lat="44.2279667" lon="11.9045883"><ele>160.0</ele><time>2026-05-01T16:31:55.44Z</time></trkpt><trkpt lat="44.227965" lon="11.904695"><ele>160.0</ele><time>2026-05-01T16:32:59.44Z</time></trkpt><trkpt lat="44.2279583" lon="11.904815"><ele>160.0</ele><time>2026-05-01T16:33:02.44Z</time></trkpt><trkpt lat="44.227945" lon="11.90495"><ele>158.16666666666669</ele><time>2026-05-01T16:33:04.441Z</time></trkpt><trkpt lat="44.2279083" lon="11.9050967"><ele>156.33333333333334</ele><time>2026-05-01T16:33:06.445Z</time></trkpt><trkpt lat="44.2278783" lon="11.9051767"><ele>154.5</ele><time>2026-05-01T16:33:07.441Z</time></trkpt><trkpt lat="44.22784" lon="11.9052617"><ele>152.66666666666666</ele><time>2026-05-01T16:33:08.44Z</time></trkpt><trkpt lat="44.227795" lon="11.9053467"><ele>150.83333333333331</ele><time>2026-05-01T16:33:09.439Z</time></trkpt><trkpt lat="44.2277467" lon="11.90543"><ele>149.0</ele><time>2026-05-01T16:33:10.439Z</time></trkpt><trkpt lat="44.2277033" lon="11.9055183"><ele>149.0</ele><time>2026-05-01T16:33:11.441Z</time></trkpt><trkpt lat="44.2276517" lon="11.90561"><ele>149.0</ele><time>2026-05-01T16:33:12.44Z</time></trkpt><trkpt lat="44.2276017" lon="11.9057"><ele>149.0</ele><time>2026-05-01T16:33:13.441Z</time></trkpt><trkpt lat="44.2275483" lon="11.90579"><ele>149.0</ele><time>2026-05-01T16:33:14.441Z</time></trkpt><trkpt lat="44.2274883" lon="11.905885"><ele>149.0</ele><time>2026-05-01T16:33:15.439Z</time></trkpt><trkpt lat="44.2274317" lon="11.90598"><ele>149.0</ele><time>2026-05-01T16:33:16.443Z</time></trkpt><trkpt lat="44.2273733" lon="11.9060783"><ele>150.8</ele><time>2026-05-01T16:33:17.442Z</time></trkpt><trkpt lat="44.227315" lon="11.9061767"><ele>152.60000000000002</ele><time>2026-05-01T16:33:18.443Z</time></trkpt><trkpt lat="44.2272617" lon="11.9062733"><ele>154.4</ele><time>2026-05-01T16:33:19.443Z</time></trkpt><trkpt lat="44.2272083" lon="11.9063733"><ele>156.20000000000002</ele><time>2026-05-01T16:33:20.443Z</time></trkpt><trkpt lat="44.2271583" lon="11.90648"><ele>158.0</ele><time>2026-05-01T16:33:21.443Z</time></trkpt><trkpt lat="44.2271117" lon="11.9065883"><ele>158.0</ele><time>2026-05-01T16:33:22.442Z</time></trkpt><trkpt lat="44.2270767" lon="11.9066967"><ele>158.0</ele><time>2026-05-01T16:33:23.443Z</time></trkpt><trkpt lat="44.227055" lon="11.9068133"><ele>158.0</ele><time>2026-05-01T16:33:24.44Z</time></trkpt><trkpt lat="44.2270483" lon="11.90693"><ele>158.0</ele><time>2026-05-01T16:33:25.439Z</time></trkpt><trkpt lat="44.2270533" lon="11.9070467"><ele>158.0</ele><time>2026-05-01T16:33:26.44Z</time></trkpt><trkpt lat="44.2270633" lon="11.9071633"><ele>158.0</ele><time>2026-05-01T16:33:27.44Z</time></trkpt><trkpt lat="44.2270783" lon="11.907275"><ele>156.5</ele><time>2026-05-01T16:33:28.439Z</time></trkpt><trkpt lat="44.2270917" lon="11.9073883"><ele>155.0</ele><time>2026-05-01T16:33:29.44Z</time></trkpt><trkpt lat="44.2271067" lon="11.9075017"><ele>153.5</ele><time>2026-05-01T16:33:30.44Z</time></trkpt><trkpt lat="44.2271083" lon="11.9076233"><ele>152.0</ele><time>2026-05-01T16:33:31.439Z</time></trkpt><trkpt lat="44.2271017" lon="11.907745"><ele>150.5</ele><time>2026-05-01T16:33:32.44Z</time></trkpt><trkpt lat="44.2270917" lon="11.9078667"><ele>149.0</ele><time>2026-05-01T16:33:33.44Z</time></trkpt><trkpt lat="44.2270783" lon="11.9079883"><ele>147.33333333333331</ele><time>2026-05-01T16:33:34.44Z</time></trkpt><trkpt lat="44.2270633" lon="11.908115"><ele>145.66666666666666</ele><time>2026-05-01T16:33:35.44Z</time></trkpt><trkpt lat="44.2270517" lon="11.9082367"><ele>144.0</ele><time>2026-05-01T16:33:36.44Z</time></trkpt><trkpt lat="44.2270367" lon="11.9083517"><ele>142.33333333333334</ele><time>2026-05-01T16:33:37.439Z</time></trkpt><trkpt lat="44.2270333" lon="11.9084583"><ele>140.66666666666669</ele><time>2026-05-01T16:33:38.44Z</time></trkpt><trkpt lat="44.2270467" lon="11.9085567"><ele>139.0</ele><time>2026-05-01T16:33:39.439Z</time></trkpt><trkpt lat="44.22707" lon="11.9086433"><ele>137.5</ele><time>2026-05-01T16:33:40.44Z</time></trkpt><trkpt lat="44.2271183" lon="11.9087117"><ele>136.0</ele><time>2026-05-01T16:33:41.439Z</time></trkpt><trkpt lat="44.227195" lon="11.9087517"><ele>134.5</ele><time>2026-05-01T16:33:42.44Z</time></trkpt><trkpt lat="44.22727" lon="11.908805"><ele>133.0</ele><time>2026-05-01T16:33:43.44Z</time></trkpt><trkpt lat="44.227365" lon="11.9088233"><ele>131.5</ele><time>2026-05-01T16:33:44.44Z</time></trkpt><trkpt lat="44.2274583" lon="11.9088317"><ele>130.0</ele><time>2026-05-01T16:33:45.44Z</time></trkpt><trkpt lat="44.22755" lon="11.9088383"><ele>130.0</ele><time>2026-05-01T16:33:46.439Z</time></trkpt><trkpt lat="44.22764" lon="11.9088533"><ele>130.0</ele><time>2026-05-01T16:33:47.443Z</time></trkpt><trkpt lat="44.2277267" lon="11.9088733"><ele>130.0</ele><time>2026-05-01T16:33:48.439Z</time></trkpt><trkpt lat="44.2278133" lon="11.9089"><ele>130.0</ele><time>2026-05-01T16:33:49.44Z</time></trkpt><trkpt lat="44.2279" lon="11.908935"><ele>130.0</ele><time>2026-05-01T16:33:50.44Z</time></trkpt><trkpt lat="44.2279883" lon="11.90898"><ele>130.0</ele><time>2026-05-01T16:33:51.445Z</time></trkpt><trkpt lat="44.22808" lon="11.90904"><ele>130.0</ele><time>2026-05-01T16:33:52.44Z</time></trkpt><trkpt lat="44.2281733" lon="11.909115"><ele>130.0</ele><time>2026-05-01T16:33:53.44Z</time></trkpt><trkpt lat="44.2282667" lon="11.90919"><ele>130.0</ele><time>2026-05-01T16:33:54.44Z</time></trkpt><trkpt lat="44.2283567" lon="11.90927"><ele>130.0</ele><time>2026-05-01T16:33:55.439Z</time></trkpt><trkpt lat="44.22845" lon="11.9093533"><ele>127.6</ele><time>2026-05-01T16:33:56.44Z</time></trkpt><trkpt lat="44.22854" lon="11.9094417"><ele>125.2</ele><time>2026-05-01T16:33:57.44Z</time></trkpt><trkpt lat="44.2286333" lon="11.9095233"><ele>122.80000000000001</ele><time>2026-05-01T16:33:58.44Z</time></trkpt><trkpt lat="44.2287217" lon="11.9096033"><ele>120.4</ele><time>2026-05-01T16:33:59.439Z</time></trkpt><trkpt lat="44.2288133" lon="11.9096817"><ele>118.0</ele><time>2026-05-01T16:34:00.439Z</time></trkpt><trkpt lat="44.2289017" lon="11.9097567"><ele>117.60000000000001</ele><time>2026-05-01T16:34:01.44Z</time></trkpt><trkpt lat="44.2289917" lon="11.9098367"><ele>117.20000000000002</ele><time>2026-05-01T16:34:02.44Z</time></trkpt><trkpt lat="44.2290817" lon="11.9099167"><ele>116.8</ele><time>2026-05-01T16:34:03.441Z</time></trkpt><trkpt lat="44.22916" lon="11.909995"><ele>116.4</ele><time>2026-05-01T16:34:04.439Z</time></trkpt><trkpt lat="44.2292583" lon="11.9100633"><ele>116.0</ele><time>2026-05-01T16:34:05.438Z</time></trkpt><trkpt lat="44.2293483" lon="11.9101283"><ele>115.8</ele><time>2026-05-01T16:34:06.44Z</time></trkpt><trkpt lat="44.22944" lon="11.9101867"><ele>115.6</ele><time>2026-05-01T16:34:07.441Z</time></trkpt><trkpt lat="44.229535" lon="11.9102417"><ele>115.4</ele><time>2026-05-01T16:34:08.439Z</time></trkpt><trkpt lat="44.2296283" lon="11.9103017"><ele>115.2</ele><time>2026-05-01T16:34:09.438Z</time></trkpt><trkpt lat="44.229725" lon="11.9103567"><ele>115.0</ele><time>2026-05-01T16:34:10.439Z</time></trkpt><trkpt lat="44.22982" lon="11.9104083"><ele>116.8</ele><time>2026-05-01T16:34:11.439Z</time></trkpt><trkpt lat="44.2299167" lon="11.9104633"><ele>118.6</ele><time>2026-05-01T16:34:12.439Z</time></trkpt><trkpt lat="44.2300083" lon="11.910515"><ele>120.4</ele><time>2026-05-01T16:34:13.439Z</time></trkpt><trkpt lat="44.2300983" lon="11.9105583"><ele>122.2</ele><time>2026-05-01T16:34:14.442Z</time></trkpt><trkpt lat="44.2301883" lon="11.9105983"><ele>124.0</ele><time>2026-05-01T16:34:15.44Z</time></trkpt><trkpt lat="44.23027" lon="11.91064"><ele>124.00000000000001</ele><time>2026-05-01T16:34:16.438Z</time></trkpt><trkpt lat="44.2303517" lon="11.9106783"><ele>124.0</ele><time>2026-05-01T16:34:17.439Z</time></trkpt><trkpt lat="44.23043" lon="11.91072"><ele>124.0</ele><time>2026-05-01T16:34:18.44Z</time></trkpt><trkpt lat="44.2305083" lon="11.9107633"><ele>124.0</ele><time>2026-05-01T16:34:19.44Z</time></trkpt><trkpt lat="44.2305833" lon="11.9108"><ele>124.00000000000001</ele><time>2026-05-01T16:34:20.44Z</time></trkpt><trkpt lat="44.230655" lon="11.9108383"><ele>124.0</ele><time>2026-05-01T16:34:21.439Z</time></trkpt><trkpt lat="44.23072" lon="11.910875"><ele>123.85714285714286</ele><time>2026-05-01T16:34:22.439Z</time></trkpt><trkpt lat="44.2307833" lon="11.9109133"><ele>123.71428571428572</ele><time>2026-05-01T16:34:23.439Z</time></trkpt><trkpt lat="44.2308467" lon="11.9109517"><ele>123.57142857142858</ele><time>2026-05-01T16:34:24.441Z</time></trkpt><trkpt lat="44.2309067" lon="11.911"><ele>123.42857142857144</ele><time>2026-05-01T16:34:25.44Z</time></trkpt><trkpt lat="44.2309667" lon="11.9110483"><ele>123.28571428571429</ele><time>2026-05-01T16:34:26.44Z</time></trkpt><trkpt lat="44.2310233" lon="11.9111017"><ele>123.14285714285717</ele><time>2026-05-01T16:34:27.439Z</time></trkpt><trkpt lat="44.2310767" lon="11.9111583"><ele>123.00000000000001</ele><time>2026-05-01T16:34:28.44Z</time></trkpt><trkpt lat="44.2311283" lon="11.911235"><ele>123.00000000000001</ele><time>2026-05-01T16:34:29.439Z</time></trkpt><trkpt lat="44.231175" lon="11.911305"><ele>123.0</ele><time>2026-05-01T16:34:30.44Z</time></trkpt><trkpt lat="44.23122" lon="11.9113817"><ele>123.00000000000001</ele><time>2026-05-01T16:34:31.441Z</time></trkpt><trkpt lat="44.231265" lon="11.9114633"><ele>123.00000000000001</ele><time>2026-05-01T16:34:32.439Z</time></trkpt><trkpt lat="44.2313033" lon="11.911555"><ele>123.0</ele><time>2026-05-01T16:34:33.439Z</time></trkpt><trkpt lat="44.2313417" lon="11.9116467"><ele>123.00000000000001</ele><time>2026-05-01T16:34:34.44Z</time></trkpt><trkpt lat="44.23138" lon="11.9117333"><ele>123.00000000000001</ele><time>2026-05-01T16:34:35.44Z</time></trkpt><trkpt lat="44.23142" lon="11.911815"><ele>122.42857142857144</ele><time>2026-05-01T16:34:36.441Z</time></trkpt><trkpt lat="44.23146" lon="11.9119017"><ele>121.85714285714286</ele><time>2026-05-01T16:34:37.44Z</time></trkpt><trkpt lat="44.2314967" lon="11.911985"><ele>121.28571428571429</ele><time>2026-05-01T16:34:38.439Z</time></trkpt><trkpt lat="44.2315333" lon="11.91207"><ele>120.71428571428572</ele><time>2026-05-01T16:34:39.44Z</time></trkpt><trkpt lat="44.23157" lon="11.912155"><ele>120.14285714285714</ele><time>2026-05-01T16:34:40.44Z</time></trkpt><trkpt lat="44.23161" lon="11.9122433"><ele>119.57142857142857</ele><time>2026-05-01T16:34:41.441Z</time></trkpt><trkpt lat="44.2316467" lon="11.9123283"><ele>119.0</ele><time>2026-05-01T16:34:42.44Z</time></trkpt><trkpt lat="44.2316883" lon="11.91242"><ele>118.28571428571428</ele><time>2026-05-01T16:34:43.441Z</time></trkpt><trkpt lat="44.2317283" lon="11.9125133"><ele>117.57142857142857</ele><time>2026-05-01T16:34:44.44Z</time></trkpt><trkpt lat="44.2317633" lon="11.912605"><ele>116.85714285714286</ele><time>2026-05-01T16:34:45.44Z</time></trkpt><trkpt lat="44.2317933" lon="11.9126983"><ele>116.14285714285714</ele><time>2026-05-01T16:34:46.443Z</time></trkpt><trkpt lat="44.2318267" lon="11.9127767"><ele>115.42857142857142</ele><time>2026-05-01T16:34:47.439Z</time></trkpt><trkpt lat="44.231855" lon="11.9128667"><ele>114.71428571428571</ele><time>2026-05-01T16:34:48.442Z</time></trkpt><trkpt lat="44.2318817" lon="11.9129583"><ele>114.0</ele><time>2026-05-01T16:34:49.442Z</time></trkpt><trkpt lat="44.2319017" lon="11.9130517"><ele>113.28571428571428</ele><time>2026-05-01T16:34:50.442Z</time></trkpt><trkpt lat="44.2319217" lon="11.91314"><ele>112.57142857142856</ele><time>2026-05-01T16:34:51.44Z</time></trkpt><trkpt lat="44.2319367" lon="11.91324"><ele>111.85714285714286</ele><time>2026-05-01T16:34:52.44Z</time></trkpt><trkpt lat="44.231955" lon="11.9133333"><ele>111.14285714285714</ele><time>2026-05-01T16:34:53.439Z</time></trkpt><trkpt lat="44.231965" lon="11.913435"><ele>110.42857142857143</ele><time>2026-05-01T16:34:54.44Z</time></trkpt><trkpt lat="44.2319733" lon="11.9135417"><ele>109.71428571428572</ele><time>2026-05-01T16:34:55.44Z</time></trkpt><trkpt lat="44.2319867" lon="11.9136483"><ele>109.0</ele><time>2026-05-01T16:34:56.44Z</time></trkpt><trkpt lat="44.23201" lon="11.9137467"><ele>107.33333333333334</ele><time>2026-05-01T16:34:57.439Z</time></trkpt><trkpt lat="44.232035" lon="11.9138483"><ele>105.66666666666667</ele><time>2026-05-01T16:34:58.44Z</time></trkpt><trkpt lat="44.2320617" lon="11.9139517"><ele>104.0</ele><time>2026-05-01T16:34:59.44Z</time></trkpt><trkpt lat="44.232105" lon="11.9140533"><ele>102.33333333333334</ele><time>2026-05-01T16:35:00.439Z</time></trkpt><trkpt lat="44.2321483" lon="11.9141583"><ele>100.66666666666667</ele><time>2026-05-01T16:35:01.439Z</time></trkpt><trkpt lat="44.2322017" lon="11.914255"><ele>99.0</ele><time>2026-05-01T16:35:02.439Z</time></trkpt><trkpt lat="44.2322667" lon="11.9143483"><ele>99.0</ele><time>2026-05-01T16:35:03.44Z</time></trkpt><trkpt lat="44.2323383" lon="11.9144317"><ele>99.0</ele><time>2026-05-01T16:35:04.44Z</time></trkpt><trkpt lat="44.2324133" lon="11.914515"><ele>99.0</ele><time>2026-05-01T16:35:05.44Z</time></trkpt><trkpt lat="44.23249" lon="11.9145967"><ele>99.0</ele><time>2026-05-01T16:35:06.439Z</time></trkpt><trkpt lat="44.2325683" lon="11.9146817"><ele>99.0</ele><time>2026-05-01T16:35:07.44Z</time></trkpt><trkpt lat="44.2326467" lon="11.9147683"><ele>99.0</ele><time>2026-05-01T16:35:08.44Z</time></trkpt><trkpt lat="44.232725" lon="11.9148633"><ele>99.0</ele><time>2026-05-01T16:35:09.44Z</time></trkpt><trkpt lat="44.2328017" lon="11.914965"><ele>99.0</ele><time>2026-05-01T16:35:10.44Z</time></trkpt><trkpt lat="44.2328783" lon="11.9150667"><ele>99.0</ele><time>2026-05-01T16:35:11.439Z</time></trkpt><trkpt lat="44.2329533" lon="11.9151683"><ele>99.0</ele><time>2026-05-01T16:35:12.44Z</time></trkpt><trkpt lat="44.233035" lon="11.9152617"><ele>97.0</ele><time>2026-05-01T16:35:13.44Z</time></trkpt><trkpt lat="44.2331183" lon="11.9153483"><ele>95.0</ele><time>2026-05-01T16:35:14.441Z</time></trkpt><trkpt lat="44.23321" lon="11.91542"><ele>93.0</ele><time>2026-05-01T16:35:15.44Z</time></trkpt><trkpt lat="44.2332967" lon="11.9154933"><ele>91.0</ele><time>2026-05-01T16:35:16.443Z</time></trkpt><trkpt lat="44.23339" lon="11.9155617"><ele>89.0</ele><time>2026-05-01T16:35:17.441Z</time></trkpt><trkpt lat="44.2334833" lon="11.9156283"><ele>88.80000000000001</ele><time>2026-05-01T16:35:18.44Z</time></trkpt><trkpt lat="44.233575" lon="11.9156933"><ele>88.60000000000001</ele><time>2026-05-01T16:35:19.44Z</time></trkpt><trkpt lat="44.2336667" lon="11.9157667"><ele>88.4</ele><time>2026-05-01T16:35:20.439Z</time></trkpt><trkpt lat="44.2337533" lon="11.9158433"><ele>88.2</ele><time>2026-05-01T16:35:21.44Z</time></trkpt><trkpt lat="44.23384" lon="11.91592"><ele>88.0</ele><time>2026-05-01T16:35:22.439Z</time></trkpt><trkpt lat="44.2339233" lon="11.9159933"><ele>87.2</ele><time>2026-05-01T16:35:23.439Z</time></trkpt><trkpt lat="44.234005" lon="11.91607"><ele>86.4</ele><time>2026-05-01T16:35:24.44Z</time></trkpt><trkpt lat="44.2340833" lon="11.9161533"><ele>85.60000000000001</ele><time>2026-05-01T16:35:25.44Z</time></trkpt><trkpt lat="44.2341617" lon="11.9162367"><ele>84.80000000000001</ele><time>2026-05-01T16:35:26.44Z</time></trkpt><trkpt lat="44.234235" lon="11.9163233"><ele>84.0</ele><time>2026-05-01T16:35:27.439Z</time></trkpt><trkpt lat="44.2343083" lon="11.9164083"><ele>84.0</ele><time>2026-05-01T16:35:28.44Z</time></trkpt><trkpt lat="44.2343817" lon="11.916495"><ele>84.0</ele><time>2026-05-01T16:35:29.439Z</time></trkpt><trkpt lat="44.2344483" lon="11.9165883"><ele>84.0</ele><time>2026-05-01T16:35:30.44Z</time></trkpt><trkpt lat="44.2345067" lon="11.9166933"><ele>84.0</ele><time>2026-05-01T16:35:31.44Z</time></trkpt><trkpt lat="44.234555" lon="11.9168067"><ele>84.0</ele><time>2026-05-01T16:35:32.44Z</time></trkpt><trkpt lat="44.2345933" lon="11.91693"><ele>83.0</ele><time>2026-05-01T16:35:33.44Z</time></trkpt><trkpt lat="44.23463" lon="11.9170517"><ele>82.0</ele><time>2026-05-01T16:35:34.44Z</time></trkpt><trkpt lat="44.234675" lon="11.91717"><ele>81.0</ele><time>2026-05-01T16:35:35.439Z</time></trkpt><trkpt lat="44.23473" lon="11.91728"><ele>80.0</ele><time>2026-05-01T16:35:36.44Z</time></trkpt><trkpt lat="44.23479" lon="11.9173767"><ele>79.0</ele><time>2026-05-01T16:35:37.44Z</time></trkpt><trkpt lat="44.2348567" lon="11.917465"><ele>79.0</ele><time>2026-05-01T16:35:38.441Z</time></trkpt><trkpt lat="44.23492" lon="11.9175517"><ele>79.0</ele><time>2026-05-01T16:35:39.441Z</time></trkpt><trkpt lat="44.234985" lon="11.9176367"><ele>79.0</ele><time>2026-05-01T16:35:40.44Z</time></trkpt><trkpt lat="44.23505" lon="11.9177183"><ele>79.0</ele><time>2026-05-01T16:35:41.439Z</time></trkpt><trkpt lat="44.23511" lon="11.9177983"><ele>79.0</ele><time>2026-05-01T16:35:42.442Z</time></trkpt><trkpt lat="44.23517" lon="11.9178767"><ele>79.0</ele><time>2026-05-01T16:35:43.439Z</time></trkpt><trkpt lat="44.2352283" lon="11.9179567"><ele>78.83333333333333</ele><time>2026-05-01T16:35:44.44Z</time></trkpt><trkpt lat="44.2352867" lon="11.9180317"><ele>78.66666666666666</ele><time>2026-05-01T16:35:45.44Z</time></trkpt><trkpt lat="44.2353467" lon="11.9181083"><ele>78.5</ele><time>2026-05-01T16:35:46.442Z</time></trkpt><trkpt lat="44.2354033" lon="11.918185"><ele>78.33333333333333</ele><time>2026-05-01T16:35:47.442Z</time></trkpt><trkpt lat="44.23546" lon="11.918265"><ele>78.16666666666667</ele><time>2026-05-01T16:35:48.439Z</time></trkpt><trkpt lat="44.235515" lon="11.918345"><ele>78.0</ele><time>2026-05-01T16:35:49.439Z</time></trkpt><trkpt lat="44.235575" lon="11.91843"><ele>77.16666666666667</ele><time>2026-05-01T16:35:50.439Z</time></trkpt><trkpt lat="44.235635" lon="11.91851"><ele>76.33333333333333</ele><time>2026-05-01T16:35:51.439Z</time></trkpt><trkpt lat="44.2356967" lon="11.9185933"><ele>75.5</ele><time>2026-05-01T16:35:52.44Z</time></trkpt><trkpt lat="44.2357583" lon="11.9186733"><ele>74.66666666666666</ele><time>2026-05-01T16:35:53.439Z</time></trkpt><trkpt lat="44.2358183" lon="11.9187517"><ele>73.83333333333333</ele><time>2026-05-01T16:35:54.44Z</time></trkpt><trkpt lat="44.2358717" lon="11.9188333"><ele>73.0</ele><time>2026-05-01T16:35:55.44Z</time></trkpt><trkpt lat="44.2359117" lon="11.918925"><ele>73.0</ele><time>2026-05-01T16:35:56.44Z</time></trkpt><trkpt lat="44.2359433" lon="11.91902"><ele>73.0</ele><time>2026-05-01T16:35:57.439Z</time></trkpt><trkpt lat="44.235945" lon="11.9191183"><ele>73.0</ele><time>2026-05-01T16:35:58.441Z</time></trkpt><trkpt lat="44.2358983" lon="11.9192083"><ele>73.0</ele><time>2026-05-01T16:35:59.44Z</time></trkpt><trkpt lat="44.2358467" lon="11.9193033"><ele>73.0</ele><time>2026-05-01T16:36:00.442Z</time></trkpt><trkpt lat="44.2357967" lon="11.9194017"><ele>73.0</ele><time>2026-05-01T16:36:01.442Z</time></trkpt><trkpt lat="44.2357433" lon="11.9194983"><ele>71.5</ele><time>2026-05-01T16:36:02.441Z</time></trkpt><trkpt lat="44.2356883" lon="11.919595"><ele>70.0</ele><time>2026-05-01T16:36:03.443Z</time></trkpt><trkpt lat="44.235615" lon="11.9196883"><ele>68.5</ele><time>2026-05-01T16:36:04.441Z</time></trkpt><trkpt lat="44.2355483" lon="11.919785"><ele>67.0</ele><time>2026-05-01T16:36:05.439Z</time></trkpt><trkpt lat="44.23549" lon="11.919875"><ele>65.5</ele><time>2026-05-01T16:36:06.44Z</time></trkpt><trkpt lat="44.2354417" lon="11.919955"><ele>64.0</ele><time>2026-05-01T16:36:07.44Z</time></trkpt><trkpt lat="44.2353833" lon="11.9200767"><ele>63.400000000000006</ele><time>2026-05-01T16:36:09.441Z</time></trkpt><trkpt lat="44.2353683" lon="11.9201783"><ele>62.800000000000004</ele><time>2026-05-01T16:36:11.44Z</time></trkpt><trkpt lat="44.2354517" lon="11.9202233"><ele>62.199999999999996</ele><time>2026-05-01T16:36:13.441Z</time></trkpt><trkpt lat="44.2355583" lon="11.9202733"><ele>61.599999999999994</ele><time>2026-05-01T16:36:15.439Z</time></trkpt><trkpt lat="44.2356667" lon="11.9203267"><ele>61.0</ele><time>2026-05-01T16:36:17.448Z</time></trkpt><trkpt lat="44.2357817" lon="11.9203783"><ele>60.49999999999999</ele><time>2026-05-01T16:36:19.44Z</time></trkpt><trkpt lat="44.2358417" lon="11.9204083"><ele>60.0</ele><time>2026-05-01T16:36:20.439Z</time></trkpt><trkpt lat="44.2359583" lon="11.9204633"><ele>59.5</ele><time>2026-05-01T16:36:22.439Z</time></trkpt><trkpt lat="44.2360767" lon="11.9205233"><ele>59.0</ele><time>2026-05-01T16:36:24.44Z</time></trkpt><trkpt lat="44.2361383" lon="11.9205533"><ele>58.49999999999999</ele><time>2026-05-01T16:36:25.439Z</time></trkpt><trkpt lat="44.2362017" lon="11.9205867"><ele>58.0</ele><time>2026-05-01T16:36:26.439Z</time></trkpt><trkpt lat="44.236265" lon="11.9206233"><ele>58.00000000000001</ele><time>2026-05-01T16:36:27.44Z</time></trkpt><trkpt lat="44.23633" lon="11.9206567"><ele>58.0</ele><time>2026-05-01T16:36:28.44Z</time></trkpt><trkpt lat="44.236395" lon="11.9206917"><ele>58.00000000000001</ele><time>2026-05-01T16:36:29.439Z</time></trkpt><trkpt lat="44.23646" lon="11.9207283"><ele>58.00000000000001</ele><time>2026-05-01T16:36:30.439Z</time></trkpt><trkpt lat="44.2365267" lon="11.9207683"><ele>58.0</ele><time>2026-05-01T16:36:31.44Z</time></trkpt><trkpt lat="44.2365917" lon="11.9208017"><ele>58.00000000000001</ele><time>2026-05-01T16:36:32.444Z</time></trkpt><trkpt lat="44.2366567" lon="11.9208333"><ele>58.00000000000001</ele><time>2026-05-01T16:36:33.44Z</time></trkpt><trkpt lat="44.2367233" lon="11.9208633"><ele>58.00000000000001</ele><time>2026-05-01T16:36:34.44Z</time></trkpt><trkpt lat="44.23679" lon="11.9208983"><ele>58.0</ele><time>2026-05-01T16:36:35.439Z</time></trkpt><trkpt lat="44.2368583" lon="11.92093"><ele>58.00000000000001</ele><time>2026-05-01T16:36:36.44Z</time></trkpt><trkpt lat="44.236925" lon="11.9209667"><ele>58.00000000000001</ele><time>2026-05-01T16:36:37.44Z</time></trkpt><trkpt lat="44.236995" lon="11.9209983"><ele>58.0</ele><time>2026-05-01T16:36:38.439Z</time></trkpt><trkpt lat="44.2370667" lon="11.921035"><ele>58.00000000000001</ele><time>2026-05-01T16:36:39.44Z</time></trkpt><trkpt lat="44.2371383" lon="11.9210733"><ele>58.00000000000001</ele><time>2026-05-01T16:36:40.44Z</time></trkpt><trkpt lat="44.2372067" lon="11.92111"><ele>57.85714285714286</ele><time>2026-05-01T16:36:41.439Z</time></trkpt><trkpt lat="44.2372733" lon="11.9211483"><ele>57.714285714285715</ele><time>2026-05-01T16:36:42.44Z</time></trkpt><trkpt lat="44.2373417" lon="11.921185"><ele>57.57142857142857</ele><time>2026-05-01T16:36:43.439Z</time></trkpt><trkpt lat="44.23741" lon="11.9212167"><ele>57.42857142857143</ele><time>2026-05-01T16:36:44.44Z</time></trkpt><trkpt lat="44.2374783" lon="11.92125"><ele>57.28571428571428</ele><time>2026-05-01T16:36:45.44Z</time></trkpt><trkpt lat="44.237545" lon="11.9212833"><ele>57.14285714285714</ele><time>2026-05-01T16:36:46.44Z</time></trkpt><trkpt lat="44.2376133" lon="11.9213183"><ele>57.0</ele><time>2026-05-01T16:36:47.439Z</time></trkpt><trkpt lat="44.2376817" lon="11.9213533"><ele>56.71428571428571</ele><time>2026-05-01T16:36:48.44Z</time></trkpt><trkpt lat="44.2377483" lon="11.9213883"><ele>56.42857142857142</ele><time>2026-05-01T16:36:49.441Z</time></trkpt><trkpt lat="44.237815" lon="11.9214233"><ele>56.14285714285714</ele><time>2026-05-01T16:36:50.44Z</time></trkpt><trkpt lat="44.2378833" lon="11.9214567"><ele>55.857142857142854</ele><time>2026-05-01T16:36:51.44Z</time></trkpt><trkpt lat="44.2379483" lon="11.9215033"><ele>55.57142857142857</ele><time>2026-05-01T16:36:52.441Z</time></trkpt><trkpt lat="44.2380167" lon="11.92154"><ele>55.28571428571428</ele><time>2026-05-01T16:36:53.44Z</time></trkpt><trkpt lat="44.238085" lon="11.92158"><ele>55.0</ele><time>2026-05-01T16:36:54.44Z</time></trkpt><trkpt lat="44.238155" lon="11.921625"><ele>54.857142857142854</ele><time>2026-05-01T16:36:55.439Z</time></trkpt><trkpt lat="44.2382233" lon="11.9216533"><ele>54.714285714285715</ele><time>2026-05-01T16:36:56.44Z</time></trkpt><trkpt lat="44.2382917" lon="11.92169"><ele>54.57142857142857</ele><time>2026-05-01T16:36:57.44Z</time></trkpt><trkpt lat="44.23836" lon="11.921725"><ele>54.42857142857143</ele><time>2026-05-01T16:36:58.439Z</time></trkpt><trkpt lat="44.2384283" lon="11.92176"><ele>54.285714285714285</ele><time>2026-05-01T16:36:59.44Z</time></trkpt><trkpt lat="44.238495" lon="11.921795"><ele>54.14285714285714</ele><time>2026-05-01T16:37:00.44Z</time></trkpt><trkpt lat="44.2385667" lon="11.92183"><ele>54.0</ele><time>2026-05-01T16:37:01.441Z</time></trkpt><trkpt lat="44.2386367" lon="11.9218683"><ele>54.0</ele><time>2026-05-01T16:37:02.441Z</time></trkpt><trkpt lat="44.2387033" lon="11.92191"><ele>54.0</ele><time>2026-05-01T16:37:03.44Z</time></trkpt><trkpt lat="44.2387667" lon="11.9219483"><ele>54.0</ele><time>2026-05-01T16:37:04.44Z</time></trkpt><trkpt lat="44.2388317" lon="11.9219883"><ele>54.0</ele><time>2026-05-01T16:37:05.44Z</time></trkpt><trkpt lat="44.2388917" lon="11.9220317"><ele>54.0</ele><time>2026-05-01T16:37:06.44Z</time></trkpt><trkpt lat="44.2389483" lon="11.92208"><ele>54.0</ele><time>2026-05-01T16:37:07.44Z</time></trkpt><trkpt lat="44.2390033" lon="11.9221283"><ele>54.0</ele><time>2026-05-01T16:37:08.44Z</time></trkpt><trkpt lat="44.2390567" lon="11.9221817"><ele>54.0</ele><time>2026-05-01T16:37:09.44Z</time></trkpt><trkpt lat="44.2391583" lon="11.9222833"><ele>54.0</ele><time>2026-05-01T16:37:11.439Z</time></trkpt><trkpt lat="44.2392483" lon="11.9223917"><ele>54.0</ele><time>2026-05-01T16:37:13.44Z</time></trkpt><trkpt lat="44.239335" lon="11.922495"><ele>54.0</ele><time>2026-05-01T16:37:15.44Z</time></trkpt><trkpt lat="44.239425" lon="11.9225833"><ele>53.833333333333336</ele><time>2026-05-01T16:37:17.443Z</time></trkpt><trkpt lat="44.2395017" lon="11.9226633"><ele>53.66666666666667</ele><time>2026-05-01T16:37:19.44Z</time></trkpt><trkpt lat="44.2395733" lon="11.9227283"><ele>53.5</ele><time>2026-05-01T16:37:21.44Z</time></trkpt><trkpt lat="44.23964" lon="11.9228067"><ele>53.333333333333336</ele><time>2026-05-01T16:37:23.443Z</time></trkpt><trkpt lat="44.2397167" lon="11.9228733"><ele>53.16666666666667</ele><time>2026-05-01T16:37:25.44Z</time></trkpt><trkpt lat="44.2397833" lon="11.9229417"><ele>53.0</ele><time>2026-05-01T16:37:28.44Z</time></trkpt><trkpt lat="44.2397367" lon="11.9230017"><ele>53.00000000000001</ele><time>2026-05-01T16:37:31.439Z</time></trkpt><trkpt lat="44.239675" lon="11.923025"><ele>53.0</ele><time>2026-05-01T16:37:33.44Z</time></trkpt><trkpt lat="44.2396117" lon="11.92304"><ele>53.0</ele><time>2026-05-01T16:37:35.44Z</time></trkpt><trkpt lat="44.2395383" lon="11.923065"><ele>53.0</ele><time>2026-05-01T16:37:37.44Z</time></trkpt><trkpt lat="44.2394533" lon="11.9230933"><ele>53.00000000000001</ele><time>2026-05-01T16:37:39.439Z</time></trkpt><trkpt lat="44.2393633" lon="11.9231283"><ele>53.0</ele><time>2026-05-01T16:37:41.44Z</time></trkpt><trkpt lat="44.2392683" lon="11.923185"><ele>53.0</ele><time>2026-05-01T16:37:43.44Z</time></trkpt><trkpt lat="44.239215" lon="11.9232967"><ele>53.0</ele><time>2026-05-01T16:37:45.44Z</time></trkpt><trkpt lat="44.2392233" lon="11.9234333"><ele>53.0</ele><time>2026-05-01T16:37:47.442Z</time></trkpt><trkpt lat="44.2392533" lon="11.9235633"><ele>53.0</ele><time>2026-05-01T16:37:49.443Z</time></trkpt><trkpt lat="44.239295" lon="11.923695"><ele>53.0</ele><time>2026-05-01T16:37:51.44Z</time></trkpt><trkpt lat="44.2393283" lon="11.923805"><ele>53.00000000000001</ele><time>2026-05-01T16:37:53.442Z</time></trkpt><trkpt lat="44.23936" lon="11.9239017"><ele>53.0</ele><time>2026-05-01T16:37:55.44Z</time></trkpt><trkpt lat="44.2393983" lon="11.923995"><ele>53.0</ele><time>2026-05-01T16:37:57.44Z</time></trkpt><trkpt lat="44.2394383" lon="11.924095"><ele>53.0</ele><time>2026-05-01T16:37:59.44Z</time></trkpt><trkpt lat="44.2394683" lon="11.9242033"><ele>53.00000000000001</ele><time>2026-05-01T16:38:01.44Z</time></trkpt><trkpt lat="44.2395333" lon="11.9243067"><ele>53.0</ele><time>2026-05-01T16:38:03.439Z</time></trkpt><trkpt lat="44.2396117" lon="11.9244033"><ele>53.0</ele><time>2026-05-01T16:38:05.44Z</time></trkpt><trkpt lat="44.2397" lon="11.9245"><ele>53.0</ele><time>2026-05-01T16:38:07.441Z</time></trkpt><trkpt lat="44.2397817" lon="11.9245917"><ele>53.0</ele><time>2026-05-01T16:38:09.44Z</time></trkpt><trkpt lat="44.2398383" lon="11.92469"><ele>53.0</ele><time>2026-05-01T16:38:11.439Z</time></trkpt><trkpt lat="44.239865" lon="11.9248117"><ele>53.0</ele><time>2026-05-01T16:38:13.441Z</time></trkpt><trkpt lat="44.23985" lon="11.9249483"><ele>52.599999999999994</ele><time>2026-05-01T16:38:15.439Z</time></trkpt><trkpt lat="44.23982" lon="11.9250783"><ele>52.199999999999996</ele><time>2026-05-01T16:38:17.441Z</time></trkpt><trkpt lat="44.2397917" lon="11.9252033"><ele>51.8</ele><time>2026-05-01T16:38:19.444Z</time></trkpt><trkpt lat="44.2397517" lon="11.9253217"><ele>51.4</ele><time>2026-05-01T16:38:21.443Z</time></trkpt><trkpt lat="44.23972" lon="11.9254483"><ele>51.0</ele><time>2026-05-01T16:38:23.443Z</time></trkpt><trkpt lat="44.2396967" lon="11.9255717"><ele>51.0</ele><time>2026-05-01T16:38:25.441Z</time></trkpt><trkpt lat="44.2396617" lon="11.9256917"><ele>51.0</ele><time>2026-05-01T16:38:27.441Z</time></trkpt><trkpt lat="44.239625" lon="11.9258117"><ele>51.0</ele><time>2026-05-01T16:38:29.441Z</time></trkpt><trkpt lat="44.23958" lon="11.92593"><ele>51.0</ele><time>2026-05-01T16:38:31.442Z</time></trkpt><trkpt lat="44.23953" lon="11.9260433"><ele>51.0</ele><time>2026-05-01T16:38:33.441Z</time></trkpt><trkpt lat="44.2394833" lon="11.9261567"><ele>50.8</ele><time>2026-05-01T16:38:35.441Z</time></trkpt><trkpt lat="44.239435" lon="11.9262667"><ele>50.599999999999994</ele><time>2026-05-01T16:38:37.442Z</time></trkpt><trkpt lat="44.239395" lon="11.9263783"><ele>50.4</ele><time>2026-05-01T16:38:39.441Z</time></trkpt><trkpt lat="44.23935" lon="11.92649"><ele>50.2</ele><time>2026-05-01T16:38:41.441Z</time></trkpt><trkpt lat="44.2393067" lon="11.9266"><ele>50.0</ele><time>2026-05-01T16:38:43.441Z</time></trkpt><trkpt lat="44.2392583" lon="11.9267067"><ele>50.333333333333336</ele><time>2026-05-01T16:38:45.442Z</time></trkpt><trkpt lat="44.2392117" lon="11.9268167"><ele>50.66666666666667</ele><time>2026-05-01T16:38:47.443Z</time></trkpt><trkpt lat="44.239165" lon="11.9269217"><ele>51.0</ele><time>2026-05-01T16:38:49.442Z</time></trkpt><trkpt lat="44.23912" lon="11.9270233"><ele>51.33333333333333</ele><time>2026-05-01T16:38:51.443Z</time></trkpt><trkpt lat="44.2390783" lon="11.9271317"><ele>51.666666666666664</ele><time>2026-05-01T16:38:53.443Z</time></trkpt><trkpt lat="44.23904" lon="11.9272383"><ele>52.0</ele><time>2026-05-01T16:38:55.439Z</time></trkpt><trkpt lat="44.2389933" lon="11.9273483"><ele>51.99999999999999</ele><time>2026-05-01T16:38:57.439Z</time></trkpt><trkpt lat="44.2389483" lon="11.9274533"><ele>52.0</ele><time>2026-05-01T16:38:59.44Z</time></trkpt><trkpt lat="44.238905" lon="11.927565"><ele>52.0</ele><time>2026-05-01T16:39:01.44Z</time></trkpt><trkpt lat="44.238865" lon="11.927675"><ele>52.0</ele><time>2026-05-01T16:39:03.439Z</time></trkpt><trkpt lat="44.2388217" lon="11.927785"><ele>51.99999999999999</ele><time>2026-05-01T16:39:05.44Z</time></trkpt><trkpt lat="44.23878" lon="11.9278917"><ele>52.0</ele><time>2026-05-01T16:39:07.441Z</time></trkpt><trkpt lat="44.2387383" lon="11.928"><ele>51.99999999999999</ele><time>2026-05-01T16:39:09.439Z</time></trkpt><trkpt lat="44.238695" lon="11.92811"><ele>52.0</ele><time>2026-05-01T16:39:11.44Z</time></trkpt><trkpt lat="44.2386583" lon="11.9282233"><ele>52.0</ele><time>2026-05-01T16:39:13.439Z</time></trkpt><trkpt lat="44.2386167" lon="11.9283267"><ele>52.0</ele><time>2026-05-01T16:39:15.44Z</time></trkpt><trkpt lat="44.23857" lon="11.9284283"><ele>51.99999999999999</ele><time>2026-05-01T16:39:17.44Z</time></trkpt><trkpt lat="44.2385283" lon="11.92853"><ele>52.0</ele><time>2026-05-01T16:39:19.44Z</time></trkpt><trkpt lat="44.238485" lon="11.9286283"><ele>51.99999999999999</ele><time>2026-05-01T16:39:21.44Z</time></trkpt><trkpt lat="44.238435" lon="11.9287267"><ele>52.0</ele><time>2026-05-01T16:39:23.44Z</time></trkpt><trkpt lat="44.2383833" lon="11.9288183"><ele>52.0</ele><time>2026-05-01T16:39:25.44Z</time></trkpt><trkpt lat="44.23832" lon="11.9288983"><ele>52.0</ele><time>2026-05-01T16:39:27.439Z</time></trkpt><trkpt lat="44.2382483" lon="11.92896"><ele>51.99999999999999</ele><time>2026-05-01T16:39:29.44Z</time></trkpt><trkpt lat="44.2381733" lon="11.9290067"><ele>52.0</ele><time>2026-05-01T16:39:31.441Z</time></trkpt><trkpt lat="44.2380967" lon="11.929035"><ele>52.666666666666664</ele><time>2026-05-01T16:39:33.439Z</time></trkpt><trkpt lat="44.2380167" lon="11.9290383"><ele>53.33333333333333</ele><time>2026-05-01T16:39:35.44Z</time></trkpt><trkpt lat="44.2379433" lon="11.9290233"><ele>54.0</ele><time>2026-05-01T16:39:37.439Z</time></trkpt><trkpt lat="44.2378633" lon="11.9290183"><ele>54.66666666666667</ele><time>2026-05-01T16:39:39.439Z</time></trkpt><trkpt lat="44.2377867" lon="11.9290067"><ele>55.333333333333336</ele><time>2026-05-01T16:39:41.44Z</time></trkpt><trkpt lat="44.23771" lon="11.929"><ele>56.0</ele><time>2026-05-01T16:39:43.441Z</time></trkpt><trkpt lat="44.237635" lon="11.9289917"><ele>56.0</ele><time>2026-05-01T16:39:45.44Z</time></trkpt><trkpt lat="44.2375617" lon="11.9289917"><ele>56.0</ele><time>2026-05-01T16:39:47.443Z</time></trkpt><trkpt lat="44.2374833" lon="11.9289867"><ele>56.0</ele><time>2026-05-01T16:39:49.439Z</time></trkpt><trkpt lat="44.2374083" lon="11.9289833"><ele>56.0</ele><time>2026-05-01T16:39:51.44Z</time></trkpt><trkpt lat="44.2373383" lon="11.92898"><ele>56.0</ele><time>2026-05-01T16:39:53.439Z</time></trkpt><trkpt lat="44.237265" lon="11.9289717"><ele>56.0</ele><time>2026-05-01T16:39:55.44Z</time></trkpt><trkpt lat="44.237195" lon="11.9289567"><ele>56.0</ele><time>2026-05-01T16:39:57.439Z</time></trkpt><trkpt lat="44.237125" lon="11.9289483"><ele>56.285714285714285</ele><time>2026-05-01T16:39:59.439Z</time></trkpt><trkpt lat="44.2370533" lon="11.9289383"><ele>56.57142857142857</ele><time>2026-05-01T16:40:01.44Z</time></trkpt><trkpt lat="44.2369883" lon="11.92893"><ele>56.85714285714286</ele><time>2026-05-01T16:40:03.439Z</time></trkpt><trkpt lat="44.2369217" lon="11.928925"><ele>57.142857142857146</ele><time>2026-05-01T16:40:05.439Z</time></trkpt><trkpt lat="44.2368567" lon="11.9289167"><ele>57.42857142857143</ele><time>2026-05-01T16:40:07.44Z</time></trkpt><trkpt lat="44.2367917" lon="11.9289033"><ele>57.71428571428572</ele><time>2026-05-01T16:40:09.441Z</time></trkpt><trkpt lat="44.23672" lon="11.9288967"><ele>58.00000000000001</ele><time>2026-05-01T16:40:11.44Z</time></trkpt><trkpt lat="44.236645" lon="11.9288933"><ele>58.00000000000001</ele><time>2026-05-01T16:40:13.44Z</time></trkpt><trkpt lat="44.236575" lon="11.92888"><ele>58.0</ele><time>2026-05-01T16:40:15.44Z</time></trkpt><trkpt lat="44.2364983" lon="11.928875"><ele>58.00000000000001</ele><time>2026-05-01T16:40:17.443Z</time></trkpt><trkpt lat="44.2364283" lon="11.9288683"><ele>58.00000000000001</ele><time>2026-05-01T16:40:19.44Z</time></trkpt><trkpt lat="44.2363583" lon="11.9288617"><ele>58.0</ele><time>2026-05-01T16:40:21.44Z</time></trkpt><trkpt lat="44.2362817" lon="11.92886"><ele>58.00000000000001</ele><time>2026-05-01T16:40:23.44Z</time></trkpt><trkpt lat="44.2362133" lon="11.9288533"><ele>58.00000000000001</ele><time>2026-05-01T16:40:25.44Z</time></trkpt><trkpt lat="44.2361433" lon="11.9288467"><ele>58.28571428571429</ele><time>2026-05-01T16:40:27.442Z</time></trkpt><trkpt lat="44.2360733" lon="11.9288417"><ele>58.57142857142857</ele><time>2026-05-01T16:40:29.44Z</time></trkpt><trkpt lat="44.236005" lon="11.9288367"><ele>58.85714285714286</ele><time>2026-05-01T16:40:31.44Z</time></trkpt><trkpt lat="44.2359317" lon="11.9288283"><ele>59.142857142857146</ele><time>2026-05-01T16:40:33.441Z</time></trkpt><trkpt lat="44.2358583" lon="11.9288217"><ele>59.42857142857143</ele><time>2026-05-01T16:40:35.441Z</time></trkpt><trkpt lat="44.2357867" lon="11.9288167"><ele>59.714285714285715</ele><time>2026-05-01T16:40:37.44Z</time></trkpt><trkpt lat="44.2357183" lon="11.92881"><ele>60.0</ele><time>2026-05-01T16:40:39.441Z</time></trkpt><trkpt lat="44.2356483" lon="11.9288017"><ele>60.28571428571429</ele><time>2026-05-01T16:40:41.441Z</time></trkpt><trkpt lat="44.2355783" lon="11.9288033"><ele>60.57142857142857</ele><time>2026-05-01T16:40:43.439Z</time></trkpt><trkpt lat="44.2355083" lon="11.928795"><ele>60.85714285714286</ele><time>2026-05-01T16:40:45.439Z</time></trkpt><trkpt lat="44.23544" lon="11.928795"><ele>61.142857142857146</ele><time>2026-05-01T16:40:47.442Z</time></trkpt><trkpt lat="44.235375" lon="11.9287817"><ele>61.42857142857143</ele><time>2026-05-01T16:40:49.441Z</time></trkpt><trkpt lat="44.2353083" lon="11.9287733"><ele>61.714285714285715</ele><time>2026-05-01T16:40:51.439Z</time></trkpt><trkpt lat="44.2352383" lon="11.9287717"><ele>62.0</ele><time>2026-05-01T16:40:53.441Z</time></trkpt><trkpt lat="44.2351683" lon="11.9287633"><ele>62.0</ele><time>2026-05-01T16:40:55.441Z</time></trkpt><trkpt lat="44.2351" lon="11.928755"><ele>62.00000000000001</ele><time>2026-05-01T16:40:57.44Z</time></trkpt><trkpt lat="44.2350283" lon="11.9287567"><ele>62.0</ele><time>2026-05-01T16:40:59.439Z</time></trkpt><trkpt lat="44.2349583" lon="11.9287517"><ele>62.0</ele><time>2026-05-01T16:41:01.44Z</time></trkpt><trkpt lat="44.2348883" lon="11.9287517"><ele>62.00000000000001</ele><time>2026-05-01T16:41:03.442Z</time></trkpt><trkpt lat="44.2348167" lon="11.928755"><ele>62.0</ele><time>2026-05-01T16:41:05.439Z</time></trkpt><trkpt lat="44.2347267" lon="11.928745"><ele>62.0</ele><time>2026-05-01T16:41:08.442Z</time></trkpt><trkpt lat="44.2346367" lon="11.9287217"><ele>62.42857142857143</ele><time>2026-05-01T16:41:11.439Z</time></trkpt><trkpt lat="44.23457" lon="11.9287117"><ele>62.85714285714286</ele><time>2026-05-01T16:41:13.44Z</time></trkpt><trkpt lat="44.2345067" lon="11.92871"><ele>63.28571428571429</ele><time>2026-05-01T16:41:15.441Z</time></trkpt><trkpt lat="44.2344133" lon="11.9287"><ele>63.71428571428572</ele><time>2026-05-01T16:41:18.441Z</time></trkpt><trkpt lat="44.23435" lon="11.9287"><ele>64.14285714285714</ele><time>2026-05-01T16:41:20.441Z</time></trkpt><trkpt lat="44.2342867" lon="11.9287"><ele>64.57142857142858</ele><time>2026-05-01T16:41:22.443Z</time></trkpt><trkpt lat="44.23422" lon="11.9286983"><ele>65.0</ele><time>2026-05-01T16:41:24.44Z</time></trkpt><trkpt lat="44.234155" lon="11.9287017"><ele>65.00000000000001</ele><time>2026-05-01T16:41:26.442Z</time></trkpt><trkpt lat="44.2340867" lon="11.9287017"><ele>65.0</ele><time>2026-05-01T16:41:28.441Z</time></trkpt><trkpt lat="44.23402" lon="11.92871"><ele>65.0</ele><time>2026-05-01T16:41:30.441Z</time></trkpt><trkpt lat="44.2339533" lon="11.9287183"><ele>65.0</ele><time>2026-05-01T16:41:32.443Z</time></trkpt><trkpt lat="44.233885" lon="11.9287383"><ele>65.0</ele><time>2026-05-01T16:41:34.441Z</time></trkpt><trkpt lat="44.23382" lon="11.92875"><ele>65.00000000000001</ele><time>2026-05-01T16:41:36.441Z</time></trkpt><trkpt lat="44.2337517" lon="11.92876"><ele>65.0</ele><time>2026-05-01T16:41:38.442Z</time></trkpt><trkpt lat="44.2336567" lon="11.9287767"><ele>65.57142857142858</ele><time>2026-05-01T16:41:41.44Z</time></trkpt><trkpt lat="44.2335917" lon="11.9287967"><ele>66.14285714285714</ele><time>2026-05-01T16:41:43.442Z</time></trkpt><trkpt lat="44.2335283" lon="11.9288117"><ele>66.71428571428572</ele><time>2026-05-01T16:41:45.442Z</time></trkpt><trkpt lat="44.2334617" lon="11.9288233"><ele>67.28571428571429</ele><time>2026-05-01T16:41:47.44Z</time></trkpt><trkpt lat="44.233395" lon="11.92884"><ele>67.85714285714286</ele><time>2026-05-01T16:41:49.44Z</time></trkpt><trkpt lat="44.23333" lon="11.9288533"><ele>68.42857142857143</ele><time>2026-05-01T16:41:51.439Z</time></trkpt><trkpt lat="44.2332367" lon="11.9288733"><ele>69.0</ele><time>2026-05-01T16:41:54.44Z</time></trkpt><trkpt lat="44.2331717" lon="11.9288867"><ele>69.42857142857143</ele><time>2026-05-01T16:41:56.439Z</time></trkpt><trkpt lat="44.2331067" lon="11.9289017"><ele>69.85714285714286</ele><time>2026-05-01T16:41:58.44Z</time></trkpt><trkpt lat="44.2330383" lon="11.928915"><ele>70.28571428571429</ele><time>2026-05-01T16:42:00.44Z</time></trkpt><trkpt lat="44.2329733" lon="11.9289283"><ele>70.71428571428572</ele><time>2026-05-01T16:42:02.44Z</time></trkpt><trkpt lat="44.2329067" lon="11.9289367"><ele>71.14285714285714</ele><time>2026-05-01T16:42:04.439Z</time></trkpt><trkpt lat="44.2328383" lon="11.9289483"><ele>71.57142857142858</ele><time>2026-05-01T16:42:06.441Z</time></trkpt><trkpt lat="44.23277" lon="11.9289667"><ele>72.0</ele><time>2026-05-01T16:42:08.44Z</time></trkpt><trkpt lat="44.2327017" lon="11.9289833"><ele>72.00000000000001</ele><time>2026-05-01T16:42:10.44Z</time></trkpt><trkpt lat="44.232635" lon="11.928995"><ele>72.0</ele><time>2026-05-01T16:42:12.44Z</time></trkpt><trkpt lat="44.23257" lon="11.929"><ele>72.0</ele><time>2026-05-01T16:42:14.439Z</time></trkpt><trkpt lat="44.2325033" lon="11.92901"><ele>72.0</ele><time>2026-05-01T16:42:16.44Z</time></trkpt><trkpt lat="44.2324367" lon="11.9290217"><ele>72.0</ele><time>2026-05-01T16:42:18.439Z</time></trkpt><trkpt lat="44.2323683" lon="11.9290383"><ele>72.00000000000001</ele><time>2026-05-01T16:42:20.439Z</time></trkpt><trkpt lat="44.2322983" lon="11.9290533"><ele>72.0</ele><time>2026-05-01T16:42:22.44Z</time></trkpt><trkpt lat="44.232225" lon="11.929065"><ele>72.42857142857143</ele><time>2026-05-01T16:42:24.442Z</time></trkpt><trkpt lat="44.2321583" lon="11.9290817"><ele>72.85714285714286</ele><time>2026-05-01T16:42:26.44Z</time></trkpt><trkpt lat="44.232095" lon="11.9290933"><ele>73.28571428571428</ele><time>2026-05-01T16:42:28.44Z</time></trkpt><trkpt lat="44.2320317" lon="11.92911"><ele>73.71428571428572</ele><time>2026-05-01T16:42:30.439Z</time></trkpt><trkpt lat="44.2319667" lon="11.9291233"><ele>74.14285714285714</ele><time>2026-05-01T16:42:32.441Z</time></trkpt><trkpt lat="44.2319033" lon="11.92913"><ele>74.57142857142857</ele><time>2026-05-01T16:42:34.44Z</time></trkpt><trkpt lat="44.231835" lon="11.9291383"><ele>75.0</ele><time>2026-05-01T16:42:36.44Z</time></trkpt><trkpt lat="44.2317433" lon="11.92917"><ele>75.0</ele><time>2026-05-01T16:42:39.438Z</time></trkpt><trkpt lat="44.2316483" lon="11.929195"><ele>75.0</ele><time>2026-05-01T16:42:42.438Z</time></trkpt><trkpt lat="44.2315567" lon="11.92921"><ele>75.0</ele><time>2026-05-01T16:42:45.442Z</time></trkpt><trkpt lat="44.2314933" lon="11.92921"><ele>75.0</ele><time>2026-05-01T16:42:47.442Z</time></trkpt><trkpt lat="44.2314267" lon="11.9292233"><ele>75.0</ele><time>2026-05-01T16:42:49.442Z</time></trkpt><trkpt lat="44.23136" lon="11.92924"><ele>75.0</ele><time>2026-05-01T16:42:51.438Z</time></trkpt><trkpt lat="44.2312917" lon="11.9292617"><ele>74.57142857142857</ele><time>2026-05-01T16:42:53.438Z</time></trkpt><trkpt lat="44.2312267" lon="11.9292833"><ele>74.14285714285714</ele><time>2026-05-01T16:42:55.439Z</time></trkpt><trkpt lat="44.2311583" lon="11.9293083"><ele>73.71428571428572</ele><time>2026-05-01T16:42:57.439Z</time></trkpt><trkpt lat="44.2310933" lon="11.929325"><ele>73.28571428571428</ele><time>2026-05-01T16:42:59.438Z</time></trkpt><trkpt lat="44.2310267" lon="11.9293417"><ele>72.85714285714286</ele><time>2026-05-01T16:43:01.44Z</time></trkpt><trkpt lat="44.2309333" lon="11.9293517"><ele>72.42857142857143</ele><time>2026-05-01T16:43:04.44Z</time></trkpt><trkpt lat="44.230865" lon="11.9293683"><ele>72.0</ele><time>2026-05-01T16:43:06.439Z</time></trkpt><trkpt lat="44.2308017" lon="11.929385"><ele>72.0</ele><time>2026-05-01T16:43:08.44Z</time></trkpt><trkpt lat="44.2307083" lon="11.9293967"><ele>72.0</ele><time>2026-05-01T16:43:11.44Z</time></trkpt><trkpt lat="44.2306183" lon="11.9294183"><ele>72.0</ele><time>2026-05-01T16:43:14.438Z</time></trkpt><trkpt lat="44.230535" lon="11.92944"><ele>72.0</ele><time>2026-05-01T16:43:17.443Z</time></trkpt><trkpt lat="44.2304483" lon="11.9294383"><ele>72.0</ele><time>2026-05-01T16:43:20.44Z</time></trkpt><trkpt lat="44.230365" lon="11.9294567"><ele>72.0</ele><time>2026-05-01T16:43:23.442Z</time></trkpt><trkpt lat="44.2302783" lon="11.929475"><ele>72.0</ele><time>2026-05-01T16:43:26.438Z</time></trkpt><trkpt lat="44.2301867" lon="11.9294933"><ele>72.0</ele><time>2026-05-01T16:43:29.439Z</time></trkpt><trkpt lat="44.2300967" lon="11.9295217"><ele>72.0</ele><time>2026-05-01T16:43:32.44Z</time></trkpt><trkpt lat="44.2300017" lon="11.9295467"><ele>72.0</ele><time>2026-05-01T16:43:35.44Z</time></trkpt><trkpt lat="44.2299383" lon="11.929575"><ele>72.0</ele><time>2026-05-01T16:43:37.44Z</time></trkpt><trkpt lat="44.2298733" lon="11.9296067"><ele>72.0</ele><time>2026-05-01T16:43:39.438Z</time></trkpt><trkpt lat="44.2298017" lon="11.9296383"><ele>72.33333333333333</ele><time>2026-05-01T16:43:41.439Z</time></trkpt><trkpt lat="44.229725" lon="11.9296817"><ele>72.66666666666667</ele><time>2026-05-01T16:43:43.439Z</time></trkpt><trkpt lat="44.229645" lon="11.9297383"><ele>73.0</ele><time>2026-05-01T16:43:45.439Z</time></trkpt><trkpt lat="44.22957" lon="11.92981"><ele>73.33333333333334</ele><time>2026-05-01T16:43:47.443Z</time></trkpt><trkpt lat="44.22949" lon="11.9298817"><ele>73.66666666666667</ele><time>2026-05-01T16:43:49.443Z</time></trkpt><trkpt lat="44.22942" lon="11.9299617"><ele>74.0</ele><time>2026-05-01T16:43:51.442Z</time></trkpt><trkpt lat="44.2293683" lon="11.9300367"><ele>74.0</ele><time>2026-05-01T16:43:53.442Z</time></trkpt><trkpt lat="44.2293183" lon="11.9301117"><ele>74.0</ele><time>2026-05-01T16:43:55.44Z</time></trkpt><trkpt lat="44.22927" lon="11.9301933"><ele>74.0</ele><time>2026-05-01T16:43:57.439Z</time></trkpt><trkpt lat="44.2292333" lon="11.9302717"><ele>74.0</ele><time>2026-05-01T16:43:59.44Z</time></trkpt><trkpt lat="44.2291917" lon="11.93034"><ele>74.0</ele><time>2026-05-01T16:44:01.442Z</time></trkpt><trkpt lat="44.2291433" lon="11.9304383"><ele>74.0</ele><time>2026-05-01T16:44:04.44Z</time></trkpt><trkpt lat="44.2290933" lon="11.9305383"><ele>74.0</ele><time>2026-05-01T16:44:07.441Z</time></trkpt><trkpt lat="44.2290483" lon="11.9306317"><ele>74.0</ele><time>2026-05-01T16:44:10.44Z</time></trkpt><trkpt lat="44.2290017" lon="11.9307133"><ele>74.0</ele><time>2026-05-01T16:44:13.441Z</time></trkpt><trkpt lat="44.228955" lon="11.9308017"><ele>74.0</ele><time>2026-05-01T16:44:16.441Z</time></trkpt><trkpt lat="44.228905" lon="11.930895"><ele>74.0</ele><time>2026-05-01T16:44:19.442Z</time></trkpt><trkpt lat="44.2288583" lon="11.9309767"><ele>74.0</ele><time>2026-05-01T16:44:22.442Z</time></trkpt><trkpt lat="44.2288233" lon="11.9310517"><ele>75.0</ele><time>2026-05-01T16:44:24.442Z</time></trkpt><trkpt lat="44.2287783" lon="11.931145"><ele>76.0</ele><time>2026-05-01T16:44:27.439Z</time></trkpt><trkpt lat="44.22872" lon="11.9312333"><ele>77.0</ele><time>2026-05-01T16:44:30.439Z</time></trkpt><trkpt lat="44.2286733" lon="11.93133"><ele>78.0</ele><time>2026-05-01T16:44:33.439Z</time></trkpt><trkpt lat="44.2286183" lon="11.9314183"><ele>79.0</ele><time>2026-05-01T16:44:36.441Z</time></trkpt><trkpt lat="44.22857" lon="11.93151"><ele>80.0</ele><time>2026-05-01T16:44:39.439Z</time></trkpt><trkpt lat="44.2285283" lon="11.9316017"><ele>80.0</ele><time>2026-05-01T16:44:42.439Z</time></trkpt><trkpt lat="44.2284833" lon="11.9316867"><ele>80.0</ele><time>2026-05-01T16:44:45.439Z</time></trkpt><trkpt lat="44.2284267" lon="11.931765"><ele>80.0</ele><time>2026-05-01T16:44:48.441Z</time></trkpt><trkpt lat="44.228365" lon="11.9317967"><ele>80.0</ele><time>2026-05-01T16:44:51.442Z</time></trkpt><trkpt lat="44.2282867" lon="11.9317567"><ele>80.0</ele><time>2026-05-01T16:44:54.442Z</time></trkpt><trkpt lat="44.22822" lon="11.931695"><ele>80.0</ele><time>2026-05-01T16:44:57.44Z</time></trkpt><trkpt lat="44.2281533" lon="11.9316233"><ele>80.66666666666667</ele><time>2026-05-01T16:45:00.441Z</time></trkpt><trkpt lat="44.22809" lon="11.93156"><ele>81.33333333333334</ele><time>2026-05-01T16:45:03.441Z</time></trkpt><trkpt lat="44.2280117" lon="11.9315217"><ele>82.0</ele><time>2026-05-01T16:45:06.44Z</time></trkpt><trkpt lat="44.227935" lon="11.9315217"><ele>82.66666666666667</ele><time>2026-05-01T16:45:09.441Z</time></trkpt><trkpt lat="44.227865" lon="11.93155"><ele>83.33333333333333</ele><time>2026-05-01T16:45:12.441Z</time></trkpt><trkpt lat="44.2277933" lon="11.9315983"><ele>84.0</ele><time>2026-05-01T16:45:15.441Z</time></trkpt><trkpt lat="44.2277267" lon="11.93165"><ele>84.0</ele><time>2026-05-01T16:45:18.443Z</time></trkpt><trkpt lat="44.22766" lon="11.9317"><ele>84.0</ele><time>2026-05-01T16:45:21.442Z</time></trkpt><trkpt lat="44.227585" lon="11.9317583"><ele>84.0</ele><time>2026-05-01T16:45:24.44Z</time></trkpt><trkpt lat="44.227515" lon="11.9318117"><ele>84.0</ele><time>2026-05-01T16:45:27.44Z</time></trkpt><trkpt lat="44.2274383" lon="11.9318633"><ele>84.0</ele><time>2026-05-01T16:45:30.44Z</time></trkpt><trkpt lat="44.2273683" lon="11.9319233"><ele>84.0</ele><time>2026-05-01T16:45:33.44Z</time></trkpt><trkpt lat="44.2272867" lon="11.9319833"><ele>83.71428571428571</ele><time>2026-05-01T16:45:36.44Z</time></trkpt><trkpt lat="44.2272317" lon="11.9320267"><ele>83.42857142857143</ele><time>2026-05-01T16:45:38.439Z</time></trkpt><trkpt lat="44.227175" lon="11.9320667"><ele>83.14285714285714</ele><time>2026-05-01T16:45:40.439Z</time></trkpt><trkpt lat="44.2271117" lon="11.9321167"><ele>82.85714285714286</ele><time>2026-05-01T16:45:42.44Z</time></trkpt><trkpt lat="44.227025" lon="11.9321667"><ele>82.57142857142857</ele><time>2026-05-01T16:45:45.439Z</time></trkpt><trkpt lat="44.2269583" lon="11.9321983"><ele>82.28571428571428</ele><time>2026-05-01T16:45:47.442Z</time></trkpt><trkpt lat="44.22689" lon="11.9322367"><ele>82.0</ele><time>2026-05-01T16:45:49.441Z</time></trkpt><trkpt lat="44.226815" lon="11.93227"><ele>82.0</ele><time>2026-05-01T16:45:51.439Z</time></trkpt><trkpt lat="44.2267417" lon="11.9323067"><ele>82.0</ele><time>2026-05-01T16:45:53.44Z</time></trkpt><trkpt lat="44.2266767" lon="11.9323367"><ele>82.0</ele><time>2026-05-01T16:45:55.439Z</time></trkpt><trkpt lat="44.2266033" lon="11.932375"><ele>82.0</ele><time>2026-05-01T16:45:57.44Z</time></trkpt><trkpt lat="44.2265233" lon="11.9324033"><ele>82.0</ele><time>2026-05-01T16:45:59.44Z</time></trkpt><trkpt lat="44.2264517" lon="11.93243"><ele>82.0</ele><time>2026-05-01T16:46:01.44Z</time></trkpt><trkpt lat="44.2263717" lon="11.9324717"><ele>81.83333333333333</ele><time>2026-05-01T16:46:03.44Z</time></trkpt><trkpt lat="44.2262983" lon="11.9325167"><ele>81.66666666666666</ele><time>2026-05-01T16:46:05.44Z</time></trkpt><trkpt lat="44.2262283" lon="11.9325533"><ele>81.5</ele><time>2026-05-01T16:46:07.44Z</time></trkpt><trkpt lat="44.22616" lon="11.9325917"><ele>81.33333333333333</ele><time>2026-05-01T16:46:09.44Z</time></trkpt><trkpt lat="44.2260933" lon="11.93264"><ele>81.16666666666667</ele><time>2026-05-01T16:46:11.44Z</time></trkpt><trkpt lat="44.2260333" lon="11.9327067"><ele>81.0</ele><time>2026-05-01T16:46:13.44Z</time></trkpt><trkpt lat="44.2260117" lon="11.93281"><ele>81.0</ele><time>2026-05-01T16:46:15.44Z</time></trkpt><trkpt lat="44.2260217" lon="11.9329383"><ele>81.0</ele><time>2026-05-01T16:46:17.443Z</time></trkpt><trkpt lat="44.2260567" lon="11.9330617"><ele>81.0</ele><time>2026-05-01T16:46:19.441Z</time></trkpt><trkpt lat="44.2260933" lon="11.9331933"><ele>81.0</ele><time>2026-05-01T16:46:21.439Z</time></trkpt><trkpt lat="44.2261333" lon="11.9333333"><ele>81.0</ele><time>2026-05-01T16:46:23.439Z</time></trkpt><trkpt lat="44.2261767" lon="11.9334733"><ele>80.6</ele><time>2026-05-01T16:46:25.44Z</time></trkpt><trkpt lat="44.22622" lon="11.93361"><ele>80.19999999999999</ele><time>2026-05-01T16:46:27.44Z</time></trkpt><trkpt lat="44.226265" lon="11.93375"><ele>79.80000000000001</ele><time>2026-05-01T16:46:29.439Z</time></trkpt><trkpt lat="44.22631" lon="11.9338967"><ele>79.4</ele><time>2026-05-01T16:46:31.441Z</time></trkpt><trkpt lat="44.2263617" lon="11.9340383"><ele>79.0</ele><time>2026-05-01T16:46:33.439Z</time></trkpt><trkpt lat="44.2264017" lon="11.93418"><ele>78.60000000000001</ele><time>2026-05-01T16:46:35.439Z</time></trkpt><trkpt lat="44.226415" lon="11.9343267"><ele>78.2</ele><time>2026-05-01T16:46:37.441Z</time></trkpt><trkpt lat="44.2263767" lon="11.934465"><ele>77.80000000000001</ele><time>2026-05-01T16:46:39.44Z</time></trkpt><trkpt lat="44.2263117" lon="11.934595"><ele>77.4</ele><time>2026-05-01T16:46:41.438Z</time></trkpt><trkpt lat="44.2262467" lon="11.9347117"><ele>77.0</ele><time>2026-05-01T16:46:43.44Z</time></trkpt><trkpt lat="44.22622" lon="11.9348167"><ele>77.0</ele><time>2026-05-01T16:46:45.44Z</time></trkpt><trkpt lat="44.226245" lon="11.9349283"><ele>77.0</ele><time>2026-05-01T16:46:47.443Z</time></trkpt><trkpt lat="44.2262883" lon="11.9350483"><ele>77.0</ele><time>2026-05-01T16:46:49.44Z</time></trkpt><trkpt lat="44.2263283" lon="11.9351767"><ele>77.0</ele><time>2026-05-01T16:46:51.438Z</time></trkpt><trkpt lat="44.226365" lon="11.935305"><ele>77.0</ele><time>2026-05-01T16:46:53.439Z</time></trkpt><trkpt lat="44.2264033" lon="11.935435"><ele>76.4</ele><time>2026-05-01T16:46:55.44Z</time></trkpt><trkpt lat="44.22644" lon="11.9355717"><ele>75.80000000000001</ele><time>2026-05-01T16:46:57.44Z</time></trkpt><trkpt lat="44.2264833" lon="11.9357017"><ele>75.2</ele><time>2026-05-01T16:46:59.439Z</time></trkpt><trkpt lat="44.2265167" lon="11.93583"><ele>74.60000000000001</ele><time>2026-05-01T16:47:01.439Z</time></trkpt><trkpt lat="44.2265367" lon="11.9359667"><ele>74.0</ele><time>2026-05-01T16:47:03.44Z</time></trkpt><trkpt lat="44.2265417" lon="11.9361267"><ele>72.0</ele><time>2026-05-01T16:47:05.44Z</time></trkpt><trkpt lat="44.2265433" lon="11.9362967"><ele>70.0</ele><time>2026-05-01T16:47:07.44Z</time></trkpt><trkpt lat="44.2265483" lon="11.9364683"><ele>68.0</ele><time>2026-05-01T16:47:09.44Z</time></trkpt><trkpt lat="44.226555" lon="11.9366417"><ele>66.0</ele><time>2026-05-01T16:47:11.439Z</time></trkpt><trkpt lat="44.2265583" lon="11.9368167"><ele>65.5</ele><time>2026-05-01T16:47:13.439Z</time></trkpt><trkpt lat="44.2265583" lon="11.9369883"><ele>65.0</ele><time>2026-05-01T16:47:15.439Z</time></trkpt><trkpt lat="44.2265567" lon="11.9371467"><ele>64.5</ele><time>2026-05-01T16:47:17.443Z</time></trkpt><trkpt lat="44.2265467" lon="11.9373033"><ele>64.0</ele><time>2026-05-01T16:47:19.439Z</time></trkpt><trkpt lat="44.22651" lon="11.9374483"><ele>63.33333333333333</ele><time>2026-05-01T16:47:21.439Z</time></trkpt><trkpt lat="44.2264433" lon="11.9375967"><ele>62.666666666666664</ele><time>2026-05-01T16:47:23.438Z</time></trkpt><trkpt lat="44.2264033" lon="11.9376733"><ele>62.0</ele><time>2026-05-01T16:47:24.44Z</time></trkpt><trkpt lat="44.2263667" lon="11.937755"><ele>61.33333333333333</ele><time>2026-05-01T16:47:25.44Z</time></trkpt><trkpt lat="44.22633" lon="11.9378367"><ele>60.666666666666664</ele><time>2026-05-01T16:47:26.44Z</time></trkpt><trkpt lat="44.22629" lon="11.93792"><ele>60.0</ele><time>2026-05-01T16:47:27.44Z</time></trkpt><trkpt lat="44.2262517" lon="11.9380017"><ele>60.0</ele><time>2026-05-01T16:47:28.439Z</time></trkpt><trkpt lat="44.226215" lon="11.9380833"><ele>60.0</ele><time>2026-05-01T16:47:29.441Z</time></trkpt><trkpt lat="44.2261767" lon="11.93817"><ele>60.0</ele><time>2026-05-01T16:47:30.44Z</time></trkpt><trkpt lat="44.2261367" lon="11.938255"><ele>60.0</ele><time>2026-05-01T16:47:31.44Z</time></trkpt><trkpt lat="44.2261" lon="11.93834"><ele>60.0</ele><time>2026-05-01T16:47:32.439Z</time></trkpt><trkpt lat="44.22606" lon="11.9384267"><ele>60.0</ele><time>2026-05-01T16:47:33.44Z</time></trkpt><trkpt lat="44.2260217" lon="11.9385117"><ele>60.0</ele><time>2026-05-01T16:47:34.439Z</time></trkpt><trkpt lat="44.2259783" lon="11.9385983"><ele>59.5</ele><time>2026-05-01T16:47:35.439Z</time></trkpt><trkpt lat="44.225935" lon="11.9386867"><ele>59.0</ele><time>2026-05-01T16:47:36.44Z</time></trkpt><trkpt lat="44.225895" lon="11.938775"><ele>58.5</ele><time>2026-05-01T16:47:37.439Z</time></trkpt><trkpt lat="44.2258533" lon="11.9388633"><ele>58.0</ele><time>2026-05-01T16:47:38.439Z</time></trkpt><trkpt lat="44.2258133" lon="11.9389517"><ele>57.5</ele><time>2026-05-01T16:47:39.439Z</time></trkpt><trkpt lat="44.2257717" lon="11.9390433"><ele>57.0</ele><time>2026-05-01T16:47:40.44Z</time></trkpt><trkpt lat="44.2257283" lon="11.939135"><ele>56.666666666666664</ele><time>2026-05-01T16:47:41.44Z</time></trkpt><trkpt lat="44.2256867" lon="11.9392267"><ele>56.33333333333333</ele><time>2026-05-01T16:47:42.44Z</time></trkpt><trkpt lat="44.2256433" lon="11.9393233"><ele>56.0</ele><time>2026-05-01T16:47:43.439Z</time></trkpt><trkpt lat="44.2256" lon="11.93942"><ele>55.666666666666664</ele><time>2026-05-01T16:47:44.44Z</time></trkpt><trkpt lat="44.2255583" lon="11.939515"><ele>55.33333333333333</ele><time>2026-05-01T16:47:45.44Z</time></trkpt><trkpt lat="44.225515" lon="11.9396133"><ele>55.0</ele><time>2026-05-01T16:47:46.443Z</time></trkpt><trkpt lat="44.22547" lon="11.93971"><ele>54.99999999999999</ele><time>2026-05-01T16:47:47.443Z</time></trkpt><trkpt lat="44.2254283" lon="11.9398033"><ele>55.0</ele><time>2026-05-01T16:47:48.441Z</time></trkpt><trkpt lat="44.2253917" lon="11.9398933"><ele>55.0</ele><time>2026-05-01T16:47:49.444Z</time></trkpt><trkpt lat="44.22536" lon="11.9399833"><ele>55.0</ele><time>2026-05-01T16:47:50.44Z</time></trkpt><trkpt lat="44.2253333" lon="11.9400717"><ele>55.0</ele><time>2026-05-01T16:47:51.44Z</time></trkpt><trkpt lat="44.22531" lon="11.9401633"><ele>54.99999999999999</ele><time>2026-05-01T16:47:52.438Z</time></trkpt><trkpt lat="44.22529" lon="11.9402517"><ele>55.0</ele><time>2026-05-01T16:47:53.44Z</time></trkpt><trkpt lat="44.2252517" lon="11.9404167"><ele>54.75</ele><time>2026-05-01T16:47:55.44Z</time></trkpt><trkpt lat="44.2252133" lon="11.9405767"><ele>54.5</ele><time>2026-05-01T16:47:57.44Z</time></trkpt><trkpt lat="44.2251783" lon="11.9407367"><ele>54.25</ele><time>2026-05-01T16:47:59.44Z</time></trkpt><trkpt lat="44.2251433" lon="11.940885"><ele>54.0</ele><time>2026-05-01T16:48:01.439Z</time></trkpt><trkpt lat="44.2251133" lon="11.9410233"><ele>54.333333333333336</ele><time>2026-05-01T16:48:03.439Z</time></trkpt><trkpt lat="44.2250767" lon="11.9411633"><ele>54.66666666666667</ele><time>2026-05-01T16:48:05.44Z</time></trkpt><trkpt lat="44.2250567" lon="11.9412783"><ele>55.0</ele><time>2026-05-01T16:48:07.443Z</time></trkpt><trkpt lat="44.2250633" lon="11.941375"><ele>55.333333333333336</ele><time>2026-05-01T16:48:09.44Z</time></trkpt><trkpt lat="44.2251017" lon="11.9414517"><ele>55.66666666666667</ele><time>2026-05-01T16:48:11.439Z</time></trkpt><trkpt lat="44.225165" lon="11.9415133"><ele>56.0</ele><time>2026-05-01T16:48:13.441Z</time></trkpt><trkpt lat="44.22523" lon="11.9415767"><ele>56.0</ele><time>2026-05-01T16:48:15.439Z</time></trkpt><trkpt lat="44.225305" lon="11.9416433"><ele>55.99999999999999</ele><time>2026-05-01T16:48:17.441Z</time></trkpt><trkpt lat="44.2253717" lon="11.9417117"><ele>55.99999999999999</ele><time>2026-05-01T16:48:19.439Z</time></trkpt><trkpt lat="44.2254483" lon="11.9417767"><ele>56.0</ele><time>2026-05-01T16:48:21.44Z</time></trkpt><trkpt lat="44.2255267" lon="11.94185"><ele>56.0</ele><time>2026-05-01T16:48:23.439Z</time></trkpt><trkpt lat="44.225605" lon="11.941925"><ele>56.0</ele><time>2026-05-01T16:48:25.439Z</time></trkpt><trkpt lat="44.2256833" lon="11.9419983"><ele>55.99999999999999</ele><time>2026-05-01T16:48:27.439Z</time></trkpt><trkpt lat="44.225765" lon="11.9420683"><ele>55.99999999999999</ele><time>2026-05-01T16:48:29.445Z</time></trkpt><trkpt lat="44.2258417" lon="11.9421417"><ele>56.0</ele><time>2026-05-01T16:48:31.439Z</time></trkpt><trkpt lat="44.2259233" lon="11.9422167"><ele>56.0</ele><time>2026-05-01T16:48:33.439Z</time></trkpt><trkpt lat="44.226005" lon="11.942295"><ele>56.0</ele><time>2026-05-01T16:48:35.44Z</time></trkpt><trkpt lat="44.22609" lon="11.9423683"><ele>55.99999999999999</ele><time>2026-05-01T16:48:37.441Z</time></trkpt><trkpt lat="44.2261767" lon="11.9424467"><ele>55.99999999999999</ele><time>2026-05-01T16:48:39.439Z</time></trkpt><trkpt lat="44.2262583" lon="11.9425283"><ele>56.0</ele><time>2026-05-01T16:48:41.439Z</time></trkpt><trkpt lat="44.2263433" lon="11.9426067"><ele>56.0</ele><time>2026-05-01T16:48:43.439Z</time></trkpt><trkpt lat="44.2264283" lon="11.942685"><ele>56.0</ele><time>2026-05-01T16:48:45.439Z</time></trkpt><trkpt lat="44.2265133" lon="11.94276"><ele>55.99999999999999</ele><time>2026-05-01T16:48:47.442Z</time></trkpt><trkpt lat="44.2265933" lon="11.9428333"><ele>55.99999999999999</ele><time>2026-05-01T16:48:49.439Z</time></trkpt><trkpt lat="44.2266783" lon="11.942905"><ele>56.0</ele><time>2026-05-01T16:48:51.44Z</time></trkpt><trkpt lat="44.2267617" lon="11.942975"><ele>56.0</ele><time>2026-05-01T16:48:53.44Z</time></trkpt><trkpt lat="44.2268433" lon="11.9430467"><ele>56.0</ele><time>2026-05-01T16:48:55.439Z</time></trkpt><trkpt lat="44.226925" lon="11.9431217"><ele>55.99999999999999</ele><time>2026-05-01T16:48:57.44Z</time></trkpt><trkpt lat="44.2270083" lon="11.9432017"><ele>55.99999999999999</ele><time>2026-05-01T16:48:59.44Z</time></trkpt><trkpt lat="44.2270867" lon="11.943285"><ele>56.0</ele><time>2026-05-01T16:49:01.44Z</time></trkpt><trkpt lat="44.227135" lon="11.9434"><ele>56.0</ele><time>2026-05-01T16:49:03.44Z</time></trkpt><trkpt lat="44.2270883" lon="11.9435133"><ele>56.00000000000001</ele><time>2026-05-01T16:49:05.438Z</time></trkpt><trkpt lat="44.2270083" lon="11.9435983"><ele>56.0</ele><time>2026-05-01T16:49:07.441Z</time></trkpt><trkpt lat="44.2269283" lon="11.9436733"><ele>56.0</ele><time>2026-05-01T16:49:09.44Z</time></trkpt><trkpt lat="44.226855" lon="11.9437467"><ele>56.0</ele><time>2026-05-01T16:49:11.44Z</time></trkpt><trkpt lat="44.2267883" lon="11.943815"><ele>56.00000000000001</ele><time>2026-05-01T16:49:13.441Z</time></trkpt><trkpt lat="44.2267233" lon="11.9438767"><ele>56.0</ele><time>2026-05-01T16:49:15.44Z</time></trkpt><trkpt lat="44.2266633" lon="11.9439417"><ele>56.00000000000001</ele><time>2026-05-01T16:49:17.443Z</time></trkpt><trkpt lat="44.2266017" lon="11.94401"><ele>56.0</ele><time>2026-05-01T16:49:19.441Z</time></trkpt><trkpt lat="44.226545" lon="11.9440733"><ele>56.0</ele><time>2026-05-01T16:49:21.441Z</time></trkpt><trkpt lat="44.22649" lon="11.9441433"><ele>56.0</ele><time>2026-05-01T16:49:23.44Z</time></trkpt><trkpt lat="44.226435" lon="11.9442183"><ele>56.00000000000001</ele><time>2026-05-01T16:49:25.44Z</time></trkpt><trkpt lat="44.2263833" lon="11.944295"><ele>56.0</ele><time>2026-05-01T16:49:27.441Z</time></trkpt><trkpt lat="44.2263317" lon="11.9443717"><ele>56.285714285714285</ele><time>2026-05-01T16:49:29.439Z</time></trkpt><trkpt lat="44.2262817" lon="11.9444483"><ele>56.57142857142857</ele><time>2026-05-01T16:49:31.44Z</time></trkpt><trkpt lat="44.2262333" lon="11.9445283"><ele>56.85714285714286</ele><time>2026-05-01T16:49:33.441Z</time></trkpt><trkpt lat="44.2261783" lon="11.9446"><ele>57.142857142857146</ele><time>2026-05-01T16:49:35.44Z</time></trkpt><trkpt lat="44.2261267" lon="11.9446767"><ele>57.42857142857143</ele><time>2026-05-01T16:49:37.441Z</time></trkpt><trkpt lat="44.2260767" lon="11.9447467"><ele>57.71428571428572</ele><time>2026-05-01T16:49:39.44Z</time></trkpt><trkpt lat="44.226025" lon="11.9448267"><ele>58.00000000000001</ele><time>2026-05-01T16:49:41.441Z</time></trkpt><trkpt lat="44.2259733" lon="11.9449"><ele>58.00000000000001</ele><time>2026-05-01T16:49:43.44Z</time></trkpt><trkpt lat="44.2259233" lon="11.9449817"><ele>58.0</ele><time>2026-05-01T16:49:45.44Z</time></trkpt><trkpt lat="44.2258717" lon="11.94506"><ele>58.00000000000001</ele><time>2026-05-01T16:49:47.442Z</time></trkpt><trkpt lat="44.2258183" lon="11.9451367"><ele>58.00000000000001</ele><time>2026-05-01T16:49:49.442Z</time></trkpt><trkpt lat="44.2257667" lon="11.94521"><ele>58.0</ele><time>2026-05-01T16:49:51.443Z</time></trkpt><trkpt lat="44.22572" lon="11.9452867"><ele>58.00000000000001</ele><time>2026-05-01T16:49:53.443Z</time></trkpt><trkpt lat="44.2256783" lon="11.9453683"><ele>58.00000000000001</ele><time>2026-05-01T16:49:55.44Z</time></trkpt><trkpt lat="44.225635" lon="11.9454617"><ele>58.42857142857144</ele><time>2026-05-01T16:49:57.442Z</time></trkpt><trkpt lat="44.2256" lon="11.9455533"><ele>58.85714285714286</ele><time>2026-05-01T16:49:59.441Z</time></trkpt><trkpt lat="44.2255617" lon="11.9456433"><ele>59.285714285714285</ele><time>2026-05-01T16:50:01.442Z</time></trkpt><trkpt lat="44.2255217" lon="11.9457267"><ele>59.714285714285715</ele><time>2026-05-01T16:50:03.442Z</time></trkpt><trkpt lat="44.2254833" lon="11.9458083"><ele>60.14285714285714</ele><time>2026-05-01T16:50:05.441Z</time></trkpt><trkpt lat="44.2254467" lon="11.94589"><ele>60.57142857142856</ele><time>2026-05-01T16:50:07.442Z</time></trkpt><trkpt lat="44.2254117" lon="11.9459767"><ele>60.99999999999999</ele><time>2026-05-01T16:50:09.441Z</time></trkpt><trkpt lat="44.2253733" lon="11.94606"><ele>61.28571428571428</ele><time>2026-05-01T16:50:11.441Z</time></trkpt><trkpt lat="44.2253367" lon="11.94615"><ele>61.57142857142857</ele><time>2026-05-01T16:50:13.442Z</time></trkpt><trkpt lat="44.225295" lon="11.9462417"><ele>61.857142857142854</ele><time>2026-05-01T16:50:15.441Z</time></trkpt><trkpt lat="44.2252567" lon="11.946335"><ele>62.14285714285714</ele><time>2026-05-01T16:50:17.444Z</time></trkpt><trkpt lat="44.2252183" lon="11.9464233"><ele>62.42857142857143</ele><time>2026-05-01T16:50:19.442Z</time></trkpt><trkpt lat="44.22518" lon="11.9465117"><ele>62.714285714285715</ele><time>2026-05-01T16:50:21.443Z</time></trkpt><trkpt lat="44.2251433" lon="11.9465967"><ele>63.0</ele><time>2026-05-01T16:50:23.442Z</time></trkpt><trkpt lat="44.2251033" lon="11.9466833"><ele>62.5</ele><time>2026-05-01T16:50:25.44Z</time></trkpt><trkpt lat="44.2250633" lon="11.9467667"><ele>62.0</ele><time>2026-05-01T16:50:27.441Z</time></trkpt><trkpt lat="44.2250233" lon="11.946855"><ele>61.5</ele><time>2026-05-01T16:50:29.44Z</time></trkpt><trkpt lat="44.2249783" lon="11.9469333"><ele>61.0</ele><time>2026-05-01T16:50:31.442Z</time></trkpt><trkpt lat="44.2248983" lon="11.9469733"><ele>60.5</ele><time>2026-05-01T16:50:34.44Z</time></trkpt><trkpt lat="44.2248217" lon="11.9469217"><ele>60.0</ele><time>2026-05-01T16:50:37.442Z</time></trkpt><trkpt lat="44.2247717" lon="11.946865"><ele>59.85714285714286</ele><time>2026-05-01T16:50:39.441Z</time></trkpt><trkpt lat="44.2247183" lon="11.9468083"><ele>59.71428571428571</ele><time>2026-05-01T16:50:41.44Z</time></trkpt><trkpt lat="44.22466" lon="11.9467533"><ele>59.57142857142857</ele><time>2026-05-01T16:50:43.441Z</time></trkpt><trkpt lat="44.2246033" lon="11.9466967"><ele>59.42857142857143</ele><time>2026-05-01T16:50:45.44Z</time></trkpt><trkpt lat="44.22454" lon="11.9466417"><ele>59.28571428571429</ele><time>2026-05-01T16:50:47.443Z</time></trkpt><trkpt lat="44.2244817" lon="11.9465833"><ele>59.14285714285714</ele><time>2026-05-01T16:50:49.443Z</time></trkpt><trkpt lat="44.2244217" lon="11.94653"><ele>59.0</ele><time>2026-05-01T16:50:51.443Z</time></trkpt><trkpt lat="44.2243667" lon="11.946475"><ele>59.42857142857143</ele><time>2026-05-01T16:50:53.442Z</time></trkpt><trkpt lat="44.2243033" lon="11.9464167"><ele>59.85714285714286</ele><time>2026-05-01T16:50:55.439Z</time></trkpt><trkpt lat="44.22424" lon="11.9463617"><ele>60.28571428571429</ele><time>2026-05-01T16:50:57.44Z</time></trkpt><trkpt lat="44.2241817" lon="11.9463083"><ele>60.714285714285715</ele><time>2026-05-01T16:50:59.439Z</time></trkpt><trkpt lat="44.2241217" lon="11.946255"><ele>61.14285714285715</ele><time>2026-05-01T16:51:01.441Z</time></trkpt><trkpt lat="44.2240617" lon="11.9462"><ele>61.57142857142858</ele><time>2026-05-01T16:51:03.439Z</time></trkpt><trkpt lat="44.2240067" lon="11.94614"><ele>62.0</ele><time>2026-05-01T16:51:05.44Z</time></trkpt><trkpt lat="44.2239483" lon="11.9460833"><ele>62.142857142857146</ele><time>2026-05-01T16:51:07.44Z</time></trkpt><trkpt lat="44.2238867" lon="11.946035"><ele>62.28571428571429</ele><time>2026-05-01T16:51:09.439Z</time></trkpt><trkpt lat="44.2238267" lon="11.9459817"><ele>62.42857142857143</ele><time>2026-05-01T16:51:11.44Z</time></trkpt><trkpt lat="44.22377" lon="11.9459167"><ele>62.57142857142857</ele><time>2026-05-01T16:51:13.44Z</time></trkpt><trkpt lat="44.2237067" lon="11.94587"><ele>62.714285714285715</ele><time>2026-05-01T16:51:15.44Z</time></trkpt><trkpt lat="44.2236467" lon="11.9458167"><ele>62.85714285714286</ele><time>2026-05-01T16:51:17.442Z</time></trkpt><trkpt lat="44.2235883" lon="11.9457667"><ele>63.0</ele><time>2026-05-01T16:51:19.44Z</time></trkpt><trkpt lat="44.2235383" lon="11.94571"><ele>63.57142857142857</ele><time>2026-05-01T16:51:21.44Z</time></trkpt><trkpt lat="44.2234833" lon="11.94566"><ele>64.14285714285714</ele><time>2026-05-01T16:51:23.439Z</time></trkpt><trkpt lat="44.2234267" lon="11.94561"><ele>64.71428571428572</ele><time>2026-05-01T16:51:25.441Z</time></trkpt><trkpt lat="44.2233683" lon="11.945565"><ele>65.28571428571428</ele><time>2026-05-01T16:51:27.44Z</time></trkpt><trkpt lat="44.2233117" lon="11.945515"><ele>65.85714285714286</ele><time>2026-05-01T16:51:29.44Z</time></trkpt><trkpt lat="44.223255" lon="11.945465"><ele>66.42857142857143</ele><time>2026-05-01T16:51:31.44Z</time></trkpt><trkpt lat="44.223195" lon="11.945435"><ele>67.0</ele><time>2026-05-01T16:51:33.439Z</time></trkpt><trkpt lat="44.2231083" lon="11.9454883"><ele>67.0</ele><time>2026-05-01T16:51:36.442Z</time></trkpt><trkpt lat="44.2230533" lon="11.9455567"><ele>67.0</ele><time>2026-05-01T16:51:38.441Z</time></trkpt><trkpt lat="44.223015" lon="11.9456467"><ele>67.0</ele><time>2026-05-01T16:51:40.439Z</time></trkpt><trkpt lat="44.2229767" lon="11.9457367"><ele>67.0</ele><time>2026-05-01T16:51:42.443Z</time></trkpt><trkpt lat="44.2229317" lon="11.9458317"><ele>67.0</ele><time>2026-05-01T16:51:44.441Z</time></trkpt><trkpt lat="44.222885" lon="11.9459267"><ele>67.0</ele><time>2026-05-01T16:51:46.443Z</time></trkpt><trkpt lat="44.2228433" lon="11.9460133"><ele>66.6</ele><time>2026-05-01T16:51:48.442Z</time></trkpt><trkpt lat="44.2227967" lon="11.9461067"><ele>66.2</ele><time>2026-05-01T16:51:50.439Z</time></trkpt><trkpt lat="44.2227483" lon="11.9462133"><ele>65.8</ele><time>2026-05-01T16:51:52.441Z</time></trkpt><trkpt lat="44.2227017" lon="11.9463233"><ele>65.4</ele><time>2026-05-01T16:51:54.44Z</time></trkpt><trkpt lat="44.22265" lon="11.946435"><ele>65.0</ele><time>2026-05-01T16:51:56.44Z</time></trkpt><trkpt lat="44.2225967" lon="11.9465617"><ele>65.0</ele><time>2026-05-01T16:51:58.439Z</time></trkpt><trkpt lat="44.2225367" lon="11.946685"><ele>65.0</ele><time>2026-05-01T16:52:00.441Z</time></trkpt><trkpt lat="44.222475" lon="11.9468117"><ele>65.0</ele><time>2026-05-01T16:52:02.439Z</time></trkpt><trkpt lat="44.22241" lon="11.9469417"><ele>65.0</ele><time>2026-05-01T16:52:04.441Z</time></trkpt><trkpt lat="44.2223417" lon="11.9470833"><ele>65.00000000000001</ele><time>2026-05-01T16:52:06.44Z</time></trkpt><trkpt lat="44.2223067" lon="11.9471567"><ele>65.0</ele><time>2026-05-01T16:52:07.44Z</time></trkpt><trkpt lat="44.2222683" lon="11.9472333"><ele>65.0</ele><time>2026-05-01T16:52:08.44Z</time></trkpt><trkpt lat="44.22223" lon="11.9473117"><ele>65.0</ele><time>2026-05-01T16:52:09.439Z</time></trkpt><trkpt lat="44.2221917" lon="11.9473967"><ele>65.0</ele><time>2026-05-01T16:52:10.44Z</time></trkpt><trkpt lat="44.2221533" lon="11.94748"><ele>65.00000000000001</ele><time>2026-05-01T16:52:11.44Z</time></trkpt><trkpt lat="44.2221183" lon="11.9475567"><ele>65.0</ele><time>2026-05-01T16:52:12.441Z</time></trkpt><trkpt lat="44.22208" lon="11.9476333"><ele>65.0</ele><time>2026-05-01T16:52:13.441Z</time></trkpt><trkpt lat="44.2220433" lon="11.9477083"><ele>65.0</ele><time>2026-05-01T16:52:14.439Z</time></trkpt><trkpt lat="44.2219733" lon="11.9478367"><ele>65.0</ele><time>2026-05-01T16:52:16.442Z</time></trkpt><trkpt lat="44.2219117" lon="11.9479517"><ele>65.0</ele><time>2026-05-01T16:52:18.442Z</time></trkpt><trkpt lat="44.221865" lon="11.9480617"><ele>65.0</ele><time>2026-05-01T16:52:20.44Z</time></trkpt><trkpt lat="44.2218217" lon="11.9481567"><ele>65.0</ele><time>2026-05-01T16:52:22.439Z</time></trkpt><trkpt lat="44.2217833" lon="11.9482433"><ele>65.0</ele><time>2026-05-01T16:52:24.441Z</time></trkpt><trkpt lat="44.2217517" lon="11.94833"><ele>65.0</ele><time>2026-05-01T16:52:26.44Z</time></trkpt><trkpt lat="44.2217017" lon="11.9484333"><ele>65.0</ele><time>2026-05-01T16:52:29.439Z</time></trkpt><trkpt lat="44.2216367" lon="11.948525"><ele>65.0</ele><time>2026-05-01T16:52:32.44Z</time></trkpt><trkpt lat="44.221585" lon="11.9485817"><ele>65.0</ele><time>2026-05-01T16:52:34.44Z</time></trkpt><trkpt lat="44.2215283" lon="11.94863"><ele>65.83333333333334</ele><time>2026-05-01T16:52:36.44Z</time></trkpt><trkpt lat="44.2214533" lon="11.9486767"><ele>66.66666666666667</ele><time>2026-05-01T16:52:39.439Z</time></trkpt><trkpt lat="44.2213667" lon="11.9487083"><ele>67.5</ele><time>2026-05-01T16:52:42.439Z</time></trkpt><trkpt lat="44.2212733" lon="11.9487183"><ele>68.33333333333333</ele><time>2026-05-01T16:52:45.44Z</time></trkpt><trkpt lat="44.2211917" lon="11.9487233"><ele>69.16666666666666</ele><time>2026-05-01T16:52:48.44Z</time></trkpt><trkpt lat="44.2211017" lon="11.948695"><ele>70.0</ele><time>2026-05-01T16:52:51.441Z</time></trkpt><trkpt lat="44.2210383" lon="11.94868"><ele>70.0</ele><time>2026-05-01T16:52:53.439Z</time></trkpt><trkpt lat="44.2209567" lon="11.9486567"><ele>70.0</ele><time>2026-05-01T16:52:56.439Z</time></trkpt><trkpt lat="44.22087" lon="11.9486317"><ele>70.0</ele><time>2026-05-01T16:52:59.439Z</time></trkpt><trkpt lat="44.2208083" lon="11.9486133"><ele>70.0</ele><time>2026-05-01T16:53:01.439Z</time></trkpt><trkpt lat="44.2207217" lon="11.94859"><ele>70.0</ele><time>2026-05-01T16:53:04.438Z</time></trkpt><trkpt lat="44.2206433" lon="11.9485683"><ele>70.0</ele><time>2026-05-01T16:53:07.438Z</time></trkpt><trkpt lat="44.2205617" lon="11.9485367"><ele>70.16666666666666</ele><time>2026-05-01T16:53:10.438Z</time></trkpt><trkpt lat="44.2204767" lon="11.948515"><ele>70.33333333333333</ele><time>2026-05-01T16:53:13.44Z</time></trkpt><trkpt lat="44.220395" lon="11.9484983"><ele>70.5</ele><time>2026-05-01T16:53:16.442Z</time></trkpt><trkpt lat="44.2203083" lon="11.94849"><ele>70.66666666666667</ele><time>2026-05-01T16:53:19.438Z</time></trkpt><trkpt lat="44.2202317" lon="11.9484783"><ele>70.83333333333334</ele><time>2026-05-01T16:53:22.438Z</time></trkpt><trkpt lat="44.2201567" lon="11.9484683"><ele>71.0</ele><time>2026-05-01T16:53:25.439Z</time></trkpt><trkpt lat="44.2200817" lon="11.948475"><ele>71.0</ele><time>2026-05-01T16:53:28.438Z</time></trkpt><trkpt lat="44.220005" lon="11.9485033"><ele>71.0</ele><time>2026-05-01T16:53:31.44Z</time></trkpt><trkpt lat="44.2199333" lon="11.94854"><ele>71.0</ele><time>2026-05-01T16:53:34.439Z</time></trkpt><trkpt lat="44.2198667" lon="11.9486033"><ele>71.0</ele><time>2026-05-01T16:53:37.44Z</time></trkpt><trkpt lat="44.2198" lon="11.9486817"><ele>71.0</ele><time>2026-05-01T16:53:40.439Z</time></trkpt><trkpt lat="44.2197417" lon="11.94876"><ele>71.0</ele><time>2026-05-01T16:53:43.438Z</time></trkpt><trkpt lat="44.219695" lon="11.9488417"><ele>71.16666666666667</ele><time>2026-05-01T16:53:46.441Z</time></trkpt><trkpt lat="44.219665" lon="11.9489483"><ele>71.33333333333334</ele><time>2026-05-01T16:53:49.441Z</time></trkpt><trkpt lat="44.21964" lon="11.94906"><ele>71.5</ele><time>2026-05-01T16:53:52.44Z</time></trkpt><trkpt lat="44.21961" lon="11.9491733"><ele>71.66666666666667</ele><time>2026-05-01T16:53:55.44Z</time></trkpt><trkpt lat="44.2195867" lon="11.9492583"><ele>71.83333333333333</ele><time>2026-05-01T16:53:57.44Z</time></trkpt><trkpt lat="44.2195617" lon="11.949345"><ele>72.0</ele><time>2026-05-01T16:53:59.441Z</time></trkpt><trkpt lat="44.219535" lon="11.9494483"><ele>72.0</ele><time>2026-05-01T16:54:01.44Z</time></trkpt><trkpt lat="44.2195033" lon="11.9495533"><ele>72.0</ele><time>2026-05-01T16:54:03.439Z</time></trkpt><trkpt lat="44.2194733" lon="11.9496667"><ele>72.0</ele><time>2026-05-01T16:54:05.441Z</time></trkpt><trkpt lat="44.219445" lon="11.949795"><ele>72.0</ele><time>2026-05-01T16:54:07.442Z</time></trkpt><trkpt lat="44.2194133" lon="11.949935"><ele>72.0</ele><time>2026-05-01T16:54:09.44Z</time></trkpt><trkpt lat="44.2193783" lon="11.9500883"><ele>71.71428571428572</ele><time>2026-05-01T16:54:11.439Z</time></trkpt><trkpt lat="44.219345" lon="11.9502433"><ele>71.42857142857143</ele><time>2026-05-01T16:54:13.441Z</time></trkpt><trkpt lat="44.2193217" lon="11.95033"><ele>71.14285714285714</ele><time>2026-05-01T16:54:14.441Z</time></trkpt><trkpt lat="44.2193" lon="11.9504133"><ele>70.85714285714286</ele><time>2026-05-01T16:54:15.44Z</time></trkpt><trkpt lat="44.21928" lon="11.9505"><ele>70.57142857142857</ele><time>2026-05-01T16:54:16.441Z</time></trkpt><trkpt lat="44.2192583" lon="11.95059"><ele>70.28571428571429</ele><time>2026-05-01T16:54:17.439Z</time></trkpt><trkpt lat="44.2192367" lon="11.9506833"><ele>70.0</ele><time>2026-05-01T16:54:18.442Z</time></trkpt><trkpt lat="44.2192133" lon="11.9507817"><ele>69.28571428571429</ele><time>2026-05-01T16:54:19.442Z</time></trkpt><trkpt lat="44.2191917" lon="11.9508767"><ele>68.57142857142857</ele><time>2026-05-01T16:54:20.442Z</time></trkpt><trkpt lat="44.2191717" lon="11.9509717"><ele>67.85714285714286</ele><time>2026-05-01T16:54:21.443Z</time></trkpt><trkpt lat="44.2191517" lon="11.9510667"><ele>67.14285714285714</ele><time>2026-05-01T16:54:22.442Z</time></trkpt><trkpt lat="44.2191267" lon="11.951165"><ele>66.42857142857143</ele><time>2026-05-01T16:54:23.439Z</time></trkpt><trkpt lat="44.219105" lon="11.951265"><ele>65.71428571428572</ele><time>2026-05-01T16:54:24.439Z</time></trkpt><trkpt lat="44.2190833" lon="11.9513667"><ele>65.0</ele><time>2026-05-01T16:54:25.44Z</time></trkpt><trkpt lat="44.2190617" lon="11.9514683"><ele>65.0</ele><time>2026-05-01T16:54:26.44Z</time></trkpt><trkpt lat="44.2190383" lon="11.9515733"><ele>65.0</ele><time>2026-05-01T16:54:27.444Z</time></trkpt><trkpt lat="44.2190117" lon="11.9516817"><ele>65.0</ele><time>2026-05-01T16:54:28.439Z</time></trkpt><trkpt lat="44.2189867" lon="11.95179"><ele>65.0</ele><time>2026-05-01T16:54:29.439Z</time></trkpt><trkpt lat="44.2189633" lon="11.9519017"><ele>65.0</ele><time>2026-05-01T16:54:30.439Z</time></trkpt><trkpt lat="44.2189383" lon="11.9520133"><ele>65.0</ele><time>2026-05-01T16:54:31.44Z</time></trkpt><trkpt lat="44.2189117" lon="11.9521233"><ele>65.0</ele><time>2026-05-01T16:54:32.438Z</time></trkpt><trkpt lat="44.218885" lon="11.952235"><ele>65.0</ele><time>2026-05-01T16:54:33.439Z</time></trkpt><trkpt lat="44.2188633" lon="11.952345"><ele>65.0</ele><time>2026-05-01T16:54:34.439Z</time></trkpt><trkpt lat="44.2188383" lon="11.9524567"><ele>65.0</ele><time>2026-05-01T16:54:35.439Z</time></trkpt><trkpt lat="44.2188117" lon="11.9525633"><ele>65.0</ele><time>2026-05-01T16:54:36.439Z</time></trkpt><trkpt lat="44.2187817" lon="11.95267"><ele>65.0</ele><time>2026-05-01T16:54:37.439Z</time></trkpt><trkpt lat="44.21875" lon="11.95277"><ele>65.0</ele><time>2026-05-01T16:54:38.439Z</time></trkpt><trkpt lat="44.2187167" lon="11.95286"><ele>65.0</ele><time>2026-05-01T16:54:39.439Z</time></trkpt><trkpt lat="44.21868" lon="11.9529383"><ele>65.0</ele><time>2026-05-01T16:54:40.439Z</time></trkpt><trkpt lat="44.21864" lon="11.9530083"><ele>65.0</ele><time>2026-05-01T16:54:41.439Z</time></trkpt><trkpt lat="44.218565" lon="11.9531233"><ele>65.0</ele><time>2026-05-01T16:54:43.439Z</time></trkpt><trkpt lat="44.218495" lon="11.95322"><ele>65.0</ele><time>2026-05-01T16:54:45.439Z</time></trkpt><trkpt lat="44.2184333" lon="11.9533"><ele>65.0</ele><time>2026-05-01T16:54:47.442Z</time></trkpt><trkpt lat="44.2183733" lon="11.95337"><ele>65.0</ele><time>2026-05-01T16:54:49.442Z</time></trkpt><trkpt lat="44.218315" lon="11.9534417"><ele>65.0</ele><time>2026-05-01T16:54:51.442Z</time></trkpt><trkpt lat="44.218255" lon="11.95351"><ele>65.0</ele><time>2026-05-01T16:54:53.442Z</time></trkpt><trkpt lat="44.2182017" lon="11.95358"><ele>65.0</ele><time>2026-05-01T16:54:55.441Z</time></trkpt><trkpt lat="44.2181517" lon="11.953675"><ele>65.0</ele><time>2026-05-01T16:54:57.439Z</time></trkpt><trkpt lat="44.2181067" lon="11.9537633"><ele>65.42857142857143</ele><time>2026-05-01T16:54:59.439Z</time></trkpt><trkpt lat="44.2180617" lon="11.9538383"><ele>65.85714285714286</ele><time>2026-05-01T16:55:01.442Z</time></trkpt><trkpt lat="44.2180067" lon="11.9539267"><ele>66.28571428571428</ele><time>2026-05-01T16:55:04.441Z</time></trkpt><trkpt lat="44.2179583" lon="11.9540367"><ele>66.71428571428572</ele><time>2026-05-01T16:55:07.44Z</time></trkpt><trkpt lat="44.21793" lon="11.95412"><ele>67.14285714285714</ele><time>2026-05-01T16:55:09.44Z</time></trkpt><trkpt lat="44.2179067" lon="11.954205"><ele>67.57142857142857</ele><time>2026-05-01T16:55:11.439Z</time></trkpt><trkpt lat="44.2178883" lon="11.954295"><ele>68.0</ele><time>2026-05-01T16:55:13.441Z</time></trkpt><trkpt lat="44.21787" lon="11.9543917"><ele>67.99999999999999</ele><time>2026-05-01T16:55:15.44Z</time></trkpt><trkpt lat="44.21785" lon="11.9544883"><ele>68.0</ele><time>2026-05-01T16:55:17.441Z</time></trkpt><trkpt lat="44.2178283" lon="11.9545783"><ele>68.0</ele><time>2026-05-01T16:55:19.441Z</time></trkpt><trkpt lat="44.2178183" lon="11.9546733"><ele>68.0</ele><time>2026-05-01T16:55:21.442Z</time></trkpt><trkpt lat="44.2178133" lon="11.9547733"><ele>68.0</ele><time>2026-05-01T16:55:23.441Z</time></trkpt><trkpt lat="44.2177933" lon="11.95488"><ele>67.99999999999999</ele><time>2026-05-01T16:55:25.44Z</time></trkpt><trkpt lat="44.21777" lon="11.9549983"><ele>68.0</ele><time>2026-05-01T16:55:27.44Z</time></trkpt><trkpt lat="44.21776" lon="11.9551317"><ele>67.66666666666667</ele><time>2026-05-01T16:55:29.439Z</time></trkpt><trkpt lat="44.21774" lon="11.9552867"><ele>67.33333333333334</ele><time>2026-05-01T16:55:31.44Z</time></trkpt><trkpt lat="44.2177317" lon="11.955375"><ele>67.0</ele><time>2026-05-01T16:55:32.44Z</time></trkpt><trkpt lat="44.2177067" lon="11.9555483"><ele>66.66666666666667</ele><time>2026-05-01T16:55:34.439Z</time></trkpt><trkpt lat="44.2176917" lon="11.955635"><ele>66.33333333333333</ele><time>2026-05-01T16:55:35.44Z</time></trkpt><trkpt lat="44.2176767" lon="11.9557217"><ele>66.0</ele><time>2026-05-01T16:55:36.44Z</time></trkpt><trkpt lat="44.21765" lon="11.9558917"><ele>66.0</ele><time>2026-05-01T16:55:38.44Z</time></trkpt><trkpt lat="44.2176233" lon="11.9560583"><ele>66.0</ele><time>2026-05-01T16:55:40.439Z</time></trkpt><trkpt lat="44.2175883" lon="11.9562133"><ele>66.0</ele><time>2026-05-01T16:55:42.44Z</time></trkpt><trkpt lat="44.2175483" lon="11.9563417"><ele>66.0</ele><time>2026-05-01T16:55:44.439Z</time></trkpt><trkpt lat="44.217505" lon="11.9564483"><ele>66.0</ele><time>2026-05-01T16:55:46.441Z</time></trkpt><trkpt lat="44.21745" lon="11.95654"><ele>66.0</ele><time>2026-05-01T16:55:48.441Z</time></trkpt><trkpt lat="44.217395" lon="11.9566167"><ele>66.0</ele><time>2026-05-01T16:55:50.442Z</time></trkpt><trkpt lat="44.2173433" lon="11.9566867"><ele>66.0</ele><time>2026-05-01T16:55:52.441Z</time></trkpt><trkpt lat="44.2172867" lon="11.9567517"><ele>66.0</ele><time>2026-05-01T16:55:54.442Z</time></trkpt><trkpt lat="44.2172267" lon="11.9568117"><ele>66.0</ele><time>2026-05-01T16:55:56.441Z</time></trkpt><trkpt lat="44.2171667" lon="11.9568683"><ele>66.0</ele><time>2026-05-01T16:55:58.441Z</time></trkpt><trkpt lat="44.2171067" lon="11.9569267"><ele>66.0</ele><time>2026-05-01T16:56:00.441Z</time></trkpt><trkpt lat="44.21705" lon="11.956975"><ele>66.66666666666667</ele><time>2026-05-01T16:56:02.441Z</time></trkpt><trkpt lat="44.216995" lon="11.9570233"><ele>67.33333333333333</ele><time>2026-05-01T16:56:04.44Z</time></trkpt><trkpt lat="44.21691" lon="11.9570733"><ele>68.0</ele><time>2026-05-01T16:56:07.441Z</time></trkpt><trkpt lat="44.216825" lon="11.9571283"><ele>68.66666666666666</ele><time>2026-05-01T16:56:10.441Z</time></trkpt><trkpt lat="44.2167517" lon="11.957185"><ele>69.33333333333333</ele><time>2026-05-01T16:56:12.44Z</time></trkpt><trkpt lat="44.21667" lon="11.95723"><ele>70.0</ele><time>2026-05-01T16:56:15.441Z</time></trkpt><trkpt lat="44.216595" lon="11.9572617"><ele>70.0</ele><time>2026-05-01T16:56:18.442Z</time></trkpt><trkpt lat="44.2165117" lon="11.957285"><ele>70.0</ele><time>2026-05-01T16:56:21.443Z</time></trkpt><trkpt lat="44.2164267" lon="11.9573167"><ele>70.0</ele><time>2026-05-01T16:56:24.441Z</time></trkpt><trkpt lat="44.2163433" lon="11.957355"><ele>70.0</ele><time>2026-05-01T16:56:27.44Z</time></trkpt><trkpt lat="44.2162633" lon="11.9574067"><ele>70.0</ele><time>2026-05-01T16:56:30.44Z</time></trkpt><trkpt lat="44.2161817" lon="11.9574667"><ele>70.0</ele><time>2026-05-01T16:56:33.441Z</time></trkpt><trkpt lat="44.2161117" lon="11.9575167"><ele>70.16666666666666</ele><time>2026-05-01T16:56:36.441Z</time></trkpt><trkpt lat="44.216045" lon="11.95757"><ele>70.33333333333333</ele><time>2026-05-01T16:56:39.44Z</time></trkpt><trkpt lat="44.2159767" lon="11.9576533"><ele>70.5</ele><time>2026-05-01T16:56:42.441Z</time></trkpt><trkpt lat="44.215915" lon="11.9577567"><ele>70.66666666666667</ele><time>2026-05-01T16:56:45.441Z</time></trkpt><trkpt lat="44.2158683" lon="11.9578783"><ele>70.83333333333334</ele><time>2026-05-01T16:56:48.441Z</time></trkpt><trkpt lat="44.2158333" lon="11.9579767"><ele>71.0</ele><time>2026-05-01T16:56:50.438Z</time></trkpt><trkpt lat="44.2157983" lon="11.958075"><ele>71.0</ele><time>2026-05-01T16:56:52.443Z</time></trkpt><trkpt lat="44.2157617" lon="11.9581517"><ele>71.0</ele><time>2026-05-01T16:56:54.44Z</time></trkpt><trkpt lat="44.2157267" lon="11.958235"><ele>71.0</ele><time>2026-05-01T16:56:56.439Z</time></trkpt><trkpt lat="44.2156817" lon="11.9583167"><ele>71.0</ele><time>2026-05-01T16:56:58.44Z</time></trkpt><trkpt lat="44.2156183" lon="11.9583583"><ele>71.0</ele><time>2026-05-01T16:57:00.44Z</time></trkpt><trkpt lat="44.2155517" lon="11.9583433"><ele>71.0</ele><time>2026-05-01T16:57:02.439Z</time></trkpt><trkpt lat="44.2154767" lon="11.95832"><ele>71.0</ele><time>2026-05-01T16:57:04.439Z</time></trkpt><trkpt lat="44.2154033" lon="11.9583067"><ele>71.28571428571428</ele><time>2026-05-01T16:57:06.439Z</time></trkpt><trkpt lat="44.2153333" lon="11.958285"><ele>71.57142857142857</ele><time>2026-05-01T16:57:08.439Z</time></trkpt><trkpt lat="44.2152617" lon="11.95826"><ele>71.85714285714286</ele><time>2026-05-01T16:57:10.44Z</time></trkpt><trkpt lat="44.215195" lon="11.9582367"><ele>72.14285714285714</ele><time>2026-05-01T16:57:12.441Z</time></trkpt><trkpt lat="44.215125" lon="11.9582083"><ele>72.42857142857143</ele><time>2026-05-01T16:57:14.44Z</time></trkpt><trkpt lat="44.2150533" lon="11.9581867"><ele>72.71428571428571</ele><time>2026-05-01T16:57:16.442Z</time></trkpt><trkpt lat="44.214985" lon="11.9581667"><ele>73.0</ele><time>2026-05-01T16:57:18.442Z</time></trkpt><trkpt lat="44.21491" lon="11.958155"><ele>73.0</ele><time>2026-05-01T16:57:20.442Z</time></trkpt><trkpt lat="44.2148367" lon="11.9581217"><ele>73.0</ele><time>2026-05-01T16:57:22.443Z</time></trkpt><trkpt lat="44.21476" lon="11.9581017"><ele>73.0</ele><time>2026-05-01T16:57:24.443Z</time></trkpt><trkpt lat="44.214685" lon="11.9580833"><ele>73.0</ele><time>2026-05-01T16:57:26.44Z</time></trkpt><trkpt lat="44.2146133" lon="11.9580617"><ele>73.0</ele><time>2026-05-01T16:57:28.44Z</time></trkpt><trkpt lat="44.2145483" lon="11.9580383"><ele>73.0</ele><time>2026-05-01T16:57:30.44Z</time></trkpt><trkpt lat="44.214485" lon="11.9580217"><ele>73.0</ele><time>2026-05-01T16:57:32.439Z</time></trkpt><trkpt lat="44.2144217" lon="11.9580033"><ele>73.33333333333333</ele><time>2026-05-01T16:57:34.438Z</time></trkpt><trkpt lat="44.2143567" lon="11.9579767"><ele>73.66666666666666</ele><time>2026-05-01T16:57:36.44Z</time></trkpt><trkpt lat="44.21429" lon="11.9579633"><ele>74.0</ele><time>2026-05-01T16:57:38.44Z</time></trkpt><trkpt lat="44.2142233" lon="11.957955"><ele>74.33333333333333</ele><time>2026-05-01T16:57:40.439Z</time></trkpt><trkpt lat="44.2141367" lon="11.957925"><ele>74.66666666666667</ele><time>2026-05-01T16:57:43.44Z</time></trkpt><trkpt lat="44.2140467" lon="11.9578833"><ele>75.0</ele><time>2026-05-01T16:57:46.442Z</time></trkpt><trkpt lat="44.2139817" lon="11.9578533"><ele>75.14285714285714</ele><time>2026-05-01T16:57:48.44Z</time></trkpt><trkpt lat="44.2139233" lon="11.9578183"><ele>75.28571428571428</ele><time>2026-05-01T16:57:50.44Z</time></trkpt><trkpt lat="44.2138717" lon="11.9577667"><ele>75.42857142857142</ele><time>2026-05-01T16:57:52.44Z</time></trkpt><trkpt lat="44.2138167" lon="11.9577133"><ele>75.57142857142857</ele><time>2026-05-01T16:57:54.439Z</time></trkpt><trkpt lat="44.213765" lon="11.95766"><ele>75.71428571428572</ele><time>2026-05-01T16:57:56.44Z</time></trkpt><trkpt lat="44.21371" lon="11.9576117"><ele>75.85714285714285</ele><time>2026-05-01T16:57:58.44Z</time></trkpt><trkpt lat="44.213655" lon="11.9575567"><ele>76.0</ele><time>2026-05-01T16:58:00.439Z</time></trkpt><trkpt lat="44.2136033" lon="11.957505"><ele>76.0</ele><time>2026-05-01T16:58:02.439Z</time></trkpt><trkpt lat="44.2135317" lon="11.95743"><ele>76.0</ele><time>2026-05-01T16:58:05.439Z</time></trkpt><trkpt lat="44.2134617" lon="11.9573517"><ele>76.0</ele><time>2026-05-01T16:58:08.441Z</time></trkpt><trkpt lat="44.2133933" lon="11.9572667"><ele>76.0</ele><time>2026-05-01T16:58:11.439Z</time></trkpt><trkpt lat="44.2133417" lon="11.9572117"><ele>76.0</ele><time>2026-05-01T16:58:13.44Z</time></trkpt><trkpt lat="44.2132833" lon="11.9571583"><ele>76.0</ele><time>2026-05-01T16:58:15.44Z</time></trkpt><trkpt lat="44.2132033" lon="11.9570867"><ele>77.0</ele><time>2026-05-01T16:58:18.44Z</time></trkpt><trkpt lat="44.2131533" lon="11.9570333"><ele>78.0</ele><time>2026-05-01T16:58:20.44Z</time></trkpt><trkpt lat="44.2130783" lon="11.9569567"><ele>79.0</ele><time>2026-05-01T16:58:23.441Z</time></trkpt><trkpt lat="44.2130117" lon="11.9568833"><ele>80.0</ele><time>2026-05-01T16:58:26.44Z</time></trkpt><trkpt lat="44.2129467" lon="11.956815"><ele>81.0</ele><time>2026-05-01T16:58:29.44Z</time></trkpt><trkpt lat="44.2128767" lon="11.956755"><ele>82.0</ele><time>2026-05-01T16:58:32.441Z</time></trkpt><trkpt lat="44.2128183" lon="11.95669"><ele>82.14285714285714</ele><time>2026-05-01T16:58:35.441Z</time></trkpt><trkpt lat="44.2127583" lon="11.956635"><ele>82.28571428571428</ele><time>2026-05-01T16:58:38.441Z</time></trkpt><trkpt lat="44.2127083" lon="11.956575"><ele>82.42857142857142</ele><time>2026-05-01T16:58:41.441Z</time></trkpt><trkpt lat="44.2126583" lon="11.9565067"><ele>82.57142857142857</ele><time>2026-05-01T16:58:44.441Z</time></trkpt><trkpt lat="44.212595" lon="11.9564317"><ele>82.71428571428572</ele><time>2026-05-01T16:58:48.44Z</time></trkpt><trkpt lat="44.2125433" lon="11.9563767"><ele>82.85714285714285</ele><time>2026-05-01T16:58:51.44Z</time></trkpt><trkpt lat="44.2124867" lon="11.956305"><ele>83.0</ele><time>2026-05-01T16:58:54.44Z</time></trkpt><trkpt lat="44.212435" lon="11.95623"><ele>83.0</ele><time>2026-05-01T16:58:57.439Z</time></trkpt><trkpt lat="44.21239" lon="11.95615"><ele>83.0</ele><time>2026-05-01T16:59:00.44Z</time></trkpt><trkpt lat="44.212355" lon="11.9560617"><ele>83.0</ele><time>2026-05-01T16:59:03.44Z</time></trkpt><trkpt lat="44.212315" lon="11.9559733"><ele>83.0</ele><time>2026-05-01T16:59:06.439Z</time></trkpt><trkpt lat="44.2122767" lon="11.955885"><ele>83.0</ele><time>2026-05-01T16:59:09.44Z</time></trkpt><trkpt lat="44.21224" lon="11.955795"><ele>83.0</ele><time>2026-05-01T16:59:12.44Z</time></trkpt><trkpt lat="44.2122017" lon="11.9557033"><ele>83.0</ele><time>2026-05-01T16:59:15.44Z</time></trkpt><trkpt lat="44.212165" lon="11.9556117"><ele>83.42857142857143</ele><time>2026-05-01T16:59:18.44Z</time></trkpt><trkpt lat="44.2121333" lon="11.9555233"><ele>83.85714285714286</ele><time>2026-05-01T16:59:21.439Z</time></trkpt><trkpt lat="44.212095" lon="11.95543"><ele>84.28571428571429</ele><time>2026-05-01T16:59:24.439Z</time></trkpt><trkpt lat="44.2120633" lon="11.95534"><ele>84.71428571428572</ele><time>2026-05-01T16:59:27.44Z</time></trkpt><trkpt lat="44.21203" lon="11.95525"><ele>85.14285714285714</ele><time>2026-05-01T16:59:30.439Z</time></trkpt><trkpt lat="44.21199" lon="11.95516"><ele>85.57142857142858</ele><time>2026-05-01T16:59:33.44Z</time></trkpt><trkpt lat="44.2119583" lon="11.9550733"><ele>86.0</ele><time>2026-05-01T16:59:36.44Z</time></trkpt><trkpt lat="44.2119217" lon="11.9549883"><ele>86.42857142857143</ele><time>2026-05-01T16:59:39.44Z</time></trkpt><trkpt lat="44.2118867" lon="11.954895"><ele>86.85714285714286</ele><time>2026-05-01T16:59:42.44Z</time></trkpt><trkpt lat="44.2118467" lon="11.9548067"><ele>87.28571428571428</ele><time>2026-05-01T16:59:45.44Z</time></trkpt><trkpt lat="44.2118133" lon="11.95472"><ele>87.71428571428572</ele><time>2026-05-01T16:59:48.44Z</time></trkpt><trkpt lat="44.2117867" lon="11.95463"><ele>88.14285714285714</ele><time>2026-05-01T16:59:51.44Z</time></trkpt><trkpt lat="44.2117533" lon="11.9545383"><ele>88.57142857142857</ele><time>2026-05-01T16:59:54.44Z</time></trkpt><trkpt lat="44.211725" lon="11.95445"><ele>89.0</ele><time>2026-05-01T16:59:57.439Z</time></trkpt><trkpt lat="44.2116983" lon="11.9543617"><ele>88.99999999999999</ele><time>2026-05-01T17:00:00.44Z</time></trkpt><trkpt lat="44.2116717" lon="11.9542683"><ele>89.0</ele><time>2026-05-01T17:00:03.439Z</time></trkpt><trkpt lat="44.21164" lon="11.954175"><ele>89.0</ele><time>2026-05-01T17:00:06.44Z</time></trkpt><trkpt lat="44.2116117" lon="11.95408"><ele>89.0</ele><time>2026-05-01T17:00:09.44Z</time></trkpt><trkpt lat="44.2115867" lon="11.9539833"><ele>89.0</ele><time>2026-05-01T17:00:12.44Z</time></trkpt><trkpt lat="44.2115467" lon="11.95388"><ele>88.99999999999999</ele><time>2026-05-01T17:00:15.44Z</time></trkpt><trkpt lat="44.211535" lon="11.9537867"><ele>89.0</ele><time>2026-05-01T17:00:18.44Z</time></trkpt><trkpt lat="44.2115067" lon="11.9536983"><ele>90.0</ele><time>2026-05-01T17:00:21.44Z</time></trkpt><trkpt lat="44.21146" lon="11.9536117"><ele>91.0</ele><time>2026-05-01T17:00:24.44Z</time></trkpt><trkpt lat="44.2114117" lon="11.9535167"><ele>92.0</ele><time>2026-05-01T17:00:28.44Z</time></trkpt><trkpt lat="44.2113617" lon="11.9534433"><ele>93.0</ele><time>2026-05-01T17:00:31.441Z</time></trkpt><trkpt lat="44.2113133" lon="11.95336"><ele>94.0</ele><time>2026-05-01T17:00:34.44Z</time></trkpt><trkpt lat="44.2112683" lon="11.9532833"><ele>95.0</ele><time>2026-05-01T17:00:37.441Z</time></trkpt><trkpt lat="44.2112233" lon="11.9532033"><ele>95.42857142857143</ele><time>2026-05-01T17:00:40.44Z</time></trkpt><trkpt lat="44.2111733" lon="11.95312"><ele>95.85714285714286</ele><time>2026-05-01T17:00:43.44Z</time></trkpt><trkpt lat="44.2111367" lon="11.9530417"><ele>96.28571428571428</ele><time>2026-05-01T17:00:46.442Z</time></trkpt><trkpt lat="44.2110883" lon="11.9529517"><ele>96.71428571428572</ele><time>2026-05-01T17:00:50.439Z</time></trkpt><trkpt lat="44.211045" lon="11.95288"><ele>97.14285714285714</ele><time>2026-05-01T17:00:53.441Z</time></trkpt><trkpt lat="44.2109967" lon="11.9528017"><ele>97.57142857142857</ele><time>2026-05-01T17:00:56.442Z</time></trkpt><trkpt lat="44.2109567" lon="11.9527283"><ele>98.0</ele><time>2026-05-01T17:00:59.439Z</time></trkpt><trkpt lat="44.210905" lon="11.9526383"><ele>98.0</ele><time>2026-05-01T17:01:02.442Z</time></trkpt><trkpt lat="44.2108533" lon="11.9525617"><ele>98.0</ele><time>2026-05-01T17:01:05.44Z</time></trkpt><trkpt lat="44.2108117" lon="11.9524817"><ele>98.0</ele><time>2026-05-01T17:01:08.44Z</time></trkpt><trkpt lat="44.21077" lon="11.9524133"><ele>98.0</ele><time>2026-05-01T17:01:12.441Z</time></trkpt><trkpt lat="44.2107217" lon="11.952335"><ele>98.0</ele><time>2026-05-01T17:01:16.443Z</time></trkpt><trkpt lat="44.2106833" lon="11.95224"><ele>98.0</ele><time>2026-05-01T17:01:20.44Z</time></trkpt><trkpt lat="44.21064" lon="11.9521733"><ele>98.0</ele><time>2026-05-01T17:01:23.441Z</time></trkpt><trkpt lat="44.2105967" lon="11.952105"><ele>99.66666666666666</ele><time>2026-05-01T17:01:26.44Z</time></trkpt><trkpt lat="44.2105417" lon="11.95202"><ele>101.33333333333333</ele><time>2026-05-01T17:01:30.439Z</time></trkpt><trkpt lat="44.2104867" lon="11.9519367"><ele>103.0</ele><time>2026-05-01T17:01:34.44Z</time></trkpt><trkpt lat="44.210435" lon="11.951855"><ele>104.66666666666666</ele><time>2026-05-01T17:01:38.44Z</time></trkpt><trkpt lat="44.2103783" lon="11.9517883"><ele>106.33333333333333</ele><time>2026-05-01T17:01:42.44Z</time></trkpt><trkpt lat="44.2103133" lon="11.9517317"><ele>108.0</ele><time>2026-05-01T17:01:46.443Z</time></trkpt><trkpt lat="44.210245" lon="11.9516783"><ele>108.16666666666667</ele><time>2026-05-01T17:01:50.443Z</time></trkpt><trkpt lat="44.2101717" lon="11.9516283"><ele>108.33333333333334</ele><time>2026-05-01T17:01:54.444Z</time></trkpt><trkpt lat="44.2101067" lon="11.9515717"><ele>108.5</ele><time>2026-05-01T17:01:58.439Z</time></trkpt><trkpt lat="44.2100367" lon="11.9515067"><ele>108.66666666666667</ele><time>2026-05-01T17:02:02.439Z</time></trkpt><trkpt lat="44.20998" lon="11.951455"><ele>108.83333333333334</ele><time>2026-05-01T17:02:05.44Z</time></trkpt><trkpt lat="44.2099283" lon="11.9514033"><ele>109.0</ele><time>2026-05-01T17:02:08.441Z</time></trkpt><trkpt lat="44.2098533" lon="11.9513467"><ele>109.57142857142857</ele><time>2026-05-01T17:02:12.441Z</time></trkpt><trkpt lat="44.2097983" lon="11.951295"><ele>110.14285714285714</ele><time>2026-05-01T17:02:15.44Z</time></trkpt><trkpt lat="44.20974" lon="11.9512467"><ele>110.71428571428572</ele><time>2026-05-01T17:02:18.441Z</time></trkpt><trkpt lat="44.20968" lon="11.9511967"><ele>111.28571428571428</ele><time>2026-05-01T17:02:21.441Z</time></trkpt><trkpt lat="44.2096267" lon="11.9511417"><ele>111.85714285714285</ele><time>2026-05-01T17:02:24.441Z</time></trkpt><trkpt lat="44.2095583" lon="11.9510833"><ele>112.42857142857143</ele><time>2026-05-01T17:02:28.438Z</time></trkpt><trkpt lat="44.2094983" lon="11.9510083"><ele>113.0</ele><time>2026-05-01T17:02:32.439Z</time></trkpt><trkpt lat="44.2094533" lon="11.950935"><ele>113.0</ele><time>2026-05-01T17:02:36.439Z</time></trkpt><trkpt lat="44.2094067" lon="11.9508617"><ele>113.0</ele><time>2026-05-01T17:02:40.439Z</time></trkpt><trkpt lat="44.2093533" lon="11.950795"><ele>113.0</ele><time>2026-05-01T17:02:44.439Z</time></trkpt><trkpt lat="44.209305" lon="11.95073"><ele>113.0</ele><time>2026-05-01T17:02:48.442Z</time></trkpt><trkpt lat="44.20925" lon="11.9506717"><ele>113.0</ele><time>2026-05-01T17:02:52.442Z</time></trkpt><trkpt lat="44.20919" lon="11.9506"><ele>113.0</ele><time>2026-05-01T17:02:57.439Z</time></trkpt><trkpt lat="44.20913" lon="11.9505583"><ele>113.0</ele><time>2026-05-01T17:03:01.439Z</time></trkpt><trkpt lat="44.2090667" lon="11.9504933"><ele>113.0</ele><time>2026-05-01T17:03:06.438Z</time></trkpt><trkpt lat="44.20901" lon="11.95045"><ele>113.0</ele><time>2026-05-01T17:03:10.439Z</time></trkpt><trkpt lat="44.2089483" lon="11.9504133"><ele>113.0</ele><time>2026-05-01T17:03:14.438Z</time></trkpt><trkpt lat="44.20888" lon="11.95038"><ele>113.0</ele><time>2026-05-01T17:03:19.438Z</time></trkpt><trkpt lat="44.2088183" lon="11.9503367"><ele>113.0</ele><time>2026-05-01T17:03:23.439Z</time></trkpt><trkpt lat="44.2087583" lon="11.9502933"><ele>113.0</ele><time>2026-05-01T17:03:27.439Z</time></trkpt><trkpt lat="44.2086883" lon="11.9502633"><ele>113.0</ele><time>2026-05-01T17:03:32.439Z</time></trkpt><trkpt lat="44.208635" lon="11.9502117"><ele>114.28571428571429</ele><time>2026-05-01T17:03:36.44Z</time></trkpt><trkpt lat="44.2085733" lon="11.9501767"><ele>115.57142857142856</ele><time>2026-05-01T17:03:40.438Z</time></trkpt><trkpt lat="44.208515" lon="11.95014"><ele>116.85714285714285</ele><time>2026-05-01T17:03:44.44Z</time></trkpt><trkpt lat="44.2084583" lon="11.9500933"><ele>118.14285714285714</ele><time>2026-05-01T17:03:48.442Z</time></trkpt><trkpt lat="44.208395" lon="11.95003"><ele>119.42857142857142</ele><time>2026-05-01T17:03:53.44Z</time></trkpt><trkpt lat="44.2083433" lon="11.9499767"><ele>120.7142857142857</ele><time>2026-05-01T17:03:57.44Z</time></trkpt><trkpt lat="44.20828" lon="11.9499133"><ele>121.99999999999999</ele><time>2026-05-01T17:04:02.44Z</time></trkpt><trkpt lat="44.2082217" lon="11.9498333"><ele>122.14285714285712</ele><time>2026-05-01T17:04:07.44Z</time></trkpt><trkpt lat="44.208175" lon="11.9497567"><ele>122.28571428571428</ele><time>2026-05-01T17:04:12.441Z</time></trkpt><trkpt lat="44.2081117" lon="11.9497117"><ele>122.42857142857143</ele><time>2026-05-01T17:04:16.441Z</time></trkpt><trkpt lat="44.2080433" lon="11.9496683"><ele>122.57142857142857</ele><time>2026-05-01T17:04:20.44Z</time></trkpt><trkpt lat="44.2079767" lon="11.949615"><ele>122.71428571428572</ele><time>2026-05-01T17:04:25.44Z</time></trkpt><trkpt lat="44.207905" lon="11.9495783"><ele>122.85714285714288</ele><time>2026-05-01T17:04:30.439Z</time></trkpt><trkpt lat="44.2078417" lon="11.9495567"><ele>123.00000000000001</ele><time>2026-05-01T17:04:35.439Z</time></trkpt><trkpt lat="44.207785" lon="11.9495167"><ele>124.66666666666667</ele><time>2026-05-01T17:04:40.44Z</time></trkpt><trkpt lat="44.2077083" lon="11.9495067"><ele>126.33333333333334</ele><time>2026-05-01T17:04:46.443Z</time></trkpt><trkpt lat="44.207625" lon="11.9494917"><ele>128.0</ele><time>2026-05-01T17:04:54.44Z</time></trkpt><trkpt lat="44.20755" lon="11.9495017"><ele>129.66666666666669</ele><time>2026-05-01T17:05:00.44Z</time></trkpt><trkpt lat="44.207485" lon="11.9495133"><ele>131.33333333333334</ele><time>2026-05-01T17:05:05.438Z</time></trkpt><trkpt lat="44.20741" lon="11.94951"><ele>133.0</ele><time>2026-05-01T17:05:10.439Z</time></trkpt><trkpt lat="44.2073383" lon="11.9495267"><ele>133.71428571428572</ele><time>2026-05-01T17:05:15.439Z</time></trkpt><trkpt lat="44.20727" lon="11.9495433"><ele>134.42857142857144</ele><time>2026-05-01T17:05:20.438Z</time></trkpt><trkpt lat="44.2072067" lon="11.9495517"><ele>135.14285714285714</ele><time>2026-05-01T17:05:25.44Z</time></trkpt><trkpt lat="44.2071433" lon="11.949575"><ele>135.85714285714286</ele><time>2026-05-01T17:05:29.439Z</time></trkpt><trkpt lat="44.2070733" lon="11.9496217"><ele>136.57142857142858</ele><time>2026-05-01T17:05:34.44Z</time></trkpt><trkpt lat="44.2070133" lon="11.9496483"><ele>137.28571428571428</ele><time>2026-05-01T17:05:40.439Z</time></trkpt><trkpt lat="44.2069417" lon="11.9496333"><ele>138.0</ele><time>2026-05-01T17:05:45.44Z</time></trkpt><trkpt lat="44.2068733" lon="11.9495833"><ele>138.0</ele><time>2026-05-01T17:05:50.44Z</time></trkpt><trkpt lat="44.20681" lon="11.9495233"><ele>138.0</ele><time>2026-05-01T17:05:55.441Z</time></trkpt><trkpt lat="44.206745" lon="11.9494717"><ele>138.0</ele><time>2026-05-01T17:06:00.44Z</time></trkpt><trkpt lat="44.20669" lon="11.9493983"><ele>138.0</ele><time>2026-05-01T17:06:05.438Z</time></trkpt><trkpt lat="44.2066333" lon="11.9493467"><ele>138.0</ele><time>2026-05-01T17:06:10.439Z</time></trkpt><trkpt lat="44.20658" lon="11.94929"><ele>138.0</ele><time>2026-05-01T17:06:15.44Z</time></trkpt><trkpt lat="44.2065233" lon="11.9492267"><ele>138.0</ele><time>2026-05-01T17:06:20.442Z</time></trkpt><trkpt lat="44.2064633" lon="11.9491767"><ele>139.42857142857144</ele><time>2026-05-01T17:06:25.44Z</time></trkpt><trkpt lat="44.20641" lon="11.9491267"><ele>140.85714285714286</ele><time>2026-05-01T17:06:29.439Z</time></trkpt><trkpt lat="44.2063467" lon="11.9490717"><ele>142.28571428571428</ele><time>2026-05-01T17:06:34.439Z</time></trkpt><trkpt lat="44.2062883" lon="11.9490283"><ele>143.71428571428572</ele><time>2026-05-01T17:06:39.44Z</time></trkpt><trkpt lat="44.2062" lon="11.9489767"><ele>145.14285714285714</ele><time>2026-05-01T17:06:46.44Z</time></trkpt><trkpt lat="44.2061383" lon="11.94895"><ele>146.57142857142858</ele><time>2026-05-01T17:06:49.441Z</time></trkpt><trkpt lat="44.2060767" lon="11.9489267"><ele>148.0</ele><time>2026-05-01T17:06:53.443Z</time></trkpt><trkpt lat="44.2060033" lon="11.948895"><ele>148.0</ele><time>2026-05-01T17:06:58.441Z</time></trkpt><trkpt lat="44.205935" lon="11.9488683"><ele>148.0</ele><time>2026-05-01T17:07:03.44Z</time></trkpt><trkpt lat="44.2058667" lon="11.9488367"><ele>148.0</ele><time>2026-05-01T17:07:10.439Z</time></trkpt><trkpt lat="44.2058083" lon="11.9488017"><ele>148.0</ele><time>2026-05-01T17:07:14.44Z</time></trkpt><trkpt lat="44.205735" lon="11.9487783"><ele>148.0</ele><time>2026-05-01T17:07:20.443Z</time></trkpt><trkpt lat="44.2056417" lon="11.9487567"><ele>148.0</ele><time>2026-05-01T17:07:27.439Z</time></trkpt><trkpt lat="44.2055767" lon="11.948725"><ele>148.0</ele><time>2026-05-01T17:07:33.44Z</time></trkpt><trkpt lat="44.2055133" lon="11.948715"><ele>149.71428571428572</ele><time>2026-05-01T17:07:38.44Z</time></trkpt><trkpt lat="44.20545" lon="11.948735"><ele>151.42857142857142</ele><time>2026-05-01T17:07:42.439Z</time></trkpt><trkpt lat="44.20538" lon="11.9487617"><ele>153.14285714285714</ele><time>2026-05-01T17:07:47.439Z</time></trkpt><trkpt lat="44.205315" lon="11.948795"><ele>154.85714285714286</ele><time>2026-05-01T17:07:53.442Z</time></trkpt><trkpt lat="44.2052217" lon="11.948835"><ele>156.57142857142858</ele><time>2026-05-01T17:08:02.439Z</time></trkpt><trkpt lat="44.2051667" lon="11.9488833"><ele>158.28571428571428</ele><time>2026-05-01T17:08:08.44Z</time></trkpt><trkpt lat="44.2051067" lon="11.9489383"><ele>160.0</ele><time>2026-05-01T17:08:14.44Z</time></trkpt><trkpt lat="44.2050383" lon="11.94894"><ele>160.0</ele><time>2026-05-01T17:08:21.443Z</time></trkpt><trkpt lat="44.2050017" lon="11.9490133"><ele>160.0</ele><time>2026-05-01T17:08:27.441Z</time></trkpt><trkpt lat="44.2049467" lon="11.9490667"><ele>160.0</ele><time>2026-05-01T17:08:32.44Z</time></trkpt><trkpt lat="44.20491" lon="11.9491417"><ele>160.0</ele><time>2026-05-01T17:08:38.441Z</time></trkpt><trkpt lat="44.20487" lon="11.949225"><ele>160.0</ele><time>2026-05-01T17:08:43.441Z</time></trkpt><trkpt lat="44.204825" lon="11.949315"><ele>160.0</ele><time>2026-05-01T17:08:47.443Z</time></trkpt><trkpt lat="44.20478" lon="11.9493817"><ele>160.0</ele><time>2026-05-01T17:08:50.442Z</time></trkpt><trkpt lat="44.20472" lon="11.9494383"><ele>160.71428571428572</ele><time>2026-05-01T17:08:53.442Z</time></trkpt><trkpt lat="44.2046533" lon="11.9494883"><ele>161.42857142857144</ele><time>2026-05-01T17:08:56.44Z</time></trkpt><trkpt lat="44.2045917" lon="11.9495333"><ele>162.14285714285717</ele><time>2026-05-01T17:08:59.44Z</time></trkpt><trkpt lat="44.20452" lon="11.9495583"><ele>162.85714285714286</ele><time>2026-05-01T17:09:03.44Z</time></trkpt><trkpt lat="44.2044517" lon="11.9495883"><ele>163.57142857142858</ele><time>2026-05-01T17:09:07.44Z</time></trkpt><trkpt lat="44.2043783" lon="11.9496117"><ele>164.2857142857143</ele><time>2026-05-01T17:09:11.44Z</time></trkpt><trkpt lat="44.2043167" lon="11.9496383"><ele>165.0</ele><time>2026-05-01T17:09:14.44Z</time></trkpt><trkpt lat="44.2042417" lon="11.9496633"><ele>165.00000000000003</ele><time>2026-05-01T17:09:18.439Z</time></trkpt><trkpt lat="44.20416" lon="11.9496983"><ele>165.0</ele><time>2026-05-01T17:09:22.443Z</time></trkpt><trkpt lat="44.2040867" lon="11.9497383"><ele>165.0</ele><time>2026-05-01T17:09:26.44Z</time></trkpt><trkpt lat="44.20403" lon="11.94978"><ele>165.0</ele><time>2026-05-01T17:09:30.44Z</time></trkpt><trkpt lat="44.2039633" lon="11.9498033"><ele>165.0</ele><time>2026-05-01T17:09:35.441Z</time></trkpt><trkpt lat="44.2039033" lon="11.9498417"><ele>165.00000000000003</ele><time>2026-05-01T17:09:39.44Z</time></trkpt><trkpt lat="44.2038383" lon="11.9499"><ele>165.0</ele><time>2026-05-01T17:09:44.439Z</time></trkpt><trkpt lat="44.2037633" lon="11.9499333"><ele>166.14285714285717</ele><time>2026-05-01T17:09:51.439Z</time></trkpt><trkpt lat="44.2037183" lon="11.95001"><ele>167.28571428571428</ele><time>2026-05-01T17:11:30.442Z</time></trkpt><trkpt lat="44.2036617" lon="11.9500683"><ele>168.42857142857144</ele><time>2026-05-01T17:11:33.441Z</time></trkpt><trkpt lat="44.2036067" lon="11.95012"><ele>169.57142857142858</ele><time>2026-05-01T17:11:36.439Z</time></trkpt><trkpt lat="44.2035533" lon="11.950185"><ele>170.71428571428572</ele><time>2026-05-01T17:11:39.441Z</time></trkpt><trkpt lat="44.203495" lon="11.950245"><ele>171.85714285714286</ele><time>2026-05-01T17:11:43.439Z</time></trkpt><trkpt lat="44.2034333" lon="11.9503217"><ele>173.0</ele><time>2026-05-01T17:11:48.442Z</time></trkpt><trkpt lat="44.203375" lon="11.9504033"><ele>173.0</ele><time>2026-05-01T17:11:51.438Z</time></trkpt><trkpt lat="44.2033067" lon="11.95049"><ele>173.0</ele><time>2026-05-01T17:11:54.44Z</time></trkpt><trkpt lat="44.2032417" lon="11.9505767"><ele>173.0</ele><time>2026-05-01T17:11:57.441Z</time></trkpt><trkpt lat="44.203175" lon="11.950645"><ele>173.0</ele><time>2026-05-01T17:12:00.44Z</time></trkpt><trkpt lat="44.2031183" lon="11.9507067"><ele>173.0</ele><time>2026-05-01T17:12:03.439Z</time></trkpt><trkpt lat="44.2030567" lon="11.9507667"><ele>173.0</ele><time>2026-05-01T17:12:06.441Z</time></trkpt><trkpt lat="44.2029967" lon="11.9508267"><ele>172.7142857142857</ele><time>2026-05-01T17:12:09.44Z</time></trkpt><trkpt lat="44.2029267" lon="11.9508617"><ele>172.42857142857144</ele><time>2026-05-01T17:12:12.438Z</time></trkpt><trkpt lat="44.2028617" lon="11.9509017"><ele>172.14285714285714</ele><time>2026-05-01T17:12:15.44Z</time></trkpt><trkpt lat="44.2027967" lon="11.9509433"><ele>171.85714285714283</ele><time>2026-05-01T17:12:18.438Z</time></trkpt><trkpt lat="44.20273" lon="11.9509767"><ele>171.57142857142856</ele><time>2026-05-01T17:12:21.44Z</time></trkpt><trkpt lat="44.2026683" lon="11.9510083"><ele>171.28571428571428</ele><time>2026-05-01T17:12:24.441Z</time></trkpt><trkpt lat="44.2026033" lon="11.9510433"><ele>171.0</ele><time>2026-05-01T17:12:27.44Z</time></trkpt><trkpt lat="44.202525" lon="11.9510567"><ele>170.99999999999997</ele><time>2026-05-01T17:12:31.441Z</time></trkpt><trkpt lat="44.2024617" lon="11.9510867"><ele>171.0</ele><time>2026-05-01T17:12:34.441Z</time></trkpt><trkpt lat="44.2023783" lon="11.9511167"><ele>171.0</ele><time>2026-05-01T17:12:38.442Z</time></trkpt><trkpt lat="44.202315" lon="11.9511333"><ele>171.0</ele><time>2026-05-01T17:12:41.439Z</time></trkpt><trkpt lat="44.2022483" lon="11.9511483"><ele>171.0</ele><time>2026-05-01T17:12:44.44Z</time></trkpt><trkpt lat="44.2021833" lon="11.9511517"><ele>170.99999999999997</ele><time>2026-05-01T17:12:47.44Z</time></trkpt><trkpt lat="44.2021017" lon="11.9511433"><ele>171.0</ele><time>2026-05-01T17:12:51.441Z</time></trkpt><trkpt lat="44.20203" lon="11.95115"><ele>171.7142857142857</ele><time>2026-05-01T17:12:54.44Z</time></trkpt><trkpt lat="44.2019617" lon="11.951125"><ele>172.42857142857142</ele><time>2026-05-01T17:12:57.439Z</time></trkpt><trkpt lat="44.2018933" lon="11.9511267"><ele>173.14285714285714</ele><time>2026-05-01T17:13:00.438Z</time></trkpt><trkpt lat="44.201825" lon="11.9511117"><ele>173.85714285714283</ele><time>2026-05-01T17:13:03.44Z</time></trkpt><trkpt lat="44.2017533" lon="11.9510983"><ele>174.57142857142856</ele><time>2026-05-01T17:13:07.44Z</time></trkpt><trkpt lat="44.20169" lon="11.9510683"><ele>175.28571428571428</ele><time>2026-05-01T17:13:10.44Z</time></trkpt><trkpt lat="44.2016267" lon="11.9510483"><ele>176.0</ele><time>2026-05-01T17:13:13.441Z</time></trkpt><trkpt lat="44.2015633" lon="11.9510117"><ele>176.0</ele><time>2026-05-01T17:13:16.442Z</time></trkpt><trkpt lat="44.2015" lon="11.9509717"><ele>176.0</ele><time>2026-05-01T17:13:19.441Z</time></trkpt><trkpt lat="44.2014167" lon="11.9509517"><ele>176.0</ele><time>2026-05-01T17:13:22.441Z</time></trkpt><trkpt lat="44.2013367" lon="11.95093"><ele>176.0</ele><time>2026-05-01T17:13:25.442Z</time></trkpt><trkpt lat="44.2012633" lon="11.95093"><ele>176.0</ele><time>2026-05-01T17:13:28.44Z</time></trkpt><trkpt lat="44.201195" lon="11.9509233"><ele>176.0</ele><time>2026-05-01T17:13:30.44Z</time></trkpt><trkpt lat="44.2011317" lon="11.9509"><ele>176.0</ele><time>2026-05-01T17:13:32.442Z</time></trkpt><trkpt lat="44.20105" lon="11.9508933"><ele>176.16666666666666</ele><time>2026-05-01T17:13:34.441Z</time></trkpt><trkpt lat="44.2009633" lon="11.9508883"><ele>176.33333333333331</ele><time>2026-05-01T17:13:36.443Z</time></trkpt><trkpt lat="44.200865" lon="11.9508917"><ele>176.5</ele><time>2026-05-01T17:13:38.441Z</time></trkpt><trkpt lat="44.2007683" lon="11.950905"><ele>176.66666666666666</ele><time>2026-05-01T17:13:40.441Z</time></trkpt><trkpt lat="44.2006833" lon="11.9508883"><ele>176.83333333333334</ele><time>2026-05-01T17:13:42.442Z</time></trkpt><trkpt lat="44.2006083" lon="11.9508467"><ele>177.0</ele><time>2026-05-01T17:13:44.442Z</time></trkpt><trkpt lat="44.2005433" lon="11.9508067"><ele>178.2857142857143</ele><time>2026-05-01T17:13:46.443Z</time></trkpt><trkpt lat="44.2004717" lon="11.9507667"><ele>179.57142857142856</ele><time>2026-05-01T17:13:49.44Z</time></trkpt><trkpt lat="44.2004117" lon="11.9507383"><ele>180.85714285714286</ele><time>2026-05-01T17:13:52.442Z</time></trkpt><trkpt lat="44.2003483" lon="11.9507117"><ele>182.14285714285717</ele><time>2026-05-01T17:13:55.441Z</time></trkpt><trkpt lat="44.200275" lon="11.9506717"><ele>183.42857142857144</ele><time>2026-05-01T17:13:59.44Z</time></trkpt><trkpt lat="44.200215" lon="11.9506317"><ele>184.71428571428572</ele><time>2026-05-01T17:14:02.443Z</time></trkpt><trkpt lat="44.2001383" lon="11.950605"><ele>186.0</ele><time>2026-05-01T17:14:06.441Z</time></trkpt><trkpt lat="44.200075" lon="11.9505733"><ele>186.00000000000003</ele><time>2026-05-01T17:14:10.442Z</time></trkpt><trkpt lat="44.2000083" lon="11.950545"><ele>186.0</ele><time>2026-05-01T17:14:14.442Z</time></trkpt><trkpt lat="44.199935" lon="11.9505083"><ele>186.0</ele><time>2026-05-01T17:14:18.441Z</time></trkpt><trkpt lat="44.1998783" lon="11.95047"><ele>186.0</ele><time>2026-05-01T17:14:22.442Z</time></trkpt><trkpt lat="44.1998083" lon="11.9504333"><ele>186.0</ele><time>2026-05-01T17:14:26.441Z</time></trkpt><trkpt lat="44.1997533" lon="11.95038"><ele>186.00000000000003</ele><time>2026-05-01T17:14:30.441Z</time></trkpt><trkpt lat="44.1996867" lon="11.9503483"><ele>186.0</ele><time>2026-05-01T17:14:34.44Z</time></trkpt><trkpt lat="44.1996183" lon="11.9503317"><ele>186.71428571428572</ele><time>2026-05-01T17:14:38.439Z</time></trkpt><trkpt lat="44.1995567" lon="11.9503017"><ele>187.42857142857144</ele><time>2026-05-01T17:14:42.44Z</time></trkpt><trkpt lat="44.1994983" lon="11.950265"><ele>188.14285714285717</ele><time>2026-05-01T17:14:46.443Z</time></trkpt><trkpt lat="44.19943" lon="11.9502283"><ele>188.85714285714286</ele><time>2026-05-01T17:14:50.444Z</time></trkpt><trkpt lat="44.1993717" lon="11.95018"><ele>189.57142857142856</ele><time>2026-05-01T17:14:53.442Z</time></trkpt><trkpt lat="44.1993083" lon="11.9501283"><ele>190.2857142857143</ele><time>2026-05-01T17:14:57.443Z</time></trkpt><trkpt lat="44.199245" lon="11.9500583"><ele>191.0</ele><time>2026-05-01T17:15:01.441Z</time></trkpt><trkpt lat="44.19919" lon="11.9499783"><ele>191.16666666666666</ele><time>2026-05-01T17:15:05.44Z</time></trkpt><trkpt lat="44.1991433" lon="11.9498967"><ele>191.33333333333331</ele><time>2026-05-01T17:15:09.442Z</time></trkpt><trkpt lat="44.1990917" lon="11.94981"><ele>191.5</ele><time>2026-05-01T17:15:13.442Z</time></trkpt><trkpt lat="44.1990467" lon="11.94971"><ele>191.66666666666666</ele><time>2026-05-01T17:15:17.443Z</time></trkpt><trkpt lat="44.1990017" lon="11.9496433"><ele>191.83333333333334</ele><time>2026-05-01T17:15:20.441Z</time></trkpt><trkpt lat="44.19895" lon="11.9495817"><ele>192.0</ele><time>2026-05-01T17:15:24.44Z</time></trkpt><trkpt lat="44.1988633" lon="11.9494717"><ele>191.99999999999997</ele><time>2026-05-01T17:17:38.441Z</time></trkpt><trkpt lat="44.1988083" lon="11.9494133"><ele>192.0</ele><time>2026-05-01T17:17:42.44Z</time></trkpt><trkpt lat="44.1987517" lon="11.9493583"><ele>192.0</ele><time>2026-05-01T17:17:45.439Z</time></trkpt><trkpt lat="44.19869" lon="11.9492917"><ele>192.0</ele><time>2026-05-01T17:17:49.442Z</time></trkpt><trkpt lat="44.1986217" lon="11.94925"><ele>192.0</ele><time>2026-05-01T17:17:52.441Z</time></trkpt><trkpt lat="44.1985467" lon="11.9492017"><ele>191.99999999999997</ele><time>2026-05-01T17:17:55.441Z</time></trkpt><trkpt lat="44.198485" lon="11.9491633"><ele>192.0</ele><time>2026-05-01T17:17:57.441Z</time></trkpt><trkpt lat="44.198425" lon="11.94912"><ele>191.99999999999997</ele><time>2026-05-01T17:17:59.44Z</time></trkpt><trkpt lat="44.1983617" lon="11.9490783"><ele>192.0</ele><time>2026-05-01T17:18:01.441Z</time></trkpt><trkpt lat="44.198295" lon="11.9490417"><ele>192.0</ele><time>2026-05-01T17:18:03.44Z</time></trkpt><trkpt lat="44.19822" lon="11.9490117"><ele>192.0</ele><time>2026-05-01T17:18:05.44Z</time></trkpt><trkpt lat="44.1981567" lon="11.9489717"><ele>192.0</ele><time>2026-05-01T17:18:07.441Z</time></trkpt><trkpt lat="44.1980933" lon="11.94893"><ele>191.99999999999997</ele><time>2026-05-01T17:18:09.442Z</time></trkpt><trkpt lat="44.1980333" lon="11.9488817"><ele>192.0</ele><time>2026-05-01T17:18:11.441Z</time></trkpt><trkpt lat="44.1979683" lon="11.9488317"><ele>191.5</ele><time>2026-05-01T17:18:13.44Z</time></trkpt><trkpt lat="44.1978967" lon="11.9487917"><ele>191.0</ele><time>2026-05-01T17:18:15.441Z</time></trkpt><trkpt lat="44.197825" lon="11.9487467"><ele>190.5</ele><time>2026-05-01T17:18:17.442Z</time></trkpt><trkpt lat="44.1977567" lon="11.948695"><ele>190.0</ele><time>2026-05-01T17:18:19.443Z</time></trkpt><trkpt lat="44.1976867" lon="11.9486567"><ele>189.5</ele><time>2026-05-01T17:18:21.443Z</time></trkpt><trkpt lat="44.1976167" lon="11.948625"><ele>189.0</ele><time>2026-05-01T17:18:23.443Z</time></trkpt><trkpt lat="44.197545" lon="11.9486"><ele>189.0</ele><time>2026-05-01T17:18:25.441Z</time></trkpt><trkpt lat="44.1974633" lon="11.9485783"><ele>189.0</ele><time>2026-05-01T17:18:27.44Z</time></trkpt><trkpt lat="44.1973833" lon="11.94856"><ele>189.0</ele><time>2026-05-01T17:18:29.441Z</time></trkpt><trkpt lat="44.1973033" lon="11.9485317"><ele>189.0</ele><time>2026-05-01T17:18:31.44Z</time></trkpt><trkpt lat="44.1972233" lon="11.9485033"><ele>189.0</ele><time>2026-05-01T17:18:33.44Z</time></trkpt><trkpt lat="44.1971433" lon="11.9484783"><ele>189.0</ele><time>2026-05-01T17:18:35.441Z</time></trkpt><trkpt lat="44.1970683" lon="11.948455"><ele>189.16666666666666</ele><time>2026-05-01T17:18:37.44Z</time></trkpt><trkpt lat="44.196995" lon="11.9484333"><ele>189.33333333333334</ele><time>2026-05-01T17:18:39.441Z</time></trkpt><trkpt lat="44.1969233" lon="11.9484083"><ele>189.5</ele><time>2026-05-01T17:18:41.441Z</time></trkpt><trkpt lat="44.1968617" lon="11.948375"><ele>189.66666666666669</ele><time>2026-05-01T17:18:43.439Z</time></trkpt><trkpt lat="44.1967983" lon="11.9483417"><ele>189.83333333333334</ele><time>2026-05-01T17:18:45.441Z</time></trkpt><trkpt lat="44.19672" lon="11.94831"><ele>190.0</ele><time>2026-05-01T17:18:47.443Z</time></trkpt><trkpt lat="44.1966383" lon="11.9482733"><ele>190.0</ele><time>2026-05-01T17:18:49.443Z</time></trkpt><trkpt lat="44.196555" lon="11.9482267"><ele>190.0</ele><time>2026-05-01T17:18:51.443Z</time></trkpt><trkpt lat="44.196475" lon="11.9481833"><ele>190.0</ele><time>2026-05-01T17:18:53.443Z</time></trkpt><trkpt lat="44.1963917" lon="11.9481367"><ele>190.0</ele><time>2026-05-01T17:18:55.44Z</time></trkpt><trkpt lat="44.1963117" lon="11.9480917"><ele>190.0</ele><time>2026-05-01T17:18:57.441Z</time></trkpt><trkpt lat="44.1962317" lon="11.94805"><ele>190.0</ele><time>2026-05-01T17:18:59.44Z</time></trkpt><trkpt lat="44.196155" lon="11.948"><ele>189.4</ele><time>2026-05-01T17:19:01.441Z</time></trkpt><trkpt lat="44.19609" lon="11.9479433"><ele>188.8</ele><time>2026-05-01T17:19:03.441Z</time></trkpt><trkpt lat="44.1960267" lon="11.947875"><ele>188.2</ele><time>2026-05-01T17:19:05.442Z</time></trkpt><trkpt lat="44.19595" lon="11.9477983"><ele>187.6</ele><time>2026-05-01T17:19:07.439Z</time></trkpt><trkpt lat="44.1958617" lon="11.9477133"><ele>187.0</ele><time>2026-05-01T17:19:09.443Z</time></trkpt><trkpt lat="44.195765" lon="11.9476183"><ele>186.39999999999998</ele><time>2026-05-01T17:19:11.44Z</time></trkpt><trkpt lat="44.1956833" lon="11.9475333"><ele>185.79999999999998</ele><time>2026-05-01T17:19:13.441Z</time></trkpt><trkpt lat="44.1956067" lon="11.9474517"><ele>185.2</ele><time>2026-05-01T17:19:15.441Z</time></trkpt><trkpt lat="44.1955283" lon="11.9473733"><ele>184.6</ele><time>2026-05-01T17:19:17.44Z</time></trkpt><trkpt lat="44.195455" lon="11.94728"><ele>184.0</ele><time>2026-05-01T17:19:19.443Z</time></trkpt><trkpt lat="44.19538" lon="11.9471967"><ele>183.66666666666669</ele><time>2026-05-01T17:19:21.443Z</time></trkpt><trkpt lat="44.1953133" lon="11.9471133"><ele>183.33333333333334</ele><time>2026-05-01T17:19:23.442Z</time></trkpt><trkpt lat="44.19525" lon="11.9470317"><ele>183.0</ele><time>2026-05-01T17:19:25.44Z</time></trkpt><trkpt lat="44.1951867" lon="11.946955"><ele>182.66666666666666</ele><time>2026-05-01T17:19:27.44Z</time></trkpt><trkpt lat="44.195125" lon="11.9468767"><ele>182.33333333333331</ele><time>2026-05-01T17:19:29.441Z</time></trkpt><trkpt lat="44.19506" lon="11.9468033"><ele>182.0</ele><time>2026-05-01T17:19:31.442Z</time></trkpt><trkpt lat="44.1950017" lon="11.9467233"><ele>182.16666666666666</ele><time>2026-05-01T17:19:33.44Z</time></trkpt><trkpt lat="44.1949367" lon="11.946645"><ele>182.33333333333331</ele><time>2026-05-01T17:19:35.442Z</time></trkpt><trkpt lat="44.1948767" lon="11.9465717"><ele>182.5</ele><time>2026-05-01T17:19:37.441Z</time></trkpt><trkpt lat="44.19482" lon="11.946505"><ele>182.66666666666666</ele><time>2026-05-01T17:19:39.44Z</time></trkpt><trkpt lat="44.1947633" lon="11.9464333"><ele>182.83333333333334</ele><time>2026-05-01T17:19:41.441Z</time></trkpt><trkpt lat="44.194705" lon="11.94636"><ele>183.0</ele><time>2026-05-01T17:19:43.441Z</time></trkpt><trkpt lat="44.1946467" lon="11.9462917"><ele>183.0</ele><time>2026-05-01T17:19:45.44Z</time></trkpt><trkpt lat="44.19459" lon="11.9462233"><ele>183.0</ele><time>2026-05-01T17:19:47.44Z</time></trkpt><trkpt lat="44.1945367" lon="11.9461567"><ele>183.0</ele><time>2026-05-01T17:19:49.442Z</time></trkpt><trkpt lat="44.1944883" lon="11.9460967"><ele>183.0</ele><time>2026-05-01T17:19:51.442Z</time></trkpt><trkpt lat="44.1944217" lon="11.9460183"><ele>183.0</ele><time>2026-05-01T17:19:54.443Z</time></trkpt><trkpt lat="44.19437" lon="11.9459383"><ele>183.0</ele><time>2026-05-01T17:19:57.442Z</time></trkpt><trkpt lat="44.1943133" lon="11.94586"><ele>183.83333333333334</ele><time>2026-05-01T17:20:00.442Z</time></trkpt><trkpt lat="44.1942533" lon="11.9457833"><ele>184.66666666666666</ele><time>2026-05-01T17:20:03.442Z</time></trkpt><trkpt lat="44.19419" lon="11.9457083"><ele>185.5</ele><time>2026-05-01T17:20:06.442Z</time></trkpt><trkpt lat="44.1941417" lon="11.9456333"><ele>186.33333333333331</ele><time>2026-05-01T17:20:09.442Z</time></trkpt><trkpt lat="44.194075" lon="11.9455533"><ele>187.16666666666666</ele><time>2026-05-01T17:20:13.442Z</time></trkpt><trkpt lat="44.1940167" lon="11.9454683"><ele>188.0</ele><time>2026-05-01T17:20:17.44Z</time></trkpt><trkpt lat="44.1939533" lon="11.9453967"><ele>188.0</ele><time>2026-05-01T17:20:21.443Z</time></trkpt><trkpt lat="44.193885" lon="11.9453283"><ele>188.0</ele><time>2026-05-01T17:20:25.442Z</time></trkpt><trkpt lat="44.1938217" lon="11.945265"><ele>188.0</ele><time>2026-05-01T17:20:29.443Z</time></trkpt><trkpt lat="44.1937783" lon="11.9451983"><ele>188.0</ele><time>2026-05-01T17:20:33.442Z</time></trkpt><trkpt lat="44.1937217" lon="11.9451417"><ele>188.0</ele><time>2026-05-01T17:20:37.443Z</time></trkpt><trkpt lat="44.1936717" lon="11.9450733"><ele>188.0</ele><time>2026-05-01T17:20:41.441Z</time></trkpt><trkpt lat="44.1936117" lon="11.94502"><ele>188.0</ele><time>2026-05-01T17:20:45.441Z</time></trkpt><trkpt lat="44.19356" lon="11.9449533"><ele>188.71428571428572</ele><time>2026-05-01T17:20:50.442Z</time></trkpt><trkpt lat="44.193515" lon="11.944875"><ele>189.42857142857142</ele><time>2026-05-01T17:20:55.443Z</time></trkpt><trkpt lat="44.1934767" lon="11.9448"><ele>190.14285714285717</ele><time>2026-05-01T17:20:59.441Z</time></trkpt><trkpt lat="44.193435" lon="11.9447333"><ele>190.85714285714286</ele><time>2026-05-01T17:21:03.441Z</time></trkpt><trkpt lat="44.1934" lon="11.9446533"><ele>191.57142857142858</ele><time>2026-05-01T17:21:07.442Z</time></trkpt><trkpt lat="44.19336" lon="11.9445767"><ele>192.2857142857143</ele><time>2026-05-01T17:21:12.442Z</time></trkpt><trkpt lat="44.1933217" lon="11.9445033"><ele>193.0</ele><time>2026-05-01T17:21:16.441Z</time></trkpt><trkpt lat="44.193285" lon="11.9444117"><ele>192.99999999999997</ele><time>2026-05-01T17:21:20.442Z</time></trkpt><trkpt lat="44.1932517" lon="11.9443183"><ele>193.0</ele><time>2026-05-01T17:21:24.442Z</time></trkpt><trkpt lat="44.1932183" lon="11.94422"><ele>193.0</ele><time>2026-05-01T17:21:28.44Z</time></trkpt><trkpt lat="44.1931883" lon="11.9441233"><ele>193.0</ele><time>2026-05-01T17:21:32.441Z</time></trkpt><trkpt lat="44.1931617" lon="11.94402"><ele>192.99999999999997</ele><time>2026-05-01T17:21:36.441Z</time></trkpt><trkpt lat="44.1931433" lon="11.9439183"><ele>193.0</ele><time>2026-05-01T17:21:40.441Z</time></trkpt><trkpt lat="44.1931333" lon="11.9438233"><ele>193.14285714285717</ele><time>2026-05-01T17:21:44.44Z</time></trkpt><trkpt lat="44.1931317" lon="11.943725"><ele>193.28571428571428</ele><time>2026-05-01T17:21:48.44Z</time></trkpt><trkpt lat="44.1931367" lon="11.943635"><ele>193.42857142857144</ele><time>2026-05-01T17:21:52.442Z</time></trkpt><trkpt lat="44.1931383" lon="11.9435367"><ele>193.57142857142858</ele><time>2026-05-01T17:21:56.44Z</time></trkpt><trkpt lat="44.1931333" lon="11.943435"><ele>193.71428571428572</ele><time>2026-05-01T17:22:00.44Z</time></trkpt><trkpt lat="44.1931317" lon="11.9433433"><ele>193.85714285714286</ele><time>2026-05-01T17:22:04.44Z</time></trkpt><trkpt lat="44.19313" lon="11.9432433"><ele>194.0</ele><time>2026-05-01T17:22:08.44Z</time></trkpt><trkpt lat="44.1931283" lon="11.9431367"><ele>194.0</ele><time>2026-05-01T17:22:12.439Z</time></trkpt><trkpt lat="44.1931333" lon="11.943045"><ele>194.0</ele><time>2026-05-01T17:22:16.443Z</time></trkpt><trkpt lat="44.1931317" lon="11.9429483"><ele>194.0</ele><time>2026-05-01T17:22:20.439Z</time></trkpt><trkpt lat="44.19314" lon="11.94285"><ele>194.0</ele><time>2026-05-01T17:22:24.44Z</time></trkpt><trkpt lat="44.19314" lon="11.9427567"><ele>194.0</ele><time>2026-05-01T17:22:28.441Z</time></trkpt><trkpt lat="44.193135" lon="11.9426517"><ele>194.0</ele><time>2026-05-01T17:22:33.44Z</time></trkpt><trkpt lat="44.193125" lon="11.9425617"><ele>194.0</ele><time>2026-05-01T17:22:37.44Z</time></trkpt><trkpt lat="44.1931317" lon="11.9424717"><ele>195.28571428571428</ele><time>2026-05-01T17:22:42.439Z</time></trkpt><trkpt lat="44.1931417" lon="11.9423683"><ele>196.57142857142858</ele><time>2026-05-01T17:22:47.441Z</time></trkpt><trkpt lat="44.19315" lon="11.942265"><ele>197.85714285714286</ele><time>2026-05-01T17:22:52.441Z</time></trkpt><trkpt lat="44.1931667" lon="11.9421633"><ele>199.14285714285714</ele><time>2026-05-01T17:22:57.44Z</time></trkpt><trkpt lat="44.19319" lon="11.942075"><ele>200.42857142857144</ele><time>2026-05-01T17:23:02.441Z</time></trkpt><trkpt lat="44.1932217" lon="11.9419783"><ele>201.71428571428572</ele><time>2026-05-01T17:23:07.441Z</time></trkpt><trkpt lat="44.19325" lon="11.9418983"><ele>203.0</ele><time>2026-05-01T17:23:12.441Z</time></trkpt><trkpt lat="44.1932733" lon="11.9418117"><ele>203.71428571428572</ele><time>2026-05-01T17:23:17.439Z</time></trkpt><trkpt lat="44.1932933" lon="11.9417167"><ele>204.42857142857144</ele><time>2026-05-01T17:23:22.441Z</time></trkpt><trkpt lat="44.193315" lon="11.941615"><ele>205.14285714285714</ele><time>2026-05-01T17:23:27.44Z</time></trkpt><trkpt lat="44.1933467" lon="11.9415267"><ele>205.85714285714286</ele><time>2026-05-01T17:23:32.44Z</time></trkpt><trkpt lat="44.193385" lon="11.941445"><ele>206.57142857142858</ele><time>2026-05-01T17:23:37.443Z</time></trkpt><trkpt lat="44.1934483" lon="11.9413717"><ele>207.28571428571428</ele><time>2026-05-01T17:23:52.441Z</time></trkpt><trkpt lat="44.19348" lon="11.9412817"><ele>208.0</ele><time>2026-05-01T17:23:55.44Z</time></trkpt><trkpt lat="44.1935167" lon="11.9411883"><ele>209.16666666666666</ele><time>2026-05-01T17:24:02.441Z</time></trkpt><trkpt lat="44.19357" lon="11.94113"><ele>210.33333333333331</ele><time>2026-05-01T17:24:08.44Z</time></trkpt><trkpt lat="44.1936033" lon="11.94105"><ele>211.5</ele><time>2026-05-01T17:24:14.44Z</time></trkpt><trkpt lat="44.19365" lon="11.9409183"><ele>212.66666666666669</ele><time>2026-05-01T17:24:25.442Z</time></trkpt><trkpt lat="44.1936683" lon="11.9407933"><ele>213.83333333333334</ele><time>2026-05-01T17:24:33.441Z</time></trkpt><trkpt lat="44.1936883" lon="11.9406983"><ele>215.0</ele><time>2026-05-01T17:24:38.441Z</time></trkpt><trkpt lat="44.1937083" lon="11.9406067"><ele>216.0</ele><time>2026-05-01T17:24:45.44Z</time></trkpt><trkpt lat="44.1937133" lon="11.9405183"><ele>217.0</ele><time>2026-05-01T17:24:51.441Z</time></trkpt><trkpt lat="44.19372" lon="11.9404267"><ele>218.0</ele><time>2026-05-01T17:24:57.441Z</time></trkpt><trkpt lat="44.1937117" lon="11.940335"><ele>219.0</ele><time>2026-05-01T17:25:03.44Z</time></trkpt><trkpt lat="44.1937017" lon="11.9402433"><ele>220.0</ele><time>2026-05-01T17:25:09.44Z</time></trkpt><trkpt lat="44.1936917" lon="11.94014"><ele>221.0</ele><time>2026-05-01T17:25:16.441Z</time></trkpt><trkpt lat="44.1936733" lon="11.940055"><ele>222.0</ele><time>2026-05-01T17:25:22.44Z</time></trkpt><trkpt lat="44.1936517" lon="11.9399667"><ele>223.14285714285714</ele><time>2026-05-01T17:25:27.441Z</time></trkpt><trkpt lat="44.193625" lon="11.9398767"><ele>224.28571428571428</ele><time>2026-05-01T17:25:33.44Z</time></trkpt><trkpt lat="44.1935933" lon="11.939785"><ele>225.42857142857142</ele><time>2026-05-01T17:25:40.44Z</time></trkpt><trkpt lat="44.1935683" lon="11.9396967"><ele>226.57142857142856</ele><time>2026-05-01T17:25:46.44Z</time></trkpt><trkpt lat="44.1935483" lon="11.9396117"><ele>227.71428571428572</ele><time>2026-05-01T17:25:54.443Z</time></trkpt><trkpt lat="44.19352" lon="11.9395233"><ele>228.85714285714283</ele><time>2026-05-01T17:25:57.44Z</time></trkpt><trkpt lat="44.1934967" lon="11.9394417"><ele>229.99999999999997</ele><time>2026-05-01T17:26:00.441Z</time></trkpt><trkpt lat="44.19347" lon="11.9393367"><ele>230.00000000000003</ele><time>2026-05-01T17:26:03.445Z</time></trkpt><trkpt lat="44.1934433" lon="11.9392317"><ele>230.0</ele><time>2026-05-01T17:26:06.441Z</time></trkpt><trkpt lat="44.1934317" lon="11.93914"><ele>230.0</ele><time>2026-05-01T17:26:08.44Z</time></trkpt><trkpt lat="44.1934383" lon="11.939025"><ele>230.0</ele><time>2026-05-01T17:26:10.44Z</time></trkpt><trkpt lat="44.1934467" lon="11.9388967"><ele>230.00000000000003</ele><time>2026-05-01T17:26:12.441Z</time></trkpt><trkpt lat="44.19345" lon="11.93875"><ele>230.0</ele><time>2026-05-01T17:26:14.441Z</time></trkpt><trkpt lat="44.1934567" lon="11.9385933"><ele>229.6</ele><time>2026-05-01T17:26:16.442Z</time></trkpt><trkpt lat="44.1934617" lon="11.938425"><ele>229.2</ele><time>2026-05-01T17:26:18.443Z</time></trkpt><trkpt lat="44.1934667" lon="11.938335"><ele>228.8</ele><time>2026-05-01T17:26:19.443Z</time></trkpt><trkpt lat="44.1934783" lon="11.9381617"><ele>228.4</ele><time>2026-05-01T17:26:21.443Z</time></trkpt><trkpt lat="44.1934817" lon="11.9380733"><ele>228.0</ele><time>2026-05-01T17:26:22.444Z</time></trkpt><trkpt lat="44.1934867" lon="11.9378967"><ele>227.0</ele><time>2026-05-01T17:26:24.441Z</time></trkpt><trkpt lat="44.1934933" lon="11.9377333"><ele>226.0</ele><time>2026-05-01T17:26:26.44Z</time></trkpt><trkpt lat="44.193505" lon="11.9375817"><ele>225.0</ele><time>2026-05-01T17:26:28.441Z</time></trkpt><trkpt lat="44.1935083" lon="11.9374433"><ele>224.0</ele><time>2026-05-01T17:26:30.441Z</time></trkpt><trkpt lat="44.1935133" lon="11.9373233"><ele>223.0</ele><time>2026-05-01T17:26:32.439Z</time></trkpt><trkpt lat="44.1935183" lon="11.9372167"><ele>223.0</ele><time>2026-05-01T17:26:34.44Z</time></trkpt><trkpt lat="44.1935167" lon="11.93711"><ele>223.0</ele><time>2026-05-01T17:26:36.44Z</time></trkpt><trkpt lat="44.1935183" lon="11.937015"><ele>223.0</ele><time>2026-05-01T17:26:38.443Z</time></trkpt><trkpt lat="44.1935183" lon="11.9369133"><ele>223.0</ele><time>2026-05-01T17:26:40.439Z</time></trkpt><trkpt lat="44.1935167" lon="11.9368217"><ele>223.0</ele><time>2026-05-01T17:26:42.439Z</time></trkpt><trkpt lat="44.1935183" lon="11.9367333"><ele>223.0</ele><time>2026-05-01T17:26:44.439Z</time></trkpt><trkpt lat="44.193515" lon="11.9366167"><ele>223.0</ele><time>2026-05-01T17:26:47.44Z</time></trkpt><trkpt lat="44.19352" lon="11.9364983"><ele>222.99999999999997</ele><time>2026-05-01T17:26:50.441Z</time></trkpt><trkpt lat="44.1935317" lon="11.936395"><ele>223.0</ele><time>2026-05-01T17:26:53.441Z</time></trkpt><trkpt lat="44.1935367" lon="11.9362883"><ele>223.0</ele><time>2026-05-01T17:26:56.441Z</time></trkpt><trkpt lat="44.1934783" lon="11.9362483"><ele>223.0</ele><time>2026-05-01T17:27:01.44Z</time></trkpt><trkpt lat="44.193365" lon="11.936265"><ele>222.99999999999997</ele><time>2026-05-01T17:27:10.439Z</time></trkpt><trkpt lat="44.193295" lon="11.9362533"><ele>223.0</ele><time>2026-05-01T17:27:13.439Z</time></trkpt><trkpt lat="44.1932283" lon="11.9362283"><ele>220.66666666666666</ele><time>2026-05-01T17:27:16.442Z</time></trkpt><trkpt lat="44.1931633" lon="11.936195"><ele>218.33333333333331</ele><time>2026-05-01T17:27:19.44Z</time></trkpt><trkpt lat="44.1930883" lon="11.9361333"><ele>216.0</ele><time>2026-05-01T17:27:22.439Z</time></trkpt><trkpt lat="44.193025" lon="11.93607"><ele>213.66666666666669</ele><time>2026-05-01T17:27:24.441Z</time></trkpt><trkpt lat="44.1929467" lon="11.9359817"><ele>211.33333333333334</ele><time>2026-05-01T17:27:26.44Z</time></trkpt><trkpt lat="44.1928517" lon="11.9358933"><ele>209.0</ele><time>2026-05-01T17:27:28.44Z</time></trkpt><trkpt lat="44.1927433" lon="11.9358133"><ele>209.00000000000003</ele><time>2026-05-01T17:27:30.44Z</time></trkpt><trkpt lat="44.1926233" lon="11.9357583"><ele>209.0</ele><time>2026-05-01T17:27:32.44Z</time></trkpt><trkpt lat="44.1925583" lon="11.9357383"><ele>209.0</ele><time>2026-05-01T17:27:33.44Z</time></trkpt><trkpt lat="44.1924933" lon="11.9357217"><ele>209.0</ele><time>2026-05-01T17:27:34.439Z</time></trkpt><trkpt lat="44.192425" lon="11.9357083"><ele>209.00000000000003</ele><time>2026-05-01T17:27:35.441Z</time></trkpt><trkpt lat="44.1923517" lon="11.9357"><ele>209.0</ele><time>2026-05-01T17:27:36.441Z</time></trkpt><trkpt lat="44.19228" lon="11.9356967"><ele>207.66666666666669</ele><time>2026-05-01T17:27:37.44Z</time></trkpt><trkpt lat="44.1922083" lon="11.93569"><ele>206.33333333333334</ele><time>2026-05-01T17:27:38.439Z</time></trkpt><trkpt lat="44.1921383" lon="11.9356867"><ele>205.0</ele><time>2026-05-01T17:27:39.439Z</time></trkpt><trkpt lat="44.1920683" lon="11.9356817"><ele>203.66666666666669</ele><time>2026-05-01T17:27:40.44Z</time></trkpt><trkpt lat="44.1920033" lon="11.9356733"><ele>202.33333333333334</ele><time>2026-05-01T17:27:41.439Z</time></trkpt><trkpt lat="44.1918833" lon="11.9356383"><ele>201.0</ele><time>2026-05-01T17:27:43.44Z</time></trkpt><trkpt lat="44.1917867" lon="11.935575"><ele>201.0</ele><time>2026-05-01T17:27:45.44Z</time></trkpt><trkpt lat="44.1917217" lon="11.93548"><ele>201.0</ele><time>2026-05-01T17:27:47.44Z</time></trkpt><trkpt lat="44.19167" lon="11.9353533"><ele>201.0</ele><time>2026-05-01T17:27:49.44Z</time></trkpt><trkpt lat="44.1916033" lon="11.9352533"><ele>201.0</ele><time>2026-05-01T17:27:51.439Z</time></trkpt><trkpt lat="44.19153" lon="11.9352133"><ele>201.0</ele><time>2026-05-01T17:27:54.44Z</time></trkpt><trkpt lat="44.1914583" lon="11.93529"><ele>199.4</ele><time>2026-05-01T17:27:57.44Z</time></trkpt><trkpt lat="44.1914133" lon="11.9353933"><ele>197.8</ele><time>2026-05-01T17:27:59.44Z</time></trkpt><trkpt lat="44.19137" lon="11.935505"><ele>196.20000000000002</ele><time>2026-05-01T17:28:01.439Z</time></trkpt><trkpt lat="44.1913333" lon="11.93562"><ele>194.60000000000002</ele><time>2026-05-01T17:28:03.44Z</time></trkpt><trkpt lat="44.191295" lon="11.9357433"><ele>193.0</ele><time>2026-05-01T17:28:05.44Z</time></trkpt><trkpt lat="44.1912567" lon="11.9358817"><ele>190.60000000000002</ele><time>2026-05-01T17:28:07.439Z</time></trkpt><trkpt lat="44.1912183" lon="11.936005"><ele>188.20000000000002</ele><time>2026-05-01T17:28:09.44Z</time></trkpt><trkpt lat="44.1911967" lon="11.93613"><ele>185.8</ele><time>2026-05-01T17:28:11.44Z</time></trkpt><trkpt lat="44.1911583" lon="11.9362383"><ele>183.4</ele><time>2026-05-01T17:28:13.44Z</time></trkpt><trkpt lat="44.1910767" lon="11.936295"><ele>181.0</ele><time>2026-05-01T17:28:15.44Z</time></trkpt><trkpt lat="44.1909717" lon="11.9363267"><ele>181.0</ele><time>2026-05-01T17:28:17.441Z</time></trkpt><trkpt lat="44.190865" lon="11.9363633"><ele>181.0</ele><time>2026-05-01T17:28:19.439Z</time></trkpt><trkpt lat="44.190755" lon="11.9364167"><ele>181.0</ele><time>2026-05-01T17:28:21.439Z</time></trkpt><trkpt lat="44.1906617" lon="11.9365"><ele>181.0</ele><time>2026-05-01T17:28:23.439Z</time></trkpt><trkpt lat="44.1905783" lon="11.9365867"><ele>181.0</ele><time>2026-05-01T17:28:25.44Z</time></trkpt><trkpt lat="44.1905" lon="11.9366783"><ele>177.0</ele><time>2026-05-01T17:28:27.439Z</time></trkpt><trkpt lat="44.1904333" lon="11.9367467"><ele>173.0</ele><time>2026-05-01T17:28:29.44Z</time></trkpt><trkpt lat="44.1903433" lon="11.93683"><ele>169.0</ele><time>2026-05-01T17:28:31.44Z</time></trkpt><trkpt lat="44.1902583" lon="11.9369233"><ele>165.0</ele><time>2026-05-01T17:28:33.44Z</time></trkpt><trkpt lat="44.1901667" lon="11.9370133"><ele>161.0</ele><time>2026-05-01T17:28:35.439Z</time></trkpt><trkpt lat="44.1900717" lon="11.9370967"><ele>161.0</ele><time>2026-05-01T17:28:37.44Z</time></trkpt><trkpt lat="44.1899767" lon="11.93718"><ele>161.0</ele><time>2026-05-01T17:28:39.44Z</time></trkpt><trkpt lat="44.1898867" lon="11.937255"><ele>161.0</ele><time>2026-05-01T17:28:41.44Z</time></trkpt><trkpt lat="44.1897917" lon="11.9373317"><ele>161.0</ele><time>2026-05-01T17:28:43.44Z</time></trkpt><trkpt lat="44.1897083" lon="11.93742"><ele>161.0</ele><time>2026-05-01T17:28:45.439Z</time></trkpt><trkpt lat="44.1896367" lon="11.9375383"><ele>158.8</ele><time>2026-05-01T17:28:47.439Z</time></trkpt><trkpt lat="44.1895567" lon="11.9376717"><ele>156.60000000000002</ele><time>2026-05-01T17:28:49.44Z</time></trkpt><trkpt lat="44.189515" lon="11.9377383"><ele>154.4</ele><time>2026-05-01T17:28:50.44Z</time></trkpt><trkpt lat="44.1894283" lon="11.9378617"><ele>152.2</ele><time>2026-05-01T17:28:52.439Z</time></trkpt><trkpt lat="44.1893467" lon="11.9379833"><ele>150.0</ele><time>2026-05-01T17:28:54.44Z</time></trkpt><trkpt lat="44.1892633" lon="11.93809"><ele>150.0</ele><time>2026-05-01T17:28:56.439Z</time></trkpt><trkpt lat="44.1891733" lon="11.9381783"><ele>150.0</ele><time>2026-05-01T17:28:58.439Z</time></trkpt><trkpt lat="44.18908" lon="11.9382217"><ele>150.0</ele><time>2026-05-01T17:29:00.439Z</time></trkpt><trkpt lat="44.1889783" lon="11.9382483"><ele>150.0</ele><time>2026-05-01T17:29:02.44Z</time></trkpt><trkpt lat="44.188875" lon="11.9382567"><ele>150.0</ele><time>2026-05-01T17:29:04.44Z</time></trkpt><trkpt lat="44.1887833" lon="11.9382583"><ele>150.2</ele><time>2026-05-01T17:29:06.439Z</time></trkpt><trkpt lat="44.188695" lon="11.93828"><ele>150.4</ele><time>2026-05-01T17:29:08.44Z</time></trkpt><trkpt lat="44.1886067" lon="11.938285"><ele>150.6</ele><time>2026-05-01T17:29:10.44Z</time></trkpt><trkpt lat="44.1885167" lon="11.9382833"><ele>150.8</ele><time>2026-05-01T17:29:12.439Z</time></trkpt><trkpt lat="44.1884217" lon="11.9382783"><ele>151.0</ele><time>2026-05-01T17:29:14.44Z</time></trkpt><trkpt lat="44.1883233" lon="11.9382817"><ele>151.0</ele><time>2026-05-01T17:29:16.441Z</time></trkpt><trkpt lat="44.188225" lon="11.9382917"><ele>151.0</ele><time>2026-05-01T17:29:18.439Z</time></trkpt><trkpt lat="44.1881267" lon="11.938305"><ele>151.0</ele><time>2026-05-01T17:29:20.439Z</time></trkpt><trkpt lat="44.1880317" lon="11.9383267"><ele>151.0</ele><time>2026-05-01T17:29:22.439Z</time></trkpt><trkpt lat="44.1879367" lon="11.938365"><ele>151.0</ele><time>2026-05-01T17:29:24.44Z</time></trkpt><trkpt lat="44.1878333" lon="11.9384183"><ele>149.33333333333334</ele><time>2026-05-01T17:29:26.439Z</time></trkpt><trkpt lat="44.18772" lon="11.9384817"><ele>147.66666666666669</ele><time>2026-05-01T17:29:28.44Z</time></trkpt><trkpt lat="44.18766" lon="11.938515"><ele>146.0</ele><time>2026-05-01T17:29:29.44Z</time></trkpt><trkpt lat="44.1876" lon="11.93855"><ele>144.33333333333334</ele><time>2026-05-01T17:29:30.44Z</time></trkpt><trkpt lat="44.1875367" lon="11.9385867"><ele>142.66666666666666</ele><time>2026-05-01T17:29:31.44Z</time></trkpt><trkpt lat="44.1874717" lon="11.9386233"><ele>141.0</ele><time>2026-05-01T17:29:32.44Z</time></trkpt><trkpt lat="44.187405" lon="11.9386617"><ele>141.42857142857144</ele><time>2026-05-01T17:29:33.439Z</time></trkpt><trkpt lat="44.1873383" lon="11.938695"><ele>141.85714285714286</ele><time>2026-05-01T17:29:34.439Z</time></trkpt><trkpt lat="44.1872733" lon="11.9387267"><ele>142.28571428571428</ele><time>2026-05-01T17:29:35.44Z</time></trkpt><trkpt lat="44.1872067" lon="11.9387583"><ele>142.71428571428572</ele><time>2026-05-01T17:29:36.439Z</time></trkpt><trkpt lat="44.1871383" lon="11.9387833"><ele>143.14285714285714</ele><time>2026-05-01T17:29:37.44Z</time></trkpt><trkpt lat="44.18707" lon="11.9387967"><ele>143.57142857142858</ele><time>2026-05-01T17:29:38.439Z</time></trkpt><trkpt lat="44.187" lon="11.9388167"><ele>144.0</ele><time>2026-05-01T17:29:39.44Z</time></trkpt><trkpt lat="44.1869367" lon="11.9388183"><ele>144.0</ele><time>2026-05-01T17:29:40.439Z</time></trkpt><trkpt lat="44.1868283" lon="11.93879"><ele>144.0</ele><time>2026-05-01T17:29:42.441Z</time></trkpt><trkpt lat="44.18674" lon="11.93876"><ele>144.0</ele><time>2026-05-01T17:29:44.441Z</time></trkpt><trkpt lat="44.1866433" lon="11.9387633"><ele>144.0</ele><time>2026-05-01T17:29:46.441Z</time></trkpt><trkpt lat="44.1865483" lon="11.9388033"><ele>144.0</ele><time>2026-05-01T17:29:48.439Z</time></trkpt><trkpt lat="44.186455" lon="11.9388967"><ele>140.25</ele><time>2026-05-01T17:29:50.438Z</time></trkpt><trkpt lat="44.1863817" lon="11.9390267"><ele>136.5</ele><time>2026-05-01T17:29:52.439Z</time></trkpt><trkpt lat="44.1863333" lon="11.9391733"><ele>132.75</ele><time>2026-05-01T17:29:54.44Z</time></trkpt><trkpt lat="44.18629" lon="11.9393333"><ele>129.0</ele><time>2026-05-01T17:29:56.44Z</time></trkpt><trkpt lat="44.186225" lon="11.9394583"><ele>129.0</ele><time>2026-05-01T17:29:58.439Z</time></trkpt><trkpt lat="44.1861517" lon="11.9395767"><ele>129.0</ele><time>2026-05-01T17:30:00.439Z</time></trkpt><trkpt lat="44.18609" lon="11.9397167"><ele>129.0</ele><time>2026-05-01T17:30:02.439Z</time></trkpt><trkpt lat="44.186055" lon="11.93979"><ele>129.0</ele><time>2026-05-01T17:30:03.438Z</time></trkpt><trkpt lat="44.18599" lon="11.9399317"><ele>129.0</ele><time>2026-05-01T17:30:05.439Z</time></trkpt><trkpt lat="44.1859083" lon="11.940055"><ele>127.57142857142856</ele><time>2026-05-01T17:30:07.44Z</time></trkpt><trkpt lat="44.1858567" lon="11.9401117"><ele>126.14285714285714</ele><time>2026-05-01T17:30:08.438Z</time></trkpt><trkpt lat="44.1857983" lon="11.9401617"><ele>124.71428571428571</ele><time>2026-05-01T17:30:09.44Z</time></trkpt><trkpt lat="44.1857367" lon="11.9402067"><ele>123.28571428571428</ele><time>2026-05-01T17:30:10.44Z</time></trkpt><trkpt lat="44.1856767" lon="11.9402567"><ele>121.85714285714286</ele><time>2026-05-01T17:30:11.439Z</time></trkpt><trkpt lat="44.1856217" lon="11.9403233"><ele>120.42857142857143</ele><time>2026-05-01T17:30:12.439Z</time></trkpt><trkpt lat="44.18557" lon="11.9404017"><ele>119.0</ele><time>2026-05-01T17:30:13.44Z</time></trkpt><trkpt lat="44.1855233" lon="11.940485"><ele>119.0</ele><time>2026-05-01T17:30:14.439Z</time></trkpt><trkpt lat="44.18548" lon="11.9405683"><ele>119.0</ele><time>2026-05-01T17:30:15.44Z</time></trkpt><trkpt lat="44.185435" lon="11.9406483"><ele>119.0</ele><time>2026-05-01T17:30:16.44Z</time></trkpt><trkpt lat="44.1853883" lon="11.940725"><ele>119.0</ele><time>2026-05-01T17:30:17.439Z</time></trkpt><trkpt lat="44.1853367" lon="11.9407883"><ele>119.0</ele><time>2026-05-01T17:30:18.443Z</time></trkpt><trkpt lat="44.1852783" lon="11.940845"><ele>119.0</ele><time>2026-05-01T17:30:19.441Z</time></trkpt><trkpt lat="44.185215" lon="11.940885"><ele>119.0</ele><time>2026-05-01T17:30:20.442Z</time></trkpt><trkpt lat="44.1851533" lon="11.9409033"><ele>118.33333333333333</ele><time>2026-05-01T17:30:21.443Z</time></trkpt><trkpt lat="44.1850367" lon="11.9409417"><ele>117.66666666666666</ele><time>2026-05-01T17:30:23.441Z</time></trkpt><trkpt lat="44.1849767" lon="11.9409733"><ele>117.0</ele><time>2026-05-01T17:30:24.443Z</time></trkpt><trkpt lat="44.18492" lon="11.94102"><ele>116.33333333333334</ele><time>2026-05-01T17:30:25.44Z</time></trkpt><trkpt lat="44.1848633" lon="11.9410767"><ele>115.66666666666667</ele><time>2026-05-01T17:30:26.44Z</time></trkpt><trkpt lat="44.1848067" lon="11.9411367"><ele>115.0</ele><time>2026-05-01T17:30:27.439Z</time></trkpt><trkpt lat="44.184755" lon="11.9411983"><ele>114.85714285714283</ele><time>2026-05-01T17:30:28.44Z</time></trkpt><trkpt lat="44.1847067" lon="11.9412633"><ele>114.71428571428571</ele><time>2026-05-01T17:30:29.439Z</time></trkpt><trkpt lat="44.1846633" lon="11.941335"><ele>114.57142857142856</ele><time>2026-05-01T17:30:30.44Z</time></trkpt><trkpt lat="44.184625" lon="11.94141"><ele>114.42857142857142</ele><time>2026-05-01T17:30:31.441Z</time></trkpt><trkpt lat="44.18459" lon="11.9414917"><ele>114.28571428571428</ele><time>2026-05-01T17:30:32.439Z</time></trkpt><trkpt lat="44.1845583" lon="11.941575"><ele>114.14285714285714</ele><time>2026-05-01T17:30:33.44Z</time></trkpt><trkpt lat="44.1845233" lon="11.94166"><ele>114.0</ele><time>2026-05-01T17:30:34.439Z</time></trkpt><trkpt lat="44.1844883" lon="11.9417467"><ele>114.66666666666667</ele><time>2026-05-01T17:30:35.44Z</time></trkpt><trkpt lat="44.1844567" lon="11.941835"><ele>115.33333333333334</ele><time>2026-05-01T17:30:36.44Z</time></trkpt><trkpt lat="44.1844233" lon="11.9419217"><ele>116.0</ele><time>2026-05-01T17:30:37.44Z</time></trkpt><trkpt lat="44.1843883" lon="11.9420033"><ele>116.66666666666667</ele><time>2026-05-01T17:30:38.441Z</time></trkpt><trkpt lat="44.1843567" lon="11.9420833"><ele>117.33333333333334</ele><time>2026-05-01T17:30:39.44Z</time></trkpt><trkpt lat="44.184295" lon="11.94223"><ele>118.0</ele><time>2026-05-01T17:30:41.44Z</time></trkpt><trkpt lat="44.18424" lon="11.9423617"><ele>118.00000000000001</ele><time>2026-05-01T17:30:43.439Z</time></trkpt><trkpt lat="44.1841933" lon="11.9424667"><ele>118.0</ele><time>2026-05-01T17:30:45.439Z</time></trkpt><trkpt lat="44.184155" lon="11.9425433"><ele>118.0</ele><time>2026-05-01T17:30:47.44Z</time></trkpt><trkpt lat="44.1841017" lon="11.942625"><ele>118.0</ele><time>2026-05-01T17:30:50.441Z</time></trkpt><trkpt lat="44.184035" lon="11.9426833"><ele>118.00000000000001</ele><time>2026-05-01T17:30:54.442Z</time></trkpt><trkpt lat="44.1839667" lon="11.94274"><ele>118.0</ele><time>2026-05-01T17:30:58.439Z</time></trkpt><trkpt lat="44.1838983" lon="11.9427767"><ele>118.50000000000001</ele><time>2026-05-01T17:31:01.441Z</time></trkpt><trkpt lat="44.1838133" lon="11.9428167"><ele>119.0</ele><time>2026-05-01T17:31:04.439Z</time></trkpt><trkpt lat="44.1837333" lon="11.94285"><ele>119.5</ele><time>2026-05-01T17:31:07.44Z</time></trkpt><trkpt lat="44.1836483" lon="11.9428933"><ele>120.0</ele><time>2026-05-01T17:31:10.44Z</time></trkpt><trkpt lat="44.18358" lon="11.9429233"><ele>120.50000000000001</ele><time>2026-05-01T17:31:12.44Z</time></trkpt><trkpt lat="44.1834867" lon="11.94297"><ele>121.0</ele><time>2026-05-01T17:31:14.44Z</time></trkpt><trkpt lat="44.1833783" lon="11.9430467"><ele>121.0</ele><time>2026-05-01T17:31:16.44Z</time></trkpt><trkpt lat="44.1833233" lon="11.9430917"><ele>120.99999999999999</ele><time>2026-05-01T17:31:17.439Z</time></trkpt><trkpt lat="44.1832633" lon="11.9431433"><ele>121.0</ele><time>2026-05-01T17:31:18.439Z</time></trkpt><trkpt lat="44.1832" lon="11.9432"><ele>121.0</ele><time>2026-05-01T17:31:19.443Z</time></trkpt><trkpt lat="44.18314" lon="11.94326"><ele>120.99999999999999</ele><time>2026-05-01T17:31:20.442Z</time></trkpt><trkpt lat="44.1830817" lon="11.94332"><ele>121.0</ele><time>2026-05-01T17:31:21.441Z</time></trkpt><trkpt lat="44.1830217" lon="11.943375"><ele>121.0</ele><time>2026-05-01T17:31:22.443Z</time></trkpt><trkpt lat="44.18296" lon="11.943435"><ele>120.16666666666667</ele><time>2026-05-01T17:31:23.442Z</time></trkpt><trkpt lat="44.1829" lon="11.9434883"><ele>119.33333333333334</ele><time>2026-05-01T17:31:24.443Z</time></trkpt><trkpt lat="44.18284" lon="11.9435383"><ele>118.5</ele><time>2026-05-01T17:31:25.44Z</time></trkpt><trkpt lat="44.18278" lon="11.9435783"><ele>117.66666666666666</ele><time>2026-05-01T17:31:26.439Z</time></trkpt><trkpt lat="44.1826717" lon="11.9436533"><ele>116.83333333333333</ele><time>2026-05-01T17:31:28.44Z</time></trkpt><trkpt lat="44.1825767" lon="11.9437433"><ele>116.0</ele><time>2026-05-01T17:31:30.44Z</time></trkpt><trkpt lat="44.182495" lon="11.943835"><ele>116.0</ele><time>2026-05-01T17:31:32.44Z</time></trkpt><trkpt lat="44.18241" lon="11.9439233"><ele>116.0</ele><time>2026-05-01T17:31:34.44Z</time></trkpt><trkpt lat="44.1823167" lon="11.9440033"><ele>116.0</ele><time>2026-05-01T17:31:36.44Z</time></trkpt><trkpt lat="44.18222" lon="11.944075"><ele>116.0</ele><time>2026-05-01T17:31:38.439Z</time></trkpt><trkpt lat="44.182115" lon="11.944155"><ele>116.0</ele><time>2026-05-01T17:31:40.44Z</time></trkpt><trkpt lat="44.1820183" lon="11.94422"><ele>113.19999999999999</ele><time>2026-05-01T17:31:42.439Z</time></trkpt><trkpt lat="44.1819267" lon="11.9442833"><ele>110.39999999999999</ele><time>2026-05-01T17:31:44.439Z</time></trkpt><trkpt lat="44.181835" lon="11.9443483"><ele>107.6</ele><time>2026-05-01T17:31:46.442Z</time></trkpt><trkpt lat="44.1817483" lon="11.9444217"><ele>104.8</ele><time>2026-05-01T17:31:48.441Z</time></trkpt><trkpt lat="44.1816633" lon="11.944505"><ele>102.0</ele><time>2026-05-01T17:31:50.443Z</time></trkpt><trkpt lat="44.1815617" lon="11.9445917"><ele>97.0</ele><time>2026-05-01T17:31:52.442Z</time></trkpt><trkpt lat="44.1814567" lon="11.944675"><ele>92.0</ele><time>2026-05-01T17:31:54.443Z</time></trkpt><trkpt lat="44.1813517" lon="11.9447533"><ele>87.0</ele><time>2026-05-01T17:31:56.44Z</time></trkpt><trkpt lat="44.181245" lon="11.9448417"><ele>82.0</ele><time>2026-05-01T17:31:58.441Z</time></trkpt><trkpt lat="44.1811467" lon="11.9449317"><ele>82.0</ele><time>2026-05-01T17:32:00.44Z</time></trkpt><trkpt lat="44.18105" lon="11.945025"><ele>82.0</ele><time>2026-05-01T17:32:02.44Z</time></trkpt><trkpt lat="44.1809683" lon="11.9451383"><ele>82.0</ele><time>2026-05-01T17:32:04.439Z</time></trkpt><trkpt lat="44.1808933" lon="11.945265"><ele>82.0</ele><time>2026-05-01T17:32:06.44Z</time></trkpt><trkpt lat="44.18083" lon="11.9453867"><ele>82.33333333333333</ele><time>2026-05-01T17:32:08.439Z</time></trkpt><trkpt lat="44.1807683" lon="11.9455267"><ele>82.66666666666666</ele><time>2026-05-01T17:32:10.438Z</time></trkpt><trkpt lat="44.1807117" lon="11.9456883"><ele>83.0</ele><time>2026-05-01T17:32:12.44Z</time></trkpt><trkpt lat="44.1806833" lon="11.9457767"><ele>83.33333333333333</ele><time>2026-05-01T17:32:13.439Z</time></trkpt><trkpt lat="44.18066" lon="11.9458617"><ele>83.66666666666667</ele><time>2026-05-01T17:32:14.44Z</time></trkpt><trkpt lat="44.1806383" lon="11.9459483"><ele>84.0</ele><time>2026-05-01T17:32:15.44Z</time></trkpt><trkpt lat="44.18061" lon="11.946035"><ele>81.33333333333333</ele><time>2026-05-01T17:32:16.439Z</time></trkpt><trkpt lat="44.1805817" lon="11.946115"><ele>78.66666666666667</ele><time>2026-05-01T17:32:17.439Z</time></trkpt><trkpt lat="44.1805217" lon="11.946255"><ele>76.0</ele><time>2026-05-01T17:32:19.439Z</time></trkpt><trkpt lat="44.1804783" lon="11.94642"><ele>73.33333333333334</ele><time>2026-05-01T17:32:21.44Z</time></trkpt><trkpt lat="44.18046" lon="11.9465083"><ele>70.66666666666667</ele><time>2026-05-01T17:32:22.443Z</time></trkpt><trkpt lat="44.180445" lon="11.9465983"><ele>68.0</ele><time>2026-05-01T17:32:23.441Z</time></trkpt><trkpt lat="44.18043" lon="11.9467533"><ele>67.8</ele><time>2026-05-01T17:32:25.44Z</time></trkpt><trkpt lat="44.1804233" lon="11.94688"><ele>67.6</ele><time>2026-05-01T17:32:27.441Z</time></trkpt><trkpt lat="44.1803967" lon="11.947"><ele>67.4</ele><time>2026-05-01T17:32:30.441Z</time></trkpt><trkpt lat="44.18036" lon="11.9470833"><ele>67.2</ele><time>2026-05-01T17:32:33.441Z</time></trkpt><trkpt lat="44.1803533" lon="11.9472267"><ele>67.0</ele><time>2026-05-01T17:32:36.442Z</time></trkpt><trkpt lat="44.1803283" lon="11.94737"><ele>67.0</ele><time>2026-05-01T17:32:38.442Z</time></trkpt><trkpt lat="44.1803033" lon="11.9475267"><ele>67.0</ele><time>2026-05-01T17:32:40.441Z</time></trkpt><trkpt lat="44.1802833" lon="11.947625"><ele>67.0</ele><time>2026-05-01T17:32:42.441Z</time></trkpt><trkpt lat="44.180285" lon="11.94775"><ele>67.0</ele><time>2026-05-01T17:32:45.441Z</time></trkpt><trkpt lat="44.1803067" lon="11.94787"><ele>67.0</ele><time>2026-05-01T17:32:48.442Z</time></trkpt><trkpt lat="44.1803183" lon="11.9479833"><ele>67.0</ele><time>2026-05-01T17:32:51.443Z</time></trkpt><trkpt lat="44.1803267" lon="11.9480917"><ele>67.0</ele><time>2026-05-01T17:32:54.442Z</time></trkpt><trkpt lat="44.1803267" lon="11.9481917"><ele>67.0</ele><time>2026-05-01T17:32:57.44Z</time></trkpt><trkpt lat="44.1803283" lon="11.9483"><ele>67.0</ele><time>2026-05-01T17:33:01.44Z</time></trkpt><trkpt lat="44.1803183" lon="11.94839"><ele>67.0</ele><time>2026-05-01T17:33:05.44Z</time></trkpt><trkpt lat="44.180295" lon="11.9484733"><ele>67.0</ele><time>2026-05-01T17:33:08.44Z</time></trkpt><trkpt lat="44.1802883" lon="11.94857"><ele>67.0</ele><time>2026-05-01T17:33:12.44Z</time></trkpt><trkpt lat="44.1802633" lon="11.9486517"><ele>67.0</ele><time>2026-05-01T17:33:16.44Z</time></trkpt><trkpt lat="44.180235" lon="11.9487533"><ele>67.16666666666666</ele><time>2026-05-01T17:34:27.44Z</time></trkpt><trkpt lat="44.18023" lon="11.9488483"><ele>67.33333333333333</ele><time>2026-05-01T17:34:30.44Z</time></trkpt><trkpt lat="44.18022" lon="11.94894"><ele>67.5</ele><time>2026-05-01T17:34:33.439Z</time></trkpt><trkpt lat="44.1802333" lon="11.9490483"><ele>67.66666666666667</ele><time>2026-05-01T17:34:36.441Z</time></trkpt><trkpt lat="44.180165" lon="11.949115"><ele>67.83333333333334</ele><time>2026-05-01T17:34:40.441Z</time></trkpt><trkpt lat="44.1800983" lon="11.9492017"><ele>68.0</ele><time>2026-05-01T17:34:43.439Z</time></trkpt><trkpt lat="44.180065" lon="11.9492833"><ele>67.99999999999999</ele><time>2026-05-01T17:34:45.441Z</time></trkpt><trkpt lat="44.18003" lon="11.9493617"><ele>68.0</ele><time>2026-05-01T17:34:47.439Z</time></trkpt><trkpt lat="44.179985" lon="11.9494467"><ele>68.0</ele><time>2026-05-01T17:34:49.441Z</time></trkpt><trkpt lat="44.1799383" lon="11.94953"><ele>68.0</ele><time>2026-05-01T17:34:51.44Z</time></trkpt><trkpt lat="44.1798767" lon="11.9495983"><ele>68.0</ele><time>2026-05-01T17:34:53.44Z</time></trkpt><trkpt lat="44.179805" lon="11.9496167"><ele>67.99999999999999</ele><time>2026-05-01T17:34:55.44Z</time></trkpt><trkpt lat="44.17974" lon="11.949565"><ele>68.0</ele><time>2026-05-01T17:34:58.439Z</time></trkpt><trkpt lat="44.17979" lon="11.949635"><ele>68.0</ele><time>2026-05-01T17:35:04.44Z</time></trkpt><trkpt lat="44.1798483" lon="11.9496883"><ele>68.0</ele><time>2026-05-01T17:35:06.44Z</time></trkpt><trkpt lat="44.179925" lon="11.9498183"><ele>68.0</ele><time>2026-05-01T17:35:19.439Z</time></trkpt><trkpt lat="44.17989" lon="11.9498967"><ele>68.0</ele><time>2026-05-01T17:35:30.439Z</time></trkpt><trkpt lat="44.1798517" lon="11.9499767"><ele>68.0</ele><time>2026-05-01T17:35:34.44Z</time></trkpt><trkpt lat="44.1798033" lon="11.9500817"><ele>68.0</ele><time>2026-05-01T17:35:37.44Z</time></trkpt><trkpt lat="44.179745" lon="11.9501833"><ele>67.57142857142857</ele><time>2026-05-01T17:35:40.44Z</time></trkpt><trkpt lat="44.179675" lon="11.950245"><ele>67.14285714285714</ele><time>2026-05-01T17:35:43.44Z</time></trkpt><trkpt lat="44.1796017" lon="11.9502333"><ele>66.71428571428572</ele><time>2026-05-01T17:35:46.439Z</time></trkpt><trkpt lat="44.179535" lon="11.9502033"><ele>66.28571428571428</ele><time>2026-05-01T17:35:49.441Z</time></trkpt><trkpt lat="44.1794717" lon="11.9501933"><ele>65.85714285714286</ele><time>2026-05-01T17:35:52.441Z</time></trkpt><trkpt lat="44.1794033" lon="11.9501267"><ele>65.42857142857143</ele><time>2026-05-01T17:35:55.441Z</time></trkpt><trkpt lat="44.1793483" lon="11.9500783"><ele>65.0</ele><time>2026-05-01T17:35:57.441Z</time></trkpt><trkpt lat="44.179295" lon="11.9500167"><ele>65.00000000000001</ele><time>2026-05-01T17:35:59.441Z</time></trkpt><trkpt lat="44.1792333" lon="11.9499617"><ele>65.0</ele><time>2026-05-01T17:36:01.442Z</time></trkpt><trkpt lat="44.1791683" lon="11.9498983"><ele>65.0</ele><time>2026-05-01T17:36:03.44Z</time></trkpt><trkpt lat="44.1791067" lon="11.949835"><ele>65.0</ele><time>2026-05-01T17:36:05.442Z</time></trkpt><trkpt lat="44.1790483" lon="11.949785"><ele>65.0</ele><time>2026-05-01T17:36:07.441Z</time></trkpt><trkpt lat="44.1789917" lon="11.949745"><ele>65.00000000000001</ele><time>2026-05-01T17:36:09.441Z</time></trkpt><trkpt lat="44.17892" lon="11.9497667"><ele>65.0</ele><time>2026-05-01T17:36:12.442Z</time></trkpt><trkpt lat="44.1788833" lon="11.9498383"><ele>65.16666666666667</ele><time>2026-05-01T17:36:15.441Z</time></trkpt><trkpt lat="44.1788983" lon="11.9499583"><ele>65.33333333333334</ele><time>2026-05-01T17:36:19.44Z</time></trkpt><trkpt lat="44.17892" lon="11.9500817"><ele>65.5</ele><time>2026-05-01T17:36:22.439Z</time></trkpt><trkpt lat="44.1789283" lon="11.9501833"><ele>65.66666666666667</ele><time>2026-05-01T17:36:24.44Z</time></trkpt><trkpt lat="44.1789283" lon="11.95029"><ele>65.83333333333333</ele><time>2026-05-01T17:36:26.44Z</time></trkpt><trkpt lat="44.17894" lon="11.95039"><ele>66.0</ele><time>2026-05-01T17:36:28.439Z</time></trkpt><trkpt lat="44.17896" lon="11.95049"><ele>65.66666666666667</ele><time>2026-05-01T17:36:30.439Z</time></trkpt><trkpt lat="44.17899" lon="11.950585"><ele>65.33333333333333</ele><time>2026-05-01T17:36:32.44Z</time></trkpt><trkpt lat="44.1790183" lon="11.9506917"><ele>65.0</ele><time>2026-05-01T17:36:34.439Z</time></trkpt><trkpt lat="44.179045" lon="11.9507967"><ele>64.66666666666666</ele><time>2026-05-01T17:36:36.44Z</time></trkpt><trkpt lat="44.1790617" lon="11.9509"><ele>64.33333333333333</ele><time>2026-05-01T17:36:38.439Z</time></trkpt><trkpt lat="44.17907" lon="11.95099"><ele>64.0</ele><time>2026-05-01T17:36:40.439Z</time></trkpt><trkpt lat="44.1790383" lon="11.95115"><ele>63.99999999999999</ele><time>2026-05-01T17:36:55.441Z</time></trkpt><trkpt lat="44.1790983" lon="11.9512417"><ele>64.0</ele><time>2026-05-01T17:36:58.439Z</time></trkpt><trkpt lat="44.1791533" lon="11.951295"><ele>64.0</ele><time>2026-05-01T17:37:00.44Z</time></trkpt><trkpt lat="44.1791933" lon="11.9513883"><ele>64.0</ele><time>2026-05-01T17:37:03.44Z</time></trkpt><trkpt lat="44.1791583" lon="11.95149"><ele>63.99999999999999</ele><time>2026-05-01T17:37:06.439Z</time></trkpt><trkpt lat="44.1791267" lon="11.9516067"><ele>64.0</ele><time>2026-05-01T17:37:09.44Z</time></trkpt><trkpt lat="44.1791017" lon="11.9516983"><ele>64.16666666666666</ele><time>2026-05-01T17:37:11.439Z</time></trkpt><trkpt lat="44.1790717" lon="11.95178"><ele>64.33333333333333</ele><time>2026-05-01T17:37:13.439Z</time></trkpt><trkpt lat="44.179045" lon="11.951865"><ele>64.5</ele><time>2026-05-01T17:37:15.44Z</time></trkpt><trkpt lat="44.17899" lon="11.9519733"><ele>64.66666666666667</ele><time>2026-05-01T17:37:18.44Z</time></trkpt><trkpt lat="44.178935" lon="11.95205"><ele>64.83333333333334</ele><time>2026-05-01T17:37:20.44Z</time></trkpt><trkpt lat="44.1788683" lon="11.9521033"><ele>65.0</ele><time>2026-05-01T17:37:22.44Z</time></trkpt><trkpt lat="44.1787833" lon="11.95211"><ele>64.4</ele><time>2026-05-01T17:37:24.44Z</time></trkpt><trkpt lat="44.178695" lon="11.9521117"><ele>63.8</ele><time>2026-05-01T17:37:26.441Z</time></trkpt><trkpt lat="44.17861" lon="11.95218"><ele>63.2</ele><time>2026-05-01T17:37:28.44Z</time></trkpt><trkpt lat="44.178525" lon="11.9523017"><ele>62.6</ele><time>2026-05-01T17:37:30.439Z</time></trkpt><trkpt lat="44.17842" lon="11.9523667"><ele>62.0</ele><time>2026-05-01T17:37:32.44Z</time></trkpt><trkpt lat="44.1783567" lon="11.9523983"><ele>62.00000000000001</ele><time>2026-05-01T17:37:33.44Z</time></trkpt><trkpt lat="44.1782583" lon="11.9524583"><ele>62.0</ele><time>2026-05-01T17:37:35.44Z</time></trkpt><trkpt lat="44.1781633" lon="11.9525133"><ele>62.0</ele><time>2026-05-01T17:37:37.44Z</time></trkpt><trkpt lat="44.1781" lon="11.9525583"><ele>62.0</ele><time>2026-05-01T17:37:39.44Z</time></trkpt><trkpt lat="44.1780633" lon="11.9526483"><ele>62.00000000000001</ele><time>2026-05-01T17:37:41.439Z</time></trkpt><trkpt lat="44.1780267" lon="11.9527383"><ele>62.0</ele><time>2026-05-01T17:37:43.44Z</time></trkpt><trkpt lat="44.1779633" lon="11.952795"><ele>62.142857142857146</ele><time>2026-05-01T17:37:47.44Z</time></trkpt><trkpt lat="44.1778883" lon="11.9528067"><ele>62.28571428571429</ele><time>2026-05-01T17:37:50.442Z</time></trkpt><trkpt lat="44.17783" lon="11.9527733"><ele>62.42857142857143</ele><time>2026-05-01T17:37:52.439Z</time></trkpt><trkpt lat="44.1777583" lon="11.952715"><ele>62.57142857142857</ele><time>2026-05-01T17:37:55.439Z</time></trkpt><trkpt lat="44.17771" lon="11.9526583"><ele>62.714285714285715</ele><time>2026-05-01T17:37:58.441Z</time></trkpt><trkpt lat="44.177655" lon="11.952615"><ele>62.85714285714286</ele><time>2026-05-01T17:38:01.439Z</time></trkpt><trkpt lat="44.17759" lon="11.9525383"><ele>63.0</ele><time>2026-05-01T17:38:04.44Z</time></trkpt><trkpt lat="44.1775133" lon="11.9524667"><ele>63.0</ele><time>2026-05-01T17:38:07.44Z</time></trkpt><trkpt lat="44.1774567" lon="11.9524183"><ele>63.0</ele><time>2026-05-01T17:38:09.44Z</time></trkpt><trkpt lat="44.1774017" lon="11.9523667"><ele>63.0</ele><time>2026-05-01T17:38:11.44Z</time></trkpt><trkpt lat="44.177365" lon="11.95229"><ele>63.0</ele><time>2026-05-01T17:38:13.441Z</time></trkpt><trkpt lat="44.1773317" lon="11.9521983"><ele>63.0</ele><time>2026-05-01T17:38:15.439Z</time></trkpt><trkpt lat="44.1772817" lon="11.9521333"><ele>63.0</ele><time>2026-05-01T17:38:17.44Z</time></trkpt><trkpt lat="44.1772167" lon="11.9520933"><ele>63.0</ele><time>2026-05-01T17:38:19.443Z</time></trkpt><trkpt lat="44.1771533" lon="11.9520933"><ele>62.714285714285715</ele><time>2026-05-01T17:38:21.44Z</time></trkpt><trkpt lat="44.17709" lon="11.9520633"><ele>62.42857142857143</ele><time>2026-05-01T17:38:23.443Z</time></trkpt><trkpt lat="44.177035" lon="11.952015"><ele>62.14285714285714</ele><time>2026-05-01T17:38:25.441Z</time></trkpt><trkpt lat="44.1769817" lon="11.9519567"><ele>61.857142857142854</ele><time>2026-05-01T17:38:27.439Z</time></trkpt><trkpt lat="44.176915" lon="11.9519117"><ele>61.57142857142857</ele><time>2026-05-01T17:38:29.439Z</time></trkpt><trkpt lat="44.17685" lon="11.95186"><ele>61.28571428571428</ele><time>2026-05-01T17:38:31.44Z</time></trkpt><trkpt lat="44.17679" lon="11.95181"><ele>60.99999999999999</ele><time>2026-05-01T17:38:33.44Z</time></trkpt><trkpt lat="44.1767233" lon="11.9517483"><ele>61.33333333333333</ele><time>2026-05-01T17:38:35.442Z</time></trkpt><trkpt lat="44.176645" lon="11.9516767"><ele>61.666666666666664</ele><time>2026-05-01T17:38:37.439Z</time></trkpt><trkpt lat="44.1765817" lon="11.9516183"><ele>62.0</ele><time>2026-05-01T17:38:39.439Z</time></trkpt><trkpt lat="44.1765067" lon="11.951555"><ele>62.33333333333333</ele><time>2026-05-01T17:38:41.44Z</time></trkpt><trkpt lat="44.1764383" lon="11.951505"><ele>62.666666666666664</ele><time>2026-05-01T17:38:43.443Z</time></trkpt><trkpt lat="44.176395" lon="11.9514333"><ele>63.0</ele><time>2026-05-01T17:38:45.439Z</time></trkpt><trkpt lat="44.176355" lon="11.9513517"><ele>63.333333333333336</ele><time>2026-05-01T17:38:51.443Z</time></trkpt><trkpt lat="44.1762867" lon="11.9513317"><ele>63.66666666666667</ele><time>2026-05-01T17:38:57.441Z</time></trkpt><trkpt lat="44.1762167" lon="11.9513017"><ele>64.0</ele><time>2026-05-01T17:39:00.441Z</time></trkpt><trkpt lat="44.1761433" lon="11.951255"><ele>64.33333333333334</ele><time>2026-05-01T17:39:02.439Z</time></trkpt><trkpt lat="44.1760767" lon="11.9512"><ele>64.66666666666667</ele><time>2026-05-01T17:39:04.44Z</time></trkpt><trkpt lat="44.1760133" lon="11.9511533"><ele>65.0</ele><time>2026-05-01T17:39:06.439Z</time></trkpt><trkpt lat="44.1759467" lon="11.9510967"><ele>65.0</ele><time>2026-05-01T17:39:08.441Z</time></trkpt><trkpt lat="44.1758917" lon="11.951045"><ele>65.0</ele><time>2026-05-01T17:39:10.44Z</time></trkpt><trkpt lat="44.1758233" lon="11.9509867"><ele>65.0</ele><time>2026-05-01T17:39:12.442Z</time></trkpt><trkpt lat="44.17576" lon="11.9509267"><ele>65.0</ele><time>2026-05-01T17:39:14.44Z</time></trkpt><trkpt lat="44.1756967" lon="11.9508733"><ele>65.0</ele><time>2026-05-01T17:39:16.443Z</time></trkpt><trkpt lat="44.175615" lon="11.9507983"><ele>65.0</ele><time>2026-05-01T17:39:19.44Z</time></trkpt><trkpt lat="44.1755517" lon="11.95074"><ele>65.16666666666667</ele><time>2026-05-01T17:39:21.44Z</time></trkpt><trkpt lat="44.1754783" lon="11.9506817"><ele>65.33333333333334</ele><time>2026-05-01T17:39:23.44Z</time></trkpt><trkpt lat="44.1754083" lon="11.9506017"><ele>65.5</ele><time>2026-05-01T17:39:25.44Z</time></trkpt><trkpt lat="44.1753467" lon="11.9505317"><ele>65.66666666666667</ele><time>2026-05-01T17:39:27.443Z</time></trkpt><trkpt lat="44.1752867" lon="11.9504767"><ele>65.83333333333333</ele><time>2026-05-01T17:39:29.441Z</time></trkpt><trkpt lat="44.1752267" lon="11.95042"><ele>66.0</ele><time>2026-05-01T17:39:31.441Z</time></trkpt><trkpt lat="44.1751783" lon="11.9503533"><ele>66.0</ele><time>2026-05-01T17:39:33.44Z</time></trkpt><trkpt lat="44.1751183" lon="11.9502833"><ele>66.0</ele><time>2026-05-01T17:39:35.44Z</time></trkpt><trkpt lat="44.1750567" lon="11.95024"><ele>66.0</ele><time>2026-05-01T17:39:37.441Z</time></trkpt><trkpt lat="44.1749683" lon="11.9501817"><ele>66.0</ele><time>2026-05-01T17:39:40.441Z</time></trkpt><trkpt lat="44.17491" lon="11.9501333"><ele>66.0</ele><time>2026-05-01T17:39:42.441Z</time></trkpt><trkpt lat="44.17485" lon="11.95008"><ele>66.0</ele><time>2026-05-01T17:39:44.44Z</time></trkpt><trkpt lat="44.174785" lon="11.950035"><ele>66.42857142857143</ele><time>2026-05-01T17:39:46.44Z</time></trkpt><trkpt lat="44.1747367" lon="11.9499733"><ele>66.85714285714286</ele><time>2026-05-01T17:39:48.441Z</time></trkpt><trkpt lat="44.1746683" lon="11.949915"><ele>67.28571428571429</ele><time>2026-05-01T17:39:50.441Z</time></trkpt><trkpt lat="44.1746117" lon="11.9498717"><ele>67.71428571428572</ele><time>2026-05-01T17:39:52.441Z</time></trkpt><trkpt lat="44.17455" lon="11.9498183"><ele>68.14285714285715</ele><time>2026-05-01T17:39:54.439Z</time></trkpt><trkpt lat="44.1744767" lon="11.9497617"><ele>68.57142857142857</ele><time>2026-05-01T17:39:56.441Z</time></trkpt><trkpt lat="44.1744233" lon="11.949715"><ele>69.0</ele><time>2026-05-01T17:39:58.44Z</time></trkpt><trkpt lat="44.1743483" lon="11.94966"><ele>69.0</ele><time>2026-05-01T17:40:00.439Z</time></trkpt><trkpt lat="44.1742717" lon="11.9495983"><ele>69.0</ele><time>2026-05-01T17:40:02.439Z</time></trkpt><trkpt lat="44.17421" lon="11.9495433"><ele>69.0</ele><time>2026-05-01T17:40:04.439Z</time></trkpt><trkpt lat="44.1741367" lon="11.94948"><ele>69.0</ele><time>2026-05-01T17:40:06.44Z</time></trkpt><trkpt lat="44.1740733" lon="11.9494167"><ele>69.0</ele><time>2026-05-01T17:40:08.439Z</time></trkpt><trkpt lat="44.174015" lon="11.9493617"><ele>69.0</ele><time>2026-05-01T17:40:10.439Z</time></trkpt><trkpt lat="44.17395" lon="11.9492967"><ele>69.0</ele><time>2026-05-01T17:40:12.439Z</time></trkpt><trkpt lat="44.1738983" lon="11.9492283"><ele>69.0</ele><time>2026-05-01T17:40:14.44Z</time></trkpt><trkpt lat="44.1738367" lon="11.94917"><ele>69.0</ele><time>2026-05-01T17:40:16.441Z</time></trkpt><trkpt lat="44.1737567" lon="11.9491033"><ele>69.0</ele><time>2026-05-01T17:40:19.441Z</time></trkpt><trkpt lat="44.1737033" lon="11.9490567"><ele>69.0</ele><time>2026-05-01T17:40:21.439Z</time></trkpt><trkpt lat="44.1736267" lon="11.9489717"><ele>69.0</ele><time>2026-05-01T17:40:24.44Z</time></trkpt><trkpt lat="44.173565" lon="11.9489267"><ele>69.14285714285714</ele><time>2026-05-01T17:40:26.44Z</time></trkpt><trkpt lat="44.173495" lon="11.9488783"><ele>69.28571428571429</ele><time>2026-05-01T17:40:28.439Z</time></trkpt><trkpt lat="44.1734317" lon="11.94884"><ele>69.42857142857143</ele><time>2026-05-01T17:40:30.44Z</time></trkpt><trkpt lat="44.1733733" lon="11.9487833"><ele>69.57142857142857</ele><time>2026-05-01T17:40:32.439Z</time></trkpt><trkpt lat="44.17331" lon="11.948725"><ele>69.71428571428572</ele><time>2026-05-01T17:40:34.44Z</time></trkpt><trkpt lat="44.1732467" lon="11.9486733"><ele>69.85714285714286</ele><time>2026-05-01T17:40:36.441Z</time></trkpt><trkpt lat="44.1731817" lon="11.9486233"><ele>70.0</ele><time>2026-05-01T17:40:38.44Z</time></trkpt><trkpt lat="44.1731283" lon="11.9485767"><ele>70.14285714285714</ele><time>2026-05-01T17:40:40.439Z</time></trkpt><trkpt lat="44.1730667" lon="11.9485283"><ele>70.28571428571428</ele><time>2026-05-01T17:40:42.44Z</time></trkpt><trkpt lat="44.1730133" lon="11.948475"><ele>70.42857142857143</ele><time>2026-05-01T17:40:44.441Z</time></trkpt><trkpt lat="44.1729583" lon="11.94843"><ele>70.57142857142857</ele><time>2026-05-01T17:40:46.443Z</time></trkpt><trkpt lat="44.172905" lon="11.948375"><ele>70.71428571428571</ele><time>2026-05-01T17:40:48.44Z</time></trkpt><trkpt lat="44.1728517" lon="11.9483183"><ele>70.85714285714286</ele><time>2026-05-01T17:40:50.44Z</time></trkpt><trkpt lat="44.1728" lon="11.94826"><ele>71.0</ele><time>2026-05-01T17:40:52.438Z</time></trkpt><trkpt lat="44.1727467" lon="11.948205"><ele>71.16666666666667</ele><time>2026-05-01T17:40:54.439Z</time></trkpt><trkpt lat="44.1726617" lon="11.9481467"><ele>71.33333333333334</ele><time>2026-05-01T17:40:57.441Z</time></trkpt><trkpt lat="44.1726" lon="11.9481133"><ele>71.5</ele><time>2026-05-01T17:40:59.44Z</time></trkpt><trkpt lat="44.1725467" lon="11.9480633"><ele>71.66666666666667</ele><time>2026-05-01T17:41:01.439Z</time></trkpt><trkpt lat="44.1724783" lon="11.9480067"><ele>71.83333333333333</ele><time>2026-05-01T17:41:04.439Z</time></trkpt><trkpt lat="44.1724083" lon="11.9479783"><ele>72.0</ele><time>2026-05-01T17:41:07.44Z</time></trkpt><trkpt lat="44.1723317" lon="11.9479383"><ele>72.28571428571429</ele><time>2026-05-01T17:41:10.44Z</time></trkpt><trkpt lat="44.1722717" lon="11.9478867"><ele>72.57142857142857</ele><time>2026-05-01T17:41:12.439Z</time></trkpt><trkpt lat="44.172205" lon="11.9478333"><ele>72.85714285714286</ele><time>2026-05-01T17:41:14.439Z</time></trkpt><trkpt lat="44.172135" lon="11.9477917"><ele>73.14285714285714</ele><time>2026-05-01T17:41:16.443Z</time></trkpt><trkpt lat="44.1720617" lon="11.947745"><ele>73.42857142857143</ele><time>2026-05-01T17:41:18.44Z</time></trkpt><trkpt lat="44.1719983" lon="11.9476967"><ele>73.71428571428572</ele><time>2026-05-01T17:41:20.441Z</time></trkpt><trkpt lat="44.171935" lon="11.9476467"><ele>74.0</ele><time>2026-05-01T17:41:22.439Z</time></trkpt><trkpt lat="44.171875" lon="11.9476067"><ele>74.0</ele><time>2026-05-01T17:41:24.441Z</time></trkpt><trkpt lat="44.1718217" lon="11.947555"><ele>74.0</ele><time>2026-05-01T17:41:26.44Z</time></trkpt><trkpt lat="44.171765" lon="11.947515"><ele>74.0</ele><time>2026-05-01T17:41:28.441Z</time></trkpt><trkpt lat="44.1717033" lon="11.9474867"><ele>74.0</ele><time>2026-05-01T17:41:30.441Z</time></trkpt><trkpt lat="44.1716483" lon="11.9474367"><ele>74.0</ele><time>2026-05-01T17:41:32.441Z</time></trkpt><trkpt lat="44.171585" lon="11.9473583"><ele>74.0</ele><time>2026-05-01T17:41:35.44Z</time></trkpt><trkpt lat="44.17154" lon="11.947255"><ele>74.0</ele><time>2026-05-01T17:41:38.441Z</time></trkpt><trkpt lat="44.17148" lon="11.9472183"><ele>74.0</ele><time>2026-05-01T17:41:41.44Z</time></trkpt><trkpt lat="44.1714" lon="11.947255"><ele>74.0</ele><time>2026-05-01T17:41:44.439Z</time></trkpt><trkpt lat="44.1713367" lon="11.9473017"><ele>74.0</ele><time>2026-05-01T17:41:46.441Z</time></trkpt><trkpt lat="44.1712567" lon="11.9473217"><ele>74.0</ele><time>2026-05-01T17:41:48.441Z</time></trkpt><trkpt lat="44.1711667" lon="11.9473467"><ele>74.0</ele><time>2026-05-01T17:41:50.44Z</time></trkpt><trkpt lat="44.1710717" lon="11.9473867"><ele>74.0</ele><time>2026-05-01T17:41:52.441Z</time></trkpt><trkpt lat="44.1709717" lon="11.9473883"><ele>74.0</ele><time>2026-05-01T17:41:54.44Z</time></trkpt><trkpt lat="44.1708733" lon="11.94736"><ele>74.0</ele><time>2026-05-01T17:41:56.44Z</time></trkpt><trkpt lat="44.1707867" lon="11.9473067"><ele>74.0</ele><time>2026-05-01T17:41:58.44Z</time></trkpt><trkpt lat="44.1707217" lon="11.9472083"><ele>74.0</ele><time>2026-05-01T17:42:00.44Z</time></trkpt><trkpt lat="44.1706783" lon="11.9471017"><ele>74.0</ele><time>2026-05-01T17:42:02.439Z</time></trkpt><trkpt lat="44.1706233" lon="11.9470517"><ele>74.0</ele><time>2026-05-01T17:42:06.441Z</time></trkpt><trkpt lat="44.1706033" lon="11.94715"><ele>74.0</ele><time>2026-05-01T17:42:10.44Z</time></trkpt><trkpt lat="44.1706567" lon="11.947245"><ele>74.0</ele><time>2026-05-01T17:42:13.441Z</time></trkpt><trkpt lat="44.1707317" lon="11.9473267"><ele>74.0</ele><time>2026-05-01T17:42:16.441Z</time></trkpt><trkpt lat="44.1708083" lon="11.9473567"><ele>74.0</ele><time>2026-05-01T17:42:18.439Z</time></trkpt><trkpt lat="44.1708833" lon="11.9473683"><ele>74.0</ele><time>2026-05-01T17:42:20.442Z</time></trkpt><trkpt lat="44.1709533" lon="11.9473833"><ele>74.0</ele><time>2026-05-01T17:42:22.44Z</time></trkpt><trkpt lat="44.1710417" lon="11.947355"><ele>74.0</ele><time>2026-05-01T17:42:25.441Z</time></trkpt><trkpt lat="44.1711" lon="11.9472833"><ele>74.0</ele><time>2026-05-01T17:42:28.441Z</time></trkpt><trkpt lat="44.1711367" lon="11.9471767"><ele>74.0</ele><time>2026-05-01T17:42:31.441Z</time></trkpt><trkpt lat="44.1711617" lon="11.9470817"><ele>74.0</ele><time>2026-05-01T17:42:35.441Z</time></trkpt><trkpt lat="44.17116" lon="11.9469783"><ele>74.0</ele><time>2026-05-01T17:42:41.441Z</time></trkpt><trkpt lat="44.1711467" lon="11.9468867"><ele>74.0</ele><time>2026-05-01T17:42:45.441Z</time></trkpt><trkpt lat="44.1711567" lon="11.9469817"><ele>74.0</ele><time>2026-05-01T17:43:18.441Z</time></trkpt><trkpt lat="44.1710967" lon="11.9469483"><ele>74.0</ele><time>2026-05-01T17:43:24.44Z</time></trkpt><trkpt lat="44.17107" lon="11.946855"><ele>74.0</ele><time>2026-05-01T17:43:27.441Z</time></trkpt><trkpt lat="44.1710083" lon="11.9467533"><ele>74.0</ele><time>2026-05-01T17:43:30.44Z</time></trkpt><trkpt lat="44.1709483" lon="11.9466533"><ele>74.0</ele><time>2026-05-01T17:43:32.441Z</time></trkpt><trkpt lat="44.1709183" lon="11.94654"><ele>74.0</ele><time>2026-05-01T17:43:34.44Z</time></trkpt><trkpt lat="44.1708783" lon="11.9464367"><ele>74.0</ele><time>2026-05-01T17:43:36.442Z</time></trkpt><trkpt lat="44.1708283" lon="11.9463367"><ele>74.16666666666667</ele><time>2026-05-01T17:43:38.441Z</time></trkpt><trkpt lat="44.1707833" lon="11.9462367"><ele>74.33333333333334</ele><time>2026-05-01T17:43:40.44Z</time></trkpt><trkpt lat="44.1707367" lon="11.9461433"><ele>74.5</ele><time>2026-05-01T17:43:42.44Z</time></trkpt><trkpt lat="44.1706917" lon="11.9460533"><ele>74.66666666666667</ele><time>2026-05-01T17:43:44.442Z</time></trkpt><trkpt lat="44.170635" lon="11.945965"><ele>74.83333333333333</ele><time>2026-05-01T17:43:46.44Z</time></trkpt><trkpt lat="44.1705917" lon="11.9458683"><ele>75.0</ele><time>2026-05-01T17:43:48.44Z</time></trkpt><trkpt lat="44.1705567" lon="11.945775"><ele>74.33333333333333</ele><time>2026-05-01T17:43:50.442Z</time></trkpt><trkpt lat="44.1705117" lon="11.9456767"><ele>73.66666666666667</ele><time>2026-05-01T17:43:52.441Z</time></trkpt><trkpt lat="44.1704767" lon="11.945575"><ele>73.0</ele><time>2026-05-01T17:43:54.44Z</time></trkpt><trkpt lat="44.1704617" lon="11.945475"><ele>72.33333333333334</ele><time>2026-05-01T17:43:56.441Z</time></trkpt><trkpt lat="44.17045" lon="11.945375"><ele>71.66666666666667</ele><time>2026-05-01T17:43:58.441Z</time></trkpt><trkpt lat="44.1704467" lon="11.9452767"><ele>71.0</ele><time>2026-05-01T17:44:00.44Z</time></trkpt><trkpt lat="44.17044" lon="11.9451783"><ele>71.0</ele><time>2026-05-01T17:44:02.439Z</time></trkpt><trkpt lat="44.1704167" lon="11.945055"><ele>71.0</ele><time>2026-05-01T17:44:05.44Z</time></trkpt><trkpt lat="44.1703917" lon="11.9449617"><ele>71.0</ele><time>2026-05-01T17:44:08.441Z</time></trkpt><trkpt lat="44.1704183" lon="11.9450433"><ele>71.0</ele><time>2026-05-01T17:44:14.44Z</time></trkpt><trkpt lat="44.1704417" lon="11.9451433"><ele>71.0</ele><time>2026-05-01T17:44:17.44Z</time></trkpt><trkpt lat="44.1704633" lon="11.945235"><ele>71.0</ele><time>2026-05-01T17:44:21.442Z</time></trkpt><trkpt lat="44.1703833" lon="11.945265"><ele>71.0</ele><time>2026-05-01T17:44:28.442Z</time></trkpt><trkpt lat="44.17032" lon="11.9453317"><ele>71.0</ele><time>2026-05-01T17:44:33.441Z</time></trkpt><trkpt lat="44.1702" lon="11.9453667"><ele>71.0</ele><time>2026-05-01T17:44:36.443Z</time></trkpt><trkpt lat="44.1701017" lon="11.9454083"><ele>71.0</ele><time>2026-05-01T17:44:39.441Z</time></trkpt><trkpt lat="44.1700167" lon="11.9454283"><ele>71.0</ele><time>2026-05-01T17:44:43.441Z</time></trkpt><trkpt lat="44.1699517" lon="11.94549"><ele>71.0</ele><time>2026-05-01T17:44:47.442Z</time></trkpt><trkpt lat="44.169885" lon="11.94553"><ele>71.0</ele><time>2026-05-01T17:44:49.442Z</time></trkpt><trkpt lat="44.16981" lon="11.9455883"><ele>71.0</ele><time>2026-05-01T17:44:51.443Z</time></trkpt><trkpt lat="44.1697183" lon="11.9456533"><ele>71.0</ele><time>2026-05-01T17:44:53.443Z</time></trkpt><trkpt lat="44.16962" lon="11.945715"><ele>71.0</ele><time>2026-05-01T17:44:55.442Z</time></trkpt><trkpt lat="44.1695167" lon="11.9457883"><ele>70.0</ele><time>2026-05-01T17:44:57.442Z</time></trkpt><trkpt lat="44.16942" lon="11.9458517"><ele>69.0</ele><time>2026-05-01T17:44:59.442Z</time></trkpt><trkpt lat="44.1693317" lon="11.94591"><ele>68.0</ele><time>2026-05-01T17:45:01.441Z</time></trkpt><trkpt lat="44.169245" lon="11.9459733"><ele>67.0</ele><time>2026-05-01T17:45:03.442Z</time></trkpt><trkpt lat="44.1691567" lon="11.94603"><ele>66.0</ele><time>2026-05-01T17:45:05.441Z</time></trkpt><trkpt lat="44.16907" lon="11.9460817"><ele>65.33333333333333</ele><time>2026-05-01T17:45:07.441Z</time></trkpt><trkpt lat="44.1689867" lon="11.9461367"><ele>64.66666666666667</ele><time>2026-05-01T17:45:09.442Z</time></trkpt><trkpt lat="44.1689083" lon="11.9461933"><ele>64.0</ele><time>2026-05-01T17:45:11.442Z</time></trkpt><trkpt lat="44.16882" lon="11.9462417"><ele>63.333333333333336</ele><time>2026-05-01T17:45:13.442Z</time></trkpt><trkpt lat="44.168745" lon="11.9463017"><ele>62.66666666666667</ele><time>2026-05-01T17:45:15.442Z</time></trkpt><trkpt lat="44.16869" lon="11.9463717"><ele>62.0</ele><time>2026-05-01T17:45:18.443Z</time></trkpt><trkpt lat="44.16868" lon="11.9464817"><ele>62.00000000000001</ele><time>2026-05-01T17:45:22.444Z</time></trkpt><trkpt lat="44.168715" lon="11.946605"><ele>62.0</ele><time>2026-05-01T17:45:25.442Z</time></trkpt><trkpt lat="44.1687483" lon="11.9466933"><ele>62.0</ele><time>2026-05-01T17:45:27.441Z</time></trkpt><trkpt lat="44.16879" lon="11.9467833"><ele>62.0</ele><time>2026-05-01T17:45:29.44Z</time></trkpt><trkpt lat="44.1688167" lon="11.9468783"><ele>62.00000000000001</ele><time>2026-05-01T17:45:31.441Z</time></trkpt><trkpt lat="44.1688317" lon="11.94697"><ele>62.0</ele><time>2026-05-01T17:45:33.441Z</time></trkpt><trkpt lat="44.168855" lon="11.9470583"><ele>62.0</ele><time>2026-05-01T17:45:35.44Z</time></trkpt><trkpt lat="44.1688967" lon="11.9471267"><ele>62.00000000000001</ele><time>2026-05-01T17:45:37.44Z</time></trkpt><trkpt lat="44.1689483" lon="11.947185"><ele>62.0</ele><time>2026-05-01T17:45:39.44Z</time></trkpt><trkpt lat="44.1690033" lon="11.947235"><ele>62.0</ele><time>2026-05-01T17:45:41.44Z</time></trkpt><trkpt lat="44.1690617" lon="11.94728"><ele>62.00000000000001</ele><time>2026-05-01T17:45:43.441Z</time></trkpt><trkpt lat="44.1691167" lon="11.94733"><ele>62.0</ele><time>2026-05-01T17:45:45.441Z</time></trkpt><trkpt lat="44.1691867" lon="11.9474017"><ele>62.0</ele><time>2026-05-01T17:45:48.441Z</time></trkpt><trkpt lat="44.16926" lon="11.9474617"><ele>61.85714285714286</ele><time>2026-05-01T17:45:51.441Z</time></trkpt><trkpt lat="44.1693383" lon="11.9475317"><ele>61.71428571428572</ele><time>2026-05-01T17:45:54.441Z</time></trkpt><trkpt lat="44.1693967" lon="11.9475767"><ele>61.57142857142857</ele><time>2026-05-01T17:45:56.441Z</time></trkpt><trkpt lat="44.1694533" lon="11.9476283"><ele>61.42857142857143</ele><time>2026-05-01T17:45:58.441Z</time></trkpt><trkpt lat="44.16951" lon="11.9476817"><ele>61.285714285714285</ele><time>2026-05-01T17:46:00.441Z</time></trkpt><trkpt lat="44.169565" lon="11.9477417"><ele>61.14285714285714</ele><time>2026-05-01T17:46:02.441Z</time></trkpt><trkpt lat="44.1696233" lon="11.9478033"><ele>60.99999999999999</ele><time>2026-05-01T17:46:04.441Z</time></trkpt><trkpt lat="44.1696767" lon="11.9478667"><ele>60.99999999999999</ele><time>2026-05-01T17:46:06.44Z</time></trkpt><trkpt lat="44.1697267" lon="11.9479333"><ele>61.0</ele><time>2026-05-01T17:46:08.441Z</time></trkpt><trkpt lat="44.1697817" lon="11.948"><ele>60.99999999999999</ele><time>2026-05-01T17:46:10.441Z</time></trkpt><trkpt lat="44.169835" lon="11.9480667"><ele>60.99999999999999</ele><time>2026-05-01T17:46:12.44Z</time></trkpt><trkpt lat="44.1698917" lon="11.9481317"><ele>61.0</ele><time>2026-05-01T17:46:14.441Z</time></trkpt><trkpt lat="44.16995" lon="11.94819"><ele>60.99999999999999</ele><time>2026-05-01T17:46:16.441Z</time></trkpt><trkpt lat="44.1700133" lon="11.9482417"><ele>60.99999999999999</ele><time>2026-05-01T17:46:18.442Z</time></trkpt><trkpt lat="44.1700683" lon="11.94829"><ele>61.166666666666664</ele><time>2026-05-01T17:46:20.44Z</time></trkpt><trkpt lat="44.1701333" lon="11.9483667"><ele>61.33333333333333</ele><time>2026-05-01T17:46:23.442Z</time></trkpt><trkpt lat="44.17016" lon="11.9484867"><ele>61.5</ele><time>2026-05-01T17:46:26.441Z</time></trkpt><trkpt lat="44.1702233" lon="11.9485433"><ele>61.66666666666667</ele><time>2026-05-01T17:46:29.44Z</time></trkpt><trkpt lat="44.170295" lon="11.948535"><ele>61.833333333333336</ele><time>2026-05-01T17:46:32.441Z</time></trkpt><trkpt lat="44.170355" lon="11.9484883"><ele>62.0</ele><time>2026-05-01T17:46:37.441Z</time></trkpt><trkpt lat="44.1703933" lon="11.9485617"><ele>62.0</ele><time>2026-05-01T17:47:22.439Z</time></trkpt><trkpt lat="44.1704017" lon="11.9486717"><ele>62.00000000000001</ele><time>2026-05-01T17:47:28.438Z</time></trkpt><trkpt lat="44.1703933" lon="11.948785"><ele>62.0</ele><time>2026-05-01T17:47:31.438Z</time></trkpt><trkpt lat="44.1704433" lon="11.9488517"><ele>62.0</ele><time>2026-05-01T17:47:38.441Z</time></trkpt><trkpt lat="44.1705083" lon="11.9488983"><ele>62.00000000000001</ele><time>2026-05-01T17:47:43.441Z</time></trkpt><trkpt lat="44.170575" lon="11.9489317"><ele>62.0</ele><time>2026-05-01T17:47:47.439Z</time></trkpt><trkpt lat="44.170615" lon="11.9490117"><ele>62.0</ele><time>2026-05-01T17:47:51.437Z</time></trkpt><trkpt lat="44.1705917" lon="11.9491117"><ele>62.00000000000001</ele><time>2026-05-01T17:47:58.438Z</time></trkpt><trkpt lat="44.17053" lon="11.94915"><ele>62.0</ele><time>2026-05-01T17:48:02.439Z</time></trkpt><trkpt lat="44.1704633" lon="11.94919"><ele>62.0</ele><time>2026-05-01T17:48:05.439Z</time></trkpt><trkpt lat="44.1703817" lon="11.9492483"><ele>62.0</ele><time>2026-05-01T17:48:08.439Z</time></trkpt><trkpt lat="44.1703083" lon="11.94931"><ele>62.00000000000001</ele><time>2026-05-01T17:48:11.439Z</time></trkpt><trkpt lat="44.1702483" lon="11.9493583"><ele>62.0</ele><time>2026-05-01T17:48:14.439Z</time></trkpt><trkpt lat="44.170185" lon="11.9494"><ele>62.833333333333336</ele><time>2026-05-01T17:48:17.438Z</time></trkpt><trkpt lat="44.1701067" lon="11.949465"><ele>63.66666666666667</ele><time>2026-05-01T17:48:20.439Z</time></trkpt><trkpt lat="44.170045" lon="11.9495067"><ele>64.5</ele><time>2026-05-01T17:48:22.439Z</time></trkpt><trkpt lat="44.1699767" lon="11.94954"><ele>65.33333333333333</ele><time>2026-05-01T17:48:24.44Z</time></trkpt><trkpt lat="44.169915" lon="11.9495767"><ele>66.16666666666666</ele><time>2026-05-01T17:48:26.44Z</time></trkpt><trkpt lat="44.16985" lon="11.9496217"><ele>67.0</ele><time>2026-05-01T17:48:28.439Z</time></trkpt><trkpt lat="44.16977" lon="11.949665"><ele>67.5</ele><time>2026-05-01T17:48:30.439Z</time></trkpt><trkpt lat="44.1697083" lon="11.9497033"><ele>68.0</ele><time>2026-05-01T17:48:32.439Z</time></trkpt><trkpt lat="44.1696333" lon="11.9497633"><ele>68.5</ele><time>2026-05-01T17:48:34.438Z</time></trkpt><trkpt lat="44.1695583" lon="11.9498067"><ele>69.0</ele><time>2026-05-01T17:48:36.439Z</time></trkpt><trkpt lat="44.169485" lon="11.9498433"><ele>69.5</ele><time>2026-05-01T17:48:38.439Z</time></trkpt><trkpt lat="44.169415" lon="11.949895"><ele>70.0</ele><time>2026-05-01T17:48:40.439Z</time></trkpt><trkpt lat="44.1693467" lon="11.94994"><ele>70.0</ele><time>2026-05-01T17:48:42.439Z</time></trkpt><trkpt lat="44.1692783" lon="11.9499867"><ele>70.0</ele><time>2026-05-01T17:48:44.44Z</time></trkpt><trkpt lat="44.16921" lon="11.9500383"><ele>70.0</ele><time>2026-05-01T17:48:46.44Z</time></trkpt><trkpt lat="44.1691533" lon="11.9501033"><ele>70.0</ele><time>2026-05-01T17:48:48.439Z</time></trkpt><trkpt lat="44.1690917" lon="11.950205"><ele>70.0</ele><time>2026-05-01T17:48:51.438Z</time></trkpt><trkpt lat="44.1690483" lon="11.9502817"><ele>70.0</ele><time>2026-05-01T17:48:53.442Z</time></trkpt><trkpt lat="44.1689917" lon="11.950375"><ele>77.0</ele><time>2026-05-01T17:48:56.44Z</time></trkpt><trkpt lat="44.1689167" lon="11.9504333"><ele>77.0</ele><time>2026-05-01T17:48:59.439Z</time></trkpt><trkpt lat="44.1688467" lon="11.9504517"><ele>77.0</ele><time>2026-05-01T17:49:01.439Z</time></trkpt><trkpt lat="44.1687867" lon="11.9504933"><ele>77.0</ele><time>2026-05-01T17:49:03.438Z</time></trkpt><trkpt lat="44.168725" lon="11.9505133"><ele>77.0</ele><time>2026-05-01T17:49:06.438Z</time></trkpt><trkpt lat="44.1687317" lon="11.950415"><ele>77.0</ele><time>2026-05-01T17:49:16.441Z</time></trkpt><trkpt lat="44.1686983" lon="11.9503367"><ele>77.0</ele><time>2026-05-01T17:49:20.439Z</time></trkpt></trkseg><trkseg><trkpt lat="44.1685633" lon="11.9502433"><ele>77.0</ele><time>2026-05-01T18:36:33.442Z</time></trkpt><trkpt lat="44.168625" lon="11.9502217"><ele>77.0</ele><time>2026-05-01T18:37:02.441Z</time></trkpt><trkpt lat="44.16873" lon="11.9501633"><ele>77.0</ele><time>2026-05-01T18:37:32.44Z</time></trkpt><trkpt lat="44.1686583" lon="11.9502083"><ele>77.0</ele><time>2026-05-01T18:38:18.444Z</time></trkpt><trkpt lat="44.1685767" lon="11.95027"><ele>77.0</ele><time>2026-05-01T18:39:19.443Z</time></trkpt><trkpt lat="44.16853" lon="11.9504"><ele>77.0</ele><time>2026-05-01T18:39:51.442Z</time></trkpt><trkpt lat="44.1685817" lon="11.95028"><ele>77.0</ele><time>2026-05-01T18:40:36.441Z</time></trkpt><trkpt lat="44.1686867" lon="11.9502617"><ele>77.0</ele><time>2026-05-01T18:40:52.442Z</time></trkpt><trkpt lat="44.168635" lon="11.9503383"><ele>77.0</ele><time>2026-05-01T18:42:18.441Z</time></trkpt><trkpt lat="44.1685517" lon="11.9504317"><ele>77.0</ele><time>2026-05-01T18:42:44.441Z</time></trkpt><trkpt lat="44.1684846" lon="11.9504808"><ele>77.0</ele><time>2026-05-01T18:44:17.441Z</time></trkpt><trkpt lat="44.16842" lon="11.9504563"><ele>77.0</ele><time>2026-05-01T18:44:37.44Z</time></trkpt><trkpt lat="44.1684209" lon="11.9502826"><ele>77.0</ele><time>2026-05-01T18:45:35.441Z</time></trkpt><trkpt lat="44.1684387" lon="11.950367"><ele>77.0</ele><time>2026-05-01T18:48:01.442Z</time></trkpt><trkpt lat="44.1683778" lon="11.9504374"><ele>77.0</ele><time>2026-05-01T18:49:04.441Z</time></trkpt><trkpt lat="44.1684116" lon="11.9503487"><ele>77.0</ele><time>2026-05-01T18:50:15.441Z</time></trkpt><trkpt lat="44.1684026" lon="11.9502368"><ele>77.0</ele><time>2026-05-01T18:50:57.442Z</time></trkpt><trkpt lat="44.1684152" lon="11.9503332"><ele>77.0</ele><time>2026-05-01T18:53:13.441Z</time></trkpt><trkpt lat="44.1683766" lon="11.9504565"><ele>77.0</ele><time>2026-05-01T18:56:49.442Z</time></trkpt><trkpt lat="44.1684399" lon="11.9504039"><ele>77.0</ele><time>2026-05-01T19:00:06.442Z</time></trkpt><trkpt lat="44.1684469" lon="11.9502998"><ele>77.0</ele><time>2026-05-01T19:04:07.443Z</time></trkpt><trkpt lat="44.1685054" lon="11.9502577"><ele>77.0</ele><time>2026-05-01T19:04:46.44Z</time></trkpt><trkpt lat="44.168441" lon="11.9501709"><ele>77.0</ele><time>2026-05-01T19:05:50.442Z</time></trkpt><trkpt lat="44.1683715" lon="11.9500918"><ele>77.0</ele><time>2026-05-01T19:05:52.445Z</time></trkpt><trkpt lat="44.1685267" lon="11.9502945"><ele>77.0</ele><time>2026-05-01T19:06:05.337Z</time></trkpt><trkpt lat="44.1685984" lon="11.9503975"><ele>77.0</ele><time>2026-05-01T19:06:10.766Z</time></trkpt><trkpt lat="44.1685306" lon="11.9504024"><ele>77.0</ele><time>2026-05-01T19:06:14.442Z</time></trkpt><trkpt lat="44.1684893" lon="11.9504929"><ele>77.0</ele><time>2026-05-01T19:06:18.441Z</time></trkpt><trkpt lat="44.1684786" lon="11.950404"><ele>77.0</ele><time>2026-05-01T19:06:21.442Z</time></trkpt><trkpt lat="44.1684698" lon="11.9503032"><ele>77.0</ele><time>2026-05-01T19:06:36.442Z</time></trkpt><trkpt lat="44.1684816" lon="11.9502117"><ele>77.0</ele><time>2026-05-01T19:06:55.443Z</time></trkpt><trkpt lat="44.1685104" lon="11.9501208"><ele>77.0</ele><time>2026-05-01T19:06:59.443Z</time></trkpt><trkpt lat="44.1685814" lon="11.9502843"><ele>77.0</ele><time>2026-05-01T19:08:05.443Z</time></trkpt><trkpt lat="44.1685156" lon="11.9503852"><ele>77.0</ele><time>2026-05-01T19:08:50.443Z</time></trkpt><trkpt lat="44.168637" lon="11.9504943"><ele>77.0</ele><time>2026-05-01T19:09:05.31Z</time></trkpt><trkpt lat="44.1686065" lon="11.9503927"><ele>77.0</ele><time>2026-05-01T19:09:18.441Z</time></trkpt><trkpt lat="44.1686352" lon="11.9503002"><ele>77.0</ele><time>2026-05-01T19:09:21.441Z</time></trkpt><trkpt lat="44.1685725" lon="11.9502921"><ele>77.0</ele><time>2026-05-01T19:09:28.442Z</time></trkpt><trkpt lat="44.1685015" lon="11.9503012"><ele>77.0</ele><time>2026-05-01T19:09:36.443Z</time></trkpt><trkpt lat="44.16857" lon="11.9503104"><ele>77.0</ele><time>2026-05-01T19:10:34.444Z</time></trkpt><trkpt lat="44.16849" lon="11.9503209"><ele>77.0</ele><time>2026-05-01T19:11:03.443Z</time></trkpt><trkpt lat="44.1685241" lon="11.9502354"><ele>77.0</ele><time>2026-05-01T19:11:36.442Z</time></trkpt><trkpt lat="44.1686" lon="11.950245"><ele>77.0</ele><time>2026-05-01T19:12:07.441Z</time></trkpt><trkpt lat="44.1686517" lon="11.9502983"><ele>77.0</ele><time>2026-05-01T19:12:24.442Z</time></trkpt><trkpt lat="44.1685967" lon="11.9502533"><ele>77.0</ele><time>2026-05-01T19:12:57.443Z</time></trkpt><trkpt lat="44.1685567" lon="11.95014"><ele>77.0</ele><time>2026-05-01T19:13:10.44Z</time></trkpt><trkpt lat="44.1684933" lon="11.95012"><ele>77.0</ele><time>2026-05-01T19:14:10.44Z</time></trkpt><trkpt lat="44.168545" lon="11.9502333"><ele>77.0</ele><time>2026-05-01T19:14:39.442Z</time></trkpt></trkseg><trkseg><trkpt lat="44.1685467" lon="11.95036"><ele>115.4</ele><time>2026-05-01T20:14:32.809Z</time></trkpt></trkseg><trkseg><trkpt lat="44.1685788" lon="11.9503451"><ele>77.0</ele><time>2026-05-02T03:05:12.581Z</time></trkpt><trkpt lat="44.1685129" lon="11.9503706"><ele>77.0</ele><time>2026-05-02T03:05:13.58Z</time></trkpt><trkpt lat="44.168441" lon="11.9503782"><ele>77.0</ele><time>2026-05-02T03:05:15.581Z</time></trkpt><trkpt lat="44.1685372" lon="11.9503529"><ele>77.0</ele><time>2026-05-02T03:05:20.362Z</time></trkpt><trkpt lat="44.168542" lon="11.9502454"><ele>77.0</ele><time>2026-05-02T03:05:22.439Z</time></trkpt><trkpt lat="44.1686039" lon="11.9502095"><ele>77.0</ele><time>2026-05-02T03:05:29.44Z</time></trkpt><trkpt lat="44.1685671" lon="11.9502816"><ele>77.0</ele><time>2026-05-02T03:05:57.44Z</time></trkpt><trkpt lat="44.1685231" lon="11.9502146"><ele>77.0</ele><time>2026-05-02T03:06:40.441Z</time></trkpt><trkpt lat="44.168462" lon="11.9501888"><ele>77.0</ele><time>2026-05-02T03:07:53.44Z</time></trkpt><trkpt lat="44.1684406" lon="11.950289"><ele>77.0</ele><time>2026-05-02T03:08:10.441Z</time></trkpt><trkpt lat="44.1685437" lon="11.9503135"><ele>77.0</ele><time>2026-05-02T03:09:18.441Z</time></trkpt><trkpt lat="44.1684728" lon="11.9503096"><ele>77.0</ele><time>2026-05-02T03:18:38.441Z</time></trkpt><trkpt lat="44.1685838" lon="11.9504008"><ele>77.0</ele><time>2026-05-02T03:19:01.323Z</time></trkpt><trkpt lat="44.168465" lon="11.9503801"><ele>77.0</ele><time>2026-05-02T03:19:07.441Z</time></trkpt><trkpt lat="44.1684033" lon="11.9504058"><ele>77.0</ele><time>2026-05-02T03:19:10.441Z</time></trkpt><trkpt lat="44.1683668" lon="11.9502854"><ele>77.0</ele><time>2026-05-02T03:19:48.44Z</time></trkpt><trkpt lat="44.1683894" lon="11.9503697"><ele>77.0</ele><time>2026-05-02T03:20:22.439Z</time></trkpt><trkpt lat="44.1683201" lon="11.9505051"><ele>77.0</ele><time>2026-05-02T03:22:32.441Z</time></trkpt><trkpt lat="44.1683217" lon="11.9504115"><ele>77.0</ele><time>2026-05-02T03:23:04.443Z</time></trkpt><trkpt lat="44.16838" lon="11.9503545"><ele>77.0</ele><time>2026-05-02T03:23:33.442Z</time></trkpt><trkpt lat="44.1684681" lon="11.9502901"><ele>77.0</ele><time>2026-05-02T03:24:12.442Z</time></trkpt><trkpt lat="44.1685302" lon="11.9501937"><ele>77.0</ele><time>2026-05-02T03:25:00.441Z</time></trkpt><trkpt lat="44.1685796" lon="11.9500644"><ele>77.0</ele><time>2026-05-02T03:25:45.442Z</time></trkpt><trkpt lat="44.1685273" lon="11.9501148"><ele>77.0</ele><time>2026-05-02T03:26:23.44Z</time></trkpt><trkpt lat="44.1684484" lon="11.9502734"><ele>77.0</ele><time>2026-05-02T03:26:36.441Z</time></trkpt><trkpt lat="44.1684049" lon="11.950394"><ele>77.0</ele><time>2026-05-02T03:27:48.442Z</time></trkpt><trkpt lat="44.1684986" lon="11.950459"><ele>77.0</ele><time>2026-05-02T03:29:18.443Z</time></trkpt><trkpt lat="44.16862" lon="11.9505322"><ele>77.0</ele><time>2026-05-02T03:31:59.443Z</time></trkpt><trkpt lat="44.16866" lon="11.9504499"><ele>77.0</ele><time>2026-05-02T03:32:11.441Z</time></trkpt><trkpt lat="44.1687155" lon="11.9503988"><ele>77.0</ele><time>2026-05-02T03:32:16.441Z</time></trkpt><trkpt lat="44.1687829" lon="11.9503566"><ele>77.0</ele><time>2026-05-02T03:32:19.44Z</time></trkpt><trkpt lat="44.1688607" lon="11.9502961"><ele>77.0</ele><time>2026-05-02T03:32:22.442Z</time></trkpt><trkpt lat="44.1689163" lon="11.9502549"><ele>77.0</ele><time>2026-05-02T03:32:25.441Z</time></trkpt><trkpt lat="44.1689925" lon="11.950194"><ele>77.0</ele><time>2026-05-02T03:32:28.441Z</time></trkpt><trkpt lat="44.1690769" lon="11.9501745"><ele>77.0</ele><time>2026-05-02T03:32:31.44Z</time></trkpt><trkpt lat="44.1691402" lon="11.9501518"><ele>77.0</ele><time>2026-05-02T03:32:33.44Z</time></trkpt><trkpt lat="44.1692204" lon="11.9500983"><ele>77.0</ele><time>2026-05-02T03:32:35.441Z</time></trkpt><trkpt lat="44.1693019" lon="11.950021"><ele>77.0</ele><time>2026-05-02T03:32:37.439Z</time></trkpt><trkpt lat="44.1693912" lon="11.9499255"><ele>77.0</ele><time>2026-05-02T03:32:39.442Z</time></trkpt><trkpt lat="44.1694495" lon="11.9498918"><ele>77.0</ele><time>2026-05-02T03:32:40.44Z</time></trkpt><trkpt lat="44.1695566" lon="11.9498223"><ele>75.6</ele><time>2026-05-02T03:32:42.441Z</time></trkpt><trkpt lat="44.1696698" lon="11.9497526"><ele>74.2</ele><time>2026-05-02T03:32:44.441Z</time></trkpt><trkpt lat="44.1697291" lon="11.9497212"><ele>72.8</ele><time>2026-05-02T03:32:45.439Z</time></trkpt><trkpt lat="44.1698449" lon="11.9496474"><ele>71.4</ele><time>2026-05-02T03:32:47.44Z</time></trkpt><trkpt lat="44.1699018" lon="11.9496002"><ele>70.0</ele><time>2026-05-02T03:32:48.441Z</time></trkpt><trkpt lat="44.170006" lon="11.9495179"><ele>69.5</ele><time>2026-05-02T03:32:50.439Z</time></trkpt><trkpt lat="44.1700994" lon="11.9494586"><ele>69.0</ele><time>2026-05-02T03:32:52.439Z</time></trkpt><trkpt lat="44.17019" lon="11.9494125"><ele>68.5</ele><time>2026-05-02T03:32:54.441Z</time></trkpt><trkpt lat="44.1702709" lon="11.9493613"><ele>68.0</ele><time>2026-05-02T03:32:56.443Z</time></trkpt><trkpt lat="44.1703454" lon="11.9493203"><ele>67.5</ele><time>2026-05-02T03:32:58.439Z</time></trkpt><trkpt lat="44.1704143" lon="11.9492827"><ele>67.0</ele><time>2026-05-02T03:33:00.441Z</time></trkpt><trkpt lat="44.170474" lon="11.9492439"><ele>67.0</ele><time>2026-05-02T03:33:02.441Z</time></trkpt><trkpt lat="44.1705494" lon="11.9491958"><ele>67.0</ele><time>2026-05-02T03:33:05.439Z</time></trkpt><trkpt lat="44.1706143" lon="11.9492232"><ele>67.0</ele><time>2026-05-02T03:33:09.441Z</time></trkpt><trkpt lat="44.1706323" lon="11.9493096"><ele>67.0</ele><time>2026-05-02T03:33:13.443Z</time></trkpt><trkpt lat="44.1706586" lon="11.9493924"><ele>67.0</ele><time>2026-05-02T03:33:16.438Z</time></trkpt><trkpt lat="44.1706994" lon="11.9494749"><ele>67.0</ele><time>2026-05-02T03:33:19.439Z</time></trkpt><trkpt lat="44.170725" lon="11.9495767"><ele>67.0</ele><time>2026-05-02T03:33:22.438Z</time></trkpt><trkpt lat="44.1707469" lon="11.9496596"><ele>66.57142857142857</ele><time>2026-05-02T03:33:30.44Z</time></trkpt><trkpt lat="44.1707768" lon="11.9497372"><ele>66.14285714285714</ele><time>2026-05-02T03:33:40.439Z</time></trkpt><trkpt lat="44.170814" lon="11.9498327"><ele>65.71428571428571</ele><time>2026-05-02T03:33:57.442Z</time></trkpt><trkpt lat="44.170865" lon="11.9499064"><ele>65.28571428571428</ele><time>2026-05-02T03:34:02.438Z</time></trkpt><trkpt lat="44.1709098" lon="11.9499807"><ele>64.85714285714285</ele><time>2026-05-02T03:34:07.439Z</time></trkpt><trkpt lat="44.1709537" lon="11.9500498"><ele>64.42857142857143</ele><time>2026-05-02T03:34:14.442Z</time></trkpt><trkpt lat="44.1709853" lon="11.9501352"><ele>64.0</ele><time>2026-05-02T03:34:19.44Z</time></trkpt><trkpt lat="44.1710242" lon="11.9502268"><ele>64.0</ele><time>2026-05-02T03:34:22.439Z</time></trkpt><trkpt lat="44.1710496" lon="11.9503346"><ele>63.99999999999999</ele><time>2026-05-02T03:34:25.439Z</time></trkpt><trkpt lat="44.171065" lon="11.950424"><ele>64.0</ele><time>2026-05-02T03:34:30.439Z</time></trkpt><trkpt lat="44.1710957" lon="11.9505075"><ele>64.0</ele><time>2026-05-02T03:34:38.442Z</time></trkpt><trkpt lat="44.171114" lon="11.9506052"><ele>63.99999999999999</ele><time>2026-05-02T03:34:43.44Z</time></trkpt><trkpt lat="44.1711219" lon="11.9507033"><ele>64.0</ele><time>2026-05-02T03:34:48.438Z</time></trkpt><trkpt lat="44.171128" lon="11.9508014"><ele>64.0</ele><time>2026-05-02T03:34:54.44Z</time></trkpt><trkpt lat="44.1711473" lon="11.9508858"><ele>63.99999999999999</ele><time>2026-05-02T03:35:04.44Z</time></trkpt><trkpt lat="44.1711631" lon="11.9509881"><ele>64.0</ele><time>2026-05-02T03:35:22.439Z</time></trkpt><trkpt lat="44.1711798" lon="11.9510948"><ele>64.0</ele><time>2026-05-02T03:35:26.44Z</time></trkpt><trkpt lat="44.1711805" lon="11.9511989"><ele>64.0</ele><time>2026-05-02T03:35:29.439Z</time></trkpt><trkpt lat="44.1711755" lon="11.9513131"><ele>63.99999999999999</ele><time>2026-05-02T03:35:32.44Z</time></trkpt><trkpt lat="44.1711792" lon="11.9514185"><ele>64.0</ele><time>2026-05-02T03:35:35.439Z</time></trkpt><trkpt lat="44.1711743" lon="11.9515299"><ele>64.0</ele><time>2026-05-02T03:35:38.441Z</time></trkpt><trkpt lat="44.1711823" lon="11.9516274"><ele>63.99999999999999</ele><time>2026-05-02T03:35:41.439Z</time></trkpt><trkpt lat="44.1711991" lon="11.9517153"><ele>64.0</ele><time>2026-05-02T03:35:44.441Z</time></trkpt><trkpt lat="44.1712158" lon="11.9518223"><ele>64.0</ele><time>2026-05-02T03:35:47.442Z</time></trkpt><trkpt lat="44.1712284" lon="11.9519257"><ele>63.99999999999999</ele><time>2026-05-02T03:35:50.44Z</time></trkpt><trkpt lat="44.1712413" lon="11.9520254"><ele>64.0</ele><time>2026-05-02T03:35:53.438Z</time></trkpt><trkpt lat="44.171246" lon="11.9521267"><ele>64.0</ele><time>2026-05-02T03:35:56.439Z</time></trkpt><trkpt lat="44.1712442" lon="11.9522265"><ele>63.71428571428571</ele><time>2026-05-02T03:35:59.438Z</time></trkpt><trkpt lat="44.1712457" lon="11.9523198"><ele>63.42857142857142</ele><time>2026-05-02T03:36:02.442Z</time></trkpt><trkpt lat="44.171255" lon="11.9524144"><ele>63.14285714285714</ele><time>2026-05-02T03:36:05.441Z</time></trkpt><trkpt lat="44.1712629" lon="11.9525113"><ele>62.85714285714286</ele><time>2026-05-02T03:36:08.443Z</time></trkpt><trkpt lat="44.17127" lon="11.9526106"><ele>62.57142857142858</ele><time>2026-05-02T03:36:11.442Z</time></trkpt><trkpt lat="44.1712815" lon="11.9527065"><ele>62.28571428571429</ele><time>2026-05-02T03:36:14.439Z</time></trkpt><trkpt lat="44.1712917" lon="11.9528049"><ele>62.0</ele><time>2026-05-02T03:36:17.439Z</time></trkpt><trkpt lat="44.171318" lon="11.952917"><ele>62.00000000000001</ele><time>2026-05-02T03:36:21.439Z</time></trkpt><trkpt lat="44.1713337" lon="11.9530206"><ele>62.0</ele><time>2026-05-02T03:36:24.439Z</time></trkpt><trkpt lat="44.1713368" lon="11.9531307"><ele>62.0</ele><time>2026-05-02T03:36:27.442Z</time></trkpt><trkpt lat="44.17134" lon="11.9532185"><ele>62.0</ele><time>2026-05-02T03:36:29.442Z</time></trkpt><trkpt lat="44.1713277" lon="11.9533545"><ele>62.00000000000001</ele><time>2026-05-02T03:36:32.44Z</time></trkpt><trkpt lat="44.1713172" lon="11.9534575"><ele>62.0</ele><time>2026-05-02T03:36:34.441Z</time></trkpt><trkpt lat="44.1713047" lon="11.953567"><ele>61.833333333333336</ele><time>2026-05-02T03:36:36.441Z</time></trkpt><trkpt lat="44.1712926" lon="11.9536736"><ele>61.66666666666667</ele><time>2026-05-02T03:36:38.442Z</time></trkpt><trkpt lat="44.1712768" lon="11.9537697"><ele>61.5</ele><time>2026-05-02T03:36:40.442Z</time></trkpt><trkpt lat="44.1712506" lon="11.9538961"><ele>61.33333333333333</ele><time>2026-05-02T03:36:43.438Z</time></trkpt><trkpt lat="44.1712216" lon="11.9539997"><ele>61.166666666666664</ele><time>2026-05-02T03:36:45.442Z</time></trkpt><trkpt lat="44.171198" lon="11.954094"><ele>61.0</ele><time>2026-05-02T03:36:47.44Z</time></trkpt><trkpt lat="44.1711832" lon="11.9541927"><ele>60.85714285714285</ele><time>2026-05-02T03:36:49.44Z</time></trkpt><trkpt lat="44.1711861" lon="11.9542978"><ele>60.71428571428571</ele><time>2026-05-02T03:36:51.439Z</time></trkpt><trkpt lat="44.1711934" lon="11.9543973"><ele>60.57142857142857</ele><time>2026-05-02T03:36:53.439Z</time></trkpt><trkpt lat="44.1711982" lon="11.9544959"><ele>60.42857142857142</ele><time>2026-05-02T03:36:55.44Z</time></trkpt><trkpt lat="44.1711975" lon="11.9545962"><ele>60.28571428571428</ele><time>2026-05-02T03:36:57.443Z</time></trkpt><trkpt lat="44.1712037" lon="11.9546958"><ele>60.142857142857146</ele><time>2026-05-02T03:36:59.442Z</time></trkpt><trkpt lat="44.1712151" lon="11.9547915"><ele>60.0</ele><time>2026-05-02T03:37:01.442Z</time></trkpt><trkpt lat="44.1712232" lon="11.9548876"><ele>60.0</ele><time>2026-05-02T03:37:03.441Z</time></trkpt><trkpt lat="44.1712366" lon="11.954985"><ele>60.0</ele><time>2026-05-02T03:37:05.442Z</time></trkpt><trkpt lat="44.1712466" lon="11.9550802"><ele>60.0</ele><time>2026-05-02T03:37:08.441Z</time></trkpt><trkpt lat="44.1712657" lon="11.95517"><ele>60.0</ele><time>2026-05-02T03:37:11.442Z</time></trkpt><trkpt lat="44.171277" lon="11.9552905"><ele>60.0</ele><time>2026-05-02T03:37:14.442Z</time></trkpt><trkpt lat="44.1712956" lon="11.9554207"><ele>60.0</ele><time>2026-05-02T03:37:17.441Z</time></trkpt><trkpt lat="44.1713077" lon="11.955513"><ele>60.142857142857146</ele><time>2026-05-02T03:37:19.439Z</time></trkpt><trkpt lat="44.1713364" lon="11.9555995"><ele>60.28571428571428</ele><time>2026-05-02T03:37:21.439Z</time></trkpt><trkpt lat="44.1713776" lon="11.9556747"><ele>60.42857142857142</ele><time>2026-05-02T03:37:23.439Z</time></trkpt><trkpt lat="44.1714299" lon="11.9557455"><ele>60.57142857142857</ele><time>2026-05-02T03:37:25.442Z</time></trkpt><trkpt lat="44.1714737" lon="11.9558219"><ele>60.71428571428571</ele><time>2026-05-02T03:37:27.442Z</time></trkpt><trkpt lat="44.1715072" lon="11.9558997"><ele>60.85714285714285</ele><time>2026-05-02T03:37:29.438Z</time></trkpt><trkpt lat="44.1715245" lon="11.9560209"><ele>60.99999999999999</ele><time>2026-05-02T03:37:32.441Z</time></trkpt><trkpt lat="44.1715285" lon="11.9561402"><ele>60.99999999999999</ele><time>2026-05-02T03:37:35.442Z</time></trkpt><trkpt lat="44.1715187" lon="11.9562355"><ele>61.0</ele><time>2026-05-02T03:37:41.443Z</time></trkpt><trkpt lat="44.171527" lon="11.9563622"><ele>61.0</ele><time>2026-05-02T03:37:45.444Z</time></trkpt><trkpt lat="44.1715781" lon="11.9564618"><ele>61.0</ele><time>2026-05-02T03:37:48.441Z</time></trkpt><trkpt lat="44.1716616" lon="11.9565088"><ele>60.99999999999999</ele><time>2026-05-02T03:37:51.441Z</time></trkpt><trkpt lat="44.1717397" lon="11.9565455"><ele>61.0</ele><time>2026-05-02T03:37:54.44Z</time></trkpt><trkpt lat="44.17182" lon="11.956585"><ele>60.99999999999999</ele><time>2026-05-02T03:37:57.442Z</time></trkpt><trkpt lat="44.1719053" lon="11.9566017"><ele>61.0</ele><time>2026-05-02T03:38:00.44Z</time></trkpt><trkpt lat="44.1719713" lon="11.9565988"><ele>60.99999999999999</ele><time>2026-05-02T03:38:02.439Z</time></trkpt><trkpt lat="44.1720371" lon="11.9565954"><ele>60.99999999999999</ele><time>2026-05-02T03:38:04.44Z</time></trkpt><trkpt lat="44.1721055" lon="11.9565913"><ele>61.0</ele><time>2026-05-02T03:38:06.441Z</time></trkpt><trkpt lat="44.1721769" lon="11.9565708"><ele>60.99999999999999</ele><time>2026-05-02T03:38:08.44Z</time></trkpt><trkpt lat="44.1722452" lon="11.956529"><ele>60.99999999999999</ele><time>2026-05-02T03:38:10.44Z</time></trkpt><trkpt lat="44.1723074" lon="11.9564753"><ele>60.99999999999999</ele><time>2026-05-02T03:38:12.44Z</time></trkpt><trkpt lat="44.172363" lon="11.9564007"><ele>61.0</ele><time>2026-05-02T03:38:14.443Z</time></trkpt><trkpt lat="44.1724126" lon="11.9563417"><ele>60.99999999999999</ele><time>2026-05-02T03:38:16.441Z</time></trkpt><trkpt lat="44.1725039" lon="11.9563465"><ele>60.99999999999999</ele><time>2026-05-02T03:38:19.444Z</time></trkpt><trkpt lat="44.1725671" lon="11.9563704"><ele>61.0</ele><time>2026-05-02T03:38:21.44Z</time></trkpt><trkpt lat="44.1726257" lon="11.9564071"><ele>60.99999999999999</ele><time>2026-05-02T03:38:23.441Z</time></trkpt><trkpt lat="44.1727033" lon="11.9564535"><ele>60.99999999999999</ele><time>2026-05-02T03:38:25.44Z</time></trkpt><trkpt lat="44.1727849" lon="11.9565101"><ele>60.99999999999999</ele><time>2026-05-02T03:38:27.443Z</time></trkpt><trkpt lat="44.172859" lon="11.9565759"><ele>61.0</ele><time>2026-05-02T03:38:29.442Z</time></trkpt><trkpt lat="44.1729401" lon="11.9566247"><ele>61.0</ele><time>2026-05-02T03:38:31.442Z</time></trkpt><trkpt lat="44.1730108" lon="11.9566657"><ele>61.0</ele><time>2026-05-02T03:38:33.441Z</time></trkpt><trkpt lat="44.1730836" lon="11.9567037"><ele>60.99999999999999</ele><time>2026-05-02T03:38:35.441Z</time></trkpt><trkpt lat="44.1731644" lon="11.9567319"><ele>61.0</ele><time>2026-05-02T03:38:37.441Z</time></trkpt><trkpt lat="44.1732439" lon="11.9567562"><ele>61.49999999999999</ele><time>2026-05-02T03:38:39.44Z</time></trkpt><trkpt lat="44.1733167" lon="11.9567823"><ele>62.0</ele><time>2026-05-02T03:38:41.44Z</time></trkpt><trkpt lat="44.1733815" lon="11.9568132"><ele>62.5</ele><time>2026-05-02T03:38:43.439Z</time></trkpt><trkpt lat="44.1734494" lon="11.9568329"><ele>63.0</ele><time>2026-05-02T03:38:45.44Z</time></trkpt><trkpt lat="44.1735321" lon="11.9568493"><ele>63.49999999999999</ele><time>2026-05-02T03:38:47.44Z</time></trkpt><trkpt lat="44.1736175" lon="11.9568699"><ele>64.0</ele><time>2026-05-02T03:38:49.44Z</time></trkpt><trkpt lat="44.1737022" lon="11.9569074"><ele>63.99999999999999</ele><time>2026-05-02T03:38:51.442Z</time></trkpt><trkpt lat="44.1737852" lon="11.9569542"><ele>64.0</ele><time>2026-05-02T03:38:53.442Z</time></trkpt><trkpt lat="44.1738726" lon="11.9569841"><ele>64.0</ele><time>2026-05-02T03:38:55.442Z</time></trkpt><trkpt lat="44.1739583" lon="11.9570017"><ele>64.0</ele><time>2026-05-02T03:38:57.443Z</time></trkpt><trkpt lat="44.17405" lon="11.957015"><ele>63.99999999999999</ele><time>2026-05-02T03:38:59.443Z</time></trkpt><trkpt lat="44.17414" lon="11.9570333"><ele>64.0</ele><time>2026-05-02T03:39:01.443Z</time></trkpt><trkpt lat="44.1742283" lon="11.9570433"><ele>64.0</ele><time>2026-05-02T03:39:03.442Z</time></trkpt><trkpt lat="44.1743183" lon="11.9570467"><ele>64.0</ele><time>2026-05-02T03:39:05.443Z</time></trkpt><trkpt lat="44.17441" lon="11.95705"><ele>64.0</ele><time>2026-05-02T03:39:07.443Z</time></trkpt><trkpt lat="44.1745033" lon="11.9570533"><ele>64.0</ele><time>2026-05-02T03:39:09.441Z</time></trkpt><trkpt lat="44.1746033" lon="11.957045"><ele>64.0</ele><time>2026-05-02T03:39:11.44Z</time></trkpt><trkpt lat="44.1746967" lon="11.9570367"><ele>63.99999999999999</ele><time>2026-05-02T03:39:13.44Z</time></trkpt><trkpt lat="44.1747867" lon="11.95702"><ele>64.0</ele><time>2026-05-02T03:39:15.441Z</time></trkpt><trkpt lat="44.174875" lon="11.9570017"><ele>64.0</ele><time>2026-05-02T03:39:17.44Z</time></trkpt><trkpt lat="44.1749633" lon="11.956985"><ele>64.0</ele><time>2026-05-02T03:39:19.439Z</time></trkpt><trkpt lat="44.1750533" lon="11.9569683"><ele>63.99999999999999</ele><time>2026-05-02T03:39:21.441Z</time></trkpt><trkpt lat="44.17514" lon="11.95695"><ele>64.0</ele><time>2026-05-02T03:39:23.44Z</time></trkpt><trkpt lat="44.1752233" lon="11.9569283"><ele>63.83333333333333</ele><time>2026-05-02T03:39:25.44Z</time></trkpt><trkpt lat="44.175305" lon="11.9569183"><ele>63.666666666666664</ele><time>2026-05-02T03:39:27.44Z</time></trkpt><trkpt lat="44.1753883" lon="11.9569067"><ele>63.5</ele><time>2026-05-02T03:39:29.44Z</time></trkpt><trkpt lat="44.1754717" lon="11.95689"><ele>63.33333333333333</ele><time>2026-05-02T03:39:31.439Z</time></trkpt><trkpt lat="44.175545" lon="11.9568817"><ele>63.166666666666664</ele><time>2026-05-02T03:39:33.441Z</time></trkpt><trkpt lat="44.1756217" lon="11.956885"><ele>63.0</ele><time>2026-05-02T03:39:35.443Z</time></trkpt><trkpt lat="44.17571" lon="11.956885"><ele>62.4</ele><time>2026-05-02T03:39:37.443Z</time></trkpt><trkpt lat="44.1758033" lon="11.95689"><ele>61.8</ele><time>2026-05-02T03:39:39.443Z</time></trkpt><trkpt lat="44.1758917" lon="11.9568933"><ele>61.2</ele><time>2026-05-02T03:39:41.439Z</time></trkpt><trkpt lat="44.1759833" lon="11.956885"><ele>60.6</ele><time>2026-05-02T03:39:43.441Z</time></trkpt><trkpt lat="44.1760733" lon="11.9568783"><ele>60.0</ele><time>2026-05-02T03:39:45.443Z</time></trkpt><trkpt lat="44.1761633" lon="11.9568683"><ele>60.0</ele><time>2026-05-02T03:39:47.44Z</time></trkpt><trkpt lat="44.1762617" lon="11.9568533"><ele>60.0</ele><time>2026-05-02T03:39:49.442Z</time></trkpt><trkpt lat="44.1763467" lon="11.9568267"><ele>60.0</ele><time>2026-05-02T03:39:51.441Z</time></trkpt><trkpt lat="44.1764367" lon="11.9567933"><ele>60.0</ele><time>2026-05-02T03:39:53.439Z</time></trkpt><trkpt lat="44.17652" lon="11.9567667"><ele>60.0</ele><time>2026-05-02T03:39:55.441Z</time></trkpt><trkpt lat="44.1765967" lon="11.9567333"><ele>60.0</ele><time>2026-05-02T03:39:57.44Z</time></trkpt><trkpt lat="44.1766667" lon="11.9566867"><ele>59.833333333333336</ele><time>2026-05-02T03:39:59.44Z</time></trkpt><trkpt lat="44.1767483" lon="11.9566183"><ele>59.66666666666667</ele><time>2026-05-02T03:40:02.439Z</time></trkpt><trkpt lat="44.1768167" lon="11.9566533"><ele>59.5</ele><time>2026-05-02T03:40:06.443Z</time></trkpt><trkpt lat="44.17685" lon="11.9567433"><ele>59.333333333333336</ele><time>2026-05-02T03:40:09.443Z</time></trkpt><trkpt lat="44.1768817" lon="11.9568367"><ele>59.16666666666667</ele><time>2026-05-02T03:40:12.443Z</time></trkpt><trkpt lat="44.17692" lon="11.95693"><ele>59.0</ele><time>2026-05-02T03:40:15.443Z</time></trkpt><trkpt lat="44.1769533" lon="11.9570517"><ele>58.833333333333336</ele><time>2026-05-02T03:40:18.442Z</time></trkpt><trkpt lat="44.1769933" lon="11.9571583"><ele>58.66666666666667</ele><time>2026-05-02T03:40:21.44Z</time></trkpt><trkpt lat="44.1770683" lon="11.9572133"><ele>58.5</ele><time>2026-05-02T03:40:24.439Z</time></trkpt><trkpt lat="44.1771433" lon="11.9571917"><ele>58.33333333333333</ele><time>2026-05-02T03:40:26.44Z</time></trkpt><trkpt lat="44.17721" lon="11.9571483"><ele>58.166666666666664</ele><time>2026-05-02T03:40:28.439Z</time></trkpt><trkpt lat="44.177285" lon="11.957105"><ele>58.0</ele><time>2026-05-02T03:40:30.44Z</time></trkpt><trkpt lat="44.17737" lon="11.9570583"><ele>57.99999999999999</ele><time>2026-05-02T03:40:32.443Z</time></trkpt><trkpt lat="44.1774583" lon="11.957015"><ele>58.0</ele><time>2026-05-02T03:40:34.443Z</time></trkpt><trkpt lat="44.1775467" lon="11.9569783"><ele>58.0</ele><time>2026-05-02T03:40:36.442Z</time></trkpt><trkpt lat="44.1776283" lon="11.956955"><ele>58.0</ele><time>2026-05-02T03:40:38.443Z</time></trkpt><trkpt lat="44.17771" lon="11.9569383"><ele>57.99999999999999</ele><time>2026-05-02T03:40:40.442Z</time></trkpt><trkpt lat="44.177795" lon="11.956915"><ele>58.0</ele><time>2026-05-02T03:40:42.442Z</time></trkpt><trkpt lat="44.17788" lon="11.956895"><ele>57.99999999999999</ele><time>2026-05-02T03:40:44.44Z</time></trkpt><trkpt lat="44.1779683" lon="11.956885"><ele>58.0</ele><time>2026-05-02T03:40:46.44Z</time></trkpt><trkpt lat="44.1780533" lon="11.9568683"><ele>58.0</ele><time>2026-05-02T03:40:48.44Z</time></trkpt><trkpt lat="44.1781333" lon="11.9568483"><ele>58.0</ele><time>2026-05-02T03:40:50.439Z</time></trkpt><trkpt lat="44.17822" lon="11.9568233"><ele>57.99999999999999</ele><time>2026-05-02T03:40:52.441Z</time></trkpt><trkpt lat="44.1783067" lon="11.956815"><ele>58.0</ele><time>2026-05-02T03:40:54.439Z</time></trkpt><trkpt lat="44.1784" lon="11.956795"><ele>57.8</ele><time>2026-05-02T03:40:56.44Z</time></trkpt><trkpt lat="44.1784933" lon="11.956765"><ele>57.599999999999994</ele><time>2026-05-02T03:40:58.44Z</time></trkpt><trkpt lat="44.1785883" lon="11.9567467"><ele>57.400000000000006</ele><time>2026-05-02T03:41:00.439Z</time></trkpt><trkpt lat="44.1786833" lon="11.9567233"><ele>57.2</ele><time>2026-05-02T03:41:02.442Z</time></trkpt><trkpt lat="44.1787817" lon="11.9566967"><ele>57.0</ele><time>2026-05-02T03:41:04.442Z</time></trkpt><trkpt lat="44.17888" lon="11.9566767"><ele>56.8</ele><time>2026-05-02T03:41:06.443Z</time></trkpt><trkpt lat="44.1789733" lon="11.9566817"><ele>56.6</ele><time>2026-05-02T03:41:08.44Z</time></trkpt><trkpt lat="44.1790717" lon="11.956685"><ele>56.39999999999999</ele><time>2026-05-02T03:41:10.439Z</time></trkpt><trkpt lat="44.1791733" lon="11.9566883"><ele>56.199999999999996</ele><time>2026-05-02T03:41:12.443Z</time></trkpt><trkpt lat="44.17927" lon="11.9566917"><ele>56.0</ele><time>2026-05-02T03:41:14.443Z</time></trkpt><trkpt lat="44.179365" lon="11.9566917"><ele>56.0</ele><time>2026-05-02T03:41:16.442Z</time></trkpt><trkpt lat="44.17946" lon="11.9566917"><ele>55.99999999999999</ele><time>2026-05-02T03:41:18.44Z</time></trkpt><trkpt lat="44.1795533" lon="11.9566967"><ele>55.99999999999999</ele><time>2026-05-02T03:41:20.441Z</time></trkpt><trkpt lat="44.17965" lon="11.95671"><ele>56.0</ele><time>2026-05-02T03:41:22.44Z</time></trkpt><trkpt lat="44.17974" lon="11.9567317"><ele>56.0</ele><time>2026-05-02T03:41:24.439Z</time></trkpt><trkpt lat="44.1798267" lon="11.956765"><ele>56.00000000000001</ele><time>2026-05-02T03:41:26.443Z</time></trkpt><trkpt lat="44.17991" lon="11.9568117"><ele>56.0</ele><time>2026-05-02T03:41:28.442Z</time></trkpt><trkpt lat="44.1799767" lon="11.9568783"><ele>56.0</ele><time>2026-05-02T03:41:30.44Z</time></trkpt><trkpt lat="44.1800283" lon="11.95697"><ele>56.0</ele><time>2026-05-02T03:41:32.44Z</time></trkpt><trkpt lat="44.1800683" lon="11.9570633"><ele>56.00000000000001</ele><time>2026-05-02T03:41:34.44Z</time></trkpt><trkpt lat="44.180105" lon="11.9571683"><ele>56.0</ele><time>2026-05-02T03:41:36.44Z</time></trkpt><trkpt lat="44.1801467" lon="11.957285"><ele>56.00000000000001</ele><time>2026-05-02T03:41:38.443Z</time></trkpt><trkpt lat="44.1801817" lon="11.957395"><ele>56.0</ele><time>2026-05-02T03:41:40.441Z</time></trkpt><trkpt lat="44.1802183" lon="11.95751"><ele>56.0</ele><time>2026-05-02T03:41:42.441Z</time></trkpt><trkpt lat="44.1802567" lon="11.957625"><ele>56.0</ele><time>2026-05-02T03:41:44.44Z</time></trkpt><trkpt lat="44.180295" lon="11.9577267"><ele>56.00000000000001</ele><time>2026-05-02T03:41:46.441Z</time></trkpt><trkpt lat="44.1803467" lon="11.95784"><ele>56.0</ele><time>2026-05-02T03:41:48.441Z</time></trkpt><trkpt lat="44.1803967" lon="11.9579533"><ele>56.00000000000001</ele><time>2026-05-02T03:41:50.441Z</time></trkpt><trkpt lat="44.1804467" lon="11.9580517"><ele>56.0</ele><time>2026-05-02T03:41:52.44Z</time></trkpt><trkpt lat="44.1804783" lon="11.9581467"><ele>56.0</ele><time>2026-05-02T03:41:54.44Z</time></trkpt><trkpt lat="44.1804883" lon="11.95825"><ele>56.0</ele><time>2026-05-02T03:41:56.442Z</time></trkpt><trkpt lat="44.1804883" lon="11.9583567"><ele>56.00000000000001</ele><time>2026-05-02T03:41:58.442Z</time></trkpt><trkpt lat="44.1804767" lon="11.9584583"><ele>56.0</ele><time>2026-05-02T03:42:00.439Z</time></trkpt><trkpt lat="44.180445" lon="11.9585567"><ele>56.00000000000001</ele><time>2026-05-02T03:42:02.439Z</time></trkpt><trkpt lat="44.180395" lon="11.95864"><ele>56.0</ele><time>2026-05-02T03:42:04.439Z</time></trkpt><trkpt lat="44.180335" lon="11.9587067"><ele>56.0</ele><time>2026-05-02T03:42:06.439Z</time></trkpt><trkpt lat="44.1802733" lon="11.958755"><ele>56.0</ele><time>2026-05-02T03:42:08.439Z</time></trkpt><trkpt lat="44.18021" lon="11.958795"><ele>56.00000000000001</ele><time>2026-05-02T03:42:10.44Z</time></trkpt><trkpt lat="44.18014" lon="11.9588333"><ele>56.0</ele><time>2026-05-02T03:42:12.44Z</time></trkpt><trkpt lat="44.18006" lon="11.9588833"><ele>56.00000000000001</ele><time>2026-05-02T03:42:14.44Z</time></trkpt><trkpt lat="44.179985" lon="11.958935"><ele>56.0</ele><time>2026-05-02T03:42:16.443Z</time></trkpt><trkpt lat="44.179905" lon="11.9589633"><ele>56.0</ele><time>2026-05-02T03:42:18.44Z</time></trkpt><trkpt lat="44.1798233" lon="11.9589883"><ele>56.0</ele><time>2026-05-02T03:42:20.443Z</time></trkpt><trkpt lat="44.1797633" lon="11.959025"><ele>56.00000000000001</ele><time>2026-05-02T03:42:23.443Z</time></trkpt><trkpt lat="44.17969" lon="11.9590533"><ele>56.0</ele><time>2026-05-02T03:42:31.443Z</time></trkpt><trkpt lat="44.1797383" lon="11.9591133"><ele>55.857142857142854</ele><time>2026-05-02T03:43:04.443Z</time></trkpt><trkpt lat="44.1797167" lon="11.9592083"><ele>55.714285714285715</ele><time>2026-05-02T03:43:09.443Z</time></trkpt><trkpt lat="44.1796783" lon="11.9592817"><ele>55.57142857142857</ele><time>2026-05-02T03:43:11.442Z</time></trkpt><trkpt lat="44.17962" lon="11.9593733"><ele>55.42857142857143</ele><time>2026-05-02T03:43:14.442Z</time></trkpt><trkpt lat="44.1795833" lon="11.9594583"><ele>55.285714285714285</ele><time>2026-05-02T03:43:17.442Z</time></trkpt><trkpt lat="44.17953" lon="11.9595183"><ele>55.14285714285714</ele><time>2026-05-02T03:43:24.441Z</time></trkpt><trkpt lat="44.1794783" lon="11.959575"><ele>55.0</ele><time>2026-05-02T03:43:30.441Z</time></trkpt><trkpt lat="44.1794217" lon="11.9596217"><ele>54.99999999999999</ele><time>2026-05-02T03:43:40.443Z</time></trkpt><trkpt lat="44.17936" lon="11.9596467"><ele>55.0</ele><time>2026-05-02T03:43:43.443Z</time></trkpt><trkpt lat="44.17928" lon="11.959645"><ele>55.0</ele><time>2026-05-02T03:43:46.439Z</time></trkpt><trkpt lat="44.1791917" lon="11.9596383"><ele>55.0</ele><time>2026-05-02T03:43:49.443Z</time></trkpt><trkpt lat="44.1791083" lon="11.9596367"><ele>54.99999999999999</ele><time>2026-05-02T03:43:52.439Z</time></trkpt><trkpt lat="44.17904" lon="11.9596533"><ele>55.0</ele><time>2026-05-02T03:43:55.443Z</time></trkpt><trkpt lat="44.1789833" lon="11.9597117"><ele>54.83333333333333</ele><time>2026-05-02T03:44:11.443Z</time></trkpt><trkpt lat="44.1789417" lon="11.9597933"><ele>54.666666666666664</ele><time>2026-05-02T03:44:29.44Z</time></trkpt><trkpt lat="44.1788983" lon="11.9598817"><ele>54.5</ele><time>2026-05-02T03:44:34.443Z</time></trkpt><trkpt lat="44.1788917" lon="11.9599767"><ele>54.33333333333333</ele><time>2026-05-02T03:44:38.442Z</time></trkpt><trkpt lat="44.1789617" lon="11.9600217"><ele>54.166666666666664</ele><time>2026-05-02T03:44:42.44Z</time></trkpt><trkpt lat="44.179045" lon="11.9600483"><ele>54.0</ele><time>2026-05-02T03:44:46.439Z</time></trkpt><trkpt lat="44.1791117" lon="11.96008"><ele>54.0</ele><time>2026-05-02T03:44:55.439Z</time></trkpt><trkpt lat="44.1791883" lon="11.9600817"><ele>54.0</ele><time>2026-05-02T03:45:06.442Z</time></trkpt><trkpt lat="44.1792583" lon="11.9601017"><ele>54.0</ele><time>2026-05-02T03:45:10.442Z</time></trkpt><trkpt lat="44.1793367" lon="11.960125"><ele>54.0</ele><time>2026-05-02T03:45:14.442Z</time></trkpt><trkpt lat="44.1794" lon="11.960155"><ele>54.0</ele><time>2026-05-02T03:45:18.44Z</time></trkpt><trkpt lat="44.1794833" lon="11.9601867"><ele>54.0</ele><time>2026-05-02T03:45:22.44Z</time></trkpt><trkpt lat="44.17955" lon="11.9602"><ele>54.0</ele><time>2026-05-02T03:45:25.439Z</time></trkpt><trkpt lat="44.1796283" lon="11.9602233"><ele>54.0</ele><time>2026-05-02T03:45:28.439Z</time></trkpt><trkpt lat="44.17971" lon="11.9602333"><ele>54.0</ele><time>2026-05-02T03:45:31.443Z</time></trkpt><trkpt lat="44.1798" lon="11.9602367"><ele>54.0</ele><time>2026-05-02T03:45:34.443Z</time></trkpt><trkpt lat="44.1798883" lon="11.9602217"><ele>54.0</ele><time>2026-05-02T03:45:37.442Z</time></trkpt><trkpt lat="44.1799783" lon="11.96022"><ele>54.0</ele><time>2026-05-02T03:45:40.443Z</time></trkpt><trkpt lat="44.18007" lon="11.96021"><ele>54.0</ele><time>2026-05-02T03:45:43.44Z</time></trkpt><trkpt lat="44.18016" lon="11.96019"><ele>54.333333333333336</ele><time>2026-05-02T03:45:46.44Z</time></trkpt><trkpt lat="44.1802533" lon="11.96017"><ele>54.66666666666667</ele><time>2026-05-02T03:45:49.44Z</time></trkpt><trkpt lat="44.1803183" lon="11.960175"><ele>55.0</ele><time>2026-05-02T03:45:51.44Z</time></trkpt><trkpt lat="44.1803817" lon="11.9601883"><ele>55.333333333333336</ele><time>2026-05-02T03:45:53.439Z</time></trkpt><trkpt lat="44.1804667" lon="11.96023"><ele>55.66666666666667</ele><time>2026-05-02T03:45:56.443Z</time></trkpt><trkpt lat="44.1805433" lon="11.9602683"><ele>56.0</ele><time>2026-05-02T03:45:59.439Z</time></trkpt><trkpt lat="44.1806217" lon="11.960255"><ele>56.00000000000001</ele><time>2026-05-02T03:46:02.441Z</time></trkpt><trkpt lat="44.18069" lon="11.9601667"><ele>56.0</ele><time>2026-05-02T03:46:05.443Z</time></trkpt><trkpt lat="44.180755" lon="11.960075"><ele>56.0</ele><time>2026-05-02T03:46:08.442Z</time></trkpt><trkpt lat="44.18081" lon="11.96002"><ele>56.0</ele><time>2026-05-02T03:46:10.443Z</time></trkpt><trkpt lat="44.1808683" lon="11.9599733"><ele>56.00000000000001</ele><time>2026-05-02T03:46:12.439Z</time></trkpt><trkpt lat="44.1809233" lon="11.9599167"><ele>56.0</ele><time>2026-05-02T03:46:14.44Z</time></trkpt><trkpt lat="44.180975" lon="11.959865"><ele>56.285714285714285</ele><time>2026-05-02T03:46:16.44Z</time></trkpt><trkpt lat="44.1810283" lon="11.959805"><ele>56.57142857142857</ele><time>2026-05-02T03:46:18.44Z</time></trkpt><trkpt lat="44.1810733" lon="11.9597317"><ele>56.85714285714286</ele><time>2026-05-02T03:46:20.441Z</time></trkpt><trkpt lat="44.1811167" lon="11.9596667"><ele>57.142857142857146</ele><time>2026-05-02T03:46:22.44Z</time></trkpt><trkpt lat="44.181185" lon="11.9595833"><ele>57.42857142857143</ele><time>2026-05-02T03:46:25.44Z</time></trkpt><trkpt lat="44.18123" lon="11.9595217"><ele>57.71428571428572</ele><time>2026-05-02T03:46:27.441Z</time></trkpt><trkpt lat="44.1812967" lon="11.9594817"><ele>58.00000000000001</ele><time>2026-05-02T03:46:30.441Z</time></trkpt><trkpt lat="44.1813833" lon="11.959475"><ele>57.99999999999999</ele><time>2026-05-02T03:46:33.442Z</time></trkpt><trkpt lat="44.1814717" lon="11.959485"><ele>58.0</ele><time>2026-05-02T03:46:36.44Z</time></trkpt><trkpt lat="44.1815333" lon="11.959505"><ele>58.0</ele><time>2026-05-02T03:46:38.443Z</time></trkpt><trkpt lat="44.1816167" lon="11.9595617"><ele>58.0</ele><time>2026-05-02T03:46:41.439Z</time></trkpt><trkpt lat="44.1816767" lon="11.9595983"><ele>57.99999999999999</ele><time>2026-05-02T03:46:43.443Z</time></trkpt><trkpt lat="44.181765" lon="11.95965"><ele>58.0</ele><time>2026-05-02T03:46:46.443Z</time></trkpt><trkpt lat="44.1818383" lon="11.95969"><ele>58.599999999999994</ele><time>2026-05-02T03:46:48.439Z</time></trkpt><trkpt lat="44.1819167" lon="11.9597433"><ele>59.199999999999996</ele><time>2026-05-02T03:46:50.44Z</time></trkpt><trkpt lat="44.1820067" lon="11.9598033"><ele>59.8</ele><time>2026-05-02T03:46:52.44Z</time></trkpt><trkpt lat="44.1821067" lon="11.9598767"><ele>60.4</ele><time>2026-05-02T03:46:54.44Z</time></trkpt><trkpt lat="44.182165" lon="11.95991"><ele>61.0</ele><time>2026-05-02T03:46:55.44Z</time></trkpt><trkpt lat="44.1822717" lon="11.9599617"><ele>60.4</ele><time>2026-05-02T03:46:57.443Z</time></trkpt><trkpt lat="44.182385" lon="11.9599533"><ele>59.8</ele><time>2026-05-02T03:46:59.442Z</time></trkpt><trkpt lat="44.18247" lon="11.95988"><ele>59.199999999999996</ele><time>2026-05-02T03:47:01.44Z</time></trkpt><trkpt lat="44.1825467" lon="11.959785"><ele>58.599999999999994</ele><time>2026-05-02T03:47:03.443Z</time></trkpt><trkpt lat="44.182615" lon="11.9596933"><ele>58.0</ele><time>2026-05-02T03:47:05.441Z</time></trkpt><trkpt lat="44.1826817" lon="11.9595967"><ele>57.99999999999999</ele><time>2026-05-02T03:47:07.443Z</time></trkpt><trkpt lat="44.1827517" lon="11.9595033"><ele>58.0</ele><time>2026-05-02T03:47:09.443Z</time></trkpt><trkpt lat="44.1828133" lon="11.9594183"><ele>58.0</ele><time>2026-05-02T03:47:11.442Z</time></trkpt><trkpt lat="44.182875" lon="11.9593367"><ele>58.0</ele><time>2026-05-02T03:47:13.44Z</time></trkpt><trkpt lat="44.1829283" lon="11.9592517"><ele>57.99999999999999</ele><time>2026-05-02T03:47:15.441Z</time></trkpt><trkpt lat="44.182985" lon="11.95917"><ele>58.0</ele><time>2026-05-02T03:47:17.442Z</time></trkpt><trkpt lat="44.1830367" lon="11.9590883"><ele>58.33333333333333</ele><time>2026-05-02T03:47:19.439Z</time></trkpt><trkpt lat="44.18308" lon="11.9590033"><ele>58.666666666666664</ele><time>2026-05-02T03:47:21.439Z</time></trkpt><trkpt lat="44.18314" lon="11.95893"><ele>59.0</ele><time>2026-05-02T03:47:23.439Z</time></trkpt><trkpt lat="44.183195" lon="11.958855"><ele>59.33333333333333</ele><time>2026-05-02T03:47:25.442Z</time></trkpt><trkpt lat="44.1832533" lon="11.9587767"><ele>59.666666666666664</ele><time>2026-05-02T03:47:27.442Z</time></trkpt><trkpt lat="44.1833067" lon="11.958695"><ele>60.0</ele><time>2026-05-02T03:47:29.442Z</time></trkpt><trkpt lat="44.1833583" lon="11.9586117"><ele>60.166666666666664</ele><time>2026-05-02T03:47:31.443Z</time></trkpt><trkpt lat="44.1834183" lon="11.9585217"><ele>60.33333333333333</ele><time>2026-05-02T03:47:33.443Z</time></trkpt><trkpt lat="44.1834817" lon="11.958445"><ele>60.5</ele><time>2026-05-02T03:47:35.442Z</time></trkpt><trkpt lat="44.1835383" lon="11.95837"><ele>60.666666666666664</ele><time>2026-05-02T03:47:37.442Z</time></trkpt><trkpt lat="44.1835967" lon="11.95829"><ele>60.83333333333333</ele><time>2026-05-02T03:47:39.442Z</time></trkpt><trkpt lat="44.1836583" lon="11.9582133"><ele>61.0</ele><time>2026-05-02T03:47:41.439Z</time></trkpt><trkpt lat="44.18372" lon="11.9581333"><ele>61.33333333333333</ele><time>2026-05-02T03:47:43.44Z</time></trkpt><trkpt lat="44.1837733" lon="11.958055"><ele>61.666666666666664</ele><time>2026-05-02T03:47:45.443Z</time></trkpt><trkpt lat="44.18385" lon="11.9579983"><ele>62.0</ele><time>2026-05-02T03:47:48.441Z</time></trkpt><trkpt lat="44.1839317" lon="11.957995"><ele>62.33333333333333</ele><time>2026-05-02T03:47:51.44Z</time></trkpt><trkpt lat="44.1840183" lon="11.958045"><ele>62.666666666666664</ele><time>2026-05-02T03:47:54.44Z</time></trkpt><trkpt lat="44.1840783" lon="11.9580833"><ele>63.0</ele><time>2026-05-02T03:47:56.44Z</time></trkpt><trkpt lat="44.1841367" lon="11.95813"><ele>63.5</ele><time>2026-05-02T03:47:58.44Z</time></trkpt><trkpt lat="44.184195" lon="11.958175"><ele>64.0</ele><time>2026-05-02T03:48:00.44Z</time></trkpt><trkpt lat="44.184255" lon="11.9582167"><ele>64.5</ele><time>2026-05-02T03:48:02.442Z</time></trkpt><trkpt lat="44.184335" lon="11.9582767"><ele>65.0</ele><time>2026-05-02T03:48:05.44Z</time></trkpt><trkpt lat="44.184415" lon="11.95833"><ele>65.5</ele><time>2026-05-02T03:48:08.441Z</time></trkpt><trkpt lat="44.1844767" lon="11.9583883"><ele>66.0</ele><time>2026-05-02T03:48:11.44Z</time></trkpt><trkpt lat="44.1844483" lon="11.9585017"><ele>66.0</ele><time>2026-05-02T03:48:14.442Z</time></trkpt><trkpt lat="44.1844067" lon="11.9586183"><ele>66.0</ele><time>2026-05-02T03:48:17.443Z</time></trkpt><trkpt lat="44.184355" lon="11.9587233"><ele>66.0</ele><time>2026-05-02T03:48:20.441Z</time></trkpt><trkpt lat="44.1843033" lon="11.958805"><ele>66.0</ele><time>2026-05-02T03:48:23.44Z</time></trkpt><trkpt lat="44.184265" lon="11.95888"><ele>66.0</ele><time>2026-05-02T03:48:26.441Z</time></trkpt><trkpt lat="44.184255" lon="11.9589767"><ele>66.0</ele><time>2026-05-02T03:48:30.441Z</time></trkpt><trkpt lat="44.1843083" lon="11.9590267"><ele>66.0</ele><time>2026-05-02T03:48:33.44Z</time></trkpt><trkpt lat="44.1843717" lon="11.9590733"><ele>66.0</ele><time>2026-05-02T03:48:35.439Z</time></trkpt><trkpt lat="44.1844283" lon="11.9591217"><ele>66.0</ele><time>2026-05-02T03:48:37.439Z</time></trkpt><trkpt lat="44.1844883" lon="11.9591717"><ele>66.0</ele><time>2026-05-02T03:48:39.44Z</time></trkpt><trkpt lat="44.1845417" lon="11.9592233"><ele>66.0</ele><time>2026-05-02T03:48:41.438Z</time></trkpt><trkpt lat="44.1846083" lon="11.9592783"><ele>66.0</ele><time>2026-05-02T03:48:43.439Z</time></trkpt><trkpt lat="44.184675" lon="11.959335"><ele>66.0</ele><time>2026-05-02T03:48:45.44Z</time></trkpt><trkpt lat="44.18475" lon="11.9593867"><ele>65.5</ele><time>2026-05-02T03:48:47.439Z</time></trkpt><trkpt lat="44.18482" lon="11.959445"><ele>65.0</ele><time>2026-05-02T03:48:49.439Z</time></trkpt><trkpt lat="44.1848833" lon="11.9595"><ele>64.5</ele><time>2026-05-02T03:48:51.44Z</time></trkpt><trkpt lat="44.1849683" lon="11.9595233"><ele>64.0</ele><time>2026-05-02T03:48:54.439Z</time></trkpt><trkpt lat="44.1850333" lon="11.9595417"><ele>63.5</ele><time>2026-05-02T03:49:02.443Z</time></trkpt><trkpt lat="44.1850067" lon="11.9596517"><ele>63.0</ele><time>2026-05-02T03:59:23.439Z</time></trkpt><trkpt lat="44.184975" lon="11.9597633"><ele>63.0</ele><time>2026-05-02T03:59:26.443Z</time></trkpt><trkpt lat="44.1849467" lon="11.95986"><ele>63.0</ele><time>2026-05-02T03:59:29.442Z</time></trkpt><trkpt lat="44.1849217" lon="11.9599583"><ele>63.0</ele><time>2026-05-02T03:59:32.441Z</time></trkpt><trkpt lat="44.1849017" lon="11.9600533"><ele>63.0</ele><time>2026-05-02T03:59:35.44Z</time></trkpt><trkpt lat="44.1848533" lon="11.9601383"><ele>63.0</ele><time>2026-05-02T03:59:39.44Z</time></trkpt><trkpt lat="44.1848617" lon="11.96023"><ele>63.0</ele><time>2026-05-02T03:59:43.44Z</time></trkpt><trkpt lat="44.184905" lon="11.960305"><ele>63.0</ele><time>2026-05-02T03:59:45.444Z</time></trkpt><trkpt lat="44.1849633" lon="11.960385"><ele>62.42857142857143</ele><time>2026-05-02T03:59:47.44Z</time></trkpt><trkpt lat="44.1850283" lon="11.9604633"><ele>61.85714285714286</ele><time>2026-05-02T03:59:49.442Z</time></trkpt><trkpt lat="44.1850883" lon="11.9605267"><ele>61.285714285714285</ele><time>2026-05-02T03:59:51.439Z</time></trkpt><trkpt lat="44.1851433" lon="11.9605917"><ele>60.714285714285715</ele><time>2026-05-02T03:59:53.443Z</time></trkpt><trkpt lat="44.1851967" lon="11.960655"><ele>60.142857142857146</ele><time>2026-05-02T03:59:55.443Z</time></trkpt><trkpt lat="44.185255" lon="11.960725"><ele>59.57142857142857</ele><time>2026-05-02T03:59:57.443Z</time></trkpt><trkpt lat="44.185305" lon="11.9607917"><ele>59.0</ele><time>2026-05-02T03:59:59.44Z</time></trkpt><trkpt lat="44.185365" lon="11.9608483"><ele>58.833333333333336</ele><time>2026-05-02T04:00:01.439Z</time></trkpt><trkpt lat="44.1854283" lon="11.9609117"><ele>58.66666666666667</ele><time>2026-05-02T04:00:03.44Z</time></trkpt><trkpt lat="44.1854917" lon="11.9609683"><ele>58.5</ele><time>2026-05-02T04:00:05.439Z</time></trkpt><trkpt lat="44.18556" lon="11.9610383"><ele>58.33333333333333</ele><time>2026-05-02T04:00:07.439Z</time></trkpt><trkpt lat="44.1856383" lon="11.96111"><ele>58.166666666666664</ele><time>2026-05-02T04:00:09.441Z</time></trkpt><trkpt lat="44.1857117" lon="11.9611833"><ele>58.0</ele><time>2026-05-02T04:00:11.439Z</time></trkpt><trkpt lat="44.18578" lon="11.961245"><ele>57.99999999999999</ele><time>2026-05-02T04:00:13.439Z</time></trkpt><trkpt lat="44.185845" lon="11.961295"><ele>58.0</ele><time>2026-05-02T04:00:15.443Z</time></trkpt><trkpt lat="44.1859067" lon="11.9612733"><ele>58.0</ele><time>2026-05-02T04:00:17.439Z</time></trkpt><trkpt lat="44.1859517" lon="11.9611733"><ele>58.0</ele><time>2026-05-02T04:00:19.439Z</time></trkpt><trkpt lat="44.1859917" lon="11.9610517"><ele>57.99999999999999</ele><time>2026-05-02T04:00:21.438Z</time></trkpt><trkpt lat="44.1860383" lon="11.960925"><ele>58.0</ele><time>2026-05-02T04:00:23.439Z</time></trkpt><trkpt lat="44.1860883" lon="11.9608017"><ele>58.83333333333333</ele><time>2026-05-02T04:00:25.442Z</time></trkpt><trkpt lat="44.1861317" lon="11.9606833"><ele>59.666666666666664</ele><time>2026-05-02T04:00:27.441Z</time></trkpt><trkpt lat="44.1861733" lon="11.9605867"><ele>60.5</ele><time>2026-05-02T04:00:29.439Z</time></trkpt><trkpt lat="44.1862067" lon="11.9605067"><ele>61.33333333333333</ele><time>2026-05-02T04:00:31.442Z</time></trkpt><trkpt lat="44.1862517" lon="11.9603967"><ele>62.166666666666664</ele><time>2026-05-02T04:00:34.439Z</time></trkpt><trkpt lat="44.1863067" lon="11.9602917"><ele>63.0</ele><time>2026-05-02T04:00:37.44Z</time></trkpt><trkpt lat="44.1863533" lon="11.960225"><ele>63.0</ele><time>2026-05-02T04:00:41.44Z</time></trkpt><trkpt lat="44.186315" lon="11.9603133"><ele>63.0</ele><time>2026-05-02T04:00:45.443Z</time></trkpt><trkpt lat="44.1862683" lon="11.9603917"><ele>63.0</ele><time>2026-05-02T04:00:47.44Z</time></trkpt><trkpt lat="44.1863433" lon="11.9603233"><ele>63.0</ele><time>2026-05-02T04:00:56.439Z</time></trkpt><trkpt lat="44.186405" lon="11.960265"><ele>63.0</ele><time>2026-05-02T04:00:59.44Z</time></trkpt><trkpt lat="44.1864733" lon="11.9602517"><ele>63.0</ele><time>2026-05-02T04:01:03.44Z</time></trkpt><trkpt lat="44.1865717" lon="11.9602717"><ele>62.599999999999994</ele><time>2026-05-02T04:01:05.439Z</time></trkpt><trkpt lat="44.1866317" lon="11.9603533"><ele>62.199999999999996</ele><time>2026-05-02T04:01:07.44Z</time></trkpt><trkpt lat="44.1867083" lon="11.960415"><ele>61.8</ele><time>2026-05-02T04:01:09.441Z</time></trkpt><trkpt lat="44.186795" lon="11.96048"><ele>61.4</ele><time>2026-05-02T04:01:11.44Z</time></trkpt><trkpt lat="44.1868817" lon="11.960555"><ele>61.0</ele><time>2026-05-02T04:01:13.442Z</time></trkpt><trkpt lat="44.18698" lon="11.96064"><ele>60.99999999999999</ele><time>2026-05-02T04:01:15.442Z</time></trkpt><trkpt lat="44.1870283" lon="11.9607233"><ele>61.0</ele><time>2026-05-02T04:01:17.44Z</time></trkpt><trkpt lat="44.1870067" lon="11.9608183"><ele>61.0</ele><time>2026-05-02T04:01:19.438Z</time></trkpt><trkpt lat="44.1869617" lon="11.9609267"><ele>61.0</ele><time>2026-05-02T04:01:21.439Z</time></trkpt><trkpt lat="44.1869317" lon="11.9610233"><ele>60.99999999999999</ele><time>2026-05-02T04:01:23.44Z</time></trkpt><trkpt lat="44.186905" lon="11.9611233"><ele>61.0</ele><time>2026-05-02T04:01:25.44Z</time></trkpt><trkpt lat="44.1868833" lon="11.9612267"><ele>60.666666666666664</ele><time>2026-05-02T04:01:27.443Z</time></trkpt><trkpt lat="44.1868583" lon="11.9613233"><ele>60.33333333333333</ele><time>2026-05-02T04:01:29.439Z</time></trkpt><trkpt lat="44.1868333" lon="11.96143"><ele>60.0</ele><time>2026-05-02T04:01:31.44Z</time></trkpt><trkpt lat="44.1868133" lon="11.96154"><ele>59.66666666666667</ele><time>2026-05-02T04:01:33.44Z</time></trkpt><trkpt lat="44.1867933" lon="11.9616517"><ele>59.333333333333336</ele><time>2026-05-02T04:01:35.44Z</time></trkpt><trkpt lat="44.1867717" lon="11.9617617"><ele>59.0</ele><time>2026-05-02T04:01:37.44Z</time></trkpt><trkpt lat="44.18674" lon="11.9618633"><ele>58.6</ele><time>2026-05-02T04:01:39.44Z</time></trkpt><trkpt lat="44.186715" lon="11.96197"><ele>58.2</ele><time>2026-05-02T04:01:41.441Z</time></trkpt><trkpt lat="44.186685" lon="11.9620867"><ele>57.800000000000004</ele><time>2026-05-02T04:01:43.442Z</time></trkpt><trkpt lat="44.1866483" lon="11.9622133"><ele>57.400000000000006</ele><time>2026-05-02T04:01:45.44Z</time></trkpt><trkpt lat="44.1866167" lon="11.9623333"><ele>57.0</ele><time>2026-05-02T04:01:47.44Z</time></trkpt><trkpt lat="44.18658" lon="11.96245"><ele>56.400000000000006</ele><time>2026-05-02T04:01:49.443Z</time></trkpt><trkpt lat="44.1865533" lon="11.9625767"><ele>55.800000000000004</ele><time>2026-05-02T04:01:51.443Z</time></trkpt><trkpt lat="44.1865217" lon="11.96272"><ele>55.2</ele><time>2026-05-02T04:01:53.442Z</time></trkpt><trkpt lat="44.1864933" lon="11.9628483"><ele>54.6</ele><time>2026-05-02T04:01:55.438Z</time></trkpt><trkpt lat="44.1864533" lon="11.962985"><ele>54.0</ele><time>2026-05-02T04:01:57.443Z</time></trkpt><trkpt lat="44.1864233" lon="11.963125"><ele>53.400000000000006</ele><time>2026-05-02T04:01:59.44Z</time></trkpt><trkpt lat="44.18642" lon="11.9632733"><ele>52.800000000000004</ele><time>2026-05-02T04:02:01.439Z</time></trkpt><trkpt lat="44.1864833" lon="11.9633867"><ele>52.2</ele><time>2026-05-02T04:02:03.439Z</time></trkpt><trkpt lat="44.1865767" lon="11.96347"><ele>51.599999999999994</ele><time>2026-05-02T04:02:05.439Z</time></trkpt><trkpt lat="44.1866833" lon="11.9635517"><ele>51.0</ele><time>2026-05-02T04:02:07.44Z</time></trkpt><trkpt lat="44.186785" lon="11.9636383"><ele>50.599999999999994</ele><time>2026-05-02T04:02:09.439Z</time></trkpt><trkpt lat="44.1868333" lon="11.963745"><ele>50.2</ele><time>2026-05-02T04:02:11.439Z</time></trkpt><trkpt lat="44.1868083" lon="11.9638767"><ele>49.8</ele><time>2026-05-02T04:02:13.443Z</time></trkpt><trkpt lat="44.1867333" lon="11.96399"><ele>49.400000000000006</ele><time>2026-05-02T04:02:15.443Z</time></trkpt><trkpt lat="44.18662" lon="11.9640717"><ele>49.0</ele><time>2026-05-02T04:02:17.443Z</time></trkpt><trkpt lat="44.186505" lon="11.964125"><ele>49.0</ele><time>2026-05-02T04:02:19.442Z</time></trkpt><trkpt lat="44.1863933" lon="11.9641733"><ele>49.0</ele><time>2026-05-02T04:02:21.443Z</time></trkpt><trkpt lat="44.1862833" lon="11.9642233"><ele>49.0</ele><time>2026-05-02T04:02:23.442Z</time></trkpt><trkpt lat="44.1861767" lon="11.9642733"><ele>49.0</ele><time>2026-05-02T04:02:25.442Z</time></trkpt><trkpt lat="44.1860733" lon="11.9643167"><ele>49.0</ele><time>2026-05-02T04:02:27.442Z</time></trkpt><trkpt lat="44.1859733" lon="11.96437"><ele>49.0</ele><time>2026-05-02T04:02:29.44Z</time></trkpt><trkpt lat="44.1858717" lon="11.9644217"><ele>49.0</ele><time>2026-05-02T04:02:31.439Z</time></trkpt><trkpt lat="44.18577" lon="11.9644717"><ele>49.0</ele><time>2026-05-02T04:02:33.44Z</time></trkpt><trkpt lat="44.1856717" lon="11.96452"><ele>49.0</ele><time>2026-05-02T04:02:35.44Z</time></trkpt><trkpt lat="44.1855733" lon="11.9645583"><ele>49.6</ele><time>2026-05-02T04:02:37.439Z</time></trkpt><trkpt lat="44.1854733" lon="11.9646033"><ele>50.2</ele><time>2026-05-02T04:02:39.44Z</time></trkpt><trkpt lat="44.1853783" lon="11.9646483"><ele>50.800000000000004</ele><time>2026-05-02T04:02:41.44Z</time></trkpt><trkpt lat="44.1852883" lon="11.964695"><ele>51.400000000000006</ele><time>2026-05-02T04:02:43.442Z</time></trkpt><trkpt lat="44.1852" lon="11.964735"><ele>52.0</ele><time>2026-05-02T04:02:45.439Z</time></trkpt><trkpt lat="44.18511" lon="11.9647767"><ele>51.99999999999999</ele><time>2026-05-02T04:02:47.443Z</time></trkpt><trkpt lat="44.1850233" lon="11.9648183"><ele>52.0</ele><time>2026-05-02T04:02:49.442Z</time></trkpt><trkpt lat="44.1849417" lon="11.9648567"><ele>52.0</ele><time>2026-05-02T04:02:51.44Z</time></trkpt><trkpt lat="44.184865" lon="11.9649"><ele>52.0</ele><time>2026-05-02T04:02:53.441Z</time></trkpt><trkpt lat="44.184795" lon="11.9649483"><ele>51.99999999999999</ele><time>2026-05-02T04:02:55.442Z</time></trkpt><trkpt lat="44.1847317" lon="11.9650017"><ele>52.0</ele><time>2026-05-02T04:02:57.442Z</time></trkpt><trkpt lat="44.1846683" lon="11.96507"><ele>52.166666666666664</ele><time>2026-05-02T04:02:59.438Z</time></trkpt><trkpt lat="44.1846033" lon="11.9651383"><ele>52.33333333333333</ele><time>2026-05-02T04:03:01.44Z</time></trkpt><trkpt lat="44.1845383" lon="11.9652083"><ele>52.5</ele><time>2026-05-02T04:03:03.44Z</time></trkpt><trkpt lat="44.18448" lon="11.9652767"><ele>52.66666666666667</ele><time>2026-05-02T04:03:05.439Z</time></trkpt><trkpt lat="44.18442" lon="11.965345"><ele>52.833333333333336</ele><time>2026-05-02T04:03:07.44Z</time></trkpt><trkpt lat="44.18436" lon="11.965405"><ele>53.0</ele><time>2026-05-02T04:03:09.442Z</time></trkpt><trkpt lat="44.1843" lon="11.96547"><ele>53.00000000000001</ele><time>2026-05-02T04:03:11.44Z</time></trkpt><trkpt lat="44.18425" lon="11.96555"><ele>53.0</ele><time>2026-05-02T04:03:13.442Z</time></trkpt><trkpt lat="44.18419" lon="11.9656267"><ele>53.0</ele><time>2026-05-02T04:03:15.442Z</time></trkpt><trkpt lat="44.18413" lon="11.9656983"><ele>53.0</ele><time>2026-05-02T04:03:17.443Z</time></trkpt><trkpt lat="44.1840733" lon="11.965775"><ele>53.00000000000001</ele><time>2026-05-02T04:03:19.439Z</time></trkpt><trkpt lat="44.1840217" lon="11.965845"><ele>53.0</ele><time>2026-05-02T04:03:21.44Z</time></trkpt><trkpt lat="44.183975" lon="11.9659133"><ele>54.333333333333336</ele><time>2026-05-02T04:03:23.439Z</time></trkpt><trkpt lat="44.18393" lon="11.9659783"><ele>55.66666666666667</ele><time>2026-05-02T04:03:25.44Z</time></trkpt><trkpt lat="44.1838833" lon="11.9660433"><ele>57.0</ele><time>2026-05-02T04:03:27.44Z</time></trkpt><trkpt lat="44.1838133" lon="11.9661283"><ele>58.33333333333333</ele><time>2026-05-02T04:03:30.439Z</time></trkpt><trkpt lat="44.1837483" lon="11.966215"><ele>59.666666666666664</ele><time>2026-05-02T04:03:33.44Z</time></trkpt><trkpt lat="44.1836833" lon="11.9663067"><ele>61.0</ele><time>2026-05-02T04:03:36.439Z</time></trkpt><trkpt lat="44.1836383" lon="11.9663733"><ele>60.99999999999999</ele><time>2026-05-02T04:03:38.44Z</time></trkpt><trkpt lat="44.1835883" lon="11.9664317"><ele>61.0</ele><time>2026-05-02T04:03:40.44Z</time></trkpt><trkpt lat="44.1835233" lon="11.96652"><ele>61.0</ele><time>2026-05-02T04:03:43.44Z</time></trkpt><trkpt lat="44.18347" lon="11.9666067"><ele>61.0</ele><time>2026-05-02T04:03:46.439Z</time></trkpt><trkpt lat="44.18342" lon="11.9666967"><ele>60.99999999999999</ele><time>2026-05-02T04:03:49.44Z</time></trkpt><trkpt lat="44.1833717" lon="11.9667967"><ele>61.0</ele><time>2026-05-02T04:03:52.439Z</time></trkpt><trkpt lat="44.1833217" lon="11.9668933"><ele>61.28571428571428</ele><time>2026-05-02T04:03:55.44Z</time></trkpt><trkpt lat="44.1832683" lon="11.9669817"><ele>61.57142857142857</ele><time>2026-05-02T04:03:58.44Z</time></trkpt><trkpt lat="44.183215" lon="11.96705"><ele>61.857142857142854</ele><time>2026-05-02T04:04:01.438Z</time></trkpt><trkpt lat="44.18315" lon="11.96711"><ele>62.14285714285714</ele><time>2026-05-02T04:04:05.439Z</time></trkpt><trkpt lat="44.1830883" lon="11.9671367"><ele>62.42857142857143</ele><time>2026-05-02T04:04:08.44Z</time></trkpt><trkpt lat="44.183015" lon="11.9671633"><ele>62.714285714285715</ele><time>2026-05-02T04:04:12.443Z</time></trkpt><trkpt lat="44.182945" lon="11.967185"><ele>63.0</ele><time>2026-05-02T04:04:18.442Z</time></trkpt><trkpt lat="44.1829983" lon="11.96724"><ele>63.0</ele><time>2026-05-02T04:04:27.44Z</time></trkpt><trkpt lat="44.1830767" lon="11.9672083"><ele>63.0</ele><time>2026-05-02T04:04:30.44Z</time></trkpt><trkpt lat="44.1831483" lon="11.9671983"><ele>63.0</ele><time>2026-05-02T04:04:34.439Z</time></trkpt><trkpt lat="44.183225" lon="11.9671917"><ele>63.0</ele><time>2026-05-02T04:04:37.439Z</time></trkpt><trkpt lat="44.1832833" lon="11.9672417"><ele>63.0</ele><time>2026-05-02T04:04:39.443Z</time></trkpt><trkpt lat="44.1833283" lon="11.9673067"><ele>63.0</ele><time>2026-05-02T04:04:41.442Z</time></trkpt><trkpt lat="44.18334" lon="11.967395"><ele>63.0</ele><time>2026-05-02T04:04:46.441Z</time></trkpt><trkpt lat="44.1833083" lon="11.9674717"><ele>63.0</ele><time>2026-05-02T04:04:54.44Z</time></trkpt><trkpt lat="44.1833617" lon="11.9675183"><ele>63.0</ele><time>2026-05-02T04:05:03.441Z</time></trkpt><trkpt lat="44.1834267" lon="11.96755"><ele>63.0</ele><time>2026-05-02T04:05:07.442Z</time></trkpt><trkpt lat="44.1834167" lon="11.9676567"><ele>63.0</ele><time>2026-05-02T04:05:11.439Z</time></trkpt><trkpt lat="44.18337" lon="11.9677167"><ele>63.0</ele><time>2026-05-02T04:05:14.442Z</time></trkpt><trkpt lat="44.1832967" lon="11.96775"><ele>63.0</ele><time>2026-05-02T04:05:18.439Z</time></trkpt><trkpt lat="44.18323" lon="11.9677767"><ele>63.0</ele><time>2026-05-02T04:05:21.44Z</time></trkpt><trkpt lat="44.183165" lon="11.9678167"><ele>63.285714285714285</ele><time>2026-05-02T04:05:24.44Z</time></trkpt><trkpt lat="44.1831133" lon="11.9678933"><ele>63.57142857142857</ele><time>2026-05-02T04:05:28.44Z</time></trkpt><trkpt lat="44.1831567" lon="11.9679733"><ele>63.85714285714286</ele><time>2026-05-02T04:05:31.439Z</time></trkpt><trkpt lat="44.18323" lon="11.968055"><ele>64.14285714285714</ele><time>2026-05-02T04:05:34.442Z</time></trkpt><trkpt lat="44.1832817" lon="11.9681167"><ele>64.42857142857143</ele><time>2026-05-02T04:05:36.442Z</time></trkpt><trkpt lat="44.1833367" lon="11.968175"><ele>64.71428571428572</ele><time>2026-05-02T04:05:38.441Z</time></trkpt><trkpt lat="44.1833883" lon="11.9682317"><ele>65.0</ele><time>2026-05-02T04:05:40.442Z</time></trkpt><trkpt lat="44.1834467" lon="11.968285"><ele>65.0</ele><time>2026-05-02T04:05:42.442Z</time></trkpt><trkpt lat="44.1835033" lon="11.9683467"><ele>65.0</ele><time>2026-05-02T04:05:44.441Z</time></trkpt><trkpt lat="44.18356" lon="11.9684167"><ele>65.0</ele><time>2026-05-02T04:05:46.442Z</time></trkpt><trkpt lat="44.18362" lon="11.9684983"><ele>65.0</ele><time>2026-05-02T04:05:48.443Z</time></trkpt><trkpt lat="44.1836883" lon="11.9685767"><ele>65.0</ele><time>2026-05-02T04:05:50.442Z</time></trkpt><trkpt lat="44.1837583" lon="11.9686567"><ele>65.0</ele><time>2026-05-02T04:05:52.438Z</time></trkpt><trkpt lat="44.1838317" lon="11.9687417"><ele>64.8</ele><time>2026-05-02T04:05:54.44Z</time></trkpt><trkpt lat="44.1839033" lon="11.9688333"><ele>64.6</ele><time>2026-05-02T04:05:56.442Z</time></trkpt><trkpt lat="44.1839817" lon="11.968925"><ele>64.4</ele><time>2026-05-02T04:05:58.443Z</time></trkpt><trkpt lat="44.184065" lon="11.9690117"><ele>64.2</ele><time>2026-05-02T04:06:00.441Z</time></trkpt><trkpt lat="44.1841467" lon="11.9690983"><ele>64.0</ele><time>2026-05-02T04:06:02.442Z</time></trkpt><trkpt lat="44.1842267" lon="11.969185"><ele>63.83333333333333</ele><time>2026-05-02T04:06:04.442Z</time></trkpt><trkpt lat="44.1843083" lon="11.96927"><ele>63.666666666666664</ele><time>2026-05-02T04:06:06.442Z</time></trkpt><trkpt lat="44.184375" lon="11.96934"><ele>63.5</ele><time>2026-05-02T04:06:08.442Z</time></trkpt><trkpt lat="44.1844433" lon="11.96942"><ele>63.33333333333333</ele><time>2026-05-02T04:06:10.442Z</time></trkpt><trkpt lat="44.1845067" lon="11.969485"><ele>63.166666666666664</ele><time>2026-05-02T04:06:12.441Z</time></trkpt><trkpt lat="44.18456" lon="11.969545"><ele>63.0</ele><time>2026-05-02T04:06:14.442Z</time></trkpt><trkpt lat="44.1845967" lon="11.9696233"><ele>63.0</ele><time>2026-05-02T04:06:30.44Z</time></trkpt><trkpt lat="44.1846533" lon="11.9696867"><ele>63.0</ele><time>2026-05-02T04:06:33.44Z</time></trkpt><trkpt lat="44.1847367" lon="11.9697817"><ele>63.0</ele><time>2026-05-02T04:06:36.442Z</time></trkpt><trkpt lat="44.184815" lon="11.9698633"><ele>63.0</ele><time>2026-05-02T04:06:38.441Z</time></trkpt><trkpt lat="44.184885" lon="11.9699517"><ele>63.0</ele><time>2026-05-02T04:06:40.438Z</time></trkpt><trkpt lat="44.18496" lon="11.9700367"><ele>62.8</ele><time>2026-05-02T04:06:42.441Z</time></trkpt><trkpt lat="44.1850417" lon="11.9701183"><ele>62.599999999999994</ele><time>2026-05-02T04:06:44.44Z</time></trkpt><trkpt lat="44.1851183" lon="11.9702067"><ele>62.400000000000006</ele><time>2026-05-02T04:06:46.44Z</time></trkpt><trkpt lat="44.185195" lon="11.9702933"><ele>62.2</ele><time>2026-05-02T04:06:48.442Z</time></trkpt><trkpt lat="44.1852783" lon="11.9703867"><ele>62.0</ele><time>2026-05-02T04:06:50.442Z</time></trkpt><trkpt lat="44.185365" lon="11.97048"><ele>62.0</ele><time>2026-05-02T04:06:52.439Z</time></trkpt><trkpt lat="44.1854433" lon="11.9705717"><ele>62.0</ele><time>2026-05-02T04:06:54.438Z</time></trkpt><trkpt lat="44.1855317" lon="11.9706683"><ele>62.0</ele><time>2026-05-02T04:06:56.439Z</time></trkpt><trkpt lat="44.18562" lon="11.97077"><ele>62.0</ele><time>2026-05-02T04:06:58.442Z</time></trkpt><trkpt lat="44.1857083" lon="11.97087"><ele>62.0</ele><time>2026-05-02T04:07:00.439Z</time></trkpt><trkpt lat="44.1857967" lon="11.9709733"><ele>61.5</ele><time>2026-05-02T04:07:02.44Z</time></trkpt><trkpt lat="44.1858883" lon="11.9710767"><ele>61.0</ele><time>2026-05-02T04:07:04.44Z</time></trkpt><trkpt lat="44.18598" lon="11.9711783"><ele>60.5</ele><time>2026-05-02T04:07:06.439Z</time></trkpt><trkpt lat="44.186065" lon="11.97129"><ele>60.0</ele><time>2026-05-02T04:07:08.44Z</time></trkpt><trkpt lat="44.1861483" lon="11.9713917"><ele>60.0</ele><time>2026-05-02T04:07:10.439Z</time></trkpt><trkpt lat="44.18623" lon="11.9714817"><ele>60.0</ele><time>2026-05-02T04:07:12.44Z</time></trkpt><trkpt lat="44.1863117" lon="11.97159"><ele>60.0</ele><time>2026-05-02T04:07:14.44Z</time></trkpt><trkpt lat="44.1864017" lon="11.97169"><ele>60.0</ele><time>2026-05-02T04:07:16.442Z</time></trkpt><trkpt lat="44.1864833" lon="11.971795"><ele>60.0</ele><time>2026-05-02T04:07:18.441Z</time></trkpt><trkpt lat="44.1865833" lon="11.971895"><ele>60.0</ele><time>2026-05-02T04:07:20.441Z</time></trkpt><trkpt lat="44.186635" lon="11.9719483"><ele>60.0</ele><time>2026-05-02T04:07:21.441Z</time></trkpt><trkpt lat="44.1867283" lon="11.9720483"><ele>60.0</ele><time>2026-05-02T04:07:23.439Z</time></trkpt><trkpt lat="44.186825" lon="11.9721533"><ele>60.0</ele><time>2026-05-02T04:07:25.441Z</time></trkpt><trkpt lat="44.1869167" lon="11.9722583"><ele>60.0</ele><time>2026-05-02T04:07:27.442Z</time></trkpt><trkpt lat="44.1870067" lon="11.9723533"><ele>60.0</ele><time>2026-05-02T04:07:29.442Z</time></trkpt><trkpt lat="44.1870933" lon="11.97245"><ele>60.0</ele><time>2026-05-02T04:07:31.438Z</time></trkpt><trkpt lat="44.18719" lon="11.972555"><ele>60.0</ele><time>2026-05-02T04:07:33.442Z</time></trkpt><trkpt lat="44.1872867" lon="11.9726533"><ele>60.0</ele><time>2026-05-02T04:07:35.447Z</time></trkpt><trkpt lat="44.1873383" lon="11.9727067"><ele>60.0</ele><time>2026-05-02T04:07:36.442Z</time></trkpt><trkpt lat="44.18744" lon="11.972815"><ele>60.25</ele><time>2026-05-02T04:07:38.441Z</time></trkpt><trkpt lat="44.187535" lon="11.9729217"><ele>60.5</ele><time>2026-05-02T04:07:40.439Z</time></trkpt><trkpt lat="44.1876317" lon="11.97303"><ele>60.75</ele><time>2026-05-02T04:07:42.441Z</time></trkpt><trkpt lat="44.1877283" lon="11.973135"><ele>61.0</ele><time>2026-05-02T04:07:44.441Z</time></trkpt><trkpt lat="44.18782" lon="11.973235"><ele>61.0</ele><time>2026-05-02T04:07:46.441Z</time></trkpt><trkpt lat="44.1879117" lon="11.9733417"><ele>61.0</ele><time>2026-05-02T04:07:48.442Z</time></trkpt><trkpt lat="44.1880017" lon="11.9734517"><ele>61.0</ele><time>2026-05-02T04:07:50.441Z</time></trkpt><trkpt lat="44.1880883" lon="11.9735583"><ele>61.0</ele><time>2026-05-02T04:07:52.442Z</time></trkpt><trkpt lat="44.188175" lon="11.97366"><ele>61.0</ele><time>2026-05-02T04:07:54.442Z</time></trkpt><trkpt lat="44.1882683" lon="11.9737633"><ele>60.99999999999999</ele><time>2026-05-02T04:07:56.442Z</time></trkpt><trkpt lat="44.1883583" lon="11.9738733"><ele>60.99999999999999</ele><time>2026-05-02T04:07:58.441Z</time></trkpt><trkpt lat="44.1884083" lon="11.9739267"><ele>61.0</ele><time>2026-05-02T04:07:59.439Z</time></trkpt><trkpt lat="44.1885067" lon="11.9740233"><ele>61.0</ele><time>2026-05-02T04:08:01.44Z</time></trkpt><trkpt lat="44.1885967" lon="11.974115"><ele>61.5</ele><time>2026-05-02T04:08:03.442Z</time></trkpt><trkpt lat="44.1886817" lon="11.9742133"><ele>62.0</ele><time>2026-05-02T04:08:05.438Z</time></trkpt><trkpt lat="44.18877" lon="11.9743167"><ele>62.5</ele><time>2026-05-02T04:08:07.439Z</time></trkpt><trkpt lat="44.1888633" lon="11.9744083"><ele>63.0</ele><time>2026-05-02T04:08:09.44Z</time></trkpt><trkpt lat="44.18896" lon="11.9745133"><ele>62.5</ele><time>2026-05-02T04:08:11.439Z</time></trkpt><trkpt lat="44.1890517" lon="11.9746233"><ele>62.0</ele><time>2026-05-02T04:08:13.442Z</time></trkpt><trkpt lat="44.189145" lon="11.97473"><ele>61.5</ele><time>2026-05-02T04:08:15.441Z</time></trkpt><trkpt lat="44.1892467" lon="11.9748233"><ele>61.0</ele><time>2026-05-02T04:08:17.442Z</time></trkpt><trkpt lat="44.189345" lon="11.97492"><ele>61.0</ele><time>2026-05-02T04:08:19.441Z</time></trkpt><trkpt lat="44.18941" lon="11.9750183"><ele>60.99999999999999</ele><time>2026-05-02T04:08:21.443Z</time></trkpt><trkpt lat="44.189395" lon="11.975115"><ele>60.99999999999999</ele><time>2026-05-02T04:08:23.439Z</time></trkpt><trkpt lat="44.18933" lon="11.9752083"><ele>61.0</ele><time>2026-05-02T04:08:25.442Z</time></trkpt><trkpt lat="44.1892633" lon="11.975305"><ele>61.0</ele><time>2026-05-02T04:08:27.442Z</time></trkpt><trkpt lat="44.1891967" lon="11.975405"><ele>60.8</ele><time>2026-05-02T04:08:29.442Z</time></trkpt><trkpt lat="44.1891283" lon="11.97551"><ele>60.599999999999994</ele><time>2026-05-02T04:08:31.442Z</time></trkpt><trkpt lat="44.189065" lon="11.975625"><ele>60.4</ele><time>2026-05-02T04:08:33.443Z</time></trkpt><trkpt lat="44.189005" lon="11.9757367"><ele>60.2</ele><time>2026-05-02T04:08:35.442Z</time></trkpt><trkpt lat="44.1889367" lon="11.9758433"><ele>60.0</ele><time>2026-05-02T04:08:37.441Z</time></trkpt><trkpt lat="44.1888683" lon="11.9759517"><ele>60.0</ele><time>2026-05-02T04:08:39.442Z</time></trkpt><trkpt lat="44.1888033" lon="11.9760633"><ele>60.0</ele><time>2026-05-02T04:08:41.441Z</time></trkpt><trkpt lat="44.1887433" lon="11.9761817"><ele>60.0</ele><time>2026-05-02T04:08:43.441Z</time></trkpt><trkpt lat="44.1886783" lon="11.9762983"><ele>60.0</ele><time>2026-05-02T04:08:45.442Z</time></trkpt><trkpt lat="44.1886133" lon="11.9764067"><ele>60.0</ele><time>2026-05-02T04:08:47.442Z</time></trkpt><trkpt lat="44.1885517" lon="11.9765217"><ele>60.0</ele><time>2026-05-02T04:08:49.442Z</time></trkpt><trkpt lat="44.188495" lon="11.9766283"><ele>60.0</ele><time>2026-05-02T04:08:51.442Z</time></trkpt><trkpt lat="44.1884333" lon="11.9767333"><ele>60.0</ele><time>2026-05-02T04:08:53.442Z</time></trkpt><trkpt lat="44.1883733" lon="11.97684"><ele>60.0</ele><time>2026-05-02T04:08:55.441Z</time></trkpt><trkpt lat="44.1883133" lon="11.97695"><ele>60.0</ele><time>2026-05-02T04:08:57.442Z</time></trkpt><trkpt lat="44.1882533" lon="11.9770567"><ele>60.0</ele><time>2026-05-02T04:08:59.441Z</time></trkpt><trkpt lat="44.1882017" lon="11.9771667"><ele>60.0</ele><time>2026-05-02T04:09:01.441Z</time></trkpt><trkpt lat="44.188145" lon="11.9772567"><ele>60.0</ele><time>2026-05-02T04:09:03.442Z</time></trkpt><trkpt lat="44.1880983" lon="11.9773317"><ele>60.0</ele><time>2026-05-02T04:09:05.441Z</time></trkpt><trkpt lat="44.1880417" lon="11.977425"><ele>60.0</ele><time>2026-05-02T04:09:08.442Z</time></trkpt><trkpt lat="44.1879967" lon="11.9774967"><ele>60.0</ele><time>2026-05-02T04:09:11.44Z</time></trkpt><trkpt lat="44.187965" lon="11.9775733"><ele>60.42857142857143</ele><time>2026-05-02T04:09:15.444Z</time></trkpt><trkpt lat="44.1879217" lon="11.97764"><ele>60.857142857142854</ele><time>2026-05-02T04:09:18.439Z</time></trkpt><trkpt lat="44.1878767" lon="11.9777167"><ele>61.285714285714285</ele><time>2026-05-02T04:09:20.443Z</time></trkpt><trkpt lat="44.1878267" lon="11.977795"><ele>61.714285714285715</ele><time>2026-05-02T04:09:22.443Z</time></trkpt><trkpt lat="44.1877783" lon="11.9778767"><ele>62.14285714285714</ele><time>2026-05-02T04:09:24.443Z</time></trkpt><trkpt lat="44.187725" lon="11.9779617"><ele>62.57142857142857</ele><time>2026-05-02T04:09:26.443Z</time></trkpt><trkpt lat="44.1876767" lon="11.9780433"><ele>63.0</ele><time>2026-05-02T04:09:28.444Z</time></trkpt><trkpt lat="44.1876233" lon="11.9781267"><ele>63.0</ele><time>2026-05-02T04:09:30.443Z</time></trkpt><trkpt lat="44.1875683" lon="11.9782117"><ele>63.0</ele><time>2026-05-02T04:09:32.442Z</time></trkpt><trkpt lat="44.1875183" lon="11.978305"><ele>63.0</ele><time>2026-05-02T04:09:34.443Z</time></trkpt><trkpt lat="44.1874667" lon="11.9783967"><ele>63.0</ele><time>2026-05-02T04:09:36.443Z</time></trkpt><trkpt lat="44.1874167" lon="11.9784867"><ele>63.0</ele><time>2026-05-02T04:09:38.442Z</time></trkpt><trkpt lat="44.187375" lon="11.9785783"><ele>63.0</ele><time>2026-05-02T04:09:40.442Z</time></trkpt><trkpt lat="44.1873167" lon="11.9786617"><ele>63.5</ele><time>2026-05-02T04:09:42.443Z</time></trkpt><trkpt lat="44.1872633" lon="11.9787433"><ele>64.0</ele><time>2026-05-02T04:09:44.443Z</time></trkpt><trkpt lat="44.1872117" lon="11.97883"><ele>64.5</ele><time>2026-05-02T04:09:46.443Z</time></trkpt><trkpt lat="44.1871583" lon="11.9789167"><ele>65.0</ele><time>2026-05-02T04:09:48.44Z</time></trkpt><trkpt lat="44.187105" lon="11.9790083"><ele>65.5</ele><time>2026-05-02T04:09:50.44Z</time></trkpt><trkpt lat="44.1870517" lon="11.9790983"><ele>66.0</ele><time>2026-05-02T04:09:52.44Z</time></trkpt><trkpt lat="44.1870033" lon="11.97919"><ele>66.5</ele><time>2026-05-02T04:09:54.441Z</time></trkpt><trkpt lat="44.1869517" lon="11.9792783"><ele>67.0</ele><time>2026-05-02T04:09:56.443Z</time></trkpt><trkpt lat="44.1869" lon="11.9793633"><ele>67.5</ele><time>2026-05-02T04:09:58.443Z</time></trkpt><trkpt lat="44.18685" lon="11.97945"><ele>68.0</ele><time>2026-05-02T04:10:00.443Z</time></trkpt><trkpt lat="44.1868017" lon="11.979535"><ele>68.5</ele><time>2026-05-02T04:10:02.443Z</time></trkpt><trkpt lat="44.1867567" lon="11.9796133"><ele>69.0</ele><time>2026-05-02T04:10:04.443Z</time></trkpt><trkpt lat="44.1866867" lon="11.9796783"><ele>69.0</ele><time>2026-05-02T04:10:07.443Z</time></trkpt><trkpt lat="44.1866067" lon="11.9796817"><ele>69.0</ele><time>2026-05-02T04:10:10.443Z</time></trkpt><trkpt lat="44.1865233" lon="11.9796533"><ele>69.0</ele><time>2026-05-02T04:10:13.442Z</time></trkpt><trkpt lat="44.1864467" lon="11.9795933"><ele>69.0</ele><time>2026-05-02T04:10:16.442Z</time></trkpt><trkpt lat="44.186375" lon="11.9795217"><ele>69.0</ele><time>2026-05-02T04:10:19.439Z</time></trkpt><trkpt lat="44.1863033" lon="11.9794533"><ele>69.0</ele><time>2026-05-02T04:10:22.442Z</time></trkpt><trkpt lat="44.18623" lon="11.979385"><ele>69.0</ele><time>2026-05-02T04:10:25.444Z</time></trkpt><trkpt lat="44.1861533" lon="11.9793067"><ele>69.0</ele><time>2026-05-02T04:10:28.443Z</time></trkpt><trkpt lat="44.1860817" lon="11.979225"><ele>69.0</ele><time>2026-05-02T04:10:31.442Z</time></trkpt><trkpt lat="44.1860317" lon="11.9791683"><ele>69.0</ele><time>2026-05-02T04:10:33.443Z</time></trkpt><trkpt lat="44.1859817" lon="11.9791133"><ele>69.0</ele><time>2026-05-02T04:10:35.442Z</time></trkpt><trkpt lat="44.1859183" lon="11.9790267"><ele>69.0</ele><time>2026-05-02T04:10:38.443Z</time></trkpt><trkpt lat="44.185845" lon="11.978945"><ele>69.0</ele><time>2026-05-02T04:10:41.442Z</time></trkpt><trkpt lat="44.18577" lon="11.978865"><ele>69.0</ele><time>2026-05-02T04:10:44.443Z</time></trkpt><trkpt lat="44.1856967" lon="11.978785"><ele>69.0</ele><time>2026-05-02T04:10:47.442Z</time></trkpt><trkpt lat="44.1856283" lon="11.9786967"><ele>69.0</ele><time>2026-05-02T04:10:50.44Z</time></trkpt><trkpt lat="44.1855817" lon="11.9786367"><ele>69.0</ele><time>2026-05-02T04:10:52.44Z</time></trkpt><trkpt lat="44.1855333" lon="11.9785767"><ele>69.0</ele><time>2026-05-02T04:10:54.439Z</time></trkpt><trkpt lat="44.185485" lon="11.9785183"><ele>69.57142857142857</ele><time>2026-05-02T04:10:56.443Z</time></trkpt><trkpt lat="44.185435" lon="11.97846"><ele>70.14285714285715</ele><time>2026-05-02T04:10:58.442Z</time></trkpt><trkpt lat="44.1853867" lon="11.9784"><ele>70.71428571428572</ele><time>2026-05-02T04:11:00.443Z</time></trkpt><trkpt lat="44.18532" lon="11.9783283"><ele>71.28571428571429</ele><time>2026-05-02T04:11:03.443Z</time></trkpt><trkpt lat="44.1852417" lon="11.9783217"><ele>71.85714285714286</ele><time>2026-05-02T04:11:06.443Z</time></trkpt><trkpt lat="44.1851517" lon="11.9783417"><ele>72.42857142857143</ele><time>2026-05-02T04:11:09.44Z</time></trkpt><trkpt lat="44.185095" lon="11.97838"><ele>73.0</ele><time>2026-05-02T04:11:11.443Z</time></trkpt><trkpt lat="44.1850117" lon="11.97842"><ele>73.83333333333333</ele><time>2026-05-02T04:11:14.443Z</time></trkpt><trkpt lat="44.1849317" lon="11.9784433"><ele>74.66666666666666</ele><time>2026-05-02T04:11:17.443Z</time></trkpt><trkpt lat="44.1848483" lon="11.9784617"><ele>75.5</ele><time>2026-05-02T04:11:20.439Z</time></trkpt><trkpt lat="44.1847767" lon="11.9784917"><ele>76.33333333333333</ele><time>2026-05-02T04:11:23.44Z</time></trkpt><trkpt lat="44.1847067" lon="11.9785067"><ele>77.16666666666667</ele><time>2026-05-02T04:11:26.442Z</time></trkpt><trkpt lat="44.18464" lon="11.978535"><ele>78.0</ele><time>2026-05-02T04:11:29.44Z</time></trkpt><trkpt lat="44.1845683" lon="11.9785667"><ele>78.66666666666667</ele><time>2026-05-02T04:11:32.443Z</time></trkpt><trkpt lat="44.1844917" lon="11.978585"><ele>79.33333333333333</ele><time>2026-05-02T04:11:35.44Z</time></trkpt><trkpt lat="44.1844083" lon="11.978605"><ele>80.0</ele><time>2026-05-02T04:11:38.443Z</time></trkpt><trkpt lat="44.1843217" lon="11.97864"><ele>80.66666666666666</ele><time>2026-05-02T04:11:41.443Z</time></trkpt><trkpt lat="44.18424" lon="11.9786683"><ele>81.33333333333333</ele><time>2026-05-02T04:11:44.443Z</time></trkpt><trkpt lat="44.1841633" lon="11.978695"><ele>82.0</ele><time>2026-05-02T04:11:47.443Z</time></trkpt><trkpt lat="44.184085" lon="11.978725"><ele>82.71428571428571</ele><time>2026-05-02T04:11:50.44Z</time></trkpt><trkpt lat="44.184005" lon="11.97875"><ele>83.42857142857143</ele><time>2026-05-02T04:11:53.44Z</time></trkpt><trkpt lat="44.1839333" lon="11.9787867"><ele>84.14285714285714</ele><time>2026-05-02T04:11:56.442Z</time></trkpt><trkpt lat="44.1838617" lon="11.9788"><ele>84.85714285714286</ele><time>2026-05-02T04:11:59.443Z</time></trkpt><trkpt lat="44.1837933" lon="11.9788067"><ele>85.57142857142857</ele><time>2026-05-02T04:12:03.443Z</time></trkpt><trkpt lat="44.183725" lon="11.9787883"><ele>86.28571428571428</ele><time>2026-05-02T04:12:08.443Z</time></trkpt><trkpt lat="44.183655" lon="11.9787517"><ele>87.0</ele><time>2026-05-02T04:12:13.443Z</time></trkpt><trkpt lat="44.18359" lon="11.97873"><ele>87.0</ele><time>2026-05-02T04:12:18.44Z</time></trkpt><trkpt lat="44.1835233" lon="11.9787083"><ele>87.0</ele><time>2026-05-02T04:12:23.44Z</time></trkpt><trkpt lat="44.18346" lon="11.9786733"><ele>87.0</ele><time>2026-05-02T04:12:28.443Z</time></trkpt><trkpt lat="44.1834" lon="11.9786417"><ele>87.0</ele><time>2026-05-02T04:12:32.442Z</time></trkpt><trkpt lat="44.18334" lon="11.97861"><ele>87.0</ele><time>2026-05-02T04:12:37.439Z</time></trkpt><trkpt lat="44.18327" lon="11.9785767"><ele>87.0</ele><time>2026-05-02T04:12:42.442Z</time></trkpt><trkpt lat="44.18321" lon="11.978535"><ele>87.0</ele><time>2026-05-02T04:12:47.443Z</time></trkpt><trkpt lat="44.18315" lon="11.9785017"><ele>88.0</ele><time>2026-05-02T04:12:52.441Z</time></trkpt><trkpt lat="44.18309" lon="11.9784683"><ele>89.0</ele><time>2026-05-02T04:12:57.442Z</time></trkpt><trkpt lat="44.1830217" lon="11.9784433"><ele>90.0</ele><time>2026-05-02T04:13:02.439Z</time></trkpt><trkpt lat="44.182965" lon="11.9783917"><ele>91.0</ele><time>2026-05-02T04:13:08.441Z</time></trkpt><trkpt lat="44.182905" lon="11.97836"><ele>92.0</ele><time>2026-05-02T04:13:14.44Z</time></trkpt><trkpt lat="44.1828533" lon="11.9783067"><ele>93.0</ele><time>2026-05-02T04:13:20.442Z</time></trkpt><trkpt lat="44.1827917" lon="11.9782783"><ele>94.0</ele><time>2026-05-02T04:13:24.44Z</time></trkpt><trkpt lat="44.18273" lon="11.9782333"><ele>94.57142857142857</ele><time>2026-05-02T04:13:30.44Z</time></trkpt><trkpt lat="44.18266" lon="11.9782133"><ele>95.14285714285714</ele><time>2026-05-02T04:13:35.441Z</time></trkpt><trkpt lat="44.182595" lon="11.97816"><ele>95.71428571428572</ele><time>2026-05-02T04:13:40.441Z</time></trkpt><trkpt lat="44.1825367" lon="11.9781217"><ele>96.28571428571428</ele><time>2026-05-02T04:13:45.442Z</time></trkpt><trkpt lat="44.1824667" lon="11.9780917"><ele>96.85714285714286</ele><time>2026-05-02T04:13:50.442Z</time></trkpt><trkpt lat="44.1823933" lon="11.9780783"><ele>97.42857142857143</ele><time>2026-05-02T04:13:55.443Z</time></trkpt><trkpt lat="44.1823233" lon="11.97804"><ele>98.0</ele><time>2026-05-02T04:14:01.441Z</time></trkpt><trkpt lat="44.1822583" lon="11.9779967"><ele>98.28571428571429</ele><time>2026-05-02T04:14:06.443Z</time></trkpt><trkpt lat="44.1822083" lon="11.9779333"><ele>98.57142857142857</ele><time>2026-05-02T04:14:11.442Z</time></trkpt><trkpt lat="44.1821483" lon="11.97789"><ele>98.85714285714286</ele><time>2026-05-02T04:14:16.441Z</time></trkpt><trkpt lat="44.1820767" lon="11.97786"><ele>99.14285714285714</ele><time>2026-05-02T04:14:22.441Z</time></trkpt><trkpt lat="44.1820183" lon="11.9778233"><ele>99.42857142857143</ele><time>2026-05-02T04:14:26.443Z</time></trkpt><trkpt lat="44.1819567" lon="11.9777667"><ele>99.71428571428572</ele><time>2026-05-02T04:14:31.441Z</time></trkpt><trkpt lat="44.1818917" lon="11.9777267"><ele>100.0</ele><time>2026-05-02T04:14:36.441Z</time></trkpt><trkpt lat="44.18182" lon="11.9776783"><ele>100.00000000000001</ele><time>2026-05-02T04:14:41.442Z</time></trkpt><trkpt lat="44.1817483" lon="11.9776383"><ele>100.0</ele><time>2026-05-02T04:14:46.441Z</time></trkpt><trkpt lat="44.1816833" lon="11.977605"><ele>100.0</ele><time>2026-05-02T04:14:51.443Z</time></trkpt><trkpt lat="44.1816183" lon="11.9775567"><ele>100.0</ele><time>2026-05-02T04:14:56.441Z</time></trkpt><trkpt lat="44.1815567" lon="11.9775083"><ele>100.0</ele><time>2026-05-02T04:15:01.442Z</time></trkpt><trkpt lat="44.1814883" lon="11.9774683"><ele>100.00000000000001</ele><time>2026-05-02T04:15:06.442Z</time></trkpt><trkpt lat="44.1814233" lon="11.977425"><ele>100.0</ele><time>2026-05-02T04:15:11.442Z</time></trkpt><trkpt lat="44.1813567" lon="11.9773733"><ele>101.57142857142858</ele><time>2026-05-02T04:15:16.442Z</time></trkpt><trkpt lat="44.18129" lon="11.977325"><ele>103.14285714285714</ele><time>2026-05-02T04:15:21.441Z</time></trkpt><trkpt lat="44.1812283" lon="11.977285"><ele>104.71428571428572</ele><time>2026-05-02T04:15:25.439Z</time></trkpt><trkpt lat="44.18117" lon="11.9772467"><ele>106.28571428571429</ele><time>2026-05-02T04:15:29.441Z</time></trkpt><trkpt lat="44.181105" lon="11.9772083"><ele>107.85714285714286</ele><time>2026-05-02T04:15:33.442Z</time></trkpt><trkpt lat="44.18104" lon="11.9771667"><ele>109.42857142857143</ele><time>2026-05-02T04:15:37.441Z</time></trkpt><trkpt lat="44.1809683" lon="11.9771233"><ele>111.0</ele><time>2026-05-02T04:15:41.442Z</time></trkpt><trkpt lat="44.1808917" lon="11.9770783"><ele>111.0</ele><time>2026-05-02T04:15:45.442Z</time></trkpt><trkpt lat="44.180815" lon="11.977035"><ele>111.0</ele><time>2026-05-02T04:15:49.439Z</time></trkpt><trkpt lat="44.1807567" lon="11.977"><ele>111.0</ele><time>2026-05-02T04:15:52.439Z</time></trkpt><trkpt lat="44.1806983" lon="11.9769667"><ele>111.0</ele><time>2026-05-02T04:15:55.44Z</time></trkpt><trkpt lat="44.1806267" lon="11.9769267"><ele>111.0</ele><time>2026-05-02T04:15:59.439Z</time></trkpt><trkpt lat="44.1805633" lon="11.97689"><ele>111.0</ele><time>2026-05-02T04:16:03.442Z</time></trkpt><trkpt lat="44.1804817" lon="11.9768483"><ele>111.0</ele><time>2026-05-02T04:18:16.442Z</time></trkpt><trkpt lat="44.1804183" lon="11.9768133"><ele>111.57142857142857</ele><time>2026-05-02T04:18:20.441Z</time></trkpt><trkpt lat="44.1803517" lon="11.976775"><ele>112.14285714285714</ele><time>2026-05-02T04:18:24.442Z</time></trkpt><trkpt lat="44.1802967" lon="11.9767183"><ele>112.71428571428571</ele><time>2026-05-02T04:18:28.442Z</time></trkpt><trkpt lat="44.1802333" lon="11.9766717"><ele>113.28571428571428</ele><time>2026-05-02T04:18:33.442Z</time></trkpt><trkpt lat="44.180165" lon="11.976635"><ele>113.85714285714286</ele><time>2026-05-02T04:18:38.441Z</time></trkpt><trkpt lat="44.1800917" lon="11.9765967"><ele>114.42857142857142</ele><time>2026-05-02T04:18:43.441Z</time></trkpt><trkpt lat="44.1800183" lon="11.9765667"><ele>114.99999999999999</ele><time>2026-05-02T04:18:48.442Z</time></trkpt><trkpt lat="44.1799467" lon="11.9765217"><ele>115.99999999999999</ele><time>2026-05-02T04:18:53.441Z</time></trkpt><trkpt lat="44.1798883" lon="11.9764817"><ele>117.0</ele><time>2026-05-02T04:18:58.441Z</time></trkpt><trkpt lat="44.1798283" lon="11.9764517"><ele>117.99999999999999</ele><time>2026-05-02T04:19:02.439Z</time></trkpt><trkpt lat="44.1797633" lon="11.976415"><ele>118.99999999999999</ele><time>2026-05-02T04:19:07.443Z</time></trkpt><trkpt lat="44.179695" lon="11.9763667"><ele>120.0</ele><time>2026-05-02T04:19:13.442Z</time></trkpt><trkpt lat="44.1796317" lon="11.976325"><ele>120.99999999999999</ele><time>2026-05-02T04:19:18.441Z</time></trkpt><trkpt lat="44.179565" lon="11.9762983"><ele>121.99999999999999</ele><time>2026-05-02T04:19:23.442Z</time></trkpt><trkpt lat="44.1795033" lon="11.9762567"><ele>123.14285714285712</ele><time>2026-05-02T04:19:28.441Z</time></trkpt><trkpt lat="44.1794367" lon="11.9762317"><ele>124.28571428571428</ele><time>2026-05-02T04:19:33.439Z</time></trkpt><trkpt lat="44.1793683" lon="11.9762067"><ele>125.42857142857143</ele><time>2026-05-02T04:19:38.44Z</time></trkpt><trkpt lat="44.1793" lon="11.9761783"><ele>126.57142857142857</ele><time>2026-05-02T04:19:44.439Z</time></trkpt><trkpt lat="44.1792317" lon="11.9761683"><ele>127.71428571428572</ele><time>2026-05-02T04:19:50.442Z</time></trkpt><trkpt lat="44.1791633" lon="11.976145"><ele>128.85714285714286</ele><time>2026-05-02T04:19:56.438Z</time></trkpt><trkpt lat="44.1791" lon="11.976105"><ele>130.0</ele><time>2026-05-02T04:20:55.441Z</time></trkpt><trkpt lat="44.17903" lon="11.9761083"><ele>130.71428571428572</ele><time>2026-05-02T04:20:59.443Z</time></trkpt><trkpt lat="44.1789617" lon="11.9760817"><ele>131.42857142857144</ele><time>2026-05-02T04:21:04.443Z</time></trkpt><trkpt lat="44.1788917" lon="11.97606"><ele>132.14285714285714</ele><time>2026-05-02T04:21:10.442Z</time></trkpt><trkpt lat="44.1788233" lon="11.9760633"><ele>132.85714285714286</ele><time>2026-05-02T04:21:15.442Z</time></trkpt><trkpt lat="44.1787617" lon="11.976045"><ele>133.57142857142856</ele><time>2026-05-02T04:21:20.443Z</time></trkpt><trkpt lat="44.178695" lon="11.9760183"><ele>134.28571428571428</ele><time>2026-05-02T04:21:25.443Z</time></trkpt><trkpt lat="44.1786233" lon="11.976005"><ele>135.0</ele><time>2026-05-02T04:21:32.442Z</time></trkpt><trkpt lat="44.1785583" lon="11.9759733"><ele>135.0</ele><time>2026-05-02T04:21:37.443Z</time></trkpt><trkpt lat="44.1784967" lon="11.975955"><ele>135.0</ele><time>2026-05-02T04:21:43.442Z</time></trkpt><trkpt lat="44.1784267" lon="11.97595"><ele>135.0</ele><time>2026-05-02T04:21:48.44Z</time></trkpt><trkpt lat="44.1783633" lon="11.9759317"><ele>135.0</ele><time>2026-05-02T04:21:53.44Z</time></trkpt><trkpt lat="44.1782967" lon="11.9759167"><ele>135.0</ele><time>2026-05-02T04:21:58.443Z</time></trkpt><trkpt lat="44.1782267" lon="11.9759"><ele>135.0</ele><time>2026-05-02T04:22:03.442Z</time></trkpt><trkpt lat="44.1781583" lon="11.97588"><ele>135.0</ele><time>2026-05-02T04:22:08.44Z</time></trkpt><trkpt lat="44.178095" lon="11.9758517"><ele>137.28571428571428</ele><time>2026-05-02T04:22:13.443Z</time></trkpt><trkpt lat="44.1780233" lon="11.9758367"><ele>139.57142857142856</ele><time>2026-05-02T04:22:19.44Z</time></trkpt><trkpt lat="44.1779567" lon="11.97583"><ele>141.85714285714286</ele><time>2026-05-02T04:22:24.441Z</time></trkpt><trkpt lat="44.17789" lon="11.9758217"><ele>144.14285714285714</ele><time>2026-05-02T04:22:29.443Z</time></trkpt><trkpt lat="44.1778183" lon="11.9758033"><ele>146.42857142857144</ele><time>2026-05-02T04:22:35.443Z</time></trkpt><trkpt lat="44.1777517" lon="11.9758"><ele>148.71428571428572</ele><time>2026-05-02T04:22:40.442Z</time></trkpt><trkpt lat="44.1776833" lon="11.9757933"><ele>151.0</ele><time>2026-05-02T04:22:45.442Z</time></trkpt><trkpt lat="44.17761" lon="11.9757817"><ele>151.00000000000003</ele><time>2026-05-02T04:22:50.44Z</time></trkpt><trkpt lat="44.1775367" lon="11.975775"><ele>151.0</ele><time>2026-05-02T04:22:55.442Z</time></trkpt><trkpt lat="44.1774767" lon="11.9757433"><ele>151.0</ele><time>2026-05-02T04:23:01.442Z</time></trkpt><trkpt lat="44.1774133" lon="11.9757233"><ele>151.0</ele><time>2026-05-02T04:23:06.442Z</time></trkpt><trkpt lat="44.1773517" lon="11.9756883"><ele>151.0</ele><time>2026-05-02T04:23:11.443Z</time></trkpt><trkpt lat="44.1772833" lon="11.9756633"><ele>151.00000000000003</ele><time>2026-05-02T04:23:16.443Z</time></trkpt><trkpt lat="44.177215" lon="11.9756283"><ele>151.0</ele><time>2026-05-02T04:23:22.439Z</time></trkpt><trkpt lat="44.1771567" lon="11.9755883"><ele>152.2857142857143</ele><time>2026-05-02T04:23:27.443Z</time></trkpt><trkpt lat="44.1770867" lon="11.9755633"><ele>153.57142857142858</ele><time>2026-05-02T04:23:33.443Z</time></trkpt><trkpt lat="44.1770183" lon="11.9755433"><ele>154.85714285714286</ele><time>2026-05-02T04:23:39.442Z</time></trkpt><trkpt lat="44.176955" lon="11.9755117"><ele>156.14285714285717</ele><time>2026-05-02T04:23:45.442Z</time></trkpt><trkpt lat="44.176895" lon="11.9754633"><ele>157.42857142857144</ele><time>2026-05-02T04:23:51.441Z</time></trkpt><trkpt lat="44.1768417" lon="11.975405"><ele>158.71428571428572</ele><time>2026-05-02T04:23:57.442Z</time></trkpt><trkpt lat="44.17679" lon="11.9753333"><ele>160.0</ele><time>2026-05-02T04:24:03.443Z</time></trkpt><trkpt lat="44.17676" lon="11.9752533"><ele>160.0</ele><time>2026-05-02T04:24:09.443Z</time></trkpt><trkpt lat="44.17672" lon="11.975175"><ele>160.0</ele><time>2026-05-02T04:24:15.443Z</time></trkpt><trkpt lat="44.176675" lon="11.9751133"><ele>160.0</ele><time>2026-05-02T04:24:21.441Z</time></trkpt><trkpt lat="44.17662" lon="11.9750683"><ele>160.0</ele><time>2026-05-02T04:24:26.442Z</time></trkpt><trkpt lat="44.1765517" lon="11.97502"><ele>160.0</ele><time>2026-05-02T04:24:32.442Z</time></trkpt><trkpt lat="44.1764883" lon="11.9749817"><ele>160.0</ele><time>2026-05-02T04:24:37.442Z</time></trkpt><trkpt lat="44.1764167" lon="11.974945"><ele>160.0</ele><time>2026-05-02T04:24:42.443Z</time></trkpt><trkpt lat="44.1763417" lon="11.974905"><ele>161.57142857142856</ele><time>2026-05-02T04:24:47.443Z</time></trkpt><trkpt lat="44.1762733" lon="11.9748767"><ele>163.14285714285714</ele><time>2026-05-02T04:24:51.441Z</time></trkpt><trkpt lat="44.176215" lon="11.97483"><ele>164.71428571428572</ele><time>2026-05-02T04:24:55.443Z</time></trkpt><trkpt lat="44.17615" lon="11.974795"><ele>166.28571428571428</ele><time>2026-05-02T04:24:59.442Z</time></trkpt><trkpt lat="44.1760867" lon="11.97476"><ele>167.85714285714286</ele><time>2026-05-02T04:25:03.443Z</time></trkpt><trkpt lat="44.1760183" lon="11.974735"><ele>169.42857142857142</ele><time>2026-05-02T04:25:07.442Z</time></trkpt><trkpt lat="44.1759467" lon="11.974715"><ele>171.0</ele><time>2026-05-02T04:25:11.444Z</time></trkpt><trkpt lat="44.17588" lon="11.9746867"><ele>170.99999999999997</ele><time>2026-05-02T04:25:15.443Z</time></trkpt><trkpt lat="44.1758183" lon="11.97465"><ele>171.0</ele><time>2026-05-02T04:25:19.44Z</time></trkpt><trkpt lat="44.1757533" lon="11.9746167"><ele>171.0</ele><time>2026-05-02T04:25:23.439Z</time></trkpt><trkpt lat="44.1756817" lon="11.9745917"><ele>171.0</ele><time>2026-05-02T04:25:27.443Z</time></trkpt><trkpt lat="44.1756133" lon="11.974575"><ele>171.0</ele><time>2026-05-02T04:25:31.44Z</time></trkpt><trkpt lat="44.175545" lon="11.9745683"><ele>170.99999999999997</ele><time>2026-05-02T04:25:35.443Z</time></trkpt><trkpt lat="44.175475" lon="11.9745617"><ele>171.0</ele><time>2026-05-02T04:25:39.44Z</time></trkpt><trkpt lat="44.175405" lon="11.9745817"><ele>171.57142857142856</ele><time>2026-05-02T04:25:43.443Z</time></trkpt><trkpt lat="44.1753367" lon="11.9745983"><ele>172.14285714285714</ele><time>2026-05-02T04:25:47.443Z</time></trkpt><trkpt lat="44.1752617" lon="11.9746117"><ele>172.71428571428572</ele><time>2026-05-02T04:25:51.443Z</time></trkpt><trkpt lat="44.1751883" lon="11.974625"><ele>173.28571428571428</ele><time>2026-05-02T04:25:55.443Z</time></trkpt><trkpt lat="44.1751217" lon="11.974635"><ele>173.85714285714286</ele><time>2026-05-02T04:25:59.443Z</time></trkpt><trkpt lat="44.175055" lon="11.974635"><ele>174.42857142857142</ele><time>2026-05-02T04:26:03.443Z</time></trkpt><trkpt lat="44.1749883" lon="11.974635"><ele>175.0</ele><time>2026-05-02T04:26:07.442Z</time></trkpt><trkpt lat="44.1749167" lon="11.9746283"><ele>175.57142857142858</ele><time>2026-05-02T04:26:11.439Z</time></trkpt><trkpt lat="44.174835" lon="11.9746083"><ele>176.14285714285714</ele><time>2026-05-02T04:26:15.443Z</time></trkpt><trkpt lat="44.1747683" lon="11.9745833"><ele>176.71428571428572</ele><time>2026-05-02T04:26:18.443Z</time></trkpt><trkpt lat="44.17469" lon="11.97454"><ele>177.28571428571428</ele><time>2026-05-02T04:26:21.443Z</time></trkpt><trkpt lat="44.174635" lon="11.974495"><ele>177.85714285714286</ele><time>2026-05-02T04:26:23.443Z</time></trkpt><trkpt lat="44.1745717" lon="11.97445"><ele>178.42857142857144</ele><time>2026-05-02T04:26:25.443Z</time></trkpt><trkpt lat="44.17451" lon="11.9743983"><ele>179.0</ele><time>2026-05-02T04:26:27.443Z</time></trkpt><trkpt lat="44.17444" lon="11.9743283"><ele>179.0</ele><time>2026-05-02T04:26:29.443Z</time></trkpt><trkpt lat="44.174365" lon="11.97424"><ele>179.0</ele><time>2026-05-02T04:26:31.443Z</time></trkpt><trkpt lat="44.1742767" lon="11.9741433"><ele>179.0</ele><time>2026-05-02T04:26:33.443Z</time></trkpt><trkpt lat="44.174185" lon="11.97407"><ele>179.0</ele><time>2026-05-02T04:26:35.443Z</time></trkpt><trkpt lat="44.1740917" lon="11.97403"><ele>179.0</ele><time>2026-05-02T04:26:37.442Z</time></trkpt><trkpt lat="44.174015" lon="11.9740067"><ele>180.71428571428572</ele><time>2026-05-02T04:26:39.443Z</time></trkpt><trkpt lat="44.1739483" lon="11.9739933"><ele>182.42857142857144</ele><time>2026-05-02T04:26:41.443Z</time></trkpt><trkpt lat="44.17387" lon="11.9739917"><ele>184.14285714285717</ele><time>2026-05-02T04:26:44.443Z</time></trkpt><trkpt lat="44.1738067" lon="11.974025"><ele>185.85714285714286</ele><time>2026-05-02T04:26:47.441Z</time></trkpt><trkpt lat="44.1737583" lon="11.974085"><ele>187.57142857142856</ele><time>2026-05-02T04:26:50.443Z</time></trkpt><trkpt lat="44.1736983" lon="11.9741617"><ele>189.2857142857143</ele><time>2026-05-02T04:26:54.443Z</time></trkpt><trkpt lat="44.1736467" lon="11.97424"><ele>191.0</ele><time>2026-05-02T04:26:58.443Z</time></trkpt><trkpt lat="44.1736067" lon="11.9743167"><ele>191.0</ele><time>2026-05-02T04:27:02.443Z</time></trkpt><trkpt lat="44.17355" lon="11.9744"><ele>191.0</ele><time>2026-05-02T04:27:06.443Z</time></trkpt><trkpt lat="44.1735033" lon="11.9744833"><ele>191.0</ele><time>2026-05-02T04:27:10.443Z</time></trkpt><trkpt lat="44.1734617" lon="11.974555"><ele>191.0</ele><time>2026-05-02T04:27:14.443Z</time></trkpt><trkpt lat="44.1734083" lon="11.974605"><ele>191.0</ele><time>2026-05-02T04:27:18.442Z</time></trkpt><trkpt lat="44.1733633" lon="11.9746767"><ele>191.0</ele><time>2026-05-02T04:27:22.44Z</time></trkpt><trkpt lat="44.17331" lon="11.9747567"><ele>191.0</ele><time>2026-05-02T04:27:27.441Z</time></trkpt><trkpt lat="44.173255" lon="11.9748233"><ele>191.0</ele><time>2026-05-02T04:27:31.442Z</time></trkpt><trkpt lat="44.1732083" lon="11.9748867"><ele>191.0</ele><time>2026-05-02T04:27:35.441Z</time></trkpt><trkpt lat="44.1731467" lon="11.9749383"><ele>191.0</ele><time>2026-05-02T04:27:40.443Z</time></trkpt><trkpt lat="44.1730933" lon="11.97501"><ele>191.0</ele><time>2026-05-02T04:27:45.443Z</time></trkpt><trkpt lat="44.1730317" lon="11.9750717"><ele>191.0</ele><time>2026-05-02T04:27:50.441Z</time></trkpt><trkpt lat="44.1729683" lon="11.97514"><ele>191.0</ele><time>2026-05-02T04:27:55.44Z</time></trkpt><trkpt lat="44.1729233" lon="11.9752183"><ele>191.0</ele><time>2026-05-02T04:28:00.443Z</time></trkpt><trkpt lat="44.17288" lon="11.9752867"><ele>192.2857142857143</ele><time>2026-05-02T04:28:05.443Z</time></trkpt><trkpt lat="44.1728383" lon="11.9753617"><ele>193.57142857142856</ele><time>2026-05-02T04:28:10.44Z</time></trkpt><trkpt lat="44.17281" lon="11.9754483"><ele>194.85714285714286</ele><time>2026-05-02T04:28:15.442Z</time></trkpt><trkpt lat="44.1727733" lon="11.975525"><ele>196.14285714285717</ele><time>2026-05-02T04:28:19.439Z</time></trkpt><trkpt lat="44.1727183" lon="11.97559"><ele>197.42857142857144</ele><time>2026-05-02T04:28:23.441Z</time></trkpt><trkpt lat="44.1726633" lon="11.9756767"><ele>198.71428571428572</ele><time>2026-05-02T04:28:27.44Z</time></trkpt><trkpt lat="44.1726283" lon="11.9757767"><ele>200.0</ele><time>2026-05-02T04:28:31.443Z</time></trkpt><trkpt lat="44.1725767" lon="11.9758433"><ele>200.00000000000003</ele><time>2026-05-02T04:28:36.443Z</time></trkpt><trkpt lat="44.1725083" lon="11.9758133"><ele>200.0</ele><time>2026-05-02T04:28:41.442Z</time></trkpt><trkpt lat="44.1724283" lon="11.9757817"><ele>200.0</ele><time>2026-05-02T04:28:45.443Z</time></trkpt><trkpt lat="44.17237" lon="11.9757483"><ele>200.0</ele><time>2026-05-02T04:28:48.44Z</time></trkpt><trkpt lat="44.1723033" lon="11.97573"><ele>200.00000000000003</ele><time>2026-05-02T04:28:51.441Z</time></trkpt><trkpt lat="44.1722333" lon="11.9757767"><ele>200.0</ele><time>2026-05-02T04:28:55.441Z</time></trkpt><trkpt lat="44.1721833" lon="11.97589"><ele>198.4</ele><time>2026-05-02T04:28:58.439Z</time></trkpt><trkpt lat="44.172145" lon="11.9760167"><ele>196.8</ele><time>2026-05-02T04:29:00.442Z</time></trkpt><trkpt lat="44.1720983" lon="11.9761567"><ele>195.2</ele><time>2026-05-02T04:29:02.443Z</time></trkpt><trkpt lat="44.1720483" lon="11.9763117"><ele>193.6</ele><time>2026-05-02T04:29:04.443Z</time></trkpt><trkpt lat="44.1720183" lon="11.976395"><ele>192.0</ele><time>2026-05-02T04:29:05.442Z</time></trkpt><trkpt lat="44.1719917" lon="11.976485"><ele>192.0</ele><time>2026-05-02T04:29:06.443Z</time></trkpt><trkpt lat="44.1719567" lon="11.9765733"><ele>192.0</ele><time>2026-05-02T04:29:07.443Z</time></trkpt><trkpt lat="44.17192" lon="11.9766683"><ele>192.0</ele><time>2026-05-02T04:29:08.443Z</time></trkpt><trkpt lat="44.171885" lon="11.9767717"><ele>192.0</ele><time>2026-05-02T04:29:09.442Z</time></trkpt><trkpt lat="44.17185" lon="11.9768733"><ele>192.0</ele><time>2026-05-02T04:29:10.442Z</time></trkpt><trkpt lat="44.1718117" lon="11.9769717"><ele>192.0</ele><time>2026-05-02T04:29:11.443Z</time></trkpt><trkpt lat="44.171775" lon="11.9770767"><ele>192.0</ele><time>2026-05-02T04:29:12.443Z</time></trkpt><trkpt lat="44.1717417" lon="11.977185"><ele>192.0</ele><time>2026-05-02T04:29:13.439Z</time></trkpt><trkpt lat="44.1717133" lon="11.9773083"><ele>192.0</ele><time>2026-05-02T04:29:14.439Z</time></trkpt><trkpt lat="44.17168" lon="11.977415"><ele>192.0</ele><time>2026-05-02T04:29:15.44Z</time></trkpt><trkpt lat="44.1716367" lon="11.9775167"><ele>192.0</ele><time>2026-05-02T04:29:16.439Z</time></trkpt><trkpt lat="44.17159" lon="11.977625"><ele>192.0</ele><time>2026-05-02T04:29:17.44Z</time></trkpt><trkpt lat="44.17155" lon="11.9777317"><ele>190.16666666666666</ele><time>2026-05-02T04:29:18.44Z</time></trkpt><trkpt lat="44.17151" lon="11.9778367"><ele>188.33333333333334</ele><time>2026-05-02T04:29:19.44Z</time></trkpt><trkpt lat="44.1714733" lon="11.9779417"><ele>186.5</ele><time>2026-05-02T04:29:20.44Z</time></trkpt><trkpt lat="44.17144" lon="11.9780433"><ele>184.66666666666669</ele><time>2026-05-02T04:29:21.441Z</time></trkpt><trkpt lat="44.1714" lon="11.9781483"><ele>182.83333333333334</ele><time>2026-05-02T04:29:22.439Z</time></trkpt><trkpt lat="44.1713667" lon="11.97826"><ele>181.0</ele><time>2026-05-02T04:29:23.44Z</time></trkpt><trkpt lat="44.1713317" lon="11.97837"><ele>181.0</ele><time>2026-05-02T04:29:24.441Z</time></trkpt><trkpt lat="44.171295" lon="11.9784817"><ele>181.0</ele><time>2026-05-02T04:29:25.442Z</time></trkpt><trkpt lat="44.1712567" lon="11.9785983"><ele>181.0</ele><time>2026-05-02T04:29:26.442Z</time></trkpt><trkpt lat="44.1712167" lon="11.9787183"><ele>181.0</ele><time>2026-05-02T04:29:27.443Z</time></trkpt><trkpt lat="44.1711783" lon="11.9788433"><ele>181.0</ele><time>2026-05-02T04:29:28.443Z</time></trkpt><trkpt lat="44.1711383" lon="11.9789717"><ele>181.0</ele><time>2026-05-02T04:29:29.442Z</time></trkpt><trkpt lat="44.1710917" lon="11.9791067"><ele>181.0</ele><time>2026-05-02T04:29:30.441Z</time></trkpt><trkpt lat="44.1710417" lon="11.979245"><ele>181.0</ele><time>2026-05-02T04:29:31.441Z</time></trkpt><trkpt lat="44.1709883" lon="11.979385"><ele>181.0</ele><time>2026-05-02T04:29:32.442Z</time></trkpt><trkpt lat="44.170925" lon="11.9795267"><ele>179.75</ele><time>2026-05-02T04:29:33.441Z</time></trkpt><trkpt lat="44.1708567" lon="11.9796617"><ele>178.5</ele><time>2026-05-02T04:29:34.441Z</time></trkpt><trkpt lat="44.170785" lon="11.9797967"><ele>177.25</ele><time>2026-05-02T04:29:35.442Z</time></trkpt><trkpt lat="44.1707" lon="11.9799267"><ele>176.0</ele><time>2026-05-02T04:29:36.44Z</time></trkpt><trkpt lat="44.17061" lon="11.9800533"><ele>173.5</ele><time>2026-05-02T04:29:37.443Z</time></trkpt><trkpt lat="44.1705183" lon="11.9801783"><ele>171.0</ele><time>2026-05-02T04:29:38.443Z</time></trkpt><trkpt lat="44.1704217" lon="11.9803017"><ele>168.5</ele><time>2026-05-02T04:29:39.443Z</time></trkpt><trkpt lat="44.1703233" lon="11.98042"><ele>166.0</ele><time>2026-05-02T04:29:40.442Z</time></trkpt><trkpt lat="44.170225" lon="11.9805333"><ele>166.0</ele><time>2026-05-02T04:29:41.44Z</time></trkpt><trkpt lat="44.1701283" lon="11.980645"><ele>166.0</ele><time>2026-05-02T04:29:42.441Z</time></trkpt><trkpt lat="44.1700317" lon="11.9807533"><ele>166.0</ele><time>2026-05-02T04:29:43.441Z</time></trkpt><trkpt lat="44.1699367" lon="11.9808633"><ele>166.0</ele><time>2026-05-02T04:29:44.44Z</time></trkpt><trkpt lat="44.1698467" lon="11.9809717"><ele>165.75</ele><time>2026-05-02T04:29:45.441Z</time></trkpt><trkpt lat="44.1697533" lon="11.9810783"><ele>165.5</ele><time>2026-05-02T04:29:46.442Z</time></trkpt><trkpt lat="44.1696633" lon="11.9811817"><ele>165.25</ele><time>2026-05-02T04:29:47.44Z</time></trkpt><trkpt lat="44.1695767" lon="11.9812833"><ele>165.0</ele><time>2026-05-02T04:29:48.44Z</time></trkpt><trkpt lat="44.169495" lon="11.9813817"><ele>165.0</ele><time>2026-05-02T04:29:49.439Z</time></trkpt><trkpt lat="44.1694167" lon="11.9814733"><ele>165.0</ele><time>2026-05-02T04:29:50.439Z</time></trkpt><trkpt lat="44.169335" lon="11.9815667"><ele>165.0</ele><time>2026-05-02T04:29:51.44Z</time></trkpt><trkpt lat="44.1692583" lon="11.9816583"><ele>165.0</ele><time>2026-05-02T04:29:52.44Z</time></trkpt><trkpt lat="44.16919" lon="11.9817567"><ele>165.0</ele><time>2026-05-02T04:29:53.44Z</time></trkpt><trkpt lat="44.1691267" lon="11.9818667"><ele>165.0</ele><time>2026-05-02T04:29:54.44Z</time></trkpt><trkpt lat="44.1690733" lon="11.981975"><ele>165.0</ele><time>2026-05-02T04:29:55.443Z</time></trkpt><trkpt lat="44.16903" lon="11.9820867"><ele>165.0</ele><time>2026-05-02T04:29:56.442Z</time></trkpt><trkpt lat="44.16899" lon="11.9822133"><ele>165.0</ele><time>2026-05-02T04:29:57.443Z</time></trkpt><trkpt lat="44.168955" lon="11.9823383"><ele>165.0</ele><time>2026-05-02T04:29:58.443Z</time></trkpt><trkpt lat="44.1689233" lon="11.9824617"><ele>164.83333333333334</ele><time>2026-05-02T04:29:59.44Z</time></trkpt><trkpt lat="44.16889" lon="11.9825833"><ele>164.66666666666666</ele><time>2026-05-02T04:30:00.44Z</time></trkpt><trkpt lat="44.1688667" lon="11.982705"><ele>164.5</ele><time>2026-05-02T04:30:01.439Z</time></trkpt><trkpt lat="44.16884" lon="11.98282"><ele>164.33333333333331</ele><time>2026-05-02T04:30:02.44Z</time></trkpt><trkpt lat="44.16881" lon="11.982935"><ele>164.16666666666666</ele><time>2026-05-02T04:30:03.44Z</time></trkpt><trkpt lat="44.1687767" lon="11.9830517"><ele>164.0</ele><time>2026-05-02T04:30:04.44Z</time></trkpt><trkpt lat="44.1687467" lon="11.9831633"><ele>164.0</ele><time>2026-05-02T04:30:05.44Z</time></trkpt><trkpt lat="44.1687217" lon="11.98328"><ele>164.0</ele><time>2026-05-02T04:30:06.439Z</time></trkpt><trkpt lat="44.1686983" lon="11.9833967"><ele>164.0</ele><time>2026-05-02T04:30:07.439Z</time></trkpt><trkpt lat="44.1686733" lon="11.9835133"><ele>164.0</ele><time>2026-05-02T04:30:08.44Z</time></trkpt><trkpt lat="44.1686467" lon="11.98363"><ele>164.0</ele><time>2026-05-02T04:30:09.441Z</time></trkpt><trkpt lat="44.1686217" lon="11.9837467"><ele>164.0</ele><time>2026-05-02T04:30:10.441Z</time></trkpt><trkpt lat="44.168595" lon="11.983865"><ele>163.16666666666666</ele><time>2026-05-02T04:30:11.44Z</time></trkpt><trkpt lat="44.1685717" lon="11.98398"><ele>162.33333333333331</ele><time>2026-05-02T04:30:12.443Z</time></trkpt><trkpt lat="44.1685483" lon="11.9841017"><ele>161.5</ele><time>2026-05-02T04:30:13.442Z</time></trkpt><trkpt lat="44.1685183" lon="11.9842217"><ele>160.66666666666666</ele><time>2026-05-02T04:30:14.443Z</time></trkpt><trkpt lat="44.16849" lon="11.984335"><ele>159.83333333333334</ele><time>2026-05-02T04:30:15.443Z</time></trkpt><trkpt lat="44.1684617" lon="11.984445"><ele>159.0</ele><time>2026-05-02T04:30:16.44Z</time></trkpt><trkpt lat="44.1684333" lon="11.9845517"><ele>158.5</ele><time>2026-05-02T04:30:17.44Z</time></trkpt><trkpt lat="44.1684" lon="11.98466"><ele>158.0</ele><time>2026-05-02T04:30:18.443Z</time></trkpt><trkpt lat="44.1683683" lon="11.98477"><ele>157.5</ele><time>2026-05-02T04:30:19.443Z</time></trkpt><trkpt lat="44.1683383" lon="11.98488"><ele>157.0</ele><time>2026-05-02T04:30:20.441Z</time></trkpt><trkpt lat="44.1683117" lon="11.9849917"><ele>156.5</ele><time>2026-05-02T04:30:21.443Z</time></trkpt><trkpt lat="44.168285" lon="11.9851033"><ele>156.0</ele><time>2026-05-02T04:30:22.442Z</time></trkpt><trkpt lat="44.1682617" lon="11.98522"><ele>155.66666666666666</ele><time>2026-05-02T04:30:23.443Z</time></trkpt><trkpt lat="44.1682367" lon="11.9853333"><ele>155.33333333333334</ele><time>2026-05-02T04:30:24.443Z</time></trkpt><trkpt lat="44.1682133" lon="11.9854467"><ele>155.0</ele><time>2026-05-02T04:30:25.442Z</time></trkpt><trkpt lat="44.168185" lon="11.9855667"><ele>154.66666666666669</ele><time>2026-05-02T04:30:26.442Z</time></trkpt><trkpt lat="44.1681683" lon="11.9856917"><ele>154.33333333333334</ele><time>2026-05-02T04:30:27.442Z</time></trkpt><trkpt lat="44.1681633" lon="11.9858183"><ele>154.0</ele><time>2026-05-02T04:30:28.44Z</time></trkpt><trkpt lat="44.1681883" lon="11.985945"><ele>152.2</ele><time>2026-05-02T04:30:29.44Z</time></trkpt><trkpt lat="44.168235" lon="11.9860617"><ele>150.4</ele><time>2026-05-02T04:30:30.44Z</time></trkpt><trkpt lat="44.1683" lon="11.9861683"><ele>148.6</ele><time>2026-05-02T04:30:31.443Z</time></trkpt><trkpt lat="44.1683683" lon="11.9862767"><ele>146.8</ele><time>2026-05-02T04:30:32.442Z</time></trkpt><trkpt lat="44.1684433" lon="11.9863833"><ele>145.0</ele><time>2026-05-02T04:30:33.442Z</time></trkpt><trkpt lat="44.1685167" lon="11.986495"><ele>145.0</ele><time>2026-05-02T04:30:34.44Z</time></trkpt><trkpt lat="44.16859" lon="11.9866033"><ele>145.0</ele><time>2026-05-02T04:30:35.441Z</time></trkpt><trkpt lat="44.168665" lon="11.9867267"><ele>145.0</ele><time>2026-05-02T04:30:36.441Z</time></trkpt><trkpt lat="44.168745" lon="11.9868433"><ele>145.0</ele><time>2026-05-02T04:30:37.442Z</time></trkpt><trkpt lat="44.1688233" lon="11.986955"><ele>144.0</ele><time>2026-05-02T04:30:38.44Z</time></trkpt><trkpt lat="44.16889" lon="11.9870617"><ele>143.0</ele><time>2026-05-02T04:30:39.439Z</time></trkpt><trkpt lat="44.1689533" lon="11.9871667"><ele>142.0</ele><time>2026-05-02T04:30:40.44Z</time></trkpt><trkpt lat="44.1690183" lon="11.9872767"><ele>141.0</ele><time>2026-05-02T04:30:41.439Z</time></trkpt><trkpt lat="44.1690683" lon="11.9874"><ele>140.0</ele><time>2026-05-02T04:30:42.442Z</time></trkpt><trkpt lat="44.1691117" lon="11.9875333"><ele>138.6</ele><time>2026-05-02T04:30:43.442Z</time></trkpt><trkpt lat="44.169135" lon="11.9876783"><ele>137.2</ele><time>2026-05-02T04:30:44.442Z</time></trkpt><trkpt lat="44.1691433" lon="11.9878317"><ele>135.8</ele><time>2026-05-02T04:30:45.442Z</time></trkpt><trkpt lat="44.16915" lon="11.9879883"><ele>134.4</ele><time>2026-05-02T04:30:46.443Z</time></trkpt><trkpt lat="44.1691533" lon="11.9881483"><ele>133.0</ele><time>2026-05-02T04:30:47.443Z</time></trkpt><trkpt lat="44.1691583" lon="11.98831"><ele>132.0</ele><time>2026-05-02T04:30:48.439Z</time></trkpt><trkpt lat="44.169165" lon="11.9884683"><ele>131.0</ele><time>2026-05-02T04:30:49.443Z</time></trkpt><trkpt lat="44.1691683" lon="11.9886267"><ele>130.0</ele><time>2026-05-02T04:30:50.443Z</time></trkpt><trkpt lat="44.1691667" lon="11.9887833"><ele>129.0</ele><time>2026-05-02T04:30:51.443Z</time></trkpt><trkpt lat="44.1691667" lon="11.9889433"><ele>129.0</ele><time>2026-05-02T04:30:52.441Z</time></trkpt><trkpt lat="44.1691683" lon="11.9891"><ele>129.0</ele><time>2026-05-02T04:30:53.442Z</time></trkpt><trkpt lat="44.169165" lon="11.9892533"><ele>129.0</ele><time>2026-05-02T04:30:54.442Z</time></trkpt><trkpt lat="44.169165" lon="11.989405"><ele>129.0</ele><time>2026-05-02T04:30:55.441Z</time></trkpt><trkpt lat="44.1691633" lon="11.9895533"><ele>129.0</ele><time>2026-05-02T04:30:56.44Z</time></trkpt><trkpt lat="44.1691617" lon="11.9897"><ele>128.2</ele><time>2026-05-02T04:30:57.442Z</time></trkpt><trkpt lat="44.1691583" lon="11.989845"><ele>127.4</ele><time>2026-05-02T04:30:58.442Z</time></trkpt><trkpt lat="44.16916" lon="11.989985"><ele>126.6</ele><time>2026-05-02T04:30:59.441Z</time></trkpt><trkpt lat="44.16916" lon="11.9901217"><ele>125.8</ele><time>2026-05-02T04:31:00.441Z</time></trkpt><trkpt lat="44.1691667" lon="11.9902533"><ele>125.0</ele><time>2026-05-02T04:31:01.439Z</time></trkpt><trkpt lat="44.16918" lon="11.9903833"><ele>124.66666666666666</ele><time>2026-05-02T04:31:02.439Z</time></trkpt><trkpt lat="44.1692017" lon="11.9905083"><ele>124.33333333333333</ele><time>2026-05-02T04:31:03.442Z</time></trkpt><trkpt lat="44.1692283" lon="11.9906267"><ele>124.0</ele><time>2026-05-02T04:31:04.438Z</time></trkpt><trkpt lat="44.16926" lon="11.99074"><ele>123.66666666666666</ele><time>2026-05-02T04:31:05.44Z</time></trkpt><trkpt lat="44.1693" lon="11.99085"><ele>123.33333333333333</ele><time>2026-05-02T04:31:06.441Z</time></trkpt><trkpt lat="44.1693467" lon="11.9909567"><ele>123.0</ele><time>2026-05-02T04:31:07.44Z</time></trkpt><trkpt lat="44.1693983" lon="11.991055"><ele>122.0</ele><time>2026-05-02T04:31:08.442Z</time></trkpt><trkpt lat="44.169455" lon="11.9911433"><ele>121.0</ele><time>2026-05-02T04:31:09.44Z</time></trkpt><trkpt lat="44.16952" lon="11.991225"><ele>120.0</ele><time>2026-05-02T04:31:10.438Z</time></trkpt><trkpt lat="44.1695917" lon="11.9913"><ele>119.0</ele><time>2026-05-02T04:31:11.44Z</time></trkpt><trkpt lat="44.1696617" lon="11.9913683"><ele>118.0</ele><time>2026-05-02T04:31:12.443Z</time></trkpt><trkpt lat="44.1697383" lon="11.9914333"><ele>117.0</ele><time>2026-05-02T04:31:13.443Z</time></trkpt><trkpt lat="44.169815" lon="11.991495"><ele>117.66666666666667</ele><time>2026-05-02T04:31:14.441Z</time></trkpt><trkpt lat="44.1698867" lon="11.9915567"><ele>118.33333333333334</ele><time>2026-05-02T04:31:15.444Z</time></trkpt><trkpt lat="44.169955" lon="11.99162"><ele>119.0</ele><time>2026-05-02T04:31:16.443Z</time></trkpt><trkpt lat="44.1700267" lon="11.991685"><ele>119.66666666666667</ele><time>2026-05-02T04:31:17.439Z</time></trkpt><trkpt lat="44.1700967" lon="11.9917483"><ele>120.33333333333334</ele><time>2026-05-02T04:31:18.439Z</time></trkpt><trkpt lat="44.1701717" lon="11.991815"><ele>121.0</ele><time>2026-05-02T04:31:19.443Z</time></trkpt><trkpt lat="44.1702383" lon="11.9918767"><ele>121.00000000000001</ele><time>2026-05-02T04:31:20.441Z</time></trkpt><trkpt lat="44.1703" lon="11.9919383"><ele>121.0</ele><time>2026-05-02T04:31:21.441Z</time></trkpt><trkpt lat="44.17037" lon="11.992"><ele>121.0</ele><time>2026-05-02T04:31:22.443Z</time></trkpt><trkpt lat="44.17044" lon="11.9920617"><ele>121.0</ele><time>2026-05-02T04:31:23.441Z</time></trkpt><trkpt lat="44.1705133" lon="11.992125"><ele>121.00000000000001</ele><time>2026-05-02T04:31:24.439Z</time></trkpt><trkpt lat="44.1705833" lon="11.9921867"><ele>121.0</ele><time>2026-05-02T04:31:25.443Z</time></trkpt><trkpt lat="44.1706567" lon="11.99226"><ele>121.00000000000001</ele><time>2026-05-02T04:31:26.441Z</time></trkpt><trkpt lat="44.1707267" lon="11.99233"><ele>121.0</ele><time>2026-05-02T04:31:27.443Z</time></trkpt><trkpt lat="44.1708" lon="11.9923933"><ele>121.0</ele><time>2026-05-02T04:31:28.442Z</time></trkpt><trkpt lat="44.1708733" lon="11.9924583"><ele>121.0</ele><time>2026-05-02T04:31:29.441Z</time></trkpt><trkpt lat="44.1709467" lon="11.9925233"><ele>121.00000000000001</ele><time>2026-05-02T04:31:30.441Z</time></trkpt><trkpt lat="44.1710217" lon="11.992595"><ele>121.0</ele><time>2026-05-02T04:31:31.441Z</time></trkpt><trkpt lat="44.171095" lon="11.9926617"><ele>120.83333333333334</ele><time>2026-05-02T04:31:32.439Z</time></trkpt><trkpt lat="44.1711667" lon="11.9927283"><ele>120.66666666666667</ele><time>2026-05-02T04:31:33.442Z</time></trkpt><trkpt lat="44.1712417" lon="11.9927967"><ele>120.5</ele><time>2026-05-02T04:31:34.44Z</time></trkpt><trkpt lat="44.17132" lon="11.9928633"><ele>120.33333333333334</ele><time>2026-05-02T04:31:35.441Z</time></trkpt><trkpt lat="44.1713967" lon="11.99293"><ele>120.16666666666667</ele><time>2026-05-02T04:31:36.441Z</time></trkpt><trkpt lat="44.1714717" lon="11.9929967"><ele>120.0</ele><time>2026-05-02T04:31:37.44Z</time></trkpt><trkpt lat="44.1715483" lon="11.9930633"><ele>119.4</ele><time>2026-05-02T04:31:38.441Z</time></trkpt><trkpt lat="44.17163" lon="11.9931333"><ele>118.8</ele><time>2026-05-02T04:31:39.442Z</time></trkpt><trkpt lat="44.17171" lon="11.9932067"><ele>118.19999999999999</ele><time>2026-05-02T04:31:40.44Z</time></trkpt><trkpt lat="44.171785" lon="11.9932733"><ele>117.6</ele><time>2026-05-02T04:31:41.44Z</time></trkpt><trkpt lat="44.171855" lon="11.99334"><ele>117.0</ele><time>2026-05-02T04:31:42.442Z</time></trkpt><trkpt lat="44.17193" lon="11.9934133"><ele>116.6</ele><time>2026-05-02T04:31:43.443Z</time></trkpt><trkpt lat="44.172" lon="11.9934867"><ele>116.19999999999999</ele><time>2026-05-02T04:31:44.441Z</time></trkpt><trkpt lat="44.1720733" lon="11.9935583"><ele>115.8</ele><time>2026-05-02T04:31:45.443Z</time></trkpt><trkpt lat="44.1721467" lon="11.99363"><ele>115.4</ele><time>2026-05-02T04:31:46.443Z</time></trkpt><trkpt lat="44.172225" lon="11.9937017"><ele>115.0</ele><time>2026-05-02T04:31:47.443Z</time></trkpt><trkpt lat="44.1723017" lon="11.9937733"><ele>114.33333333333334</ele><time>2026-05-02T04:31:48.443Z</time></trkpt><trkpt lat="44.172375" lon="11.9938417"><ele>113.66666666666667</ele><time>2026-05-02T04:31:49.443Z</time></trkpt><trkpt lat="44.17245" lon="11.99391"><ele>113.0</ele><time>2026-05-02T04:31:50.442Z</time></trkpt><trkpt lat="44.1725217" lon="11.9939783"><ele>112.33333333333334</ele><time>2026-05-02T04:31:51.443Z</time></trkpt><trkpt lat="44.1725967" lon="11.994045"><ele>111.66666666666667</ele><time>2026-05-02T04:31:52.442Z</time></trkpt><trkpt lat="44.1726733" lon="11.9941133"><ele>111.0</ele><time>2026-05-02T04:31:53.443Z</time></trkpt><trkpt lat="44.17275" lon="11.9941783"><ele>111.0</ele><time>2026-05-02T04:31:54.443Z</time></trkpt><trkpt lat="44.1728267" lon="11.9942433"><ele>111.0</ele><time>2026-05-02T04:31:55.442Z</time></trkpt><trkpt lat="44.1729033" lon="11.9943117"><ele>111.0</ele><time>2026-05-02T04:31:56.443Z</time></trkpt><trkpt lat="44.17298" lon="11.994375"><ele>111.0</ele><time>2026-05-02T04:31:57.443Z</time></trkpt><trkpt lat="44.173055" lon="11.99444"><ele>111.0</ele><time>2026-05-02T04:31:58.537Z</time></trkpt><trkpt lat="44.17313" lon="11.9945067"><ele>111.0</ele><time>2026-05-02T04:31:59.44Z</time></trkpt><trkpt lat="44.1732017" lon="11.9945717"><ele>110.83333333333333</ele><time>2026-05-02T04:32:00.44Z</time></trkpt><trkpt lat="44.1732733" lon="11.9946367"><ele>110.66666666666666</ele><time>2026-05-02T04:32:01.44Z</time></trkpt><trkpt lat="44.1733467" lon="11.9947"><ele>110.5</ele><time>2026-05-02T04:32:02.44Z</time></trkpt><trkpt lat="44.1734183" lon="11.994765"><ele>110.33333333333333</ele><time>2026-05-02T04:32:03.441Z</time></trkpt><trkpt lat="44.1734867" lon="11.9948317"><ele>110.16666666666666</ele><time>2026-05-02T04:32:04.439Z</time></trkpt><trkpt lat="44.173555" lon="11.9948967"><ele>110.0</ele><time>2026-05-02T04:32:05.439Z</time></trkpt><trkpt lat="44.173615" lon="11.9949717"><ele>109.57142857142857</ele><time>2026-05-02T04:32:06.44Z</time></trkpt><trkpt lat="44.1736533" lon="11.99506"><ele>109.14285714285714</ele><time>2026-05-02T04:32:07.439Z</time></trkpt><trkpt lat="44.1736617" lon="11.9951583"><ele>108.71428571428572</ele><time>2026-05-02T04:32:08.44Z</time></trkpt><trkpt lat="44.1736367" lon="11.9952417"><ele>108.28571428571428</ele><time>2026-05-02T04:32:09.441Z</time></trkpt><trkpt lat="44.1735833" lon="11.9953217"><ele>107.85714285714286</ele><time>2026-05-02T04:32:10.44Z</time></trkpt><trkpt lat="44.1735367" lon="11.9954"><ele>107.42857142857143</ele><time>2026-05-02T04:32:11.439Z</time></trkpt><trkpt lat="44.17349" lon="11.9954867"><ele>107.0</ele><time>2026-05-02T04:32:12.44Z</time></trkpt><trkpt lat="44.1734417" lon="11.9955683"><ele>107.00000000000001</ele><time>2026-05-02T04:32:13.44Z</time></trkpt><trkpt lat="44.1733917" lon="11.9956467"><ele>107.0</ele><time>2026-05-02T04:32:14.439Z</time></trkpt><trkpt lat="44.173345" lon="11.9957217"><ele>107.0</ele><time>2026-05-02T04:32:15.439Z</time></trkpt><trkpt lat="44.1733" lon="11.9957917"><ele>107.0</ele><time>2026-05-02T04:32:16.443Z</time></trkpt><trkpt lat="44.173255" lon="11.9958633"><ele>107.0</ele><time>2026-05-02T04:32:17.442Z</time></trkpt><trkpt lat="44.1732133" lon="11.9959367"><ele>107.00000000000001</ele><time>2026-05-02T04:32:18.443Z</time></trkpt><trkpt lat="44.1731717" lon="11.9960083"><ele>107.0</ele><time>2026-05-02T04:32:19.442Z</time></trkpt><trkpt lat="44.17313" lon="11.9960833"><ele>107.0</ele><time>2026-05-02T04:32:20.443Z</time></trkpt><trkpt lat="44.1730883" lon="11.996155"><ele>106.99999999999999</ele><time>2026-05-02T04:32:21.442Z</time></trkpt><trkpt lat="44.173045" lon="11.996225"><ele>106.99999999999999</ele><time>2026-05-02T04:32:22.443Z</time></trkpt><trkpt lat="44.1730017" lon="11.9962933"><ele>107.0</ele><time>2026-05-02T04:32:23.443Z</time></trkpt><trkpt lat="44.1729283" lon="11.9964383"><ele>107.0</ele><time>2026-05-02T04:32:25.442Z</time></trkpt><trkpt lat="44.1728517" lon="11.99658"><ele>107.0</ele><time>2026-05-02T04:32:27.443Z</time></trkpt><trkpt lat="44.172815" lon="11.9966517"><ele>106.99999999999999</ele><time>2026-05-02T04:32:28.442Z</time></trkpt><trkpt lat="44.1727433" lon="11.9967933"><ele>106.99999999999999</ele><time>2026-05-02T04:32:30.439Z</time></trkpt><trkpt lat="44.1726733" lon="11.996935"><ele>107.0</ele><time>2026-05-02T04:32:32.44Z</time></trkpt><trkpt lat="44.1726017" lon="11.99707"><ele>107.0</ele><time>2026-05-02T04:32:34.44Z</time></trkpt><trkpt lat="44.1725283" lon="11.9972"><ele>106.75</ele><time>2026-05-02T04:32:36.44Z</time></trkpt><trkpt lat="44.172455" lon="11.9973217"><ele>106.5</ele><time>2026-05-02T04:32:38.439Z</time></trkpt><trkpt lat="44.1723633" lon="11.99743"><ele>106.25</ele><time>2026-05-02T04:32:40.438Z</time></trkpt><trkpt lat="44.172255" lon="11.997495"><ele>106.0</ele><time>2026-05-02T04:32:42.442Z</time></trkpt><trkpt lat="44.172135" lon="11.99753"><ele>105.75</ele><time>2026-05-02T04:32:44.442Z</time></trkpt><trkpt lat="44.172015" lon="11.997525"><ele>105.5</ele><time>2026-05-02T04:32:46.442Z</time></trkpt><trkpt lat="44.1719" lon="11.9974817"><ele>105.25</ele><time>2026-05-02T04:32:48.441Z</time></trkpt><trkpt lat="44.1717883" lon="11.99743"><ele>105.0</ele><time>2026-05-02T04:32:50.441Z</time></trkpt><trkpt lat="44.1716767" lon="11.9973917"><ele>105.0</ele><time>2026-05-02T04:32:52.443Z</time></trkpt><trkpt lat="44.1715667" lon="11.9973417"><ele>105.0</ele><time>2026-05-02T04:32:54.443Z</time></trkpt><trkpt lat="44.1714467" lon="11.99734"><ele>105.0</ele><time>2026-05-02T04:32:56.439Z</time></trkpt><trkpt lat="44.1713433" lon="11.997395"><ele>105.0</ele><time>2026-05-02T04:32:58.443Z</time></trkpt><trkpt lat="44.1712883" lon="11.9974433"><ele>105.0</ele><time>2026-05-02T04:32:59.439Z</time></trkpt><trkpt lat="44.1712383" lon="11.9975017"><ele>104.28571428571429</ele><time>2026-05-02T04:33:00.44Z</time></trkpt><trkpt lat="44.1711883" lon="11.99757"><ele>103.57142857142857</ele><time>2026-05-02T04:33:01.44Z</time></trkpt><trkpt lat="44.17115" lon="11.997645"><ele>102.85714285714286</ele><time>2026-05-02T04:33:02.439Z</time></trkpt><trkpt lat="44.1711133" lon="11.9977283"><ele>102.14285714285714</ele><time>2026-05-02T04:33:03.439Z</time></trkpt><trkpt lat="44.1710717" lon="11.9978117"><ele>101.42857142857143</ele><time>2026-05-02T04:33:04.44Z</time></trkpt><trkpt lat="44.1710283" lon="11.9978967"><ele>100.71428571428572</ele><time>2026-05-02T04:33:05.439Z</time></trkpt><trkpt lat="44.1709817" lon="11.9979783"><ele>100.0</ele><time>2026-05-02T04:33:06.44Z</time></trkpt><trkpt lat="44.1709367" lon="11.9980683"><ele>100.00000000000001</ele><time>2026-05-02T04:33:07.439Z</time></trkpt><trkpt lat="44.1708933" lon="11.9981617"><ele>100.0</ele><time>2026-05-02T04:33:08.442Z</time></trkpt><trkpt lat="44.1708533" lon="11.9982567"><ele>100.0</ele><time>2026-05-02T04:33:09.44Z</time></trkpt><trkpt lat="44.1708117" lon="11.99835"><ele>100.0</ele><time>2026-05-02T04:33:10.443Z</time></trkpt><trkpt lat="44.1707683" lon="11.998445"><ele>100.00000000000001</ele><time>2026-05-02T04:33:11.439Z</time></trkpt><trkpt lat="44.1707267" lon="11.998535"><ele>100.0</ele><time>2026-05-02T04:33:12.443Z</time></trkpt><trkpt lat="44.1706933" lon="11.9986233"><ele>100.00000000000001</ele><time>2026-05-02T04:33:13.442Z</time></trkpt><trkpt lat="44.1706567" lon="11.9987133"><ele>100.0</ele><time>2026-05-02T04:33:14.439Z</time></trkpt><trkpt lat="44.1706167" lon="11.9988"><ele>100.0</ele><time>2026-05-02T04:33:15.442Z</time></trkpt><trkpt lat="44.1705783" lon="11.998885"><ele>100.0</ele><time>2026-05-02T04:33:16.442Z</time></trkpt><trkpt lat="44.1705383" lon="11.998965"><ele>100.0</ele><time>2026-05-02T04:33:17.443Z</time></trkpt><trkpt lat="44.170495" lon="11.99905"><ele>100.00000000000001</ele><time>2026-05-02T04:33:18.44Z</time></trkpt><trkpt lat="44.1704533" lon="11.9991317"><ele>100.0</ele><time>2026-05-02T04:33:19.443Z</time></trkpt><trkpt lat="44.1704217" lon="11.999215"><ele>99.71428571428572</ele><time>2026-05-02T04:33:20.441Z</time></trkpt><trkpt lat="44.1703867" lon="11.9993033"><ele>99.42857142857143</ele><time>2026-05-02T04:33:21.44Z</time></trkpt><trkpt lat="44.1703483" lon="11.99938"><ele>99.14285714285714</ele><time>2026-05-02T04:33:22.439Z</time></trkpt><trkpt lat="44.1703067" lon="11.99946"><ele>98.85714285714286</ele><time>2026-05-02T04:33:23.44Z</time></trkpt><trkpt lat="44.1702617" lon="11.9995383"><ele>98.57142857142857</ele><time>2026-05-02T04:33:24.44Z</time></trkpt><trkpt lat="44.1702217" lon="11.9996217"><ele>98.28571428571429</ele><time>2026-05-02T04:33:25.441Z</time></trkpt><trkpt lat="44.170185" lon="11.999705"><ele>98.0</ele><time>2026-05-02T04:33:26.441Z</time></trkpt><trkpt lat="44.1701517" lon="11.9997883"><ele>98.0</ele><time>2026-05-02T04:33:27.441Z</time></trkpt><trkpt lat="44.1701233" lon="11.99987"><ele>98.0</ele><time>2026-05-02T04:33:28.443Z</time></trkpt><trkpt lat="44.1701033" lon="11.999955"><ele>98.0</ele><time>2026-05-02T04:33:29.44Z</time></trkpt><trkpt lat="44.1700967" lon="12.0000433"><ele>98.0</ele><time>2026-05-02T04:33:30.443Z</time></trkpt><trkpt lat="44.1701083" lon="12.000135"><ele>98.0</ele><time>2026-05-02T04:33:31.44Z</time></trkpt><trkpt lat="44.17013" lon="12.0002267"><ele>98.0</ele><time>2026-05-02T04:33:32.443Z</time></trkpt><trkpt lat="44.1701583" lon="12.0003183"><ele>98.0</ele><time>2026-05-02T04:33:33.442Z</time></trkpt><trkpt lat="44.1701883" lon="12.00041"><ele>98.0</ele><time>2026-05-02T04:33:34.443Z</time></trkpt><trkpt lat="44.1702283" lon="12.00049"><ele>98.0</ele><time>2026-05-02T04:33:35.439Z</time></trkpt><trkpt lat="44.1702717" lon="12.0005717"><ele>98.0</ele><time>2026-05-02T04:33:36.44Z</time></trkpt><trkpt lat="44.1703133" lon="12.0006517"><ele>98.0</ele><time>2026-05-02T04:33:37.44Z</time></trkpt><trkpt lat="44.1703567" lon="12.000735"><ele>98.0</ele><time>2026-05-02T04:33:38.439Z</time></trkpt><trkpt lat="44.170405" lon="12.0008167"><ele>98.0</ele><time>2026-05-02T04:33:39.44Z</time></trkpt><trkpt lat="44.1704517" lon="12.0009"><ele>98.0</ele><time>2026-05-02T04:33:40.44Z</time></trkpt><trkpt lat="44.1705" lon="12.000985"><ele>97.33333333333333</ele><time>2026-05-02T04:33:41.44Z</time></trkpt><trkpt lat="44.1705483" lon="12.0010667"><ele>96.66666666666666</ele><time>2026-05-02T04:33:42.443Z</time></trkpt><trkpt lat="44.170595" lon="12.0011517"><ele>96.0</ele><time>2026-05-02T04:33:43.441Z</time></trkpt><trkpt lat="44.1706417" lon="12.0012367"><ele>95.33333333333333</ele><time>2026-05-02T04:33:44.442Z</time></trkpt><trkpt lat="44.170685" lon="12.0013183"><ele>94.66666666666666</ele><time>2026-05-02T04:33:45.442Z</time></trkpt><trkpt lat="44.1707317" lon="12.0014"><ele>94.0</ele><time>2026-05-02T04:33:46.442Z</time></trkpt><trkpt lat="44.17078" lon="12.00148"><ele>94.0</ele><time>2026-05-02T04:33:47.442Z</time></trkpt><trkpt lat="44.1708233" lon="12.0015633"><ele>94.0</ele><time>2026-05-02T04:33:48.441Z</time></trkpt><trkpt lat="44.1708617" lon="12.0016467"><ele>94.0</ele><time>2026-05-02T04:33:49.44Z</time></trkpt><trkpt lat="44.170895" lon="12.00173"><ele>94.0</ele><time>2026-05-02T04:33:50.441Z</time></trkpt><trkpt lat="44.1709317" lon="12.0018017"><ele>94.0</ele><time>2026-05-02T04:33:51.441Z</time></trkpt><trkpt lat="44.1709767" lon="12.0018633"><ele>94.0</ele><time>2026-05-02T04:33:52.44Z</time></trkpt><trkpt lat="44.1710267" lon="12.0019167"><ele>94.0</ele><time>2026-05-02T04:33:53.441Z</time></trkpt><trkpt lat="44.171085" lon="12.0019633"><ele>93.85714285714286</ele><time>2026-05-02T04:33:54.441Z</time></trkpt><trkpt lat="44.1711483" lon="12.002005"><ele>93.71428571428571</ele><time>2026-05-02T04:33:55.443Z</time></trkpt><trkpt lat="44.1712117" lon="12.0020467"><ele>93.57142857142858</ele><time>2026-05-02T04:33:56.442Z</time></trkpt><trkpt lat="44.171275" lon="12.0020967"><ele>93.42857142857143</ele><time>2026-05-02T04:33:57.443Z</time></trkpt><trkpt lat="44.1713383" lon="12.0021483"><ele>93.28571428571429</ele><time>2026-05-02T04:33:58.443Z</time></trkpt><trkpt lat="44.1714" lon="12.0022033"><ele>93.14285714285715</ele><time>2026-05-02T04:33:59.438Z</time></trkpt><trkpt lat="44.17146" lon="12.0022583"><ele>93.0</ele><time>2026-05-02T04:34:00.44Z</time></trkpt><trkpt lat="44.1715233" lon="12.0023117"><ele>92.83333333333333</ele><time>2026-05-02T04:34:01.44Z</time></trkpt><trkpt lat="44.1715883" lon="12.0023683"><ele>92.66666666666667</ele><time>2026-05-02T04:34:02.44Z</time></trkpt><trkpt lat="44.1716517" lon="12.0024267"><ele>92.5</ele><time>2026-05-02T04:34:03.441Z</time></trkpt><trkpt lat="44.1717167" lon="12.0024833"><ele>92.33333333333334</ele><time>2026-05-02T04:34:04.44Z</time></trkpt><trkpt lat="44.17178" lon="12.0025417"><ele>92.16666666666667</ele><time>2026-05-02T04:34:05.44Z</time></trkpt><trkpt lat="44.171845" lon="12.0026"><ele>92.0</ele><time>2026-05-02T04:34:06.439Z</time></trkpt><trkpt lat="44.17191" lon="12.00266"><ele>91.57142857142857</ele><time>2026-05-02T04:34:07.439Z</time></trkpt><trkpt lat="44.171975" lon="12.0027183"><ele>91.14285714285714</ele><time>2026-05-02T04:34:08.439Z</time></trkpt><trkpt lat="44.1720367" lon="12.0027783"><ele>90.71428571428571</ele><time>2026-05-02T04:34:09.443Z</time></trkpt><trkpt lat="44.1720983" lon="12.0028367"><ele>90.28571428571428</ele><time>2026-05-02T04:34:10.442Z</time></trkpt><trkpt lat="44.1721583" lon="12.0029"><ele>89.85714285714286</ele><time>2026-05-02T04:34:11.442Z</time></trkpt><trkpt lat="44.172215" lon="12.0029617"><ele>89.42857142857142</ele><time>2026-05-02T04:34:12.442Z</time></trkpt><trkpt lat="44.1722717" lon="12.0030183"><ele>89.0</ele><time>2026-05-02T04:34:13.443Z</time></trkpt><trkpt lat="44.172345" lon="12.003085"><ele>88.83333333333334</ele><time>2026-05-02T04:34:15.443Z</time></trkpt><trkpt lat="44.1724" lon="12.00317"><ele>88.66666666666667</ele><time>2026-05-02T04:34:58.439Z</time></trkpt><trkpt lat="44.1724517" lon="12.003225"><ele>88.5</ele><time>2026-05-02T04:35:00.44Z</time></trkpt><trkpt lat="44.1725233" lon="12.00329"><ele>88.33333333333333</ele><time>2026-05-02T04:35:02.443Z</time></trkpt><trkpt lat="44.1725983" lon="12.0033583"><ele>88.16666666666666</ele><time>2026-05-02T04:35:04.442Z</time></trkpt><trkpt lat="44.1726733" lon="12.0034383"><ele>88.0</ele><time>2026-05-02T04:35:06.443Z</time></trkpt><trkpt lat="44.1727567" lon="12.0035183"><ele>87.75</ele><time>2026-05-02T04:35:08.442Z</time></trkpt><trkpt lat="44.172845" lon="12.0036033"><ele>87.5</ele><time>2026-05-02T04:35:10.443Z</time></trkpt><trkpt lat="44.1729383" lon="12.0036883"><ele>87.25</ele><time>2026-05-02T04:35:12.442Z</time></trkpt><trkpt lat="44.173035" lon="12.0037817"><ele>87.0</ele><time>2026-05-02T04:35:14.441Z</time></trkpt><trkpt lat="44.1731283" lon="12.0038867"><ele>86.83333333333333</ele><time>2026-05-02T04:35:16.441Z</time></trkpt><trkpt lat="44.173225" lon="12.0039783"><ele>86.66666666666667</ele><time>2026-05-02T04:35:18.439Z</time></trkpt><trkpt lat="44.1733183" lon="12.0040917"><ele>86.5</ele><time>2026-05-02T04:35:20.44Z</time></trkpt><trkpt lat="44.173365" lon="12.0041533"><ele>86.33333333333334</ele><time>2026-05-02T04:35:21.44Z</time></trkpt><trkpt lat="44.1734117" lon="12.004215"><ele>86.16666666666667</ele><time>2026-05-02T04:35:22.44Z</time></trkpt><trkpt lat="44.17346" lon="12.00428"><ele>86.0</ele><time>2026-05-02T04:35:23.44Z</time></trkpt><trkpt lat="44.17351" lon="12.0043417"><ele>85.85714285714286</ele><time>2026-05-02T04:35:24.439Z</time></trkpt><trkpt lat="44.17356" lon="12.004405"><ele>85.71428571428572</ele><time>2026-05-02T04:35:25.443Z</time></trkpt><trkpt lat="44.1736117" lon="12.0044683"><ele>85.57142857142858</ele><time>2026-05-02T04:35:26.442Z</time></trkpt><trkpt lat="44.173665" lon="12.0045333"><ele>85.42857142857143</ele><time>2026-05-02T04:35:27.442Z</time></trkpt><trkpt lat="44.173715" lon="12.0046017"><ele>85.28571428571428</ele><time>2026-05-02T04:35:28.441Z</time></trkpt><trkpt lat="44.173765" lon="12.00467"><ele>85.14285714285715</ele><time>2026-05-02T04:35:29.443Z</time></trkpt><trkpt lat="44.1738117" lon="12.0047433"><ele>85.0</ele><time>2026-05-02T04:35:30.44Z</time></trkpt><trkpt lat="44.1738617" lon="12.004815"><ele>85.0</ele><time>2026-05-02T04:35:31.441Z</time></trkpt><trkpt lat="44.1739117" lon="12.0048867"><ele>85.0</ele><time>2026-05-02T04:35:32.442Z</time></trkpt><trkpt lat="44.1739617" lon="12.0049583"><ele>85.0</ele><time>2026-05-02T04:35:33.442Z</time></trkpt><trkpt lat="44.17401" lon="12.00503"><ele>85.0</ele><time>2026-05-02T04:35:34.441Z</time></trkpt><trkpt lat="44.17406" lon="12.0051"><ele>85.0</ele><time>2026-05-02T04:35:35.441Z</time></trkpt><trkpt lat="44.1741083" lon="12.0051717"><ele>85.0</ele><time>2026-05-02T04:35:36.439Z</time></trkpt><trkpt lat="44.1741583" lon="12.0052417"><ele>85.0</ele><time>2026-05-02T04:35:37.44Z</time></trkpt><trkpt lat="44.1742033" lon="12.0053033"><ele>84.83333333333333</ele><time>2026-05-02T04:35:38.442Z</time></trkpt><trkpt lat="44.1742533" lon="12.0053833"><ele>84.66666666666666</ele><time>2026-05-02T04:35:40.442Z</time></trkpt><trkpt lat="44.174235" lon="12.0054817"><ele>84.5</ele><time>2026-05-02T04:35:43.44Z</time></trkpt><trkpt lat="44.17418" lon="12.0055717"><ele>84.33333333333333</ele><time>2026-05-02T04:35:46.442Z</time></trkpt><trkpt lat="44.1741367" lon="12.0056483"><ele>84.16666666666667</ele><time>2026-05-02T04:35:48.443Z</time></trkpt><trkpt lat="44.1740883" lon="12.0057317"><ele>84.0</ele><time>2026-05-02T04:35:50.442Z</time></trkpt><trkpt lat="44.1740367" lon="12.0058283"><ele>83.83333333333333</ele><time>2026-05-02T04:35:52.438Z</time></trkpt><trkpt lat="44.1739917" lon="12.0059033"><ele>83.66666666666667</ele><time>2026-05-02T04:35:54.442Z</time></trkpt><trkpt lat="44.173935" lon="12.005995"><ele>83.5</ele><time>2026-05-02T04:35:57.44Z</time></trkpt><trkpt lat="44.1738833" lon="12.0060767"><ele>83.33333333333334</ele><time>2026-05-02T04:36:00.442Z</time></trkpt><trkpt lat="44.173835" lon="12.0061583"><ele>83.16666666666667</ele><time>2026-05-02T04:36:03.443Z</time></trkpt><trkpt lat="44.17379" lon="12.00624"><ele>83.0</ele><time>2026-05-02T04:36:06.441Z</time></trkpt><trkpt lat="44.1737333" lon="12.0063233"><ele>83.0</ele><time>2026-05-02T04:36:09.442Z</time></trkpt><trkpt lat="44.1736967" lon="12.0064167"><ele>83.0</ele><time>2026-05-02T04:36:12.439Z</time></trkpt><trkpt lat="44.173655" lon="12.0064933"><ele>83.0</ele><time>2026-05-02T04:36:14.439Z</time></trkpt><trkpt lat="44.1736083" lon="12.0065833"><ele>83.0</ele><time>2026-05-02T04:36:16.442Z</time></trkpt><trkpt lat="44.1735567" lon="12.0066767"><ele>83.0</ele><time>2026-05-02T04:36:18.44Z</time></trkpt><trkpt lat="44.1735167" lon="12.006785"><ele>83.0</ele><time>2026-05-02T04:36:20.44Z</time></trkpt><trkpt lat="44.1734517" lon="12.0068933"><ele>82.4</ele><time>2026-05-02T04:36:22.439Z</time></trkpt><trkpt lat="44.17338" lon="12.0070067"><ele>81.80000000000001</ele><time>2026-05-02T04:36:24.442Z</time></trkpt><trkpt lat="44.1733133" lon="12.0071317"><ele>81.2</ele><time>2026-05-02T04:36:26.441Z</time></trkpt><trkpt lat="44.1732683" lon="12.0072917"><ele>80.6</ele><time>2026-05-02T04:36:28.442Z</time></trkpt><trkpt lat="44.1732583" lon="12.00738"><ele>80.0</ele><time>2026-05-02T04:36:29.442Z</time></trkpt><trkpt lat="44.1732583" lon="12.0074683"><ele>79.0</ele><time>2026-05-02T04:36:30.442Z</time></trkpt><trkpt lat="44.1732833" lon="12.0076233"><ele>78.0</ele><time>2026-05-02T04:36:32.441Z</time></trkpt><trkpt lat="44.1732817" lon="12.007755"><ele>77.0</ele><time>2026-05-02T04:36:34.438Z</time></trkpt><trkpt lat="44.1732383" lon="12.0078617"><ele>76.0</ele><time>2026-05-02T04:36:36.439Z</time></trkpt><trkpt lat="44.1731583" lon="12.0079783"><ele>75.0</ele><time>2026-05-02T04:36:38.439Z</time></trkpt><trkpt lat="44.1730883" lon="12.0080867"><ele>74.25</ele><time>2026-05-02T04:36:40.442Z</time></trkpt><trkpt lat="44.1730217" lon="12.0082033"><ele>73.5</ele><time>2026-05-02T04:36:42.441Z</time></trkpt><trkpt lat="44.1729467" lon="12.0083267"><ele>72.75</ele><time>2026-05-02T04:36:44.442Z</time></trkpt><trkpt lat="44.1728683" lon="12.008455"><ele>72.0</ele><time>2026-05-02T04:36:46.44Z</time></trkpt><trkpt lat="44.17279" lon="12.0085833"><ele>71.0</ele><time>2026-05-02T04:36:48.439Z</time></trkpt><trkpt lat="44.1727117" lon="12.008715"><ele>70.0</ele><time>2026-05-02T04:36:50.44Z</time></trkpt><trkpt lat="44.17266" lon="12.0087933"><ele>69.0</ele><time>2026-05-02T04:36:51.439Z</time></trkpt><trkpt lat="44.1726167" lon="12.0088717"><ele>68.0</ele><time>2026-05-02T04:36:52.439Z</time></trkpt><trkpt lat="44.1725767" lon="12.0089433"><ele>67.0</ele><time>2026-05-02T04:36:53.439Z</time></trkpt><trkpt lat="44.1725333" lon="12.0090233"><ele>66.0</ele><time>2026-05-02T04:36:54.439Z</time></trkpt><trkpt lat="44.1724867" lon="12.0090983"><ele>65.5</ele><time>2026-05-02T04:36:55.439Z</time></trkpt><trkpt lat="44.1724417" lon="12.0091683"><ele>65.0</ele><time>2026-05-02T04:36:56.441Z</time></trkpt><trkpt lat="44.1723667" lon="12.0092983"><ele>64.5</ele><time>2026-05-02T04:36:58.441Z</time></trkpt><trkpt lat="44.17232" lon="12.0093633"><ele>64.0</ele><time>2026-05-02T04:36:59.443Z</time></trkpt><trkpt lat="44.1722717" lon="12.009425"><ele>63.5</ele><time>2026-05-02T04:37:00.439Z</time></trkpt><trkpt lat="44.1721817" lon="12.00951"><ele>63.0</ele><time>2026-05-02T04:37:02.44Z</time></trkpt><trkpt lat="44.1721033" lon="12.0095417"><ele>62.833333333333336</ele><time>2026-05-02T04:37:04.442Z</time></trkpt><trkpt lat="44.172035" lon="12.009565"><ele>62.66666666666667</ele><time>2026-05-02T04:37:06.441Z</time></trkpt><trkpt lat="44.17196" lon="12.009595"><ele>62.5</ele><time>2026-05-02T04:37:08.441Z</time></trkpt><trkpt lat="44.1719017" lon="12.0096683"><ele>62.333333333333336</ele><time>2026-05-02T04:37:10.44Z</time></trkpt><trkpt lat="44.1718367" lon="12.009735"><ele>62.16666666666667</ele><time>2026-05-02T04:37:12.443Z</time></trkpt><trkpt lat="44.1717667" lon="12.0098083"><ele>62.0</ele><time>2026-05-02T04:37:14.441Z</time></trkpt><trkpt lat="44.17171" lon="12.0098933"><ele>62.0</ele><time>2026-05-02T04:37:16.442Z</time></trkpt><trkpt lat="44.1716433" lon="12.0099867"><ele>62.0</ele><time>2026-05-02T04:37:18.439Z</time></trkpt><trkpt lat="44.1715683" lon="12.0100917"><ele>62.0</ele><time>2026-05-02T04:37:20.44Z</time></trkpt><trkpt lat="44.1714967" lon="12.0102083"><ele>62.0</ele><time>2026-05-02T04:37:22.438Z</time></trkpt><trkpt lat="44.171415" lon="12.01033"><ele>62.0</ele><time>2026-05-02T04:37:24.44Z</time></trkpt><trkpt lat="44.1713417" lon="12.010445"><ele>60.0</ele><time>2026-05-02T04:37:26.44Z</time></trkpt><trkpt lat="44.17127" lon="12.0105717"><ele>58.0</ele><time>2026-05-02T04:37:28.442Z</time></trkpt><trkpt lat="44.17118" lon="12.010695"><ele>56.0</ele><time>2026-05-02T04:37:30.442Z</time></trkpt><trkpt lat="44.1711333" lon="12.0107583"><ele>54.0</ele><time>2026-05-02T04:37:31.439Z</time></trkpt><trkpt lat="44.17106" lon="12.0108733"><ele>52.0</ele><time>2026-05-02T04:37:33.441Z</time></trkpt><trkpt lat="44.17099" lon="12.0109767"><ele>51.400000000000006</ele><time>2026-05-02T04:37:35.439Z</time></trkpt><trkpt lat="44.1708983" lon="12.0110983"><ele>50.800000000000004</ele><time>2026-05-02T04:37:37.439Z</time></trkpt><trkpt lat="44.1708533" lon="12.01116"><ele>50.2</ele><time>2026-05-02T04:37:38.443Z</time></trkpt><trkpt lat="44.1707667" lon="12.0112733"><ele>49.6</ele><time>2026-05-02T04:37:40.443Z</time></trkpt><trkpt lat="44.170695" lon="12.0113983"><ele>49.0</ele><time>2026-05-02T04:37:42.441Z</time></trkpt><trkpt lat="44.1706233" lon="12.0114983"><ele>48.6</ele><time>2026-05-02T04:37:44.443Z</time></trkpt><trkpt lat="44.1705417" lon="12.0116083"><ele>48.2</ele><time>2026-05-02T04:37:46.442Z</time></trkpt><trkpt lat="44.1704533" lon="12.0116833"><ele>47.800000000000004</ele><time>2026-05-02T04:37:48.441Z</time></trkpt><trkpt lat="44.1703683" lon="12.011755"><ele>47.400000000000006</ele><time>2026-05-02T04:37:50.441Z</time></trkpt><trkpt lat="44.1702833" lon="12.01183"><ele>47.0</ele><time>2026-05-02T04:37:52.439Z</time></trkpt><trkpt lat="44.1701917" lon="12.0119067"><ele>47.0</ele><time>2026-05-02T04:37:54.442Z</time></trkpt><trkpt lat="44.1701067" lon="12.0119733"><ele>47.0</ele><time>2026-05-02T04:37:56.442Z</time></trkpt><trkpt lat="44.170025" lon="12.0120383"><ele>47.0</ele><time>2026-05-02T04:37:58.441Z</time></trkpt><trkpt lat="44.169955" lon="12.012115"><ele>47.0</ele><time>2026-05-02T04:38:00.439Z</time></trkpt><trkpt lat="44.16987" lon="12.0121833"><ele>47.0</ele><time>2026-05-02T04:38:02.441Z</time></trkpt><trkpt lat="44.1697883" lon="12.01225"><ele>46.8</ele><time>2026-05-02T04:38:04.439Z</time></trkpt><trkpt lat="44.1697017" lon="12.0123167"><ele>46.6</ele><time>2026-05-02T04:38:06.439Z</time></trkpt><trkpt lat="44.16962" lon="12.0123917"><ele>46.4</ele><time>2026-05-02T04:38:08.443Z</time></trkpt><trkpt lat="44.169535" lon="12.01246"><ele>46.199999999999996</ele><time>2026-05-02T04:38:10.442Z</time></trkpt><trkpt lat="44.1694517" lon="12.0125267"><ele>46.0</ele><time>2026-05-02T04:38:12.441Z</time></trkpt><trkpt lat="44.16937" lon="12.0126"><ele>46.0</ele><time>2026-05-02T04:38:14.441Z</time></trkpt><trkpt lat="44.1692867" lon="12.012675"><ele>46.0</ele><time>2026-05-02T04:38:16.44Z</time></trkpt><trkpt lat="44.1692033" lon="12.01275"><ele>46.0</ele><time>2026-05-02T04:38:18.442Z</time></trkpt><trkpt lat="44.16912" lon="12.0128183"><ele>46.0</ele><time>2026-05-02T04:38:20.442Z</time></trkpt><trkpt lat="44.1690417" lon="12.0128933"><ele>46.0</ele><time>2026-05-02T04:38:22.442Z</time></trkpt><trkpt lat="44.1689667" lon="12.0129767"><ele>46.333333333333336</ele><time>2026-05-02T04:38:24.438Z</time></trkpt><trkpt lat="44.1688933" lon="12.0130667"><ele>46.66666666666667</ele><time>2026-05-02T04:38:26.441Z</time></trkpt><trkpt lat="44.1688333" lon="12.0131517"><ele>47.0</ele><time>2026-05-02T04:38:28.441Z</time></trkpt><trkpt lat="44.1687883" lon="12.013225"><ele>47.333333333333336</ele><time>2026-05-02T04:38:30.443Z</time></trkpt><trkpt lat="44.1687383" lon="12.0133267"><ele>47.666666666666664</ele><time>2026-05-02T04:38:33.443Z</time></trkpt><trkpt lat="44.1686767" lon="12.0134217"><ele>48.0</ele><time>2026-05-02T04:38:36.443Z</time></trkpt><trkpt lat="44.1686217" lon="12.01349"><ele>48.857142857142854</ele><time>2026-05-02T04:38:39.442Z</time></trkpt><trkpt lat="44.1685633" lon="12.0135617"><ele>49.714285714285715</ele><time>2026-05-02T04:38:42.442Z</time></trkpt><trkpt lat="44.168515" lon="12.0136417"><ele>50.57142857142857</ele><time>2026-05-02T04:38:45.443Z</time></trkpt><trkpt lat="44.1684667" lon="12.01371"><ele>51.42857142857143</ele><time>2026-05-02T04:38:48.442Z</time></trkpt><trkpt lat="44.16842" lon="12.0137933"><ele>52.285714285714285</ele><time>2026-05-02T04:38:58.443Z</time></trkpt><trkpt lat="44.1684183" lon="12.01389"><ele>53.14285714285714</ele><time>2026-05-02T04:39:00.442Z</time></trkpt><trkpt lat="44.1684617" lon="12.0139867"><ele>54.0</ele><time>2026-05-02T04:39:02.442Z</time></trkpt><trkpt lat="44.168515" lon="12.01407"><ele>54.0</ele><time>2026-05-02T04:39:04.443Z</time></trkpt><trkpt lat="44.168565" lon="12.0141533"><ele>54.0</ele><time>2026-05-02T04:39:06.441Z</time></trkpt><trkpt lat="44.168615" lon="12.014245"><ele>54.0</ele><time>2026-05-02T04:39:08.443Z</time></trkpt><trkpt lat="44.1686717" lon="12.0143417"><ele>54.0</ele><time>2026-05-02T04:39:10.442Z</time></trkpt><trkpt lat="44.1687333" lon="12.01444"><ele>54.0</ele><time>2026-05-02T04:39:12.442Z</time></trkpt><trkpt lat="44.1688033" lon="12.01454"><ele>54.0</ele><time>2026-05-02T04:39:14.442Z</time></trkpt><trkpt lat="44.1688717" lon="12.0146383"><ele>53.800000000000004</ele><time>2026-05-02T04:39:16.441Z</time></trkpt><trkpt lat="44.16894" lon="12.01474"><ele>53.60000000000001</ele><time>2026-05-02T04:39:18.442Z</time></trkpt><trkpt lat="44.1690083" lon="12.0148433"><ele>53.4</ele><time>2026-05-02T04:39:20.441Z</time></trkpt><trkpt lat="44.16908" lon="12.0149483"><ele>53.2</ele><time>2026-05-02T04:39:22.441Z</time></trkpt><trkpt lat="44.1691517" lon="12.0150567"><ele>53.0</ele><time>2026-05-02T04:39:24.441Z</time></trkpt><trkpt lat="44.1692283" lon="12.0151633"><ele>53.0</ele><time>2026-05-02T04:39:26.442Z</time></trkpt><trkpt lat="44.16931" lon="12.0152733"><ele>53.0</ele><time>2026-05-02T04:39:28.44Z</time></trkpt><trkpt lat="44.1693983" lon="12.01539"><ele>53.0</ele><time>2026-05-02T04:39:30.442Z</time></trkpt><trkpt lat="44.1694783" lon="12.0155083"><ele>53.0</ele><time>2026-05-02T04:39:32.441Z</time></trkpt><trkpt lat="44.169565" lon="12.0156283"><ele>53.0</ele><time>2026-05-02T04:39:34.443Z</time></trkpt><trkpt lat="44.1696517" lon="12.0157433"><ele>53.0</ele><time>2026-05-02T04:39:36.444Z</time></trkpt><trkpt lat="44.1697383" lon="12.01586"><ele>53.0</ele><time>2026-05-02T04:39:38.443Z</time></trkpt><trkpt lat="44.169825" lon="12.015975"><ele>53.0</ele><time>2026-05-02T04:39:40.443Z</time></trkpt><trkpt lat="44.1699133" lon="12.0160967"><ele>52.8</ele><time>2026-05-02T04:39:42.442Z</time></trkpt><trkpt lat="44.1700067" lon="12.0162133"><ele>52.599999999999994</ele><time>2026-05-02T04:39:44.44Z</time></trkpt><trkpt lat="44.170095" lon="12.0163367"><ele>52.400000000000006</ele><time>2026-05-02T04:39:46.44Z</time></trkpt><trkpt lat="44.170145" lon="12.016395"><ele>52.2</ele><time>2026-05-02T04:39:47.443Z</time></trkpt><trkpt lat="44.1701933" lon="12.0164533"><ele>52.0</ele><time>2026-05-02T04:39:48.441Z</time></trkpt><trkpt lat="44.170275" lon="12.0165833"><ele>52.0</ele><time>2026-05-02T04:39:50.442Z</time></trkpt><trkpt lat="44.1703217" lon="12.0166433"><ele>52.0</ele><time>2026-05-02T04:39:51.442Z</time></trkpt><trkpt lat="44.17037" lon="12.0167017"><ele>52.0</ele><time>2026-05-02T04:39:52.44Z</time></trkpt><trkpt lat="44.1704583" lon="12.0168217"><ele>52.0</ele><time>2026-05-02T04:39:54.441Z</time></trkpt><trkpt lat="44.170545" lon="12.01694"><ele>52.0</ele><time>2026-05-02T04:39:56.443Z</time></trkpt><trkpt lat="44.1706333" lon="12.017055"><ele>52.0</ele><time>2026-05-02T04:39:58.441Z</time></trkpt><trkpt lat="44.1706783" lon="12.0171167"><ele>52.0</ele><time>2026-05-02T04:39:59.442Z</time></trkpt><trkpt lat="44.1707617" lon="12.0172283"><ele>52.0</ele><time>2026-05-02T04:40:01.443Z</time></trkpt><trkpt lat="44.1708467" lon="12.0173517"><ele>52.0</ele><time>2026-05-02T04:40:03.444Z</time></trkpt><trkpt lat="44.17093" lon="12.01747"><ele>52.0</ele><time>2026-05-02T04:40:05.443Z</time></trkpt><trkpt lat="44.17102" lon="12.017585"><ele>52.25</ele><time>2026-05-02T04:40:07.442Z</time></trkpt><trkpt lat="44.1711083" lon="12.017705"><ele>52.5</ele><time>2026-05-02T04:40:09.443Z</time></trkpt><trkpt lat="44.171195" lon="12.017825"><ele>52.75</ele><time>2026-05-02T04:40:11.441Z</time></trkpt><trkpt lat="44.1712833" lon="12.0179433"><ele>53.0</ele><time>2026-05-02T04:40:13.444Z</time></trkpt><trkpt lat="44.1713683" lon="12.0180667"><ele>53.0</ele><time>2026-05-02T04:40:15.442Z</time></trkpt><trkpt lat="44.1714533" lon="12.0181917"><ele>53.0</ele><time>2026-05-02T04:40:17.442Z</time></trkpt><trkpt lat="44.1714967" lon="12.0182567"><ele>53.0</ele><time>2026-05-02T04:40:18.443Z</time></trkpt><trkpt lat="44.17159" lon="12.0183717"><ele>53.0</ele><time>2026-05-02T04:40:20.441Z</time></trkpt><trkpt lat="44.171635" lon="12.0184333"><ele>53.0</ele><time>2026-05-02T04:40:21.442Z</time></trkpt><trkpt lat="44.17172" lon="12.0185517"><ele>52.8</ele><time>2026-05-02T04:40:23.439Z</time></trkpt><trkpt lat="44.1718083" lon="12.0186733"><ele>52.599999999999994</ele><time>2026-05-02T04:40:25.44Z</time></trkpt><trkpt lat="44.1719" lon="12.018795"><ele>52.400000000000006</ele><time>2026-05-02T04:40:27.441Z</time></trkpt><trkpt lat="44.1719467" lon="12.0188567"><ele>52.2</ele><time>2026-05-02T04:40:28.439Z</time></trkpt><trkpt lat="44.1719917" lon="12.0189183"><ele>52.0</ele><time>2026-05-02T04:40:29.44Z</time></trkpt><trkpt lat="44.1720783" lon="12.0190383"><ele>52.0</ele><time>2026-05-02T04:40:31.443Z</time></trkpt><trkpt lat="44.1721667" lon="12.0191567"><ele>52.0</ele><time>2026-05-02T04:40:33.443Z</time></trkpt><trkpt lat="44.1722567" lon="12.0192767"><ele>52.0</ele><time>2026-05-02T04:40:35.443Z</time></trkpt><trkpt lat="44.1723383" lon="12.0194017"><ele>52.0</ele><time>2026-05-02T04:40:37.443Z</time></trkpt><trkpt lat="44.17242" lon="12.0195267"><ele>52.0</ele><time>2026-05-02T04:40:39.441Z</time></trkpt><trkpt lat="44.172495" lon="12.0196617"><ele>52.0</ele><time>2026-05-02T04:40:41.442Z</time></trkpt><trkpt lat="44.17256" lon="12.019805"><ele>52.0</ele><time>2026-05-02T04:40:43.443Z</time></trkpt><trkpt lat="44.1726183" lon="12.0199533"><ele>52.0</ele><time>2026-05-02T04:40:45.443Z</time></trkpt><trkpt lat="44.1726583" lon="12.020115"><ele>52.0</ele><time>2026-05-02T04:40:47.443Z</time></trkpt><trkpt lat="44.1726767" lon="12.0202817"><ele>52.0</ele><time>2026-05-02T04:40:49.44Z</time></trkpt><trkpt lat="44.1726583" lon="12.02043"><ele>52.0</ele><time>2026-05-02T04:40:51.441Z</time></trkpt><trkpt lat="44.172595" lon="12.0205567"><ele>52.0</ele><time>2026-05-02T04:40:53.44Z</time></trkpt><trkpt lat="44.1725283" lon="12.0206817"><ele>52.0</ele><time>2026-05-02T04:40:55.439Z</time></trkpt><trkpt lat="44.1725133" lon="12.02083"><ele>52.0</ele><time>2026-05-02T04:40:57.439Z</time></trkpt><trkpt lat="44.17255" lon="12.0209683"><ele>52.0</ele><time>2026-05-02T04:40:59.44Z</time></trkpt><trkpt lat="44.1725633" lon="12.021115"><ele>52.0</ele><time>2026-05-02T04:41:01.443Z</time></trkpt><trkpt lat="44.1725433" lon="12.02125"><ele>52.0</ele><time>2026-05-02T04:41:03.442Z</time></trkpt><trkpt lat="44.1725183" lon="12.0213833"><ele>52.0</ele><time>2026-05-02T04:41:05.443Z</time></trkpt><trkpt lat="44.1724933" lon="12.02152"><ele>52.0</ele><time>2026-05-02T04:41:07.443Z</time></trkpt><trkpt lat="44.17246" lon="12.0216533"><ele>52.0</ele><time>2026-05-02T04:41:09.443Z</time></trkpt><trkpt lat="44.1724117" lon="12.0217817"><ele>52.0</ele><time>2026-05-02T04:41:11.442Z</time></trkpt><trkpt lat="44.1723567" lon="12.0219033"><ele>52.0</ele><time>2026-05-02T04:41:13.442Z</time></trkpt><trkpt lat="44.1723017" lon="12.0220133"><ele>52.2</ele><time>2026-05-02T04:41:15.444Z</time></trkpt><trkpt lat="44.17223" lon="12.0221067"><ele>52.400000000000006</ele><time>2026-05-02T04:41:17.441Z</time></trkpt><trkpt lat="44.17215" lon="12.0221883"><ele>52.599999999999994</ele><time>2026-05-02T04:41:19.441Z</time></trkpt><trkpt lat="44.1720683" lon="12.02226"><ele>52.8</ele><time>2026-05-02T04:41:21.441Z</time></trkpt><trkpt lat="44.1720017" lon="12.02233"><ele>53.0</ele><time>2026-05-02T04:41:23.44Z</time></trkpt><trkpt lat="44.17193" lon="12.0223933"><ele>53.00000000000001</ele><time>2026-05-02T04:41:25.443Z</time></trkpt><trkpt lat="44.1718483" lon="12.0224533"><ele>53.0</ele><time>2026-05-02T04:41:27.441Z</time></trkpt><trkpt lat="44.17177" lon="12.022515"><ele>53.0</ele><time>2026-05-02T04:41:29.441Z</time></trkpt><trkpt lat="44.1716917" lon="12.0225683"><ele>53.0</ele><time>2026-05-02T04:41:31.44Z</time></trkpt><trkpt lat="44.1716267" lon="12.0226217"><ele>53.00000000000001</ele><time>2026-05-02T04:41:33.44Z</time></trkpt><trkpt lat="44.1715533" lon="12.02269"><ele>53.0</ele><time>2026-05-02T04:41:35.44Z</time></trkpt><trkpt lat="44.171475" lon="12.0227483"><ele>53.00000000000001</ele><time>2026-05-02T04:41:37.442Z</time></trkpt><trkpt lat="44.1714" lon="12.0228083"><ele>53.0</ele><time>2026-05-02T04:41:39.445Z</time></trkpt><trkpt lat="44.171325" lon="12.02286"><ele>53.0</ele><time>2026-05-02T04:41:41.44Z</time></trkpt><trkpt lat="44.171245" lon="12.0229167"><ele>53.0</ele><time>2026-05-02T04:41:43.439Z</time></trkpt><trkpt lat="44.171165" lon="12.02298"><ele>53.00000000000001</ele><time>2026-05-02T04:41:45.441Z</time></trkpt><trkpt lat="44.1710867" lon="12.0230433"><ele>53.0</ele><time>2026-05-02T04:41:47.442Z</time></trkpt><trkpt lat="44.17101" lon="12.0231067"><ele>53.00000000000001</ele><time>2026-05-02T04:41:49.439Z</time></trkpt><trkpt lat="44.17093" lon="12.0231617"><ele>53.0</ele><time>2026-05-02T04:41:51.441Z</time></trkpt><trkpt lat="44.1708533" lon="12.02322"><ele>53.0</ele><time>2026-05-02T04:41:53.44Z</time></trkpt><trkpt lat="44.170775" lon="12.0232783"><ele>53.0</ele><time>2026-05-02T04:41:55.439Z</time></trkpt><trkpt lat="44.1707017" lon="12.0233333"><ele>53.00000000000001</ele><time>2026-05-02T04:41:57.441Z</time></trkpt><trkpt lat="44.17063" lon="12.0233883"><ele>53.0</ele><time>2026-05-02T04:41:59.442Z</time></trkpt><trkpt lat="44.1705633" lon="12.0234383"><ele>53.4</ele><time>2026-05-02T04:42:01.44Z</time></trkpt><trkpt lat="44.1705033" lon="12.0235233"><ele>53.8</ele><time>2026-05-02T04:42:04.439Z</time></trkpt><trkpt lat="44.1704267" lon="12.0236633"><ele>54.2</ele><time>2026-05-02T04:42:20.443Z</time></trkpt><trkpt lat="44.1704" lon="12.0237767"><ele>54.6</ele><time>2026-05-02T04:42:23.442Z</time></trkpt><trkpt lat="44.170385" lon="12.0238783"><ele>55.0</ele><time>2026-05-02T04:42:25.443Z</time></trkpt><trkpt lat="44.1703867" lon="12.0239867"><ele>55.0</ele><time>2026-05-02T04:42:27.444Z</time></trkpt><trkpt lat="44.1704117" lon="12.024105"><ele>55.0</ele><time>2026-05-02T04:42:29.442Z</time></trkpt><trkpt lat="44.1704367" lon="12.0242267"><ele>55.0</ele><time>2026-05-02T04:42:31.444Z</time></trkpt><trkpt lat="44.170455" lon="12.02436"><ele>55.0</ele><time>2026-05-02T04:42:33.443Z</time></trkpt><trkpt lat="44.1704683" lon="12.0244967"><ele>55.0</ele><time>2026-05-02T04:42:35.442Z</time></trkpt><trkpt lat="44.170485" lon="12.0246383"><ele>55.2</ele><time>2026-05-02T04:42:37.442Z</time></trkpt><trkpt lat="44.1705067" lon="12.0247817"><ele>55.4</ele><time>2026-05-02T04:42:39.443Z</time></trkpt><trkpt lat="44.170535" lon="12.0249183"><ele>55.599999999999994</ele><time>2026-05-02T04:42:41.442Z</time></trkpt><trkpt lat="44.1705683" lon="12.0250533"><ele>55.8</ele><time>2026-05-02T04:42:43.443Z</time></trkpt><trkpt lat="44.17059" lon="12.0251967"><ele>56.0</ele><time>2026-05-02T04:42:45.443Z</time></trkpt><trkpt lat="44.1706117" lon="12.0253483"><ele>56.0</ele><time>2026-05-02T04:42:47.443Z</time></trkpt><trkpt lat="44.17064" lon="12.0255017"><ele>56.0</ele><time>2026-05-02T04:42:49.442Z</time></trkpt><trkpt lat="44.1706667" lon="12.0256567"><ele>56.0</ele><time>2026-05-02T04:42:51.442Z</time></trkpt><trkpt lat="44.17069" lon="12.0258133"><ele>56.0</ele><time>2026-05-02T04:42:53.443Z</time></trkpt><trkpt lat="44.1707183" lon="12.0259667"><ele>56.0</ele><time>2026-05-02T04:42:55.439Z</time></trkpt><trkpt lat="44.17075" lon="12.02612"><ele>56.0</ele><time>2026-05-02T04:42:57.443Z</time></trkpt><trkpt lat="44.170785" lon="12.0262733"><ele>56.0</ele><time>2026-05-02T04:42:59.442Z</time></trkpt><trkpt lat="44.1708367" lon="12.0264133"><ele>56.0</ele><time>2026-05-02T04:43:01.442Z</time></trkpt><trkpt lat="44.1708883" lon="12.026565"><ele>56.00000000000001</ele><time>2026-05-02T04:43:03.443Z</time></trkpt><trkpt lat="44.1709383" lon="12.026725"><ele>56.0</ele><time>2026-05-02T04:43:05.443Z</time></trkpt><trkpt lat="44.1709617" lon="12.0268083"><ele>56.0</ele><time>2026-05-02T04:43:06.442Z</time></trkpt><trkpt lat="44.1709817" lon="12.0268933"><ele>56.0</ele><time>2026-05-02T04:43:07.442Z</time></trkpt><trkpt lat="44.1710033" lon="12.0269817"><ele>56.00000000000001</ele><time>2026-05-02T04:43:08.442Z</time></trkpt><trkpt lat="44.171025" lon="12.0270683"><ele>56.0</ele><time>2026-05-02T04:43:09.442Z</time></trkpt><trkpt lat="44.171045" lon="12.0271567"><ele>56.0</ele><time>2026-05-02T04:43:10.442Z</time></trkpt><trkpt lat="44.1710617" lon="12.027245"><ele>56.0</ele><time>2026-05-02T04:43:11.443Z</time></trkpt><trkpt lat="44.17108" lon="12.0273333"><ele>56.0</ele><time>2026-05-02T04:43:12.443Z</time></trkpt><trkpt lat="44.1711" lon="12.0274183"><ele>56.0</ele><time>2026-05-02T04:43:13.443Z</time></trkpt><trkpt lat="44.171125" lon="12.0275033"><ele>56.0</ele><time>2026-05-02T04:43:14.443Z</time></trkpt><trkpt lat="44.1711567" lon="12.0275817"><ele>56.0</ele><time>2026-05-02T04:43:15.443Z</time></trkpt><trkpt lat="44.171195" lon="12.0276533"><ele>56.0</ele><time>2026-05-02T04:43:16.442Z</time></trkpt><trkpt lat="44.1712867" lon="12.0277733"><ele>56.0</ele><time>2026-05-02T04:43:18.442Z</time></trkpt><trkpt lat="44.17134" lon="12.0278233"><ele>56.0</ele><time>2026-05-02T04:43:19.443Z</time></trkpt><trkpt lat="44.171395" lon="12.0278733"><ele>56.0</ele><time>2026-05-02T04:43:20.442Z</time></trkpt><trkpt lat="44.171455" lon="12.0279167"><ele>56.0</ele><time>2026-05-02T04:43:21.443Z</time></trkpt><trkpt lat="44.1715133" lon="12.0279633"><ele>56.0</ele><time>2026-05-02T04:43:22.442Z</time></trkpt><trkpt lat="44.1715717" lon="12.0280133"><ele>56.0</ele><time>2026-05-02T04:43:23.443Z</time></trkpt><trkpt lat="44.1716283" lon="12.02806"><ele>56.0</ele><time>2026-05-02T04:43:24.442Z</time></trkpt><trkpt lat="44.171685" lon="12.0281067"><ele>55.333333333333336</ele><time>2026-05-02T04:43:25.442Z</time></trkpt><trkpt lat="44.171745" lon="12.0281517"><ele>54.66666666666667</ele><time>2026-05-02T04:43:26.443Z</time></trkpt><trkpt lat="44.1718017" lon="12.0281933"><ele>54.0</ele><time>2026-05-02T04:43:27.443Z</time></trkpt><trkpt lat="44.171915" lon="12.0282733"><ele>53.33333333333333</ele><time>2026-05-02T04:43:29.442Z</time></trkpt><trkpt lat="44.1719733" lon="12.0283133"><ele>52.666666666666664</ele><time>2026-05-02T04:43:30.443Z</time></trkpt><trkpt lat="44.1720383" lon="12.0283517"><ele>52.0</ele><time>2026-05-02T04:43:31.443Z</time></trkpt><trkpt lat="44.1721" lon="12.0283867"><ele>51.99999999999999</ele><time>2026-05-02T04:43:32.443Z</time></trkpt><trkpt lat="44.172215" lon="12.028455"><ele>52.0</ele><time>2026-05-02T04:43:34.443Z</time></trkpt><trkpt lat="44.1722767" lon="12.02849"><ele>52.0</ele><time>2026-05-02T04:43:35.443Z</time></trkpt><trkpt lat="44.1723383" lon="12.0285233"><ele>52.0</ele><time>2026-05-02T04:43:36.442Z</time></trkpt><trkpt lat="44.1724" lon="12.0285583"><ele>51.99999999999999</ele><time>2026-05-02T04:43:37.442Z</time></trkpt><trkpt lat="44.17246" lon="12.0285917"><ele>52.0</ele><time>2026-05-02T04:43:38.443Z</time></trkpt><trkpt lat="44.1725217" lon="12.02862"><ele>51.857142857142854</ele><time>2026-05-02T04:43:39.442Z</time></trkpt><trkpt lat="44.1725833" lon="12.0286533"><ele>51.714285714285715</ele><time>2026-05-02T04:43:40.443Z</time></trkpt><trkpt lat="44.1726483" lon="12.0286867"><ele>51.57142857142857</ele><time>2026-05-02T04:43:41.441Z</time></trkpt><trkpt lat="44.1727117" lon="12.0287167"><ele>51.42857142857143</ele><time>2026-05-02T04:43:42.443Z</time></trkpt><trkpt lat="44.1727733" lon="12.0287483"><ele>51.28571428571429</ele><time>2026-05-02T04:43:43.438Z</time></trkpt><trkpt lat="44.17283" lon="12.0287933"><ele>51.142857142857146</ele><time>2026-05-02T04:43:44.445Z</time></trkpt><trkpt lat="44.17288" lon="12.0288483"><ele>51.0</ele><time>2026-05-02T04:43:45.442Z</time></trkpt><trkpt lat="44.1729617" lon="12.0289833"><ele>51.0</ele><time>2026-05-02T04:43:47.442Z</time></trkpt><trkpt lat="44.173045" lon="12.0291167"><ele>51.0</ele><time>2026-05-02T04:43:49.442Z</time></trkpt><trkpt lat="44.1730867" lon="12.029185"><ele>51.0</ele><time>2026-05-02T04:43:50.443Z</time></trkpt><trkpt lat="44.1731267" lon="12.0292533"><ele>51.0</ele><time>2026-05-02T04:43:51.442Z</time></trkpt><trkpt lat="44.1731667" lon="12.0293217"><ele>51.0</ele><time>2026-05-02T04:43:52.443Z</time></trkpt><trkpt lat="44.1732083" lon="12.02939"><ele>51.0</ele><time>2026-05-02T04:43:53.443Z</time></trkpt><trkpt lat="44.17325" lon="12.0294583"><ele>51.0</ele><time>2026-05-02T04:43:54.442Z</time></trkpt><trkpt lat="44.1732933" lon="12.029525"><ele>51.0</ele><time>2026-05-02T04:43:55.443Z</time></trkpt><trkpt lat="44.173375" lon="12.02966"><ele>51.0</ele><time>2026-05-02T04:43:57.442Z</time></trkpt><trkpt lat="44.17345" lon="12.0297983"><ele>51.0</ele><time>2026-05-02T04:43:59.439Z</time></trkpt><trkpt lat="44.1735267" lon="12.0299283"><ele>51.0</ele><time>2026-05-02T04:44:01.444Z</time></trkpt><trkpt lat="44.1735867" lon="12.03006"><ele>51.0</ele><time>2026-05-02T04:44:03.442Z</time></trkpt><trkpt lat="44.1735817" lon="12.0302117"><ele>51.0</ele><time>2026-05-02T04:44:05.443Z</time></trkpt><trkpt lat="44.1734867" lon="12.0303"><ele>51.0</ele><time>2026-05-02T04:44:07.443Z</time></trkpt><trkpt lat="44.1733933" lon="12.0303867"><ele>51.0</ele><time>2026-05-02T04:44:09.443Z</time></trkpt><trkpt lat="44.1732883" lon="12.030465"><ele>51.0</ele><time>2026-05-02T04:44:11.442Z</time></trkpt><trkpt lat="44.1731917" lon="12.03054"><ele>51.0</ele><time>2026-05-02T04:44:13.44Z</time></trkpt><trkpt lat="44.173115" lon="12.0306033"><ele>51.0</ele><time>2026-05-02T04:44:15.443Z</time></trkpt><trkpt lat="44.173035" lon="12.0306717"><ele>51.0</ele><time>2026-05-02T04:44:17.443Z</time></trkpt><trkpt lat="44.172955" lon="12.0307383"><ele>51.0</ele><time>2026-05-02T04:44:19.44Z</time></trkpt><trkpt lat="44.1728783" lon="12.030805"><ele>51.0</ele><time>2026-05-02T04:44:21.441Z</time></trkpt><trkpt lat="44.172795" lon="12.03088"><ele>51.0</ele><time>2026-05-02T04:44:23.44Z</time></trkpt><trkpt lat="44.17271" lon="12.0309467"><ele>51.0</ele><time>2026-05-02T04:44:25.443Z</time></trkpt><trkpt lat="44.17263" lon="12.0310083"><ele>51.0</ele><time>2026-05-02T04:44:27.442Z</time></trkpt><trkpt lat="44.1725433" lon="12.0310617"><ele>51.0</ele><time>2026-05-02T04:44:29.44Z</time></trkpt><trkpt lat="44.1724517" lon="12.0311117"><ele>51.0</ele><time>2026-05-02T04:44:31.439Z</time></trkpt><trkpt lat="44.1723567" lon="12.0311567"><ele>51.0</ele><time>2026-05-02T04:44:33.439Z</time></trkpt><trkpt lat="44.1722667" lon="12.031205"><ele>51.0</ele><time>2026-05-02T04:44:35.439Z</time></trkpt><trkpt lat="44.1721817" lon="12.0312517"><ele>51.0</ele><time>2026-05-02T04:44:37.439Z</time></trkpt><trkpt lat="44.1720933" lon="12.031295"><ele>51.0</ele><time>2026-05-02T04:44:39.44Z</time></trkpt><trkpt lat="44.1720083" lon="12.0313383"><ele>51.0</ele><time>2026-05-02T04:44:41.44Z</time></trkpt><trkpt lat="44.1719233" lon="12.031365"><ele>51.0</ele><time>2026-05-02T04:44:43.44Z</time></trkpt><trkpt lat="44.1718467" lon="12.0313533"><ele>51.0</ele><time>2026-05-02T04:44:45.441Z</time></trkpt><trkpt lat="44.1717683" lon="12.03132"><ele>51.0</ele><time>2026-05-02T04:44:47.443Z</time></trkpt><trkpt lat="44.17169" lon="12.0312967"><ele>51.0</ele><time>2026-05-02T04:44:49.442Z</time></trkpt><trkpt lat="44.1716083" lon="12.0312967"><ele>51.0</ele><time>2026-05-02T04:44:51.442Z</time></trkpt><trkpt lat="44.1715383" lon="12.03135"><ele>51.166666666666664</ele><time>2026-05-02T04:44:53.442Z</time></trkpt><trkpt lat="44.17148" lon="12.0314317"><ele>51.33333333333333</ele><time>2026-05-02T04:44:55.441Z</time></trkpt><trkpt lat="44.1714233" lon="12.031515"><ele>51.5</ele><time>2026-05-02T04:44:57.441Z</time></trkpt><trkpt lat="44.1713583" lon="12.0315817"><ele>51.666666666666664</ele><time>2026-05-02T04:44:59.439Z</time></trkpt><trkpt lat="44.1712817" lon="12.0316267"><ele>51.83333333333333</ele><time>2026-05-02T04:45:01.443Z</time></trkpt><trkpt lat="44.1712017" lon="12.0316617"><ele>52.0</ele><time>2026-05-02T04:45:03.443Z</time></trkpt><trkpt lat="44.1711233" lon="12.0316833"><ele>51.99999999999999</ele><time>2026-05-02T04:45:05.443Z</time></trkpt><trkpt lat="44.17105" lon="12.0317"><ele>52.0</ele><time>2026-05-02T04:45:07.442Z</time></trkpt><trkpt lat="44.170965" lon="12.0317133"><ele>52.0</ele><time>2026-05-02T04:45:09.442Z</time></trkpt><trkpt lat="44.1708817" lon="12.031735"><ele>52.0</ele><time>2026-05-02T04:45:11.446Z</time></trkpt><trkpt lat="44.1707983" lon="12.03175"><ele>51.99999999999999</ele><time>2026-05-02T04:45:13.443Z</time></trkpt><trkpt lat="44.1707183" lon="12.031755"><ele>52.0</ele><time>2026-05-02T04:45:15.442Z</time></trkpt><trkpt lat="44.17064" lon="12.0317617"><ele>52.166666666666664</ele><time>2026-05-02T04:45:17.443Z</time></trkpt><trkpt lat="44.1705683" lon="12.0317767"><ele>52.33333333333333</ele><time>2026-05-02T04:45:19.442Z</time></trkpt><trkpt lat="44.1704967" lon="12.0317883"><ele>52.5</ele><time>2026-05-02T04:45:21.443Z</time></trkpt><trkpt lat="44.170415" lon="12.0317967"><ele>52.66666666666667</ele><time>2026-05-02T04:45:23.442Z</time></trkpt><trkpt lat="44.170335" lon="12.03181"><ele>52.833333333333336</ele><time>2026-05-02T04:45:25.442Z</time></trkpt><trkpt lat="44.1702617" lon="12.03182"><ele>53.0</ele><time>2026-05-02T04:45:27.443Z</time></trkpt><trkpt lat="44.17019" lon="12.0318267"><ele>53.00000000000001</ele><time>2026-05-02T04:45:29.443Z</time></trkpt><trkpt lat="44.170125" lon="12.0318333"><ele>53.0</ele><time>2026-05-02T04:45:31.443Z</time></trkpt><trkpt lat="44.1700367" lon="12.0318467"><ele>53.0</ele><time>2026-05-02T04:45:34.442Z</time></trkpt><trkpt lat="44.1699483" lon="12.0318667"><ele>53.0</ele><time>2026-05-02T04:45:37.443Z</time></trkpt><trkpt lat="44.16987" lon="12.031875"><ele>53.00000000000001</ele><time>2026-05-02T04:45:40.441Z</time></trkpt><trkpt lat="44.1697967" lon="12.0318983"><ele>53.0</ele><time>2026-05-02T04:45:43.442Z</time></trkpt><trkpt lat="44.16972" lon="12.0319067"><ele>54.42857142857143</ele><time>2026-05-02T04:45:46.442Z</time></trkpt><trkpt lat="44.16964" lon="12.0319267"><ele>55.857142857142854</ele><time>2026-05-02T04:45:49.439Z</time></trkpt><trkpt lat="44.16957" lon="12.0319417"><ele>57.285714285714285</ele><time>2026-05-02T04:45:52.439Z</time></trkpt><trkpt lat="44.169505" lon="12.0319733"><ele>58.714285714285715</ele><time>2026-05-02T04:45:55.442Z</time></trkpt><trkpt lat="44.1694383" lon="12.03203"><ele>60.14285714285714</ele><time>2026-05-02T04:45:59.439Z</time></trkpt><trkpt lat="44.169385" lon="12.0321017"><ele>61.57142857142857</ele><time>2026-05-02T04:46:03.443Z</time></trkpt><trkpt lat="44.1693467" lon="12.0321733"><ele>63.0</ele><time>2026-05-02T04:46:07.44Z</time></trkpt><trkpt lat="44.1693183" lon="12.032275"><ele>63.0</ele><time>2026-05-02T04:46:11.442Z</time></trkpt><trkpt lat="44.169285" lon="12.032365"><ele>63.0</ele><time>2026-05-02T04:46:15.443Z</time></trkpt><trkpt lat="44.16925" lon="12.0324467"><ele>63.0</ele><time>2026-05-02T04:46:19.439Z</time></trkpt><trkpt lat="44.1692167" lon="12.032535"><ele>63.0</ele><time>2026-05-02T04:46:23.44Z</time></trkpt><trkpt lat="44.1691783" lon="12.032625"><ele>63.0</ele><time>2026-05-02T04:46:27.443Z</time></trkpt><trkpt lat="44.1691483" lon="12.0327233"><ele>63.0</ele><time>2026-05-02T04:46:31.442Z</time></trkpt><trkpt lat="44.1691283" lon="12.0328217"><ele>63.0</ele><time>2026-05-02T04:46:35.442Z</time></trkpt><trkpt lat="44.1691" lon="12.0329083"><ele>62.833333333333336</ele><time>2026-05-02T04:46:39.443Z</time></trkpt><trkpt lat="44.1690633" lon="12.033005"><ele>62.66666666666667</ele><time>2026-05-02T04:46:43.442Z</time></trkpt><trkpt lat="44.1690283" lon="12.0331017"><ele>62.5</ele><time>2026-05-02T04:46:47.439Z</time></trkpt><trkpt lat="44.169005" lon="12.03319"><ele>62.333333333333336</ele><time>2026-05-02T04:46:51.443Z</time></trkpt><trkpt lat="44.1689733" lon="12.0332933"><ele>62.16666666666667</ele><time>2026-05-02T04:46:56.439Z</time></trkpt><trkpt lat="44.1689517" lon="12.03339"><ele>62.0</ele><time>2026-05-02T04:47:00.441Z</time></trkpt><trkpt lat="44.1689133" lon="12.0334833"><ele>64.57142857142857</ele><time>2026-05-02T04:47:04.439Z</time></trkpt><trkpt lat="44.16888" lon="12.0335633"><ele>67.14285714285715</ele><time>2026-05-02T04:47:07.44Z</time></trkpt><trkpt lat="44.1688533" lon="12.0336567"><ele>69.71428571428572</ele><time>2026-05-02T04:47:11.44Z</time></trkpt><trkpt lat="44.1688367" lon="12.033745"><ele>72.28571428571429</ele><time>2026-05-02T04:47:15.439Z</time></trkpt><trkpt lat="44.1687917" lon="12.03381"><ele>74.85714285714286</ele><time>2026-05-02T04:47:18.44Z</time></trkpt><trkpt lat="44.1687417" lon="12.0338917"><ele>77.42857142857143</ele><time>2026-05-02T04:47:22.439Z</time></trkpt><trkpt lat="44.1686833" lon="12.03397"><ele>80.0</ele><time>2026-05-02T04:47:26.44Z</time></trkpt><trkpt lat="44.1686333" lon="12.0340283"><ele>80.0</ele><time>2026-05-02T04:47:29.439Z</time></trkpt><trkpt lat="44.168575" lon="12.0340867"><ele>80.0</ele><time>2026-05-02T04:47:32.442Z</time></trkpt><trkpt lat="44.1685083" lon="12.0341333"><ele>80.0</ele><time>2026-05-02T04:47:36.439Z</time></trkpt><trkpt lat="44.1684333" lon="12.0341583"><ele>80.0</ele><time>2026-05-02T04:47:40.442Z</time></trkpt><trkpt lat="44.1683483" lon="12.0341833"><ele>80.0</ele><time>2026-05-02T04:47:44.442Z</time></trkpt><trkpt lat="44.16827" lon="12.0341967"><ele>80.0</ele><time>2026-05-02T04:47:48.438Z</time></trkpt><trkpt lat="44.16819" lon="12.0341817"><ele>80.14285714285714</ele><time>2026-05-02T04:47:52.44Z</time></trkpt><trkpt lat="44.168125" lon="12.03414"><ele>80.28571428571429</ele><time>2026-05-02T04:47:56.442Z</time></trkpt><trkpt lat="44.1680617" lon="12.0341067"><ele>80.42857142857143</ele><time>2026-05-02T04:48:00.439Z</time></trkpt><trkpt lat="44.1680017" lon="12.0340433"><ele>80.57142857142857</ele><time>2026-05-02T04:48:04.534Z</time></trkpt><trkpt lat="44.167935" lon="12.03401"><ele>80.71428571428571</ele><time>2026-05-02T04:48:08.44Z</time></trkpt><trkpt lat="44.1678583" lon="12.0339933"><ele>80.85714285714286</ele><time>2026-05-02T04:48:12.443Z</time></trkpt><trkpt lat="44.1677883" lon="12.0339533"><ele>81.0</ele><time>2026-05-02T04:48:16.439Z</time></trkpt><trkpt lat="44.167725" lon="12.0339183"><ele>81.57142857142857</ele><time>2026-05-02T04:48:20.44Z</time></trkpt><trkpt lat="44.16767" lon="12.033875"><ele>82.14285714285714</ele><time>2026-05-02T04:48:24.44Z</time></trkpt><trkpt lat="44.16761" lon="12.03382"><ele>82.71428571428572</ele><time>2026-05-02T04:48:28.443Z</time></trkpt><trkpt lat="44.1675417" lon="12.0337933"><ele>83.28571428571428</ele><time>2026-05-02T04:48:32.44Z</time></trkpt><trkpt lat="44.1674683" lon="12.0337717"><ele>83.85714285714285</ele><time>2026-05-02T04:48:36.442Z</time></trkpt><trkpt lat="44.1674067" lon="12.033735"><ele>84.42857142857143</ele><time>2026-05-02T04:48:40.442Z</time></trkpt><trkpt lat="44.16736" lon="12.03367"><ele>85.0</ele><time>2026-05-02T04:48:43.439Z</time></trkpt><trkpt lat="44.1672967" lon="12.03362"><ele>85.83333333333333</ele><time>2026-05-02T04:48:47.438Z</time></trkpt><trkpt lat="44.16722" lon="12.0335767"><ele>86.66666666666666</ele><time>2026-05-02T04:48:51.44Z</time></trkpt><trkpt lat="44.1671483" lon="12.0335367"><ele>87.5</ele><time>2026-05-02T04:48:55.442Z</time></trkpt><trkpt lat="44.167075" lon="12.033505"><ele>88.33333333333333</ele><time>2026-05-02T04:48:59.44Z</time></trkpt><trkpt lat="44.1669983" lon="12.0334567"><ele>89.16666666666667</ele><time>2026-05-02T04:49:03.442Z</time></trkpt><trkpt lat="44.1669433" lon="12.0333817"><ele>90.0</ele><time>2026-05-02T04:49:07.439Z</time></trkpt><trkpt lat="44.166875" lon="12.03334"><ele>90.0</ele><time>2026-05-02T04:49:11.441Z</time></trkpt><trkpt lat="44.1668" lon="12.03339"><ele>90.0</ele><time>2026-05-02T04:49:15.443Z</time></trkpt><trkpt lat="44.166745" lon="12.0334517"><ele>90.0</ele><time>2026-05-02T04:49:18.44Z</time></trkpt><trkpt lat="44.1667133" lon="12.0335533"><ele>90.0</ele><time>2026-05-02T04:49:21.44Z</time></trkpt><trkpt lat="44.166675" lon="12.0336483"><ele>90.0</ele><time>2026-05-02T04:49:24.44Z</time></trkpt><trkpt lat="44.1666433" lon="12.0337517"><ele>90.0</ele><time>2026-05-02T04:49:27.443Z</time></trkpt><trkpt lat="44.16662" lon="12.0338667"><ele>90.0</ele><time>2026-05-02T04:49:30.442Z</time></trkpt><trkpt lat="44.1665883" lon="12.0339467"><ele>90.0</ele><time>2026-05-02T04:49:32.442Z</time></trkpt><trkpt lat="44.16656" lon="12.0340417"><ele>90.0</ele><time>2026-05-02T04:49:34.441Z</time></trkpt><trkpt lat="44.1665317" lon="12.0341283"><ele>90.0</ele><time>2026-05-02T04:49:36.441Z</time></trkpt><trkpt lat="44.1664917" lon="12.0342217"><ele>90.0</ele><time>2026-05-02T04:49:38.442Z</time></trkpt><trkpt lat="44.1664583" lon="12.0343183"><ele>90.0</ele><time>2026-05-02T04:49:40.442Z</time></trkpt><trkpt lat="44.1664283" lon="12.0344333"><ele>89.4</ele><time>2026-05-02T04:49:42.439Z</time></trkpt><trkpt lat="44.1663967" lon="12.0345433"><ele>88.8</ele><time>2026-05-02T04:49:44.442Z</time></trkpt><trkpt lat="44.16637" lon="12.034655"><ele>88.19999999999999</ele><time>2026-05-02T04:49:46.442Z</time></trkpt><trkpt lat="44.1663383" lon="12.0347733"><ele>87.6</ele><time>2026-05-02T04:49:48.44Z</time></trkpt><trkpt lat="44.1663017" lon="12.0348983"><ele>87.0</ele><time>2026-05-02T04:49:50.442Z</time></trkpt><trkpt lat="44.1662583" lon="12.0350367"><ele>86.19999999999999</ele><time>2026-05-02T04:49:52.441Z</time></trkpt><trkpt lat="44.1662083" lon="12.0351783"><ele>85.4</ele><time>2026-05-02T04:49:54.442Z</time></trkpt><trkpt lat="44.1661633" lon="12.03532"><ele>84.6</ele><time>2026-05-02T04:49:56.442Z</time></trkpt><trkpt lat="44.1661233" lon="12.035455"><ele>83.80000000000001</ele><time>2026-05-02T04:49:58.441Z</time></trkpt><trkpt lat="44.166085" lon="12.03559"><ele>83.0</ele><time>2026-05-02T04:50:00.441Z</time></trkpt><trkpt lat="44.16605" lon="12.0357283"><ele>83.0</ele><time>2026-05-02T04:50:02.441Z</time></trkpt><trkpt lat="44.16601" lon="12.0358717"><ele>83.0</ele><time>2026-05-02T04:50:04.442Z</time></trkpt><trkpt lat="44.16596" lon="12.0360183"><ele>83.0</ele><time>2026-05-02T04:50:06.442Z</time></trkpt><trkpt lat="44.1659133" lon="12.0361633"><ele>83.0</ele><time>2026-05-02T04:50:08.442Z</time></trkpt><trkpt lat="44.1658633" lon="12.03632"><ele>83.0</ele><time>2026-05-02T04:50:10.442Z</time></trkpt><trkpt lat="44.16582" lon="12.0364683"><ele>83.0</ele><time>2026-05-02T04:50:12.442Z</time></trkpt><trkpt lat="44.1657767" lon="12.0366233"><ele>83.0</ele><time>2026-05-02T04:50:14.442Z</time></trkpt><trkpt lat="44.1657317" lon="12.0367833"><ele>83.0</ele><time>2026-05-02T04:50:16.442Z</time></trkpt><trkpt lat="44.165685" lon="12.0369433"><ele>80.75</ele><time>2026-05-02T04:50:18.442Z</time></trkpt><trkpt lat="44.1656417" lon="12.0370983"><ele>78.5</ele><time>2026-05-02T04:50:20.443Z</time></trkpt><trkpt lat="44.165625" lon="12.037265"><ele>76.25</ele><time>2026-05-02T04:50:22.442Z</time></trkpt><trkpt lat="44.1656417" lon="12.037425"><ele>74.0</ele><time>2026-05-02T04:50:24.443Z</time></trkpt><trkpt lat="44.1656883" lon="12.037565"><ele>74.0</ele><time>2026-05-02T04:50:26.442Z</time></trkpt><trkpt lat="44.1656867" lon="12.0376767"><ele>74.0</ele><time>2026-05-02T04:50:28.439Z</time></trkpt><trkpt lat="44.1656233" lon="12.0376717"><ele>74.0</ele><time>2026-05-02T04:50:30.443Z</time></trkpt><trkpt lat="44.16555" lon="12.037525"><ele>74.0</ele><time>2026-05-02T04:50:32.442Z</time></trkpt><trkpt lat="44.1655267" lon="12.03744"><ele>74.0</ele><time>2026-05-02T04:50:33.442Z</time></trkpt><trkpt lat="44.16552" lon="12.03735"><ele>74.0</ele><time>2026-05-02T04:50:34.442Z</time></trkpt><trkpt lat="44.1655067" lon="12.0372617"><ele>74.0</ele><time>2026-05-02T04:50:35.442Z</time></trkpt><trkpt lat="44.1654967" lon="12.037085"><ele>74.0</ele><time>2026-05-02T04:50:37.442Z</time></trkpt><trkpt lat="44.1654817" lon="12.0369067"><ele>74.0</ele><time>2026-05-02T04:50:39.444Z</time></trkpt><trkpt lat="44.1654767" lon="12.03681"><ele>74.0</ele><time>2026-05-02T04:50:40.443Z</time></trkpt><trkpt lat="44.1654733" lon="12.0367133"><ele>74.0</ele><time>2026-05-02T04:50:41.443Z</time></trkpt><trkpt lat="44.1654667" lon="12.0366233"><ele>74.0</ele><time>2026-05-02T04:50:42.442Z</time></trkpt><trkpt lat="44.16547" lon="12.0365267"><ele>74.0</ele><time>2026-05-02T04:50:43.443Z</time></trkpt><trkpt lat="44.1654733" lon="12.0364267"><ele>74.0</ele><time>2026-05-02T04:50:44.442Z</time></trkpt><trkpt lat="44.1654717" lon="12.0363317"><ele>74.0</ele><time>2026-05-02T04:50:45.442Z</time></trkpt><trkpt lat="44.1654667" lon="12.0362367"><ele>74.0</ele><time>2026-05-02T04:50:46.443Z</time></trkpt><trkpt lat="44.1654483" lon="12.0361417"><ele>74.0</ele><time>2026-05-02T04:50:47.442Z</time></trkpt><trkpt lat="44.1654217" lon="12.0360483"><ele>74.0</ele><time>2026-05-02T04:50:48.443Z</time></trkpt><trkpt lat="44.16538" lon="12.0359617"><ele>74.0</ele><time>2026-05-02T04:50:49.44Z</time></trkpt><trkpt lat="44.1653333" lon="12.0358833"><ele>74.0</ele><time>2026-05-02T04:50:50.44Z</time></trkpt><trkpt lat="44.165275" lon="12.0358167"><ele>74.0</ele><time>2026-05-02T04:50:51.441Z</time></trkpt><trkpt lat="44.16521" lon="12.0357567"><ele>74.0</ele><time>2026-05-02T04:50:52.442Z</time></trkpt><trkpt lat="44.1651433" lon="12.0357067"><ele>74.0</ele><time>2026-05-02T04:50:53.441Z</time></trkpt><trkpt lat="44.16507" lon="12.0356717"><ele>74.0</ele><time>2026-05-02T04:50:54.441Z</time></trkpt><trkpt lat="44.1650017" lon="12.0356433"><ele>74.0</ele><time>2026-05-02T04:50:55.443Z</time></trkpt><trkpt lat="44.16493" lon="12.0356217"><ele>74.0</ele><time>2026-05-02T04:50:56.442Z</time></trkpt><trkpt lat="44.1648617" lon="12.0356117"><ele>74.0</ele><time>2026-05-02T04:50:57.442Z</time></trkpt><trkpt lat="44.1647967" lon="12.0356217"><ele>74.0</ele><time>2026-05-02T04:50:58.442Z</time></trkpt><trkpt lat="44.1647417" lon="12.0356717"><ele>74.0</ele><time>2026-05-02T04:50:59.442Z</time></trkpt><trkpt lat="44.1647067" lon="12.0357467"><ele>74.0</ele><time>2026-05-02T04:51:00.44Z</time></trkpt><trkpt lat="44.1646567" lon="12.03587"><ele>74.0</ele><time>2026-05-02T04:51:02.443Z</time></trkpt><trkpt lat="44.16463" lon="12.035975"><ele>75.16666666666667</ele><time>2026-05-02T04:51:04.444Z</time></trkpt><trkpt lat="44.164605" lon="12.03606"><ele>76.33333333333334</ele><time>2026-05-02T04:51:06.443Z</time></trkpt><trkpt lat="44.1645667" lon="12.036165"><ele>77.5</ele><time>2026-05-02T04:51:09.443Z</time></trkpt><trkpt lat="44.1645317" lon="12.03626"><ele>78.66666666666667</ele><time>2026-05-02T04:51:12.441Z</time></trkpt><trkpt lat="44.164475" lon="12.036335"><ele>79.83333333333333</ele><time>2026-05-02T04:51:16.439Z</time></trkpt><trkpt lat="44.1644" lon="12.0363717"><ele>81.0</ele><time>2026-05-02T04:51:20.441Z</time></trkpt><trkpt lat="44.164325" lon="12.0363883"><ele>81.0</ele><time>2026-05-02T04:51:24.441Z</time></trkpt><trkpt lat="44.164255" lon="12.03634"><ele>81.0</ele><time>2026-05-02T04:51:28.439Z</time></trkpt><trkpt lat="44.164205" lon="12.0362533"><ele>81.0</ele><time>2026-05-02T04:51:32.443Z</time></trkpt><trkpt lat="44.1641733" lon="12.0361733"><ele>81.0</ele><time>2026-05-02T04:51:36.442Z</time></trkpt><trkpt lat="44.1641383" lon="12.036095"><ele>81.0</ele><time>2026-05-02T04:51:41.443Z</time></trkpt><trkpt lat="44.1641017" lon="12.03602"><ele>81.0</ele><time>2026-05-02T04:51:45.443Z</time></trkpt><trkpt lat="44.1640667" lon="12.035935"><ele>81.0</ele><time>2026-05-02T04:51:49.439Z</time></trkpt><trkpt lat="44.16405" lon="12.0358483"><ele>81.57142857142857</ele><time>2026-05-02T04:51:53.439Z</time></trkpt><trkpt lat="44.1640333" lon="12.0357517"><ele>82.14285714285714</ele><time>2026-05-02T04:51:57.441Z</time></trkpt><trkpt lat="44.1640217" lon="12.0356567"><ele>82.71428571428572</ele><time>2026-05-02T04:52:01.443Z</time></trkpt><trkpt lat="44.1640067" lon="12.0355533"><ele>83.28571428571428</ele><time>2026-05-02T04:52:06.443Z</time></trkpt><trkpt lat="44.163995" lon="12.0354483"><ele>83.85714285714285</ele><time>2026-05-02T04:52:10.442Z</time></trkpt><trkpt lat="44.1639817" lon="12.0353617"><ele>84.42857142857143</ele><time>2026-05-02T04:52:13.443Z</time></trkpt><trkpt lat="44.16399" lon="12.0352467"><ele>85.0</ele><time>2026-05-02T04:52:17.443Z</time></trkpt><trkpt lat="44.1639867" lon="12.0351367"><ele>86.0</ele><time>2026-05-02T04:52:21.441Z</time></trkpt><trkpt lat="44.16397" lon="12.035035"><ele>87.0</ele><time>2026-05-02T04:52:25.441Z</time></trkpt><trkpt lat="44.1639633" lon="12.0349333"><ele>88.0</ele><time>2026-05-02T04:52:29.443Z</time></trkpt><trkpt lat="44.163955" lon="12.034825"><ele>89.0</ele><time>2026-05-02T04:52:33.442Z</time></trkpt><trkpt lat="44.1639333" lon="12.0347383"><ele>90.0</ele><time>2026-05-02T04:52:36.443Z</time></trkpt><trkpt lat="44.1639033" lon="12.034655"><ele>91.0</ele><time>2026-05-02T04:52:39.443Z</time></trkpt><trkpt lat="44.1638633" lon="12.034555"><ele>92.0</ele><time>2026-05-02T04:52:43.443Z</time></trkpt><trkpt lat="44.1638183" lon="12.034465"><ele>92.71428571428572</ele><time>2026-05-02T04:52:47.443Z</time></trkpt><trkpt lat="44.1637583" lon="12.034395"><ele>93.42857142857142</ele><time>2026-05-02T04:52:51.44Z</time></trkpt><trkpt lat="44.1637017" lon="12.0343317"><ele>94.14285714285714</ele><time>2026-05-02T04:52:55.44Z</time></trkpt><trkpt lat="44.1636333" lon="12.03429"><ele>94.85714285714286</ele><time>2026-05-02T04:52:59.44Z</time></trkpt><trkpt lat="44.163565" lon="12.03424"><ele>95.57142857142858</ele><time>2026-05-02T04:53:03.443Z</time></trkpt><trkpt lat="44.16351" lon="12.0341783"><ele>96.28571428571428</ele><time>2026-05-02T04:53:07.446Z</time></trkpt><trkpt lat="44.1634467" lon="12.03415"><ele>97.0</ele><time>2026-05-02T04:53:11.442Z</time></trkpt><trkpt lat="44.1633883" lon="12.03411"><ele>97.42857142857143</ele><time>2026-05-02T04:53:15.442Z</time></trkpt><trkpt lat="44.1633233" lon="12.0340583"><ele>97.85714285714286</ele><time>2026-05-02T04:53:19.44Z</time></trkpt><trkpt lat="44.1632617" lon="12.0340117"><ele>98.28571428571429</ele><time>2026-05-02T04:53:23.441Z</time></trkpt><trkpt lat="44.163195" lon="12.0339783"><ele>98.71428571428572</ele><time>2026-05-02T04:53:27.442Z</time></trkpt><trkpt lat="44.163135" lon="12.033945"><ele>99.14285714285714</ele><time>2026-05-02T04:53:31.44Z</time></trkpt><trkpt lat="44.1630667" lon="12.0339067"><ele>99.57142857142858</ele><time>2026-05-02T04:53:35.443Z</time></trkpt><trkpt lat="44.163005" lon="12.0338767"><ele>100.0</ele><time>2026-05-02T04:53:39.443Z</time></trkpt><trkpt lat="44.162935" lon="12.0338283"><ele>101.42857142857143</ele><time>2026-05-02T04:53:44.444Z</time></trkpt><trkpt lat="44.1628733" lon="12.0337867"><ele>102.85714285714286</ele><time>2026-05-02T04:53:48.439Z</time></trkpt><trkpt lat="44.1628083" lon="12.033735"><ele>104.28571428571428</ele><time>2026-05-02T04:53:53.44Z</time></trkpt><trkpt lat="44.1627467" lon="12.0337067"><ele>105.71428571428572</ele><time>2026-05-02T04:53:57.442Z</time></trkpt><trkpt lat="44.1626783" lon="12.0336783"><ele>107.14285714285714</ele><time>2026-05-02T04:54:02.443Z</time></trkpt><trkpt lat="44.1626167" lon="12.03363"><ele>108.57142857142857</ele><time>2026-05-02T04:54:07.44Z</time></trkpt><trkpt lat="44.1625517" lon="12.0336133"><ele>110.0</ele><time>2026-05-02T04:54:11.439Z</time></trkpt><trkpt lat="44.1624883" lon="12.0335817"><ele>109.99999999999999</ele><time>2026-05-02T04:54:16.44Z</time></trkpt><trkpt lat="44.1624233" lon="12.0335633"><ele>110.0</ele><time>2026-05-02T04:54:20.443Z</time></trkpt><trkpt lat="44.1623567" lon="12.0335133"><ele>110.0</ele><time>2026-05-02T04:54:25.443Z</time></trkpt><trkpt lat="44.1622783" lon="12.0335033"><ele>110.0</ele><time>2026-05-02T04:54:30.443Z</time></trkpt><trkpt lat="44.1622017" lon="12.033485"><ele>110.0</ele><time>2026-05-02T04:54:35.443Z</time></trkpt><trkpt lat="44.1621267" lon="12.0334833"><ele>109.99999999999999</ele><time>2026-05-02T04:54:40.443Z</time></trkpt><trkpt lat="44.162055" lon="12.0335133"><ele>110.0</ele><time>2026-05-02T04:54:45.443Z</time></trkpt><trkpt lat="44.1619867" lon="12.0335367"><ele>110.57142857142856</ele><time>2026-05-02T04:54:49.443Z</time></trkpt><trkpt lat="44.161925" lon="12.0335717"><ele>111.14285714285714</ele><time>2026-05-02T04:54:53.443Z</time></trkpt><trkpt lat="44.16185" lon="12.0335983"><ele>111.71428571428571</ele><time>2026-05-02T04:54:58.44Z</time></trkpt><trkpt lat="44.1617867" lon="12.0336233"><ele>112.28571428571428</ele><time>2026-05-02T04:55:03.439Z</time></trkpt><trkpt lat="44.1617233" lon="12.03364"><ele>112.85714285714285</ele><time>2026-05-02T04:55:07.443Z</time></trkpt><trkpt lat="44.1616567" lon="12.0336433"><ele>113.42857142857142</ele><time>2026-05-02T04:55:11.443Z</time></trkpt><trkpt lat="44.1615933" lon="12.0336283"><ele>114.0</ele><time>2026-05-02T04:55:15.442Z</time></trkpt><trkpt lat="44.161525" lon="12.03358"><ele>114.85714285714285</ele><time>2026-05-02T04:55:20.442Z</time></trkpt><trkpt lat="44.1614617" lon="12.0335483"><ele>115.7142857142857</ele><time>2026-05-02T04:55:25.443Z</time></trkpt><trkpt lat="44.1613917" lon="12.0335217"><ele>116.57142857142857</ele><time>2026-05-02T04:55:30.441Z</time></trkpt><trkpt lat="44.161325" lon="12.033465"><ele>117.42857142857142</ele><time>2026-05-02T04:55:35.442Z</time></trkpt><trkpt lat="44.1612667" lon="12.03341"><ele>118.28571428571428</ele><time>2026-05-02T04:55:40.442Z</time></trkpt><trkpt lat="44.1612083" lon="12.0333733"><ele>119.14285714285714</ele><time>2026-05-02T04:55:45.442Z</time></trkpt><trkpt lat="44.1611467" lon="12.0333267"><ele>120.0</ele><time>2026-05-02T04:55:50.442Z</time></trkpt><trkpt lat="44.1610883" lon="12.03326"><ele>121.14285714285714</ele><time>2026-05-02T04:55:55.442Z</time></trkpt><trkpt lat="44.1610333" lon="12.0332117"><ele>122.28571428571428</ele><time>2026-05-02T04:56:00.443Z</time></trkpt><trkpt lat="44.1609733" lon="12.0331517"><ele>123.42857142857142</ele><time>2026-05-02T04:56:05.443Z</time></trkpt><trkpt lat="44.1609217" lon="12.0330933"><ele>124.57142857142857</ele><time>2026-05-02T04:56:10.44Z</time></trkpt><trkpt lat="44.1608617" lon="12.0330517"><ele>125.7142857142857</ele><time>2026-05-02T04:56:15.442Z</time></trkpt><trkpt lat="44.1608033" lon="12.0329833"><ele>126.85714285714285</ele><time>2026-05-02T04:56:20.442Z</time></trkpt><trkpt lat="44.1607417" lon="12.032955"><ele>128.0</ele><time>2026-05-02T04:56:25.439Z</time></trkpt><trkpt lat="44.1606817" lon="12.0328983"><ele>128.0</ele><time>2026-05-02T04:56:31.443Z</time></trkpt><trkpt lat="44.1606467" lon="12.0328217"><ele>127.99999999999999</ele><time>2026-05-02T04:56:36.443Z</time></trkpt><trkpt lat="44.1606167" lon="12.0327333"><ele>128.0</ele><time>2026-05-02T04:56:41.442Z</time></trkpt><trkpt lat="44.1606417" lon="12.032635"><ele>128.0</ele><time>2026-05-02T04:56:45.443Z</time></trkpt><trkpt lat="44.1606933" lon="12.0325617"><ele>127.99999999999999</ele><time>2026-05-02T04:56:50.439Z</time></trkpt><trkpt lat="44.16074" lon="12.03249"><ele>128.0</ele><time>2026-05-02T04:56:54.441Z</time></trkpt><trkpt lat="44.1607983" lon="12.0324517"><ele>128.0</ele><time>2026-05-02T04:56:59.44Z</time></trkpt><trkpt lat="44.160845" lon="12.0323817"><ele>128.71428571428572</ele><time>2026-05-02T04:57:04.44Z</time></trkpt><trkpt lat="44.1608717" lon="12.0322983"><ele>129.42857142857142</ele><time>2026-05-02T04:57:09.441Z</time></trkpt><trkpt lat="44.160865" lon="12.032195"><ele>130.14285714285714</ele><time>2026-05-02T04:57:14.441Z</time></trkpt><trkpt lat="44.1608567" lon="12.0321017"><ele>130.85714285714286</ele><time>2026-05-02T04:57:19.443Z</time></trkpt><trkpt lat="44.1608267" lon="12.0320233"><ele>131.57142857142856</ele><time>2026-05-02T04:57:23.44Z</time></trkpt><trkpt lat="44.1607917" lon="12.03195"><ele>132.28571428571428</ele><time>2026-05-02T04:57:27.443Z</time></trkpt><trkpt lat="44.1607617" lon="12.0318717"><ele>133.0</ele><time>2026-05-02T04:57:31.44Z</time></trkpt><trkpt lat="44.1607267" lon="12.0317967"><ele>133.85714285714286</ele><time>2026-05-02T04:57:35.443Z</time></trkpt><trkpt lat="44.160685" lon="12.031705"><ele>134.71428571428572</ele><time>2026-05-02T04:57:40.441Z</time></trkpt><trkpt lat="44.160645" lon="12.0316317"><ele>135.57142857142856</ele><time>2026-05-02T04:57:44.442Z</time></trkpt><trkpt lat="44.1605983" lon="12.03156"><ele>136.42857142857144</ele><time>2026-05-02T04:57:48.44Z</time></trkpt><trkpt lat="44.1605617" lon="12.0314867"><ele>137.28571428571428</ele><time>2026-05-02T04:57:52.439Z</time></trkpt><trkpt lat="44.16052" lon="12.03141"><ele>138.14285714285714</ele><time>2026-05-02T04:57:56.53Z</time></trkpt><trkpt lat="44.1604783" lon="12.0313383"><ele>139.0</ele><time>2026-05-02T04:58:00.442Z</time></trkpt><trkpt lat="44.1604283" lon="12.0312617"><ele>139.42857142857142</ele><time>2026-05-02T04:58:04.443Z</time></trkpt><trkpt lat="44.1603733" lon="12.031185"><ele>139.85714285714286</ele><time>2026-05-02T04:58:08.442Z</time></trkpt><trkpt lat="44.16031" lon="12.0311267"><ele>140.28571428571428</ele><time>2026-05-02T04:58:12.442Z</time></trkpt><trkpt lat="44.1602533" lon="12.0310867"><ele>140.71428571428572</ele><time>2026-05-02T04:58:15.443Z</time></trkpt><trkpt lat="44.1601767" lon="12.0310533"><ele>141.14285714285714</ele><time>2026-05-02T04:58:19.439Z</time></trkpt><trkpt lat="44.1601033" lon="12.0310117"><ele>141.57142857142856</ele><time>2026-05-02T04:58:23.44Z</time></trkpt><trkpt lat="44.1600417" lon="12.0309883"><ele>142.0</ele><time>2026-05-02T04:58:26.442Z</time></trkpt><trkpt lat="44.1599783" lon="12.0309667"><ele>142.0</ele><time>2026-05-02T04:58:29.439Z</time></trkpt><trkpt lat="44.1598983" lon="12.030935"><ele>142.0</ele><time>2026-05-02T04:58:33.443Z</time></trkpt><trkpt lat="44.1598183" lon="12.0309117"><ele>142.0</ele><time>2026-05-02T04:58:37.442Z</time></trkpt><trkpt lat="44.1597567" lon="12.03089"><ele>142.0</ele><time>2026-05-02T04:58:40.44Z</time></trkpt><trkpt lat="44.159695" lon="12.0308583"><ele>142.0</ele><time>2026-05-02T04:58:43.443Z</time></trkpt><trkpt lat="44.1596317" lon="12.030835"><ele>142.0</ele><time>2026-05-02T04:58:46.443Z</time></trkpt><trkpt lat="44.15956" lon="12.0308117"><ele>142.0</ele><time>2026-05-02T04:58:49.44Z</time></trkpt><trkpt lat="44.1594933" lon="12.0307967"><ele>142.14285714285714</ele><time>2026-05-02T04:58:52.439Z</time></trkpt><trkpt lat="44.1594233" lon="12.0307717"><ele>142.28571428571428</ele><time>2026-05-02T04:58:55.442Z</time></trkpt><trkpt lat="44.1593483" lon="12.030755"><ele>142.42857142857142</ele><time>2026-05-02T04:58:58.441Z</time></trkpt><trkpt lat="44.1592817" lon="12.03074"><ele>142.57142857142856</ele><time>2026-05-02T04:59:01.439Z</time></trkpt><trkpt lat="44.159215" lon="12.030725"><ele>142.71428571428572</ele><time>2026-05-02T04:59:04.443Z</time></trkpt><trkpt lat="44.1591417" lon="12.0307033"><ele>142.85714285714283</ele><time>2026-05-02T04:59:07.442Z</time></trkpt><trkpt lat="44.1590717" lon="12.0306767"><ele>143.0</ele><time>2026-05-02T04:59:10.441Z</time></trkpt><trkpt lat="44.159" lon="12.030655"><ele>143.0</ele><time>2026-05-02T04:59:13.44Z</time></trkpt><trkpt lat="44.15893" lon="12.030615"><ele>143.0</ele><time>2026-05-02T04:59:16.44Z</time></trkpt><trkpt lat="44.15885" lon="12.0305933"><ele>143.0</ele><time>2026-05-02T04:59:19.439Z</time></trkpt><trkpt lat="44.1587767" lon="12.030575"><ele>143.0</ele><time>2026-05-02T04:59:22.44Z</time></trkpt><trkpt lat="44.1587017" lon="12.0305517"><ele>143.0</ele><time>2026-05-02T04:59:25.439Z</time></trkpt><trkpt lat="44.158625" lon="12.0305283"><ele>143.0</ele><time>2026-05-02T04:59:28.443Z</time></trkpt><trkpt lat="44.15856" lon="12.0304917"><ele>143.0</ele><time>2026-05-02T04:59:31.443Z</time></trkpt><trkpt lat="44.1584917" lon="12.0304667"><ele>143.0</ele><time>2026-05-02T04:59:34.442Z</time></trkpt><trkpt lat="44.15841" lon="12.0304417"><ele>143.0</ele><time>2026-05-02T04:59:37.44Z</time></trkpt><trkpt lat="44.1583133" lon="12.0304217"><ele>143.0</ele><time>2026-05-02T04:59:40.443Z</time></trkpt><trkpt lat="44.1582467" lon="12.030395"><ele>143.0</ele><time>2026-05-02T04:59:42.443Z</time></trkpt><trkpt lat="44.1581833" lon="12.03037"><ele>143.0</ele><time>2026-05-02T04:59:44.443Z</time></trkpt><trkpt lat="44.1581" lon="12.030355"><ele>144.33333333333331</ele><time>2026-05-02T04:59:46.439Z</time></trkpt><trkpt lat="44.1580317" lon="12.0303317"><ele>145.66666666666666</ele><time>2026-05-02T04:59:48.44Z</time></trkpt><trkpt lat="44.15795" lon="12.0303"><ele>147.0</ele><time>2026-05-02T04:59:51.441Z</time></trkpt><trkpt lat="44.1578667" lon="12.0302783"><ele>148.33333333333334</ele><time>2026-05-02T04:59:54.441Z</time></trkpt><trkpt lat="44.1578" lon="12.030255"><ele>149.66666666666669</ele><time>2026-05-02T04:59:56.441Z</time></trkpt><trkpt lat="44.1577317" lon="12.0302233"><ele>151.0</ele><time>2026-05-02T04:59:58.439Z</time></trkpt><trkpt lat="44.1576617" lon="12.03021"><ele>151.0</ele><time>2026-05-02T05:00:00.44Z</time></trkpt><trkpt lat="44.1575983" lon="12.030185"><ele>151.0</ele><time>2026-05-02T05:00:02.439Z</time></trkpt><trkpt lat="44.157515" lon="12.0301533"><ele>151.0</ele><time>2026-05-02T05:00:05.439Z</time></trkpt><trkpt lat="44.15744" lon="12.0301417"><ele>151.0</ele><time>2026-05-02T05:00:08.44Z</time></trkpt><trkpt lat="44.15736" lon="12.0301167"><ele>151.0</ele><time>2026-05-02T05:00:11.442Z</time></trkpt><trkpt lat="44.1572917" lon="12.0300683"><ele>151.0</ele><time>2026-05-02T05:00:14.439Z</time></trkpt><trkpt lat="44.1572167" lon="12.030025"><ele>152.0</ele><time>2026-05-02T05:00:17.44Z</time></trkpt><trkpt lat="44.157145" lon="12.0299817"><ele>153.0</ele><time>2026-05-02T05:00:20.44Z</time></trkpt><trkpt lat="44.1570717" lon="12.0299467"><ele>154.0</ele><time>2026-05-02T05:00:23.439Z</time></trkpt><trkpt lat="44.1569967" lon="12.029915"><ele>155.0</ele><time>2026-05-02T05:00:26.439Z</time></trkpt><trkpt lat="44.15693" lon="12.0298617"><ele>156.0</ele><time>2026-05-02T05:00:29.439Z</time></trkpt><trkpt lat="44.1568633" lon="12.0298"><ele>157.0</ele><time>2026-05-02T05:00:32.439Z</time></trkpt><trkpt lat="44.1567933" lon="12.0297567"><ele>157.33333333333334</ele><time>2026-05-02T05:00:35.439Z</time></trkpt><trkpt lat="44.1567217" lon="12.0297117"><ele>157.66666666666669</ele><time>2026-05-02T05:00:38.44Z</time></trkpt><trkpt lat="44.15665" lon="12.029675"><ele>158.0</ele><time>2026-05-02T05:00:41.439Z</time></trkpt><trkpt lat="44.1565867" lon="12.0296217"><ele>158.33333333333334</ele><time>2026-05-02T05:00:44.439Z</time></trkpt><trkpt lat="44.1565217" lon="12.029575"><ele>158.66666666666666</ele><time>2026-05-02T05:00:47.439Z</time></trkpt><trkpt lat="44.1564567" lon="12.029525"><ele>159.0</ele><time>2026-05-02T05:00:50.44Z</time></trkpt><trkpt lat="44.1563883" lon="12.029485"><ele>160.0</ele><time>2026-05-02T05:00:53.44Z</time></trkpt><trkpt lat="44.1563267" lon="12.0294367"><ele>161.0</ele><time>2026-05-02T05:00:56.442Z</time></trkpt><trkpt lat="44.1562633" lon="12.029375"><ele>162.0</ele><time>2026-05-02T05:00:59.439Z</time></trkpt><trkpt lat="44.1561983" lon="12.0293083"><ele>163.0</ele><time>2026-05-02T05:01:02.44Z</time></trkpt><trkpt lat="44.15613" lon="12.0292667"><ele>164.0</ele><time>2026-05-02T05:01:05.44Z</time></trkpt><trkpt lat="44.156065" lon="12.0292267"><ele>165.0</ele><time>2026-05-02T05:01:08.44Z</time></trkpt><trkpt lat="44.15599" lon="12.0291917"><ele>165.00000000000003</ele><time>2026-05-02T05:01:11.44Z</time></trkpt><trkpt lat="44.1559233" lon="12.02915"><ele>165.0</ele><time>2026-05-02T05:01:14.443Z</time></trkpt><trkpt lat="44.1558567" lon="12.029145"><ele>165.0</ele><time>2026-05-02T05:01:17.443Z</time></trkpt><trkpt lat="44.1557867" lon="12.029165"><ele>165.0</ele><time>2026-05-02T05:01:20.44Z</time></trkpt><trkpt lat="44.1557217" lon="12.0291883"><ele>165.0</ele><time>2026-05-02T05:01:23.44Z</time></trkpt><trkpt lat="44.1556567" lon="12.0292333"><ele>165.00000000000003</ele><time>2026-05-02T05:01:26.443Z</time></trkpt><trkpt lat="44.1555833" lon="12.0292667"><ele>165.0</ele><time>2026-05-02T05:01:29.439Z</time></trkpt><trkpt lat="44.1555233" lon="12.0293267"><ele>165.83333333333334</ele><time>2026-05-02T05:01:32.44Z</time></trkpt><trkpt lat="44.1554667" lon="12.0294067"><ele>166.66666666666666</ele><time>2026-05-02T05:01:35.44Z</time></trkpt><trkpt lat="44.1554217" lon="12.0294717"><ele>167.5</ele><time>2026-05-02T05:01:37.44Z</time></trkpt><trkpt lat="44.1553817" lon="12.02956"><ele>168.33333333333331</ele><time>2026-05-02T05:01:40.44Z</time></trkpt><trkpt lat="44.1553233" lon="12.02966"><ele>169.16666666666666</ele><time>2026-05-02T05:01:43.44Z</time></trkpt><trkpt lat="44.15528" lon="12.029755"><ele>170.0</ele><time>2026-05-02T05:01:46.44Z</time></trkpt><trkpt lat="44.15523" lon="12.02986"><ele>170.0</ele><time>2026-05-02T05:01:49.439Z</time></trkpt><trkpt lat="44.1551983" lon="12.0299383"><ele>170.0</ele><time>2026-05-02T05:01:51.442Z</time></trkpt><trkpt lat="44.1551983" lon="12.0300383"><ele>170.0</ele><time>2026-05-02T05:01:54.442Z</time></trkpt><trkpt lat="44.1552033" lon="12.0301483"><ele>170.0</ele><time>2026-05-02T05:01:57.44Z</time></trkpt><trkpt lat="44.1552133" lon="12.0302517"><ele>170.0</ele><time>2026-05-02T05:02:00.441Z</time></trkpt><trkpt lat="44.1552217" lon="12.03038"><ele>170.0</ele><time>2026-05-02T05:02:38.44Z</time></trkpt><trkpt lat="44.15523" lon="12.0305083"><ele>169.6</ele><time>2026-05-02T05:02:41.44Z</time></trkpt><trkpt lat="44.1552283" lon="12.0306117"><ele>169.2</ele><time>2026-05-02T05:02:43.441Z</time></trkpt><trkpt lat="44.155225" lon="12.0307317"><ele>168.8</ele><time>2026-05-02T05:02:45.443Z</time></trkpt><trkpt lat="44.1552333" lon="12.0308567"><ele>168.4</ele><time>2026-05-02T05:02:47.439Z</time></trkpt><trkpt lat="44.1552317" lon="12.0309967"><ele>168.0</ele><time>2026-05-02T05:02:49.44Z</time></trkpt><trkpt lat="44.1552317" lon="12.031145"><ele>167.66666666666666</ele><time>2026-05-02T05:02:51.439Z</time></trkpt><trkpt lat="44.1552117" lon="12.0313017"><ele>167.33333333333334</ele><time>2026-05-02T05:02:53.44Z</time></trkpt><trkpt lat="44.1551883" lon="12.03139"><ele>167.0</ele><time>2026-05-02T05:02:54.443Z</time></trkpt><trkpt lat="44.155165" lon="12.0314833"><ele>166.66666666666669</ele><time>2026-05-02T05:02:55.443Z</time></trkpt><trkpt lat="44.1551317" lon="12.0315767"><ele>166.33333333333334</ele><time>2026-05-02T05:02:56.442Z</time></trkpt><trkpt lat="44.15509" lon="12.03167"><ele>166.0</ele><time>2026-05-02T05:02:57.443Z</time></trkpt><trkpt lat="44.1550367" lon="12.0317633"><ele>165.20000000000002</ele><time>2026-05-02T05:02:58.443Z</time></trkpt><trkpt lat="44.154975" lon="12.0318533"><ele>164.4</ele><time>2026-05-02T05:02:59.44Z</time></trkpt><trkpt lat="44.1549167" lon="12.0319517"><ele>163.6</ele><time>2026-05-02T05:03:00.44Z</time></trkpt><trkpt lat="44.1548583" lon="12.0320567"><ele>162.8</ele><time>2026-05-02T05:03:01.439Z</time></trkpt><trkpt lat="44.1547917" lon="12.0321567"><ele>162.0</ele><time>2026-05-02T05:03:02.439Z</time></trkpt><trkpt lat="44.1547217" lon="12.0322617"><ele>161.2</ele><time>2026-05-02T05:03:03.439Z</time></trkpt><trkpt lat="44.1546467" lon="12.0323683"><ele>160.39999999999998</ele><time>2026-05-02T05:03:04.439Z</time></trkpt><trkpt lat="44.1545733" lon="12.03248"><ele>159.60000000000002</ele><time>2026-05-02T05:03:05.44Z</time></trkpt><trkpt lat="44.1544967" lon="12.0325917"><ele>158.8</ele><time>2026-05-02T05:03:06.44Z</time></trkpt><trkpt lat="44.1544267" lon="12.0327083"><ele>158.0</ele><time>2026-05-02T05:03:07.438Z</time></trkpt><trkpt lat="44.1543533" lon="12.0328267"><ele>156.25</ele><time>2026-05-02T05:03:08.44Z</time></trkpt><trkpt lat="44.15428" lon="12.0329483"><ele>154.5</ele><time>2026-05-02T05:03:09.44Z</time></trkpt><trkpt lat="44.15421" lon="12.033075"><ele>152.75</ele><time>2026-05-02T05:03:10.44Z</time></trkpt><trkpt lat="44.15414" lon="12.0332017"><ele>151.0</ele><time>2026-05-02T05:03:11.439Z</time></trkpt><trkpt lat="44.15407" lon="12.0333233"><ele>147.4</ele><time>2026-05-02T05:03:12.442Z</time></trkpt><trkpt lat="44.1540067" lon="12.0334467"><ele>143.8</ele><time>2026-05-02T05:03:13.442Z</time></trkpt><trkpt lat="44.15395" lon="12.0335717"><ele>140.20000000000002</ele><time>2026-05-02T05:03:14.442Z</time></trkpt><trkpt lat="44.153895" lon="12.0336933"><ele>136.6</ele><time>2026-05-02T05:03:15.443Z</time></trkpt><trkpt lat="44.1538417" lon="12.0338117"><ele>133.0</ele><time>2026-05-02T05:03:16.443Z</time></trkpt><trkpt lat="44.1537933" lon="12.033935"><ele>133.0</ele><time>2026-05-02T05:03:17.45Z</time></trkpt><trkpt lat="44.1537433" lon="12.034055"><ele>133.0</ele><time>2026-05-02T05:03:18.442Z</time></trkpt><trkpt lat="44.1536983" lon="12.0341733"><ele>133.0</ele><time>2026-05-02T05:03:19.439Z</time></trkpt><trkpt lat="44.1536517" lon="12.034285"><ele>133.0</ele><time>2026-05-02T05:03:20.44Z</time></trkpt><trkpt lat="44.1536133" lon="12.0343933"><ele>133.0</ele><time>2026-05-02T05:03:21.441Z</time></trkpt><trkpt lat="44.153575" lon="12.0345"><ele>133.83333333333334</ele><time>2026-05-02T05:03:22.438Z</time></trkpt><trkpt lat="44.15354" lon="12.0346067"><ele>134.66666666666669</ele><time>2026-05-02T05:03:23.439Z</time></trkpt><trkpt lat="44.1535033" lon="12.0347083"><ele>135.5</ele><time>2026-05-02T05:03:24.44Z</time></trkpt><trkpt lat="44.153465" lon="12.0348067"><ele>136.33333333333334</ele><time>2026-05-02T05:03:25.439Z</time></trkpt><trkpt lat="44.1534283" lon="12.03491"><ele>137.16666666666666</ele><time>2026-05-02T05:03:26.439Z</time></trkpt><trkpt lat="44.153395" lon="12.03501"><ele>138.0</ele><time>2026-05-02T05:03:27.44Z</time></trkpt><trkpt lat="44.1533667" lon="12.03511"><ele>138.5</ele><time>2026-05-02T05:03:28.439Z</time></trkpt><trkpt lat="44.15334" lon="12.0352117"><ele>139.0</ele><time>2026-05-02T05:03:29.439Z</time></trkpt><trkpt lat="44.15331" lon="12.035315"><ele>139.5</ele><time>2026-05-02T05:03:30.439Z</time></trkpt><trkpt lat="44.1532833" lon="12.0354267"><ele>140.0</ele><time>2026-05-02T05:03:31.439Z</time></trkpt><trkpt lat="44.1532633" lon="12.0355367"><ele>140.5</ele><time>2026-05-02T05:03:32.442Z</time></trkpt><trkpt lat="44.1532433" lon="12.0356417"><ele>141.0</ele><time>2026-05-02T05:03:33.442Z</time></trkpt><trkpt lat="44.1532217" lon="12.0357467"><ele>138.16666666666666</ele><time>2026-05-02T05:03:34.441Z</time></trkpt><trkpt lat="44.1531967" lon="12.0358483"><ele>135.33333333333334</ele><time>2026-05-02T05:03:35.44Z</time></trkpt><trkpt lat="44.1531683" lon="12.03595"><ele>132.5</ele><time>2026-05-02T05:03:36.442Z</time></trkpt><trkpt lat="44.1531417" lon="12.0360533"><ele>129.66666666666669</ele><time>2026-05-02T05:03:37.443Z</time></trkpt><trkpt lat="44.15312" lon="12.0361567"><ele>126.83333333333334</ele><time>2026-05-02T05:03:38.439Z</time></trkpt><trkpt lat="44.1530967" lon="12.0362617"><ele>124.0</ele><time>2026-05-02T05:03:39.44Z</time></trkpt><trkpt lat="44.153075" lon="12.0363667"><ele>124.00000000000001</ele><time>2026-05-02T05:03:40.44Z</time></trkpt><trkpt lat="44.1530483" lon="12.036475"><ele>124.0</ele><time>2026-05-02T05:03:41.44Z</time></trkpt><trkpt lat="44.1530217" lon="12.036575"><ele>124.0</ele><time>2026-05-02T05:03:42.442Z</time></trkpt><trkpt lat="44.1529967" lon="12.0366767"><ele>124.0</ele><time>2026-05-02T05:03:43.44Z</time></trkpt><trkpt lat="44.1529767" lon="12.0367783"><ele>124.00000000000001</ele><time>2026-05-02T05:03:44.44Z</time></trkpt><trkpt lat="44.1529517" lon="12.0368767"><ele>124.0</ele><time>2026-05-02T05:03:45.447Z</time></trkpt><trkpt lat="44.15293" lon="12.0369733"><ele>125.28571428571429</ele><time>2026-05-02T05:03:46.443Z</time></trkpt><trkpt lat="44.15291" lon="12.0370717"><ele>126.57142857142858</ele><time>2026-05-02T05:03:47.44Z</time></trkpt><trkpt lat="44.1528933" lon="12.0371717"><ele>127.85714285714286</ele><time>2026-05-02T05:03:48.439Z</time></trkpt><trkpt lat="44.1528833" lon="12.0372733"><ele>129.14285714285714</ele><time>2026-05-02T05:03:49.44Z</time></trkpt><trkpt lat="44.1528783" lon="12.0373733"><ele>130.42857142857144</ele><time>2026-05-02T05:03:50.44Z</time></trkpt><trkpt lat="44.1528783" lon="12.037475"><ele>131.71428571428572</ele><time>2026-05-02T05:03:51.439Z</time></trkpt><trkpt lat="44.1528833" lon="12.0375767"><ele>133.0</ele><time>2026-05-02T05:03:52.44Z</time></trkpt><trkpt lat="44.1528867" lon="12.0376783"><ele>133.0</ele><time>2026-05-02T05:03:53.439Z</time></trkpt><trkpt lat="44.152885" lon="12.037785"><ele>133.0</ele><time>2026-05-02T05:03:54.439Z</time></trkpt><trkpt lat="44.1528817" lon="12.0378917"><ele>133.0</ele><time>2026-05-02T05:03:55.44Z</time></trkpt><trkpt lat="44.1528817" lon="12.0380017"><ele>133.0</ele><time>2026-05-02T05:03:56.44Z</time></trkpt><trkpt lat="44.1528783" lon="12.0381117"><ele>133.0</ele><time>2026-05-02T05:03:57.44Z</time></trkpt><trkpt lat="44.1528767" lon="12.0382267"><ele>133.0</ele><time>2026-05-02T05:03:58.44Z</time></trkpt><trkpt lat="44.1528717" lon="12.0383433"><ele>133.0</ele><time>2026-05-02T05:03:59.44Z</time></trkpt><trkpt lat="44.15287" lon="12.0384583"><ele>133.0</ele><time>2026-05-02T05:04:00.441Z</time></trkpt><trkpt lat="44.1528683" lon="12.0385733"><ele>133.0</ele><time>2026-05-02T05:04:01.44Z</time></trkpt><trkpt lat="44.1528667" lon="12.03869"><ele>133.0</ele><time>2026-05-02T05:04:02.44Z</time></trkpt><trkpt lat="44.1528667" lon="12.03881"><ele>133.0</ele><time>2026-05-02T05:04:03.439Z</time></trkpt><trkpt lat="44.1528667" lon="12.03893"><ele>133.0</ele><time>2026-05-02T05:04:04.443Z</time></trkpt><trkpt lat="44.1528633" lon="12.0390483"><ele>132.5</ele><time>2026-05-02T05:04:05.44Z</time></trkpt><trkpt lat="44.1528617" lon="12.0391683"><ele>132.0</ele><time>2026-05-02T05:04:06.439Z</time></trkpt><trkpt lat="44.1528583" lon="12.03929"><ele>131.5</ele><time>2026-05-02T05:04:07.443Z</time></trkpt><trkpt lat="44.1528567" lon="12.03941"><ele>131.0</ele><time>2026-05-02T05:04:08.443Z</time></trkpt><trkpt lat="44.152855" lon="12.0395317"><ele>130.5</ele><time>2026-05-02T05:04:09.44Z</time></trkpt><trkpt lat="44.1528517" lon="12.0396533"><ele>130.0</ele><time>2026-05-02T05:04:10.44Z</time></trkpt><trkpt lat="44.1528467" lon="12.0397767"><ele>130.0</ele><time>2026-05-02T05:04:11.44Z</time></trkpt><trkpt lat="44.152845" lon="12.0399"><ele>130.0</ele><time>2026-05-02T05:04:12.44Z</time></trkpt><trkpt lat="44.1528433" lon="12.0400233"><ele>130.0</ele><time>2026-05-02T05:04:13.439Z</time></trkpt><trkpt lat="44.15284" lon="12.0401483"><ele>130.0</ele><time>2026-05-02T05:04:14.441Z</time></trkpt><trkpt lat="44.1528367" lon="12.0402733"><ele>130.0</ele><time>2026-05-02T05:04:15.439Z</time></trkpt><trkpt lat="44.1528333" lon="12.0404017"><ele>130.0</ele><time>2026-05-02T05:04:16.439Z</time></trkpt><trkpt lat="44.1528283" lon="12.04053"><ele>129.6</ele><time>2026-05-02T05:04:17.439Z</time></trkpt><trkpt lat="44.1528267" lon="12.0406583"><ele>129.2</ele><time>2026-05-02T05:04:18.441Z</time></trkpt><trkpt lat="44.152825" lon="12.040785"><ele>128.8</ele><time>2026-05-02T05:04:19.439Z</time></trkpt><trkpt lat="44.1528333" lon="12.0409167"><ele>128.4</ele><time>2026-05-02T05:04:20.439Z</time></trkpt><trkpt lat="44.1528433" lon="12.04105"><ele>128.0</ele><time>2026-05-02T05:04:21.44Z</time></trkpt><trkpt lat="44.152855" lon="12.0411783"><ele>126.80000000000001</ele><time>2026-05-02T05:04:22.439Z</time></trkpt><trkpt lat="44.1528667" lon="12.0413133"><ele>125.60000000000001</ele><time>2026-05-02T05:04:23.44Z</time></trkpt><trkpt lat="44.1528783" lon="12.041455"><ele>124.39999999999999</ele><time>2026-05-02T05:04:24.439Z</time></trkpt><trkpt lat="44.15289" lon="12.0416033"><ele>123.19999999999999</ele><time>2026-05-02T05:04:25.44Z</time></trkpt><trkpt lat="44.1529" lon="12.041755"><ele>122.0</ele><time>2026-05-02T05:04:26.439Z</time></trkpt><trkpt lat="44.1529117" lon="12.0419117"><ele>120.5</ele><time>2026-05-02T05:04:27.44Z</time></trkpt><trkpt lat="44.15293" lon="12.04207"><ele>119.0</ele><time>2026-05-02T05:04:28.438Z</time></trkpt><trkpt lat="44.1529483" lon="12.0422283"><ele>117.5</ele><time>2026-05-02T05:04:29.44Z</time></trkpt><trkpt lat="44.1529617" lon="12.0423917"><ele>116.0</ele><time>2026-05-02T05:04:30.439Z</time></trkpt><trkpt lat="44.1529767" lon="12.0425567"><ele>114.5</ele><time>2026-05-02T05:04:31.439Z</time></trkpt><trkpt lat="44.1529917" lon="12.0427217"><ele>113.0</ele><time>2026-05-02T05:04:32.439Z</time></trkpt><trkpt lat="44.1530083" lon="12.0428867"><ele>111.5</ele><time>2026-05-02T05:04:33.439Z</time></trkpt><trkpt lat="44.1530217" lon="12.04305"><ele>110.0</ele><time>2026-05-02T05:04:34.438Z</time></trkpt><trkpt lat="44.153035" lon="12.0432133"><ele>108.75</ele><time>2026-05-02T05:04:35.439Z</time></trkpt><trkpt lat="44.15305" lon="12.043375"><ele>107.5</ele><time>2026-05-02T05:04:36.44Z</time></trkpt><trkpt lat="44.1530667" lon="12.0435333"><ele>106.25</ele><time>2026-05-02T05:04:37.439Z</time></trkpt><trkpt lat="44.1530883" lon="12.04369"><ele>105.0</ele><time>2026-05-02T05:04:38.44Z</time></trkpt><trkpt lat="44.1531067" lon="12.0438417"><ele>105.0</ele><time>2026-05-02T05:04:39.44Z</time></trkpt><trkpt lat="44.153125" lon="12.043985"><ele>105.0</ele><time>2026-05-02T05:04:40.439Z</time></trkpt><trkpt lat="44.153145" lon="12.044125"><ele>105.0</ele><time>2026-05-02T05:04:41.439Z</time></trkpt><trkpt lat="44.1531733" lon="12.0442583"><ele>105.0</ele><time>2026-05-02T05:04:42.441Z</time></trkpt><trkpt lat="44.1532083" lon="12.044385"><ele>105.0</ele><time>2026-05-02T05:04:43.439Z</time></trkpt><trkpt lat="44.1532517" lon="12.0445033"><ele>104.4</ele><time>2026-05-02T05:04:44.44Z</time></trkpt><trkpt lat="44.1532983" lon="12.0446167"><ele>103.8</ele><time>2026-05-02T05:04:45.443Z</time></trkpt><trkpt lat="44.1533533" lon="12.0447217"><ele>103.19999999999999</ele><time>2026-05-02T05:04:46.442Z</time></trkpt><trkpt lat="44.1534083" lon="12.044825"><ele>102.6</ele><time>2026-05-02T05:04:47.439Z</time></trkpt><trkpt lat="44.1534633" lon="12.044925"><ele>102.0</ele><time>2026-05-02T05:04:48.439Z</time></trkpt><trkpt lat="44.1535217" lon="12.0450233"><ele>101.83333333333333</ele><time>2026-05-02T05:04:49.439Z</time></trkpt><trkpt lat="44.15358" lon="12.04512"><ele>101.66666666666666</ele><time>2026-05-02T05:04:50.44Z</time></trkpt><trkpt lat="44.1536383" lon="12.0452133"><ele>101.5</ele><time>2026-05-02T05:04:51.439Z</time></trkpt><trkpt lat="44.1536983" lon="12.0453083"><ele>101.33333333333333</ele><time>2026-05-02T05:04:52.44Z</time></trkpt><trkpt lat="44.153755" lon="12.0454"><ele>101.16666666666666</ele><time>2026-05-02T05:04:53.439Z</time></trkpt><trkpt lat="44.1538133" lon="12.0454917"><ele>101.0</ele><time>2026-05-02T05:04:54.439Z</time></trkpt><trkpt lat="44.15387" lon="12.0455817"><ele>100.99999999999999</ele><time>2026-05-02T05:04:55.44Z</time></trkpt><trkpt lat="44.15393" lon="12.0456667"><ele>101.0</ele><time>2026-05-02T05:04:56.439Z</time></trkpt><trkpt lat="44.1539967" lon="12.0457517"><ele>101.0</ele><time>2026-05-02T05:04:57.44Z</time></trkpt><trkpt lat="44.1540617" lon="12.0458367"><ele>101.0</ele><time>2026-05-02T05:04:58.44Z</time></trkpt><trkpt lat="44.1541233" lon="12.0459217"><ele>100.99999999999999</ele><time>2026-05-02T05:04:59.439Z</time></trkpt><trkpt lat="44.154185" lon="12.0460033"><ele>101.0</ele><time>2026-05-02T05:05:00.439Z</time></trkpt><trkpt lat="44.1542467" lon="12.0460817"><ele>100.33333333333333</ele><time>2026-05-02T05:05:01.439Z</time></trkpt><trkpt lat="44.1543067" lon="12.0461583"><ele>99.66666666666666</ele><time>2026-05-02T05:05:02.44Z</time></trkpt><trkpt lat="44.15437" lon="12.046235"><ele>99.0</ele><time>2026-05-02T05:05:03.439Z</time></trkpt><trkpt lat="44.154435" lon="12.04631"><ele>98.33333333333334</ele><time>2026-05-02T05:05:04.438Z</time></trkpt><trkpt lat="44.1544967" lon="12.0463833"><ele>97.66666666666667</ele><time>2026-05-02T05:05:05.439Z</time></trkpt><trkpt lat="44.1545567" lon="12.046455"><ele>97.0</ele><time>2026-05-02T05:05:06.44Z</time></trkpt><trkpt lat="44.1546133" lon="12.04653"><ele>97.00000000000001</ele><time>2026-05-02T05:05:07.439Z</time></trkpt><trkpt lat="44.1546667" lon="12.0466067"><ele>97.0</ele><time>2026-05-02T05:05:08.439Z</time></trkpt><trkpt lat="44.1547183" lon="12.04669"><ele>97.0</ele><time>2026-05-02T05:05:09.439Z</time></trkpt><trkpt lat="44.15476" lon="12.04678"><ele>97.0</ele><time>2026-05-02T05:05:10.439Z</time></trkpt><trkpt lat="44.1547933" lon="12.0468767"><ele>97.00000000000001</ele><time>2026-05-02T05:05:11.438Z</time></trkpt><trkpt lat="44.1548233" lon="12.0469767"><ele>97.0</ele><time>2026-05-02T05:05:12.443Z</time></trkpt><trkpt lat="44.1548433" lon="12.0470767"><ele>96.85714285714285</ele><time>2026-05-02T05:05:13.443Z</time></trkpt><trkpt lat="44.1548583" lon="12.0471783"><ele>96.71428571428572</ele><time>2026-05-02T05:05:14.442Z</time></trkpt><trkpt lat="44.15487" lon="12.0472783"><ele>96.57142857142857</ele><time>2026-05-02T05:05:15.44Z</time></trkpt><trkpt lat="44.154885" lon="12.0473767"><ele>96.42857142857142</ele><time>2026-05-02T05:05:16.439Z</time></trkpt><trkpt lat="44.1548967" lon="12.0474717"><ele>96.28571428571428</ele><time>2026-05-02T05:05:17.443Z</time></trkpt><trkpt lat="44.1549083" lon="12.04757"><ele>96.14285714285714</ele><time>2026-05-02T05:05:18.44Z</time></trkpt><trkpt lat="44.1549233" lon="12.04767"><ele>96.0</ele><time>2026-05-02T05:05:19.44Z</time></trkpt><trkpt lat="44.1549367" lon="12.0477683"><ele>95.57142857142857</ele><time>2026-05-02T05:05:20.44Z</time></trkpt><trkpt lat="44.1549583" lon="12.0478667"><ele>95.14285714285714</ele><time>2026-05-02T05:05:21.44Z</time></trkpt><trkpt lat="44.154975" lon="12.047965"><ele>94.71428571428572</ele><time>2026-05-02T05:05:22.439Z</time></trkpt><trkpt lat="44.1549933" lon="12.0480617"><ele>94.28571428571428</ele><time>2026-05-02T05:05:23.44Z</time></trkpt><trkpt lat="44.1550117" lon="12.04816"><ele>93.85714285714286</ele><time>2026-05-02T05:05:24.439Z</time></trkpt><trkpt lat="44.1550283" lon="12.0482583"><ele>93.42857142857143</ele><time>2026-05-02T05:05:25.441Z</time></trkpt><trkpt lat="44.1550417" lon="12.048355"><ele>93.0</ele><time>2026-05-02T05:05:26.441Z</time></trkpt><trkpt lat="44.1550583" lon="12.04845"><ele>92.85714285714286</ele><time>2026-05-02T05:05:27.44Z</time></trkpt><trkpt lat="44.155075" lon="12.048545"><ele>92.71428571428572</ele><time>2026-05-02T05:05:28.439Z</time></trkpt><trkpt lat="44.1550867" lon="12.0486417"><ele>92.57142857142858</ele><time>2026-05-02T05:05:29.439Z</time></trkpt><trkpt lat="44.1551" lon="12.048735"><ele>92.42857142857143</ele><time>2026-05-02T05:05:30.44Z</time></trkpt><trkpt lat="44.15512" lon="12.0488283"><ele>92.28571428571428</ele><time>2026-05-02T05:05:31.44Z</time></trkpt><trkpt lat="44.1551383" lon="12.0489217"><ele>92.14285714285715</ele><time>2026-05-02T05:05:32.44Z</time></trkpt><trkpt lat="44.1551533" lon="12.0490167"><ele>92.0</ele><time>2026-05-02T05:05:33.439Z</time></trkpt><trkpt lat="44.15517" lon="12.04911"><ele>92.14285714285715</ele><time>2026-05-02T05:05:34.439Z</time></trkpt><trkpt lat="44.1551833" lon="12.0492017"><ele>92.28571428571428</ele><time>2026-05-02T05:05:35.44Z</time></trkpt><trkpt lat="44.155195" lon="12.049295"><ele>92.42857142857143</ele><time>2026-05-02T05:05:36.439Z</time></trkpt><trkpt lat="44.1552083" lon="12.0493883"><ele>92.57142857142858</ele><time>2026-05-02T05:05:37.442Z</time></trkpt><trkpt lat="44.155225" lon="12.0494817"><ele>92.71428571428572</ele><time>2026-05-02T05:05:38.441Z</time></trkpt><trkpt lat="44.1552417" lon="12.0495717"><ele>92.85714285714286</ele><time>2026-05-02T05:05:39.44Z</time></trkpt><trkpt lat="44.15526" lon="12.0496667"><ele>93.0</ele><time>2026-05-02T05:05:40.439Z</time></trkpt><trkpt lat="44.1552933" lon="12.04981"><ele>93.0</ele><time>2026-05-02T05:05:42.443Z</time></trkpt><trkpt lat="44.1551983" lon="12.0498583"><ele>93.0</ele><time>2026-05-02T05:05:45.442Z</time></trkpt><trkpt lat="44.1551117" lon="12.0498317"><ele>93.0</ele><time>2026-05-02T05:05:47.441Z</time></trkpt><trkpt lat="44.15502" lon="12.0498133"><ele>93.0</ele><time>2026-05-02T05:05:49.44Z</time></trkpt><trkpt lat="44.1549317" lon="12.0497917"><ele>93.0</ele><time>2026-05-02T05:05:51.44Z</time></trkpt><trkpt lat="44.1548417" lon="12.0497667"><ele>92.66666666666667</ele><time>2026-05-02T05:05:53.438Z</time></trkpt><trkpt lat="44.15476" lon="12.0497367"><ele>92.33333333333333</ele><time>2026-05-02T05:05:55.438Z</time></trkpt><trkpt lat="44.1546767" lon="12.0497183"><ele>92.0</ele><time>2026-05-02T05:05:57.439Z</time></trkpt><trkpt lat="44.1546" lon="12.0496933"><ele>91.66666666666666</ele><time>2026-05-02T05:05:59.442Z</time></trkpt><trkpt lat="44.1545133" lon="12.0496833"><ele>91.33333333333333</ele><time>2026-05-02T05:06:01.442Z</time></trkpt><trkpt lat="44.15442" lon="12.0496717"><ele>91.0</ele><time>2026-05-02T05:06:03.44Z</time></trkpt><trkpt lat="44.1543267" lon="12.0496467"><ele>91.0</ele><time>2026-05-02T05:06:05.439Z</time></trkpt><trkpt lat="44.154235" lon="12.0496133"><ele>91.0</ele><time>2026-05-02T05:06:07.441Z</time></trkpt><trkpt lat="44.1541433" lon="12.04958"><ele>91.0</ele><time>2026-05-02T05:06:09.44Z</time></trkpt><trkpt lat="44.1540467" lon="12.049555"><ele>91.0</ele><time>2026-05-02T05:06:11.439Z</time></trkpt><trkpt lat="44.1539483" lon="12.049535"><ele>91.0</ele><time>2026-05-02T05:06:13.439Z</time></trkpt><trkpt lat="44.1538517" lon="12.0495067"><ele>90.6</ele><time>2026-05-02T05:06:15.442Z</time></trkpt><trkpt lat="44.1537567" lon="12.0494883"><ele>90.19999999999999</ele><time>2026-05-02T05:06:17.442Z</time></trkpt><trkpt lat="44.1536667" lon="12.0494617"><ele>89.80000000000001</ele><time>2026-05-02T05:06:19.439Z</time></trkpt><trkpt lat="44.1535733" lon="12.0494383"><ele>89.4</ele><time>2026-05-02T05:06:21.442Z</time></trkpt><trkpt lat="44.1534783" lon="12.0494167"><ele>89.0</ele><time>2026-05-02T05:06:23.44Z</time></trkpt><trkpt lat="44.15338" lon="12.0494"><ele>89.0</ele><time>2026-05-02T05:06:25.443Z</time></trkpt><trkpt lat="44.1532867" lon="12.0493767"><ele>89.0</ele><time>2026-05-02T05:06:27.443Z</time></trkpt><trkpt lat="44.1531917" lon="12.0493517"><ele>89.0</ele><time>2026-05-02T05:06:29.443Z</time></trkpt><trkpt lat="44.1530983" lon="12.0493217"><ele>89.0</ele><time>2026-05-02T05:06:31.442Z</time></trkpt><trkpt lat="44.1530067" lon="12.04933"><ele>89.0</ele><time>2026-05-02T05:06:33.442Z</time></trkpt><trkpt lat="44.1529467" lon="12.0494117"><ele>88.5</ele><time>2026-05-02T05:06:35.438Z</time></trkpt><trkpt lat="44.1529183" lon="12.0495117"><ele>88.0</ele><time>2026-05-02T05:06:37.441Z</time></trkpt><trkpt lat="44.1529033" lon="12.0496217"><ele>87.5</ele><time>2026-05-02T05:06:39.44Z</time></trkpt><trkpt lat="44.1528767" lon="12.0497283"><ele>87.0</ele><time>2026-05-02T05:06:41.44Z</time></trkpt><trkpt lat="44.1528417" lon="12.0498483"><ele>86.5</ele><time>2026-05-02T05:06:43.442Z</time></trkpt><trkpt lat="44.152785" lon="12.049975"><ele>86.0</ele><time>2026-05-02T05:06:45.439Z</time></trkpt><trkpt lat="44.1526917" lon="12.050095"><ele>85.19999999999999</ele><time>2026-05-02T05:06:47.439Z</time></trkpt><trkpt lat="44.1526367" lon="12.05015"><ele>84.39999999999999</ele><time>2026-05-02T05:06:48.441Z</time></trkpt><trkpt lat="44.1525667" lon="12.0501917"><ele>83.6</ele><time>2026-05-02T05:06:49.443Z</time></trkpt><trkpt lat="44.1524783" lon="12.050215"><ele>82.8</ele><time>2026-05-02T05:06:50.441Z</time></trkpt><trkpt lat="44.1523633" lon="12.05021"><ele>82.0</ele><time>2026-05-02T05:06:51.441Z</time></trkpt><trkpt lat="44.1522383" lon="12.0502067"><ele>78.75</ele><time>2026-05-02T05:06:52.442Z</time></trkpt><trkpt lat="44.15211" lon="12.0502133"><ele>75.5</ele><time>2026-05-02T05:06:53.442Z</time></trkpt><trkpt lat="44.1519783" lon="12.0502167"><ele>72.25</ele><time>2026-05-02T05:06:54.441Z</time></trkpt><trkpt lat="44.151845" lon="12.050215"><ele>69.0</ele><time>2026-05-02T05:06:55.438Z</time></trkpt><trkpt lat="44.1517133" lon="12.0502117"><ele>69.0</ele><time>2026-05-02T05:06:56.439Z</time></trkpt><trkpt lat="44.151585" lon="12.0502083"><ele>69.0</ele><time>2026-05-02T05:06:57.44Z</time></trkpt><trkpt lat="44.1514567" lon="12.050205"><ele>69.0</ele><time>2026-05-02T05:06:58.439Z</time></trkpt><trkpt lat="44.1513333" lon="12.0502"><ele>69.0</ele><time>2026-05-02T05:06:59.439Z</time></trkpt><trkpt lat="44.151215" lon="12.050195"><ele>68.60000000000001</ele><time>2026-05-02T05:07:00.44Z</time></trkpt><trkpt lat="44.1511" lon="12.0501883"><ele>68.2</ele><time>2026-05-02T05:07:01.443Z</time></trkpt><trkpt lat="44.1509917" lon="12.0501817"><ele>67.80000000000001</ele><time>2026-05-02T05:07:02.441Z</time></trkpt><trkpt lat="44.15089" lon="12.0501783"><ele>67.4</ele><time>2026-05-02T05:07:03.44Z</time></trkpt><trkpt lat="44.1507917" lon="12.0501817"><ele>67.0</ele><time>2026-05-02T05:07:04.439Z</time></trkpt><trkpt lat="44.150695" lon="12.05019"><ele>68.5</ele><time>2026-05-02T05:07:05.442Z</time></trkpt><trkpt lat="44.1506017" lon="12.050205"><ele>70.0</ele><time>2026-05-02T05:07:06.442Z</time></trkpt><trkpt lat="44.150505" lon="12.0502217"><ele>71.5</ele><time>2026-05-02T05:07:07.442Z</time></trkpt><trkpt lat="44.1504083" lon="12.05024"><ele>73.0</ele><time>2026-05-02T05:07:08.442Z</time></trkpt><trkpt lat="44.1503267" lon="12.0502617"><ele>74.5</ele><time>2026-05-02T05:07:09.44Z</time></trkpt><trkpt lat="44.150255" lon="12.0502667"><ele>76.0</ele><time>2026-05-02T05:07:10.441Z</time></trkpt><trkpt lat="44.1501433" lon="12.0502367"><ele>76.0</ele><time>2026-05-02T05:07:12.439Z</time></trkpt><trkpt lat="44.1500817" lon="12.0501817"><ele>76.0</ele><time>2026-05-02T05:07:14.441Z</time></trkpt><trkpt lat="44.15002" lon="12.0501233"><ele>76.0</ele><time>2026-05-02T05:07:18.441Z</time></trkpt><trkpt lat="44.1499717" lon="12.050045"><ele>76.0</ele><time>2026-05-02T05:07:21.441Z</time></trkpt><trkpt lat="44.149915" lon="12.0499717"><ele>76.0</ele><time>2026-05-02T05:07:24.44Z</time></trkpt><trkpt lat="44.1498533" lon="12.04991"><ele>76.0</ele><time>2026-05-02T05:07:27.443Z</time></trkpt><trkpt lat="44.1498033" lon="12.0498333"><ele>76.0</ele><time>2026-05-02T05:07:30.44Z</time></trkpt><trkpt lat="44.149735" lon="12.04978"><ele>77.14285714285714</ele><time>2026-05-02T05:07:33.439Z</time></trkpt><trkpt lat="44.1496883" lon="12.0497033"><ele>78.28571428571429</ele><time>2026-05-02T05:07:36.44Z</time></trkpt><trkpt lat="44.1496533" lon="12.0496133"><ele>79.42857142857143</ele><time>2026-05-02T05:07:39.443Z</time></trkpt><trkpt lat="44.1496033" lon="12.0495433"><ele>80.57142857142857</ele><time>2026-05-02T05:07:42.442Z</time></trkpt><trkpt lat="44.1495533" lon="12.0494483"><ele>81.71428571428572</ele><time>2026-05-02T05:07:46.44Z</time></trkpt><trkpt lat="44.1495133" lon="12.0493683"><ele>82.85714285714286</ele><time>2026-05-02T05:07:49.439Z</time></trkpt><trkpt lat="44.1494733" lon="12.0492967"><ele>84.0</ele><time>2026-05-02T05:07:52.442Z</time></trkpt><trkpt lat="44.149415" lon="12.049215"><ele>84.0</ele><time>2026-05-02T05:07:56.44Z</time></trkpt><trkpt lat="44.1493667" lon="12.0491583"><ele>84.0</ele><time>2026-05-02T05:07:59.44Z</time></trkpt><trkpt lat="44.149325" lon="12.04909"><ele>84.0</ele><time>2026-05-02T05:08:02.439Z</time></trkpt><trkpt lat="44.1492733" lon="12.0490017"><ele>84.0</ele><time>2026-05-02T05:08:06.44Z</time></trkpt><trkpt lat="44.1492133" lon="12.0489283"><ele>84.0</ele><time>2026-05-02T05:08:10.439Z</time></trkpt><trkpt lat="44.1491417" lon="12.0489683"><ele>84.0</ele><time>2026-05-02T05:08:13.442Z</time></trkpt><trkpt lat="44.14909" lon="12.0490433"><ele>84.0</ele><time>2026-05-02T05:08:16.441Z</time></trkpt><trkpt lat="44.1490333" lon="12.0491317"><ele>85.0</ele><time>2026-05-02T05:08:19.443Z</time></trkpt><trkpt lat="44.1489717" lon="12.0492167"><ele>86.0</ele><time>2026-05-02T05:08:22.442Z</time></trkpt><trkpt lat="44.1489017" lon="12.0492917"><ele>87.0</ele><time>2026-05-02T05:08:25.443Z</time></trkpt><trkpt lat="44.1488533" lon="12.0493567"><ele>88.0</ele><time>2026-05-02T05:08:27.441Z</time></trkpt><trkpt lat="44.1488033" lon="12.0494167"><ele>89.0</ele><time>2026-05-02T05:08:29.443Z</time></trkpt><trkpt lat="44.148755" lon="12.0494917"><ele>90.0</ele><time>2026-05-02T05:08:31.442Z</time></trkpt><trkpt lat="44.14871" lon="12.0495567"><ele>91.0</ele><time>2026-05-02T05:08:33.441Z</time></trkpt><trkpt lat="44.1486617" lon="12.04962"><ele>91.0</ele><time>2026-05-02T05:08:35.441Z</time></trkpt><trkpt lat="44.148615" lon="12.0496867"><ele>91.0</ele><time>2026-05-02T05:08:37.442Z</time></trkpt><trkpt lat="44.1485617" lon="12.0497567"><ele>91.0</ele><time>2026-05-02T05:08:39.442Z</time></trkpt><trkpt lat="44.1485133" lon="12.0498217"><ele>91.0</ele><time>2026-05-02T05:08:41.442Z</time></trkpt><trkpt lat="44.1484633" lon="12.0498917"><ele>91.0</ele><time>2026-05-02T05:08:43.442Z</time></trkpt><trkpt lat="44.1484183" lon="12.049965"><ele>91.0</ele><time>2026-05-02T05:08:45.442Z</time></trkpt><trkpt lat="44.14838" lon="12.0500483"><ele>91.0</ele><time>2026-05-02T05:08:47.441Z</time></trkpt><trkpt lat="44.1483017" lon="12.0501283"><ele>90.5</ele><time>2026-05-02T05:08:50.441Z</time></trkpt><trkpt lat="44.1482467" lon="12.0502033"><ele>90.0</ele><time>2026-05-02T05:08:52.441Z</time></trkpt><trkpt lat="44.1481933" lon="12.05028"><ele>89.5</ele><time>2026-05-02T05:08:54.442Z</time></trkpt><trkpt lat="44.14814" lon="12.0503567"><ele>89.0</ele><time>2026-05-02T05:08:56.442Z</time></trkpt><trkpt lat="44.1480817" lon="12.05043"><ele>88.5</ele><time>2026-05-02T05:08:58.441Z</time></trkpt><trkpt lat="44.1480233" lon="12.0505183"><ele>88.0</ele><time>2026-05-02T05:09:00.438Z</time></trkpt><trkpt lat="44.1479633" lon="12.05061"><ele>88.0</ele><time>2026-05-02T05:09:02.44Z</time></trkpt><trkpt lat="44.1478983" lon="12.050695"><ele>88.0</ele><time>2026-05-02T05:09:04.442Z</time></trkpt><trkpt lat="44.1478367" lon="12.05078"><ele>88.0</ele><time>2026-05-02T05:09:06.442Z</time></trkpt><trkpt lat="44.1477733" lon="12.05087"><ele>88.0</ele><time>2026-05-02T05:09:08.442Z</time></trkpt><trkpt lat="44.1477083" lon="12.0509583"><ele>88.0</ele><time>2026-05-02T05:09:10.442Z</time></trkpt><trkpt lat="44.14765" lon="12.0510483"><ele>88.0</ele><time>2026-05-02T05:09:12.442Z</time></trkpt><trkpt lat="44.1475883" lon="12.0511333"><ele>87.66666666666666</ele><time>2026-05-02T05:09:14.441Z</time></trkpt><trkpt lat="44.1475267" lon="12.0512217"><ele>87.33333333333333</ele><time>2026-05-02T05:09:16.442Z</time></trkpt><trkpt lat="44.1474667" lon="12.0513067"><ele>87.0</ele><time>2026-05-02T05:09:18.442Z</time></trkpt><trkpt lat="44.1474033" lon="12.0513967"><ele>86.66666666666667</ele><time>2026-05-02T05:09:20.441Z</time></trkpt><trkpt lat="44.1473433" lon="12.05148"><ele>86.33333333333334</ele><time>2026-05-02T05:09:22.442Z</time></trkpt><trkpt lat="44.14729" lon="12.0515483"><ele>86.0</ele><time>2026-05-02T05:09:24.439Z</time></trkpt><trkpt lat="44.147235" lon="12.0516117"><ele>85.5</ele><time>2026-05-02T05:09:26.443Z</time></trkpt><trkpt lat="44.1471767" lon="12.05168"><ele>85.0</ele><time>2026-05-02T05:09:28.442Z</time></trkpt><trkpt lat="44.147115" lon="12.0517467"><ele>84.5</ele><time>2026-05-02T05:09:30.438Z</time></trkpt><trkpt lat="44.1470567" lon="12.0518183"><ele>84.0</ele><time>2026-05-02T05:09:32.439Z</time></trkpt><trkpt lat="44.1470017" lon="12.051895"><ele>83.5</ele><time>2026-05-02T05:09:34.44Z</time></trkpt><trkpt lat="44.1469433" lon="12.0519783"><ele>83.0</ele><time>2026-05-02T05:09:36.44Z</time></trkpt><trkpt lat="44.1468833" lon="12.0520583"><ele>83.0</ele><time>2026-05-02T05:09:38.441Z</time></trkpt><trkpt lat="44.1468267" lon="12.0521367"><ele>83.0</ele><time>2026-05-02T05:09:40.439Z</time></trkpt><trkpt lat="44.14677" lon="12.0522083"><ele>83.0</ele><time>2026-05-02T05:09:42.44Z</time></trkpt><trkpt lat="44.146705" lon="12.05227"><ele>83.0</ele><time>2026-05-02T05:09:44.441Z</time></trkpt><trkpt lat="44.1466433" lon="12.0523283"><ele>83.0</ele><time>2026-05-02T05:09:46.443Z</time></trkpt><trkpt lat="44.14659" lon="12.05239"><ele>83.0</ele><time>2026-05-02T05:09:48.439Z</time></trkpt><trkpt lat="44.146545" lon="12.05246"><ele>83.0</ele><time>2026-05-02T05:09:50.44Z</time></trkpt><trkpt lat="44.1464667" lon="12.052515"><ele>82.57142857142857</ele><time>2026-05-02T05:09:53.439Z</time></trkpt><trkpt lat="44.1464033" lon="12.0524967"><ele>82.14285714285715</ele><time>2026-05-02T05:09:56.44Z</time></trkpt><trkpt lat="44.1464917" lon="12.0525367"><ele>81.71428571428572</ele><time>2026-05-02T05:10:12.443Z</time></trkpt><trkpt lat="44.1465133" lon="12.0526267"><ele>81.28571428571428</ele><time>2026-05-02T05:10:14.44Z</time></trkpt><trkpt lat="44.146515" lon="12.0527333"><ele>80.85714285714286</ele><time>2026-05-02T05:10:16.443Z</time></trkpt><trkpt lat="44.1464933" lon="12.052825"><ele>80.42857142857143</ele><time>2026-05-02T05:10:19.441Z</time></trkpt><trkpt lat="44.1464333" lon="12.0528517"><ele>80.0</ele><time>2026-05-02T05:10:22.44Z</time></trkpt><trkpt lat="44.146355" lon="12.0528583"><ele>80.0</ele><time>2026-05-02T05:10:25.442Z</time></trkpt><trkpt lat="44.1462883" lon="12.0528833"><ele>80.0</ele><time>2026-05-02T05:10:28.443Z</time></trkpt><trkpt lat="44.1462033" lon="12.0529183"><ele>80.0</ele><time>2026-05-02T05:10:31.443Z</time></trkpt><trkpt lat="44.146115" lon="12.05295"><ele>80.0</ele><time>2026-05-02T05:10:34.44Z</time></trkpt><trkpt lat="44.146055" lon="12.0529833"><ele>80.0</ele><time>2026-05-02T05:10:36.443Z</time></trkpt><trkpt lat="44.1459917" lon="12.05305"><ele>80.0</ele><time>2026-05-02T05:10:38.443Z</time></trkpt><trkpt lat="44.1459267" lon="12.0531467"><ele>80.0</ele><time>2026-05-02T05:10:40.443Z</time></trkpt><trkpt lat="44.145865" lon="12.0532433"><ele>80.0</ele><time>2026-05-02T05:10:42.444Z</time></trkpt><trkpt lat="44.14581" lon="12.0533283"><ele>80.0</ele><time>2026-05-02T05:10:44.442Z</time></trkpt><trkpt lat="44.14576" lon="12.053395"><ele>80.0</ele><time>2026-05-02T05:10:46.442Z</time></trkpt><trkpt lat="44.1457017" lon="12.053485"><ele>80.0</ele><time>2026-05-02T05:10:49.44Z</time></trkpt><trkpt lat="44.14565" lon="12.053565"><ele>80.0</ele><time>2026-05-02T05:10:53.44Z</time></trkpt><trkpt lat="44.1455983" lon="12.05365"><ele>81.28571428571428</ele><time>2026-05-02T05:10:57.443Z</time></trkpt><trkpt lat="44.1455417" lon="12.0537333"><ele>82.57142857142857</ele><time>2026-05-02T05:11:01.443Z</time></trkpt><trkpt lat="44.1454933" lon="12.0538167"><ele>83.85714285714286</ele><time>2026-05-02T05:11:05.443Z</time></trkpt><trkpt lat="44.145435" lon="12.053865"><ele>85.14285714285714</ele><time>2026-05-02T05:11:10.442Z</time></trkpt><trkpt lat="44.145375" lon="12.053895"><ele>86.42857142857143</ele><time>2026-05-02T05:11:14.441Z</time></trkpt><trkpt lat="44.145315" lon="12.0539283"><ele>87.71428571428571</ele><time>2026-05-02T05:11:51.441Z</time></trkpt><trkpt lat="44.1452517" lon="12.0539083"><ele>89.0</ele><time>2026-05-02T05:11:56.443Z</time></trkpt><trkpt lat="44.1451817" lon="12.0539117"><ele>89.0</ele><time>2026-05-02T05:12:03.44Z</time></trkpt><trkpt lat="44.1450517" lon="12.053945"><ele>89.0</ele><time>2026-05-02T05:12:19.441Z</time></trkpt><trkpt lat="44.1449317" lon="12.0539433"><ele>89.0</ele><time>2026-05-02T05:12:51.441Z</time></trkpt><trkpt lat="44.14486" lon="12.0539583"><ele>89.0</ele><time>2026-05-02T05:12:56.44Z</time></trkpt><trkpt lat="44.14478" lon="12.05398"><ele>89.0</ele><time>2026-05-02T05:13:01.442Z</time></trkpt><trkpt lat="44.14471" lon="12.053975"><ele>88.99999999999999</ele><time>2026-05-02T05:13:06.441Z</time></trkpt><trkpt lat="44.1446417" lon="12.0540683"><ele>89.0</ele><time>2026-05-02T05:13:45.441Z</time></trkpt><trkpt lat="44.1446133" lon="12.0541517"><ele>89.0</ele><time>2026-05-02T05:13:49.439Z</time></trkpt><trkpt lat="44.1445867" lon="12.05425"><ele>89.0</ele><time>2026-05-02T05:13:54.44Z</time></trkpt><trkpt lat="44.1445583" lon="12.05433"><ele>89.0</ele><time>2026-05-02T05:13:59.439Z</time></trkpt><trkpt lat="44.144535" lon="12.054425"><ele>88.99999999999999</ele><time>2026-05-02T05:14:04.44Z</time></trkpt><trkpt lat="44.14451" lon="12.0545083"><ele>89.0</ele><time>2026-05-02T05:14:10.439Z</time></trkpt><trkpt lat="44.1444417" lon="12.0544817"><ele>88.57142857142857</ele><time>2026-05-02T05:14:22.443Z</time></trkpt><trkpt lat="44.1443783" lon="12.05446"><ele>88.14285714285714</ele><time>2026-05-02T05:14:30.44Z</time></trkpt><trkpt lat="44.1443067" lon="12.0544633"><ele>87.71428571428572</ele><time>2026-05-02T05:14:38.44Z</time></trkpt><trkpt lat="44.14438" lon="12.0544667"><ele>87.28571428571428</ele><time>2026-05-02T05:14:59.439Z</time></trkpt><trkpt lat="44.1444533" lon="12.0544983"><ele>86.85714285714286</ele><time>2026-05-02T05:15:03.446Z</time></trkpt><trkpt lat="44.1444433" lon="12.054585"><ele>86.42857142857143</ele><time>2026-05-02T05:15:06.44Z</time></trkpt><trkpt lat="44.144385" lon="12.0546633"><ele>86.0</ele><time>2026-05-02T05:15:10.443Z</time></trkpt><trkpt lat="44.144405" lon="12.0547667"><ele>86.0</ele><time>2026-05-02T05:15:14.439Z</time></trkpt><trkpt lat="44.144465" lon="12.0548267"><ele>86.0</ele><time>2026-05-02T05:15:17.443Z</time></trkpt><trkpt lat="44.1445233" lon="12.0548783"><ele>86.0</ele><time>2026-05-02T05:15:20.44Z</time></trkpt><trkpt lat="44.1445967" lon="12.0549317"><ele>86.0</ele><time>2026-05-02T05:15:23.439Z</time></trkpt><trkpt lat="44.144615" lon="12.055045"><ele>86.0</ele><time>2026-05-02T05:15:26.44Z</time></trkpt><trkpt lat="44.1446083" lon="12.0551517"><ele>86.0</ele><time>2026-05-02T05:15:28.441Z</time></trkpt><trkpt lat="44.1445967" lon="12.0552717"><ele>84.85714285714286</ele><time>2026-05-02T05:15:30.44Z</time></trkpt><trkpt lat="44.1445767" lon="12.055385"><ele>83.71428571428572</ele><time>2026-05-02T05:15:32.443Z</time></trkpt><trkpt lat="44.1445483" lon="12.0554817"><ele>82.57142857142858</ele><time>2026-05-02T05:15:34.443Z</time></trkpt><trkpt lat="44.1445333" lon="12.0555817"><ele>81.42857142857143</ele><time>2026-05-02T05:15:36.442Z</time></trkpt><trkpt lat="44.144515" lon="12.0556933"><ele>80.28571428571428</ele><time>2026-05-02T05:15:39.44Z</time></trkpt><trkpt lat="44.1445017" lon="12.05578"><ele>79.14285714285715</ele><time>2026-05-02T05:15:43.441Z</time></trkpt><trkpt lat="44.1444767" lon="12.055865"><ele>78.0</ele><time>2026-05-02T05:15:47.441Z</time></trkpt><trkpt lat="44.144435" lon="12.0559367"><ele>78.0</ele><time>2026-05-02T05:15:51.44Z</time></trkpt><trkpt lat="44.144395" lon="12.0560317"><ele>78.0</ele><time>2026-05-02T05:15:58.439Z</time></trkpt><trkpt lat="44.144365" lon="12.0561167"><ele>78.0</ele><time>2026-05-02T05:16:03.443Z</time></trkpt><trkpt lat="44.144295" lon="12.0562217"><ele>78.0</ele><time>2026-05-02T05:16:11.443Z</time></trkpt><trkpt lat="44.1442633" lon="12.0563167"><ele>78.0</ele><time>2026-05-02T05:16:16.442Z</time></trkpt><trkpt lat="44.1442583" lon="12.056425"><ele>78.0</ele><time>2026-05-02T05:16:22.441Z</time></trkpt><trkpt lat="44.1442783" lon="12.0565117"><ele>78.0</ele><time>2026-05-02T05:16:27.439Z</time></trkpt><trkpt lat="44.1443217" lon="12.0565967"><ele>78.0</ele><time>2026-05-02T05:16:32.44Z</time></trkpt><trkpt lat="44.144375" lon="12.0566467"><ele>78.0</ele><time>2026-05-02T05:16:37.442Z</time></trkpt><trkpt lat="44.1444283" lon="12.056695"><ele>78.0</ele><time>2026-05-02T05:16:42.443Z</time></trkpt><trkpt lat="44.1444917" lon="12.05676"><ele>78.0</ele><time>2026-05-02T05:16:46.443Z</time></trkpt><trkpt lat="44.14454" lon="12.0568533"><ele>78.0</ele><time>2026-05-02T05:16:50.44Z</time></trkpt><trkpt lat="44.14457" lon="12.0569567"><ele>78.0</ele><time>2026-05-02T05:16:53.44Z</time></trkpt><trkpt lat="44.1445767" lon="12.057065"><ele>78.66666666666667</ele><time>2026-05-02T05:16:56.44Z</time></trkpt><trkpt lat="44.14458" lon="12.057185"><ele>79.33333333333333</ele><time>2026-05-02T05:16:59.44Z</time></trkpt><trkpt lat="44.1445783" lon="12.057305"><ele>80.0</ele><time>2026-05-02T05:17:02.44Z</time></trkpt><trkpt lat="44.14456" lon="12.057405"><ele>80.66666666666666</ele><time>2026-05-02T05:17:04.441Z</time></trkpt><trkpt lat="44.1445467" lon="12.0574933"><ele>81.33333333333333</ele><time>2026-05-02T05:17:06.442Z</time></trkpt><trkpt lat="44.14452" lon="12.0575783"><ele>82.0</ele><time>2026-05-02T05:17:08.443Z</time></trkpt><trkpt lat="44.1444283" lon="12.05762"><ele>82.16666666666666</ele><time>2026-05-02T05:17:11.443Z</time></trkpt><trkpt lat="44.1443433" lon="12.0576"><ele>82.33333333333333</ele><time>2026-05-02T05:17:13.443Z</time></trkpt><trkpt lat="44.1442567" lon="12.0575717"><ele>82.5</ele><time>2026-05-02T05:17:15.444Z</time></trkpt><trkpt lat="44.1441717" lon="12.0575217"><ele>82.66666666666667</ele><time>2026-05-02T05:17:17.443Z</time></trkpt><trkpt lat="44.144095" lon="12.0574817"><ele>82.83333333333334</ele><time>2026-05-02T05:17:19.44Z</time></trkpt><trkpt lat="44.1440233" lon="12.0574467"><ele>83.0</ele><time>2026-05-02T05:17:21.439Z</time></trkpt><trkpt lat="44.1439517" lon="12.057405"><ele>83.33333333333334</ele><time>2026-05-02T05:17:23.44Z</time></trkpt><trkpt lat="44.1438767" lon="12.0573733"><ele>83.66666666666667</ele><time>2026-05-02T05:17:25.44Z</time></trkpt><trkpt lat="44.1437967" lon="12.0573467"><ele>84.0</ele><time>2026-05-02T05:17:27.439Z</time></trkpt><trkpt lat="44.1437233" lon="12.0573133"><ele>84.33333333333333</ele><time>2026-05-02T05:17:29.441Z</time></trkpt><trkpt lat="44.14365" lon="12.05728"><ele>84.66666666666666</ele><time>2026-05-02T05:17:31.441Z</time></trkpt><trkpt lat="44.1435833" lon="12.0572483"><ele>85.0</ele><time>2026-05-02T05:17:33.439Z</time></trkpt><trkpt lat="44.1435233" lon="12.0572133"><ele>85.0</ele><time>2026-05-02T05:17:35.441Z</time></trkpt><trkpt lat="44.143465" lon="12.05718"><ele>85.0</ele><time>2026-05-02T05:17:37.44Z</time></trkpt><trkpt lat="44.1433883" lon="12.0571383"><ele>85.0</ele><time>2026-05-02T05:17:40.439Z</time></trkpt><trkpt lat="44.14331" lon="12.0570967"><ele>85.0</ele><time>2026-05-02T05:17:44.44Z</time></trkpt><trkpt lat="44.1432367" lon="12.057065"><ele>85.0</ele><time>2026-05-02T05:17:47.439Z</time></trkpt><trkpt lat="44.1431533" lon="12.0570317"><ele>85.0</ele><time>2026-05-02T05:17:50.44Z</time></trkpt><trkpt lat="44.143075" lon="12.0569917"><ele>85.33333333333333</ele><time>2026-05-02T05:17:53.44Z</time></trkpt><trkpt lat="44.1429967" lon="12.0569517"><ele>85.66666666666666</ele><time>2026-05-02T05:17:56.441Z</time></trkpt><trkpt lat="44.14291" lon="12.0569183"><ele>86.0</ele><time>2026-05-02T05:17:59.44Z</time></trkpt><trkpt lat="44.14283" lon="12.0568767"><ele>86.33333333333333</ele><time>2026-05-02T05:18:02.44Z</time></trkpt><trkpt lat="44.142745" lon="12.0568467"><ele>86.66666666666667</ele><time>2026-05-02T05:18:05.441Z</time></trkpt><trkpt lat="44.1426767" lon="12.0568117"><ele>87.0</ele><time>2026-05-02T05:18:08.44Z</time></trkpt><trkpt lat="44.1425967" lon="12.0567767"><ele>87.0</ele><time>2026-05-02T05:18:11.44Z</time></trkpt><trkpt lat="44.1425383" lon="12.0567383"><ele>87.0</ele><time>2026-05-02T05:18:13.442Z</time></trkpt><trkpt lat="44.1424517" lon="12.05669"><ele>87.0</ele><time>2026-05-02T05:18:16.441Z</time></trkpt><trkpt lat="44.1423867" lon="12.056665"><ele>87.0</ele><time>2026-05-02T05:18:18.442Z</time></trkpt><trkpt lat="44.142325" lon="12.0566417"><ele>87.0</ele><time>2026-05-02T05:18:20.443Z</time></trkpt><trkpt lat="44.1422633" lon="12.0566133"><ele>87.0</ele><time>2026-05-02T05:18:22.44Z</time></trkpt><trkpt lat="44.1422017" lon="12.0565817"><ele>87.0</ele><time>2026-05-02T05:18:24.439Z</time></trkpt><trkpt lat="44.1421383" lon="12.0565517"><ele>87.42857142857143</ele><time>2026-05-02T05:18:26.439Z</time></trkpt><trkpt lat="44.1420733" lon="12.0565267"><ele>87.85714285714286</ele><time>2026-05-02T05:18:28.44Z</time></trkpt><trkpt lat="44.14201" lon="12.056495"><ele>88.28571428571428</ele><time>2026-05-02T05:18:30.44Z</time></trkpt><trkpt lat="44.1419483" lon="12.056465"><ele>88.71428571428572</ele><time>2026-05-02T05:18:32.439Z</time></trkpt><trkpt lat="44.141885" lon="12.056435"><ele>89.14285714285715</ele><time>2026-05-02T05:18:34.441Z</time></trkpt><trkpt lat="44.1418217" lon="12.056415"><ele>89.57142857142857</ele><time>2026-05-02T05:18:36.439Z</time></trkpt><trkpt lat="44.14176" lon="12.0563917"><ele>90.0</ele><time>2026-05-02T05:18:38.44Z</time></trkpt><trkpt lat="44.1416983" lon="12.0563583"><ele>90.0</ele><time>2026-05-02T05:18:40.439Z</time></trkpt><trkpt lat="44.1416083" lon="12.056325"><ele>90.0</ele><time>2026-05-02T05:18:43.439Z</time></trkpt><trkpt lat="44.1415483" lon="12.056295"><ele>90.0</ele><time>2026-05-02T05:18:45.44Z</time></trkpt><trkpt lat="44.1414617" lon="12.0562533"><ele>90.0</ele><time>2026-05-02T05:18:48.441Z</time></trkpt><trkpt lat="44.1414017" lon="12.056225"><ele>90.0</ele><time>2026-05-02T05:18:50.439Z</time></trkpt><trkpt lat="44.1413417" lon="12.0561967"><ele>90.0</ele><time>2026-05-02T05:18:52.442Z</time></trkpt><trkpt lat="44.1412783" lon="12.0561733"><ele>90.0</ele><time>2026-05-02T05:18:54.439Z</time></trkpt><trkpt lat="44.1411917" lon="12.0561267"><ele>90.14285714285714</ele><time>2026-05-02T05:18:57.44Z</time></trkpt><trkpt lat="44.1411067" lon="12.0560817"><ele>90.28571428571429</ele><time>2026-05-02T05:19:00.44Z</time></trkpt><trkpt lat="44.1410467" lon="12.05605"><ele>90.42857142857143</ele><time>2026-05-02T05:19:02.441Z</time></trkpt><trkpt lat="44.140955" lon="12.0560133"><ele>90.57142857142857</ele><time>2026-05-02T05:19:05.44Z</time></trkpt><trkpt lat="44.1408917" lon="12.0559917"><ele>90.71428571428572</ele><time>2026-05-02T05:19:07.441Z</time></trkpt><trkpt lat="44.14083" lon="12.0559667"><ele>90.85714285714286</ele><time>2026-05-02T05:19:09.44Z</time></trkpt><trkpt lat="44.140765" lon="12.055945"><ele>91.0</ele><time>2026-05-02T05:19:11.442Z</time></trkpt><trkpt lat="44.1407067" lon="12.05591"><ele>91.28571428571429</ele><time>2026-05-02T05:19:13.438Z</time></trkpt><trkpt lat="44.140645" lon="12.0558917"><ele>91.57142857142857</ele><time>2026-05-02T05:19:15.441Z</time></trkpt><trkpt lat="44.1405817" lon="12.05589"><ele>91.85714285714286</ele><time>2026-05-02T05:19:17.44Z</time></trkpt><trkpt lat="44.1405167" lon="12.05588"><ele>92.14285714285714</ele><time>2026-05-02T05:19:19.439Z</time></trkpt><trkpt lat="44.1404517" lon="12.0558667"><ele>92.42857142857143</ele><time>2026-05-02T05:19:21.442Z</time></trkpt><trkpt lat="44.14036" lon="12.0558317"><ele>92.71428571428572</ele><time>2026-05-02T05:19:24.443Z</time></trkpt><trkpt lat="44.1402983" lon="12.05581"><ele>93.0</ele><time>2026-05-02T05:19:26.44Z</time></trkpt><trkpt lat="44.14021" lon="12.05578"><ele>93.16666666666667</ele><time>2026-05-02T05:19:29.44Z</time></trkpt><trkpt lat="44.1401233" lon="12.0557417"><ele>93.33333333333333</ele><time>2026-05-02T05:19:32.44Z</time></trkpt><trkpt lat="44.1400633" lon="12.0557117"><ele>93.5</ele><time>2026-05-02T05:19:34.439Z</time></trkpt><trkpt lat="44.1399783" lon="12.0556617"><ele>93.66666666666666</ele><time>2026-05-02T05:19:37.442Z</time></trkpt><trkpt lat="44.1398883" lon="12.0556267"><ele>93.83333333333333</ele><time>2026-05-02T05:19:40.443Z</time></trkpt><trkpt lat="44.1398267" lon="12.0556033"><ele>94.0</ele><time>2026-05-02T05:19:42.441Z</time></trkpt><trkpt lat="44.1397383" lon="12.0555583"><ele>94.5</ele><time>2026-05-02T05:19:45.44Z</time></trkpt><trkpt lat="44.1396567" lon="12.0555233"><ele>95.0</ele><time>2026-05-02T05:19:48.442Z</time></trkpt><trkpt lat="44.1395767" lon="12.0555033"><ele>95.5</ele><time>2026-05-02T05:19:51.44Z</time></trkpt><trkpt lat="44.1395117" lon="12.0554733"><ele>96.0</ele><time>2026-05-02T05:19:53.44Z</time></trkpt><trkpt lat="44.1394233" lon="12.0554417"><ele>96.50000000000001</ele><time>2026-05-02T05:19:56.442Z</time></trkpt><trkpt lat="44.1393633" lon="12.0554083"><ele>97.0</ele><time>2026-05-02T05:19:58.439Z</time></trkpt><trkpt lat="44.139275" lon="12.055385"><ele>97.00000000000001</ele><time>2026-05-02T05:20:01.443Z</time></trkpt><trkpt lat="44.13919" lon="12.0553633"><ele>97.0</ele><time>2026-05-02T05:20:04.44Z</time></trkpt><trkpt lat="44.139105" lon="12.05533"><ele>97.0</ele><time>2026-05-02T05:20:07.441Z</time></trkpt><trkpt lat="44.1390283" lon="12.055295"><ele>97.0</ele><time>2026-05-02T05:20:10.439Z</time></trkpt><trkpt lat="44.138945" lon="12.05526"><ele>97.00000000000001</ele><time>2026-05-02T05:20:13.442Z</time></trkpt><trkpt lat="44.1388833" lon="12.05524"><ele>97.0</ele><time>2026-05-02T05:20:15.441Z</time></trkpt><trkpt lat="44.1387933" lon="12.055215"><ele>97.28571428571428</ele><time>2026-05-02T05:20:18.442Z</time></trkpt><trkpt lat="44.138705" lon="12.0551967"><ele>97.57142857142858</ele><time>2026-05-02T05:20:21.441Z</time></trkpt><trkpt lat="44.1386383" lon="12.0551783"><ele>97.85714285714286</ele><time>2026-05-02T05:20:23.44Z</time></trkpt><trkpt lat="44.1385733" lon="12.0551567"><ele>98.14285714285714</ele><time>2026-05-02T05:20:25.438Z</time></trkpt><trkpt lat="44.1385083" lon="12.0551317"><ele>98.42857142857142</ele><time>2026-05-02T05:20:27.44Z</time></trkpt><trkpt lat="44.1384433" lon="12.0551033"><ele>98.71428571428572</ele><time>2026-05-02T05:20:29.442Z</time></trkpt><trkpt lat="44.1383767" lon="12.0550767"><ele>99.0</ele><time>2026-05-02T05:20:31.439Z</time></trkpt><trkpt lat="44.1383067" lon="12.055055"><ele>99.0</ele><time>2026-05-02T05:20:33.442Z</time></trkpt><trkpt lat="44.138245" lon="12.0550283"><ele>99.0</ele><time>2026-05-02T05:20:35.44Z</time></trkpt><trkpt lat="44.138155" lon="12.0549917"><ele>99.0</ele><time>2026-05-02T05:20:38.442Z</time></trkpt><trkpt lat="44.13807" lon="12.0549583"><ele>99.0</ele><time>2026-05-02T05:20:41.44Z</time></trkpt><trkpt lat="44.138005" lon="12.0549433"><ele>99.0</ele><time>2026-05-02T05:20:43.442Z</time></trkpt><trkpt lat="44.1379133" lon="12.0549317"><ele>99.0</ele><time>2026-05-02T05:20:46.439Z</time></trkpt><trkpt lat="44.13785" lon="12.05492"><ele>99.16666666666667</ele><time>2026-05-02T05:20:48.441Z</time></trkpt><trkpt lat="44.13777" lon="12.0549283"><ele>99.33333333333334</ele><time>2026-05-02T05:20:51.44Z</time></trkpt><trkpt lat="44.1376883" lon="12.054955"><ele>99.5</ele><time>2026-05-02T05:20:54.44Z</time></trkpt><trkpt lat="44.13763" lon="12.0549883"><ele>99.66666666666667</ele><time>2026-05-02T05:20:56.44Z</time></trkpt><trkpt lat="44.1375667" lon="12.05502"><ele>99.83333333333334</ele><time>2026-05-02T05:20:58.439Z</time></trkpt><trkpt lat="44.1374967" lon="12.0550533"><ele>100.0</ele><time>2026-05-02T05:21:00.439Z</time></trkpt><trkpt lat="44.13742" lon="12.05511"><ele>100.2</ele><time>2026-05-02T05:21:02.439Z</time></trkpt><trkpt lat="44.1373367" lon="12.055165"><ele>100.4</ele><time>2026-05-02T05:21:04.443Z</time></trkpt><trkpt lat="44.1372533" lon="12.0552267"><ele>100.6</ele><time>2026-05-02T05:21:06.44Z</time></trkpt><trkpt lat="44.1371683" lon="12.055295"><ele>100.8</ele><time>2026-05-02T05:21:08.44Z</time></trkpt><trkpt lat="44.1370833" lon="12.05536"><ele>101.0</ele><time>2026-05-02T05:21:10.439Z</time></trkpt><trkpt lat="44.1370083" lon="12.05544"><ele>101.0</ele><time>2026-05-02T05:21:12.439Z</time></trkpt><trkpt lat="44.1369417" lon="12.0555367"><ele>101.0</ele><time>2026-05-02T05:21:14.442Z</time></trkpt><trkpt lat="44.1368867" lon="12.0556517"><ele>101.0</ele><time>2026-05-02T05:21:16.441Z</time></trkpt><trkpt lat="44.13684" lon="12.0557817"><ele>101.0</ele><time>2026-05-02T05:21:18.44Z</time></trkpt><trkpt lat="44.1367917" lon="12.0559117"><ele>101.0</ele><time>2026-05-02T05:21:20.44Z</time></trkpt><trkpt lat="44.1367283" lon="12.0560417"><ele>100.49999999999999</ele><time>2026-05-02T05:21:22.441Z</time></trkpt><trkpt lat="44.13664" lon="12.0561733"><ele>100.0</ele><time>2026-05-02T05:21:24.442Z</time></trkpt><trkpt lat="44.1365867" lon="12.0562383"><ele>99.5</ele><time>2026-05-02T05:21:25.44Z</time></trkpt><trkpt lat="44.136525" lon="12.0563033"><ele>99.0</ele><time>2026-05-02T05:21:26.439Z</time></trkpt><trkpt lat="44.1364617" lon="12.056375"><ele>98.49999999999999</ele><time>2026-05-02T05:21:27.44Z</time></trkpt><trkpt lat="44.1363933" lon="12.056455"><ele>98.0</ele><time>2026-05-02T05:21:28.44Z</time></trkpt><trkpt lat="44.1363233" lon="12.0565433"><ele>96.4</ele><time>2026-05-02T05:21:29.44Z</time></trkpt><trkpt lat="44.136255" lon="12.0566383"><ele>94.80000000000001</ele><time>2026-05-02T05:21:30.439Z</time></trkpt><trkpt lat="44.136185" lon="12.0567317"><ele>93.2</ele><time>2026-05-02T05:21:31.442Z</time></trkpt><trkpt lat="44.1361167" lon="12.0568183"><ele>91.6</ele><time>2026-05-02T05:21:32.441Z</time></trkpt><trkpt lat="44.136045" lon="12.0568983"><ele>90.0</ele><time>2026-05-02T05:21:33.439Z</time></trkpt><trkpt lat="44.13597" lon="12.056975"><ele>90.0</ele><time>2026-05-02T05:21:34.44Z</time></trkpt><trkpt lat="44.1358933" lon="12.0570467"><ele>90.0</ele><time>2026-05-02T05:21:35.439Z</time></trkpt><trkpt lat="44.1358117" lon="12.0571117"><ele>90.0</ele><time>2026-05-02T05:21:36.44Z</time></trkpt><trkpt lat="44.135725" lon="12.0571683"><ele>90.0</ele><time>2026-05-02T05:21:37.439Z</time></trkpt><trkpt lat="44.135635" lon="12.057225"><ele>90.0</ele><time>2026-05-02T05:21:38.44Z</time></trkpt><trkpt lat="44.1355433" lon="12.05728"><ele>89.4</ele><time>2026-05-02T05:21:39.443Z</time></trkpt><trkpt lat="44.13545" lon="12.0573333"><ele>88.8</ele><time>2026-05-02T05:21:40.441Z</time></trkpt><trkpt lat="44.1353583" lon="12.0573883"><ele>88.19999999999999</ele><time>2026-05-02T05:21:41.44Z</time></trkpt><trkpt lat="44.1352667" lon="12.05744"><ele>87.6</ele><time>2026-05-02T05:21:42.439Z</time></trkpt><trkpt lat="44.135175" lon="12.05749"><ele>87.0</ele><time>2026-05-02T05:21:43.44Z</time></trkpt><trkpt lat="44.1350883" lon="12.057545"><ele>85.66666666666667</ele><time>2026-05-02T05:21:44.439Z</time></trkpt><trkpt lat="44.1350067" lon="12.057605"><ele>84.33333333333333</ele><time>2026-05-02T05:21:45.44Z</time></trkpt><trkpt lat="44.1349267" lon="12.0576633"><ele>83.0</ele><time>2026-05-02T05:21:46.439Z</time></trkpt><trkpt lat="44.1348467" lon="12.0577167"><ele>81.66666666666666</ele><time>2026-05-02T05:21:47.439Z</time></trkpt><trkpt lat="44.1347667" lon="12.0577733"><ele>80.33333333333333</ele><time>2026-05-02T05:21:48.439Z</time></trkpt><trkpt lat="44.1346917" lon="12.0578267"><ele>79.0</ele><time>2026-05-02T05:21:49.534Z</time></trkpt><trkpt lat="44.1346167" lon="12.0578717"><ele>79.0</ele><time>2026-05-02T05:21:50.44Z</time></trkpt><trkpt lat="44.1345433" lon="12.0579183"><ele>79.0</ele><time>2026-05-02T05:21:51.44Z</time></trkpt><trkpt lat="44.1344683" lon="12.0579667"><ele>79.0</ele><time>2026-05-02T05:21:52.44Z</time></trkpt><trkpt lat="44.1343983" lon="12.0580117"><ele>79.0</ele><time>2026-05-02T05:21:53.442Z</time></trkpt><trkpt lat="44.1343367" lon="12.0580567"><ele>79.0</ele><time>2026-05-02T05:21:54.439Z</time></trkpt><trkpt lat="44.13428" lon="12.058095"><ele>79.0</ele><time>2026-05-02T05:21:55.443Z</time></trkpt><trkpt lat="44.13417" lon="12.0581517"><ele>79.0</ele><time>2026-05-02T05:21:57.442Z</time></trkpt><trkpt lat="44.1340617" lon="12.0582117"><ele>79.0</ele><time>2026-05-02T05:21:59.44Z</time></trkpt><trkpt lat="44.1339583" lon="12.05826"><ele>79.0</ele><time>2026-05-02T05:22:01.44Z</time></trkpt><trkpt lat="44.1338483" lon="12.05832"><ele>79.0</ele><time>2026-05-02T05:22:03.439Z</time></trkpt><trkpt lat="44.13379" lon="12.0583533"><ele>79.0</ele><time>2026-05-02T05:22:04.439Z</time></trkpt><trkpt lat="44.1337333" lon="12.0583933"><ele>77.5</ele><time>2026-05-02T05:22:05.439Z</time></trkpt><trkpt lat="44.133625" lon="12.0584733"><ele>76.0</ele><time>2026-05-02T05:22:07.44Z</time></trkpt><trkpt lat="44.1335133" lon="12.0585467"><ele>74.5</ele><time>2026-05-02T05:22:09.44Z</time></trkpt><trkpt lat="44.1334533" lon="12.0585867"><ele>73.0</ele><time>2026-05-02T05:22:10.439Z</time></trkpt><trkpt lat="44.133395" lon="12.0586267"><ele>71.5</ele><time>2026-05-02T05:22:11.44Z</time></trkpt><trkpt lat="44.133335" lon="12.05866"><ele>70.0</ele><time>2026-05-02T05:22:12.441Z</time></trkpt><trkpt lat="44.13327" lon="12.0586967"><ele>70.28571428571429</ele><time>2026-05-02T05:22:13.441Z</time></trkpt><trkpt lat="44.1332033" lon="12.0587333"><ele>70.57142857142857</ele><time>2026-05-02T05:22:14.44Z</time></trkpt><trkpt lat="44.133135" lon="12.0587733"><ele>70.85714285714286</ele><time>2026-05-02T05:22:15.44Z</time></trkpt><trkpt lat="44.133065" lon="12.058815"><ele>71.14285714285714</ele><time>2026-05-02T05:22:16.439Z</time></trkpt><trkpt lat="44.1329983" lon="12.05886"><ele>71.42857142857143</ele><time>2026-05-02T05:22:17.442Z</time></trkpt><trkpt lat="44.13294" lon="12.0589083"><ele>71.71428571428572</ele><time>2026-05-02T05:22:18.439Z</time></trkpt><trkpt lat="44.1328817" lon="12.0589483"><ele>72.0</ele><time>2026-05-02T05:22:19.44Z</time></trkpt><trkpt lat="44.1328217" lon="12.0589783"><ele>72.0</ele><time>2026-05-02T05:22:20.439Z</time></trkpt><trkpt lat="44.1327083" lon="12.0590133"><ele>72.0</ele><time>2026-05-02T05:22:22.439Z</time></trkpt><trkpt lat="44.1326133" lon="12.0590767"><ele>72.0</ele><time>2026-05-02T05:22:24.439Z</time></trkpt><trkpt lat="44.13255" lon="12.0591183"><ele>72.0</ele><time>2026-05-02T05:22:26.439Z</time></trkpt><trkpt lat="44.1324933" lon="12.0591767"><ele>72.0</ele><time>2026-05-02T05:23:01.44Z</time></trkpt><trkpt lat="44.1324383" lon="12.0592283"><ele>72.0</ele><time>2026-05-02T05:23:03.439Z</time></trkpt><trkpt lat="44.1323717" lon="12.0592767"><ele>71.16666666666667</ele><time>2026-05-02T05:23:05.441Z</time></trkpt><trkpt lat="44.1323033" lon="12.0593533"><ele>70.33333333333333</ele><time>2026-05-02T05:23:07.44Z</time></trkpt><trkpt lat="44.1322383" lon="12.0594217"><ele>69.5</ele><time>2026-05-02T05:23:09.442Z</time></trkpt><trkpt lat="44.1321733" lon="12.059485"><ele>68.66666666666666</ele><time>2026-05-02T05:23:11.44Z</time></trkpt><trkpt lat="44.1321" lon="12.0595233"><ele>67.83333333333333</ele><time>2026-05-02T05:23:13.443Z</time></trkpt><trkpt lat="44.1320267" lon="12.0595667"><ele>67.0</ele><time>2026-05-02T05:23:15.443Z</time></trkpt><trkpt lat="44.1319483" lon="12.0595983"><ele>67.0</ele><time>2026-05-02T05:23:17.44Z</time></trkpt><trkpt lat="44.1318667" lon="12.0596233"><ele>67.0</ele><time>2026-05-02T05:23:19.439Z</time></trkpt><trkpt lat="44.1317783" lon="12.0596467"><ele>67.0</ele><time>2026-05-02T05:23:21.439Z</time></trkpt><trkpt lat="44.13169" lon="12.0596667"><ele>67.0</ele><time>2026-05-02T05:23:23.44Z</time></trkpt><trkpt lat="44.1316" lon="12.0596783"><ele>67.0</ele><time>2026-05-02T05:23:25.439Z</time></trkpt><trkpt lat="44.1315067" lon="12.0596717"><ele>67.0</ele><time>2026-05-02T05:23:27.441Z</time></trkpt><trkpt lat="44.1314133" lon="12.0596617"><ele>67.0</ele><time>2026-05-02T05:23:29.443Z</time></trkpt><trkpt lat="44.1313183" lon="12.0596567"><ele>67.0</ele><time>2026-05-02T05:23:31.442Z</time></trkpt><trkpt lat="44.13123" lon="12.0596633"><ele>67.0</ele><time>2026-05-02T05:23:33.443Z</time></trkpt><trkpt lat="44.1311683" lon="12.0596817"><ele>67.0</ele><time>2026-05-02T05:23:35.442Z</time></trkpt><trkpt lat="44.1311167" lon="12.05974"><ele>67.0</ele><time>2026-05-02T05:23:37.439Z</time></trkpt><trkpt lat="44.13108" lon="12.0598433"><ele>67.0</ele><time>2026-05-02T05:23:39.44Z</time></trkpt><trkpt lat="44.131025" lon="12.059935"><ele>66.4</ele><time>2026-05-02T05:23:41.441Z</time></trkpt><trkpt lat="44.1309517" lon="12.0600083"><ele>65.80000000000001</ele><time>2026-05-02T05:23:43.44Z</time></trkpt><trkpt lat="44.13087" lon="12.0600833"><ele>65.2</ele><time>2026-05-02T05:23:45.442Z</time></trkpt><trkpt lat="44.1307833" lon="12.060145"><ele>64.60000000000001</ele><time>2026-05-02T05:23:47.441Z</time></trkpt><trkpt lat="44.1306917" lon="12.0602283"><ele>64.0</ele><time>2026-05-02T05:23:49.44Z</time></trkpt><trkpt lat="44.1306083" lon="12.0603017"><ele>64.0</ele><time>2026-05-02T05:23:51.44Z</time></trkpt><trkpt lat="44.1305117" lon="12.0603683"><ele>64.0</ele><time>2026-05-02T05:23:53.439Z</time></trkpt><trkpt lat="44.130405" lon="12.060405"><ele>64.0</ele><time>2026-05-02T05:23:55.443Z</time></trkpt><trkpt lat="44.13029" lon="12.0604467"><ele>64.0</ele><time>2026-05-02T05:23:57.442Z</time></trkpt><trkpt lat="44.13023" lon="12.0604733"><ele>64.0</ele><time>2026-05-02T05:23:58.439Z</time></trkpt><trkpt lat="44.13012" lon="12.0605483"><ele>64.0</ele><time>2026-05-02T05:24:00.44Z</time></trkpt><trkpt lat="44.130025" lon="12.0606617"><ele>64.0</ele><time>2026-05-02T05:24:02.44Z</time></trkpt><trkpt lat="44.129955" lon="12.0607817"><ele>64.0</ele><time>2026-05-02T05:24:04.442Z</time></trkpt><trkpt lat="44.1299133" lon="12.0608783"><ele>64.0</ele><time>2026-05-02T05:24:06.439Z</time></trkpt><trkpt lat="44.12989" lon="12.0609633"><ele>64.0</ele><time>2026-05-02T05:24:09.44Z</time></trkpt><trkpt lat="44.1298433" lon="12.0610333"><ele>63.83333333333333</ele><time>2026-05-02T05:24:14.442Z</time></trkpt><trkpt lat="44.1298167" lon="12.06115"><ele>63.666666666666664</ele><time>2026-05-02T05:30:27.442Z</time></trkpt><trkpt lat="44.1298167" lon="12.0612467"><ele>63.5</ele><time>2026-05-02T05:30:31.443Z</time></trkpt><trkpt lat="44.1298117" lon="12.0613533"><ele>63.33333333333333</ele><time>2026-05-02T05:30:34.439Z</time></trkpt><trkpt lat="44.1298067" lon="12.0614417"><ele>63.166666666666664</ele><time>2026-05-02T05:30:37.442Z</time></trkpt><trkpt lat="44.1298017" lon="12.0613267"><ele>63.0</ele><time>2026-05-02T05:30:45.44Z</time></trkpt><trkpt lat="44.1297917" lon="12.061215"><ele>63.0</ele><time>2026-05-02T05:30:48.44Z</time></trkpt><trkpt lat="44.1297233" lon="12.0611917"><ele>63.0</ele><time>2026-05-02T05:30:57.441Z</time></trkpt><trkpt lat="44.1296517" lon="12.0612183"><ele>63.0</ele><time>2026-05-02T05:31:00.439Z</time></trkpt><trkpt lat="44.1295717" lon="12.061245"><ele>63.0</ele><time>2026-05-02T05:31:03.439Z</time></trkpt><trkpt lat="44.12949" lon="12.061245"><ele>63.0</ele><time>2026-05-02T05:31:06.44Z</time></trkpt><trkpt lat="44.1294117" lon="12.0612533"><ele>63.0</ele><time>2026-05-02T05:31:09.44Z</time></trkpt><trkpt lat="44.1293433" lon="12.0612567"><ele>63.0</ele><time>2026-05-02T05:31:12.44Z</time></trkpt><trkpt lat="44.1292683" lon="12.06126"><ele>63.0</ele><time>2026-05-02T05:31:15.44Z</time></trkpt><trkpt lat="44.1292033" lon="12.06129"><ele>63.0</ele><time>2026-05-02T05:31:18.44Z</time></trkpt><trkpt lat="44.1291417" lon="12.06131"><ele>63.0</ele><time>2026-05-02T05:31:21.44Z</time></trkpt><trkpt lat="44.129075" lon="12.0612917"><ele>63.0</ele><time>2026-05-02T05:31:23.439Z</time></trkpt><trkpt lat="44.1289833" lon="12.0612733"><ele>63.0</ele><time>2026-05-02T05:31:26.439Z</time></trkpt><trkpt lat="44.128915" lon="12.0612417"><ele>63.0</ele><time>2026-05-02T05:31:28.439Z</time></trkpt><trkpt lat="44.1288467" lon="12.0612183"><ele>63.285714285714285</ele><time>2026-05-02T05:31:30.44Z</time></trkpt><trkpt lat="44.1287817" lon="12.0611983"><ele>63.57142857142857</ele><time>2026-05-02T05:31:32.439Z</time></trkpt><trkpt lat="44.1287133" lon="12.0611717"><ele>63.85714285714286</ele><time>2026-05-02T05:31:34.44Z</time></trkpt><trkpt lat="44.1286367" lon="12.0611567"><ele>64.14285714285714</ele><time>2026-05-02T05:31:36.44Z</time></trkpt><trkpt lat="44.12856" lon="12.0611267"><ele>64.42857142857143</ele><time>2026-05-02T05:31:38.44Z</time></trkpt><trkpt lat="44.12848" lon="12.0611017"><ele>64.71428571428572</ele><time>2026-05-02T05:31:40.44Z</time></trkpt><trkpt lat="44.1284167" lon="12.0610767"><ele>65.0</ele><time>2026-05-02T05:31:42.44Z</time></trkpt><trkpt lat="44.1283533" lon="12.061065"><ele>65.0</ele><time>2026-05-02T05:31:45.44Z</time></trkpt><trkpt lat="44.1282917" lon="12.0610383"><ele>65.0</ele><time>2026-05-02T05:31:48.441Z</time></trkpt><trkpt lat="44.1282067" lon="12.0610033"><ele>65.0</ele><time>2026-05-02T05:31:51.44Z</time></trkpt><trkpt lat="44.1281217" lon="12.0609733"><ele>65.0</ele><time>2026-05-02T05:31:54.439Z</time></trkpt><trkpt lat="44.1280367" lon="12.0609267"><ele>65.0</ele><time>2026-05-02T05:31:57.439Z</time></trkpt><trkpt lat="44.1279717" lon="12.0609"><ele>65.0</ele><time>2026-05-02T05:31:59.439Z</time></trkpt><trkpt lat="44.127905" lon="12.060875"><ele>65.14285714285715</ele><time>2026-05-02T05:32:01.442Z</time></trkpt><trkpt lat="44.127815" lon="12.06084"><ele>65.28571428571429</ele><time>2026-05-02T05:32:04.44Z</time></trkpt><trkpt lat="44.1277517" lon="12.06082"><ele>65.42857142857143</ele><time>2026-05-02T05:32:06.439Z</time></trkpt><trkpt lat="44.12769" lon="12.0608017"><ele>65.57142857142858</ele><time>2026-05-02T05:32:08.44Z</time></trkpt><trkpt lat="44.1276267" lon="12.0607783"><ele>65.71428571428572</ele><time>2026-05-02T05:32:10.44Z</time></trkpt><trkpt lat="44.12756" lon="12.060755"><ele>65.85714285714286</ele><time>2026-05-02T05:32:12.44Z</time></trkpt><trkpt lat="44.127495" lon="12.06075"><ele>66.0</ele><time>2026-05-02T05:32:14.44Z</time></trkpt><trkpt lat="44.1274017" lon="12.0607467"><ele>65.83333333333333</ele><time>2026-05-02T05:32:17.44Z</time></trkpt><trkpt lat="44.12731" lon="12.0607117"><ele>65.66666666666667</ele><time>2026-05-02T05:32:20.44Z</time></trkpt><trkpt lat="44.1272133" lon="12.060705"><ele>65.5</ele><time>2026-05-02T05:32:23.439Z</time></trkpt><trkpt lat="44.1271383" lon="12.0606717"><ele>65.33333333333334</ele><time>2026-05-02T05:32:26.44Z</time></trkpt><trkpt lat="44.127065" lon="12.06065"><ele>65.16666666666667</ele><time>2026-05-02T05:32:29.439Z</time></trkpt><trkpt lat="44.126995" lon="12.0606733"><ele>65.0</ele><time>2026-05-02T05:32:31.44Z</time></trkpt><trkpt lat="44.1269117" lon="12.0606983"><ele>65.0</ele><time>2026-05-02T05:32:33.439Z</time></trkpt><trkpt lat="44.1268267" lon="12.0607067"><ele>65.0</ele><time>2026-05-02T05:32:35.439Z</time></trkpt><trkpt lat="44.1267467" lon="12.06071"><ele>65.0</ele><time>2026-05-02T05:32:37.438Z</time></trkpt><trkpt lat="44.126675" lon="12.0606933"><ele>65.0</ele><time>2026-05-02T05:32:39.439Z</time></trkpt><trkpt lat="44.1266" lon="12.0606783"><ele>65.0</ele><time>2026-05-02T05:32:41.44Z</time></trkpt><trkpt lat="44.1265283" lon="12.0606667"><ele>65.0</ele><time>2026-05-02T05:32:44.44Z</time></trkpt><trkpt lat="44.1264417" lon="12.06065"><ele>64.85714285714286</ele><time>2026-05-02T05:32:49.44Z</time></trkpt><trkpt lat="44.1263767" lon="12.0606333"><ele>64.71428571428572</ele><time>2026-05-02T05:32:51.44Z</time></trkpt><trkpt lat="44.1263067" lon="12.0606233"><ele>64.57142857142857</ele><time>2026-05-02T05:32:53.44Z</time></trkpt><trkpt lat="44.1262333" lon="12.060615"><ele>64.42857142857143</ele><time>2026-05-02T05:32:55.439Z</time></trkpt><trkpt lat="44.1261683" lon="12.0606033"><ele>64.28571428571428</ele><time>2026-05-02T05:32:57.44Z</time></trkpt><trkpt lat="44.1260967" lon="12.0605983"><ele>64.14285714285714</ele><time>2026-05-02T05:32:59.439Z</time></trkpt><trkpt lat="44.1260283" lon="12.060605"><ele>64.0</ele><time>2026-05-02T05:33:01.44Z</time></trkpt><trkpt lat="44.1259517" lon="12.0605883"><ele>64.0</ele><time>2026-05-02T05:33:04.439Z</time></trkpt><trkpt lat="44.1258817" lon="12.0605833"><ele>63.99999999999999</ele><time>2026-05-02T05:33:07.44Z</time></trkpt><trkpt lat="44.12582" lon="12.0605567"><ele>64.0</ele><time>2026-05-02T05:33:10.441Z</time></trkpt><trkpt lat="44.1257583" lon="12.0605183"><ele>64.0</ele><time>2026-05-02T05:33:13.44Z</time></trkpt><trkpt lat="44.1256683" lon="12.0604817"><ele>63.99999999999999</ele><time>2026-05-02T05:33:16.44Z</time></trkpt><trkpt lat="44.1255983" lon="12.06047"><ele>64.0</ele><time>2026-05-02T05:33:18.439Z</time></trkpt><trkpt lat="44.1255217" lon="12.0604483"><ele>64.0</ele><time>2026-05-02T05:33:20.439Z</time></trkpt><trkpt lat="44.125425" lon="12.060405"><ele>63.83333333333333</ele><time>2026-05-02T05:33:22.44Z</time></trkpt><trkpt lat="44.125325" lon="12.0604083"><ele>63.666666666666664</ele><time>2026-05-02T05:33:24.44Z</time></trkpt><trkpt lat="44.1252333" lon="12.06039"><ele>63.5</ele><time>2026-05-02T05:33:26.44Z</time></trkpt><trkpt lat="44.1251567" lon="12.0603667"><ele>63.33333333333333</ele><time>2026-05-02T05:33:28.439Z</time></trkpt><trkpt lat="44.125085" lon="12.0603567"><ele>63.166666666666664</ele><time>2026-05-02T05:33:30.44Z</time></trkpt><trkpt lat="44.1250167" lon="12.06036"><ele>63.0</ele><time>2026-05-02T05:33:32.44Z</time></trkpt><trkpt lat="44.1249283" lon="12.0604083"><ele>63.166666666666664</ele><time>2026-05-02T05:33:35.439Z</time></trkpt><trkpt lat="44.1248283" lon="12.0604517"><ele>63.33333333333333</ele><time>2026-05-02T05:33:38.44Z</time></trkpt><trkpt lat="44.1247383" lon="12.06046"><ele>63.5</ele><time>2026-05-02T05:33:41.44Z</time></trkpt><trkpt lat="44.12466" lon="12.0604317"><ele>63.666666666666664</ele><time>2026-05-02T05:33:43.44Z</time></trkpt><trkpt lat="44.1245667" lon="12.0604017"><ele>63.83333333333333</ele><time>2026-05-02T05:33:45.439Z</time></trkpt><trkpt lat="44.12449" lon="12.0603917"><ele>64.0</ele><time>2026-05-02T05:33:47.44Z</time></trkpt><trkpt lat="44.12441" lon="12.0604067"><ele>64.0</ele><time>2026-05-02T05:33:49.44Z</time></trkpt><trkpt lat="44.1243383" lon="12.0604117"><ele>63.99999999999999</ele><time>2026-05-02T05:33:51.441Z</time></trkpt><trkpt lat="44.12426" lon="12.0604167"><ele>64.0</ele><time>2026-05-02T05:33:53.44Z</time></trkpt><trkpt lat="44.1241817" lon="12.0604267"><ele>64.0</ele><time>2026-05-02T05:33:55.439Z</time></trkpt><trkpt lat="44.1241117" lon="12.0604233"><ele>63.99999999999999</ele><time>2026-05-02T05:33:57.439Z</time></trkpt><trkpt lat="44.1240383" lon="12.06042"><ele>64.0</ele><time>2026-05-02T05:33:59.44Z</time></trkpt><trkpt lat="44.1239633" lon="12.0604033"><ele>64.0</ele><time>2026-05-02T05:34:01.439Z</time></trkpt><trkpt lat="44.1238933" lon="12.0603867"><ele>63.857142857142854</ele><time>2026-05-02T05:34:03.439Z</time></trkpt><trkpt lat="44.123825" lon="12.0603817"><ele>63.71428571428571</ele><time>2026-05-02T05:34:05.44Z</time></trkpt><trkpt lat="44.1237483" lon="12.06037"><ele>63.57142857142857</ele><time>2026-05-02T05:34:07.44Z</time></trkpt><trkpt lat="44.123675" lon="12.0603417"><ele>63.42857142857143</ele><time>2026-05-02T05:34:09.441Z</time></trkpt><trkpt lat="44.1236067" lon="12.0603117"><ele>63.285714285714285</ele><time>2026-05-02T05:34:11.44Z</time></trkpt><trkpt lat="44.1235383" lon="12.0603"><ele>63.14285714285714</ele><time>2026-05-02T05:34:13.439Z</time></trkpt><trkpt lat="44.1234667" lon="12.0602717"><ele>63.0</ele><time>2026-05-02T05:34:15.44Z</time></trkpt><trkpt lat="44.123395" lon="12.0602533"><ele>63.0</ele><time>2026-05-02T05:34:17.439Z</time></trkpt><trkpt lat="44.1233217" lon="12.0602533"><ele>63.0</ele><time>2026-05-02T05:34:19.44Z</time></trkpt><trkpt lat="44.1232417" lon="12.0602517"><ele>63.0</ele><time>2026-05-02T05:34:21.439Z</time></trkpt><trkpt lat="44.12317" lon="12.060245"><ele>63.0</ele><time>2026-05-02T05:34:23.44Z</time></trkpt><trkpt lat="44.1230967" lon="12.060235"><ele>63.0</ele><time>2026-05-02T05:34:25.439Z</time></trkpt><trkpt lat="44.1230183" lon="12.0602267"><ele>63.0</ele><time>2026-05-02T05:34:27.441Z</time></trkpt><trkpt lat="44.1229417" lon="12.06021"><ele>63.285714285714285</ele><time>2026-05-02T05:34:29.44Z</time></trkpt><trkpt lat="44.1228667" lon="12.0602"><ele>63.57142857142857</ele><time>2026-05-02T05:34:31.44Z</time></trkpt><trkpt lat="44.1227933" lon="12.06019"><ele>63.85714285714286</ele><time>2026-05-02T05:34:33.44Z</time></trkpt><trkpt lat="44.12272" lon="12.0601783"><ele>64.14285714285714</ele><time>2026-05-02T05:34:35.44Z</time></trkpt><trkpt lat="44.1226383" lon="12.0601717"><ele>64.42857142857143</ele><time>2026-05-02T05:34:37.44Z</time></trkpt><trkpt lat="44.1225633" lon="12.060175"><ele>64.71428571428572</ele><time>2026-05-02T05:34:39.44Z</time></trkpt><trkpt lat="44.122495" lon="12.0601633"><ele>65.0</ele><time>2026-05-02T05:34:41.439Z</time></trkpt><trkpt lat="44.1224233" lon="12.0601567"><ele>64.28571428571429</ele><time>2026-05-02T05:34:43.44Z</time></trkpt><trkpt lat="44.1223533" lon="12.0601467"><ele>63.57142857142857</ele><time>2026-05-02T05:34:45.441Z</time></trkpt><trkpt lat="44.1222817" lon="12.0601417"><ele>62.85714285714286</ele><time>2026-05-02T05:34:47.441Z</time></trkpt><trkpt lat="44.1222133" lon="12.0601267"><ele>62.142857142857146</ele><time>2026-05-02T05:34:49.44Z</time></trkpt><trkpt lat="44.1221467" lon="12.06011"><ele>61.42857142857143</ele><time>2026-05-02T05:34:51.44Z</time></trkpt><trkpt lat="44.1220817" lon="12.060105"><ele>60.714285714285715</ele><time>2026-05-02T05:34:53.44Z</time></trkpt><trkpt lat="44.122" lon="12.0600883"><ele>60.0</ele><time>2026-05-02T05:34:56.439Z</time></trkpt><trkpt lat="44.1219433" lon="12.0601283"><ele>60.0</ele><time>2026-05-02T05:34:58.439Z</time></trkpt><trkpt lat="44.1219067" lon="12.0602417"><ele>60.0</ele><time>2026-05-02T05:35:01.44Z</time></trkpt><trkpt lat="44.1218917" lon="12.060355"><ele>60.0</ele><time>2026-05-02T05:35:03.439Z</time></trkpt><trkpt lat="44.121885" lon="12.0604883"><ele>60.0</ele><time>2026-05-02T05:35:05.44Z</time></trkpt><trkpt lat="44.1218717" lon="12.06064"><ele>60.0</ele><time>2026-05-02T05:35:07.439Z</time></trkpt><trkpt lat="44.12185" lon="12.0607933"><ele>59.166666666666664</ele><time>2026-05-02T05:35:09.44Z</time></trkpt><trkpt lat="44.1218333" lon="12.06096"><ele>58.33333333333333</ele><time>2026-05-02T05:35:11.44Z</time></trkpt><trkpt lat="44.1218283" lon="12.0610517"><ele>57.5</ele><time>2026-05-02T05:35:12.442Z</time></trkpt><trkpt lat="44.1218267" lon="12.061145"><ele>56.666666666666664</ele><time>2026-05-02T05:35:13.438Z</time></trkpt><trkpt lat="44.1218233" lon="12.0612383"><ele>55.83333333333333</ele><time>2026-05-02T05:35:14.44Z</time></trkpt><trkpt lat="44.1218083" lon="12.0613267"><ele>55.0</ele><time>2026-05-02T05:35:15.439Z</time></trkpt><trkpt lat="44.1217433" lon="12.06145"><ele>55.0</ele><time>2026-05-02T05:35:17.44Z</time></trkpt><trkpt lat="44.1216467" lon="12.0615017"><ele>55.0</ele><time>2026-05-02T05:35:19.441Z</time></trkpt><trkpt lat="44.1215467" lon="12.06155"><ele>55.0</ele><time>2026-05-02T05:35:21.441Z</time></trkpt><trkpt lat="44.1214533" lon="12.0616117"><ele>55.0</ele><time>2026-05-02T05:35:23.443Z</time></trkpt><trkpt lat="44.1213617" lon="12.0616733"><ele>55.0</ele><time>2026-05-02T05:35:25.442Z</time></trkpt><trkpt lat="44.12127" lon="12.061745"><ele>55.0</ele><time>2026-05-02T05:35:27.443Z</time></trkpt><trkpt lat="44.1211817" lon="12.0618117"><ele>55.0</ele><time>2026-05-02T05:35:29.441Z</time></trkpt><trkpt lat="44.1210933" lon="12.0618733"><ele>55.0</ele><time>2026-05-02T05:35:31.44Z</time></trkpt><trkpt lat="44.1210017" lon="12.06194"><ele>55.0</ele><time>2026-05-02T05:35:33.443Z</time></trkpt><trkpt lat="44.1209167" lon="12.0620283"><ele>55.0</ele><time>2026-05-02T05:35:35.439Z</time></trkpt><trkpt lat="44.1208467" lon="12.06213"><ele>54.99999999999999</ele><time>2026-05-02T05:35:37.439Z</time></trkpt><trkpt lat="44.1207933" lon="12.0621883"><ele>55.0</ele><time>2026-05-02T05:35:39.441Z</time></trkpt><trkpt lat="44.1208317" lon="12.0622767"><ele>55.0</ele><time>2026-05-02T05:35:43.441Z</time></trkpt><trkpt lat="44.1209183" lon="12.0623217"><ele>55.0</ele><time>2026-05-02T05:35:45.443Z</time></trkpt><trkpt lat="44.1209717" lon="12.06242"><ele>54.99999999999999</ele><time>2026-05-02T05:35:47.442Z</time></trkpt><trkpt lat="44.12101" lon="12.06252"><ele>55.0</ele><time>2026-05-02T05:35:49.44Z</time></trkpt><trkpt lat="44.12104" lon="12.06262"><ele>55.8</ele><time>2026-05-02T05:35:51.44Z</time></trkpt><trkpt lat="44.1210767" lon="12.0627367"><ele>56.6</ele><time>2026-05-02T05:35:53.44Z</time></trkpt><trkpt lat="44.1211117" lon="12.0628583"><ele>57.400000000000006</ele><time>2026-05-02T05:35:55.442Z</time></trkpt><trkpt lat="44.1211383" lon="12.06299"><ele>58.2</ele><time>2026-05-02T05:35:57.443Z</time></trkpt><trkpt lat="44.1211617" lon="12.0631267"><ele>59.0</ele><time>2026-05-02T05:35:59.44Z</time></trkpt><trkpt lat="44.1211817" lon="12.0632633"><ele>59.800000000000004</ele><time>2026-05-02T05:36:01.441Z</time></trkpt><trkpt lat="44.121225" lon="12.06339"><ele>60.60000000000001</ele><time>2026-05-02T05:36:03.441Z</time></trkpt><trkpt lat="44.1212617" lon="12.0635183"><ele>61.4</ele><time>2026-05-02T05:36:05.44Z</time></trkpt><trkpt lat="44.12129" lon="12.0636583"><ele>62.2</ele><time>2026-05-02T05:36:07.441Z</time></trkpt><trkpt lat="44.1213317" lon="12.0638083"><ele>63.0</ele><time>2026-05-02T05:36:09.441Z</time></trkpt><trkpt lat="44.1213667" lon="12.0639683"><ele>63.5</ele><time>2026-05-02T05:36:11.44Z</time></trkpt><trkpt lat="44.1214067" lon="12.0641267"><ele>64.0</ele><time>2026-05-02T05:36:13.443Z</time></trkpt><trkpt lat="44.121455" lon="12.06428"><ele>64.5</ele><time>2026-05-02T05:36:15.443Z</time></trkpt><trkpt lat="44.1215" lon="12.0644383"><ele>65.0</ele><time>2026-05-02T05:36:17.441Z</time></trkpt><trkpt lat="44.1215433" lon="12.064595"><ele>63.0</ele><time>2026-05-02T05:36:19.44Z</time></trkpt><trkpt lat="44.1215867" lon="12.0647533"><ele>61.0</ele><time>2026-05-02T05:36:21.439Z</time></trkpt><trkpt lat="44.1216317" lon="12.0649117"><ele>59.0</ele><time>2026-05-02T05:36:23.438Z</time></trkpt><trkpt lat="44.1216767" lon="12.0650683"><ele>57.0</ele><time>2026-05-02T05:36:25.442Z</time></trkpt><trkpt lat="44.1217183" lon="12.0652267"><ele>57.0</ele><time>2026-05-02T05:36:27.443Z</time></trkpt><trkpt lat="44.1217383" lon="12.06531"><ele>57.0</ele><time>2026-05-02T05:36:28.441Z</time></trkpt><trkpt lat="44.1217817" lon="12.0654683"><ele>57.0</ele><time>2026-05-02T05:36:30.44Z</time></trkpt><trkpt lat="44.1218267" lon="12.0656167"><ele>57.0</ele><time>2026-05-02T05:36:32.44Z</time></trkpt><trkpt lat="44.1218617" lon="12.0657717"><ele>57.0</ele><time>2026-05-02T05:36:34.439Z</time></trkpt><trkpt lat="44.1218983" lon="12.0659217"><ele>57.8</ele><time>2026-05-02T05:36:36.44Z</time></trkpt><trkpt lat="44.1219333" lon="12.066065"><ele>58.6</ele><time>2026-05-02T05:36:38.439Z</time></trkpt><trkpt lat="44.12197" lon="12.0662083"><ele>59.39999999999999</ele><time>2026-05-02T05:36:40.439Z</time></trkpt><trkpt lat="44.1220083" lon="12.0663433"><ele>60.199999999999996</ele><time>2026-05-02T05:36:42.442Z</time></trkpt><trkpt lat="44.122045" lon="12.06648"><ele>61.0</ele><time>2026-05-02T05:36:44.442Z</time></trkpt><trkpt lat="44.1220833" lon="12.0666083"><ele>61.199999999999996</ele><time>2026-05-02T05:36:46.443Z</time></trkpt><trkpt lat="44.1221167" lon="12.066735"><ele>61.39999999999999</ele><time>2026-05-02T05:36:48.439Z</time></trkpt><trkpt lat="44.12215" lon="12.0668583"><ele>61.6</ele><time>2026-05-02T05:36:50.44Z</time></trkpt><trkpt lat="44.1221767" lon="12.0669767"><ele>61.8</ele><time>2026-05-02T05:36:52.44Z</time></trkpt><trkpt lat="44.1222017" lon="12.067095"><ele>62.0</ele><time>2026-05-02T05:36:54.439Z</time></trkpt><trkpt lat="44.1222317" lon="12.0672067"><ele>62.00000000000001</ele><time>2026-05-02T05:36:56.442Z</time></trkpt><trkpt lat="44.12226" lon="12.0673167"><ele>62.0</ele><time>2026-05-02T05:36:58.441Z</time></trkpt><trkpt lat="44.1222883" lon="12.0674267"><ele>62.0</ele><time>2026-05-02T05:37:00.44Z</time></trkpt><trkpt lat="44.12232" lon="12.0675317"><ele>62.0</ele><time>2026-05-02T05:37:02.44Z</time></trkpt><trkpt lat="44.12235" lon="12.0676367"><ele>62.00000000000001</ele><time>2026-05-02T05:37:04.439Z</time></trkpt><trkpt lat="44.122375" lon="12.0677483"><ele>62.0</ele><time>2026-05-02T05:37:06.439Z</time></trkpt><trkpt lat="44.1223983" lon="12.0678633"><ele>62.16666666666667</ele><time>2026-05-02T05:37:08.44Z</time></trkpt><trkpt lat="44.1224267" lon="12.0679767"><ele>62.333333333333336</ele><time>2026-05-02T05:37:10.44Z</time></trkpt><trkpt lat="44.1224517" lon="12.06809"><ele>62.5</ele><time>2026-05-02T05:37:12.443Z</time></trkpt><trkpt lat="44.12248" lon="12.0682033"><ele>62.66666666666667</ele><time>2026-05-02T05:37:14.442Z</time></trkpt><trkpt lat="44.1225083" lon="12.068315"><ele>62.833333333333336</ele><time>2026-05-02T05:37:16.441Z</time></trkpt><trkpt lat="44.1225333" lon="12.068425"><ele>63.0</ele><time>2026-05-02T05:37:18.439Z</time></trkpt><trkpt lat="44.1225617" lon="12.0685467"><ele>63.0</ele><time>2026-05-02T05:37:20.439Z</time></trkpt><trkpt lat="44.1225933" lon="12.06867"><ele>63.0</ele><time>2026-05-02T05:37:22.438Z</time></trkpt><trkpt lat="44.1226333" lon="12.0687783"><ele>63.0</ele><time>2026-05-02T05:37:24.441Z</time></trkpt><trkpt lat="44.12267" lon="12.0688933"><ele>63.0</ele><time>2026-05-02T05:37:26.442Z</time></trkpt><trkpt lat="44.1227" lon="12.0690133"><ele>63.0</ele><time>2026-05-02T05:37:28.439Z</time></trkpt><trkpt lat="44.1227317" lon="12.0691317"><ele>63.166666666666664</ele><time>2026-05-02T05:37:30.44Z</time></trkpt><trkpt lat="44.1227533" lon="12.069245"><ele>63.33333333333333</ele><time>2026-05-02T05:37:32.44Z</time></trkpt><trkpt lat="44.1227867" lon="12.069355"><ele>63.5</ele><time>2026-05-02T05:37:34.439Z</time></trkpt><trkpt lat="44.1228167" lon="12.0694667"><ele>63.666666666666664</ele><time>2026-05-02T05:37:36.44Z</time></trkpt><trkpt lat="44.1228433" lon="12.0695817"><ele>63.83333333333333</ele><time>2026-05-02T05:37:38.442Z</time></trkpt><trkpt lat="44.1228683" lon="12.0696917"><ele>64.0</ele><time>2026-05-02T05:37:40.44Z</time></trkpt><trkpt lat="44.1229067" lon="12.069805"><ele>63.99999999999999</ele><time>2026-05-02T05:37:42.439Z</time></trkpt><trkpt lat="44.1229317" lon="12.06992"><ele>64.0</ele><time>2026-05-02T05:37:44.442Z</time></trkpt><trkpt lat="44.1229617" lon="12.0700283"><ele>64.0</ele><time>2026-05-02T05:37:46.439Z</time></trkpt><trkpt lat="44.1229883" lon="12.0701433"><ele>64.0</ele><time>2026-05-02T05:37:48.44Z</time></trkpt><trkpt lat="44.1230183" lon="12.07025"><ele>63.99999999999999</ele><time>2026-05-02T05:37:50.44Z</time></trkpt><trkpt lat="44.12304" lon="12.070355"><ele>64.0</ele><time>2026-05-02T05:37:52.438Z</time></trkpt><trkpt lat="44.123065" lon="12.0704633"><ele>64.16666666666666</ele><time>2026-05-02T05:37:54.44Z</time></trkpt><trkpt lat="44.12309" lon="12.0705767"><ele>64.33333333333333</ele><time>2026-05-02T05:37:56.441Z</time></trkpt><trkpt lat="44.1231183" lon="12.0706867"><ele>64.5</ele><time>2026-05-02T05:37:58.443Z</time></trkpt><trkpt lat="44.1231483" lon="12.0707933"><ele>64.66666666666667</ele><time>2026-05-02T05:38:00.44Z</time></trkpt><trkpt lat="44.12318" lon="12.0709017"><ele>64.83333333333334</ele><time>2026-05-02T05:38:02.442Z</time></trkpt><trkpt lat="44.1232033" lon="12.07101"><ele>65.0</ele><time>2026-05-02T05:38:04.438Z</time></trkpt><trkpt lat="44.12323" lon="12.0711117"><ele>65.14285714285715</ele><time>2026-05-02T05:38:06.441Z</time></trkpt><trkpt lat="44.123255" lon="12.0712117"><ele>65.28571428571429</ele><time>2026-05-02T05:38:08.44Z</time></trkpt><trkpt lat="44.1232767" lon="12.071305"><ele>65.42857142857143</ele><time>2026-05-02T05:38:10.442Z</time></trkpt><trkpt lat="44.1233033" lon="12.0713983"><ele>65.57142857142858</ele><time>2026-05-02T05:38:12.442Z</time></trkpt><trkpt lat="44.1233283" lon="12.071495"><ele>65.71428571428572</ele><time>2026-05-02T05:38:14.441Z</time></trkpt><trkpt lat="44.1233517" lon="12.071585"><ele>65.85714285714286</ele><time>2026-05-02T05:38:16.443Z</time></trkpt><trkpt lat="44.123375" lon="12.0716783"><ele>66.0</ele><time>2026-05-02T05:38:18.439Z</time></trkpt><trkpt lat="44.123405" lon="12.0717717"><ele>66.57142857142857</ele><time>2026-05-02T05:38:20.443Z</time></trkpt><trkpt lat="44.1234317" lon="12.0718683"><ele>67.14285714285714</ele><time>2026-05-02T05:38:22.442Z</time></trkpt><trkpt lat="44.1234533" lon="12.0719667"><ele>67.71428571428572</ele><time>2026-05-02T05:38:24.442Z</time></trkpt><trkpt lat="44.123485" lon="12.0720583"><ele>68.28571428571428</ele><time>2026-05-02T05:38:26.44Z</time></trkpt><trkpt lat="44.1235133" lon="12.0721433"><ele>68.85714285714286</ele><time>2026-05-02T05:38:28.439Z</time></trkpt><trkpt lat="44.1235367" lon="12.0722283"><ele>69.42857142857143</ele><time>2026-05-02T05:38:30.441Z</time></trkpt><trkpt lat="44.123555" lon="12.072315"><ele>70.0</ele><time>2026-05-02T05:38:32.441Z</time></trkpt><trkpt lat="44.12358" lon="12.07244"><ele>70.5</ele><time>2026-05-02T05:38:35.439Z</time></trkpt><trkpt lat="44.1236117" lon="12.0725633"><ele>71.0</ele><time>2026-05-02T05:38:38.442Z</time></trkpt><trkpt lat="44.1236467" lon="12.07269"><ele>71.5</ele><time>2026-05-02T05:38:41.44Z</time></trkpt><trkpt lat="44.1236683" lon="12.072775"><ele>72.0</ele><time>2026-05-02T05:38:43.44Z</time></trkpt><trkpt lat="44.1236983" lon="12.0728567"><ele>72.5</ele><time>2026-05-02T05:38:45.442Z</time></trkpt><trkpt lat="44.123725" lon="12.072985"><ele>73.0</ele><time>2026-05-02T05:38:48.44Z</time></trkpt><trkpt lat="44.1237483" lon="12.0730683"><ele>73.0</ele><time>2026-05-02T05:38:50.441Z</time></trkpt><trkpt lat="44.1237683" lon="12.0731567"><ele>73.0</ele><time>2026-05-02T05:38:52.442Z</time></trkpt><trkpt lat="44.1237967" lon="12.0732433"><ele>73.0</ele><time>2026-05-02T05:38:54.442Z</time></trkpt><trkpt lat="44.12382" lon="12.0733283"><ele>73.0</ele><time>2026-05-02T05:38:56.442Z</time></trkpt><trkpt lat="44.1238533" lon="12.0734167"><ele>73.0</ele><time>2026-05-02T05:38:58.442Z</time></trkpt><trkpt lat="44.12388" lon="12.0735033"><ele>73.0</ele><time>2026-05-02T05:39:00.441Z</time></trkpt><trkpt lat="44.1238983" lon="12.0735917"><ele>73.0</ele><time>2026-05-02T05:39:02.441Z</time></trkpt><trkpt lat="44.1239233" lon="12.0736783"><ele>73.28571428571428</ele><time>2026-05-02T05:39:04.441Z</time></trkpt><trkpt lat="44.1239483" lon="12.0737667"><ele>73.57142857142857</ele><time>2026-05-02T05:39:06.444Z</time></trkpt><trkpt lat="44.1239733" lon="12.0738517"><ele>73.85714285714286</ele><time>2026-05-02T05:39:08.439Z</time></trkpt><trkpt lat="44.123995" lon="12.0739433"><ele>74.14285714285714</ele><time>2026-05-02T05:39:10.44Z</time></trkpt><trkpt lat="44.1240133" lon="12.0740333"><ele>74.42857142857143</ele><time>2026-05-02T05:39:12.44Z</time></trkpt><trkpt lat="44.124035" lon="12.0741233"><ele>74.71428571428571</ele><time>2026-05-02T05:39:14.441Z</time></trkpt><trkpt lat="44.1240567" lon="12.0742167"><ele>75.0</ele><time>2026-05-02T05:39:16.441Z</time></trkpt><trkpt lat="44.1240767" lon="12.07431"><ele>74.99999999999999</ele><time>2026-05-02T05:39:18.441Z</time></trkpt><trkpt lat="44.1241" lon="12.0744"><ele>75.0</ele><time>2026-05-02T05:39:20.44Z</time></trkpt><trkpt lat="44.1241233" lon="12.07449"><ele>75.0</ele><time>2026-05-02T05:39:22.439Z</time></trkpt><trkpt lat="44.124145" lon="12.0745783"><ele>75.0</ele><time>2026-05-02T05:39:24.44Z</time></trkpt><trkpt lat="44.1241633" lon="12.0746667"><ele>75.0</ele><time>2026-05-02T05:39:26.44Z</time></trkpt><trkpt lat="44.1241833" lon="12.0747517"><ele>74.99999999999999</ele><time>2026-05-02T05:39:28.44Z</time></trkpt><trkpt lat="44.124205" lon="12.0748383"><ele>75.0</ele><time>2026-05-02T05:39:30.44Z</time></trkpt><trkpt lat="44.12423" lon="12.0749233"><ele>75.71428571428571</ele><time>2026-05-02T05:39:32.442Z</time></trkpt><trkpt lat="44.1242567" lon="12.0750067"><ele>76.42857142857143</ele><time>2026-05-02T05:39:34.439Z</time></trkpt><trkpt lat="44.1242767" lon="12.07509"><ele>77.14285714285714</ele><time>2026-05-02T05:39:36.442Z</time></trkpt><trkpt lat="44.1242983" lon="12.0751783"><ele>77.85714285714286</ele><time>2026-05-02T05:39:38.443Z</time></trkpt><trkpt lat="44.12432" lon="12.0752667"><ele>78.57142857142857</ele><time>2026-05-02T05:39:40.441Z</time></trkpt><trkpt lat="44.124355" lon="12.0753533"><ele>79.28571428571428</ele><time>2026-05-02T05:39:42.439Z</time></trkpt><trkpt lat="44.1243817" lon="12.07544"><ele>80.0</ele><time>2026-05-02T05:39:44.44Z</time></trkpt><trkpt lat="44.1243983" lon="12.0755317"><ele>80.0</ele><time>2026-05-02T05:39:46.439Z</time></trkpt><trkpt lat="44.12442" lon="12.0756217"><ele>80.0</ele><time>2026-05-02T05:39:48.442Z</time></trkpt><trkpt lat="44.1244417" lon="12.0757117"><ele>80.0</ele><time>2026-05-02T05:39:50.439Z</time></trkpt><trkpt lat="44.1244617" lon="12.0758017"><ele>80.0</ele><time>2026-05-02T05:39:52.439Z</time></trkpt><trkpt lat="44.124485" lon="12.0758917"><ele>80.0</ele><time>2026-05-02T05:39:54.439Z</time></trkpt><trkpt lat="44.1245017" lon="12.0759817"><ele>80.0</ele><time>2026-05-02T05:39:56.439Z</time></trkpt><trkpt lat="44.1245217" lon="12.076065"><ele>80.0</ele><time>2026-05-02T05:39:58.44Z</time></trkpt><trkpt lat="44.1245383" lon="12.0761567"><ele>80.85714285714286</ele><time>2026-05-02T05:40:00.44Z</time></trkpt><trkpt lat="44.1245567" lon="12.0762433"><ele>81.71428571428572</ele><time>2026-05-02T05:40:02.442Z</time></trkpt><trkpt lat="44.12458" lon="12.0763283"><ele>82.57142857142858</ele><time>2026-05-02T05:40:04.439Z</time></trkpt><trkpt lat="44.124605" lon="12.076415"><ele>83.42857142857143</ele><time>2026-05-02T05:40:06.439Z</time></trkpt><trkpt lat="44.1246283" lon="12.076505"><ele>84.28571428571429</ele><time>2026-05-02T05:40:08.442Z</time></trkpt><trkpt lat="44.1246517" lon="12.0765883"><ele>85.14285714285715</ele><time>2026-05-02T05:40:10.442Z</time></trkpt><trkpt lat="44.124675" lon="12.0766717"><ele>86.0</ele><time>2026-05-02T05:40:12.439Z</time></trkpt><trkpt lat="44.1246933" lon="12.0767567"><ele>86.66666666666667</ele><time>2026-05-02T05:40:14.443Z</time></trkpt><trkpt lat="44.1247217" lon="12.0768367"><ele>87.33333333333334</ele><time>2026-05-02T05:40:16.442Z</time></trkpt><trkpt lat="44.1247767" lon="12.0769383"><ele>88.0</ele><time>2026-05-02T05:40:19.439Z</time></trkpt><trkpt lat="44.124835" lon="12.0770333"><ele>88.66666666666667</ele><time>2026-05-02T05:40:22.439Z</time></trkpt><trkpt lat="44.1248917" lon="12.0771117"><ele>89.33333333333333</ele><time>2026-05-02T05:40:25.441Z</time></trkpt><trkpt lat="44.1249683" lon="12.0771783"><ele>90.0</ele><time>2026-05-02T05:40:28.44Z</time></trkpt><trkpt lat="44.1250483" lon="12.0772283"><ele>89.8</ele><time>2026-05-02T05:40:31.44Z</time></trkpt><trkpt lat="44.1251317" lon="12.0772717"><ele>89.6</ele><time>2026-05-02T05:40:34.442Z</time></trkpt><trkpt lat="44.1252183" lon="12.0773117"><ele>89.4</ele><time>2026-05-02T05:40:37.442Z</time></trkpt><trkpt lat="44.125305" lon="12.077355"><ele>89.2</ele><time>2026-05-02T05:40:40.441Z</time></trkpt><trkpt lat="44.12539" lon="12.0773983"><ele>89.0</ele><time>2026-05-02T05:40:43.439Z</time></trkpt><trkpt lat="44.1254733" lon="12.0774367"><ele>89.0</ele><time>2026-05-02T05:40:46.442Z</time></trkpt><trkpt lat="44.12554" lon="12.07746"><ele>89.0</ele><time>2026-05-02T05:40:48.44Z</time></trkpt><trkpt lat="44.1256167" lon="12.0774933"><ele>89.0</ele><time>2026-05-02T05:40:50.439Z</time></trkpt><trkpt lat="44.1256967" lon="12.0775333"><ele>89.0</ele><time>2026-05-02T05:40:52.439Z</time></trkpt><trkpt lat="44.1257783" lon="12.0775683"><ele>89.0</ele><time>2026-05-02T05:40:54.439Z</time></trkpt><trkpt lat="44.1258717" lon="12.0775983"><ele>89.0</ele><time>2026-05-02T05:40:56.439Z</time></trkpt><trkpt lat="44.1259683" lon="12.0776383"><ele>88.25</ele><time>2026-05-02T05:40:58.44Z</time></trkpt><trkpt lat="44.1260717" lon="12.0776883"><ele>87.5</ele><time>2026-05-02T05:41:00.443Z</time></trkpt><trkpt lat="44.126185" lon="12.0777333"><ele>86.75</ele><time>2026-05-02T05:41:02.443Z</time></trkpt><trkpt lat="44.1263033" lon="12.0777833"><ele>86.0</ele><time>2026-05-02T05:41:04.442Z</time></trkpt><trkpt lat="44.1264267" lon="12.07783"><ele>86.00000000000001</ele><time>2026-05-02T05:41:06.442Z</time></trkpt><trkpt lat="44.1264883" lon="12.07785"><ele>86.0</ele><time>2026-05-02T05:41:07.442Z</time></trkpt><trkpt lat="44.1265517" lon="12.0778717"><ele>86.0</ele><time>2026-05-02T05:41:08.441Z</time></trkpt><trkpt lat="44.1266133" lon="12.0778967"><ele>86.0</ele><time>2026-05-02T05:41:09.443Z</time></trkpt><trkpt lat="44.12668" lon="12.0779217"><ele>86.0</ele><time>2026-05-02T05:41:10.441Z</time></trkpt><trkpt lat="44.1267467" lon="12.0779483"><ele>86.00000000000001</ele><time>2026-05-02T05:41:11.443Z</time></trkpt><trkpt lat="44.1268117" lon="12.077975"><ele>86.0</ele><time>2026-05-02T05:41:12.44Z</time></trkpt><trkpt lat="44.1268767" lon="12.078005"><ele>85.28571428571429</ele><time>2026-05-02T05:41:13.442Z</time></trkpt><trkpt lat="44.1269417" lon="12.0780367"><ele>84.57142857142857</ele><time>2026-05-02T05:41:14.442Z</time></trkpt><trkpt lat="44.1270083" lon="12.078065"><ele>83.85714285714286</ele><time>2026-05-02T05:41:15.44Z</time></trkpt><trkpt lat="44.1270767" lon="12.0780967"><ele>83.14285714285714</ele><time>2026-05-02T05:41:16.44Z</time></trkpt><trkpt lat="44.1271467" lon="12.0781267"><ele>82.42857142857143</ele><time>2026-05-02T05:41:17.441Z</time></trkpt><trkpt lat="44.12722" lon="12.078155"><ele>81.71428571428572</ele><time>2026-05-02T05:41:18.439Z</time></trkpt><trkpt lat="44.1272917" lon="12.0781933"><ele>81.0</ele><time>2026-05-02T05:41:19.439Z</time></trkpt><trkpt lat="44.1273583" lon="12.0782433"><ele>80.33333333333333</ele><time>2026-05-02T05:41:20.44Z</time></trkpt><trkpt lat="44.1274183" lon="12.0783033"><ele>79.66666666666667</ele><time>2026-05-02T05:41:21.441Z</time></trkpt><trkpt lat="44.127475" lon="12.0783717"><ele>79.0</ele><time>2026-05-02T05:41:22.44Z</time></trkpt><trkpt lat="44.12753" lon="12.0784467"><ele>78.33333333333334</ele><time>2026-05-02T05:41:23.438Z</time></trkpt><trkpt lat="44.1275817" lon="12.0785217"><ele>77.66666666666667</ele><time>2026-05-02T05:41:24.439Z</time></trkpt><trkpt lat="44.127635" lon="12.0785983"><ele>77.0</ele><time>2026-05-02T05:41:25.44Z</time></trkpt><trkpt lat="44.1276867" lon="12.0786767"><ele>77.0</ele><time>2026-05-02T05:41:26.439Z</time></trkpt><trkpt lat="44.1277417" lon="12.0787583"><ele>77.0</ele><time>2026-05-02T05:41:27.44Z</time></trkpt><trkpt lat="44.127795" lon="12.0788383"><ele>77.0</ele><time>2026-05-02T05:41:28.442Z</time></trkpt><trkpt lat="44.12785" lon="12.0789183"><ele>77.0</ele><time>2026-05-02T05:41:29.44Z</time></trkpt><trkpt lat="44.127905" lon="12.0789983"><ele>77.0</ele><time>2026-05-02T05:41:30.44Z</time></trkpt><trkpt lat="44.12796" lon="12.0790833"><ele>77.0</ele><time>2026-05-02T05:41:31.442Z</time></trkpt><trkpt lat="44.128015" lon="12.0791683"><ele>76.16666666666667</ele><time>2026-05-02T05:41:32.441Z</time></trkpt><trkpt lat="44.1280717" lon="12.0792467"><ele>75.33333333333334</ele><time>2026-05-02T05:41:33.442Z</time></trkpt><trkpt lat="44.1281267" lon="12.07933"><ele>74.5</ele><time>2026-05-02T05:41:34.441Z</time></trkpt><trkpt lat="44.1281817" lon="12.079415"><ele>73.66666666666667</ele><time>2026-05-02T05:41:35.441Z</time></trkpt><trkpt lat="44.1282367" lon="12.0795"><ele>72.83333333333333</ele><time>2026-05-02T05:41:36.441Z</time></trkpt><trkpt lat="44.1282933" lon="12.0795867"><ele>72.0</ele><time>2026-05-02T05:41:37.441Z</time></trkpt><trkpt lat="44.1283517" lon="12.079675"><ele>72.0</ele><time>2026-05-02T05:41:38.441Z</time></trkpt><trkpt lat="44.1284133" lon="12.0797633"><ele>72.0</ele><time>2026-05-02T05:41:39.442Z</time></trkpt><trkpt lat="44.1284733" lon="12.0798517"><ele>72.0</ele><time>2026-05-02T05:41:40.442Z</time></trkpt><trkpt lat="44.128535" lon="12.0799417"><ele>72.0</ele><time>2026-05-02T05:41:41.439Z</time></trkpt><trkpt lat="44.1285967" lon="12.080035"><ele>72.0</ele><time>2026-05-02T05:41:42.44Z</time></trkpt><trkpt lat="44.12866" lon="12.08013"><ele>72.0</ele><time>2026-05-02T05:41:43.439Z</time></trkpt><trkpt lat="44.1287267" lon="12.0802183"><ele>72.5</ele><time>2026-05-02T05:41:44.439Z</time></trkpt><trkpt lat="44.1287983" lon="12.0802967"><ele>73.0</ele><time>2026-05-02T05:41:45.44Z</time></trkpt><trkpt lat="44.128875" lon="12.0803617"><ele>73.5</ele><time>2026-05-02T05:41:46.44Z</time></trkpt><trkpt lat="44.1289517" lon="12.0804067"><ele>74.0</ele><time>2026-05-02T05:41:47.439Z</time></trkpt><trkpt lat="44.12903" lon="12.080435"><ele>74.5</ele><time>2026-05-02T05:41:48.44Z</time></trkpt><trkpt lat="44.1290933" lon="12.0804483"><ele>75.0</ele><time>2026-05-02T05:41:49.439Z</time></trkpt><trkpt lat="44.1291983" lon="12.0804883"><ele>74.57142857142857</ele><time>2026-05-02T05:41:51.44Z</time></trkpt><trkpt lat="44.129265" lon="12.080535"><ele>74.14285714285714</ele><time>2026-05-02T05:41:53.44Z</time></trkpt><trkpt lat="44.1293267" lon="12.0805867"><ele>73.71428571428572</ele><time>2026-05-02T05:41:58.442Z</time></trkpt><trkpt lat="44.1293783" lon="12.08064"><ele>73.28571428571428</ele><time>2026-05-02T05:42:03.444Z</time></trkpt><trkpt lat="44.129385" lon="12.08073"><ele>72.85714285714286</ele><time>2026-05-02T05:42:08.443Z</time></trkpt><trkpt lat="44.1293583" lon="12.08083"><ele>72.42857142857143</ele><time>2026-05-02T05:42:13.441Z</time></trkpt><trkpt lat="44.1293317" lon="12.0809117"><ele>72.0</ele><time>2026-05-02T05:42:19.442Z</time></trkpt><trkpt lat="44.1293217" lon="12.0810117"><ele>72.00000000000001</ele><time>2026-05-02T05:42:25.438Z</time></trkpt><trkpt lat="44.12933" lon="12.0811183"><ele>72.0</ele><time>2026-05-02T05:42:31.443Z</time></trkpt><trkpt lat="44.1293167" lon="12.081205"><ele>72.0</ele><time>2026-05-02T05:42:36.441Z</time></trkpt><trkpt lat="44.1293067" lon="12.08131"><ele>72.0</ele><time>2026-05-02T05:42:42.439Z</time></trkpt><trkpt lat="44.1292917" lon="12.0814117"><ele>72.0</ele><time>2026-05-02T05:42:48.441Z</time></trkpt><trkpt lat="44.1292917" lon="12.0815083"><ele>72.00000000000001</ele><time>2026-05-02T05:42:54.442Z</time></trkpt><trkpt lat="44.1292783" lon="12.081605"><ele>72.0</ele><time>2026-05-02T05:43:00.441Z</time></trkpt><trkpt lat="44.1292617" lon="12.0817033"><ele>72.85714285714286</ele><time>2026-05-02T05:43:06.442Z</time></trkpt><trkpt lat="44.129265" lon="12.0817983"><ele>73.71428571428572</ele><time>2026-05-02T05:43:11.442Z</time></trkpt><trkpt lat="44.1292533" lon="12.0818917"><ele>74.57142857142858</ele><time>2026-05-02T05:43:17.441Z</time></trkpt><trkpt lat="44.1292317" lon="12.081975"><ele>75.42857142857143</ele><time>2026-05-02T05:43:25.441Z</time></trkpt><trkpt lat="44.1291967" lon="12.0820517"><ele>76.28571428571428</ele><time>2026-05-02T05:43:29.442Z</time></trkpt><trkpt lat="44.1291633" lon="12.082145"><ele>77.14285714285715</ele><time>2026-05-02T05:43:35.441Z</time></trkpt><trkpt lat="44.1291267" lon="12.0822167"><ele>78.0</ele><time>2026-05-02T05:43:40.441Z</time></trkpt><trkpt lat="44.1290933" lon="12.0823033"><ele>78.0</ele><time>2026-05-02T05:43:46.442Z</time></trkpt><trkpt lat="44.12906" lon="12.0823783"><ele>78.0</ele><time>2026-05-02T05:43:52.439Z</time></trkpt><trkpt lat="44.1290317" lon="12.0824567"><ele>78.0</ele><time>2026-05-02T05:43:57.439Z</time></trkpt><trkpt lat="44.1289817" lon="12.0825217"><ele>78.0</ele><time>2026-05-02T05:44:03.443Z</time></trkpt><trkpt lat="44.128935" lon="12.0825817"><ele>78.0</ele><time>2026-05-02T05:44:08.439Z</time></trkpt><trkpt lat="44.1289083" lon="12.08267"><ele>78.0</ele><time>2026-05-02T05:44:45.443Z</time></trkpt><trkpt lat="44.1288567" lon="12.0827367"><ele>78.0</ele><time>2026-05-02T05:44:50.442Z</time></trkpt><trkpt lat="44.1288133" lon="12.0828133"><ele>78.14285714285715</ele><time>2026-05-02T05:44:55.442Z</time></trkpt><trkpt lat="44.12878" lon="12.0828883"><ele>78.28571428571428</ele><time>2026-05-02T05:45:00.441Z</time></trkpt><trkpt lat="44.1287567" lon="12.0829767"><ele>78.42857142857143</ele><time>2026-05-02T05:45:05.442Z</time></trkpt><trkpt lat="44.1287667" lon="12.0830817"><ele>78.57142857142858</ele><time>2026-05-02T05:45:10.441Z</time></trkpt><trkpt lat="44.1287733" lon="12.0831833"><ele>78.71428571428572</ele><time>2026-05-02T05:45:15.442Z</time></trkpt><trkpt lat="44.128775" lon="12.0832717"><ele>78.85714285714286</ele><time>2026-05-02T05:45:19.442Z</time></trkpt><trkpt lat="44.128785" lon="12.0833617"><ele>79.0</ele><time>2026-05-02T05:45:23.442Z</time></trkpt><trkpt lat="44.1287817" lon="12.083465"><ele>80.0</ele><time>2026-05-02T05:45:28.439Z</time></trkpt><trkpt lat="44.1287683" lon="12.0835667"><ele>81.0</ele><time>2026-05-02T05:45:32.442Z</time></trkpt><trkpt lat="44.128755" lon="12.0836683"><ele>82.0</ele><time>2026-05-02T05:45:36.442Z</time></trkpt><trkpt lat="44.128735" lon="12.0837667"><ele>83.0</ele><time>2026-05-02T05:45:40.441Z</time></trkpt><trkpt lat="44.128715" lon="12.0838617"><ele>84.0</ele><time>2026-05-02T05:45:44.442Z</time></trkpt><trkpt lat="44.1286817" lon="12.0839517"><ele>85.0</ele><time>2026-05-02T05:45:48.439Z</time></trkpt><trkpt lat="44.12866" lon="12.084065"><ele>86.42857142857143</ele><time>2026-05-02T05:45:52.44Z</time></trkpt><trkpt lat="44.1286283" lon="12.084155"><ele>87.85714285714285</ele><time>2026-05-02T05:45:59.439Z</time></trkpt><trkpt lat="44.128605" lon="12.08424"><ele>89.28571428571428</ele><time>2026-05-02T05:46:04.441Z</time></trkpt><trkpt lat="44.128595" lon="12.084345"><ele>90.71428571428572</ele><time>2026-05-02T05:46:10.438Z</time></trkpt><trkpt lat="44.1285917" lon="12.08444"><ele>92.14285714285714</ele><time>2026-05-02T05:46:15.442Z</time></trkpt><trkpt lat="44.128595" lon="12.0845367"><ele>93.57142857142857</ele><time>2026-05-02T05:46:20.44Z</time></trkpt><trkpt lat="44.1285867" lon="12.0846317"><ele>95.0</ele><time>2026-05-02T05:46:26.439Z</time></trkpt><trkpt lat="44.1285883" lon="12.084725"><ele>95.0</ele><time>2026-05-02T05:46:32.44Z</time></trkpt><trkpt lat="44.1285667" lon="12.0848133"><ele>95.0</ele><time>2026-05-02T05:46:37.44Z</time></trkpt><trkpt lat="44.1285433" lon="12.08491"><ele>95.0</ele><time>2026-05-02T05:46:43.439Z</time></trkpt><trkpt lat="44.128525" lon="12.0849983"><ele>95.0</ele><time>2026-05-02T05:46:48.439Z</time></trkpt><trkpt lat="44.1284983" lon="12.0850833"><ele>95.0</ele><time>2026-05-02T05:46:53.439Z</time></trkpt><trkpt lat="44.1284767" lon="12.0851717"><ele>95.0</ele><time>2026-05-02T05:46:58.441Z</time></trkpt><trkpt lat="44.1284567" lon="12.0852617"><ele>95.0</ele><time>2026-05-02T05:47:04.439Z</time></trkpt><trkpt lat="44.12844" lon="12.08536"><ele>96.42857142857143</ele><time>2026-05-02T05:47:10.44Z</time></trkpt><trkpt lat="44.128435" lon="12.08545"><ele>97.85714285714286</ele><time>2026-05-02T05:47:15.439Z</time></trkpt><trkpt lat="44.1284433" lon="12.0855517"><ele>99.28571428571428</ele><time>2026-05-02T05:47:21.439Z</time></trkpt><trkpt lat="44.128435" lon="12.0856483"><ele>100.71428571428572</ele><time>2026-05-02T05:47:27.442Z</time></trkpt><trkpt lat="44.1284233" lon="12.0857433"><ele>102.14285714285714</ele><time>2026-05-02T05:47:33.44Z</time></trkpt><trkpt lat="44.1284183" lon="12.085845"><ele>103.57142857142857</ele><time>2026-05-02T05:47:40.439Z</time></trkpt><trkpt lat="44.128415" lon="12.085935"><ele>105.0</ele><time>2026-05-02T05:47:46.442Z</time></trkpt><trkpt lat="44.1284167" lon="12.0860233"><ele>106.14285714285714</ele><time>2026-05-02T05:47:52.439Z</time></trkpt><trkpt lat="44.128425" lon="12.0861183"><ele>107.28571428571428</ele><time>2026-05-02T05:47:58.439Z</time></trkpt><trkpt lat="44.1284183" lon="12.0862067"><ele>108.42857142857143</ele><time>2026-05-02T05:48:04.442Z</time></trkpt><trkpt lat="44.1284033" lon="12.0863383"><ele>109.57142857142857</ele><time>2026-05-02T05:48:13.44Z</time></trkpt><trkpt lat="44.1283867" lon="12.0864283"><ele>110.71428571428571</ele><time>2026-05-02T05:48:19.439Z</time></trkpt><trkpt lat="44.12839" lon="12.08652"><ele>111.85714285714286</ele><time>2026-05-02T05:48:25.442Z</time></trkpt><trkpt lat="44.1283867" lon="12.0866083"><ele>113.0</ele><time>2026-05-02T05:48:31.442Z</time></trkpt><trkpt lat="44.1283983" lon="12.086695"><ele>114.42857142857143</ele><time>2026-05-02T05:48:37.442Z</time></trkpt><trkpt lat="44.128395" lon="12.0867933"><ele>115.85714285714286</ele><time>2026-05-02T05:48:44.439Z</time></trkpt><trkpt lat="44.12839" lon="12.0868967"><ele>117.28571428571429</ele><time>2026-05-02T05:48:50.439Z</time></trkpt><trkpt lat="44.1283733" lon="12.08699"><ele>118.71428571428572</ele><time>2026-05-02T05:48:56.439Z</time></trkpt><trkpt lat="44.1283733" lon="12.087085"><ele>120.14285714285714</ele><time>2026-05-02T05:49:02.438Z</time></trkpt><trkpt lat="44.1283983" lon="12.0871717"><ele>121.57142857142858</ele><time>2026-05-02T05:49:07.441Z</time></trkpt><trkpt lat="44.1283917" lon="12.08726"><ele>123.00000000000001</ele><time>2026-05-02T05:49:12.44Z</time></trkpt><trkpt lat="44.1283767" lon="12.0873583"><ele>123.85714285714288</ele><time>2026-05-02T05:49:19.44Z</time></trkpt><trkpt lat="44.12837" lon="12.0874533"><ele>124.71428571428572</ele><time>2026-05-02T05:49:24.44Z</time></trkpt><trkpt lat="44.1283567" lon="12.0875433"><ele>125.57142857142857</ele><time>2026-05-02T05:49:29.443Z</time></trkpt><trkpt lat="44.1283383" lon="12.087645"><ele>126.42857142857143</ele><time>2026-05-02T05:49:35.439Z</time></trkpt><trkpt lat="44.128335" lon="12.08775"><ele>127.28571428571428</ele><time>2026-05-02T05:49:41.439Z</time></trkpt><trkpt lat="44.12833" lon="12.087845"><ele>128.14285714285714</ele><time>2026-05-02T05:49:46.438Z</time></trkpt><trkpt lat="44.1283283" lon="12.0879467"><ele>129.0</ele><time>2026-05-02T05:49:52.439Z</time></trkpt><trkpt lat="44.1283283" lon="12.0880633"><ele>128.99999999999997</ele><time>2026-05-02T05:50:00.44Z</time></trkpt><trkpt lat="44.128325" lon="12.0881683"><ele>129.0</ele><time>2026-05-02T05:50:06.438Z</time></trkpt><trkpt lat="44.1283367" lon="12.0882633"><ele>129.0</ele><time>2026-05-02T05:50:12.438Z</time></trkpt><trkpt lat="44.128375" lon="12.0883433"><ele>129.0</ele><time>2026-05-02T05:51:00.441Z</time></trkpt><trkpt lat="44.12842" lon="12.088405"><ele>129.0</ele><time>2026-05-02T05:51:03.443Z</time></trkpt><trkpt lat="44.1284417" lon="12.088495"><ele>128.99999999999997</ele><time>2026-05-02T05:51:07.442Z</time></trkpt><trkpt lat="44.1284633" lon="12.08859"><ele>129.0</ele><time>2026-05-02T05:51:11.442Z</time></trkpt><trkpt lat="44.1284917" lon="12.08867"><ele>129.85714285714283</ele><time>2026-05-02T05:51:14.442Z</time></trkpt><trkpt lat="44.1285233" lon="12.08876"><ele>130.71428571428572</ele><time>2026-05-02T05:51:18.442Z</time></trkpt><trkpt lat="44.128555" lon="12.0888567"><ele>131.57142857142856</ele><time>2026-05-02T05:51:22.438Z</time></trkpt><trkpt lat="44.1285967" lon="12.0889483"><ele>132.42857142857142</ele><time>2026-05-02T05:51:26.44Z</time></trkpt><trkpt lat="44.12863" lon="12.0890333"><ele>133.28571428571428</ele><time>2026-05-02T05:51:30.44Z</time></trkpt><trkpt lat="44.1286583" lon="12.0891217"><ele>134.14285714285714</ele><time>2026-05-02T05:51:34.441Z</time></trkpt><trkpt lat="44.12868" lon="12.0892167"><ele>135.0</ele><time>2026-05-02T05:51:38.442Z</time></trkpt><trkpt lat="44.1286983" lon="12.0893133"><ele>135.71428571428572</ele><time>2026-05-02T05:51:42.441Z</time></trkpt><trkpt lat="44.1287317" lon="12.0893967"><ele>136.42857142857142</ele><time>2026-05-02T05:51:52.439Z</time></trkpt><trkpt lat="44.1287667" lon="12.08948"><ele>137.14285714285714</ele><time>2026-05-02T05:51:58.439Z</time></trkpt><trkpt lat="44.1288" lon="12.089555"><ele>137.85714285714286</ele><time>2026-05-02T05:52:03.443Z</time></trkpt><trkpt lat="44.128835" lon="12.0896283"><ele>138.57142857142856</ele><time>2026-05-02T05:52:08.441Z</time></trkpt><trkpt lat="44.1288783" lon="12.08971"><ele>139.28571428571428</ele><time>2026-05-02T05:52:14.441Z</time></trkpt><trkpt lat="44.1289217" lon="12.089785"><ele>140.0</ele><time>2026-05-02T05:52:20.438Z</time></trkpt><trkpt lat="44.128975" lon="12.0898467"><ele>140.0</ele><time>2026-05-02T05:52:26.439Z</time></trkpt><trkpt lat="44.1290267" lon="12.0899067"><ele>140.0</ele><time>2026-05-02T05:52:31.442Z</time></trkpt><trkpt lat="44.1290867" lon="12.089995"><ele>140.0</ele><time>2026-05-02T05:52:40.442Z</time></trkpt><trkpt lat="44.1291383" lon="12.0900533"><ele>140.0</ele><time>2026-05-02T05:52:46.441Z</time></trkpt><trkpt lat="44.1291683" lon="12.0901317"><ele>140.0</ele><time>2026-05-02T05:52:55.439Z</time></trkpt><trkpt lat="44.1292083" lon="12.0902017"><ele>140.0</ele><time>2026-05-02T05:53:02.44Z</time></trkpt><trkpt lat="44.1292683" lon="12.0903033"><ele>140.0</ele><time>2026-05-02T05:53:11.442Z</time></trkpt><trkpt lat="44.129305" lon="12.090375"><ele>139.85714285714286</ele><time>2026-05-02T05:53:17.442Z</time></trkpt><trkpt lat="44.1293567" lon="12.09044"><ele>139.71428571428572</ele><time>2026-05-02T05:53:23.44Z</time></trkpt><trkpt lat="44.1294" lon="12.09051"><ele>139.57142857142856</ele><time>2026-05-02T05:53:29.442Z</time></trkpt><trkpt lat="44.1294317" lon="12.0905867"><ele>139.42857142857144</ele><time>2026-05-02T05:53:35.439Z</time></trkpt><trkpt lat="44.1294667" lon="12.0906933"><ele>139.28571428571428</ele><time>2026-05-02T05:53:45.439Z</time></trkpt><trkpt lat="44.129435" lon="12.090795"><ele>139.14285714285714</ele><time>2026-05-02T05:57:09.439Z</time></trkpt><trkpt lat="44.1293967" lon="12.090885"><ele>139.0</ele><time>2026-05-02T05:57:13.441Z</time></trkpt><trkpt lat="44.1293633" lon="12.0909633"><ele>140.28571428571428</ele><time>2026-05-02T05:57:17.441Z</time></trkpt><trkpt lat="44.1293283" lon="12.0910433"><ele>141.57142857142858</ele><time>2026-05-02T05:57:21.441Z</time></trkpt><trkpt lat="44.129285" lon="12.0911217"><ele>142.85714285714286</ele><time>2026-05-02T05:57:26.44Z</time></trkpt><trkpt lat="44.1292417" lon="12.0912117"><ele>144.14285714285714</ele><time>2026-05-02T05:57:31.439Z</time></trkpt><trkpt lat="44.1292017" lon="12.0913"><ele>145.42857142857142</ele><time>2026-05-02T05:57:36.441Z</time></trkpt><trkpt lat="44.129165" lon="12.091375"><ele>146.71428571428572</ele><time>2026-05-02T05:57:41.441Z</time></trkpt><trkpt lat="44.129135" lon="12.0914633"><ele>148.0</ele><time>2026-05-02T05:57:47.44Z</time></trkpt><trkpt lat="44.129145" lon="12.09156"><ele>149.33333333333334</ele><time>2026-05-02T05:57:53.44Z</time></trkpt><trkpt lat="44.129165" lon="12.091665"><ele>150.66666666666669</ele><time>2026-05-02T05:57:58.442Z</time></trkpt><trkpt lat="44.1291983" lon="12.0917417"><ele>152.0</ele><time>2026-05-02T05:58:01.44Z</time></trkpt><trkpt lat="44.1292317" lon="12.0918483"><ele>153.33333333333334</ele><time>2026-05-02T05:58:04.439Z</time></trkpt><trkpt lat="44.12928" lon="12.0919633"><ele>154.66666666666666</ele><time>2026-05-02T05:58:07.442Z</time></trkpt><trkpt lat="44.1293167" lon="12.0920483"><ele>156.0</ele><time>2026-05-02T05:58:09.442Z</time></trkpt><trkpt lat="44.1293367" lon="12.0921367"><ele>156.0</ele><time>2026-05-02T05:58:11.442Z</time></trkpt><trkpt lat="44.1293567" lon="12.0922517"><ele>156.0</ele><time>2026-05-02T05:58:14.442Z</time></trkpt><trkpt lat="44.1293567" lon="12.092365"><ele>156.0</ele><time>2026-05-02T05:58:17.442Z</time></trkpt><trkpt lat="44.1293833" lon="12.0924833"><ele>156.0</ele><time>2026-05-02T05:58:20.44Z</time></trkpt><trkpt lat="44.1294133" lon="12.0926"><ele>156.0</ele><time>2026-05-02T05:58:23.439Z</time></trkpt><trkpt lat="44.1294333" lon="12.092705"><ele>156.0</ele><time>2026-05-02T05:58:26.442Z</time></trkpt><trkpt lat="44.1294917" lon="12.0927767"><ele>156.0</ele><time>2026-05-02T05:58:29.441Z</time></trkpt><trkpt lat="44.129565" lon="12.0928367"><ele>156.0</ele><time>2026-05-02T05:58:32.442Z</time></trkpt><trkpt lat="44.1296383" lon="12.09288"><ele>156.0</ele><time>2026-05-02T05:58:34.441Z</time></trkpt><trkpt lat="44.1297267" lon="12.09292"><ele>156.0</ele><time>2026-05-02T05:58:36.443Z</time></trkpt><trkpt lat="44.1298133" lon="12.0929733"><ele>156.0</ele><time>2026-05-02T05:58:38.44Z</time></trkpt><trkpt lat="44.1298883" lon="12.0930317"><ele>156.0</ele><time>2026-05-02T05:58:40.441Z</time></trkpt><trkpt lat="44.1299617" lon="12.0930833"><ele>155.2</ele><time>2026-05-02T05:58:42.438Z</time></trkpt><trkpt lat="44.1300283" lon="12.0931483"><ele>154.39999999999998</ele><time>2026-05-02T05:58:44.443Z</time></trkpt><trkpt lat="44.1300983" lon="12.09322"><ele>153.6</ele><time>2026-05-02T05:58:46.44Z</time></trkpt><trkpt lat="44.1301717" lon="12.093305"><ele>152.79999999999998</ele><time>2026-05-02T05:58:48.439Z</time></trkpt><trkpt lat="44.1302567" lon="12.0933833"><ele>152.0</ele><time>2026-05-02T05:58:50.441Z</time></trkpt><trkpt lat="44.13035" lon="12.0934533"><ele>152.0</ele><time>2026-05-02T05:58:52.439Z</time></trkpt><trkpt lat="44.1304367" lon="12.0935333"><ele>152.0</ele><time>2026-05-02T05:58:54.44Z</time></trkpt><trkpt lat="44.1305033" lon="12.0936117"><ele>152.0</ele><time>2026-05-02T05:58:56.443Z</time></trkpt><trkpt lat="44.130565" lon="12.093685"><ele>152.0</ele><time>2026-05-02T05:58:58.443Z</time></trkpt><trkpt lat="44.1306267" lon="12.09375"><ele>152.0</ele><time>2026-05-02T05:59:00.442Z</time></trkpt><trkpt lat="44.1307033" lon="12.0938083"><ele>152.0</ele><time>2026-05-02T05:59:02.44Z</time></trkpt><trkpt lat="44.130765" lon="12.0938767"><ele>151.83333333333331</ele><time>2026-05-02T05:59:04.443Z</time></trkpt><trkpt lat="44.1308433" lon="12.0939533"><ele>151.66666666666666</ele><time>2026-05-02T05:59:06.442Z</time></trkpt><trkpt lat="44.13094" lon="12.094045"><ele>151.5</ele><time>2026-05-02T05:59:08.442Z</time></trkpt><trkpt lat="44.1309933" lon="12.0940933"><ele>151.33333333333334</ele><time>2026-05-02T05:59:09.443Z</time></trkpt><trkpt lat="44.1310467" lon="12.0941417"><ele>151.16666666666669</ele><time>2026-05-02T05:59:10.44Z</time></trkpt><trkpt lat="44.1311033" lon="12.0941983"><ele>151.0</ele><time>2026-05-02T05:59:11.443Z</time></trkpt><trkpt lat="44.131165" lon="12.0942583"><ele>151.00000000000003</ele><time>2026-05-02T05:59:12.443Z</time></trkpt><trkpt lat="44.1312267" lon="12.0943167"><ele>151.0</ele><time>2026-05-02T05:59:13.441Z</time></trkpt><trkpt lat="44.1312883" lon="12.0943733"><ele>151.0</ele><time>2026-05-02T05:59:14.44Z</time></trkpt><trkpt lat="44.13135" lon="12.09443"><ele>151.0</ele><time>2026-05-02T05:59:15.443Z</time></trkpt><trkpt lat="44.1314083" lon="12.094485"><ele>151.0</ele><time>2026-05-02T05:59:16.44Z</time></trkpt><trkpt lat="44.1314617" lon="12.0945417"><ele>151.00000000000003</ele><time>2026-05-02T05:59:17.44Z</time></trkpt><trkpt lat="44.1315117" lon="12.094595"><ele>151.0</ele><time>2026-05-02T05:59:18.442Z</time></trkpt><trkpt lat="44.1315633" lon="12.0946483"><ele>150.00000000000003</ele><time>2026-05-02T05:59:19.442Z</time></trkpt><trkpt lat="44.1316133" lon="12.0947067"><ele>149.0</ele><time>2026-05-02T05:59:20.439Z</time></trkpt><trkpt lat="44.13167" lon="12.0947567"><ele>148.0</ele><time>2026-05-02T05:59:21.439Z</time></trkpt><trkpt lat="44.1317233" lon="12.0948067"><ele>147.0</ele><time>2026-05-02T05:59:22.44Z</time></trkpt><trkpt lat="44.1317733" lon="12.0948617"><ele>146.0</ele><time>2026-05-02T05:59:23.44Z</time></trkpt><trkpt lat="44.1318233" lon="12.0949183"><ele>145.00000000000003</ele><time>2026-05-02T05:59:24.439Z</time></trkpt><trkpt lat="44.13188" lon="12.0949733"><ele>144.0</ele><time>2026-05-02T05:59:25.439Z</time></trkpt><trkpt lat="44.1319367" lon="12.09503"><ele>144.00000000000003</ele><time>2026-05-02T05:59:26.439Z</time></trkpt><trkpt lat="44.132" lon="12.0950867"><ele>144.0</ele><time>2026-05-02T05:59:27.441Z</time></trkpt><trkpt lat="44.1320617" lon="12.095145"><ele>144.0</ele><time>2026-05-02T05:59:28.443Z</time></trkpt><trkpt lat="44.1321217" lon="12.0952067"><ele>144.0</ele><time>2026-05-02T05:59:29.438Z</time></trkpt><trkpt lat="44.13218" lon="12.09527"><ele>144.0</ele><time>2026-05-02T05:59:30.445Z</time></trkpt><trkpt lat="44.1322417" lon="12.095325"><ele>144.00000000000003</ele><time>2026-05-02T05:59:31.441Z</time></trkpt><trkpt lat="44.1322983" lon="12.0953817"><ele>144.0</ele><time>2026-05-02T05:59:32.441Z</time></trkpt><trkpt lat="44.132355" lon="12.0954333"><ele>144.33333333333334</ele><time>2026-05-02T05:59:33.44Z</time></trkpt><trkpt lat="44.13241" lon="12.095485"><ele>144.66666666666666</ele><time>2026-05-02T05:59:34.44Z</time></trkpt><trkpt lat="44.1324633" lon="12.0955367"><ele>145.0</ele><time>2026-05-02T05:59:35.439Z</time></trkpt><trkpt lat="44.1325167" lon="12.0955833"><ele>145.33333333333331</ele><time>2026-05-02T05:59:36.44Z</time></trkpt><trkpt lat="44.1326133" lon="12.0956817"><ele>145.66666666666666</ele><time>2026-05-02T05:59:38.441Z</time></trkpt><trkpt lat="44.1327117" lon="12.09577"><ele>146.0</ele><time>2026-05-02T05:59:40.441Z</time></trkpt><trkpt lat="44.1328183" lon="12.0958517"><ele>145.33333333333331</ele><time>2026-05-02T05:59:42.441Z</time></trkpt><trkpt lat="44.132915" lon="12.0959467"><ele>144.66666666666666</ele><time>2026-05-02T05:59:44.44Z</time></trkpt><trkpt lat="44.13297" lon="12.095995"><ele>144.0</ele><time>2026-05-02T05:59:45.445Z</time></trkpt><trkpt lat="44.13302" lon="12.0960483"><ele>143.33333333333334</ele><time>2026-05-02T05:59:46.441Z</time></trkpt><trkpt lat="44.1330717" lon="12.0961"><ele>142.66666666666669</ele><time>2026-05-02T05:59:47.44Z</time></trkpt><trkpt lat="44.1331733" lon="12.0962017"><ele>142.0</ele><time>2026-05-02T05:59:49.443Z</time></trkpt><trkpt lat="44.1332267" lon="12.0962567"><ele>141.66666666666669</ele><time>2026-05-02T05:59:50.441Z</time></trkpt><trkpt lat="44.1332817" lon="12.0963117"><ele>141.33333333333334</ele><time>2026-05-02T05:59:51.44Z</time></trkpt><trkpt lat="44.1333383" lon="12.096365"><ele>141.0</ele><time>2026-05-02T05:59:52.44Z</time></trkpt><trkpt lat="44.1334383" lon="12.0964633"><ele>140.66666666666666</ele><time>2026-05-02T05:59:54.44Z</time></trkpt><trkpt lat="44.1334917" lon="12.0965117"><ele>140.33333333333331</ele><time>2026-05-02T05:59:55.443Z</time></trkpt><trkpt lat="44.13359" lon="12.096605"><ele>140.0</ele><time>2026-05-02T05:59:57.441Z</time></trkpt><trkpt lat="44.1336867" lon="12.0966917"><ele>140.0</ele><time>2026-05-02T05:59:59.439Z</time></trkpt><trkpt lat="44.1337833" lon="12.0967633"><ele>140.0</ele><time>2026-05-02T06:00:01.441Z</time></trkpt><trkpt lat="44.1338933" lon="12.0968333"><ele>140.0</ele><time>2026-05-02T06:00:03.441Z</time></trkpt><trkpt lat="44.1339567" lon="12.09687"><ele>140.0</ele><time>2026-05-02T06:00:04.441Z</time></trkpt><trkpt lat="44.1340217" lon="12.0969067"><ele>140.0</ele><time>2026-05-02T06:00:05.442Z</time></trkpt><trkpt lat="44.1340883" lon="12.0969433"><ele>140.0</ele><time>2026-05-02T06:00:06.44Z</time></trkpt><trkpt lat="44.1341583" lon="12.0969783"><ele>139.83333333333331</ele><time>2026-05-02T06:00:07.441Z</time></trkpt><trkpt lat="44.1342333" lon="12.0970083"><ele>139.66666666666666</ele><time>2026-05-02T06:00:08.441Z</time></trkpt><trkpt lat="44.1343133" lon="12.0970367"><ele>139.5</ele><time>2026-05-02T06:00:09.44Z</time></trkpt><trkpt lat="44.1343967" lon="12.0970633"><ele>139.33333333333334</ele><time>2026-05-02T06:00:10.44Z</time></trkpt><trkpt lat="44.1344817" lon="12.09709"><ele>139.16666666666669</ele><time>2026-05-02T06:00:11.441Z</time></trkpt><trkpt lat="44.1345683" lon="12.097105"><ele>139.0</ele><time>2026-05-02T06:00:12.441Z</time></trkpt><trkpt lat="44.1346467" lon="12.0971083"><ele>139.0</ele><time>2026-05-02T06:00:13.441Z</time></trkpt><trkpt lat="44.1347133" lon="12.0971"><ele>139.0</ele><time>2026-05-02T06:00:14.441Z</time></trkpt><trkpt lat="44.134815" lon="12.097065"><ele>139.0</ele><time>2026-05-02T06:00:16.441Z</time></trkpt><trkpt lat="44.1349067" lon="12.0970117"><ele>139.0</ele><time>2026-05-02T06:00:18.44Z</time></trkpt><trkpt lat="44.1349683" lon="12.09698"><ele>139.0</ele><time>2026-05-02T06:00:19.44Z</time></trkpt><trkpt lat="44.1350367" lon="12.09695"><ele>139.0</ele><time>2026-05-02T06:00:20.44Z</time></trkpt><trkpt lat="44.1351133" lon="12.0969217"><ele>137.6</ele><time>2026-05-02T06:00:21.44Z</time></trkpt><trkpt lat="44.135195" lon="12.0968883"><ele>136.2</ele><time>2026-05-02T06:00:22.438Z</time></trkpt><trkpt lat="44.13528" lon="12.0968533"><ele>134.79999999999998</ele><time>2026-05-02T06:00:23.439Z</time></trkpt><trkpt lat="44.1353667" lon="12.0968183"><ele>133.4</ele><time>2026-05-02T06:00:24.44Z</time></trkpt><trkpt lat="44.1354583" lon="12.0967767"><ele>132.0</ele><time>2026-05-02T06:00:25.443Z</time></trkpt><trkpt lat="44.13555" lon="12.0967367"><ele>132.0</ele><time>2026-05-02T06:00:26.443Z</time></trkpt><trkpt lat="44.1356433" lon="12.0966983"><ele>132.0</ele><time>2026-05-02T06:00:27.44Z</time></trkpt><trkpt lat="44.1357283" lon="12.09666"><ele>132.0</ele><time>2026-05-02T06:00:28.443Z</time></trkpt><trkpt lat="44.1358117" lon="12.0966233"><ele>132.0</ele><time>2026-05-02T06:00:29.439Z</time></trkpt><trkpt lat="44.1358933" lon="12.0965867"><ele>132.0</ele><time>2026-05-02T06:00:30.439Z</time></trkpt><trkpt lat="44.1359783" lon="12.096555"><ele>132.0</ele><time>2026-05-02T06:00:31.441Z</time></trkpt><trkpt lat="44.1360617" lon="12.096525"><ele>129.66666666666666</ele><time>2026-05-02T06:00:32.44Z</time></trkpt><trkpt lat="44.1361433" lon="12.0964967"><ele>127.33333333333334</ele><time>2026-05-02T06:00:33.44Z</time></trkpt><trkpt lat="44.13622" lon="12.0964667"><ele>125.0</ele><time>2026-05-02T06:00:34.441Z</time></trkpt><trkpt lat="44.1363033" lon="12.0964483"><ele>122.66666666666667</ele><time>2026-05-02T06:00:35.44Z</time></trkpt><trkpt lat="44.13639" lon="12.096435"><ele>120.33333333333334</ele><time>2026-05-02T06:00:36.439Z</time></trkpt><trkpt lat="44.1364817" lon="12.0964217"><ele>118.0</ele><time>2026-05-02T06:00:37.442Z</time></trkpt><trkpt lat="44.136575" lon="12.0964067"><ele>116.0</ele><time>2026-05-02T06:00:38.439Z</time></trkpt><trkpt lat="44.13667" lon="12.0963967"><ele>114.00000000000001</ele><time>2026-05-02T06:00:39.443Z</time></trkpt><trkpt lat="44.13677" lon="12.0963867"><ele>112.00000000000001</ele><time>2026-05-02T06:00:40.44Z</time></trkpt><trkpt lat="44.13687" lon="12.0963767"><ele>110.0</ele><time>2026-05-02T06:00:41.441Z</time></trkpt><trkpt lat="44.1369733" lon="12.0963717"><ele>108.0</ele><time>2026-05-02T06:00:42.443Z</time></trkpt><trkpt lat="44.1370767" lon="12.0963683"><ele>108.0</ele><time>2026-05-02T06:00:43.442Z</time></trkpt><trkpt lat="44.1371817" lon="12.09636"><ele>108.00000000000001</ele><time>2026-05-02T06:00:44.442Z</time></trkpt><trkpt lat="44.137285" lon="12.09635"><ele>108.00000000000001</ele><time>2026-05-02T06:00:45.442Z</time></trkpt><trkpt lat="44.1373833" lon="12.0963267"><ele>108.0</ele><time>2026-05-02T06:00:46.44Z</time></trkpt><trkpt lat="44.13748" lon="12.0962983"><ele>108.0</ele><time>2026-05-02T06:00:47.442Z</time></trkpt><trkpt lat="44.1375733" lon="12.096255"><ele>106.5</ele><time>2026-05-02T06:00:48.44Z</time></trkpt><trkpt lat="44.137665" lon="12.09622"><ele>105.0</ele><time>2026-05-02T06:00:49.441Z</time></trkpt><trkpt lat="44.13775" lon="12.0961783"><ele>103.5</ele><time>2026-05-02T06:00:50.441Z</time></trkpt><trkpt lat="44.137825" lon="12.0961333"><ele>102.0</ele><time>2026-05-02T06:00:51.441Z</time></trkpt><trkpt lat="44.1378933" lon="12.0960767"><ele>100.5</ele><time>2026-05-02T06:00:52.439Z</time></trkpt><trkpt lat="44.1379583" lon="12.0960083"><ele>99.0</ele><time>2026-05-02T06:00:53.439Z</time></trkpt><trkpt lat="44.138025" lon="12.0959267"><ele>99.0</ele><time>2026-05-02T06:00:54.439Z</time></trkpt><trkpt lat="44.1381017" lon="12.0958517"><ele>99.0</ele><time>2026-05-02T06:00:55.442Z</time></trkpt><trkpt lat="44.1381783" lon="12.0957817"><ele>99.0</ele><time>2026-05-02T06:00:56.443Z</time></trkpt><trkpt lat="44.1382617" lon="12.09572"><ele>99.0</ele><time>2026-05-02T06:00:57.44Z</time></trkpt><trkpt lat="44.1383517" lon="12.0956717"><ele>99.0</ele><time>2026-05-02T06:00:58.443Z</time></trkpt><trkpt lat="44.1384533" lon="12.0956417"><ele>95.5</ele><time>2026-05-02T06:00:59.44Z</time></trkpt><trkpt lat="44.1385617" lon="12.0956233"><ele>92.0</ele><time>2026-05-02T06:01:00.44Z</time></trkpt><trkpt lat="44.13868" lon="12.09562"><ele>88.5</ele><time>2026-05-02T06:01:01.441Z</time></trkpt><trkpt lat="44.138805" lon="12.0956217"><ele>85.0</ele><time>2026-05-02T06:01:02.441Z</time></trkpt><trkpt lat="44.1389317" lon="12.0956283"><ele>83.5</ele><time>2026-05-02T06:01:03.441Z</time></trkpt><trkpt lat="44.1390583" lon="12.0956433"><ele>82.0</ele><time>2026-05-02T06:01:04.439Z</time></trkpt><trkpt lat="44.13918" lon="12.095665"><ele>80.5</ele><time>2026-05-02T06:01:05.441Z</time></trkpt><trkpt lat="44.1393033" lon="12.0956833"><ele>79.0</ele><time>2026-05-02T06:01:06.44Z</time></trkpt><trkpt lat="44.13943" lon="12.0957067"><ele>79.0</ele><time>2026-05-02T06:01:07.44Z</time></trkpt><trkpt lat="44.1395483" lon="12.0957317"><ele>79.0</ele><time>2026-05-02T06:01:08.44Z</time></trkpt><trkpt lat="44.139665" lon="12.0957567"><ele>79.0</ele><time>2026-05-02T06:01:09.443Z</time></trkpt><trkpt lat="44.139775" lon="12.09578"><ele>79.0</ele><time>2026-05-02T06:01:10.44Z</time></trkpt><trkpt lat="44.1398767" lon="12.0958033"><ele>78.16666666666666</ele><time>2026-05-02T06:01:11.442Z</time></trkpt><trkpt lat="44.1399683" lon="12.0958233"><ele>77.33333333333333</ele><time>2026-05-02T06:01:12.439Z</time></trkpt><trkpt lat="44.1400517" lon="12.09584"><ele>76.5</ele><time>2026-05-02T06:01:13.443Z</time></trkpt><trkpt lat="44.1401317" lon="12.0958633"><ele>75.66666666666667</ele><time>2026-05-02T06:01:14.44Z</time></trkpt><trkpt lat="44.1402117" lon="12.0958817"><ele>74.83333333333334</ele><time>2026-05-02T06:01:15.442Z</time></trkpt><trkpt lat="44.140295" lon="12.0958983"><ele>74.0</ele><time>2026-05-02T06:01:16.443Z</time></trkpt><trkpt lat="44.1403733" lon="12.0959083"><ele>74.0</ele><time>2026-05-02T06:01:17.44Z</time></trkpt><trkpt lat="44.140445" lon="12.0959083"><ele>74.0</ele><time>2026-05-02T06:01:18.441Z</time></trkpt><trkpt lat="44.1405083" lon="12.09592"><ele>74.0</ele><time>2026-05-02T06:01:19.44Z</time></trkpt><trkpt lat="44.1405717" lon="12.0959233"><ele>74.0</ele><time>2026-05-02T06:01:20.439Z</time></trkpt><trkpt lat="44.1406367" lon="12.0959217"><ele>74.0</ele><time>2026-05-02T06:01:21.44Z</time></trkpt><trkpt lat="44.1407067" lon="12.095915"><ele>74.0</ele><time>2026-05-02T06:01:22.44Z</time></trkpt><trkpt lat="44.14078" lon="12.09591"><ele>74.0</ele><time>2026-05-02T06:01:23.439Z</time></trkpt><trkpt lat="44.1408533" lon="12.095915"><ele>73.16666666666667</ele><time>2026-05-02T06:01:24.44Z</time></trkpt><trkpt lat="44.14093" lon="12.0959183"><ele>72.33333333333334</ele><time>2026-05-02T06:01:25.439Z</time></trkpt><trkpt lat="44.1410033" lon="12.0959233"><ele>71.5</ele><time>2026-05-02T06:01:26.439Z</time></trkpt><trkpt lat="44.1410867" lon="12.0959283"><ele>70.66666666666667</ele><time>2026-05-02T06:01:27.439Z</time></trkpt><trkpt lat="44.1411733" lon="12.0959383"><ele>69.83333333333333</ele><time>2026-05-02T06:01:28.44Z</time></trkpt><trkpt lat="44.1412583" lon="12.0959567"><ele>69.0</ele><time>2026-05-02T06:01:29.439Z</time></trkpt><trkpt lat="44.1413367" lon="12.09598"><ele>69.0</ele><time>2026-05-02T06:01:30.44Z</time></trkpt><trkpt lat="44.14141" lon="12.096005"><ele>69.0</ele><time>2026-05-02T06:01:31.44Z</time></trkpt><trkpt lat="44.1414767" lon="12.0960033"><ele>69.0</ele><time>2026-05-02T06:01:32.44Z</time></trkpt><trkpt lat="44.1415617" lon="12.0959683"><ele>69.0</ele><time>2026-05-02T06:01:34.442Z</time></trkpt><trkpt lat="44.14163" lon="12.0960483"><ele>69.0</ele><time>2026-05-02T06:01:37.439Z</time></trkpt><trkpt lat="44.141625" lon="12.09617"><ele>69.0</ele><time>2026-05-02T06:01:40.44Z</time></trkpt><trkpt lat="44.1416467" lon="12.0960633"><ele>67.5</ele><time>2026-05-02T06:01:48.443Z</time></trkpt><trkpt lat="44.1416833" lon="12.095925"><ele>66.0</ele><time>2026-05-02T06:01:50.439Z</time></trkpt><trkpt lat="44.1417633" lon="12.0958433"><ele>64.5</ele><time>2026-05-02T06:01:52.44Z</time></trkpt><trkpt lat="44.1418267" lon="12.0958117"><ele>63.0</ele><time>2026-05-02T06:01:53.442Z</time></trkpt><trkpt lat="44.1418883" lon="12.0957783"><ele>61.5</ele><time>2026-05-02T06:01:54.44Z</time></trkpt><trkpt lat="44.14198" lon="12.09575"><ele>60.0</ele><time>2026-05-02T06:01:56.442Z</time></trkpt><trkpt lat="44.1420583" lon="12.0958017"><ele>60.0</ele><time>2026-05-02T06:01:58.439Z</time></trkpt><trkpt lat="44.1421283" lon="12.095905"><ele>60.0</ele><time>2026-05-02T06:02:00.443Z</time></trkpt><trkpt lat="44.1421933" lon="12.0960183"><ele>60.0</ele><time>2026-05-02T06:02:02.439Z</time></trkpt><trkpt lat="44.1422433" lon="12.0961483"><ele>60.0</ele><time>2026-05-02T06:02:04.44Z</time></trkpt><trkpt lat="44.1423167" lon="12.09628"><ele>60.0</ele><time>2026-05-02T06:02:06.443Z</time></trkpt><trkpt lat="44.14239" lon="12.09642"><ele>59.5</ele><time>2026-05-02T06:02:08.44Z</time></trkpt><trkpt lat="44.1424217" lon="12.0964967"><ele>59.0</ele><time>2026-05-02T06:02:09.441Z</time></trkpt><trkpt lat="44.1424817" lon="12.0966517"><ele>58.5</ele><time>2026-05-02T06:02:11.44Z</time></trkpt><trkpt lat="44.1425417" lon="12.09681"><ele>58.0</ele><time>2026-05-02T06:02:13.44Z</time></trkpt><trkpt lat="44.1425733" lon="12.0968917"><ele>57.5</ele><time>2026-05-02T06:02:14.44Z</time></trkpt><trkpt lat="44.1426017" lon="12.0969717"><ele>57.0</ele><time>2026-05-02T06:02:15.44Z</time></trkpt><trkpt lat="44.1426283" lon="12.0970533"><ele>57.2</ele><time>2026-05-02T06:02:16.442Z</time></trkpt><trkpt lat="44.1426583" lon="12.0971333"><ele>57.400000000000006</ele><time>2026-05-02T06:02:17.442Z</time></trkpt><trkpt lat="44.142685" lon="12.097215"><ele>57.599999999999994</ele><time>2026-05-02T06:02:18.44Z</time></trkpt><trkpt lat="44.14274" lon="12.09737"><ele>57.8</ele><time>2026-05-02T06:02:20.443Z</time></trkpt><trkpt lat="44.1428067" lon="12.09751"><ele>58.0</ele><time>2026-05-02T06:02:22.444Z</time></trkpt><trkpt lat="44.1428767" lon="12.09765"><ele>58.00000000000001</ele><time>2026-05-02T06:02:24.442Z</time></trkpt><trkpt lat="44.1429567" lon="12.0977817"><ele>58.0</ele><time>2026-05-02T06:02:26.439Z</time></trkpt><trkpt lat="44.1429967" lon="12.09785"><ele>58.00000000000001</ele><time>2026-05-02T06:02:27.442Z</time></trkpt><trkpt lat="44.1430333" lon="12.0979217"><ele>58.00000000000001</ele><time>2026-05-02T06:02:28.443Z</time></trkpt><trkpt lat="44.14307" lon="12.0979967"><ele>58.0</ele><time>2026-05-02T06:02:29.442Z</time></trkpt><trkpt lat="44.14311" lon="12.09807"><ele>58.00000000000001</ele><time>2026-05-02T06:02:30.441Z</time></trkpt><trkpt lat="44.1431483" lon="12.0981417"><ele>58.00000000000001</ele><time>2026-05-02T06:02:31.445Z</time></trkpt><trkpt lat="44.1431883" lon="12.098215"><ele>56.99999999999999</ele><time>2026-05-02T06:02:32.439Z</time></trkpt><trkpt lat="44.1432567" lon="12.098365"><ele>56.0</ele><time>2026-05-02T06:02:34.442Z</time></trkpt><trkpt lat="44.143295" lon="12.0984417"><ele>55.0</ele><time>2026-05-02T06:02:35.443Z</time></trkpt><trkpt lat="44.1433333" lon="12.0985133"><ele>54.0</ele><time>2026-05-02T06:02:36.442Z</time></trkpt><trkpt lat="44.143375" lon="12.0985917"><ele>52.99999999999999</ele><time>2026-05-02T06:02:37.441Z</time></trkpt><trkpt lat="44.1434133" lon="12.0986667"><ele>52.0</ele><time>2026-05-02T06:02:38.44Z</time></trkpt><trkpt lat="44.1434533" lon="12.0987433"><ele>51.99999999999999</ele><time>2026-05-02T06:02:39.443Z</time></trkpt><trkpt lat="44.143495" lon="12.0988167"><ele>52.0</ele><time>2026-05-02T06:02:40.443Z</time></trkpt><trkpt lat="44.1435367" lon="12.0988933"><ele>52.0</ele><time>2026-05-02T06:02:41.442Z</time></trkpt><trkpt lat="44.1435867" lon="12.0989717"><ele>52.0</ele><time>2026-05-02T06:02:42.442Z</time></trkpt><trkpt lat="44.1436367" lon="12.0990567"><ele>51.99999999999999</ele><time>2026-05-02T06:02:43.443Z</time></trkpt><trkpt lat="44.1436883" lon="12.099145"><ele>52.0</ele><time>2026-05-02T06:02:44.443Z</time></trkpt><trkpt lat="44.14374" lon="12.09924"><ele>51.666666666666664</ele><time>2026-05-02T06:02:45.442Z</time></trkpt><trkpt lat="44.1437917" lon="12.0993333"><ele>51.33333333333333</ele><time>2026-05-02T06:02:46.441Z</time></trkpt><trkpt lat="44.1438333" lon="12.0994383"><ele>51.0</ele><time>2026-05-02T06:02:47.443Z</time></trkpt><trkpt lat="44.1438767" lon="12.0995417"><ele>50.66666666666667</ele><time>2026-05-02T06:02:48.442Z</time></trkpt><trkpt lat="44.143915" lon="12.0996433"><ele>50.333333333333336</ele><time>2026-05-02T06:02:49.442Z</time></trkpt><trkpt lat="44.1439467" lon="12.0997467"><ele>50.0</ele><time>2026-05-02T06:02:50.44Z</time></trkpt><trkpt lat="44.1439733" lon="12.0998483"><ele>49.57142857142858</ele><time>2026-05-02T06:02:51.443Z</time></trkpt><trkpt lat="44.1439967" lon="12.09995"><ele>49.142857142857146</ele><time>2026-05-02T06:02:52.443Z</time></trkpt><trkpt lat="44.144005" lon="12.1000533"><ele>48.714285714285715</ele><time>2026-05-02T06:02:53.442Z</time></trkpt><trkpt lat="44.1440033" lon="12.1001567"><ele>48.28571428571429</ele><time>2026-05-02T06:02:54.442Z</time></trkpt><trkpt lat="44.1439983" lon="12.1002517"><ele>47.857142857142854</ele><time>2026-05-02T06:02:55.442Z</time></trkpt><trkpt lat="44.1439933" lon="12.100345"><ele>47.42857142857143</ele><time>2026-05-02T06:02:56.442Z</time></trkpt><trkpt lat="44.1439833" lon="12.100435"><ele>47.0</ele><time>2026-05-02T06:02:57.441Z</time></trkpt><trkpt lat="44.14397" lon="12.1005233"><ele>47.0</ele><time>2026-05-02T06:02:58.442Z</time></trkpt><trkpt lat="44.14394" lon="12.10068"><ele>47.0</ele><time>2026-05-02T06:03:00.442Z</time></trkpt><trkpt lat="44.143915" lon="12.1008217"><ele>47.0</ele><time>2026-05-02T06:03:02.442Z</time></trkpt><trkpt lat="44.1438917" lon="12.1009567"><ele>47.0</ele><time>2026-05-02T06:03:04.442Z</time></trkpt><trkpt lat="44.14388" lon="12.1010933"><ele>47.0</ele><time>2026-05-02T06:03:06.442Z</time></trkpt><trkpt lat="44.143865" lon="12.1012217"><ele>47.166666666666664</ele><time>2026-05-02T06:03:08.439Z</time></trkpt><trkpt lat="44.1438483" lon="12.1013533"><ele>47.33333333333333</ele><time>2026-05-02T06:03:10.442Z</time></trkpt><trkpt lat="44.143825" lon="12.1014683"><ele>47.5</ele><time>2026-05-02T06:03:12.441Z</time></trkpt><trkpt lat="44.1438067" lon="12.10157"><ele>47.666666666666664</ele><time>2026-05-02T06:03:14.441Z</time></trkpt><trkpt lat="44.143735" lon="12.1016467"><ele>47.833333333333336</ele><time>2026-05-02T06:03:17.442Z</time></trkpt><trkpt lat="44.1436683" lon="12.1016533"><ele>48.0</ele><time>2026-05-02T06:03:19.441Z</time></trkpt><trkpt lat="44.1435833" lon="12.101605"><ele>48.0</ele><time>2026-05-02T06:03:22.439Z</time></trkpt><trkpt lat="44.1435017" lon="12.101575"><ele>48.0</ele><time>2026-05-02T06:03:25.44Z</time></trkpt><trkpt lat="44.1435067" lon="12.1016883"><ele>48.0</ele><time>2026-05-02T06:03:39.44Z</time></trkpt><trkpt lat="44.1435167" lon="12.101785"><ele>48.0</ele><time>2026-05-02T06:03:42.443Z</time></trkpt><trkpt lat="44.143545" lon="12.1018917"><ele>48.0</ele><time>2026-05-02T06:03:46.439Z</time></trkpt><trkpt lat="44.1435667" lon="12.102"><ele>48.0</ele><time>2026-05-02T06:03:50.439Z</time></trkpt><trkpt lat="44.1435817" lon="12.1020867"><ele>48.57142857142857</ele><time>2026-05-02T06:03:53.44Z</time></trkpt><trkpt lat="44.1436033" lon="12.1021717"><ele>49.14285714285714</ele><time>2026-05-02T06:03:56.439Z</time></trkpt><trkpt lat="44.1436383" lon="12.10228"><ele>49.71428571428571</ele><time>2026-05-02T06:04:00.443Z</time></trkpt><trkpt lat="44.1436617" lon="12.1023883"><ele>50.285714285714285</ele><time>2026-05-02T06:04:04.442Z</time></trkpt><trkpt lat="44.14368" lon="12.1024783"><ele>50.85714285714286</ele><time>2026-05-02T06:04:07.443Z</time></trkpt><trkpt lat="44.1437067" lon="12.1025667"><ele>51.42857142857142</ele><time>2026-05-02T06:04:10.44Z</time></trkpt><trkpt lat="44.1437283" lon="12.1026567"><ele>52.0</ele><time>2026-05-02T06:04:13.44Z</time></trkpt><trkpt lat="44.143755" lon="12.10274"><ele>52.57142857142857</ele><time>2026-05-02T06:04:16.439Z</time></trkpt><trkpt lat="44.1437683" lon="12.10283"><ele>53.142857142857146</ele><time>2026-05-02T06:04:19.44Z</time></trkpt><trkpt lat="44.1437967" lon="12.102915"><ele>53.714285714285715</ele><time>2026-05-02T06:04:22.441Z</time></trkpt><trkpt lat="44.1438167" lon="12.10301"><ele>54.285714285714285</ele><time>2026-05-02T06:04:26.441Z</time></trkpt><trkpt lat="44.14383" lon="12.1031167"><ele>54.85714285714286</ele><time>2026-05-02T06:04:31.443Z</time></trkpt><trkpt lat="44.14385" lon="12.1032133"><ele>55.42857142857143</ele><time>2026-05-02T06:04:36.442Z</time></trkpt><trkpt lat="44.143885" lon="12.10331"><ele>56.0</ele><time>2026-05-02T06:04:40.443Z</time></trkpt><trkpt lat="44.1439067" lon="12.1033933"><ele>56.57142857142857</ele><time>2026-05-02T06:04:43.439Z</time></trkpt><trkpt lat="44.1439333" lon="12.103475"><ele>57.14285714285714</ele><time>2026-05-02T06:04:46.443Z</time></trkpt><trkpt lat="44.1439617" lon="12.1035683"><ele>57.714285714285715</ele><time>2026-05-02T06:04:50.44Z</time></trkpt><trkpt lat="44.1439883" lon="12.10365"><ele>58.285714285714285</ele><time>2026-05-02T06:04:54.439Z</time></trkpt><trkpt lat="44.1439983" lon="12.1037583"><ele>58.857142857142854</ele><time>2026-05-02T06:04:59.44Z</time></trkpt><trkpt lat="44.14403" lon="12.103835"><ele>59.42857142857143</ele><time>2026-05-02T06:05:03.44Z</time></trkpt><trkpt lat="44.1440733" lon="12.1039067"><ele>60.0</ele><time>2026-05-02T06:05:07.443Z</time></trkpt><trkpt lat="44.144115" lon="12.1039783"><ele>61.166666666666664</ele><time>2026-05-02T06:05:11.442Z</time></trkpt><trkpt lat="44.1441317" lon="12.1040833"><ele>62.33333333333333</ele><time>2026-05-02T06:05:16.443Z</time></trkpt><trkpt lat="44.144155" lon="12.104185"><ele>63.5</ele><time>2026-05-02T06:05:21.44Z</time></trkpt><trkpt lat="44.1441917" lon="12.1042633"><ele>64.66666666666666</ele><time>2026-05-02T06:05:25.442Z</time></trkpt><trkpt lat="44.1442333" lon="12.1043617"><ele>65.83333333333333</ele><time>2026-05-02T06:05:30.446Z</time></trkpt><trkpt lat="44.1442633" lon="12.1044617"><ele>67.0</ele><time>2026-05-02T06:05:35.439Z</time></trkpt><trkpt lat="44.1443033" lon="12.1045467"><ele>67.0</ele><time>2026-05-02T06:05:40.439Z</time></trkpt><trkpt lat="44.1443033" lon="12.1046367"><ele>67.0</ele><time>2026-05-02T06:05:45.443Z</time></trkpt><trkpt lat="44.1443467" lon="12.1047133"><ele>67.0</ele><time>2026-05-02T06:05:50.44Z</time></trkpt><trkpt lat="44.1443833" lon="12.1048"><ele>67.0</ele><time>2026-05-02T06:05:55.442Z</time></trkpt><trkpt lat="44.1444083" lon="12.1049"><ele>67.0</ele><time>2026-05-02T06:06:00.443Z</time></trkpt><trkpt lat="44.1444317" lon="12.1049817"><ele>67.0</ele><time>2026-05-02T06:06:04.443Z</time></trkpt><trkpt lat="44.1444717" lon="12.10506"><ele>67.0</ele><time>2026-05-02T06:06:08.441Z</time></trkpt><trkpt lat="44.14451" lon="12.1051383"><ele>68.57142857142857</ele><time>2026-05-02T06:06:12.443Z</time></trkpt><trkpt lat="44.1445367" lon="12.1052267"><ele>70.14285714285714</ele><time>2026-05-02T06:06:17.443Z</time></trkpt><trkpt lat="44.144575" lon="12.1053133"><ele>71.71428571428572</ele><time>2026-05-02T06:06:22.443Z</time></trkpt><trkpt lat="44.14462" lon="12.105385"><ele>73.28571428571428</ele><time>2026-05-02T06:06:27.443Z</time></trkpt><trkpt lat="44.1446817" lon="12.1054333"><ele>74.85714285714285</ele><time>2026-05-02T06:06:32.442Z</time></trkpt><trkpt lat="44.1447317" lon="12.1054967"><ele>76.42857142857143</ele><time>2026-05-02T06:06:37.438Z</time></trkpt><trkpt lat="44.1447883" lon="12.1055633"><ele>78.0</ele><time>2026-05-02T06:06:41.441Z</time></trkpt><trkpt lat="44.1448433" lon="12.10562"><ele>78.16666666666667</ele><time>2026-05-02T06:06:45.442Z</time></trkpt><trkpt lat="44.144895" lon="12.1056883"><ele>78.33333333333333</ele><time>2026-05-02T06:06:49.443Z</time></trkpt><trkpt lat="44.1449483" lon="12.1057433"><ele>78.5</ele><time>2026-05-02T06:06:52.44Z</time></trkpt><trkpt lat="44.1450133" lon="12.105805"><ele>78.66666666666666</ele><time>2026-05-02T06:06:55.441Z</time></trkpt><trkpt lat="44.1450733" lon="12.105865"><ele>78.83333333333333</ele><time>2026-05-02T06:06:58.439Z</time></trkpt><trkpt lat="44.1451517" lon="12.1059367"><ele>79.0</ele><time>2026-05-02T06:07:01.441Z</time></trkpt><trkpt lat="44.145225" lon="12.106005"><ele>79.0</ele><time>2026-05-02T06:07:03.443Z</time></trkpt><trkpt lat="44.1452933" lon="12.10608"><ele>79.0</ele><time>2026-05-02T06:07:05.442Z</time></trkpt><trkpt lat="44.145365" lon="12.106165"><ele>79.0</ele><time>2026-05-02T06:07:07.443Z</time></trkpt><trkpt lat="44.1454333" lon="12.1062567"><ele>79.0</ele><time>2026-05-02T06:07:09.443Z</time></trkpt><trkpt lat="44.145505" lon="12.1063517"><ele>79.0</ele><time>2026-05-02T06:07:11.439Z</time></trkpt><trkpt lat="44.1455817" lon="12.106425"><ele>79.0</ele><time>2026-05-02T06:07:13.442Z</time></trkpt><trkpt lat="44.14566" lon="12.1064933"><ele>79.0</ele><time>2026-05-02T06:07:15.441Z</time></trkpt><trkpt lat="44.1457433" lon="12.1065333"><ele>79.0</ele><time>2026-05-02T06:07:17.441Z</time></trkpt><trkpt lat="44.145825" lon="12.1065367"><ele>79.0</ele><time>2026-05-02T06:07:19.443Z</time></trkpt><trkpt lat="44.14589" lon="12.1065483"><ele>79.0</ele><time>2026-05-02T06:07:21.442Z</time></trkpt><trkpt lat="44.1459617" lon="12.1065683"><ele>79.0</ele><time>2026-05-02T06:07:23.44Z</time></trkpt><trkpt lat="44.1460317" lon="12.106585"><ele>79.16666666666666</ele><time>2026-05-02T06:07:26.442Z</time></trkpt><trkpt lat="44.1461117" lon="12.106595"><ele>79.33333333333333</ele><time>2026-05-02T06:07:30.442Z</time></trkpt><trkpt lat="44.1461833" lon="12.10663"><ele>79.5</ele><time>2026-05-02T06:07:34.443Z</time></trkpt><trkpt lat="44.1462583" lon="12.1066683"><ele>79.66666666666667</ele><time>2026-05-02T06:07:39.443Z</time></trkpt><trkpt lat="44.1463283" lon="12.1067083"><ele>79.83333333333334</ele><time>2026-05-02T06:07:43.44Z</time></trkpt><trkpt lat="44.1463967" lon="12.106765"><ele>80.0</ele><time>2026-05-02T06:07:47.443Z</time></trkpt><trkpt lat="44.1464633" lon="12.10682"><ele>80.0</ele><time>2026-05-02T06:07:51.443Z</time></trkpt><trkpt lat="44.1465317" lon="12.10687"><ele>80.0</ele><time>2026-05-02T06:07:55.441Z</time></trkpt><trkpt lat="44.1465833" lon="12.1069467"><ele>80.0</ele><time>2026-05-02T06:08:00.442Z</time></trkpt><trkpt lat="44.1466317" lon="12.107015"><ele>80.0</ele><time>2026-05-02T06:08:04.443Z</time></trkpt><trkpt lat="44.1466783" lon="12.1070783"><ele>80.0</ele><time>2026-05-02T06:08:08.442Z</time></trkpt><trkpt lat="44.1467417" lon="12.1071367"><ele>80.0</ele><time>2026-05-02T06:08:13.442Z</time></trkpt><trkpt lat="44.1467933" lon="12.1072"><ele>80.0</ele><time>2026-05-02T06:08:19.439Z</time></trkpt><trkpt lat="44.1468433" lon="12.10727"><ele>80.0</ele><time>2026-05-02T06:08:24.443Z</time></trkpt><trkpt lat="44.1468983" lon="12.1073283"><ele>80.0</ele><time>2026-05-02T06:08:29.442Z</time></trkpt><trkpt lat="44.1469567" lon="12.1073817"><ele>80.0</ele><time>2026-05-02T06:08:34.443Z</time></trkpt><trkpt lat="44.1470083" lon="12.1074467"><ele>80.0</ele><time>2026-05-02T06:08:39.442Z</time></trkpt><trkpt lat="44.1470567" lon="12.1075133"><ele>80.0</ele><time>2026-05-02T06:08:44.442Z</time></trkpt><trkpt lat="44.1470867" lon="12.1076033"><ele>80.0</ele><time>2026-05-02T06:08:50.443Z</time></trkpt><trkpt lat="44.1471367" lon="12.1076583"><ele>80.0</ele><time>2026-05-02T06:08:55.443Z</time></trkpt><trkpt lat="44.147195" lon="12.1077217"><ele>80.28571428571428</ele><time>2026-05-02T06:09:01.445Z</time></trkpt><trkpt lat="44.1472367" lon="12.1078033"><ele>80.57142857142857</ele><time>2026-05-02T06:09:06.442Z</time></trkpt><trkpt lat="44.1472783" lon="12.10787"><ele>80.85714285714286</ele><time>2026-05-02T06:09:10.442Z</time></trkpt><trkpt lat="44.1473067" lon="12.10796"><ele>81.14285714285714</ele><time>2026-05-02T06:09:14.442Z</time></trkpt><trkpt lat="44.1473533" lon="12.108055"><ele>81.42857142857143</ele><time>2026-05-02T06:09:18.442Z</time></trkpt><trkpt lat="44.147395" lon="12.108135"><ele>81.71428571428571</ele><time>2026-05-02T06:09:21.443Z</time></trkpt><trkpt lat="44.1474417" lon="12.10822"><ele>82.0</ele><time>2026-05-02T06:09:24.443Z</time></trkpt><trkpt lat="44.14749" lon="12.1083267"><ele>82.85714285714285</ele><time>2026-05-02T06:09:27.443Z</time></trkpt><trkpt lat="44.1475267" lon="12.1083983"><ele>83.71428571428571</ele><time>2026-05-02T06:09:29.443Z</time></trkpt><trkpt lat="44.1475617" lon="12.108475"><ele>84.57142857142857</ele><time>2026-05-02T06:09:31.442Z</time></trkpt><trkpt lat="44.1475883" lon="12.1085617"><ele>85.42857142857142</ele><time>2026-05-02T06:09:33.443Z</time></trkpt><trkpt lat="44.1476183" lon="12.1086783"><ele>86.28571428571428</ele><time>2026-05-02T06:09:36.442Z</time></trkpt><trkpt lat="44.1476183" lon="12.10879"><ele>87.14285714285714</ele><time>2026-05-02T06:09:39.441Z</time></trkpt><trkpt lat="44.14758" lon="12.10887"><ele>88.0</ele><time>2026-05-02T06:09:44.443Z</time></trkpt><trkpt lat="44.1475233" lon="12.1089283"><ele>88.0</ele><time>2026-05-02T06:09:49.441Z</time></trkpt><trkpt lat="44.14746" lon="12.1089517"><ele>88.0</ele><time>2026-05-02T06:09:56.443Z</time></trkpt><trkpt lat="44.147395" lon="12.10899"><ele>88.0</ele><time>2026-05-02T06:10:00.443Z</time></trkpt><trkpt lat="44.147475" lon="12.1089483"><ele>88.0</ele><time>2026-05-02T06:10:19.441Z</time></trkpt><trkpt lat="44.1475333" lon="12.108895"><ele>88.0</ele><time>2026-05-02T06:10:21.441Z</time></trkpt><trkpt lat="44.1475833" lon="12.108825"><ele>88.0</ele><time>2026-05-02T06:10:23.441Z</time></trkpt><trkpt lat="44.1476633" lon="12.1088383"><ele>88.0</ele><time>2026-05-02T06:10:27.443Z</time></trkpt><trkpt lat="44.1476833" lon="12.1089317"><ele>88.0</ele><time>2026-05-02T06:10:29.443Z</time></trkpt><trkpt lat="44.1476983" lon="12.1090317"><ele>88.0</ele><time>2026-05-02T06:10:31.443Z</time></trkpt><trkpt lat="44.1477217" lon="12.109125"><ele>88.0</ele><time>2026-05-02T06:10:33.442Z</time></trkpt><trkpt lat="44.1477467" lon="12.10922"><ele>88.0</ele><time>2026-05-02T06:10:35.443Z</time></trkpt><trkpt lat="44.14777" lon="12.109315"><ele>88.0</ele><time>2026-05-02T06:10:37.443Z</time></trkpt><trkpt lat="44.1478033" lon="12.1094083"><ele>88.0</ele><time>2026-05-02T06:10:39.443Z</time></trkpt><trkpt lat="44.14785" lon="12.1094767"><ele>88.0</ele><time>2026-05-02T06:10:41.442Z</time></trkpt><trkpt lat="44.14791" lon="12.1095433"><ele>88.85714285714286</ele><time>2026-05-02T06:10:44.442Z</time></trkpt><trkpt lat="44.1479533" lon="12.109615"><ele>89.71428571428571</ele><time>2026-05-02T06:10:48.44Z</time></trkpt><trkpt lat="44.1480083" lon="12.1096833"><ele>90.57142857142857</ele><time>2026-05-02T06:10:53.44Z</time></trkpt><trkpt lat="44.1480717" lon="12.1097433"><ele>91.42857142857143</ele><time>2026-05-02T06:10:58.443Z</time></trkpt><trkpt lat="44.1481283" lon="12.1098017"><ele>92.28571428571428</ele><time>2026-05-02T06:11:04.442Z</time></trkpt><trkpt lat="44.1481767" lon="12.1098583"><ele>93.14285714285714</ele><time>2026-05-02T06:11:09.442Z</time></trkpt><trkpt lat="44.1482217" lon="12.109925"><ele>94.0</ele><time>2026-05-02T06:11:14.44Z</time></trkpt><trkpt lat="44.1482733" lon="12.1099833"><ele>94.71428571428571</ele><time>2026-05-02T06:11:19.439Z</time></trkpt><trkpt lat="44.1483317" lon="12.1100433"><ele>95.42857142857142</ele><time>2026-05-02T06:11:24.44Z</time></trkpt><trkpt lat="44.1483883" lon="12.110105"><ele>96.14285714285714</ele><time>2026-05-02T06:11:29.443Z</time></trkpt><trkpt lat="44.14845" lon="12.1101617"><ele>96.85714285714286</ele><time>2026-05-02T06:11:35.447Z</time></trkpt><trkpt lat="44.1485017" lon="12.1102183"><ele>97.57142857142857</ele><time>2026-05-02T06:11:40.442Z</time></trkpt><trkpt lat="44.1485567" lon="12.110285"><ele>98.28571428571429</ele><time>2026-05-02T06:11:51.44Z</time></trkpt><trkpt lat="44.148605" lon="12.1103517"><ele>99.0</ele><time>2026-05-02T06:11:58.439Z</time></trkpt><trkpt lat="44.1486917" lon="12.1104383"><ele>99.0</ele><time>2026-05-02T06:12:11.441Z</time></trkpt><trkpt lat="44.1487467" lon="12.1105033"><ele>99.0</ele><time>2026-05-02T06:12:19.439Z</time></trkpt><trkpt lat="44.1488067" lon="12.1105733"><ele>99.0</ele><time>2026-05-02T06:13:15.442Z</time></trkpt><trkpt lat="44.1488667" lon="12.11061"><ele>99.0</ele><time>2026-05-02T06:13:21.439Z</time></trkpt><trkpt lat="44.1489283" lon="12.1106933"><ele>99.0</ele><time>2026-05-02T06:13:28.44Z</time></trkpt><trkpt lat="44.1489633" lon="12.110775"><ele>99.0</ele><time>2026-05-02T06:13:34.442Z</time></trkpt><trkpt lat="44.1490033" lon="12.1108517"><ele>99.0</ele><time>2026-05-02T06:13:54.442Z</time></trkpt><trkpt lat="44.1490467" lon="12.1109217"><ele>103.0</ele><time>2026-05-02T06:13:59.44Z</time></trkpt><trkpt lat="44.1490767" lon="12.1110033"><ele>107.0</ele><time>2026-05-02T06:14:05.443Z</time></trkpt><trkpt lat="44.1491283" lon="12.111115"><ele>111.0</ele><time>2026-05-02T06:14:17.442Z</time></trkpt><trkpt lat="44.149195" lon="12.1112317"><ele>115.0</ele><time>2026-05-02T06:14:30.439Z</time></trkpt><trkpt lat="44.1492733" lon="12.1113733"><ele>119.0</ele><time>2026-05-02T06:14:42.443Z</time></trkpt><trkpt lat="44.1493683" lon="12.111585"><ele>120.6</ele><time>2026-05-02T06:15:02.44Z</time></trkpt><trkpt lat="44.14941" lon="12.111655"><ele>122.2</ele><time>2026-05-02T06:15:10.443Z</time></trkpt><trkpt lat="44.1494633" lon="12.11182"><ele>123.79999999999998</ele><time>2026-05-02T06:15:27.44Z</time></trkpt><trkpt lat="44.1494917" lon="12.1119433"><ele>125.39999999999999</ele><time>2026-05-02T06:15:39.441Z</time></trkpt><trkpt lat="44.1495433" lon="12.112075"><ele>127.0</ele><time>2026-05-02T06:16:03.442Z</time></trkpt><trkpt lat="44.149565" lon="12.112165"><ele>127.0</ele><time>2026-05-02T06:16:23.44Z</time></trkpt><trkpt lat="44.1496317" lon="12.1124017"><ele>126.99999999999999</ele><time>2026-05-02T06:16:44.443Z</time></trkpt><trkpt lat="44.1496667" lon="12.1124933"><ele>126.99999999999999</ele><time>2026-05-02T06:16:53.441Z</time></trkpt><trkpt lat="44.1497233" lon="12.1126"><ele>127.0</ele><time>2026-05-02T06:17:05.442Z</time></trkpt><trkpt lat="44.1497483" lon="12.11269"><ele>127.0</ele><time>2026-05-02T06:17:12.44Z</time></trkpt><trkpt lat="44.14981" lon="12.1127383"><ele>129.16666666666669</ele><time>2026-05-02T06:17:22.443Z</time></trkpt><trkpt lat="44.1498517" lon="12.112815"><ele>131.33333333333334</ele><time>2026-05-02T06:17:27.441Z</time></trkpt><trkpt lat="44.1499017" lon="12.112885"><ele>133.5</ele><time>2026-05-02T06:17:32.442Z</time></trkpt><trkpt lat="44.1499467" lon="12.1129833"><ele>135.66666666666666</ele><time>2026-05-02T06:17:37.443Z</time></trkpt><trkpt lat="44.1499967" lon="12.113055"><ele>137.83333333333331</ele><time>2026-05-02T06:17:39.441Z</time></trkpt><trkpt lat="44.1500767" lon="12.113155"><ele>140.0</ele><time>2026-05-02T06:17:41.44Z</time></trkpt><trkpt lat="44.15013" lon="12.113205"><ele>140.16666666666666</ele><time>2026-05-02T06:17:42.44Z</time></trkpt><trkpt lat="44.15019" lon="12.1132617"><ele>140.33333333333331</ele><time>2026-05-02T06:17:43.44Z</time></trkpt><trkpt lat="44.150255" lon="12.1133167"><ele>140.5</ele><time>2026-05-02T06:17:44.44Z</time></trkpt><trkpt lat="44.1503233" lon="12.11337"><ele>140.66666666666666</ele><time>2026-05-02T06:17:45.44Z</time></trkpt><trkpt lat="44.15039" lon="12.1134233"><ele>140.83333333333334</ele><time>2026-05-02T06:17:46.439Z</time></trkpt><trkpt lat="44.150505" lon="12.1135383"><ele>141.0</ele><time>2026-05-02T06:17:48.44Z</time></trkpt><trkpt lat="44.150565" lon="12.11362"><ele>141.0</ele><time>2026-05-02T06:17:49.439Z</time></trkpt><trkpt lat="44.15061" lon="12.1137083"><ele>141.0</ele><time>2026-05-02T06:17:50.44Z</time></trkpt><trkpt lat="44.1506567" lon="12.1137967"><ele>141.0</ele><time>2026-05-02T06:17:51.441Z</time></trkpt><trkpt lat="44.1506967" lon="12.1138767"><ele>141.0</ele><time>2026-05-02T06:17:52.44Z</time></trkpt><trkpt lat="44.1507333" lon="12.1139567"><ele>141.0</ele><time>2026-05-02T06:17:53.44Z</time></trkpt><trkpt lat="44.1508" lon="12.11409"><ele>141.0</ele><time>2026-05-02T06:17:55.44Z</time></trkpt><trkpt lat="44.1508433" lon="12.1141983"><ele>138.0</ele><time>2026-05-02T06:17:57.44Z</time></trkpt><trkpt lat="44.1509017" lon="12.1142983"><ele>135.0</ele><time>2026-05-02T06:17:59.44Z</time></trkpt><trkpt lat="44.15098" lon="12.1144167"><ele>132.0</ele><time>2026-05-02T06:18:01.441Z</time></trkpt><trkpt lat="44.151055" lon="12.1145533"><ele>129.0</ele><time>2026-05-02T06:18:03.442Z</time></trkpt><trkpt lat="44.1510967" lon="12.1146217"><ele>126.0</ele><time>2026-05-02T06:18:04.443Z</time></trkpt><trkpt lat="44.15114" lon="12.1146933"><ele>126.0</ele><time>2026-05-02T06:18:05.442Z</time></trkpt><trkpt lat="44.1511833" lon="12.11477"><ele>126.0</ele><time>2026-05-02T06:18:06.442Z</time></trkpt><trkpt lat="44.1512267" lon="12.1148467"><ele>126.0</ele><time>2026-05-02T06:18:07.443Z</time></trkpt><trkpt lat="44.15127" lon="12.11492"><ele>126.0</ele><time>2026-05-02T06:18:08.443Z</time></trkpt><trkpt lat="44.1513367" lon="12.1150683"><ele>126.0</ele><time>2026-05-02T06:18:10.443Z</time></trkpt><trkpt lat="44.151375" lon="12.115145"><ele>126.0</ele><time>2026-05-02T06:18:11.44Z</time></trkpt><trkpt lat="44.1514133" lon="12.1152217"><ele>123.8</ele><time>2026-05-02T06:18:12.441Z</time></trkpt><trkpt lat="44.1514517" lon="12.115295"><ele>121.6</ele><time>2026-05-02T06:18:13.442Z</time></trkpt><trkpt lat="44.1514883" lon="12.11537"><ele>119.4</ele><time>2026-05-02T06:18:14.442Z</time></trkpt><trkpt lat="44.1515433" lon="12.11552"><ele>117.2</ele><time>2026-05-02T06:18:16.441Z</time></trkpt><trkpt lat="44.1515867" lon="12.1156683"><ele>115.0</ele><time>2026-05-02T06:18:18.441Z</time></trkpt><trkpt lat="44.1516167" lon="12.11582"><ele>113.2</ele><time>2026-05-02T06:18:20.441Z</time></trkpt><trkpt lat="44.1516467" lon="12.115965"><ele>111.4</ele><time>2026-05-02T06:18:22.44Z</time></trkpt><trkpt lat="44.1516633" lon="12.1161267"><ele>109.6</ele><time>2026-05-02T06:18:24.441Z</time></trkpt><trkpt lat="44.1516667" lon="12.1162783"><ele>107.8</ele><time>2026-05-02T06:18:26.441Z</time></trkpt><trkpt lat="44.1516617" lon="12.1164267"><ele>106.0</ele><time>2026-05-02T06:18:28.44Z</time></trkpt><trkpt lat="44.1516417" lon="12.1165733"><ele>104.25</ele><time>2026-05-02T06:18:30.442Z</time></trkpt><trkpt lat="44.15162" lon="12.1167233"><ele>102.5</ele><time>2026-05-02T06:18:32.443Z</time></trkpt><trkpt lat="44.1515983" lon="12.1168633"><ele>100.75</ele><time>2026-05-02T06:18:34.44Z</time></trkpt><trkpt lat="44.151565" lon="12.11702"><ele>99.0</ele><time>2026-05-02T06:18:36.44Z</time></trkpt><trkpt lat="44.15153" lon="12.117185"><ele>98.0</ele><time>2026-05-02T06:18:38.44Z</time></trkpt><trkpt lat="44.1515083" lon="12.1172717"><ele>97.0</ele><time>2026-05-02T06:18:39.44Z</time></trkpt><trkpt lat="44.1514817" lon="12.1174317"><ele>96.0</ele><time>2026-05-02T06:18:41.441Z</time></trkpt><trkpt lat="44.1514583" lon="12.1175467"><ele>95.0</ele><time>2026-05-02T06:18:43.443Z</time></trkpt><trkpt lat="44.1514317" lon="12.1176833"><ele>94.0</ele><time>2026-05-02T06:18:45.439Z</time></trkpt><trkpt lat="44.15141" lon="12.11782"><ele>92.66666666666666</ele><time>2026-05-02T06:18:47.44Z</time></trkpt><trkpt lat="44.1513867" lon="12.1179317"><ele>91.33333333333333</ele><time>2026-05-02T06:18:49.443Z</time></trkpt><trkpt lat="44.1513617" lon="12.1180417"><ele>90.0</ele><time>2026-05-02T06:18:51.441Z</time></trkpt><trkpt lat="44.151345" lon="12.1181433"><ele>88.66666666666667</ele><time>2026-05-02T06:18:53.443Z</time></trkpt><trkpt lat="44.1513217" lon="12.1182333"><ele>87.33333333333334</ele><time>2026-05-02T06:18:55.44Z</time></trkpt><trkpt lat="44.1513233" lon="12.1183283"><ele>86.0</ele><time>2026-05-02T06:18:57.443Z</time></trkpt><trkpt lat="44.1513517" lon="12.118425"><ele>85.33333333333334</ele><time>2026-05-02T06:18:59.441Z</time></trkpt><trkpt lat="44.1513983" lon="12.1185533"><ele>84.66666666666667</ele><time>2026-05-02T06:19:01.44Z</time></trkpt><trkpt lat="44.1514333" lon="12.1186367"><ele>84.0</ele><time>2026-05-02T06:19:02.44Z</time></trkpt><trkpt lat="44.15147" lon="12.1187333"><ele>83.33333333333333</ele><time>2026-05-02T06:19:03.441Z</time></trkpt><trkpt lat="44.1515033" lon="12.1188267"><ele>82.66666666666666</ele><time>2026-05-02T06:19:04.44Z</time></trkpt><trkpt lat="44.1515417" lon="12.1189233"><ele>82.0</ele><time>2026-05-02T06:19:05.44Z</time></trkpt><trkpt lat="44.1515767" lon="12.119015"><ele>79.6</ele><time>2026-05-02T06:19:06.441Z</time></trkpt><trkpt lat="44.1516117" lon="12.1190883"><ele>77.19999999999999</ele><time>2026-05-02T06:19:07.441Z</time></trkpt><trkpt lat="44.1516617" lon="12.11921"><ele>74.8</ele><time>2026-05-02T06:19:09.441Z</time></trkpt><trkpt lat="44.151695" lon="12.1193217"><ele>72.4</ele><time>2026-05-02T06:19:11.441Z</time></trkpt><trkpt lat="44.15173" lon="12.1194583"><ele>70.0</ele><time>2026-05-02T06:19:13.441Z</time></trkpt><trkpt lat="44.151765" lon="12.1196167"><ele>70.0</ele><time>2026-05-02T06:19:15.441Z</time></trkpt><trkpt lat="44.15178" lon="12.1197067"><ele>70.0</ele><time>2026-05-02T06:19:16.441Z</time></trkpt><trkpt lat="44.151795" lon="12.1197983"><ele>70.0</ele><time>2026-05-02T06:19:17.44Z</time></trkpt><trkpt lat="44.15181" lon="12.1198983"><ele>70.0</ele><time>2026-05-02T06:19:18.441Z</time></trkpt><trkpt lat="44.151825" lon="12.1199983"><ele>70.0</ele><time>2026-05-02T06:19:19.441Z</time></trkpt><trkpt lat="44.1518367" lon="12.1200933"><ele>70.0</ele><time>2026-05-02T06:19:20.44Z</time></trkpt><trkpt lat="44.1518467" lon="12.1201917"><ele>70.0</ele><time>2026-05-02T06:19:21.44Z</time></trkpt><trkpt lat="44.151855" lon="12.1202983"><ele>68.16666666666666</ele><time>2026-05-02T06:19:22.439Z</time></trkpt><trkpt lat="44.1518617" lon="12.1204"><ele>66.33333333333333</ele><time>2026-05-02T06:19:23.443Z</time></trkpt><trkpt lat="44.1518983" lon="12.1205217"><ele>64.5</ele><time>2026-05-02T06:19:25.442Z</time></trkpt><trkpt lat="44.1519733" lon="12.1205217"><ele>62.66666666666667</ele><time>2026-05-02T06:19:27.442Z</time></trkpt><trkpt lat="44.1520517" lon="12.1204917"><ele>60.833333333333336</ele><time>2026-05-02T06:19:29.443Z</time></trkpt><trkpt lat="44.15214" lon="12.1204817"><ele>59.0</ele><time>2026-05-02T06:19:31.441Z</time></trkpt><trkpt lat="44.1522367" lon="12.120495"><ele>59.0</ele><time>2026-05-02T06:19:33.443Z</time></trkpt><trkpt lat="44.1523417" lon="12.1205367"><ele>59.00000000000001</ele><time>2026-05-02T06:19:35.442Z</time></trkpt><trkpt lat="44.15245" lon="12.1205867"><ele>59.00000000000001</ele><time>2026-05-02T06:19:37.443Z</time></trkpt><trkpt lat="44.152565" lon="12.1206383"><ele>59.0</ele><time>2026-05-02T06:19:39.441Z</time></trkpt><trkpt lat="44.1526267" lon="12.1206583"><ele>59.0</ele><time>2026-05-02T06:19:40.44Z</time></trkpt><trkpt lat="44.15269" lon="12.1206683"><ele>59.2</ele><time>2026-05-02T06:19:41.439Z</time></trkpt><trkpt lat="44.1528117" lon="12.12067"><ele>59.400000000000006</ele><time>2026-05-02T06:19:43.441Z</time></trkpt><trkpt lat="44.1529333" lon="12.1206617"><ele>59.6</ele><time>2026-05-02T06:19:45.443Z</time></trkpt><trkpt lat="44.1529967" lon="12.120655"><ele>59.8</ele><time>2026-05-02T06:19:46.443Z</time></trkpt><trkpt lat="44.1531183" lon="12.1206417"><ele>60.0</ele><time>2026-05-02T06:19:48.444Z</time></trkpt><trkpt lat="44.1532317" lon="12.1206317"><ele>58.25</ele><time>2026-05-02T06:19:50.443Z</time></trkpt><trkpt lat="44.1533483" lon="12.1206233"><ele>56.5</ele><time>2026-05-02T06:19:52.443Z</time></trkpt><trkpt lat="44.15346" lon="12.1206017"><ele>54.75</ele><time>2026-05-02T06:19:54.441Z</time></trkpt><trkpt lat="44.1535833" lon="12.1205533"><ele>53.0</ele><time>2026-05-02T06:19:56.44Z</time></trkpt><trkpt lat="44.1537" lon="12.12051"><ele>53.0</ele><time>2026-05-02T06:19:58.443Z</time></trkpt><trkpt lat="44.1537633" lon="12.1204833"><ele>53.0</ele><time>2026-05-02T06:19:59.443Z</time></trkpt><trkpt lat="44.1538283" lon="12.1204567"><ele>53.0</ele><time>2026-05-02T06:20:00.444Z</time></trkpt><trkpt lat="44.153895" lon="12.1204267"><ele>53.0</ele><time>2026-05-02T06:20:01.438Z</time></trkpt><trkpt lat="44.1539617" lon="12.1203933"><ele>53.0</ele><time>2026-05-02T06:20:02.442Z</time></trkpt><trkpt lat="44.15403" lon="12.1203617"><ele>53.0</ele><time>2026-05-02T06:20:03.44Z</time></trkpt><trkpt lat="44.1541033" lon="12.1203367"><ele>53.0</ele><time>2026-05-02T06:20:04.44Z</time></trkpt><trkpt lat="44.1541767" lon="12.1203183"><ele>52.00000000000001</ele><time>2026-05-02T06:20:05.442Z</time></trkpt><trkpt lat="44.1542467" lon="12.1203017"><ele>51.0</ele><time>2026-05-02T06:20:06.441Z</time></trkpt><trkpt lat="44.1543233" lon="12.1202817"><ele>50.0</ele><time>2026-05-02T06:20:07.442Z</time></trkpt><trkpt lat="44.1544033" lon="12.1202633"><ele>49.0</ele><time>2026-05-02T06:20:08.441Z</time></trkpt><trkpt lat="44.1544867" lon="12.120245"><ele>48.0</ele><time>2026-05-02T06:20:09.442Z</time></trkpt><trkpt lat="44.154565" lon="12.1202283"><ele>47.0</ele><time>2026-05-02T06:20:10.442Z</time></trkpt><trkpt lat="44.1546433" lon="12.1202117"><ele>47.0</ele><time>2026-05-02T06:20:11.441Z</time></trkpt><trkpt lat="44.15472" lon="12.120195"><ele>47.0</ele><time>2026-05-02T06:20:12.442Z</time></trkpt><trkpt lat="44.1547967" lon="12.120175"><ele>47.0</ele><time>2026-05-02T06:20:13.442Z</time></trkpt><trkpt lat="44.1548717" lon="12.1201567"><ele>47.0</ele><time>2026-05-02T06:20:14.442Z</time></trkpt><trkpt lat="44.1549483" lon="12.1201367"><ele>47.0</ele><time>2026-05-02T06:20:15.441Z</time></trkpt><trkpt lat="44.1550233" lon="12.120115"><ele>47.0</ele><time>2026-05-02T06:20:16.443Z</time></trkpt><trkpt lat="44.1550983" lon="12.1200983"><ele>47.0</ele><time>2026-05-02T06:20:17.442Z</time></trkpt><trkpt lat="44.1551717" lon="12.12009"><ele>47.0</ele><time>2026-05-02T06:20:18.441Z</time></trkpt><trkpt lat="44.155245" lon="12.12008"><ele>47.0</ele><time>2026-05-02T06:20:19.443Z</time></trkpt><trkpt lat="44.1553167" lon="12.1200617"><ele>47.0</ele><time>2026-05-02T06:20:20.441Z</time></trkpt><trkpt lat="44.1553883" lon="12.1200433"><ele>47.0</ele><time>2026-05-02T06:20:21.442Z</time></trkpt><trkpt lat="44.15546" lon="12.1200267"><ele>47.0</ele><time>2026-05-02T06:20:22.439Z</time></trkpt><trkpt lat="44.15553" lon="12.1200067"><ele>47.0</ele><time>2026-05-02T06:20:23.442Z</time></trkpt><trkpt lat="44.1555983" lon="12.1199867"><ele>47.0</ele><time>2026-05-02T06:20:24.443Z</time></trkpt><trkpt lat="44.15567" lon="12.1199667"><ele>47.0</ele><time>2026-05-02T06:20:25.441Z</time></trkpt><trkpt lat="44.1557433" lon="12.1199467"><ele>47.0</ele><time>2026-05-02T06:20:26.442Z</time></trkpt><trkpt lat="44.1558133" lon="12.1199317"><ele>47.0</ele><time>2026-05-02T06:20:27.443Z</time></trkpt><trkpt lat="44.155885" lon="12.1199133"><ele>47.0</ele><time>2026-05-02T06:20:28.44Z</time></trkpt><trkpt lat="44.1559583" lon="12.1198967"><ele>47.0</ele><time>2026-05-02T06:20:29.438Z</time></trkpt><trkpt lat="44.1560283" lon="12.1198833"><ele>47.0</ele><time>2026-05-02T06:20:30.44Z</time></trkpt><trkpt lat="44.1561" lon="12.11987"><ele>47.0</ele><time>2026-05-02T06:20:31.441Z</time></trkpt><trkpt lat="44.15617" lon="12.1198733"><ele>47.0</ele><time>2026-05-02T06:20:32.439Z</time></trkpt><trkpt lat="44.1562383" lon="12.1198767"><ele>47.0</ele><time>2026-05-02T06:20:33.44Z</time></trkpt><trkpt lat="44.1563117" lon="12.1198733"><ele>47.0</ele><time>2026-05-02T06:20:34.441Z</time></trkpt><trkpt lat="44.1563833" lon="12.11987"><ele>47.0</ele><time>2026-05-02T06:20:35.443Z</time></trkpt><trkpt lat="44.1564533" lon="12.1198683"><ele>47.0</ele><time>2026-05-02T06:20:36.442Z</time></trkpt><trkpt lat="44.1565183" lon="12.119865"><ele>47.0</ele><time>2026-05-02T06:20:37.44Z</time></trkpt><trkpt lat="44.1565817" lon="12.11986"><ele>47.0</ele><time>2026-05-02T06:20:38.442Z</time></trkpt><trkpt lat="44.1566467" lon="12.11985"><ele>47.0</ele><time>2026-05-02T06:20:39.442Z</time></trkpt><trkpt lat="44.1567117" lon="12.1198317"><ele>47.0</ele><time>2026-05-02T06:20:40.443Z</time></trkpt><trkpt lat="44.1567783" lon="12.11981"><ele>47.0</ele><time>2026-05-02T06:20:41.442Z</time></trkpt><trkpt lat="44.1569" lon="12.119765"><ele>47.0</ele><time>2026-05-02T06:20:43.441Z</time></trkpt><trkpt lat="44.15702" lon="12.1197267"><ele>47.0</ele><time>2026-05-02T06:20:45.44Z</time></trkpt><trkpt lat="44.15713" lon="12.1196817"><ele>47.0</ele><time>2026-05-02T06:20:47.441Z</time></trkpt><trkpt lat="44.1572383" lon="12.11965"><ele>47.0</ele><time>2026-05-02T06:20:49.442Z</time></trkpt><trkpt lat="44.1573417" lon="12.1195967"><ele>47.0</ele><time>2026-05-02T06:20:51.442Z</time></trkpt><trkpt lat="44.1574367" lon="12.11953"><ele>47.0</ele><time>2026-05-02T06:20:53.442Z</time></trkpt><trkpt lat="44.15753" lon="12.1194683"><ele>47.0</ele><time>2026-05-02T06:20:55.443Z</time></trkpt><trkpt lat="44.1576133" lon="12.1193917"><ele>47.400000000000006</ele><time>2026-05-02T06:20:57.441Z</time></trkpt><trkpt lat="44.1576917" lon="12.1193"><ele>47.800000000000004</ele><time>2026-05-02T06:20:59.442Z</time></trkpt><trkpt lat="44.1577667" lon="12.1192"><ele>48.2</ele><time>2026-05-02T06:21:01.442Z</time></trkpt><trkpt lat="44.1578433" lon="12.119105"><ele>48.6</ele><time>2026-05-02T06:21:03.441Z</time></trkpt><trkpt lat="44.15792" lon="12.1190083"><ele>49.0</ele><time>2026-05-02T06:21:05.443Z</time></trkpt><trkpt lat="44.1580033" lon="12.1189183"><ele>49.6</ele><time>2026-05-02T06:21:07.442Z</time></trkpt><trkpt lat="44.1580933" lon="12.1188483"><ele>50.2</ele><time>2026-05-02T06:21:09.442Z</time></trkpt><trkpt lat="44.1581883" lon="12.1187867"><ele>50.800000000000004</ele><time>2026-05-02T06:21:11.442Z</time></trkpt><trkpt lat="44.158285" lon="12.118745"><ele>51.400000000000006</ele><time>2026-05-02T06:21:13.443Z</time></trkpt><trkpt lat="44.158375" lon="12.1186967"><ele>52.0</ele><time>2026-05-02T06:21:15.439Z</time></trkpt><trkpt lat="44.1584683" lon="12.1186533"><ele>52.0</ele><time>2026-05-02T06:21:17.442Z</time></trkpt><trkpt lat="44.158565" lon="12.1186217"><ele>52.0</ele><time>2026-05-02T06:21:19.441Z</time></trkpt><trkpt lat="44.1586667" lon="12.11859"><ele>52.0</ele><time>2026-05-02T06:21:21.442Z</time></trkpt><trkpt lat="44.1587667" lon="12.118565"><ele>52.0</ele><time>2026-05-02T06:21:23.442Z</time></trkpt><trkpt lat="44.1588667" lon="12.11853"><ele>52.0</ele><time>2026-05-02T06:21:25.443Z</time></trkpt><trkpt lat="44.1589767" lon="12.1185033"><ele>51.8</ele><time>2026-05-02T06:21:27.443Z</time></trkpt><trkpt lat="44.1590883" lon="12.118485"><ele>51.6</ele><time>2026-05-02T06:21:29.443Z</time></trkpt><trkpt lat="44.1592017" lon="12.118465"><ele>51.4</ele><time>2026-05-02T06:21:31.442Z</time></trkpt><trkpt lat="44.1593067" lon="12.1184483"><ele>51.199999999999996</ele><time>2026-05-02T06:21:33.439Z</time></trkpt><trkpt lat="44.1594167" lon="12.118405"><ele>51.0</ele><time>2026-05-02T06:21:35.44Z</time></trkpt><trkpt lat="44.1595267" lon="12.118385"><ele>51.0</ele><time>2026-05-02T06:21:37.439Z</time></trkpt><trkpt lat="44.1596383" lon="12.1183517"><ele>51.0</ele><time>2026-05-02T06:21:39.441Z</time></trkpt><trkpt lat="44.15975" lon="12.1183333"><ele>51.0</ele><time>2026-05-02T06:21:41.442Z</time></trkpt><trkpt lat="44.1598667" lon="12.1183133"><ele>51.0</ele><time>2026-05-02T06:21:43.443Z</time></trkpt><trkpt lat="44.15993" lon="12.1182967"><ele>51.0</ele><time>2026-05-02T06:21:44.438Z</time></trkpt><trkpt lat="44.1599917" lon="12.1182767"><ele>50.4</ele><time>2026-05-02T06:21:45.442Z</time></trkpt><trkpt lat="44.1600533" lon="12.1182533"><ele>49.8</ele><time>2026-05-02T06:21:46.443Z</time></trkpt><trkpt lat="44.16017" lon="12.11821"><ele>49.199999999999996</ele><time>2026-05-02T06:21:48.439Z</time></trkpt><trkpt lat="44.1602867" lon="12.11818"><ele>48.599999999999994</ele><time>2026-05-02T06:21:50.44Z</time></trkpt><trkpt lat="44.1604" lon="12.1181417"><ele>48.0</ele><time>2026-05-02T06:21:52.439Z</time></trkpt><trkpt lat="44.1605133" lon="12.1180933"><ele>48.5</ele><time>2026-05-02T06:21:54.441Z</time></trkpt><trkpt lat="44.1606333" lon="12.118045"><ele>49.0</ele><time>2026-05-02T06:21:56.442Z</time></trkpt><trkpt lat="44.1606933" lon="12.1180133"><ele>49.5</ele><time>2026-05-02T06:21:57.442Z</time></trkpt><trkpt lat="44.1607567" lon="12.1179867"><ele>50.0</ele><time>2026-05-02T06:21:58.44Z</time></trkpt><trkpt lat="44.1608217" lon="12.1179533"><ele>50.5</ele><time>2026-05-02T06:21:59.442Z</time></trkpt><trkpt lat="44.160885" lon="12.11792"><ele>51.0</ele><time>2026-05-02T06:22:00.443Z</time></trkpt><trkpt lat="44.1609517" lon="12.1178867"><ele>51.0</ele><time>2026-05-02T06:22:01.442Z</time></trkpt><trkpt lat="44.1610183" lon="12.11785"><ele>51.0</ele><time>2026-05-02T06:22:02.443Z</time></trkpt><trkpt lat="44.1611167" lon="12.1178017"><ele>51.0</ele><time>2026-05-02T06:22:04.441Z</time></trkpt><trkpt lat="44.16118" lon="12.1178567"><ele>51.0</ele><time>2026-05-02T06:22:11.443Z</time></trkpt><trkpt lat="44.161195" lon="12.117985"><ele>51.0</ele><time>2026-05-02T06:22:14.442Z</time></trkpt><trkpt lat="44.1612117" lon="12.118095"><ele>51.0</ele><time>2026-05-02T06:22:16.439Z</time></trkpt><trkpt lat="44.161235" lon="12.1182283"><ele>49.5</ele><time>2026-05-02T06:22:18.44Z</time></trkpt><trkpt lat="44.1612583" lon="12.1183767"><ele>48.0</ele><time>2026-05-02T06:22:20.44Z</time></trkpt><trkpt lat="44.1612817" lon="12.1185283"><ele>46.5</ele><time>2026-05-02T06:22:22.438Z</time></trkpt><trkpt lat="44.16131" lon="12.118685"><ele>45.0</ele><time>2026-05-02T06:22:24.44Z</time></trkpt><trkpt lat="44.161335" lon="12.11885"><ele>45.0</ele><time>2026-05-02T06:22:26.44Z</time></trkpt><trkpt lat="44.1613467" lon="12.1189367"><ele>45.0</ele><time>2026-05-02T06:22:27.44Z</time></trkpt><trkpt lat="44.1613717" lon="12.119105"><ele>45.0</ele><time>2026-05-02T06:22:29.44Z</time></trkpt><trkpt lat="44.16139" lon="12.1192733"><ele>45.0</ele><time>2026-05-02T06:22:31.439Z</time></trkpt><trkpt lat="44.1614083" lon="12.1194433"><ele>45.0</ele><time>2026-05-02T06:22:33.442Z</time></trkpt><trkpt lat="44.1614333" lon="12.119605"><ele>44.833333333333336</ele><time>2026-05-02T06:22:35.442Z</time></trkpt><trkpt lat="44.1614533" lon="12.119755"><ele>44.666666666666664</ele><time>2026-05-02T06:22:37.443Z</time></trkpt><trkpt lat="44.1614683" lon="12.1198867"><ele>44.5</ele><time>2026-05-02T06:22:39.443Z</time></trkpt><trkpt lat="44.1614867" lon="12.119995"><ele>44.33333333333333</ele><time>2026-05-02T06:22:41.439Z</time></trkpt><trkpt lat="44.1615367" lon="12.12005"><ele>44.166666666666664</ele><time>2026-05-02T06:22:43.443Z</time></trkpt><trkpt lat="44.1616267" lon="12.120025"><ele>44.0</ele><time>2026-05-02T06:22:45.441Z</time></trkpt><trkpt lat="44.1617183" lon="12.1200167"><ele>43.6</ele><time>2026-05-02T06:22:47.439Z</time></trkpt><trkpt lat="44.161815" lon="12.1200183"><ele>43.2</ele><time>2026-05-02T06:22:49.44Z</time></trkpt><trkpt lat="44.16191" lon="12.120015"><ele>42.800000000000004</ele><time>2026-05-02T06:22:51.439Z</time></trkpt><trkpt lat="44.1620067" lon="12.120005"><ele>42.400000000000006</ele><time>2026-05-02T06:22:53.439Z</time></trkpt><trkpt lat="44.162105" lon="12.119995"><ele>42.0</ele><time>2026-05-02T06:22:55.443Z</time></trkpt><trkpt lat="44.1622083" lon="12.1199833"><ele>42.0</ele><time>2026-05-02T06:22:57.442Z</time></trkpt><trkpt lat="44.162305" lon="12.119985"><ele>42.0</ele><time>2026-05-02T06:22:59.44Z</time></trkpt><trkpt lat="44.1624" lon="12.1199883"><ele>42.0</ele><time>2026-05-02T06:23:01.443Z</time></trkpt><trkpt lat="44.1625" lon="12.11999"><ele>42.0</ele><time>2026-05-02T06:23:03.442Z</time></trkpt><trkpt lat="44.1625933" lon="12.1199883"><ele>42.0</ele><time>2026-05-02T06:23:05.442Z</time></trkpt><trkpt lat="44.162695" lon="12.11998"><ele>41.6</ele><time>2026-05-02T06:23:07.442Z</time></trkpt><trkpt lat="44.1627967" lon="12.1199783"><ele>41.2</ele><time>2026-05-02T06:23:09.443Z</time></trkpt><trkpt lat="44.1628983" lon="12.119975"><ele>40.8</ele><time>2026-05-02T06:23:11.442Z</time></trkpt><trkpt lat="44.1629983" lon="12.1199667"><ele>40.4</ele><time>2026-05-02T06:23:13.442Z</time></trkpt><trkpt lat="44.1631" lon="12.119965"><ele>40.0</ele><time>2026-05-02T06:23:15.439Z</time></trkpt><trkpt lat="44.1632017" lon="12.11997"><ele>40.0</ele><time>2026-05-02T06:23:17.443Z</time></trkpt><trkpt lat="44.1633067" lon="12.1199733"><ele>40.0</ele><time>2026-05-02T06:23:19.442Z</time></trkpt><trkpt lat="44.1634067" lon="12.1199683"><ele>40.0</ele><time>2026-05-02T06:23:21.44Z</time></trkpt><trkpt lat="44.1635067" lon="12.1199483"><ele>40.0</ele><time>2026-05-02T06:23:23.44Z</time></trkpt><trkpt lat="44.1636033" lon="12.1198983"><ele>40.0</ele><time>2026-05-02T06:23:25.442Z</time></trkpt><trkpt lat="44.163695" lon="12.1198317"><ele>40.0</ele><time>2026-05-02T06:23:27.44Z</time></trkpt><trkpt lat="44.1637833" lon="12.1197517"><ele>40.0</ele><time>2026-05-02T06:23:29.442Z</time></trkpt><trkpt lat="44.1638717" lon="12.119675"><ele>40.0</ele><time>2026-05-02T06:23:31.442Z</time></trkpt><trkpt lat="44.1639567" lon="12.1195883"><ele>40.0</ele><time>2026-05-02T06:23:33.442Z</time></trkpt><trkpt lat="44.1640483" lon="12.1195133"><ele>40.0</ele><time>2026-05-02T06:23:35.443Z</time></trkpt><trkpt lat="44.164135" lon="12.1194383"><ele>39.8</ele><time>2026-05-02T06:23:37.442Z</time></trkpt><trkpt lat="44.16422" lon="12.1193667"><ele>39.6</ele><time>2026-05-02T06:23:39.443Z</time></trkpt><trkpt lat="44.1643083" lon="12.119295"><ele>39.4</ele><time>2026-05-02T06:23:41.44Z</time></trkpt><trkpt lat="44.1644" lon="12.11922"><ele>39.2</ele><time>2026-05-02T06:23:43.439Z</time></trkpt><trkpt lat="44.1644883" lon="12.119155"><ele>39.0</ele><time>2026-05-02T06:23:45.443Z</time></trkpt><trkpt lat="44.164575" lon="12.1190817"><ele>39.2</ele><time>2026-05-02T06:23:47.442Z</time></trkpt><trkpt lat="44.1646633" lon="12.1190083"><ele>39.4</ele><time>2026-05-02T06:23:49.439Z</time></trkpt><trkpt lat="44.164755" lon="12.1189333"><ele>39.6</ele><time>2026-05-02T06:23:51.44Z</time></trkpt><trkpt lat="44.164845" lon="12.11886"><ele>39.8</ele><time>2026-05-02T06:23:53.44Z</time></trkpt><trkpt lat="44.1649433" lon="12.1188"><ele>40.0</ele><time>2026-05-02T06:23:55.443Z</time></trkpt><trkpt lat="44.1650467" lon="12.1187517"><ele>40.0</ele><time>2026-05-02T06:23:57.443Z</time></trkpt><trkpt lat="44.1651533" lon="12.118725"><ele>40.0</ele><time>2026-05-02T06:23:59.443Z</time></trkpt><trkpt lat="44.165265" lon="12.1186983"><ele>40.0</ele><time>2026-05-02T06:24:01.442Z</time></trkpt><trkpt lat="44.1653817" lon="12.1186867"><ele>40.0</ele><time>2026-05-02T06:24:03.443Z</time></trkpt><trkpt lat="44.165495" lon="12.1186933"><ele>40.0</ele><time>2026-05-02T06:24:05.441Z</time></trkpt><trkpt lat="44.1656067" lon="12.1186933"><ele>40.0</ele><time>2026-05-02T06:24:07.442Z</time></trkpt><trkpt lat="44.1657183" lon="12.1186883"><ele>40.0</ele><time>2026-05-02T06:24:09.44Z</time></trkpt><trkpt lat="44.1658333" lon="12.11869"><ele>40.0</ele><time>2026-05-02T06:24:11.442Z</time></trkpt><trkpt lat="44.1659433" lon="12.118695"><ele>40.0</ele><time>2026-05-02T06:24:13.44Z</time></trkpt><trkpt lat="44.1660517" lon="12.118695"><ele>39.8</ele><time>2026-05-02T06:24:15.441Z</time></trkpt><trkpt lat="44.16616" lon="12.1186983"><ele>39.6</ele><time>2026-05-02T06:24:17.441Z</time></trkpt><trkpt lat="44.166265" lon="12.1186983"><ele>39.4</ele><time>2026-05-02T06:24:19.44Z</time></trkpt><trkpt lat="44.1663717" lon="12.118695"><ele>39.2</ele><time>2026-05-02T06:24:21.439Z</time></trkpt><trkpt lat="44.1664767" lon="12.1186967"><ele>39.0</ele><time>2026-05-02T06:24:23.439Z</time></trkpt><trkpt lat="44.166585" lon="12.1186967"><ele>39.0</ele><time>2026-05-02T06:24:25.442Z</time></trkpt><trkpt lat="44.1666933" lon="12.1186833"><ele>39.0</ele><time>2026-05-02T06:24:27.443Z</time></trkpt><trkpt lat="44.1668033" lon="12.1186817"><ele>39.0</ele><time>2026-05-02T06:24:29.44Z</time></trkpt><trkpt lat="44.1669117" lon="12.1186817"><ele>39.0</ele><time>2026-05-02T06:24:31.441Z</time></trkpt><trkpt lat="44.167025" lon="12.11868"><ele>39.0</ele><time>2026-05-02T06:24:33.44Z</time></trkpt><trkpt lat="44.1671333" lon="12.1186833"><ele>39.0</ele><time>2026-05-02T06:24:35.441Z</time></trkpt><trkpt lat="44.1672467" lon="12.118685"><ele>39.0</ele><time>2026-05-02T06:24:37.441Z</time></trkpt><trkpt lat="44.16736" lon="12.1186867"><ele>39.0</ele><time>2026-05-02T06:24:39.44Z</time></trkpt><trkpt lat="44.1674717" lon="12.1186933"><ele>39.0</ele><time>2026-05-02T06:24:41.44Z</time></trkpt><trkpt lat="44.1675867" lon="12.118695"><ele>38.8</ele><time>2026-05-02T06:24:43.441Z</time></trkpt><trkpt lat="44.1676983" lon="12.1187"><ele>38.599999999999994</ele><time>2026-05-02T06:24:45.442Z</time></trkpt><trkpt lat="44.1678033" lon="12.1187017"><ele>38.4</ele><time>2026-05-02T06:24:47.442Z</time></trkpt><trkpt lat="44.1679183" lon="12.1187017"><ele>38.199999999999996</ele><time>2026-05-02T06:24:49.441Z</time></trkpt><trkpt lat="44.168035" lon="12.1187"><ele>38.0</ele><time>2026-05-02T06:24:51.439Z</time></trkpt><trkpt lat="44.1681517" lon="12.1187017"><ele>38.0</ele><time>2026-05-02T06:24:53.439Z</time></trkpt><trkpt lat="44.1682717" lon="12.1186983"><ele>38.0</ele><time>2026-05-02T06:24:55.441Z</time></trkpt><trkpt lat="44.168335" lon="12.1186933"><ele>38.0</ele><time>2026-05-02T06:24:56.441Z</time></trkpt><trkpt lat="44.168455" lon="12.1186833"><ele>38.0</ele><time>2026-05-02T06:24:58.442Z</time></trkpt><trkpt lat="44.1685733" lon="12.1186833"><ele>38.0</ele><time>2026-05-02T06:25:00.44Z</time></trkpt><trkpt lat="44.16869" lon="12.1186833"><ele>38.0</ele><time>2026-05-02T06:25:02.443Z</time></trkpt><trkpt lat="44.1688067" lon="12.118685"><ele>38.0</ele><time>2026-05-02T06:25:04.442Z</time></trkpt><trkpt lat="44.1689217" lon="12.1186883"><ele>38.0</ele><time>2026-05-02T06:25:06.441Z</time></trkpt><trkpt lat="44.1690217" lon="12.1186817"><ele>38.0</ele><time>2026-05-02T06:25:08.443Z</time></trkpt><trkpt lat="44.1691033" lon="12.1187367"><ele>38.0</ele><time>2026-05-02T06:25:10.442Z</time></trkpt><trkpt lat="44.169125" lon="12.1188517"><ele>38.0</ele><time>2026-05-02T06:25:12.442Z</time></trkpt><trkpt lat="44.16911" lon="12.1189867"><ele>38.0</ele><time>2026-05-02T06:25:14.439Z</time></trkpt><trkpt lat="44.1691267" lon="12.1191467"><ele>38.0</ele><time>2026-05-02T06:25:16.439Z</time></trkpt><trkpt lat="44.1691517" lon="12.1192983"><ele>38.0</ele><time>2026-05-02T06:25:18.439Z</time></trkpt><trkpt lat="44.1691933" lon="12.119455"><ele>38.0</ele><time>2026-05-02T06:25:20.44Z</time></trkpt><trkpt lat="44.169235" lon="12.1196033"><ele>37.8</ele><time>2026-05-02T06:25:22.441Z</time></trkpt><trkpt lat="44.16927" lon="12.1197633"><ele>37.599999999999994</ele><time>2026-05-02T06:25:24.439Z</time></trkpt><trkpt lat="44.169305" lon="12.119915"><ele>37.400000000000006</ele><time>2026-05-02T06:25:26.439Z</time></trkpt><trkpt lat="44.169305" lon="12.1200567"><ele>37.2</ele><time>2026-05-02T06:25:28.44Z</time></trkpt><trkpt lat="44.1693" lon="12.1201917"><ele>37.0</ele><time>2026-05-02T06:25:30.44Z</time></trkpt><trkpt lat="44.1693017" lon="12.120335"><ele>37.0</ele><time>2026-05-02T06:25:32.441Z</time></trkpt><trkpt lat="44.1692883" lon="12.1204683"><ele>37.0</ele><time>2026-05-02T06:25:34.443Z</time></trkpt><trkpt lat="44.1692683" lon="12.1206083"><ele>37.0</ele><time>2026-05-02T06:25:36.443Z</time></trkpt><trkpt lat="44.1692517" lon="12.1207483"><ele>37.0</ele><time>2026-05-02T06:25:38.443Z</time></trkpt><trkpt lat="44.1692283" lon="12.12089"><ele>37.0</ele><time>2026-05-02T06:25:40.442Z</time></trkpt><trkpt lat="44.1692167" lon="12.1210233"><ele>36.833333333333336</ele><time>2026-05-02T06:25:42.442Z</time></trkpt><trkpt lat="44.169215" lon="12.1211517"><ele>36.66666666666667</ele><time>2026-05-02T06:25:44.439Z</time></trkpt><trkpt lat="44.1692083" lon="12.12127"><ele>36.5</ele><time>2026-05-02T06:25:46.44Z</time></trkpt><trkpt lat="44.169205" lon="12.1213833"><ele>36.333333333333336</ele><time>2026-05-02T06:25:48.443Z</time></trkpt><trkpt lat="44.169205" lon="12.1215"><ele>36.166666666666664</ele><time>2026-05-02T06:25:50.443Z</time></trkpt><trkpt lat="44.1691933" lon="12.1216283"><ele>36.0</ele><time>2026-05-02T06:25:52.44Z</time></trkpt><trkpt lat="44.1691783" lon="12.12176"><ele>36.0</ele><time>2026-05-02T06:25:54.439Z</time></trkpt><trkpt lat="44.16916" lon="12.1218683"><ele>36.0</ele><time>2026-05-02T06:25:56.44Z</time></trkpt><trkpt lat="44.16914" lon="12.1219783"><ele>36.0</ele><time>2026-05-02T06:25:59.439Z</time></trkpt><trkpt lat="44.169125" lon="12.1221067"><ele>36.0</ele><time>2026-05-02T06:26:02.443Z</time></trkpt><trkpt lat="44.16911" lon="12.122195"><ele>36.0</ele><time>2026-05-02T06:26:04.443Z</time></trkpt><trkpt lat="44.1691033" lon="12.1222833"><ele>36.0</ele><time>2026-05-02T06:26:06.443Z</time></trkpt><trkpt lat="44.1690917" lon="12.1223817"><ele>35.833333333333336</ele><time>2026-05-02T06:26:08.443Z</time></trkpt><trkpt lat="44.1690717" lon="12.1224867"><ele>35.666666666666664</ele><time>2026-05-02T06:26:10.443Z</time></trkpt><trkpt lat="44.169065" lon="12.1225883"><ele>35.5</ele><time>2026-05-02T06:26:12.44Z</time></trkpt><trkpt lat="44.1690517" lon="12.1226767"><ele>35.33333333333333</ele><time>2026-05-02T06:26:14.44Z</time></trkpt><trkpt lat="44.169015" lon="12.1227817"><ele>35.166666666666664</ele><time>2026-05-02T06:26:17.441Z</time></trkpt><trkpt lat="44.168985" lon="12.1229"><ele>35.0</ele><time>2026-05-02T06:26:20.441Z</time></trkpt><trkpt lat="44.16896" lon="12.1229867"><ele>35.0</ele><time>2026-05-02T06:26:22.44Z</time></trkpt><trkpt lat="44.1689317" lon="12.1230717"><ele>35.0</ele><time>2026-05-02T06:26:24.439Z</time></trkpt><trkpt lat="44.16889" lon="12.1231917"><ele>35.0</ele><time>2026-05-02T06:26:27.44Z</time></trkpt><trkpt lat="44.16885" lon="12.12331"><ele>35.0</ele><time>2026-05-02T06:26:30.44Z</time></trkpt><trkpt lat="44.1688317" lon="12.1233983"><ele>35.0</ele><time>2026-05-02T06:26:32.443Z</time></trkpt><trkpt lat="44.1688033" lon="12.1235133"><ele>35.0</ele><time>2026-05-02T06:26:35.442Z</time></trkpt><trkpt lat="44.1687683" lon="12.1236333"><ele>34.83333333333333</ele><time>2026-05-02T06:26:38.442Z</time></trkpt><trkpt lat="44.1687483" lon="12.1237183"><ele>34.666666666666664</ele><time>2026-05-02T06:26:40.443Z</time></trkpt><trkpt lat="44.1687233" lon="12.1238033"><ele>34.5</ele><time>2026-05-02T06:26:42.439Z</time></trkpt><trkpt lat="44.1686967" lon="12.1238867"><ele>34.333333333333336</ele><time>2026-05-02T06:26:44.44Z</time></trkpt><trkpt lat="44.1686683" lon="12.1240067"><ele>34.16666666666667</ele><time>2026-05-02T06:26:47.439Z</time></trkpt><trkpt lat="44.1686283" lon="12.1241233"><ele>34.0</ele><time>2026-05-02T06:26:50.442Z</time></trkpt><trkpt lat="44.1685817" lon="12.1242217"><ele>34.0</ele><time>2026-05-02T06:26:53.442Z</time></trkpt><trkpt lat="44.1685367" lon="12.124305"><ele>34.0</ele><time>2026-05-02T06:26:56.443Z</time></trkpt><trkpt lat="44.1685033" lon="12.124405"><ele>34.0</ele><time>2026-05-02T06:26:59.442Z</time></trkpt><trkpt lat="44.1684767" lon="12.12453"><ele>34.0</ele><time>2026-05-02T06:27:02.443Z</time></trkpt><trkpt lat="44.1684583" lon="12.1246567"><ele>34.0</ele><time>2026-05-02T06:27:05.442Z</time></trkpt><trkpt lat="44.16844" lon="12.12478"><ele>34.0</ele><time>2026-05-02T06:27:08.443Z</time></trkpt><trkpt lat="44.16846" lon="12.124875"><ele>34.14285714285714</ele><time>2026-05-02T06:27:11.443Z</time></trkpt><trkpt lat="44.1685167" lon="12.1249617"><ele>34.285714285714285</ele><time>2026-05-02T06:27:15.442Z</time></trkpt><trkpt lat="44.1685783" lon="12.125015"><ele>34.42857142857143</ele><time>2026-05-02T06:27:18.443Z</time></trkpt><trkpt lat="44.168635" lon="12.1250733"><ele>34.57142857142857</ele><time>2026-05-02T06:27:21.441Z</time></trkpt><trkpt lat="44.168655" lon="12.1251617"><ele>34.714285714285715</ele><time>2026-05-02T06:27:24.441Z</time></trkpt><trkpt lat="44.1686517" lon="12.125265"><ele>34.857142857142854</ele><time>2026-05-02T06:27:27.439Z</time></trkpt><trkpt lat="44.16863" lon="12.1253517"><ele>35.0</ele><time>2026-05-02T06:27:30.443Z</time></trkpt><trkpt lat="44.1686017" lon="12.1254483"><ele>35.0</ele><time>2026-05-02T06:27:33.443Z</time></trkpt><trkpt lat="44.1685667" lon="12.1255317"><ele>35.0</ele><time>2026-05-02T06:27:36.443Z</time></trkpt><trkpt lat="44.1685283" lon="12.1256067"><ele>35.0</ele><time>2026-05-02T06:27:39.443Z</time></trkpt><trkpt lat="44.168475" lon="12.125685"><ele>35.0</ele><time>2026-05-02T06:27:43.442Z</time></trkpt><trkpt lat="44.168425" lon="12.1257467"><ele>35.0</ele><time>2026-05-02T06:27:47.443Z</time></trkpt><trkpt lat="44.16838" lon="12.1258267"><ele>35.0</ele><time>2026-05-02T06:27:53.44Z</time></trkpt><trkpt lat="44.1683283" lon="12.1258783"><ele>35.0</ele><time>2026-05-02T06:27:57.439Z</time></trkpt><trkpt lat="44.1682767" lon="12.1259333"><ele>35.83333333333333</ele><time>2026-05-02T06:28:02.443Z</time></trkpt><trkpt lat="44.1682233" lon="12.1259917"><ele>36.666666666666664</ele><time>2026-05-02T06:28:07.442Z</time></trkpt><trkpt lat="44.1681733" lon="12.1260667"><ele>37.5</ele><time>2026-05-02T06:28:13.443Z</time></trkpt><trkpt lat="44.168115" lon="12.12612"><ele>38.333333333333336</ele><time>2026-05-02T06:28:20.44Z</time></trkpt><trkpt lat="44.16806" lon="12.126195"><ele>39.16666666666667</ele><time>2026-05-02T06:28:25.44Z</time></trkpt><trkpt lat="44.1679917" lon="12.1262967"><ele>40.0</ele><time>2026-05-02T06:28:36.441Z</time></trkpt><trkpt lat="44.16794" lon="12.126405"><ele>41.8</ele><time>2026-05-02T06:28:46.442Z</time></trkpt><trkpt lat="44.1678667" lon="12.12655"><ele>43.6</ele><time>2026-05-02T06:29:01.439Z</time></trkpt><trkpt lat="44.1678317" lon="12.1266617"><ele>45.400000000000006</ele><time>2026-05-02T06:29:10.44Z</time></trkpt><trkpt lat="44.167755" lon="12.126845"><ele>47.2</ele><time>2026-05-02T06:29:28.44Z</time></trkpt><trkpt lat="44.1677033" lon="12.1269"><ele>49.0</ele><time>2026-05-02T06:29:34.439Z</time></trkpt><trkpt lat="44.167605" lon="12.1270683"><ele>50.49999999999999</ele><time>2026-05-02T06:29:53.441Z</time></trkpt><trkpt lat="44.167515" lon="12.1270617"><ele>52.0</ele><time>2026-05-02T06:32:53.442Z</time></trkpt><trkpt lat="44.1674383" lon="12.127045"><ele>53.5</ele><time>2026-05-02T06:32:57.442Z</time></trkpt><trkpt lat="44.1673667" lon="12.1270033"><ele>55.0</ele><time>2026-05-02T06:33:00.442Z</time></trkpt><trkpt lat="44.1672983" lon="12.1269683"><ele>56.49999999999999</ele><time>2026-05-02T06:33:03.442Z</time></trkpt><trkpt lat="44.1672267" lon="12.1269417"><ele>58.0</ele><time>2026-05-02T06:33:06.439Z</time></trkpt><trkpt lat="44.167155" lon="12.1269117"><ele>58.71428571428572</ele><time>2026-05-02T06:33:09.442Z</time></trkpt><trkpt lat="44.16709" lon="12.1269017"><ele>59.42857142857143</ele><time>2026-05-02T06:33:12.439Z</time></trkpt><trkpt lat="44.1670133" lon="12.12687"><ele>60.142857142857146</ele><time>2026-05-02T06:33:15.44Z</time></trkpt><trkpt lat="44.1669433" lon="12.1268367"><ele>60.85714285714286</ele><time>2026-05-02T06:33:18.445Z</time></trkpt><trkpt lat="44.1668733" lon="12.1268067"><ele>61.57142857142857</ele><time>2026-05-02T06:33:21.44Z</time></trkpt><trkpt lat="44.1668067" lon="12.126775"><ele>62.285714285714285</ele><time>2026-05-02T06:33:24.44Z</time></trkpt><trkpt lat="44.166745" lon="12.1267383"><ele>63.0</ele><time>2026-05-02T06:33:27.442Z</time></trkpt><trkpt lat="44.16668" lon="12.1267217"><ele>63.0</ele><time>2026-05-02T06:33:30.443Z</time></trkpt><trkpt lat="44.1666133" lon="12.12669"><ele>63.0</ele><time>2026-05-02T06:33:33.443Z</time></trkpt><trkpt lat="44.1665417" lon="12.1266583"><ele>63.0</ele><time>2026-05-02T06:33:36.442Z</time></trkpt><trkpt lat="44.166465" lon="12.1266433"><ele>63.0</ele><time>2026-05-02T06:33:39.44Z</time></trkpt><trkpt lat="44.1663883" lon="12.1266183"><ele>63.0</ele><time>2026-05-02T06:33:42.442Z</time></trkpt><trkpt lat="44.1663117" lon="12.1265767"><ele>63.0</ele><time>2026-05-02T06:33:45.442Z</time></trkpt><trkpt lat="44.1669433" lon="12.1268367"><ele>63.0</ele><time>2026-05-02T06:33:18.445Z</time></trkpt><trkpt lat="44.1668733" lon="12.1268067"><ele>63.0</ele><time>2026-05-02T06:33:21.44Z</time></trkpt><trkpt lat="44.1668067" lon="12.126775"><ele>63.0</ele><time>2026-05-02T06:33:24.44Z</time></trkpt><trkpt lat="44.166745" lon="12.1267383"><ele>63.0</ele><time>2026-05-02T06:33:27.442Z</time></trkpt><trkpt lat="44.16668" lon="12.1267217"><ele>63.0</ele><time>2026-05-02T06:33:30.443Z</time></trkpt><trkpt lat="44.1666133" lon="12.12669"><ele>63.0</ele><time>2026-05-02T06:33:33.443Z</time></trkpt><trkpt lat="44.1665417" lon="12.1266583"><ele>63.0</ele><time>2026-05-02T06:33:36.442Z</time></trkpt><trkpt lat="44.166465" lon="12.1266433"><ele>63.166666666666664</ele><time>2026-05-02T06:33:39.44Z</time></trkpt><trkpt lat="44.1663883" lon="12.1266183"><ele>63.33333333333333</ele><time>2026-05-02T06:33:42.442Z</time></trkpt><trkpt lat="44.1663117" lon="12.1265767"><ele>63.5</ele><time>2026-05-02T06:33:45.442Z</time></trkpt><trkpt lat="44.1662283" lon="12.1265467"><ele>63.666666666666664</ele><time>2026-05-02T06:33:48.44Z</time></trkpt><trkpt lat="44.166145" lon="12.1264967"><ele>63.83333333333333</ele><time>2026-05-02T06:33:51.44Z</time></trkpt><trkpt lat="44.16606" lon="12.1264483"><ele>64.0</ele><time>2026-05-02T06:33:54.439Z</time></trkpt><trkpt lat="44.1659767" lon="12.1264067"><ele>64.0</ele><time>2026-05-02T06:33:57.443Z</time></trkpt><trkpt lat="44.1659167" lon="12.12638"><ele>63.99999999999999</ele><time>2026-05-02T06:33:59.44Z</time></trkpt><trkpt lat="44.165855" lon="12.1263517"><ele>64.0</ele><time>2026-05-02T06:34:01.44Z</time></trkpt><trkpt lat="44.1657867" lon="12.1263233"><ele>64.0</ele><time>2026-05-02T06:34:03.439Z</time></trkpt><trkpt lat="44.16572" lon="12.126295"><ele>63.99999999999999</ele><time>2026-05-02T06:34:05.443Z</time></trkpt><trkpt lat="44.16566" lon="12.1262667"><ele>64.0</ele><time>2026-05-02T06:34:07.44Z</time></trkpt><trkpt lat="44.1656" lon="12.126235"><ele>64.0</ele><time>2026-05-02T06:34:09.443Z</time></trkpt><trkpt lat="44.16554" lon="12.1261983"><ele>64.42857142857143</ele><time>2026-05-02T06:34:11.442Z</time></trkpt><trkpt lat="44.1654733" lon="12.1261717"><ele>64.85714285714285</ele><time>2026-05-02T06:34:13.442Z</time></trkpt><trkpt lat="44.1654117" lon="12.126135"><ele>65.28571428571428</ele><time>2026-05-02T06:34:15.442Z</time></trkpt><trkpt lat="44.1653533" lon="12.1261"><ele>65.71428571428571</ele><time>2026-05-02T06:34:17.442Z</time></trkpt><trkpt lat="44.1652917" lon="12.1260667"><ele>66.14285714285714</ele><time>2026-05-02T06:34:19.44Z</time></trkpt><trkpt lat="44.16523" lon="12.126035"><ele>66.57142857142857</ele><time>2026-05-02T06:34:21.44Z</time></trkpt><trkpt lat="44.1651417" lon="12.1260017"><ele>67.0</ele><time>2026-05-02T06:34:24.44Z</time></trkpt><trkpt lat="44.1650667" lon="12.1259667"><ele>67.0</ele><time>2026-05-02T06:34:27.443Z</time></trkpt><trkpt lat="44.1649967" lon="12.1259283"><ele>67.0</ele><time>2026-05-02T06:34:30.44Z</time></trkpt><trkpt lat="44.1649333" lon="12.1259683"><ele>67.0</ele><time>2026-05-02T06:34:34.44Z</time></trkpt><trkpt lat="44.16495" lon="12.1260533"><ele>67.0</ele><time>2026-05-02T06:34:38.441Z</time></trkpt><trkpt lat="44.16497" lon="12.1261483"><ele>67.0</ele><time>2026-05-02T06:34:41.441Z</time></trkpt><trkpt lat="44.1649483" lon="12.1262583"><ele>67.0</ele><time>2026-05-02T06:34:44.443Z</time></trkpt><trkpt lat="44.16493" lon="12.126365"><ele>67.0</ele><time>2026-05-02T06:34:47.441Z</time></trkpt><trkpt lat="44.1648767" lon="12.1264283"><ele>68.0</ele><time>2026-05-02T06:34:50.439Z</time></trkpt><trkpt lat="44.1647933" lon="12.1264817"><ele>69.0</ele><time>2026-05-02T06:34:53.439Z</time></trkpt><trkpt lat="44.16474" lon="12.1265333"><ele>70.0</ele><time>2026-05-02T06:34:55.44Z</time></trkpt><trkpt lat="44.164675" lon="12.1265783"><ele>71.0</ele><time>2026-05-02T06:34:57.44Z</time></trkpt><trkpt lat="44.1646183" lon="12.1266233"><ele>72.0</ele><time>2026-05-02T06:34:59.44Z</time></trkpt><trkpt lat="44.16456" lon="12.1266833"><ele>73.0</ele><time>2026-05-02T06:35:03.442Z</time></trkpt><trkpt lat="44.16457" lon="12.1267767"><ele>74.0</ele><time>2026-05-02T06:35:07.44Z</time></trkpt><trkpt lat="44.1646133" lon="12.126845"><ele>74.33333333333334</ele><time>2026-05-02T06:35:10.44Z</time></trkpt><trkpt lat="44.16465" lon="12.1269717"><ele>74.66666666666667</ele><time>2026-05-02T06:35:13.442Z</time></trkpt><trkpt lat="44.1646733" lon="12.1270717"><ele>75.0</ele><time>2026-05-02T06:35:15.443Z</time></trkpt><trkpt lat="44.1646867" lon="12.1271633"><ele>75.33333333333333</ele><time>2026-05-02T06:35:17.443Z</time></trkpt><trkpt lat="44.164715" lon="12.1272783"><ele>75.66666666666666</ele><time>2026-05-02T06:35:20.439Z</time></trkpt><trkpt lat="44.16475" lon="12.12739"><ele>76.0</ele><time>2026-05-02T06:35:23.441Z</time></trkpt><trkpt lat="44.1647733" lon="12.1274733"><ele>74.5</ele><time>2026-05-02T06:35:25.443Z</time></trkpt><trkpt lat="44.1648" lon="12.127575"><ele>73.0</ele><time>2026-05-02T06:35:28.442Z</time></trkpt><trkpt lat="44.1648283" lon="12.1276967"><ele>71.5</ele><time>2026-05-02T06:35:31.439Z</time></trkpt><trkpt lat="44.16485" lon="12.12778"><ele>70.0</ele><time>2026-05-02T06:35:33.439Z</time></trkpt><trkpt lat="44.1648717" lon="12.1278717"><ele>68.5</ele><time>2026-05-02T06:35:35.44Z</time></trkpt><trkpt lat="44.1648833" lon="12.1279617"><ele>67.0</ele><time>2026-05-02T06:35:37.441Z</time></trkpt><trkpt lat="44.1649133" lon="12.1280717"><ele>65.4</ele><time>2026-05-02T06:35:39.442Z</time></trkpt><trkpt lat="44.1649383" lon="12.128185"><ele>63.800000000000004</ele><time>2026-05-02T06:35:41.442Z</time></trkpt><trkpt lat="44.164955" lon="12.1283083"><ele>62.2</ele><time>2026-05-02T06:35:43.44Z</time></trkpt><trkpt lat="44.16498" lon="12.1284317"><ele>60.6</ele><time>2026-05-02T06:35:45.442Z</time></trkpt><trkpt lat="44.1650083" lon="12.1285667"><ele>59.0</ele><time>2026-05-02T06:35:47.439Z</time></trkpt><trkpt lat="44.1650267" lon="12.1286883"><ele>57.400000000000006</ele><time>2026-05-02T06:35:49.439Z</time></trkpt><trkpt lat="44.1650517" lon="12.1287983"><ele>55.800000000000004</ele><time>2026-05-02T06:35:51.439Z</time></trkpt><trkpt lat="44.1650783" lon="12.128905"><ele>54.2</ele><time>2026-05-02T06:35:53.439Z</time></trkpt><trkpt lat="44.1651033" lon="12.1290317"><ele>52.599999999999994</ele><time>2026-05-02T06:35:55.444Z</time></trkpt><trkpt lat="44.1651283" lon="12.1291867"><ele>51.0</ele><time>2026-05-02T06:35:57.443Z</time></trkpt><trkpt lat="44.1651617" lon="12.129335"><ele>49.199999999999996</ele><time>2026-05-02T06:35:59.44Z</time></trkpt><trkpt lat="44.1651867" lon="12.1294817"><ele>47.4</ele><time>2026-05-02T06:36:01.442Z</time></trkpt><trkpt lat="44.1652217" lon="12.129625"><ele>45.6</ele><time>2026-05-02T06:36:03.441Z</time></trkpt><trkpt lat="44.1652667" lon="12.1297767"><ele>43.8</ele><time>2026-05-02T06:36:05.441Z</time></trkpt><trkpt lat="44.1652783" lon="12.1298867"><ele>42.0</ele><time>2026-05-02T06:36:07.443Z</time></trkpt><trkpt lat="44.1653" lon="12.1299917"><ele>41.4</ele><time>2026-05-02T06:36:09.44Z</time></trkpt><trkpt lat="44.1653267" lon="12.13011"><ele>40.800000000000004</ele><time>2026-05-02T06:36:11.44Z</time></trkpt><trkpt lat="44.16536" lon="12.1302317"><ele>40.2</ele><time>2026-05-02T06:36:13.442Z</time></trkpt><trkpt lat="44.1654017" lon="12.1303367"><ele>39.6</ele><time>2026-05-02T06:36:15.442Z</time></trkpt><trkpt lat="44.1654867" lon="12.1303883"><ele>39.0</ele><time>2026-05-02T06:36:17.442Z</time></trkpt><trkpt lat="44.1655817" lon="12.13038"><ele>39.0</ele><time>2026-05-02T06:36:19.44Z</time></trkpt><trkpt lat="44.1656767" lon="12.1303767"><ele>39.0</ele><time>2026-05-02T06:36:21.441Z</time></trkpt><trkpt lat="44.1657783" lon="12.13037"><ele>39.0</ele><time>2026-05-02T06:36:23.44Z</time></trkpt><trkpt lat="44.1658867" lon="12.1303633"><ele>39.0</ele><time>2026-05-02T06:36:25.443Z</time></trkpt><trkpt lat="44.1659933" lon="12.1303717"><ele>39.0</ele><time>2026-05-02T06:36:27.443Z</time></trkpt><trkpt lat="44.1661083" lon="12.1303783"><ele>38.4</ele><time>2026-05-02T06:36:29.44Z</time></trkpt><trkpt lat="44.1662267" lon="12.1303767"><ele>37.8</ele><time>2026-05-02T06:36:31.44Z</time></trkpt><trkpt lat="44.16629" lon="12.1303733"><ele>37.2</ele><time>2026-05-02T06:36:32.442Z</time></trkpt><trkpt lat="44.1664117" lon="12.1303633"><ele>36.6</ele><time>2026-05-02T06:36:34.443Z</time></trkpt><trkpt lat="44.1665217" lon="12.1303583"><ele>36.0</ele><time>2026-05-02T06:36:36.439Z</time></trkpt><trkpt lat="44.1666367" lon="12.1303383"><ele>35.6</ele><time>2026-05-02T06:36:38.442Z</time></trkpt><trkpt lat="44.1667517" lon="12.1303133"><ele>35.2</ele><time>2026-05-02T06:36:40.44Z</time></trkpt><trkpt lat="44.16687" lon="12.1303067"><ele>34.8</ele><time>2026-05-02T06:36:42.443Z</time></trkpt><trkpt lat="44.1669483" lon="12.1304017"><ele>34.4</ele><time>2026-05-02T06:36:44.443Z</time></trkpt><trkpt lat="44.1669533" lon="12.1305017"><ele>34.0</ele><time>2026-05-02T06:36:45.443Z</time></trkpt><trkpt lat="44.1669567" lon="12.130605"><ele>33.99999999999999</ele><time>2026-05-02T06:36:46.442Z</time></trkpt><trkpt lat="44.1669683" lon="12.1307"><ele>34.0</ele><time>2026-05-02T06:36:47.442Z</time></trkpt><trkpt lat="44.1669817" lon="12.1307933"><ele>34.0</ele><time>2026-05-02T06:36:48.442Z</time></trkpt><trkpt lat="44.1669917" lon="12.1308867"><ele>34.0</ele><time>2026-05-02T06:36:49.44Z</time></trkpt><trkpt lat="44.1670017" lon="12.1309783"><ele>34.0</ele><time>2026-05-02T06:36:50.441Z</time></trkpt><trkpt lat="44.1670117" lon="12.1310683"><ele>33.99999999999999</ele><time>2026-05-02T06:36:51.44Z</time></trkpt><trkpt lat="44.1670233" lon="12.1311583"><ele>34.0</ele><time>2026-05-02T06:36:52.439Z</time></trkpt><trkpt lat="44.1670517" lon="12.131325"><ele>33.25</ele><time>2026-05-02T06:36:54.441Z</time></trkpt><trkpt lat="44.1670767" lon="12.1314817"><ele>32.5</ele><time>2026-05-02T06:36:56.443Z</time></trkpt><trkpt lat="44.1670967" lon="12.1316417"><ele>31.75</ele><time>2026-05-02T06:36:58.443Z</time></trkpt><trkpt lat="44.1671183" lon="12.1317933"><ele>31.0</ele><time>2026-05-02T06:37:00.441Z</time></trkpt><trkpt lat="44.16714" lon="12.131945"><ele>31.0</ele><time>2026-05-02T06:37:02.439Z</time></trkpt><trkpt lat="44.167175" lon="12.1320767"><ele>31.0</ele><time>2026-05-02T06:37:04.441Z</time></trkpt><trkpt lat="44.167265" lon="12.1321367"><ele>31.0</ele><time>2026-05-02T06:37:06.441Z</time></trkpt><trkpt lat="44.1673783" lon="12.1321283"><ele>31.0</ele><time>2026-05-02T06:37:08.441Z</time></trkpt><trkpt lat="44.1674833" lon="12.1321733"><ele>31.0</ele><time>2026-05-02T06:37:10.439Z</time></trkpt><trkpt lat="44.167515" lon="12.13232"><ele>31.25</ele><time>2026-05-02T06:37:12.44Z</time></trkpt><trkpt lat="44.1675333" lon="12.1324833"><ele>31.5</ele><time>2026-05-02T06:37:14.439Z</time></trkpt><trkpt lat="44.1675467" lon="12.1326417"><ele>31.75</ele><time>2026-05-02T06:37:16.443Z</time></trkpt><trkpt lat="44.1675733" lon="12.1327933"><ele>32.0</ele><time>2026-05-02T06:37:18.441Z</time></trkpt><trkpt lat="44.1676017" lon="12.1329433"><ele>32.0</ele><time>2026-05-02T06:37:20.441Z</time></trkpt><trkpt lat="44.16762" lon="12.1331017"><ele>32.0</ele><time>2026-05-02T06:37:22.441Z</time></trkpt><trkpt lat="44.167645" lon="12.1332517"><ele>32.0</ele><time>2026-05-02T06:37:24.441Z</time></trkpt><trkpt lat="44.167665" lon="12.1334033"><ele>32.0</ele><time>2026-05-02T06:37:26.441Z</time></trkpt><trkpt lat="44.16769" lon="12.1335433"><ele>32.0</ele><time>2026-05-02T06:37:28.443Z</time></trkpt><trkpt lat="44.16771" lon="12.13368"><ele>32.0</ele><time>2026-05-02T06:37:30.44Z</time></trkpt><trkpt lat="44.1677283" lon="12.1338083"><ele>32.0</ele><time>2026-05-02T06:37:32.44Z</time></trkpt><trkpt lat="44.167755" lon="12.13393"><ele>32.0</ele><time>2026-05-02T06:37:34.44Z</time></trkpt><trkpt lat="44.16778" lon="12.1340583"><ele>32.0</ele><time>2026-05-02T06:37:36.441Z</time></trkpt><trkpt lat="44.167805" lon="12.1341883"><ele>32.0</ele><time>2026-05-02T06:37:38.44Z</time></trkpt><trkpt lat="44.1678233" lon="12.1343217"><ele>32.0</ele><time>2026-05-02T06:37:40.44Z</time></trkpt><trkpt lat="44.1678383" lon="12.1344567"><ele>32.0</ele><time>2026-05-02T06:37:42.44Z</time></trkpt><trkpt lat="44.16786" lon="12.13459"><ele>32.0</ele><time>2026-05-02T06:37:44.441Z</time></trkpt><trkpt lat="44.1678767" lon="12.1347267"><ele>32.0</ele><time>2026-05-02T06:37:46.44Z</time></trkpt><trkpt lat="44.1678933" lon="12.1348617"><ele>32.0</ele><time>2026-05-02T06:37:48.44Z</time></trkpt><trkpt lat="44.1679117" lon="12.1349967"><ele>31.833333333333332</ele><time>2026-05-02T06:37:50.441Z</time></trkpt><trkpt lat="44.16793" lon="12.1351133"><ele>31.666666666666664</ele><time>2026-05-02T06:37:52.44Z</time></trkpt><trkpt lat="44.1679417" lon="12.1352367"><ele>31.5</ele><time>2026-05-02T06:37:54.44Z</time></trkpt><trkpt lat="44.1679483" lon="12.135355"><ele>31.333333333333336</ele><time>2026-05-02T06:37:56.441Z</time></trkpt><trkpt lat="44.1679633" lon="12.1354767"><ele>31.166666666666668</ele><time>2026-05-02T06:37:58.439Z</time></trkpt><trkpt lat="44.16798" lon="12.1355867"><ele>31.0</ele><time>2026-05-02T06:38:00.441Z</time></trkpt><trkpt lat="44.1679967" lon="12.1356983"><ele>31.166666666666668</ele><time>2026-05-02T06:38:02.441Z</time></trkpt><trkpt lat="44.16801" lon="12.1358133"><ele>31.333333333333336</ele><time>2026-05-02T06:38:04.44Z</time></trkpt><trkpt lat="44.1680167" lon="12.135925"><ele>31.5</ele><time>2026-05-02T06:38:06.44Z</time></trkpt><trkpt lat="44.1680283" lon="12.1360433"><ele>31.666666666666664</ele><time>2026-05-02T06:38:08.441Z</time></trkpt><trkpt lat="44.1680417" lon="12.1361633"><ele>31.833333333333332</ele><time>2026-05-02T06:38:10.442Z</time></trkpt><trkpt lat="44.1680517" lon="12.136285"><ele>32.0</ele><time>2026-05-02T06:38:12.443Z</time></trkpt><trkpt lat="44.16807" lon="12.1364067"><ele>31.999999999999996</ele><time>2026-05-02T06:38:14.442Z</time></trkpt><trkpt lat="44.1681017" lon="12.1365267"><ele>32.0</ele><time>2026-05-02T06:38:16.443Z</time></trkpt><trkpt lat="44.16812" lon="12.136635"><ele>32.0</ele><time>2026-05-02T06:38:18.443Z</time></trkpt><trkpt lat="44.168065" lon="12.1367133"><ele>32.0</ele><time>2026-05-02T06:38:21.442Z</time></trkpt><trkpt lat="44.1679883" lon="12.1366983"><ele>31.999999999999996</ele><time>2026-05-02T06:38:24.443Z</time></trkpt><trkpt lat="44.1679183" lon="12.1366967"><ele>32.0</ele><time>2026-05-02T06:38:27.443Z</time></trkpt><trkpt lat="44.1678467" lon="12.1366783"><ele>32.14285714285714</ele><time>2026-05-02T06:38:30.44Z</time></trkpt><trkpt lat="44.1677767" lon="12.136675"><ele>32.285714285714285</ele><time>2026-05-02T06:38:33.443Z</time></trkpt><trkpt lat="44.1677" lon="12.136675"><ele>32.42857142857143</ele><time>2026-05-02T06:38:37.443Z</time></trkpt><trkpt lat="44.1676217" lon="12.13668"><ele>32.57142857142857</ele><time>2026-05-02T06:38:41.443Z</time></trkpt><trkpt lat="44.167545" lon="12.13668"><ele>32.714285714285715</ele><time>2026-05-02T06:38:45.443Z</time></trkpt><trkpt lat="44.16748" lon="12.136685"><ele>32.857142857142854</ele><time>2026-05-02T06:38:48.443Z</time></trkpt><trkpt lat="44.1674" lon="12.1366783"><ele>33.0</ele><time>2026-05-02T06:38:52.443Z</time></trkpt><trkpt lat="44.167335" lon="12.1366917"><ele>33.714285714285715</ele><time>2026-05-02T06:38:55.439Z</time></trkpt><trkpt lat="44.16726" lon="12.1367017"><ele>34.42857142857143</ele><time>2026-05-02T06:38:59.444Z</time></trkpt><trkpt lat="44.1671867" lon="12.1367067"><ele>35.14285714285714</ele><time>2026-05-02T06:39:03.44Z</time></trkpt><trkpt lat="44.1671133" lon="12.1367417"><ele>35.85714285714286</ele><time>2026-05-02T06:39:07.444Z</time></trkpt><trkpt lat="44.16704" lon="12.136765"><ele>36.57142857142858</ele><time>2026-05-02T06:39:11.443Z</time></trkpt><trkpt lat="44.1669733" lon="12.1367833"><ele>37.285714285714285</ele><time>2026-05-02T06:39:15.441Z</time></trkpt><trkpt lat="44.1668983" lon="12.1368133"><ele>38.0</ele><time>2026-05-02T06:39:19.439Z</time></trkpt><trkpt lat="44.1668367" lon="12.136855"><ele>38.0</ele><time>2026-05-02T06:39:23.439Z</time></trkpt><trkpt lat="44.1667733" lon="12.13689"><ele>38.0</ele><time>2026-05-02T06:39:27.44Z</time></trkpt><trkpt lat="44.1667083" lon="12.13692"><ele>38.0</ele><time>2026-05-02T06:39:31.44Z</time></trkpt><trkpt lat="44.16664" lon="12.1369567"><ele>38.0</ele><time>2026-05-02T06:39:35.439Z</time></trkpt><trkpt lat="44.16657" lon="12.13699"><ele>38.0</ele><time>2026-05-02T06:39:39.44Z</time></trkpt><trkpt lat="44.1665" lon="12.1370233"><ele>38.0</ele><time>2026-05-02T06:39:43.44Z</time></trkpt><trkpt lat="44.1664317" lon="12.1370433"><ele>38.0</ele><time>2026-05-02T06:39:47.441Z</time></trkpt><trkpt lat="44.166365" lon="12.1370817"><ele>38.714285714285715</ele><time>2026-05-02T06:39:51.44Z</time></trkpt><trkpt lat="44.1662983" lon="12.1371183"><ele>39.42857142857143</ele><time>2026-05-02T06:39:55.439Z</time></trkpt><trkpt lat="44.1662283" lon="12.1371467"><ele>40.142857142857146</ele><time>2026-05-02T06:39:59.439Z</time></trkpt><trkpt lat="44.166165" lon="12.137155"><ele>40.85714285714286</ele><time>2026-05-02T06:40:02.44Z</time></trkpt><trkpt lat="44.166085" lon="12.137155"><ele>41.57142857142857</ele><time>2026-05-02T06:40:06.439Z</time></trkpt><trkpt lat="44.1660083" lon="12.13718"><ele>42.28571428571429</ele><time>2026-05-02T06:40:10.441Z</time></trkpt><trkpt lat="44.1659467" lon="12.1372033"><ele>43.0</ele><time>2026-05-02T06:40:13.44Z</time></trkpt><trkpt lat="44.1658767" lon="12.13722"><ele>43.0</ele><time>2026-05-02T06:40:16.443Z</time></trkpt><trkpt lat="44.1658017" lon="12.137235"><ele>43.0</ele><time>2026-05-02T06:40:19.439Z</time></trkpt><trkpt lat="44.1657233" lon="12.1372483"><ele>43.0</ele><time>2026-05-02T06:40:22.439Z</time></trkpt><trkpt lat="44.16565" lon="12.1372667"><ele>43.0</ele><time>2026-05-02T06:40:25.439Z</time></trkpt><trkpt lat="44.165575" lon="12.137285"><ele>43.0</ele><time>2026-05-02T06:40:28.438Z</time></trkpt><trkpt lat="44.1655" lon="12.1372983"><ele>43.0</ele><time>2026-05-02T06:40:31.441Z</time></trkpt><trkpt lat="44.16542" lon="12.13731"><ele>43.0</ele><time>2026-05-02T06:40:34.442Z</time></trkpt><trkpt lat="44.16534" lon="12.1373167"><ele>43.0</ele><time>2026-05-02T06:40:37.441Z</time></trkpt><trkpt lat="44.16526" lon="12.1373167"><ele>43.0</ele><time>2026-05-02T06:40:40.442Z</time></trkpt><trkpt lat="44.1651833" lon="12.1373083"><ele>43.0</ele><time>2026-05-02T06:40:43.442Z</time></trkpt><trkpt lat="44.1650983" lon="12.13727"><ele>43.0</ele><time>2026-05-02T06:40:46.442Z</time></trkpt><trkpt lat="44.1650367" lon="12.1372383"><ele>43.0</ele><time>2026-05-02T06:40:48.438Z</time></trkpt><trkpt lat="44.1649717" lon="12.1371983"><ele>43.0</ele><time>2026-05-02T06:40:50.44Z</time></trkpt><trkpt lat="44.1648983" lon="12.137155"><ele>43.0</ele><time>2026-05-02T06:40:52.438Z</time></trkpt><trkpt lat="44.1648217" lon="12.1371117"><ele>43.0</ele><time>2026-05-02T06:40:54.44Z</time></trkpt><trkpt lat="44.164735" lon="12.137065"><ele>43.0</ele><time>2026-05-02T06:40:56.44Z</time></trkpt><trkpt lat="44.1646417" lon="12.1370133"><ele>43.0</ele><time>2026-05-02T06:40:58.439Z</time></trkpt><trkpt lat="44.1645417" lon="12.1369617"><ele>42.8</ele><time>2026-05-02T06:41:00.44Z</time></trkpt><trkpt lat="44.16443" lon="12.1369083"><ele>42.599999999999994</ele><time>2026-05-02T06:41:02.442Z</time></trkpt><trkpt lat="44.1643133" lon="12.13685"><ele>42.400000000000006</ele><time>2026-05-02T06:41:04.441Z</time></trkpt><trkpt lat="44.1642483" lon="12.1368217"><ele>42.2</ele><time>2026-05-02T06:41:05.443Z</time></trkpt><trkpt lat="44.16418" lon="12.136795"><ele>42.0</ele><time>2026-05-02T06:41:06.44Z</time></trkpt><trkpt lat="44.1641117" lon="12.1367683"><ele>42.0</ele><time>2026-05-02T06:41:07.44Z</time></trkpt><trkpt lat="44.1640433" lon="12.136735"><ele>42.0</ele><time>2026-05-02T06:41:08.442Z</time></trkpt><trkpt lat="44.1639717" lon="12.1367033"><ele>42.0</ele><time>2026-05-02T06:41:09.442Z</time></trkpt><trkpt lat="44.1639033" lon="12.1366717"><ele>42.0</ele><time>2026-05-02T06:41:10.439Z</time></trkpt><trkpt lat="44.1638367" lon="12.1366383"><ele>42.0</ele><time>2026-05-02T06:41:11.442Z</time></trkpt><trkpt lat="44.163765" lon="12.136605"><ele>42.0</ele><time>2026-05-02T06:41:12.44Z</time></trkpt><trkpt lat="44.1636917" lon="12.1365683"><ele>42.0</ele><time>2026-05-02T06:41:13.44Z</time></trkpt><trkpt lat="44.1636167" lon="12.1365317"><ele>41.833333333333336</ele><time>2026-05-02T06:41:14.44Z</time></trkpt><trkpt lat="44.16354" lon="12.1365"><ele>41.666666666666664</ele><time>2026-05-02T06:41:15.44Z</time></trkpt><trkpt lat="44.163465" lon="12.1364667"><ele>41.5</ele><time>2026-05-02T06:41:16.44Z</time></trkpt><trkpt lat="44.16339" lon="12.1364317"><ele>41.33333333333333</ele><time>2026-05-02T06:41:17.439Z</time></trkpt><trkpt lat="44.1633183" lon="12.1364"><ele>41.166666666666664</ele><time>2026-05-02T06:41:18.44Z</time></trkpt><trkpt lat="44.163245" lon="12.1363733"><ele>41.0</ele><time>2026-05-02T06:41:19.44Z</time></trkpt><trkpt lat="44.163175" lon="12.1363483"><ele>41.0</ele><time>2026-05-02T06:41:20.439Z</time></trkpt><trkpt lat="44.1631067" lon="12.1363217"><ele>41.0</ele><time>2026-05-02T06:41:21.44Z</time></trkpt><trkpt lat="44.16304" lon="12.1362917"><ele>41.0</ele><time>2026-05-02T06:41:22.441Z</time></trkpt><trkpt lat="44.16298" lon="12.1362583"><ele>41.0</ele><time>2026-05-02T06:41:23.44Z</time></trkpt><trkpt lat="44.16287" lon="12.1362"><ele>41.0</ele><time>2026-05-02T06:41:25.442Z</time></trkpt><trkpt lat="44.1627733" lon="12.1361517"><ele>41.0</ele><time>2026-05-02T06:41:27.44Z</time></trkpt><trkpt lat="44.16268" lon="12.1361017"><ele>41.0</ele><time>2026-05-02T06:41:29.439Z</time></trkpt><trkpt lat="44.1625967" lon="12.1360617"><ele>41.0</ele><time>2026-05-02T06:41:31.441Z</time></trkpt><trkpt lat="44.1625183" lon="12.1360267"><ele>41.0</ele><time>2026-05-02T06:41:33.44Z</time></trkpt><trkpt lat="44.16244" lon="12.1359883"><ele>41.0</ele><time>2026-05-02T06:41:35.439Z</time></trkpt><trkpt lat="44.1623717" lon="12.135955"><ele>41.0</ele><time>2026-05-02T06:41:37.442Z</time></trkpt><trkpt lat="44.1623" lon="12.1359183"><ele>41.0</ele><time>2026-05-02T06:41:39.44Z</time></trkpt><trkpt lat="44.1622267" lon="12.1358967"><ele>41.285714285714285</ele><time>2026-05-02T06:41:41.44Z</time></trkpt><trkpt lat="44.1621567" lon="12.1358733"><ele>41.57142857142857</ele><time>2026-05-02T06:41:43.442Z</time></trkpt><trkpt lat="44.1620867" lon="12.1358417"><ele>41.85714285714286</ele><time>2026-05-02T06:41:45.442Z</time></trkpt><trkpt lat="44.16202" lon="12.13582"><ele>42.14285714285714</ele><time>2026-05-02T06:41:47.442Z</time></trkpt><trkpt lat="44.1619533" lon="12.135795"><ele>42.42857142857143</ele><time>2026-05-02T06:41:49.439Z</time></trkpt><trkpt lat="44.1618833" lon="12.1357667"><ele>42.714285714285715</ele><time>2026-05-02T06:41:51.441Z</time></trkpt><trkpt lat="44.161815" lon="12.135755"><ele>43.0</ele><time>2026-05-02T06:41:53.439Z</time></trkpt><trkpt lat="44.16175" lon="12.1357433"><ele>43.00000000000001</ele><time>2026-05-02T06:41:55.442Z</time></trkpt><trkpt lat="44.161685" lon="12.1357217"><ele>43.0</ele><time>2026-05-02T06:41:57.44Z</time></trkpt><trkpt lat="44.16162" lon="12.1356967"><ele>43.0</ele><time>2026-05-02T06:41:59.439Z</time></trkpt><trkpt lat="44.16155" lon="12.13569"><ele>43.0</ele><time>2026-05-02T06:42:01.439Z</time></trkpt><trkpt lat="44.1614867" lon="12.1356767"><ele>43.0</ele><time>2026-05-02T06:42:03.439Z</time></trkpt><trkpt lat="44.1614233" lon="12.1356683"><ele>43.00000000000001</ele><time>2026-05-02T06:42:05.442Z</time></trkpt><trkpt lat="44.1613583" lon="12.1356617"><ele>43.0</ele><time>2026-05-02T06:42:07.442Z</time></trkpt><trkpt lat="44.161295" lon="12.135645"><ele>43.333333333333336</ele><time>2026-05-02T06:42:09.442Z</time></trkpt><trkpt lat="44.1612317" lon="12.135635"><ele>43.66666666666667</ele><time>2026-05-02T06:42:11.442Z</time></trkpt><trkpt lat="44.1611383" lon="12.1356283"><ele>44.0</ele><time>2026-05-02T06:42:14.441Z</time></trkpt><trkpt lat="44.1610483" lon="12.13562"><ele>44.333333333333336</ele><time>2026-05-02T06:42:17.442Z</time></trkpt><trkpt lat="44.160965" lon="12.1356167"><ele>44.666666666666664</ele><time>2026-05-02T06:42:20.442Z</time></trkpt><trkpt lat="44.160885" lon="12.1356017"><ele>45.0</ele><time>2026-05-02T06:42:23.443Z</time></trkpt><trkpt lat="44.16082" lon="12.1356"><ele>45.0</ele><time>2026-05-02T06:42:26.442Z</time></trkpt><trkpt lat="44.1607483" lon="12.1355917"><ele>45.0</ele><time>2026-05-02T06:42:30.441Z</time></trkpt><trkpt lat="44.1606767" lon="12.1356383"><ele>45.0</ele><time>2026-05-02T06:42:34.443Z</time></trkpt><trkpt lat="44.1605983" lon="12.135675"><ele>45.0</ele><time>2026-05-02T06:42:38.443Z</time></trkpt><trkpt lat="44.160535" lon="12.1356983"><ele>45.0</ele><time>2026-05-02T06:42:41.438Z</time></trkpt><trkpt lat="44.1604717" lon="12.1357233"><ele>45.0</ele><time>2026-05-02T06:42:44.442Z</time></trkpt><trkpt lat="44.1604033" lon="12.1357567"><ele>45.0</ele><time>2026-05-02T06:42:47.442Z</time></trkpt><trkpt lat="44.1603267" lon="12.13578"><ele>46.0</ele><time>2026-05-02T06:42:51.442Z</time></trkpt><trkpt lat="44.1602633" lon="12.1358"><ele>47.0</ele><time>2026-05-02T06:42:54.442Z</time></trkpt><trkpt lat="44.1601817" lon="12.1358067"><ele>48.0</ele><time>2026-05-02T06:42:58.442Z</time></trkpt><trkpt lat="44.16011" lon="12.13582"><ele>49.0</ele><time>2026-05-02T06:43:02.443Z</time></trkpt><trkpt lat="44.1600467" lon="12.135825"><ele>50.0</ele><time>2026-05-02T06:43:05.441Z</time></trkpt><trkpt lat="44.1599833" lon="12.135835"><ele>51.0</ele><time>2026-05-02T06:43:08.44Z</time></trkpt><trkpt lat="44.1599067" lon="12.1358583"><ele>52.0</ele><time>2026-05-02T06:43:12.441Z</time></trkpt><trkpt lat="44.159845" lon="12.1358833"><ele>52.57142857142857</ele><time>2026-05-02T06:43:15.442Z</time></trkpt><trkpt lat="44.1597617" lon="12.1358967"><ele>53.142857142857146</ele><time>2026-05-02T06:43:19.441Z</time></trkpt><trkpt lat="44.159695" lon="12.135915"><ele>53.714285714285715</ele><time>2026-05-02T06:43:22.441Z</time></trkpt><trkpt lat="44.1596317" lon="12.1359367"><ele>54.285714285714285</ele><time>2026-05-02T06:43:25.443Z</time></trkpt><trkpt lat="44.1595617" lon="12.1359717"><ele>54.85714285714286</ele><time>2026-05-02T06:43:28.442Z</time></trkpt><trkpt lat="44.1594983" lon="12.136"><ele>55.42857142857143</ele><time>2026-05-02T06:43:31.443Z</time></trkpt><trkpt lat="44.159425" lon="12.1360367"><ele>56.0</ele><time>2026-05-02T06:43:35.442Z</time></trkpt><trkpt lat="44.1593533" lon="12.1360617"><ele>56.0</ele><time>2026-05-02T06:43:39.442Z</time></trkpt><trkpt lat="44.1592867" lon="12.1360983"><ele>56.0</ele><time>2026-05-02T06:43:43.442Z</time></trkpt><trkpt lat="44.159205" lon="12.1361233"><ele>56.0</ele><time>2026-05-02T06:43:47.442Z</time></trkpt><trkpt lat="44.1591317" lon="12.1361467"><ele>56.0</ele><time>2026-05-02T06:43:52.441Z</time></trkpt><trkpt lat="44.1590617" lon="12.1361683"><ele>56.0</ele><time>2026-05-02T06:43:57.442Z</time></trkpt><trkpt lat="44.15899" lon="12.136195"><ele>56.0</ele><time>2026-05-02T06:44:03.441Z</time></trkpt><trkpt lat="44.1589267" lon="12.1362317"><ele>56.0</ele><time>2026-05-02T06:44:09.442Z</time></trkpt><trkpt lat="44.1588583" lon="12.1362567"><ele>58.66666666666667</ele><time>2026-05-02T06:44:15.442Z</time></trkpt><trkpt lat="44.1587833" lon="12.1362533"><ele>61.333333333333336</ele><time>2026-05-02T06:44:21.439Z</time></trkpt><trkpt lat="44.15871" lon="12.1362817"><ele>64.0</ele><time>2026-05-02T06:44:27.442Z</time></trkpt><trkpt lat="44.1586417" lon="12.1362717"><ele>66.66666666666667</ele><time>2026-05-02T06:44:33.441Z</time></trkpt><trkpt lat="44.1585383" lon="12.1362533"><ele>69.33333333333333</ele><time>2026-05-02T06:44:43.439Z</time></trkpt><trkpt lat="44.158475" lon="12.1362367"><ele>72.0</ele><time>2026-05-02T06:44:48.439Z</time></trkpt><trkpt lat="44.1584067" lon="12.13622"><ele>72.0</ele><time>2026-05-02T06:44:54.44Z</time></trkpt><trkpt lat="44.1582667" lon="12.1361433"><ele>72.0</ele><time>2026-05-02T06:45:09.439Z</time></trkpt><trkpt lat="44.1582" lon="12.1361417"><ele>72.0</ele><time>2026-05-02T06:45:14.44Z</time></trkpt><trkpt lat="44.1581217" lon="12.1361517"><ele>72.0</ele><time>2026-05-02T06:45:23.44Z</time></trkpt><trkpt lat="44.1580333" lon="12.1362217"><ele>72.0</ele><time>2026-05-02T06:45:38.439Z</time></trkpt><trkpt lat="44.1579967" lon="12.136335"><ele>74.14285714285715</ele><time>2026-05-02T06:45:48.441Z</time></trkpt><trkpt lat="44.1579683" lon="12.1364533"><ele>76.28571428571429</ele><time>2026-05-02T06:45:56.441Z</time></trkpt><trkpt lat="44.15795" lon="12.1365467"><ele>78.42857142857143</ele><time>2026-05-02T06:46:02.44Z</time></trkpt><trkpt lat="44.15794" lon="12.1366417"><ele>80.57142857142858</ele><time>2026-05-02T06:46:07.441Z</time></trkpt><trkpt lat="44.157905" lon="12.1367267"><ele>82.71428571428572</ele><time>2026-05-02T06:46:13.44Z</time></trkpt><trkpt lat="44.1578733" lon="12.136805"><ele>84.85714285714286</ele><time>2026-05-02T06:46:19.44Z</time></trkpt><trkpt lat="44.157835" lon="12.1368883"><ele>87.0</ele><time>2026-05-02T06:46:26.439Z</time></trkpt><trkpt lat="44.1578" lon="12.13703"><ele>87.85714285714286</ele><time>2026-05-02T06:46:36.44Z</time></trkpt><trkpt lat="44.1577533" lon="12.1371033"><ele>88.71428571428572</ele><time>2026-05-02T06:46:41.44Z</time></trkpt><trkpt lat="44.15772" lon="12.13722"><ele>89.57142857142858</ele><time>2026-05-02T06:46:50.441Z</time></trkpt><trkpt lat="44.1576767" lon="12.1372917"><ele>90.42857142857143</ele><time>2026-05-02T06:46:54.44Z</time></trkpt><trkpt lat="44.1576283" lon="12.137355"><ele>91.28571428571429</ele><time>2026-05-02T06:46:59.44Z</time></trkpt><trkpt lat="44.1575833" lon="12.1374167"><ele>92.14285714285715</ele><time>2026-05-02T06:47:04.439Z</time></trkpt><trkpt lat="44.1575267" lon="12.1374717"><ele>93.0</ele><time>2026-05-02T06:47:10.439Z</time></trkpt><trkpt lat="44.1574667" lon="12.1375"><ele>93.0</ele><time>2026-05-02T06:47:15.441Z</time></trkpt><trkpt lat="44.1573733" lon="12.13749"><ele>93.0</ele><time>2026-05-02T06:47:22.44Z</time></trkpt><trkpt lat="44.1573017" lon="12.137515"><ele>93.0</ele><time>2026-05-02T06:47:28.439Z</time></trkpt><trkpt lat="44.1572317" lon="12.1375033"><ele>93.0</ele><time>2026-05-02T06:47:35.44Z</time></trkpt><trkpt lat="44.157165" lon="12.1374583"><ele>93.0</ele><time>2026-05-02T06:47:41.441Z</time></trkpt><trkpt lat="44.1571" lon="12.1373833"><ele>93.0</ele><time>2026-05-02T06:47:48.44Z</time></trkpt><trkpt lat="44.1570383" lon="12.13729"><ele>94.85714285714286</ele><time>2026-05-02T06:47:56.44Z</time></trkpt><trkpt lat="44.1569833" lon="12.1372417"><ele>96.71428571428572</ele><time>2026-05-02T06:48:02.439Z</time></trkpt><trkpt lat="44.1569267" lon="12.137185"><ele>98.57142857142858</ele><time>2026-05-02T06:48:07.439Z</time></trkpt><trkpt lat="44.156855" lon="12.1371517"><ele>100.42857142857143</ele><time>2026-05-02T06:48:12.44Z</time></trkpt><trkpt lat="44.1568017" lon="12.1370883"><ele>102.28571428571428</ele><time>2026-05-02T06:48:18.44Z</time></trkpt><trkpt lat="44.1567533" lon="12.137015"><ele>104.14285714285715</ele><time>2026-05-02T06:48:24.44Z</time></trkpt><trkpt lat="44.1567" lon="12.136965"><ele>106.0</ele><time>2026-05-02T06:48:29.439Z</time></trkpt><trkpt lat="44.1566167" lon="12.1368883"><ele>106.00000000000001</ele><time>2026-05-02T06:48:38.44Z</time></trkpt><trkpt lat="44.156565" lon="12.13683"><ele>106.0</ele><time>2026-05-02T06:48:44.44Z</time></trkpt><trkpt lat="44.1565117" lon="12.1367733"><ele>106.0</ele><time>2026-05-02T06:48:49.441Z</time></trkpt><trkpt lat="44.15641" lon="12.1366433"><ele>106.0</ele><time>2026-05-02T06:49:00.441Z</time></trkpt><trkpt lat="44.1563567" lon="12.1365867"><ele>106.00000000000001</ele><time>2026-05-02T06:49:05.441Z</time></trkpt><trkpt lat="44.156305" lon="12.136525"><ele>106.0</ele><time>2026-05-02T06:49:10.443Z</time></trkpt><trkpt lat="44.1562533" lon="12.1364633"><ele>107.42857142857143</ele><time>2026-05-02T06:49:15.439Z</time></trkpt><trkpt lat="44.156205" lon="12.1364"><ele>108.85714285714286</ele><time>2026-05-02T06:49:20.439Z</time></trkpt><trkpt lat="44.1561483" lon="12.1363483"><ele>110.28571428571429</ele><time>2026-05-02T06:49:25.443Z</time></trkpt><trkpt lat="44.1560983" lon="12.136275"><ele>111.71428571428572</ele><time>2026-05-02T06:49:30.44Z</time></trkpt><trkpt lat="44.1560583" lon="12.1362017"><ele>113.14285714285714</ele><time>2026-05-02T06:49:34.438Z</time></trkpt><trkpt lat="44.1560083" lon="12.1361183"><ele>114.57142857142858</ele><time>2026-05-02T06:49:39.44Z</time></trkpt><trkpt lat="44.1559533" lon="12.1360583"><ele>116.00000000000001</ele><time>2026-05-02T06:49:43.439Z</time></trkpt><trkpt lat="44.1558933" lon="12.1360083"><ele>116.00000000000001</ele><time>2026-05-02T06:49:49.439Z</time></trkpt><trkpt lat="44.1558417" lon="12.1359467"><ele>116.0</ele><time>2026-05-02T06:49:55.44Z</time></trkpt><trkpt lat="44.1557867" lon="12.1359017"><ele>116.00000000000001</ele><time>2026-05-02T06:50:00.442Z</time></trkpt><trkpt lat="44.1557033" lon="12.135875"><ele>116.00000000000001</ele><time>2026-05-02T06:50:09.443Z</time></trkpt><trkpt lat="44.1556383" lon="12.1358383"><ele>116.0</ele><time>2026-05-02T06:50:14.443Z</time></trkpt><trkpt lat="44.15557" lon="12.13583"><ele>116.00000000000001</ele><time>2026-05-02T06:50:20.443Z</time></trkpt><trkpt lat="44.1554867" lon="12.1358267"><ele>116.00000000000001</ele><time>2026-05-02T06:50:28.441Z</time></trkpt><trkpt lat="44.1554233" lon="12.1358067"><ele>117.66666666666666</ele><time>2026-05-02T06:50:35.441Z</time></trkpt><trkpt lat="44.15534" lon="12.1358183"><ele>119.33333333333333</ele><time>2026-05-02T06:50:42.442Z</time></trkpt><trkpt lat="44.1552667" lon="12.1358183"><ele>121.0</ele><time>2026-05-02T06:50:51.443Z</time></trkpt><trkpt lat="44.1551683" lon="12.1358517"><ele>122.66666666666666</ele><time>2026-05-02T06:51:00.443Z</time></trkpt><trkpt lat="44.1551117" lon="12.1358967"><ele>124.33333333333333</ele><time>2026-05-02T06:51:06.441Z</time></trkpt><trkpt lat="44.1550217" lon="12.135945"><ele>126.0</ele><time>2026-05-02T06:51:16.441Z</time></trkpt><trkpt lat="44.1549433" lon="12.1359517"><ele>126.0</ele><time>2026-05-02T06:51:23.441Z</time></trkpt><trkpt lat="44.154885" lon="12.1359933"><ele>126.0</ele><time>2026-05-02T06:51:28.442Z</time></trkpt><trkpt lat="44.154815" lon="12.136015"><ele>126.0</ele><time>2026-05-02T06:51:33.44Z</time></trkpt><trkpt lat="44.1547567" lon="12.1360767"><ele>126.0</ele><time>2026-05-02T06:51:38.441Z</time></trkpt><trkpt lat="44.1547" lon="12.136115"><ele>126.0</ele><time>2026-05-02T06:51:42.441Z</time></trkpt><trkpt lat="44.1546317" lon="12.1361733"><ele>126.0</ele><time>2026-05-02T06:53:18.442Z</time></trkpt><trkpt lat="44.1545817" lon="12.1362367"><ele>126.0</ele><time>2026-05-02T06:53:21.442Z</time></trkpt><trkpt lat="44.1545167" lon="12.1363"><ele>126.28571428571428</ele><time>2026-05-02T06:53:25.443Z</time></trkpt><trkpt lat="44.154435" lon="12.136335"><ele>126.57142857142857</ele><time>2026-05-02T06:53:29.441Z</time></trkpt><trkpt lat="44.15437" lon="12.13636"><ele>126.85714285714286</ele><time>2026-05-02T06:53:32.442Z</time></trkpt><trkpt lat="44.154305" lon="12.1363817"><ele>127.14285714285714</ele><time>2026-05-02T06:53:35.443Z</time></trkpt><trkpt lat="44.154225" lon="12.1363883"><ele>127.42857142857142</ele><time>2026-05-02T06:53:39.439Z</time></trkpt><trkpt lat="44.154155" lon="12.136405"><ele>127.71428571428571</ele><time>2026-05-02T06:53:44.439Z</time></trkpt><trkpt lat="44.1540833" lon="12.1364333"><ele>128.0</ele><time>2026-05-02T06:53:48.443Z</time></trkpt><trkpt lat="44.15401" lon="12.1364483"><ele>129.0</ele><time>2026-05-02T06:53:53.442Z</time></trkpt><trkpt lat="44.1539467" lon="12.13647"><ele>130.0</ele><time>2026-05-02T06:53:58.442Z</time></trkpt><trkpt lat="44.1538717" lon="12.1364733"><ele>131.0</ele><time>2026-05-02T06:54:03.44Z</time></trkpt><trkpt lat="44.1537967" lon="12.1364917"><ele>132.0</ele><time>2026-05-02T06:54:09.442Z</time></trkpt><trkpt lat="44.1537233" lon="12.1365167"><ele>133.0</ele><time>2026-05-02T06:54:14.439Z</time></trkpt><trkpt lat="44.1536583" lon="12.1365283"><ele>134.0</ele><time>2026-05-02T06:54:19.439Z</time></trkpt><trkpt lat="44.1535883" lon="12.1365367"><ele>135.0</ele><time>2026-05-02T06:54:25.44Z</time></trkpt><trkpt lat="44.1535183" lon="12.1365383"><ele>135.0</ele><time>2026-05-02T06:54:30.439Z</time></trkpt><trkpt lat="44.1534533" lon="12.1365433"><ele>135.0</ele><time>2026-05-02T06:54:35.44Z</time></trkpt><trkpt lat="44.1533833" lon="12.1365467"><ele>135.0</ele><time>2026-05-02T06:54:40.44Z</time></trkpt><trkpt lat="44.1533217" lon="12.1365667"><ele>135.0</ele><time>2026-05-02T06:54:44.439Z</time></trkpt><trkpt lat="44.1532383" lon="12.13657"><ele>135.0</ele><time>2026-05-02T06:54:51.44Z</time></trkpt><trkpt lat="44.153175" lon="12.1365883"><ele>135.0</ele><time>2026-05-02T06:54:56.442Z</time></trkpt><trkpt lat="44.1531" lon="12.1365817"><ele>135.0</ele><time>2026-05-02T06:55:02.44Z</time></trkpt><trkpt lat="44.15303" lon="12.1365967"><ele>137.71428571428572</ele><time>2026-05-02T06:55:07.44Z</time></trkpt><trkpt lat="44.1529633" lon="12.1366017"><ele>140.42857142857142</ele><time>2026-05-02T06:55:12.442Z</time></trkpt><trkpt lat="44.152905" lon="12.136635"><ele>143.14285714285714</ele><time>2026-05-02T06:55:17.441Z</time></trkpt><trkpt lat="44.1528467" lon="12.1366817"><ele>145.85714285714286</ele><time>2026-05-02T06:55:22.442Z</time></trkpt><trkpt lat="44.1527983" lon="12.13674"><ele>148.57142857142856</ele><time>2026-05-02T06:55:28.442Z</time></trkpt><trkpt lat="44.152755" lon="12.136815"><ele>151.28571428571428</ele><time>2026-05-02T06:55:33.441Z</time></trkpt><trkpt lat="44.1527267" lon="12.1368983"><ele>154.0</ele><time>2026-05-02T06:55:39.44Z</time></trkpt><trkpt lat="44.152685" lon="12.13697"><ele>154.0</ele><time>2026-05-02T06:55:44.442Z</time></trkpt><trkpt lat="44.1526267" lon="12.1370233"><ele>154.0</ele><time>2026-05-02T06:55:49.441Z</time></trkpt><trkpt lat="44.1525583" lon="12.1370783"><ele>154.0</ele><time>2026-05-02T06:55:55.439Z</time></trkpt><trkpt lat="44.1524967" lon="12.1371233"><ele>154.0</ele><time>2026-05-02T06:56:00.442Z</time></trkpt><trkpt lat="44.1524517" lon="12.137185"><ele>154.0</ele><time>2026-05-02T06:56:06.442Z</time></trkpt><trkpt lat="44.15247" lon="12.13729"><ele>154.0</ele><time>2026-05-02T06:56:11.44Z</time></trkpt><trkpt lat="44.1525083" lon="12.1373733"><ele>154.0</ele><time>2026-05-02T06:56:15.443Z</time></trkpt><trkpt lat="44.152545" lon="12.1374617"><ele>154.71428571428572</ele><time>2026-05-02T06:56:19.443Z</time></trkpt><trkpt lat="44.1525833" lon="12.1375583"><ele>155.42857142857144</ele><time>2026-05-02T06:56:23.443Z</time></trkpt><trkpt lat="44.1526167" lon="12.1376517"><ele>156.14285714285714</ele><time>2026-05-02T06:56:27.44Z</time></trkpt><trkpt lat="44.1526367" lon="12.1377383"><ele>156.85714285714286</ele><time>2026-05-02T06:56:30.442Z</time></trkpt><trkpt lat="44.1526467" lon="12.137825"><ele>157.57142857142858</ele><time>2026-05-02T06:56:33.443Z</time></trkpt><trkpt lat="44.1526633" lon="12.13793"><ele>158.28571428571428</ele><time>2026-05-02T06:56:37.439Z</time></trkpt><trkpt lat="44.152675" lon="12.1380383"><ele>159.0</ele><time>2026-05-02T06:56:41.442Z</time></trkpt><trkpt lat="44.1526617" lon="12.1381433"><ele>159.7142857142857</ele><time>2026-05-02T06:56:45.442Z</time></trkpt><trkpt lat="44.1526367" lon="12.1382533"><ele>160.42857142857144</ele><time>2026-05-02T06:56:49.441Z</time></trkpt><trkpt lat="44.15261" lon="12.1383533"><ele>161.14285714285714</ele><time>2026-05-02T06:56:53.443Z</time></trkpt><trkpt lat="44.1525617" lon="12.1384517"><ele>161.85714285714283</ele><time>2026-05-02T06:56:57.44Z</time></trkpt><trkpt lat="44.1525117" lon="12.13851"><ele>162.57142857142856</ele><time>2026-05-02T06:57:00.441Z</time></trkpt><trkpt lat="44.152455" lon="12.138575"><ele>163.28571428571428</ele><time>2026-05-02T06:57:04.441Z</time></trkpt><trkpt lat="44.1523917" lon="12.1385867"><ele>164.0</ele><time>2026-05-02T06:57:07.441Z</time></trkpt><trkpt lat="44.1523233" lon="12.1385767"><ele>164.85714285714283</ele><time>2026-05-02T06:57:10.443Z</time></trkpt><trkpt lat="44.1522583" lon="12.138575"><ele>165.71428571428572</ele><time>2026-05-02T06:57:13.442Z</time></trkpt><trkpt lat="44.1521983" lon="12.1385467"><ele>166.57142857142856</ele><time>2026-05-02T06:57:16.443Z</time></trkpt><trkpt lat="44.1521383" lon="12.1384817"><ele>167.42857142857142</ele><time>2026-05-02T06:57:20.443Z</time></trkpt><trkpt lat="44.1520767" lon="12.1384117"><ele>168.28571428571428</ele><time>2026-05-02T06:57:24.443Z</time></trkpt><trkpt lat="44.1520133" lon="12.138375"><ele>169.14285714285714</ele><time>2026-05-02T06:57:27.443Z</time></trkpt><trkpt lat="44.15197" lon="12.1383083"><ele>170.0</ele><time>2026-05-02T06:57:30.44Z</time></trkpt><trkpt lat="44.1519133" lon="12.1382267"><ele>169.85714285714286</ele><time>2026-05-02T06:57:34.441Z</time></trkpt><trkpt lat="44.1518567" lon="12.138175"><ele>169.7142857142857</ele><time>2026-05-02T06:57:37.441Z</time></trkpt><trkpt lat="44.1518133" lon="12.13811"><ele>169.57142857142856</ele><time>2026-05-02T06:57:40.441Z</time></trkpt><trkpt lat="44.1517583" lon="12.1380283"><ele>169.42857142857144</ele><time>2026-05-02T06:57:44.443Z</time></trkpt><trkpt lat="44.151705" lon="12.13795"><ele>169.28571428571428</ele><time>2026-05-02T06:57:48.439Z</time></trkpt><trkpt lat="44.151655" lon="12.137895"><ele>169.14285714285714</ele><time>2026-05-02T06:57:51.44Z</time></trkpt><trkpt lat="44.151585" lon="12.13783"><ele>169.0</ele><time>2026-05-02T06:57:55.443Z</time></trkpt><trkpt lat="44.15153" lon="12.13778"><ele>170.0</ele><time>2026-05-02T06:57:58.44Z</time></trkpt><trkpt lat="44.1514783" lon="12.1377267"><ele>171.0</ele><time>2026-05-02T06:58:01.44Z</time></trkpt><trkpt lat="44.1514133" lon="12.1376533"><ele>172.0</ele><time>2026-05-02T06:58:05.443Z</time></trkpt><trkpt lat="44.151365" lon="12.137595"><ele>173.0</ele><time>2026-05-02T06:58:08.443Z</time></trkpt><trkpt lat="44.151305" lon="12.13753"><ele>174.0</ele><time>2026-05-02T06:58:12.443Z</time></trkpt><trkpt lat="44.1512433" lon="12.137465"><ele>175.0</ele><time>2026-05-02T06:58:16.443Z</time></trkpt><trkpt lat="44.151195" lon="12.137405"><ele>176.0</ele><time>2026-05-02T06:58:19.44Z</time></trkpt><trkpt lat="44.1511317" lon="12.1373417"><ele>176.16666666666666</ele><time>2026-05-02T06:58:23.44Z</time></trkpt><trkpt lat="44.15107" lon="12.1372767"><ele>176.33333333333331</ele><time>2026-05-02T06:58:27.439Z</time></trkpt><trkpt lat="44.151005" lon="12.1372183"><ele>176.5</ele><time>2026-05-02T06:58:31.442Z</time></trkpt><trkpt lat="44.1509483" lon="12.1371433"><ele>176.66666666666666</ele><time>2026-05-02T06:58:35.44Z</time></trkpt><trkpt lat="44.1508933" lon="12.1370933"><ele>176.83333333333334</ele><time>2026-05-02T06:58:38.44Z</time></trkpt><trkpt lat="44.1508267" lon="12.1370417"><ele>177.0</ele><time>2026-05-02T06:58:42.442Z</time></trkpt><trkpt lat="44.1507583" lon="12.1369933"><ele>177.66666666666666</ele><time>2026-05-02T06:58:46.442Z</time></trkpt><trkpt lat="44.1506933" lon="12.1369233"><ele>178.33333333333334</ele><time>2026-05-02T06:58:50.439Z</time></trkpt><trkpt lat="44.1506517" lon="12.1368517"><ele>179.0</ele><time>2026-05-02T06:58:53.439Z</time></trkpt><trkpt lat="44.1505867" lon="12.136785"><ele>179.66666666666669</ele><time>2026-05-02T06:58:57.442Z</time></trkpt><trkpt lat="44.15052" lon="12.1367217"><ele>180.33333333333334</ele><time>2026-05-02T06:59:01.439Z</time></trkpt><trkpt lat="44.150455" lon="12.13664"><ele>181.0</ele><time>2026-05-02T06:59:05.443Z</time></trkpt><trkpt lat="44.1504067" lon="12.1365833"><ele>181.5</ele><time>2026-05-02T06:59:08.44Z</time></trkpt><trkpt lat="44.1503467" lon="12.1365117"><ele>182.0</ele><time>2026-05-02T06:59:12.44Z</time></trkpt><trkpt lat="44.1502767" lon="12.136455"><ele>182.5</ele><time>2026-05-02T06:59:16.44Z</time></trkpt><trkpt lat="44.1502017" lon="12.1364033"><ele>183.0</ele><time>2026-05-02T06:59:20.44Z</time></trkpt><trkpt lat="44.1501383" lon="12.1363333"><ele>183.5</ele><time>2026-05-02T06:59:24.44Z</time></trkpt><trkpt lat="44.1500867" lon="12.1362517"><ele>184.0</ele><time>2026-05-02T06:59:28.443Z</time></trkpt><trkpt lat="44.1500583" lon="12.1361717"><ele>184.0</ele><time>2026-05-02T06:59:31.443Z</time></trkpt><trkpt lat="44.1500167" lon="12.1361033"><ele>184.0</ele><time>2026-05-02T06:59:34.442Z</time></trkpt><trkpt lat="44.1499567" lon="12.1360667"><ele>184.0</ele><time>2026-05-02T06:59:37.441Z</time></trkpt><trkpt lat="44.1499133" lon="12.13599"><ele>184.0</ele><time>2026-05-02T06:59:41.439Z</time></trkpt><trkpt lat="44.1498983" lon="12.1359"><ele>184.0</ele><time>2026-05-02T06:59:44.442Z</time></trkpt><trkpt lat="44.1498667" lon="12.135805"><ele>184.0</ele><time>2026-05-02T06:59:48.439Z</time></trkpt><trkpt lat="44.14983" lon="12.135705"><ele>184.0</ele><time>2026-05-02T06:59:52.44Z</time></trkpt><trkpt lat="44.1497717" lon="12.1356683"><ele>186.85714285714286</ele><time>2026-05-02T06:59:56.442Z</time></trkpt><trkpt lat="44.1497" lon="12.1356583"><ele>189.7142857142857</ele><time>2026-05-02T07:00:00.441Z</time></trkpt><trkpt lat="44.1496317" lon="12.1356183"><ele>192.57142857142856</ele><time>2026-05-02T07:00:05.442Z</time></trkpt><trkpt lat="44.1495683" lon="12.1356017"><ele>195.42857142857144</ele><time>2026-05-02T07:00:08.441Z</time></trkpt><trkpt lat="44.1494967" lon="12.1355767"><ele>198.28571428571428</ele><time>2026-05-02T07:00:12.442Z</time></trkpt><trkpt lat="44.14944" lon="12.1355167"><ele>201.14285714285714</ele><time>2026-05-02T07:00:16.441Z</time></trkpt><trkpt lat="44.1493833" lon="12.1354617"><ele>204.0</ele><time>2026-05-02T07:00:20.442Z</time></trkpt><trkpt lat="44.149335" lon="12.1353983"><ele>204.0</ele><time>2026-05-02T07:00:24.445Z</time></trkpt><trkpt lat="44.1492633" lon="12.1354183"><ele>204.0</ele><time>2026-05-02T07:00:34.443Z</time></trkpt><trkpt lat="44.1491933" lon="12.1353867"><ele>204.0</ele><time>2026-05-02T07:00:42.443Z</time></trkpt><trkpt lat="44.1491183" lon="12.1353883"><ele>204.0</ele><time>2026-05-02T07:00:57.441Z</time></trkpt><trkpt lat="44.1490533" lon="12.13538"><ele>204.0</ele><time>2026-05-02T07:01:03.441Z</time></trkpt><trkpt lat="44.1489817" lon="12.135325"><ele>204.0</ele><time>2026-05-02T07:01:10.441Z</time></trkpt><trkpt lat="44.1489183" lon="12.1352883"><ele>204.0</ele><time>2026-05-02T07:01:15.44Z</time></trkpt><trkpt lat="44.1488533" lon="12.1352367"><ele>205.85714285714286</ele><time>2026-05-02T07:01:20.44Z</time></trkpt><trkpt lat="44.148785" lon="12.1352033"><ele>207.71428571428572</ele><time>2026-05-02T07:01:25.44Z</time></trkpt><trkpt lat="44.148715" lon="12.13522"><ele>209.57142857142856</ele><time>2026-05-02T07:01:30.439Z</time></trkpt><trkpt lat="44.1486483" lon="12.135225"><ele>211.42857142857144</ele><time>2026-05-02T07:01:34.44Z</time></trkpt><trkpt lat="44.14858" lon="12.1352267"><ele>213.28571428571428</ele><time>2026-05-02T07:01:38.441Z</time></trkpt><trkpt lat="44.14851" lon="12.13524"><ele>215.14285714285714</ele><time>2026-05-02T07:01:42.439Z</time></trkpt><trkpt lat="44.1484467" lon="12.1352517"><ele>217.0</ele><time>2026-05-02T07:01:46.443Z</time></trkpt><trkpt lat="44.1483767" lon="12.135255"><ele>217.0</ele><time>2026-05-02T07:01:50.442Z</time></trkpt><trkpt lat="44.14831" lon="12.135285"><ele>217.0</ele><time>2026-05-02T07:01:54.443Z</time></trkpt><trkpt lat="44.1482383" lon="12.1352983"><ele>217.0</ele><time>2026-05-02T07:01:59.439Z</time></trkpt><trkpt lat="44.1481717" lon="12.135295"><ele>217.0</ele><time>2026-05-02T07:02:03.441Z</time></trkpt><trkpt lat="44.1481033" lon="12.1352883"><ele>217.0</ele><time>2026-05-02T07:02:07.44Z</time></trkpt><trkpt lat="44.1480317" lon="12.1352967"><ele>217.0</ele><time>2026-05-02T07:02:11.44Z</time></trkpt><trkpt lat="44.14796" lon="12.1353067"><ele>217.0</ele><time>2026-05-02T07:02:16.439Z</time></trkpt><trkpt lat="44.1478817" lon="12.1352917"><ele>217.33333333333331</ele><time>2026-05-02T07:02:21.442Z</time></trkpt><trkpt lat="44.1477983" lon="12.1352867"><ele>217.66666666666666</ele><time>2026-05-02T07:02:25.439Z</time></trkpt><trkpt lat="44.14773" lon="12.13528"><ele>218.0</ele><time>2026-05-02T07:02:29.44Z</time></trkpt><trkpt lat="44.147635" lon="12.135265"><ele>218.33333333333331</ele><time>2026-05-02T07:02:36.439Z</time></trkpt><trkpt lat="44.147565" lon="12.13525"><ele>218.66666666666666</ele><time>2026-05-02T07:02:41.44Z</time></trkpt><trkpt lat="44.14749" lon="12.1352433"><ele>219.0</ele><time>2026-05-02T07:02:45.439Z</time></trkpt><trkpt lat="44.147415" lon="12.135215"><ele>219.42857142857144</ele><time>2026-05-02T07:02:49.444Z</time></trkpt><trkpt lat="44.1473467" lon="12.135205"><ele>219.85714285714283</ele><time>2026-05-02T07:02:53.441Z</time></trkpt><trkpt lat="44.147275" lon="12.1351967"><ele>220.28571428571428</ele><time>2026-05-02T07:02:58.438Z</time></trkpt><trkpt lat="44.1472067" lon="12.1351867"><ele>220.71428571428572</ele><time>2026-05-02T07:03:02.439Z</time></trkpt><trkpt lat="44.1471383" lon="12.1351717"><ele>221.14285714285717</ele><time>2026-05-02T07:03:07.439Z</time></trkpt><trkpt lat="44.1470633" lon="12.1351667"><ele>221.57142857142856</ele><time>2026-05-02T07:03:11.439Z</time></trkpt><trkpt lat="44.147" lon="12.1351733"><ele>222.0</ele><time>2026-05-02T07:03:15.438Z</time></trkpt><trkpt lat="44.1470383" lon="12.1350817"><ele>222.0</ele><time>2026-05-02T07:03:28.439Z</time></trkpt><trkpt lat="44.1471083" lon="12.13506"><ele>222.0</ele><time>2026-05-02T07:03:32.441Z</time></trkpt><trkpt lat="44.1471767" lon="12.1350167"><ele>222.0</ele><time>2026-05-02T07:03:36.439Z</time></trkpt><trkpt lat="44.1472467" lon="12.1350067"><ele>222.0</ele><time>2026-05-02T07:03:41.44Z</time></trkpt><trkpt lat="44.1473267" lon="12.1349983"><ele>222.0</ele><time>2026-05-02T07:03:46.44Z</time></trkpt><trkpt lat="44.1474017" lon="12.134995"><ele>222.0</ele><time>2026-05-02T07:03:51.44Z</time></trkpt><trkpt lat="44.14748" lon="12.1349933"><ele>221.5</ele><time>2026-05-02T07:03:55.439Z</time></trkpt><trkpt lat="44.147535" lon="12.1348933"><ele>221.0</ele><time>2026-05-02T07:04:04.44Z</time></trkpt><trkpt lat="44.1476017" lon="12.1348717"><ele>220.5</ele><time>2026-05-02T07:04:07.439Z</time></trkpt><trkpt lat="44.1476833" lon="12.1348667"><ele>220.0</ele><time>2026-05-02T07:04:11.439Z</time></trkpt><trkpt lat="44.1477633" lon="12.1348533"><ele>219.5</ele><time>2026-05-02T07:04:14.439Z</time></trkpt><trkpt lat="44.1478283" lon="12.1348467"><ele>219.0</ele><time>2026-05-02T07:04:17.439Z</time></trkpt><trkpt lat="44.14791" lon="12.1348617"><ele>219.0</ele><time>2026-05-02T07:04:21.439Z</time></trkpt><trkpt lat="44.1479917" lon="12.1348483"><ele>219.0</ele><time>2026-05-02T07:04:25.44Z</time></trkpt><trkpt lat="44.1480567" lon="12.1348467"><ele>219.0</ele><time>2026-05-02T07:04:28.439Z</time></trkpt><trkpt lat="44.1480833" lon="12.1349367"><ele>219.0</ele><time>2026-05-02T07:04:34.441Z</time></trkpt><trkpt lat="44.1481367" lon="12.1348667"><ele>219.0</ele><time>2026-05-02T07:05:34.439Z</time></trkpt><trkpt lat="44.1482067" lon="12.1348267"><ele>219.0</ele><time>2026-05-02T07:05:38.44Z</time></trkpt><trkpt lat="44.1482733" lon="12.1348183"><ele>219.0</ele><time>2026-05-02T07:05:42.44Z</time></trkpt><trkpt lat="44.14834" lon="12.1348333"><ele>223.66666666666666</ele><time>2026-05-02T07:05:45.44Z</time></trkpt><trkpt lat="44.1484167" lon="12.134815"><ele>228.33333333333331</ele><time>2026-05-02T07:05:49.44Z</time></trkpt><trkpt lat="44.148485" lon="12.134775"><ele>233.0</ele><time>2026-05-02T07:05:54.439Z</time></trkpt><trkpt lat="44.148585" lon="12.1346783"><ele>237.66666666666666</ele><time>2026-05-02T07:06:04.44Z</time></trkpt><trkpt lat="44.1486483" lon="12.1346283"><ele>242.33333333333331</ele><time>2026-05-02T07:06:08.441Z</time></trkpt><trkpt lat="44.1487167" lon="12.1345983"><ele>247.0</ele><time>2026-05-02T07:06:12.44Z</time></trkpt><trkpt lat="44.1487733" lon="12.1345367"><ele>247.0</ele><time>2026-05-02T07:06:17.439Z</time></trkpt><trkpt lat="44.1488433" lon="12.1345183"><ele>247.0</ele><time>2026-05-02T07:06:23.438Z</time></trkpt><trkpt lat="44.148905" lon="12.1344917"><ele>247.0</ele><time>2026-05-02T07:06:28.439Z</time></trkpt><trkpt lat="44.14894" lon="12.1344183"><ele>247.0</ele><time>2026-05-02T07:06:33.439Z</time></trkpt><trkpt lat="44.1490017" lon="12.1343633"><ele>247.0</ele><time>2026-05-02T07:06:39.44Z</time></trkpt><trkpt lat="44.1490083" lon="12.1342617"><ele>247.0</ele><time>2026-05-02T07:06:44.44Z</time></trkpt><trkpt lat="44.149035" lon="12.1341733"><ele>247.0</ele><time>2026-05-02T07:06:47.442Z</time></trkpt><trkpt lat="44.14905" lon="12.1340817"><ele>246.42857142857144</ele><time>2026-05-02T07:06:50.44Z</time></trkpt><trkpt lat="44.14906" lon="12.13398"><ele>245.85714285714283</ele><time>2026-05-02T07:06:57.442Z</time></trkpt><trkpt lat="44.1491167" lon="12.1339233"><ele>245.28571428571428</ele><time>2026-05-02T07:07:02.442Z</time></trkpt><trkpt lat="44.149145" lon="12.1338383"><ele>244.71428571428572</ele><time>2026-05-02T07:07:06.439Z</time></trkpt><trkpt lat="44.1491967" lon="12.13377"><ele>244.14285714285717</ele><time>2026-05-02T07:07:10.438Z</time></trkpt><trkpt lat="44.149235" lon="12.133695"><ele>243.57142857142856</ele><time>2026-05-02T07:07:14.443Z</time></trkpt><trkpt lat="44.1492567" lon="12.1335967"><ele>243.0</ele><time>2026-05-02T07:07:53.442Z</time></trkpt><trkpt lat="44.1492883" lon="12.13352"><ele>243.0</ele><time>2026-05-02T07:07:57.443Z</time></trkpt><trkpt lat="44.1492967" lon="12.13342"><ele>243.0</ele><time>2026-05-02T07:08:01.443Z</time></trkpt><trkpt lat="44.1492917" lon="12.1333183"><ele>243.0</ele><time>2026-05-02T07:08:06.442Z</time></trkpt><trkpt lat="44.1493267" lon="12.133215"><ele>243.0</ele><time>2026-05-02T07:08:11.442Z</time></trkpt><trkpt lat="44.1493567" lon="12.1331283"><ele>243.0</ele><time>2026-05-02T07:08:16.443Z</time></trkpt><trkpt lat="44.1493517" lon="12.1330283"><ele>243.0</ele><time>2026-05-02T07:08:21.443Z</time></trkpt><trkpt lat="44.1493767" lon="12.1329417"><ele>243.0</ele><time>2026-05-02T07:08:26.442Z</time></trkpt><trkpt lat="44.149415" lon="12.132855"><ele>244.0</ele><time>2026-05-02T07:08:31.44Z</time></trkpt><trkpt lat="44.1494283" lon="12.1327617"><ele>245.0</ele><time>2026-05-02T07:08:35.439Z</time></trkpt><trkpt lat="44.1494767" lon="12.1326133"><ele>246.0</ele><time>2026-05-02T07:08:46.44Z</time></trkpt><trkpt lat="44.1495017" lon="12.1325217"><ele>247.0</ele><time>2026-05-02T07:08:51.44Z</time></trkpt><trkpt lat="44.1494433" lon="12.1324483"><ele>248.0</ele><time>2026-05-02T07:08:57.441Z</time></trkpt><trkpt lat="44.149385" lon="12.132505"><ele>249.0</ele><time>2026-05-02T07:09:11.442Z</time></trkpt><trkpt lat="44.149335" lon="12.13258"><ele>249.0</ele><time>2026-05-02T07:09:17.439Z</time></trkpt><trkpt lat="44.1492933" lon="12.1326517"><ele>248.99999999999997</ele><time>2026-05-02T07:09:22.44Z</time></trkpt><trkpt lat="44.14926" lon="12.132745"><ele>249.0</ele><time>2026-05-02T07:09:27.441Z</time></trkpt><trkpt lat="44.1491917" lon="12.1328067"><ele>249.0</ele><time>2026-05-02T07:09:32.44Z</time></trkpt><trkpt lat="44.149145" lon="12.1328667"><ele>248.99999999999997</ele><time>2026-05-02T07:09:36.441Z</time></trkpt><trkpt lat="44.1491067" lon="12.1329467"><ele>249.0</ele><time>2026-05-02T07:09:41.441Z</time></trkpt><trkpt lat="44.14908" lon="12.13304"><ele>249.0</ele><time>2026-05-02T07:09:46.443Z</time></trkpt><trkpt lat="44.1490367" lon="12.1331083"><ele>251.0</ele><time>2026-05-02T07:09:50.44Z</time></trkpt><trkpt lat="44.1490067" lon="12.1331883"><ele>252.99999999999997</ele><time>2026-05-02T07:09:54.44Z</time></trkpt><trkpt lat="44.148975" lon="12.1332733"><ele>255.0</ele><time>2026-05-02T07:09:58.439Z</time></trkpt><trkpt lat="44.1489433" lon="12.13336"><ele>257.0</ele><time>2026-05-02T07:10:02.44Z</time></trkpt><trkpt lat="44.1489183" lon="12.133455"><ele>259.0</ele><time>2026-05-02T07:10:06.443Z</time></trkpt><trkpt lat="44.1488817" lon="12.1335383"><ele>261.0</ele><time>2026-05-02T07:10:10.442Z</time></trkpt><trkpt lat="44.14884" lon="12.1336117"><ele>263.0</ele><time>2026-05-02T07:10:14.442Z</time></trkpt><trkpt lat="44.1488017" lon="12.1336983"><ele>263.2857142857143</ele><time>2026-05-02T07:10:19.439Z</time></trkpt><trkpt lat="44.1487717" lon="12.1337767"><ele>263.57142857142856</ele><time>2026-05-02T07:10:24.44Z</time></trkpt><trkpt lat="44.1487333" lon="12.1338567"><ele>263.85714285714283</ele><time>2026-05-02T07:10:29.443Z</time></trkpt><trkpt lat="44.1486867" lon="12.133935"><ele>264.1428571428571</ele><time>2026-05-02T07:10:35.44Z</time></trkpt><trkpt lat="44.1486467" lon="12.1340033"><ele>264.42857142857144</ele><time>2026-05-02T07:10:40.439Z</time></trkpt><trkpt lat="44.1485867" lon="12.1340617"><ele>264.71428571428567</ele><time>2026-05-02T07:10:46.439Z</time></trkpt><trkpt lat="44.1485167" lon="12.1340983"><ele>265.0</ele><time>2026-05-02T07:10:52.439Z</time></trkpt><trkpt lat="44.1484533" lon="12.134135"><ele>263.0</ele><time>2026-05-02T07:10:59.439Z</time></trkpt><trkpt lat="44.1483767" lon="12.134145"><ele>261.0</ele><time>2026-05-02T07:11:55.442Z</time></trkpt><trkpt lat="44.1482617" lon="12.134205"><ele>259.0</ele><time>2026-05-02T07:12:20.44Z</time></trkpt><trkpt lat="44.1482767" lon="12.1343383"><ele>257.0</ele><time>2026-05-02T07:12:47.442Z</time></trkpt><trkpt lat="44.1482117" lon="12.13436"><ele>254.99999999999997</ele><time>2026-05-02T07:12:55.441Z</time></trkpt><trkpt lat="44.1481467" lon="12.1343617"><ele>253.0</ele><time>2026-05-02T07:13:00.441Z</time></trkpt><trkpt lat="44.1480817" lon="12.134355"><ele>252.99999999999997</ele><time>2026-05-02T07:13:04.44Z</time></trkpt><trkpt lat="44.1480117" lon="12.1343483"><ele>253.0</ele><time>2026-05-02T07:13:09.441Z</time></trkpt><trkpt lat="44.1479483" lon="12.134345"><ele>253.0</ele><time>2026-05-02T07:13:14.442Z</time></trkpt><trkpt lat="44.14788" lon="12.1343333"><ele>253.0</ele><time>2026-05-02T07:13:19.442Z</time></trkpt><trkpt lat="44.14775" lon="12.1343333"><ele>252.99999999999997</ele><time>2026-05-02T07:13:34.444Z</time></trkpt><trkpt lat="44.14769" lon="12.13438"><ele>253.0</ele><time>2026-05-02T07:13:44.442Z</time></trkpt><trkpt lat="44.1476083" lon="12.134455"><ele>253.0</ele><time>2026-05-02T07:14:11.441Z</time></trkpt><trkpt lat="44.1477317" lon="12.13442"><ele>253.0</ele><time>2026-05-02T07:14:28.438Z</time></trkpt><trkpt lat="44.1478267" lon="12.1344133"><ele>253.0</ele><time>2026-05-02T07:14:40.438Z</time></trkpt><trkpt lat="44.1477683" lon="12.1345083"><ele>253.0</ele><time>2026-05-02T07:15:18.443Z</time></trkpt><trkpt lat="44.147655" lon="12.1345033"><ele>253.0</ele><time>2026-05-02T07:15:44.441Z</time></trkpt><trkpt lat="44.14759" lon="12.1345117"><ele>252.99999999999997</ele><time>2026-05-02T07:15:50.439Z</time></trkpt><trkpt lat="44.1475" lon="12.1345183"><ele>253.0</ele><time>2026-05-02T07:15:59.44Z</time></trkpt><trkpt lat="44.1474233" lon="12.1345133"><ele>253.0</ele><time>2026-05-02T07:16:08.443Z</time></trkpt><trkpt lat="44.1473517" lon="12.1345067"><ele>253.0</ele><time>2026-05-02T07:16:13.439Z</time></trkpt><trkpt lat="44.1472767" lon="12.1345167"><ele>252.99999999999997</ele><time>2026-05-02T07:16:18.441Z</time></trkpt><trkpt lat="44.1472" lon="12.1345133"><ele>253.0</ele><time>2026-05-02T07:16:57.441Z</time></trkpt><trkpt lat="44.1471033" lon="12.134545"><ele>251.5714285714286</ele><time>2026-05-02T07:17:11.441Z</time></trkpt><trkpt lat="44.1470317" lon="12.134535"><ele>250.14285714285717</ele><time>2026-05-02T07:17:18.441Z</time></trkpt><trkpt lat="44.1469667" lon="12.13454"><ele>248.71428571428572</ele><time>2026-05-02T07:17:22.438Z</time></trkpt><trkpt lat="44.1468883" lon="12.1345483"><ele>247.2857142857143</ele><time>2026-05-02T07:17:28.438Z</time></trkpt><trkpt lat="44.1468183" lon="12.1345733"><ele>245.8571428571429</ele><time>2026-05-02T07:17:32.44Z</time></trkpt><trkpt lat="44.1467483" lon="12.1345917"><ele>244.42857142857142</ele><time>2026-05-02T07:17:38.443Z</time></trkpt><trkpt lat="44.1466733" lon="12.134615"><ele>243.0</ele><time>2026-05-02T07:17:42.442Z</time></trkpt><trkpt lat="44.1466067" lon="12.134665"><ele>238.4</ele><time>2026-05-02T07:17:44.442Z</time></trkpt><trkpt lat="44.1465383" lon="12.134675"><ele>233.8</ele><time>2026-05-02T07:17:46.441Z</time></trkpt><trkpt lat="44.1464617" lon="12.13467"><ele>229.2</ele><time>2026-05-02T07:17:48.441Z</time></trkpt><trkpt lat="44.1463817" lon="12.1346617"><ele>224.6</ele><time>2026-05-02T07:17:50.443Z</time></trkpt><trkpt lat="44.1462633" lon="12.1346567"><ele>220.0</ele><time>2026-05-02T07:17:52.441Z</time></trkpt><trkpt lat="44.1461467" lon="12.1346433"><ele>219.99999999999997</ele><time>2026-05-02T07:17:54.442Z</time></trkpt><trkpt lat="44.1460433" lon="12.134645"><ele>220.0</ele><time>2026-05-02T07:17:56.443Z</time></trkpt><trkpt lat="44.1459733" lon="12.1346417"><ele>220.0</ele><time>2026-05-02T07:17:58.443Z</time></trkpt><trkpt lat="44.1459083" lon="12.1346717"><ele>220.0</ele><time>2026-05-02T07:18:01.443Z</time></trkpt><trkpt lat="44.1458733" lon="12.1347517"><ele>219.99999999999997</ele><time>2026-05-02T07:18:04.438Z</time></trkpt><trkpt lat="44.1458367" lon="12.134835"><ele>220.0</ele><time>2026-05-02T07:18:06.442Z</time></trkpt><trkpt lat="44.145805" lon="12.1349333"><ele>219.85714285714283</ele><time>2026-05-02T07:18:08.44Z</time></trkpt><trkpt lat="44.145815" lon="12.135035"><ele>219.71428571428572</ele><time>2026-05-02T07:18:11.44Z</time></trkpt><trkpt lat="44.14585" lon="12.1351267"><ele>219.57142857142856</ele><time>2026-05-02T07:18:15.441Z</time></trkpt><trkpt lat="44.1458967" lon="12.13519"><ele>219.42857142857142</ele><time>2026-05-02T07:18:18.443Z</time></trkpt><trkpt lat="44.1459267" lon="12.135275"><ele>219.28571428571428</ele><time>2026-05-02T07:18:20.443Z</time></trkpt><trkpt lat="44.14597" lon="12.1353467"><ele>219.14285714285714</ele><time>2026-05-02T07:18:22.442Z</time></trkpt><trkpt lat="44.146005" lon="12.13546"><ele>219.0</ele><time>2026-05-02T07:18:26.443Z</time></trkpt><trkpt lat="44.1460217" lon="12.1355567"><ele>219.0</ele><time>2026-05-02T07:18:28.442Z</time></trkpt><trkpt lat="44.1459533" lon="12.1355517"><ele>219.0</ele><time>2026-05-02T07:18:49.439Z</time></trkpt><trkpt lat="44.1459083" lon="12.13562"><ele>219.0</ele><time>2026-05-02T07:18:59.443Z</time></trkpt><trkpt lat="44.1458667" lon="12.1356983"><ele>219.0</ele><time>2026-05-02T07:19:02.439Z</time></trkpt><trkpt lat="44.14582" lon="12.135805"><ele>219.0</ele><time>2026-05-02T07:19:05.442Z</time></trkpt><trkpt lat="44.1457933" lon="12.1358917"><ele>219.0</ele><time>2026-05-02T07:19:07.442Z</time></trkpt><trkpt lat="44.1457617" lon="12.135985"><ele>219.0</ele><time>2026-05-02T07:19:09.44Z</time></trkpt><trkpt lat="44.1457267" lon="12.1360667"><ele>222.33333333333334</ele><time>2026-05-02T07:19:11.44Z</time></trkpt><trkpt lat="44.145705" lon="12.136155"><ele>225.66666666666669</ele><time>2026-05-02T07:19:13.439Z</time></trkpt><trkpt lat="44.145675" lon="12.13625"><ele>229.0</ele><time>2026-05-02T07:19:15.44Z</time></trkpt><trkpt lat="44.1456483" lon="12.1363467"><ele>232.33333333333334</ele><time>2026-05-02T07:19:17.439Z</time></trkpt><trkpt lat="44.1456067" lon="12.1364433"><ele>235.66666666666669</ele><time>2026-05-02T07:19:19.439Z</time></trkpt><trkpt lat="44.1455633" lon="12.1365417"><ele>239.0</ele><time>2026-05-02T07:19:21.44Z</time></trkpt><trkpt lat="44.1455267" lon="12.1366333"><ele>239.00000000000003</ele><time>2026-05-02T07:19:23.439Z</time></trkpt><trkpt lat="44.1455" lon="12.13673"><ele>239.0</ele><time>2026-05-02T07:19:25.44Z</time></trkpt><trkpt lat="44.1454733" lon="12.1368267"><ele>239.0</ele><time>2026-05-02T07:19:27.441Z</time></trkpt><trkpt lat="44.1454417" lon="12.1369367"><ele>239.0</ele><time>2026-05-02T07:19:29.439Z</time></trkpt><trkpt lat="44.14541" lon="12.1370417"><ele>239.00000000000003</ele><time>2026-05-02T07:19:31.44Z</time></trkpt><trkpt lat="44.1453733" lon="12.1371467"><ele>239.0</ele><time>2026-05-02T07:19:33.44Z</time></trkpt><trkpt lat="44.145345" lon="12.1372367"><ele>239.00000000000003</ele><time>2026-05-02T07:19:35.439Z</time></trkpt><trkpt lat="44.1453067" lon="12.1373267"><ele>239.0</ele><time>2026-05-02T07:19:37.44Z</time></trkpt><trkpt lat="44.1452833" lon="12.1374283"><ele>239.0</ele><time>2026-05-02T07:19:39.439Z</time></trkpt><trkpt lat="44.1452517" lon="12.1375283"><ele>239.0</ele><time>2026-05-02T07:19:41.443Z</time></trkpt><trkpt lat="44.1452183" lon="12.1376283"><ele>239.00000000000003</ele><time>2026-05-02T07:19:43.441Z</time></trkpt><trkpt lat="44.1452" lon="12.137715"><ele>239.0</ele><time>2026-05-02T07:19:45.439Z</time></trkpt><trkpt lat="44.1451717" lon="12.137835"><ele>237.33333333333334</ele><time>2026-05-02T07:19:48.44Z</time></trkpt><trkpt lat="44.145135" lon="12.1379533"><ele>235.66666666666669</ele><time>2026-05-02T07:19:51.439Z</time></trkpt><trkpt lat="44.1451033" lon="12.1380483"><ele>234.0</ele><time>2026-05-02T07:19:53.44Z</time></trkpt><trkpt lat="44.1450767" lon="12.1381367"><ele>232.33333333333331</ele><time>2026-05-02T07:19:55.439Z</time></trkpt><trkpt lat="44.1450517" lon="12.1382183"><ele>230.66666666666666</ele><time>2026-05-02T07:19:57.439Z</time></trkpt><trkpt lat="44.1450133" lon="12.1383233"><ele>229.0</ele><time>2026-05-02T07:19:59.44Z</time></trkpt><trkpt lat="44.1449683" lon="12.1384317"><ele>227.2</ele><time>2026-05-02T07:20:01.442Z</time></trkpt><trkpt lat="44.1449233" lon="12.1385417"><ele>225.39999999999998</ele><time>2026-05-02T07:20:03.439Z</time></trkpt><trkpt lat="44.14487" lon="12.138645"><ele>223.6</ele><time>2026-05-02T07:20:05.442Z</time></trkpt><trkpt lat="44.144815" lon="12.138745"><ele>221.8</ele><time>2026-05-02T07:20:07.439Z</time></trkpt><trkpt lat="44.1447567" lon="12.1388483"><ele>220.0</ele><time>2026-05-02T07:20:09.441Z</time></trkpt><trkpt lat="44.1446983" lon="12.1389583"><ele>221.0</ele><time>2026-05-02T07:20:11.44Z</time></trkpt><trkpt lat="44.1446433" lon="12.1390733"><ele>222.0</ele><time>2026-05-02T07:20:13.44Z</time></trkpt><trkpt lat="44.14458" lon="12.1391783"><ele>223.0</ele><time>2026-05-02T07:20:15.44Z</time></trkpt><trkpt lat="44.1445217" lon="12.1392833"><ele>224.0</ele><time>2026-05-02T07:20:17.442Z</time></trkpt><trkpt lat="44.1444667" lon="12.13938"><ele>225.0</ele><time>2026-05-02T07:20:19.441Z</time></trkpt><trkpt lat="44.144405" lon="12.1394967"><ele>225.0</ele><time>2026-05-02T07:20:21.443Z</time></trkpt><trkpt lat="44.144335" lon="12.13961"><ele>225.0</ele><time>2026-05-02T07:20:23.439Z</time></trkpt><trkpt lat="44.14426" lon="12.1397267"><ele>225.0</ele><time>2026-05-02T07:20:25.44Z</time></trkpt><trkpt lat="44.144195" lon="12.1398433"><ele>225.0</ele><time>2026-05-02T07:20:27.441Z</time></trkpt><trkpt lat="44.1441383" lon="12.139965"><ele>225.0</ele><time>2026-05-02T07:20:29.44Z</time></trkpt><trkpt lat="44.1440717" lon="12.140085"><ele>225.2</ele><time>2026-05-02T07:20:31.442Z</time></trkpt><trkpt lat="44.1440017" lon="12.1402033"><ele>225.4</ele><time>2026-05-02T07:20:33.442Z</time></trkpt><trkpt lat="44.1439517" lon="12.1403233"><ele>225.60000000000002</ele><time>2026-05-02T07:20:35.442Z</time></trkpt><trkpt lat="44.1438833" lon="12.14045"><ele>225.8</ele><time>2026-05-02T07:20:37.44Z</time></trkpt><trkpt lat="44.1438133" lon="12.14059"><ele>226.0</ele><time>2026-05-02T07:20:39.442Z</time></trkpt><trkpt lat="44.1437467" lon="12.1407183"><ele>226.0</ele><time>2026-05-02T07:20:41.44Z</time></trkpt><trkpt lat="44.1436817" lon="12.140845"><ele>226.0</ele><time>2026-05-02T07:20:43.442Z</time></trkpt><trkpt lat="44.1436083" lon="12.1409717"><ele>226.0</ele><time>2026-05-02T07:20:45.439Z</time></trkpt><trkpt lat="44.14354" lon="12.141105"><ele>226.0</ele><time>2026-05-02T07:20:47.44Z</time></trkpt><trkpt lat="44.1434667" lon="12.1412417"><ele>225.99999999999997</ele><time>2026-05-02T07:20:49.44Z</time></trkpt><trkpt lat="44.1434033" lon="12.141365"><ele>226.0</ele><time>2026-05-02T07:20:51.442Z</time></trkpt><trkpt lat="44.1433333" lon="12.141495"><ele>226.0</ele><time>2026-05-02T07:20:53.441Z</time></trkpt><trkpt lat="44.1432933" lon="12.1415667"><ele>226.0</ele><time>2026-05-02T07:20:54.44Z</time></trkpt><trkpt lat="44.1432483" lon="12.141645"><ele>225.99999999999997</ele><time>2026-05-02T07:20:55.441Z</time></trkpt><trkpt lat="44.143205" lon="12.1417217"><ele>226.0</ele><time>2026-05-02T07:20:56.44Z</time></trkpt><trkpt lat="44.1431683" lon="12.141795"><ele>225.49999999999997</ele><time>2026-05-02T07:20:57.442Z</time></trkpt><trkpt lat="44.14313" lon="12.14187"><ele>225.0</ele><time>2026-05-02T07:20:58.442Z</time></trkpt><trkpt lat="44.1430883" lon="12.1419483"><ele>224.5</ele><time>2026-05-02T07:20:59.44Z</time></trkpt><trkpt lat="44.143045" lon="12.142025"><ele>224.0</ele><time>2026-05-02T07:21:00.442Z</time></trkpt><trkpt lat="44.1430083" lon="12.1421017"><ele>223.49999999999997</ele><time>2026-05-02T07:21:01.442Z</time></trkpt><trkpt lat="44.14295" lon="12.1422517"><ele>223.0</ele><time>2026-05-02T07:21:03.443Z</time></trkpt><trkpt lat="44.1428833" lon="12.1423967"><ele>223.0</ele><time>2026-05-02T07:21:05.441Z</time></trkpt><trkpt lat="44.1428067" lon="12.142535"><ele>223.0</ele><time>2026-05-02T07:21:07.442Z</time></trkpt><trkpt lat="44.1427417" lon="12.1426783"><ele>223.0</ele><time>2026-05-02T07:21:09.441Z</time></trkpt><trkpt lat="44.14267" lon="12.14282"><ele>223.0</ele><time>2026-05-02T07:21:11.442Z</time></trkpt><trkpt lat="44.14263" lon="12.1428917"><ele>223.0</ele><time>2026-05-02T07:21:12.441Z</time></trkpt><trkpt lat="44.1425867" lon="12.1429617"><ele>223.0</ele><time>2026-05-02T07:21:13.44Z</time></trkpt><trkpt lat="44.142545" lon="12.1430317"><ele>223.0</ele><time>2026-05-02T07:21:14.442Z</time></trkpt><trkpt lat="44.142475" lon="12.1431783"><ele>223.0</ele><time>2026-05-02T07:21:16.442Z</time></trkpt><trkpt lat="44.1424117" lon="12.14331"><ele>223.0</ele><time>2026-05-02T07:21:18.441Z</time></trkpt><trkpt lat="44.14235" lon="12.1434333"><ele>223.0</ele><time>2026-05-02T07:21:20.441Z</time></trkpt><trkpt lat="44.1422833" lon="12.1435683"><ele>224.4</ele><time>2026-05-02T07:21:22.441Z</time></trkpt><trkpt lat="44.142215" lon="12.1436917"><ele>225.8</ele><time>2026-05-02T07:21:24.443Z</time></trkpt><trkpt lat="44.1421433" lon="12.1438017"><ele>227.2</ele><time>2026-05-02T07:21:26.441Z</time></trkpt><trkpt lat="44.14205" lon="12.1439017"><ele>228.6</ele><time>2026-05-02T07:21:28.442Z</time></trkpt><trkpt lat="44.141995" lon="12.14395"><ele>230.0</ele><time>2026-05-02T07:21:29.442Z</time></trkpt><trkpt lat="44.14188" lon="12.14402"><ele>227.0</ele><time>2026-05-02T07:21:31.443Z</time></trkpt><trkpt lat="44.1418183" lon="12.14405"><ele>224.0</ele><time>2026-05-02T07:21:32.443Z</time></trkpt><trkpt lat="44.141705" lon="12.1441"><ele>221.0</ele><time>2026-05-02T07:21:34.444Z</time></trkpt><trkpt lat="44.1415933" lon="12.1441517"><ele>218.0</ele><time>2026-05-02T07:21:36.443Z</time></trkpt><trkpt lat="44.1414817" lon="12.1442117"><ele>215.0</ele><time>2026-05-02T07:21:38.44Z</time></trkpt><trkpt lat="44.1414183" lon="12.1442433"><ele>215.0</ele><time>2026-05-02T07:21:39.44Z</time></trkpt><trkpt lat="44.1413533" lon="12.1442767"><ele>215.0</ele><time>2026-05-02T07:21:40.443Z</time></trkpt><trkpt lat="44.1412867" lon="12.144315"><ele>215.0</ele><time>2026-05-02T07:21:41.443Z</time></trkpt><trkpt lat="44.1412183" lon="12.1443483"><ele>215.0</ele><time>2026-05-02T07:21:42.443Z</time></trkpt><trkpt lat="44.1411533" lon="12.144375"><ele>215.0</ele><time>2026-05-02T07:21:43.44Z</time></trkpt><trkpt lat="44.14109" lon="12.144405"><ele>215.0</ele><time>2026-05-02T07:21:44.442Z</time></trkpt><trkpt lat="44.14103" lon="12.1444433"><ele>215.0</ele><time>2026-05-02T07:21:45.443Z</time></trkpt><trkpt lat="44.14097" lon="12.1444767"><ele>215.0</ele><time>2026-05-02T07:21:46.442Z</time></trkpt><trkpt lat="44.14091" lon="12.14451"><ele>215.0</ele><time>2026-05-02T07:21:47.442Z</time></trkpt><trkpt lat="44.1408483" lon="12.1445383"><ele>215.0</ele><time>2026-05-02T07:21:48.44Z</time></trkpt><trkpt lat="44.140735" lon="12.144585"><ele>215.0</ele><time>2026-05-02T07:21:50.442Z</time></trkpt><trkpt lat="44.1406233" lon="12.14464"><ele>215.0</ele><time>2026-05-02T07:21:52.441Z</time></trkpt><trkpt lat="44.1405183" lon="12.1446917"><ele>215.0</ele><time>2026-05-02T07:21:54.442Z</time></trkpt><trkpt lat="44.1404567" lon="12.1447217"><ele>215.0</ele><time>2026-05-02T07:21:55.441Z</time></trkpt><trkpt lat="44.1403917" lon="12.1447517"><ele>215.0</ele><time>2026-05-02T07:21:56.441Z</time></trkpt><trkpt lat="44.1403317" lon="12.1447833"><ele>215.0</ele><time>2026-05-02T07:21:57.442Z</time></trkpt><trkpt lat="44.1402717" lon="12.1448183"><ele>215.0</ele><time>2026-05-02T07:21:58.441Z</time></trkpt><trkpt lat="44.1402083" lon="12.1448467"><ele>215.0</ele><time>2026-05-02T07:21:59.441Z</time></trkpt><trkpt lat="44.1401433" lon="12.1448733"><ele>215.0</ele><time>2026-05-02T07:22:00.442Z</time></trkpt><trkpt lat="44.14002" lon="12.1449167"><ele>213.2</ele><time>2026-05-02T07:22:02.442Z</time></trkpt><trkpt lat="44.13991" lon="12.14495"><ele>211.4</ele><time>2026-05-02T07:22:04.441Z</time></trkpt><trkpt lat="44.139805" lon="12.1449867"><ele>209.60000000000002</ele><time>2026-05-02T07:22:06.439Z</time></trkpt><trkpt lat="44.1397417" lon="12.14501"><ele>207.8</ele><time>2026-05-02T07:22:07.443Z</time></trkpt><trkpt lat="44.13962" lon="12.1450517"><ele>206.0</ele><time>2026-05-02T07:22:09.445Z</time></trkpt><trkpt lat="44.1395067" lon="12.1450733"><ele>206.0</ele><time>2026-05-02T07:22:11.443Z</time></trkpt><trkpt lat="44.13939" lon="12.145075"><ele>206.0</ele><time>2026-05-02T07:22:13.441Z</time></trkpt><trkpt lat="44.1392667" lon="12.1450933"><ele>206.0</ele><time>2026-05-02T07:22:15.443Z</time></trkpt><trkpt lat="44.139145" lon="12.1451017"><ele>206.0</ele><time>2026-05-02T07:22:17.442Z</time></trkpt><trkpt lat="44.13902" lon="12.1451067"><ele>206.33333333333334</ele><time>2026-05-02T07:22:19.439Z</time></trkpt><trkpt lat="44.1389567" lon="12.1451067"><ele>206.66666666666669</ele><time>2026-05-02T07:22:20.439Z</time></trkpt><trkpt lat="44.1388933" lon="12.1451033"><ele>207.0</ele><time>2026-05-02T07:22:21.445Z</time></trkpt><trkpt lat="44.138765" lon="12.1451017"><ele>207.33333333333331</ele><time>2026-05-02T07:22:23.438Z</time></trkpt><trkpt lat="44.1386983" lon="12.145105"><ele>207.66666666666666</ele><time>2026-05-02T07:22:24.439Z</time></trkpt><trkpt lat="44.1386333" lon="12.1451067"><ele>208.0</ele><time>2026-05-02T07:22:25.441Z</time></trkpt><trkpt lat="44.1385683" lon="12.14511"><ele>208.0</ele><time>2026-05-02T07:22:26.439Z</time></trkpt><trkpt lat="44.1384533" lon="12.14511"><ele>208.0</ele><time>2026-05-02T07:22:28.439Z</time></trkpt><trkpt lat="44.13834" lon="12.1451133"><ele>208.0</ele><time>2026-05-02T07:22:30.441Z</time></trkpt><trkpt lat="44.1382167" lon="12.145125"><ele>208.0</ele><time>2026-05-02T07:22:32.441Z</time></trkpt><trkpt lat="44.1381017" lon="12.1451533"><ele>208.14285714285714</ele><time>2026-05-02T07:22:34.444Z</time></trkpt><trkpt lat="44.1380367" lon="12.145175"><ele>208.2857142857143</ele><time>2026-05-02T07:22:35.443Z</time></trkpt><trkpt lat="44.1379717" lon="12.1451933"><ele>208.42857142857144</ele><time>2026-05-02T07:22:36.441Z</time></trkpt><trkpt lat="44.13791" lon="12.1452133"><ele>208.57142857142856</ele><time>2026-05-02T07:22:37.443Z</time></trkpt><trkpt lat="44.1378483" lon="12.14524"><ele>208.71428571428572</ele><time>2026-05-02T07:22:38.441Z</time></trkpt><trkpt lat="44.1377867" lon="12.14527"><ele>208.85714285714286</ele><time>2026-05-02T07:22:39.44Z</time></trkpt><trkpt lat="44.1377217" lon="12.145295"><ele>209.0</ele><time>2026-05-02T07:22:40.439Z</time></trkpt><trkpt lat="44.137655" lon="12.1453183"><ele>209.00000000000003</ele><time>2026-05-02T07:22:41.439Z</time></trkpt><trkpt lat="44.1375833" lon="12.145345"><ele>209.0</ele><time>2026-05-02T07:22:42.44Z</time></trkpt><trkpt lat="44.1375117" lon="12.1453767"><ele>209.0</ele><time>2026-05-02T07:22:43.443Z</time></trkpt><trkpt lat="44.1374367" lon="12.1454033"><ele>209.0</ele><time>2026-05-02T07:22:44.443Z</time></trkpt><trkpt lat="44.1373617" lon="12.145435"><ele>209.00000000000003</ele><time>2026-05-02T07:22:45.441Z</time></trkpt><trkpt lat="44.1372883" lon="12.1454717"><ele>209.0</ele><time>2026-05-02T07:22:46.442Z</time></trkpt><trkpt lat="44.1372083" lon="12.1455033"><ele>207.33333333333334</ele><time>2026-05-02T07:22:47.442Z</time></trkpt><trkpt lat="44.1371267" lon="12.1455367"><ele>205.66666666666669</ele><time>2026-05-02T07:22:48.44Z</time></trkpt><trkpt lat="44.1370467" lon="12.1455783"><ele>204.0</ele><time>2026-05-02T07:22:49.442Z</time></trkpt><trkpt lat="44.136965" lon="12.145625"><ele>202.33333333333331</ele><time>2026-05-02T07:22:50.443Z</time></trkpt><trkpt lat="44.1368883" lon="12.1456733"><ele>200.66666666666666</ele><time>2026-05-02T07:22:51.442Z</time></trkpt><trkpt lat="44.136815" lon="12.1457233"><ele>199.0</ele><time>2026-05-02T07:22:52.442Z</time></trkpt><trkpt lat="44.1367367" lon="12.14577"><ele>198.49999999999997</ele><time>2026-05-02T07:22:53.442Z</time></trkpt><trkpt lat="44.1366617" lon="12.145825"><ele>198.0</ele><time>2026-05-02T07:22:54.442Z</time></trkpt><trkpt lat="44.1365867" lon="12.1458783"><ele>197.5</ele><time>2026-05-02T07:22:55.442Z</time></trkpt><trkpt lat="44.136515" lon="12.145935"><ele>197.0</ele><time>2026-05-02T07:22:56.443Z</time></trkpt><trkpt lat="44.136445" lon="12.145995"><ele>196.49999999999997</ele><time>2026-05-02T07:22:57.443Z</time></trkpt><trkpt lat="44.1363817" lon="12.146055"><ele>196.0</ele><time>2026-05-02T07:22:58.441Z</time></trkpt><trkpt lat="44.1363167" lon="12.146125"><ele>195.83333333333331</ele><time>2026-05-02T07:22:59.442Z</time></trkpt><trkpt lat="44.13626" lon="12.1462017"><ele>195.66666666666666</ele><time>2026-05-02T07:23:00.443Z</time></trkpt><trkpt lat="44.136205" lon="12.1462833"><ele>195.5</ele><time>2026-05-02T07:23:01.443Z</time></trkpt><trkpt lat="44.1361517" lon="12.1463683"><ele>195.33333333333331</ele><time>2026-05-02T07:23:02.442Z</time></trkpt><trkpt lat="44.1361083" lon="12.14645"><ele>195.16666666666666</ele><time>2026-05-02T07:23:03.442Z</time></trkpt><trkpt lat="44.1360617" lon="12.146525"><ele>195.0</ele><time>2026-05-02T07:23:04.443Z</time></trkpt><trkpt lat="44.1360217" lon="12.1466"><ele>194.71428571428572</ele><time>2026-05-02T07:23:05.438Z</time></trkpt><trkpt lat="44.1359783" lon="12.14667"><ele>194.42857142857142</ele><time>2026-05-02T07:23:06.441Z</time></trkpt><trkpt lat="44.1359317" lon="12.1467333"><ele>194.14285714285717</ele><time>2026-05-02T07:23:07.442Z</time></trkpt><trkpt lat="44.1358833" lon="12.1467967"><ele>193.85714285714286</ele><time>2026-05-02T07:23:08.443Z</time></trkpt><trkpt lat="44.135835" lon="12.1468583"><ele>193.57142857142858</ele><time>2026-05-02T07:23:09.442Z</time></trkpt><trkpt lat="44.1357867" lon="12.146925"><ele>193.2857142857143</ele><time>2026-05-02T07:23:10.442Z</time></trkpt><trkpt lat="44.1357417" lon="12.1469883"><ele>193.0</ele><time>2026-05-02T07:23:11.443Z</time></trkpt><trkpt lat="44.1356917" lon="12.147055"><ele>193.00000000000003</ele><time>2026-05-02T07:23:12.44Z</time></trkpt><trkpt lat="44.1356417" lon="12.1471133"><ele>193.0</ele><time>2026-05-02T07:23:13.442Z</time></trkpt><trkpt lat="44.1355933" lon="12.1471717"><ele>193.0</ele><time>2026-05-02T07:23:14.443Z</time></trkpt><trkpt lat="44.1355367" lon="12.147225"><ele>193.0</ele><time>2026-05-02T07:23:15.443Z</time></trkpt><trkpt lat="44.135485" lon="12.1472783"><ele>193.0</ele><time>2026-05-02T07:23:16.439Z</time></trkpt><trkpt lat="44.13543" lon="12.1473267"><ele>193.00000000000003</ele><time>2026-05-02T07:23:17.442Z</time></trkpt><trkpt lat="44.135325" lon="12.1474117"><ele>193.0</ele><time>2026-05-02T07:23:19.442Z</time></trkpt><trkpt lat="44.1352233" lon="12.147495"><ele>192.8</ele><time>2026-05-02T07:23:21.443Z</time></trkpt><trkpt lat="44.1351583" lon="12.1475233"><ele>192.60000000000002</ele><time>2026-05-02T07:23:22.442Z</time></trkpt><trkpt lat="44.1350533" lon="12.147585"><ele>192.39999999999998</ele><time>2026-05-02T07:23:24.441Z</time></trkpt><trkpt lat="44.134955" lon="12.1476383"><ele>192.2</ele><time>2026-05-02T07:23:26.443Z</time></trkpt><trkpt lat="44.1348533" lon="12.1476967"><ele>192.0</ele><time>2026-05-02T07:23:28.443Z</time></trkpt><trkpt lat="44.13476" lon="12.1477533"><ele>192.0</ele><time>2026-05-02T07:23:30.443Z</time></trkpt><trkpt lat="44.1346667" lon="12.147805"><ele>192.0</ele><time>2026-05-02T07:23:32.44Z</time></trkpt><trkpt lat="44.1345733" lon="12.147865"><ele>192.0</ele><time>2026-05-02T07:23:34.442Z</time></trkpt><trkpt lat="44.1344817" lon="12.14792"><ele>192.0</ele><time>2026-05-02T07:23:36.442Z</time></trkpt><trkpt lat="44.1343933" lon="12.147985"><ele>192.0</ele><time>2026-05-02T07:23:38.442Z</time></trkpt><trkpt lat="44.1343083" lon="12.1480667"><ele>192.0</ele><time>2026-05-02T07:23:40.442Z</time></trkpt><trkpt lat="44.13422" lon="12.1481733"><ele>192.0</ele><time>2026-05-02T07:23:42.443Z</time></trkpt><trkpt lat="44.134175" lon="12.148235"><ele>192.0</ele><time>2026-05-02T07:23:43.443Z</time></trkpt><trkpt lat="44.1341333" lon="12.1483033"><ele>192.0</ele><time>2026-05-02T07:23:44.443Z</time></trkpt><trkpt lat="44.1340867" lon="12.1483717"><ele>192.0</ele><time>2026-05-02T07:23:45.444Z</time></trkpt><trkpt lat="44.134035" lon="12.1484417"><ele>192.0</ele><time>2026-05-02T07:23:46.442Z</time></trkpt><trkpt lat="44.1339783" lon="12.148515"><ele>191.28571428571428</ele><time>2026-05-02T07:23:47.442Z</time></trkpt><trkpt lat="44.1339233" lon="12.1485933"><ele>190.57142857142856</ele><time>2026-05-02T07:23:48.44Z</time></trkpt><trkpt lat="44.1338683" lon="12.148665"><ele>189.85714285714283</ele><time>2026-05-02T07:23:49.441Z</time></trkpt><trkpt lat="44.1338133" lon="12.1487333"><ele>189.14285714285714</ele><time>2026-05-02T07:23:50.442Z</time></trkpt><trkpt lat="44.1337617" lon="12.1488067"><ele>188.42857142857144</ele><time>2026-05-02T07:23:51.443Z</time></trkpt><trkpt lat="44.13371" lon="12.1488783"><ele>187.7142857142857</ele><time>2026-05-02T07:23:52.441Z</time></trkpt><trkpt lat="44.1336583" lon="12.14895"><ele>187.0</ele><time>2026-05-02T07:23:53.44Z</time></trkpt><trkpt lat="44.1336067" lon="12.1490233"><ele>187.57142857142856</ele><time>2026-05-02T07:23:54.441Z</time></trkpt><trkpt lat="44.1335567" lon="12.1490917"><ele>188.14285714285717</ele><time>2026-05-02T07:23:55.441Z</time></trkpt><trkpt lat="44.1335083" lon="12.1491583"><ele>188.71428571428572</ele><time>2026-05-02T07:23:56.439Z</time></trkpt><trkpt lat="44.1334567" lon="12.1492217"><ele>189.28571428571428</ele><time>2026-05-02T07:23:57.442Z</time></trkpt><trkpt lat="44.1334067" lon="12.1492867"><ele>189.85714285714283</ele><time>2026-05-02T07:23:58.441Z</time></trkpt><trkpt lat="44.13336" lon="12.1493533"><ele>190.42857142857144</ele><time>2026-05-02T07:23:59.442Z</time></trkpt><trkpt lat="44.1333183" lon="12.14942"><ele>191.0</ele><time>2026-05-02T07:24:00.442Z</time></trkpt><trkpt lat="44.1332417" lon="12.1495467"><ele>191.5</ele><time>2026-05-02T07:24:02.442Z</time></trkpt><trkpt lat="44.13317" lon="12.1496817"><ele>192.0</ele><time>2026-05-02T07:24:04.44Z</time></trkpt><trkpt lat="44.133105" lon="12.1498217"><ele>192.5</ele><time>2026-05-02T07:24:06.442Z</time></trkpt><trkpt lat="44.13305" lon="12.1499567"><ele>193.0</ele><time>2026-05-02T07:24:08.439Z</time></trkpt><trkpt lat="44.1330033" lon="12.150085"><ele>193.99999999999997</ele><time>2026-05-02T07:24:10.441Z</time></trkpt><trkpt lat="44.1329583" lon="12.1502083"><ele>195.0</ele><time>2026-05-02T07:24:12.441Z</time></trkpt><trkpt lat="44.1329117" lon="12.1503233"><ele>196.0</ele><time>2026-05-02T07:24:14.439Z</time></trkpt><trkpt lat="44.132855" lon="12.1504183"><ele>197.0</ele><time>2026-05-02T07:24:16.442Z</time></trkpt><trkpt lat="44.13278" lon="12.150475"><ele>197.99999999999997</ele><time>2026-05-02T07:24:18.439Z</time></trkpt><trkpt lat="44.1327017" lon="12.150485"><ele>199.0</ele><time>2026-05-02T07:24:20.44Z</time></trkpt><trkpt lat="44.1326367" lon="12.1504783"><ele>198.99999999999997</ele><time>2026-05-02T07:24:22.534Z</time></trkpt><trkpt lat="44.1325533" lon="12.1504533"><ele>199.0</ele><time>2026-05-02T07:24:25.442Z</time></trkpt><trkpt lat="44.1324767" lon="12.1504283"><ele>199.0</ele><time>2026-05-02T07:24:28.442Z</time></trkpt><trkpt lat="44.13241" lon="12.1504133"><ele>199.0</ele><time>2026-05-02T07:24:31.438Z</time></trkpt><trkpt lat="44.13234" lon="12.15038"><ele>199.0</ele><time>2026-05-02T07:24:34.441Z</time></trkpt><trkpt lat="44.1322783" lon="12.1503317"><ele>198.99999999999997</ele><time>2026-05-02T07:24:37.442Z</time></trkpt><trkpt lat="44.132215" lon="12.15029"><ele>199.0</ele><time>2026-05-02T07:24:41.442Z</time></trkpt><trkpt lat="44.13216" lon="12.1502317"><ele>200.14285714285714</ele><time>2026-05-02T07:24:45.442Z</time></trkpt><trkpt lat="44.1320983" lon="12.1501717"><ele>201.28571428571428</ele><time>2026-05-02T07:24:49.439Z</time></trkpt><trkpt lat="44.1320467" lon="12.1501"><ele>202.42857142857144</ele><time>2026-05-02T07:24:53.44Z</time></trkpt><trkpt lat="44.1319983" lon="12.1500317"><ele>203.57142857142856</ele><time>2026-05-02T07:24:57.441Z</time></trkpt><trkpt lat="44.1319467" lon="12.149955"><ele>204.71428571428572</ele><time>2026-05-02T07:25:01.439Z</time></trkpt><trkpt lat="44.131885" lon="12.14989"><ele>205.85714285714286</ele><time>2026-05-02T07:25:05.439Z</time></trkpt><trkpt lat="44.1318283" lon="12.1498333"><ele>207.0</ele><time>2026-05-02T07:25:09.438Z</time></trkpt><trkpt lat="44.1317817" lon="12.149765"><ele>207.0</ele><time>2026-05-02T07:25:13.442Z</time></trkpt><trkpt lat="44.1317217" lon="12.1496983"><ele>207.0</ele><time>2026-05-02T07:25:17.441Z</time></trkpt><trkpt lat="44.1316617" lon="12.1496183"><ele>207.0</ele><time>2026-05-02T07:25:21.441Z</time></trkpt><trkpt lat="44.1316" lon="12.1495517"><ele>207.0</ele><time>2026-05-02T07:25:25.441Z</time></trkpt><trkpt lat="44.1315233" lon="12.1495167"><ele>207.0</ele><time>2026-05-02T07:25:29.441Z</time></trkpt><trkpt lat="44.13146" lon="12.1494617"><ele>207.0</ele><time>2026-05-02T07:25:33.441Z</time></trkpt><trkpt lat="44.131405" lon="12.14941"><ele>207.0</ele><time>2026-05-02T07:25:36.441Z</time></trkpt><trkpt lat="44.131345" lon="12.1493583"><ele>207.0</ele><time>2026-05-02T07:25:39.44Z</time></trkpt><trkpt lat="44.13128" lon="12.149295"><ele>207.0</ele><time>2026-05-02T07:25:42.442Z</time></trkpt><trkpt lat="44.1312033" lon="12.1492467"><ele>207.0</ele><time>2026-05-02T07:25:45.441Z</time></trkpt><trkpt lat="44.1311383" lon="12.1491967"><ele>207.0</ele><time>2026-05-02T07:25:47.441Z</time></trkpt><trkpt lat="44.13107" lon="12.149135"><ele>207.0</ele><time>2026-05-02T07:25:49.441Z</time></trkpt><trkpt lat="44.13099" lon="12.1490733"><ele>207.2</ele><time>2026-05-02T07:25:51.441Z</time></trkpt><trkpt lat="44.13091" lon="12.14901"><ele>207.39999999999998</ele><time>2026-05-02T07:25:53.442Z</time></trkpt><trkpt lat="44.13083" lon="12.1489483"><ele>207.60000000000002</ele><time>2026-05-02T07:25:55.439Z</time></trkpt><trkpt lat="44.1307483" lon="12.14889"><ele>207.8</ele><time>2026-05-02T07:25:57.439Z</time></trkpt><trkpt lat="44.1306683" lon="12.1488317"><ele>208.0</ele><time>2026-05-02T07:25:59.442Z</time></trkpt><trkpt lat="44.13059" lon="12.1487717"><ele>207.99999999999997</ele><time>2026-05-02T07:26:01.44Z</time></trkpt><trkpt lat="44.1305117" lon="12.14872"><ele>208.0</ele><time>2026-05-02T07:26:03.44Z</time></trkpt><trkpt lat="44.1304367" lon="12.1486617"><ele>208.0</ele><time>2026-05-02T07:26:05.439Z</time></trkpt><trkpt lat="44.1303617" lon="12.1486033"><ele>208.0</ele><time>2026-05-02T07:26:07.442Z</time></trkpt><trkpt lat="44.1302833" lon="12.1485367"><ele>207.99999999999997</ele><time>2026-05-02T07:26:09.441Z</time></trkpt><trkpt lat="44.1302067" lon="12.14847"><ele>208.0</ele><time>2026-05-02T07:26:11.442Z</time></trkpt><trkpt lat="44.13013" lon="12.1484133"><ele>207.99999999999997</ele><time>2026-05-02T07:26:13.442Z</time></trkpt><trkpt lat="44.1300533" lon="12.1483583"><ele>208.0</ele><time>2026-05-02T07:26:15.441Z</time></trkpt><trkpt lat="44.12998" lon="12.1483"><ele>208.0</ele><time>2026-05-02T07:26:17.442Z</time></trkpt><trkpt lat="44.1299017" lon="12.1482433"><ele>208.0</ele><time>2026-05-02T07:26:19.438Z</time></trkpt><trkpt lat="44.129825" lon="12.14819"><ele>207.99999999999997</ele><time>2026-05-02T07:26:21.442Z</time></trkpt><trkpt lat="44.1297533" lon="12.1481367"><ele>208.0</ele><time>2026-05-02T07:26:23.442Z</time></trkpt><trkpt lat="44.1296817" lon="12.148085"><ele>207.83333333333331</ele><time>2026-05-02T07:26:25.439Z</time></trkpt><trkpt lat="44.129605" lon="12.1480417"><ele>207.66666666666666</ele><time>2026-05-02T07:26:27.441Z</time></trkpt><trkpt lat="44.1295383" lon="12.14798"><ele>207.5</ele><time>2026-05-02T07:26:29.442Z</time></trkpt><trkpt lat="44.1294683" lon="12.147925"><ele>207.33333333333331</ele><time>2026-05-02T07:26:31.442Z</time></trkpt><trkpt lat="44.1293933" lon="12.1478633"><ele>207.16666666666666</ele><time>2026-05-02T07:26:33.44Z</time></trkpt><trkpt lat="44.1293283" lon="12.1477983"><ele>207.0</ele><time>2026-05-02T07:26:35.44Z</time></trkpt><trkpt lat="44.1292667" lon="12.14773"><ele>207.0</ele><time>2026-05-02T07:26:37.442Z</time></trkpt><trkpt lat="44.1291867" lon="12.1476767"><ele>207.0</ele><time>2026-05-02T07:26:39.441Z</time></trkpt><trkpt lat="44.1291033" lon="12.147605"><ele>207.0</ele><time>2026-05-02T07:26:41.438Z</time></trkpt><trkpt lat="44.1290183" lon="12.14753"><ele>207.0</ele><time>2026-05-02T07:26:43.439Z</time></trkpt><trkpt lat="44.128945" lon="12.147455"><ele>207.0</ele><time>2026-05-02T07:26:45.44Z</time></trkpt><trkpt lat="44.1288667" lon="12.1473833"><ele>208.0</ele><time>2026-05-02T07:26:47.441Z</time></trkpt><trkpt lat="44.1287867" lon="12.1473167"><ele>209.0</ele><time>2026-05-02T07:26:49.442Z</time></trkpt><trkpt lat="44.1287133" lon="12.147245"><ele>210.0</ele><time>2026-05-02T07:26:51.443Z</time></trkpt><trkpt lat="44.1286467" lon="12.1471783"><ele>211.0</ele><time>2026-05-02T07:26:53.442Z</time></trkpt><trkpt lat="44.1285767" lon="12.147125"><ele>212.0</ele><time>2026-05-02T07:26:55.443Z</time></trkpt><trkpt lat="44.1285117" lon="12.14707"><ele>213.0</ele><time>2026-05-02T07:26:57.439Z</time></trkpt><trkpt lat="44.1284483" lon="12.1470167"><ele>213.0</ele><time>2026-05-02T07:26:59.44Z</time></trkpt><trkpt lat="44.1283883" lon="12.1469733"><ele>213.0</ele><time>2026-05-02T07:27:01.439Z</time></trkpt><trkpt lat="44.1283067" lon="12.1469283"><ele>213.0</ele><time>2026-05-02T07:27:04.438Z</time></trkpt><trkpt lat="44.1282283" lon="12.1469133"><ele>213.0</ele><time>2026-05-02T07:27:07.439Z</time></trkpt><trkpt lat="44.1281583" lon="12.14689"><ele>213.0</ele><time>2026-05-02T07:27:10.438Z</time></trkpt><trkpt lat="44.1280817" lon="12.1468817"><ele>213.0</ele><time>2026-05-02T07:27:14.44Z</time></trkpt><trkpt lat="44.1280033" lon="12.14689"><ele>213.0</ele><time>2026-05-02T07:27:19.439Z</time></trkpt><trkpt lat="44.127935" lon="12.1468933"><ele>213.0</ele><time>2026-05-02T07:27:24.439Z</time></trkpt><trkpt lat="44.1280033" lon="12.1469317"><ele>213.0</ele><time>2026-05-02T07:27:32.441Z</time></trkpt><trkpt lat="44.1280967" lon="12.146955"><ele>213.0</ele><time>2026-05-02T07:27:34.438Z</time></trkpt><trkpt lat="44.1282217" lon="12.1469817"><ele>213.0</ele><time>2026-05-02T07:27:36.442Z</time></trkpt><trkpt lat="44.128285" lon="12.14699"><ele>213.0</ele><time>2026-05-02T07:27:37.442Z</time></trkpt><trkpt lat="44.1283517" lon="12.1470467"><ele>213.0</ele><time>2026-05-02T07:27:39.439Z</time></trkpt><trkpt lat="44.1282483" lon="12.1471067"><ele>213.0</ele><time>2026-05-02T07:27:42.442Z</time></trkpt><trkpt lat="44.1281833" lon="12.1471183"><ele>213.0</ele><time>2026-05-02T07:27:43.439Z</time></trkpt><trkpt lat="44.1281167" lon="12.1471383"><ele>213.0</ele><time>2026-05-02T07:27:44.439Z</time></trkpt><trkpt lat="44.1280467" lon="12.1471633"><ele>213.0</ele><time>2026-05-02T07:27:45.442Z</time></trkpt><trkpt lat="44.127985" lon="12.1471967"><ele>213.0</ele><time>2026-05-02T07:27:46.442Z</time></trkpt><trkpt lat="44.1279217" lon="12.1472317"><ele>212.14285714285714</ele><time>2026-05-02T07:27:47.442Z</time></trkpt><trkpt lat="44.127855" lon="12.147275"><ele>211.28571428571428</ele><time>2026-05-02T07:27:48.441Z</time></trkpt><trkpt lat="44.12779" lon="12.1473183"><ele>210.42857142857144</ele><time>2026-05-02T07:27:49.441Z</time></trkpt><trkpt lat="44.12773" lon="12.1473533"><ele>209.57142857142856</ele><time>2026-05-02T07:27:50.44Z</time></trkpt><trkpt lat="44.1276667" lon="12.1473933"><ele>208.71428571428572</ele><time>2026-05-02T07:27:51.439Z</time></trkpt><trkpt lat="44.1276" lon="12.1474367"><ele>207.85714285714286</ele><time>2026-05-02T07:27:52.443Z</time></trkpt><trkpt lat="44.127535" lon="12.147485"><ele>207.0</ele><time>2026-05-02T07:27:53.438Z</time></trkpt><trkpt lat="44.1274667" lon="12.1475383"><ele>207.0</ele><time>2026-05-02T07:27:54.439Z</time></trkpt><trkpt lat="44.1274" lon="12.1475983"><ele>207.0</ele><time>2026-05-02T07:27:55.439Z</time></trkpt><trkpt lat="44.12733" lon="12.1476567"><ele>207.0</ele><time>2026-05-02T07:27:56.439Z</time></trkpt><trkpt lat="44.1272617" lon="12.1477267"><ele>207.0</ele><time>2026-05-02T07:27:57.439Z</time></trkpt><trkpt lat="44.1271967" lon="12.1478"><ele>207.0</ele><time>2026-05-02T07:27:58.439Z</time></trkpt><trkpt lat="44.127135" lon="12.1478933"><ele>207.0</ele><time>2026-05-02T07:27:59.438Z</time></trkpt><trkpt lat="44.1270783" lon="12.148"><ele>206.39999999999998</ele><time>2026-05-02T07:28:00.443Z</time></trkpt><trkpt lat="44.1270233" lon="12.14811"><ele>205.79999999999998</ele><time>2026-05-02T07:28:01.442Z</time></trkpt><trkpt lat="44.1269717" lon="12.14822"><ele>205.2</ele><time>2026-05-02T07:28:02.441Z</time></trkpt><trkpt lat="44.126915" lon="12.148335"><ele>204.6</ele><time>2026-05-02T07:28:03.442Z</time></trkpt><trkpt lat="44.1268467" lon="12.148455"><ele>204.0</ele><time>2026-05-02T07:28:04.442Z</time></trkpt><trkpt lat="44.1267733" lon="12.14858"><ele>204.0</ele><time>2026-05-02T07:28:05.441Z</time></trkpt><trkpt lat="44.1267033" lon="12.1487117"><ele>204.0</ele><time>2026-05-02T07:28:06.441Z</time></trkpt><trkpt lat="44.1266267" lon="12.1488617"><ele>204.0</ele><time>2026-05-02T07:28:07.442Z</time></trkpt><trkpt lat="44.1265517" lon="12.14901"><ele>204.0</ele><time>2026-05-02T07:28:08.443Z</time></trkpt><trkpt lat="44.126475" lon="12.1491617"><ele>203.5</ele><time>2026-05-02T07:28:09.442Z</time></trkpt><trkpt lat="44.1264" lon="12.149305"><ele>203.0</ele><time>2026-05-02T07:28:10.44Z</time></trkpt><trkpt lat="44.126325" lon="12.1494483"><ele>202.5</ele><time>2026-05-02T07:28:11.442Z</time></trkpt><trkpt lat="44.1262417" lon="12.14959"><ele>202.0</ele><time>2026-05-02T07:28:12.442Z</time></trkpt><trkpt lat="44.1261617" lon="12.149725"><ele>202.0</ele><time>2026-05-02T07:28:13.442Z</time></trkpt><trkpt lat="44.1260783" lon="12.1498617"><ele>202.0</ele><time>2026-05-02T07:28:14.442Z</time></trkpt><trkpt lat="44.1259983" lon="12.1500117"><ele>202.0</ele><time>2026-05-02T07:28:15.443Z</time></trkpt><trkpt lat="44.12592" lon="12.150165"><ele>202.0</ele><time>2026-05-02T07:28:16.442Z</time></trkpt><trkpt lat="44.12585" lon="12.1503183"><ele>202.5</ele><time>2026-05-02T07:28:17.442Z</time></trkpt><trkpt lat="44.1257783" lon="12.1504717"><ele>203.0</ele><time>2026-05-02T07:28:18.443Z</time></trkpt><trkpt lat="44.125715" lon="12.150625"><ele>203.5</ele><time>2026-05-02T07:28:19.443Z</time></trkpt><trkpt lat="44.125655" lon="12.1507833"><ele>204.0</ele><time>2026-05-02T07:28:20.44Z</time></trkpt><trkpt lat="44.1255917" lon="12.15094"><ele>204.0</ele><time>2026-05-02T07:28:21.441Z</time></trkpt><trkpt lat="44.1255417" lon="12.1510983"><ele>204.0</ele><time>2026-05-02T07:28:22.441Z</time></trkpt><trkpt lat="44.1254883" lon="12.1512583"><ele>204.0</ele><time>2026-05-02T07:28:23.441Z</time></trkpt><trkpt lat="44.1254367" lon="12.151425"><ele>204.0</ele><time>2026-05-02T07:28:24.441Z</time></trkpt><trkpt lat="44.1253933" lon="12.1515983"><ele>200.0</ele><time>2026-05-02T07:28:25.441Z</time></trkpt><trkpt lat="44.1253617" lon="12.1517667"><ele>196.0</ele><time>2026-05-02T07:28:26.44Z</time></trkpt><trkpt lat="44.1253367" lon="12.1519317"><ele>192.0</ele><time>2026-05-02T07:28:27.439Z</time></trkpt><trkpt lat="44.125305" lon="12.1520917"><ele>188.0</ele><time>2026-05-02T07:28:28.44Z</time></trkpt><trkpt lat="44.1252617" lon="12.1522517"><ele>183.75</ele><time>2026-05-02T07:28:29.44Z</time></trkpt><trkpt lat="44.125215" lon="12.1524083"><ele>179.5</ele><time>2026-05-02T07:28:30.442Z</time></trkpt><trkpt lat="44.1251617" lon="12.1525617"><ele>175.25</ele><time>2026-05-02T07:28:31.438Z</time></trkpt><trkpt lat="44.1251083" lon="12.15271"><ele>171.0</ele><time>2026-05-02T07:28:32.438Z</time></trkpt><trkpt lat="44.1250633" lon="12.1528667"><ele>171.0</ele><time>2026-05-02T07:28:33.44Z</time></trkpt><trkpt lat="44.12503" lon="12.1530317"><ele>171.0</ele><time>2026-05-02T07:28:34.439Z</time></trkpt><trkpt lat="44.1250017" lon="12.153195"><ele>171.0</ele><time>2026-05-02T07:28:35.441Z</time></trkpt><trkpt lat="44.1249683" lon="12.1533533"><ele>171.0</ele><time>2026-05-02T07:28:36.44Z</time></trkpt><trkpt lat="44.1249317" lon="12.1535067"><ele>172.75</ele><time>2026-05-02T07:28:37.439Z</time></trkpt><trkpt lat="44.1248817" lon="12.153645"><ele>174.5</ele><time>2026-05-02T07:28:38.442Z</time></trkpt><trkpt lat="44.1248183" lon="12.153775"><ele>176.25</ele><time>2026-05-02T07:28:39.442Z</time></trkpt><trkpt lat="44.124745" lon="12.1539033"><ele>178.0</ele><time>2026-05-02T07:28:40.442Z</time></trkpt><trkpt lat="44.1246783" lon="12.15403"><ele>174.8</ele><time>2026-05-02T07:28:41.442Z</time></trkpt><trkpt lat="44.1246167" lon="12.1541633"><ele>171.60000000000002</ele><time>2026-05-02T07:28:42.438Z</time></trkpt><trkpt lat="44.124565" lon="12.1542933"><ele>168.39999999999998</ele><time>2026-05-02T07:28:43.441Z</time></trkpt><trkpt lat="44.1245233" lon="12.1544267"><ele>165.2</ele><time>2026-05-02T07:28:44.442Z</time></trkpt><trkpt lat="44.1244883" lon="12.1545617"><ele>162.0</ele><time>2026-05-02T07:28:45.441Z</time></trkpt><trkpt lat="44.12446" lon="12.154695"><ele>162.0</ele><time>2026-05-02T07:28:46.44Z</time></trkpt><trkpt lat="44.12443" lon="12.1548267"><ele>162.0</ele><time>2026-05-02T07:28:47.442Z</time></trkpt><trkpt lat="44.12439" lon="12.154955"><ele>162.0</ele><time>2026-05-02T07:28:48.441Z</time></trkpt><trkpt lat="44.12434" lon="12.15507"><ele>162.0</ele><time>2026-05-02T07:28:49.444Z</time></trkpt><trkpt lat="44.124275" lon="12.1551667"><ele>162.0</ele><time>2026-05-02T07:28:50.44Z</time></trkpt><trkpt lat="44.1242133" lon="12.155265"><ele>162.2</ele><time>2026-05-02T07:28:51.44Z</time></trkpt><trkpt lat="44.1241583" lon="12.155375"><ele>162.39999999999998</ele><time>2026-05-02T07:28:52.441Z</time></trkpt><trkpt lat="44.12411" lon="12.1555033"><ele>162.60000000000002</ele><time>2026-05-02T07:28:53.441Z</time></trkpt><trkpt lat="44.1240617" lon="12.1556333"><ele>162.8</ele><time>2026-05-02T07:28:54.441Z</time></trkpt><trkpt lat="44.1240017" lon="12.1557567"><ele>163.0</ele><time>2026-05-02T07:28:55.44Z</time></trkpt><trkpt lat="44.1239317" lon="12.1558667"><ele>160.0</ele><time>2026-05-02T07:28:56.441Z</time></trkpt><trkpt lat="44.1238633" lon="12.1559633"><ele>157.0</ele><time>2026-05-02T07:28:57.44Z</time></trkpt><trkpt lat="44.123805" lon="12.1560567"><ele>154.0</ele><time>2026-05-02T07:28:58.439Z</time></trkpt><trkpt lat="44.1237533" lon="12.1561633"><ele>151.0</ele><time>2026-05-02T07:28:59.441Z</time></trkpt><trkpt lat="44.1237067" lon="12.1562783"><ele>148.0</ele><time>2026-05-02T07:29:00.441Z</time></trkpt><trkpt lat="44.1236667" lon="12.1563917"><ele>148.0</ele><time>2026-05-02T07:29:01.44Z</time></trkpt><trkpt lat="44.1236233" lon="12.156495"><ele>148.0</ele><time>2026-05-02T07:29:02.44Z</time></trkpt><trkpt lat="44.12358" lon="12.1565933"><ele>148.0</ele><time>2026-05-02T07:29:03.439Z</time></trkpt><trkpt lat="44.1235433" lon="12.1567033"><ele>148.0</ele><time>2026-05-02T07:29:04.444Z</time></trkpt><trkpt lat="44.12353" lon="12.1568267"><ele>148.0</ele><time>2026-05-02T07:29:05.441Z</time></trkpt><trkpt lat="44.1235217" lon="12.1569583"><ele>148.0</ele><time>2026-05-02T07:29:06.442Z</time></trkpt><trkpt lat="44.1235133" lon="12.1570883"><ele>145.4</ele><time>2026-05-02T07:29:07.442Z</time></trkpt><trkpt lat="44.1235067" lon="12.1572117"><ele>142.8</ele><time>2026-05-02T07:29:08.442Z</time></trkpt><trkpt lat="44.1235167" lon="12.15733"><ele>140.2</ele><time>2026-05-02T07:29:09.44Z</time></trkpt><trkpt lat="44.1235417" lon="12.1574533"><ele>137.6</ele><time>2026-05-02T07:29:10.439Z</time></trkpt><trkpt lat="44.1235867" lon="12.1575783"><ele>135.0</ele><time>2026-05-02T07:29:11.441Z</time></trkpt><trkpt lat="44.12364" lon="12.1577067"><ele>131.0</ele><time>2026-05-02T07:29:12.441Z</time></trkpt><trkpt lat="44.1237" lon="12.1578383"><ele>127.0</ele><time>2026-05-02T07:29:13.441Z</time></trkpt><trkpt lat="44.1237617" lon="12.1579767"><ele>123.0</ele><time>2026-05-02T07:29:14.44Z</time></trkpt><trkpt lat="44.123825" lon="12.1581167"><ele>119.0</ele><time>2026-05-02T07:29:15.439Z</time></trkpt><trkpt lat="44.123885" lon="12.15826"><ele>116.75</ele><time>2026-05-02T07:29:16.441Z</time></trkpt><trkpt lat="44.1239417" lon="12.15841"><ele>114.5</ele><time>2026-05-02T07:29:17.443Z</time></trkpt><trkpt lat="44.1239983" lon="12.1585617"><ele>112.25</ele><time>2026-05-02T07:29:18.441Z</time></trkpt><trkpt lat="44.1240567" lon="12.1587133"><ele>110.0</ele><time>2026-05-02T07:29:19.439Z</time></trkpt><trkpt lat="44.124115" lon="12.1588617"><ele>110.0</ele><time>2026-05-02T07:29:20.441Z</time></trkpt><trkpt lat="44.124175" lon="12.15901"><ele>110.0</ele><time>2026-05-02T07:29:21.441Z</time></trkpt><trkpt lat="44.12423" lon="12.15916"><ele>110.0</ele><time>2026-05-02T07:29:22.441Z</time></trkpt><trkpt lat="44.1242767" lon="12.1593017"><ele>110.0</ele><time>2026-05-02T07:29:23.44Z</time></trkpt><trkpt lat="44.1243217" lon="12.1594233"><ele>108.66666666666666</ele><time>2026-05-02T07:29:24.44Z</time></trkpt><trkpt lat="44.1243583" lon="12.1595267"><ele>107.33333333333333</ele><time>2026-05-02T07:29:25.44Z</time></trkpt><trkpt lat="44.1243817" lon="12.15962"><ele>106.0</ele><time>2026-05-02T07:29:26.441Z</time></trkpt><trkpt lat="44.1243833" lon="12.1597167"><ele>104.66666666666666</ele><time>2026-05-02T07:29:27.443Z</time></trkpt><trkpt lat="44.124375" lon="12.1598133"><ele>103.33333333333333</ele><time>2026-05-02T07:29:28.442Z</time></trkpt><trkpt lat="44.1243467" lon="12.159915"><ele>102.0</ele><time>2026-05-02T07:29:29.442Z</time></trkpt><trkpt lat="44.1242967" lon="12.1600333"><ele>100.8</ele><time>2026-05-02T07:29:30.442Z</time></trkpt><trkpt lat="44.1242517" lon="12.1601583"><ele>99.6</ele><time>2026-05-02T07:29:31.439Z</time></trkpt><trkpt lat="44.1242033" lon="12.160275"><ele>98.39999999999999</ele><time>2026-05-02T07:29:32.442Z</time></trkpt><trkpt lat="44.124135" lon="12.1603717"><ele>97.19999999999999</ele><time>2026-05-02T07:29:33.441Z</time></trkpt><trkpt lat="44.1240667" lon="12.1604483"><ele>96.0</ele><time>2026-05-02T07:29:34.44Z</time></trkpt><trkpt lat="44.1239883" lon="12.1605083"><ele>94.75</ele><time>2026-05-02T07:29:35.442Z</time></trkpt><trkpt lat="44.1238867" lon="12.1605467"><ele>93.5</ele><time>2026-05-02T07:29:36.442Z</time></trkpt><trkpt lat="44.123765" lon="12.1605533"><ele>92.25</ele><time>2026-05-02T07:29:37.441Z</time></trkpt><trkpt lat="44.1236467" lon="12.1605483"><ele>91.0</ele><time>2026-05-02T07:29:38.441Z</time></trkpt><trkpt lat="44.1235317" lon="12.1605233"><ele>91.0</ele><time>2026-05-02T07:29:39.443Z</time></trkpt><trkpt lat="44.1234283" lon="12.16049"><ele>91.0</ele><time>2026-05-02T07:29:40.443Z</time></trkpt><trkpt lat="44.1233317" lon="12.1604567"><ele>91.0</ele><time>2026-05-02T07:29:41.443Z</time></trkpt><trkpt lat="44.12325" lon="12.1604317"><ele>91.0</ele><time>2026-05-02T07:29:42.439Z</time></trkpt><trkpt lat="44.1231733" lon="12.1604417"><ele>91.0</ele><time>2026-05-02T07:29:43.44Z</time></trkpt><trkpt lat="44.1230967" lon="12.160455"><ele>91.0</ele><time>2026-05-02T07:29:44.442Z</time></trkpt><trkpt lat="44.123035" lon="12.1605367"><ele>92.57142857142857</ele><time>2026-05-02T07:29:46.443Z</time></trkpt><trkpt lat="44.1230667" lon="12.160635"><ele>94.14285714285714</ele><time>2026-05-02T07:29:49.439Z</time></trkpt><trkpt lat="44.123085" lon="12.1607367"><ele>95.71428571428572</ele><time>2026-05-02T07:29:53.44Z</time></trkpt><trkpt lat="44.1230967" lon="12.1608233"><ele>97.28571428571428</ele><time>2026-05-02T07:29:57.44Z</time></trkpt><trkpt lat="44.1231267" lon="12.1609217"><ele>98.85714285714286</ele><time>2026-05-02T07:30:02.44Z</time></trkpt><trkpt lat="44.123145" lon="12.1610133"><ele>100.42857142857143</ele><time>2026-05-02T07:30:07.439Z</time></trkpt><trkpt lat="44.1231633" lon="12.1611"><ele>102.0</ele><time>2026-05-02T07:30:11.438Z</time></trkpt><trkpt lat="44.1231733" lon="12.1611933"><ele>101.28571428571429</ele><time>2026-05-02T07:30:15.443Z</time></trkpt><trkpt lat="44.123195" lon="12.161295"><ele>100.57142857142858</ele><time>2026-05-02T07:30:20.439Z</time></trkpt><trkpt lat="44.1232183" lon="12.16138"><ele>99.85714285714286</ele><time>2026-05-02T07:30:25.44Z</time></trkpt><trkpt lat="44.1232217" lon="12.1614817"><ele>99.14285714285714</ele><time>2026-05-02T07:30:30.44Z</time></trkpt><trkpt lat="44.1232367" lon="12.1615883"><ele>98.42857142857143</ele><time>2026-05-02T07:30:35.44Z</time></trkpt><trkpt lat="44.1232567" lon="12.16169"><ele>97.71428571428571</ele><time>2026-05-02T07:30:40.44Z</time></trkpt><trkpt lat="44.1232633" lon="12.1617817"><ele>97.0</ele><time>2026-05-02T07:30:44.44Z</time></trkpt><trkpt lat="44.12327" lon="12.161885"><ele>97.0</ele><time>2026-05-02T07:30:49.441Z</time></trkpt><trkpt lat="44.12329" lon="12.1619833"><ele>97.0</ele><time>2026-05-02T07:30:54.441Z</time></trkpt><trkpt lat="44.1233133" lon="12.1620867"><ele>97.0</ele><time>2026-05-02T07:30:59.438Z</time></trkpt><trkpt lat="44.123325" lon="12.1621933"><ele>97.0</ele><time>2026-05-02T07:31:04.442Z</time></trkpt><trkpt lat="44.1233117" lon="12.1622833"><ele>97.0</ele><time>2026-05-02T07:31:08.44Z</time></trkpt><trkpt lat="44.123325" lon="12.1623883"><ele>97.0</ele><time>2026-05-02T07:31:13.441Z</time></trkpt><trkpt lat="44.123345" lon="12.1624933"><ele>97.0</ele><time>2026-05-02T07:31:18.44Z</time></trkpt><trkpt lat="44.1233467" lon="12.1626017"><ele>97.85714285714285</ele><time>2026-05-02T07:31:23.443Z</time></trkpt><trkpt lat="44.123335" lon="12.16269"><ele>98.71428571428572</ele><time>2026-05-02T07:31:27.44Z</time></trkpt><trkpt lat="44.123315" lon="12.1627833"><ele>99.57142857142857</ele><time>2026-05-02T07:31:31.439Z</time></trkpt><trkpt lat="44.1232867" lon="12.1628617"><ele>100.42857142857142</ele><time>2026-05-02T07:31:34.439Z</time></trkpt><trkpt lat="44.1232367" lon="12.1629367"><ele>101.28571428571428</ele><time>2026-05-02T07:31:37.441Z</time></trkpt><trkpt lat="44.1231817" lon="12.1630233"><ele>102.14285714285714</ele><time>2026-05-02T07:31:40.53Z</time></trkpt><trkpt lat="44.1231283" lon="12.1631133"><ele>103.0</ele><time>2026-05-02T07:31:43.441Z</time></trkpt><trkpt lat="44.1230717" lon="12.16321"><ele>104.57142857142856</ele><time>2026-05-02T07:31:46.441Z</time></trkpt><trkpt lat="44.12303" lon="12.1632783"><ele>106.14285714285714</ele><time>2026-05-02T07:31:48.443Z</time></trkpt><trkpt lat="44.1229817" lon="12.16334"><ele>107.71428571428571</ele><time>2026-05-02T07:31:50.441Z</time></trkpt><trkpt lat="44.1229367" lon="12.16341"><ele>109.28571428571428</ele><time>2026-05-02T07:31:52.439Z</time></trkpt><trkpt lat="44.1228983" lon="12.1634867"><ele>110.85714285714285</ele><time>2026-05-02T07:31:54.441Z</time></trkpt><trkpt lat="44.1228567" lon="12.163565"><ele>112.42857142857142</ele><time>2026-05-02T07:31:56.44Z</time></trkpt><trkpt lat="44.1228183" lon="12.1636383"><ele>114.0</ele><time>2026-05-02T07:31:58.442Z</time></trkpt><trkpt lat="44.1227733" lon="12.16371"><ele>114.0</ele><time>2026-05-02T07:32:00.44Z</time></trkpt><trkpt lat="44.1227267" lon="12.163785"><ele>113.99999999999999</ele><time>2026-05-02T07:32:02.443Z</time></trkpt><trkpt lat="44.1226783" lon="12.1638717"><ele>114.0</ele><time>2026-05-02T07:32:04.439Z</time></trkpt><trkpt lat="44.122625" lon="12.1639433"><ele>114.0</ele><time>2026-05-02T07:32:06.441Z</time></trkpt><trkpt lat="44.1225767" lon="12.164025"><ele>113.99999999999999</ele><time>2026-05-02T07:32:08.442Z</time></trkpt><trkpt lat="44.1225267" lon="12.1641017"><ele>114.0</ele><time>2026-05-02T07:32:10.442Z</time></trkpt><trkpt lat="44.12248" lon="12.16417"><ele>114.0</ele><time>2026-05-02T07:32:12.441Z</time></trkpt><trkpt lat="44.12243" lon="12.1642367"><ele>113.85714285714285</ele><time>2026-05-02T07:32:14.441Z</time></trkpt><trkpt lat="44.1223817" lon="12.1643017"><ele>113.7142857142857</ele><time>2026-05-02T07:32:16.443Z</time></trkpt><trkpt lat="44.1223217" lon="12.1643567"><ele>113.57142857142857</ele><time>2026-05-02T07:32:18.442Z</time></trkpt><trkpt lat="44.1222617" lon="12.1643933"><ele>113.42857142857142</ele><time>2026-05-02T07:32:20.443Z</time></trkpt><trkpt lat="44.1221967" lon="12.1644167"><ele>113.28571428571428</ele><time>2026-05-02T07:32:22.442Z</time></trkpt><trkpt lat="44.1221217" lon="12.164435"><ele>113.14285714285714</ele><time>2026-05-02T07:32:24.443Z</time></trkpt><trkpt lat="44.1220467" lon="12.1644417"><ele>113.0</ele><time>2026-05-02T07:32:26.441Z</time></trkpt><trkpt lat="44.1219717" lon="12.16446"><ele>112.99999999999999</ele><time>2026-05-02T07:32:28.438Z</time></trkpt><trkpt lat="44.1219" lon="12.1644817"><ele>113.0</ele><time>2026-05-02T07:32:30.44Z</time></trkpt><trkpt lat="44.121835" lon="12.1645067"><ele>113.0</ele><time>2026-05-02T07:32:32.442Z</time></trkpt><trkpt lat="44.121765" lon="12.1645567"><ele>113.0</ele><time>2026-05-02T07:32:34.438Z</time></trkpt><trkpt lat="44.121695" lon="12.164615"><ele>112.99999999999999</ele><time>2026-05-02T07:32:36.442Z</time></trkpt><trkpt lat="44.1216233" lon="12.1646667"><ele>113.0</ele><time>2026-05-02T07:32:38.439Z</time></trkpt><trkpt lat="44.12155" lon="12.164725"><ele>115.83333333333333</ele><time>2026-05-02T07:32:40.443Z</time></trkpt><trkpt lat="44.121485" lon="12.1648"><ele>118.66666666666666</ele><time>2026-05-02T07:32:42.443Z</time></trkpt><trkpt lat="44.1214317" lon="12.1649033"><ele>121.5</ele><time>2026-05-02T07:32:44.44Z</time></trkpt><trkpt lat="44.1213933" lon="12.1650133"><ele>124.33333333333334</ele><time>2026-05-02T07:32:46.442Z</time></trkpt><trkpt lat="44.1213633" lon="12.1651383"><ele>127.16666666666667</ele><time>2026-05-02T07:32:48.441Z</time></trkpt><trkpt lat="44.12134" lon="12.165255"><ele>130.0</ele><time>2026-05-02T07:32:50.442Z</time></trkpt><trkpt lat="44.1213267" lon="12.165375"><ele>130.0</ele><time>2026-05-02T07:32:52.443Z</time></trkpt><trkpt lat="44.121315" lon="12.1654967"><ele>130.0</ele><time>2026-05-02T07:32:54.44Z</time></trkpt><trkpt lat="44.12131" lon="12.165625"><ele>130.0</ele><time>2026-05-02T07:32:56.442Z</time></trkpt><trkpt lat="44.1213167" lon="12.1657733"><ele>130.0</ele><time>2026-05-02T07:32:58.44Z</time></trkpt><trkpt lat="44.1213383" lon="12.1659467"><ele>130.0</ele><time>2026-05-02T07:33:00.439Z</time></trkpt><trkpt lat="44.121355" lon="12.1660417"><ele>128.83333333333334</ele><time>2026-05-02T07:33:01.439Z</time></trkpt><trkpt lat="44.12137" lon="12.166145"><ele>127.66666666666667</ele><time>2026-05-02T07:33:02.441Z</time></trkpt><trkpt lat="44.1213867" lon="12.166255"><ele>126.5</ele><time>2026-05-02T07:33:03.441Z</time></trkpt><trkpt lat="44.121405" lon="12.16637"><ele>125.33333333333334</ele><time>2026-05-02T07:33:04.441Z</time></trkpt><trkpt lat="44.1214217" lon="12.16649"><ele>124.16666666666667</ele><time>2026-05-02T07:33:05.441Z</time></trkpt><trkpt lat="44.1214383" lon="12.1666083"><ele>123.0</ele><time>2026-05-02T07:33:06.441Z</time></trkpt><trkpt lat="44.121455" lon="12.166715"><ele>121.0</ele><time>2026-05-02T07:33:07.44Z</time></trkpt><trkpt lat="44.121465" lon="12.166805"><ele>119.0</ele><time>2026-05-02T07:33:08.44Z</time></trkpt><trkpt lat="44.1214783" lon="12.166915"><ele>117.0</ele><time>2026-05-02T07:33:10.444Z</time></trkpt><trkpt lat="44.12144" lon="12.1670017"><ele>115.0</ele><time>2026-05-02T07:33:13.442Z</time></trkpt><trkpt lat="44.1213683" lon="12.1670167"><ele>113.0</ele><time>2026-05-02T07:33:17.443Z</time></trkpt><trkpt lat="44.121315" lon="12.1670717"><ele>111.0</ele><time>2026-05-02T07:33:24.443Z</time></trkpt><trkpt lat="44.121405" lon="12.1670267"><ele>111.0</ele><time>2026-05-02T07:33:33.441Z</time></trkpt><trkpt lat="44.1214733" lon="12.1670233"><ele>111.0</ele><time>2026-05-02T07:33:35.44Z</time></trkpt><trkpt lat="44.12156" lon="12.1671083"><ele>111.0</ele><time>2026-05-02T07:33:37.441Z</time></trkpt><trkpt lat="44.121615" lon="12.1671617"><ele>111.0</ele><time>2026-05-02T07:33:38.439Z</time></trkpt><trkpt lat="44.1216767" lon="12.1672267"><ele>111.0</ele><time>2026-05-02T07:33:39.441Z</time></trkpt><trkpt lat="44.1217367" lon="12.1673083"><ele>111.0</ele><time>2026-05-02T07:33:40.443Z</time></trkpt><trkpt lat="44.1217767" lon="12.1674117"><ele>107.0</ele><time>2026-05-02T07:33:41.44Z</time></trkpt><trkpt lat="44.1217817" lon="12.167535"><ele>103.0</ele><time>2026-05-02T07:33:42.443Z</time></trkpt><trkpt lat="44.1217567" lon="12.1676633"><ele>99.0</ele><time>2026-05-02T07:33:43.441Z</time></trkpt><trkpt lat="44.121725" lon="12.1677833"><ele>95.0</ele><time>2026-05-02T07:33:44.44Z</time></trkpt><trkpt lat="44.1216817" lon="12.1679083"><ele>91.0</ele><time>2026-05-02T07:33:45.442Z</time></trkpt><trkpt lat="44.121635" lon="12.1680117"><ele>91.0</ele><time>2026-05-02T07:33:46.441Z</time></trkpt><trkpt lat="44.12158" lon="12.1681"><ele>91.0</ele><time>2026-05-02T07:33:47.443Z</time></trkpt><trkpt lat="44.1215083" lon="12.16817"><ele>91.0</ele><time>2026-05-02T07:33:48.44Z</time></trkpt><trkpt lat="44.1214283" lon="12.1682267"><ele>91.0</ele><time>2026-05-02T07:33:49.441Z</time></trkpt><trkpt lat="44.1213483" lon="12.1682667"><ele>91.0</ele><time>2026-05-02T07:33:50.44Z</time></trkpt><trkpt lat="44.1212667" lon="12.1683083"><ele>91.0</ele><time>2026-05-02T07:33:51.441Z</time></trkpt><trkpt lat="44.12121" lon="12.1683683"><ele>90.16666666666666</ele><time>2026-05-02T07:33:52.441Z</time></trkpt><trkpt lat="44.1211867" lon="12.1684533"><ele>89.33333333333333</ele><time>2026-05-02T07:33:53.44Z</time></trkpt><trkpt lat="44.1212033" lon="12.1685583"><ele>88.5</ele><time>2026-05-02T07:33:54.44Z</time></trkpt><trkpt lat="44.1212333" lon="12.1686517"><ele>87.66666666666667</ele><time>2026-05-02T07:33:55.442Z</time></trkpt><trkpt lat="44.1212967" lon="12.16873"><ele>86.83333333333334</ele><time>2026-05-02T07:33:56.442Z</time></trkpt><trkpt lat="44.121395" lon="12.1687833"><ele>86.0</ele><time>2026-05-02T07:33:57.439Z</time></trkpt><trkpt lat="44.1215267" lon="12.1688317"><ele>85.4</ele><time>2026-05-02T07:33:58.439Z</time></trkpt><trkpt lat="44.1216317" lon="12.16889"><ele>84.8</ele><time>2026-05-02T07:33:59.44Z</time></trkpt><trkpt lat="44.1217233" lon="12.1689617"><ele>84.2</ele><time>2026-05-02T07:34:00.443Z</time></trkpt><trkpt lat="44.121815" lon="12.169035"><ele>83.60000000000001</ele><time>2026-05-02T07:34:01.439Z</time></trkpt><trkpt lat="44.1219" lon="12.16912"><ele>83.0</ele><time>2026-05-02T07:34:02.443Z</time></trkpt><trkpt lat="44.121985" lon="12.169215"><ele>82.0</ele><time>2026-05-02T07:34:03.443Z</time></trkpt><trkpt lat="44.12206" lon="12.169315"><ele>81.0</ele><time>2026-05-02T07:34:04.442Z</time></trkpt><trkpt lat="44.1221133" lon="12.1694283"><ele>80.0</ele><time>2026-05-02T07:34:05.443Z</time></trkpt><trkpt lat="44.122165" lon="12.1695483"><ele>79.0</ele><time>2026-05-02T07:34:06.441Z</time></trkpt><trkpt lat="44.1222083" lon="12.1696733"><ele>78.0</ele><time>2026-05-02T07:34:07.441Z</time></trkpt><trkpt lat="44.1222583" lon="12.1697933"><ele>78.0</ele><time>2026-05-02T07:34:08.44Z</time></trkpt><trkpt lat="44.1223033" lon="12.169915"><ele>78.0</ele><time>2026-05-02T07:34:09.441Z</time></trkpt><trkpt lat="44.1223483" lon="12.1700333"><ele>78.0</ele><time>2026-05-02T07:34:10.44Z</time></trkpt><trkpt lat="44.12239" lon="12.17015"><ele>78.0</ele><time>2026-05-02T07:34:11.439Z</time></trkpt><trkpt lat="44.12243" lon="12.1702717"><ele>78.0</ele><time>2026-05-02T07:34:12.44Z</time></trkpt><trkpt lat="44.1224683" lon="12.1703933"><ele>77.5</ele><time>2026-05-02T07:34:13.442Z</time></trkpt><trkpt lat="44.122495" lon="12.170515"><ele>77.0</ele><time>2026-05-02T07:34:14.44Z</time></trkpt><trkpt lat="44.122505" lon="12.1706383"><ele>76.5</ele><time>2026-05-02T07:34:15.439Z</time></trkpt><trkpt lat="44.1225" lon="12.1707567"><ele>76.0</ele><time>2026-05-02T07:34:16.443Z</time></trkpt><trkpt lat="44.12247" lon="12.1708633"><ele>75.5</ele><time>2026-05-02T07:34:17.44Z</time></trkpt><trkpt lat="44.12242" lon="12.170955"><ele>75.0</ele><time>2026-05-02T07:34:18.441Z</time></trkpt><trkpt lat="44.1223583" lon="12.17104"><ele>75.0</ele><time>2026-05-02T07:34:19.44Z</time></trkpt><trkpt lat="44.1223017" lon="12.171125"><ele>75.0</ele><time>2026-05-02T07:34:20.44Z</time></trkpt><trkpt lat="44.1222483" lon="12.17121"><ele>75.0</ele><time>2026-05-02T07:34:21.442Z</time></trkpt><trkpt lat="44.1221967" lon="12.171295"><ele>75.0</ele><time>2026-05-02T07:34:22.44Z</time></trkpt><trkpt lat="44.122145" lon="12.1713767"><ele>75.0</ele><time>2026-05-02T07:34:23.441Z</time></trkpt><trkpt lat="44.1220933" lon="12.1714567"><ele>75.0</ele><time>2026-05-02T07:34:24.44Z</time></trkpt><trkpt lat="44.122045" lon="12.17154"><ele>74.71428571428571</ele><time>2026-05-02T07:34:25.443Z</time></trkpt><trkpt lat="44.122" lon="12.17163"><ele>74.42857142857143</ele><time>2026-05-02T07:34:26.442Z</time></trkpt><trkpt lat="44.1219567" lon="12.1717167"><ele>74.14285714285714</ele><time>2026-05-02T07:34:27.442Z</time></trkpt><trkpt lat="44.1219133" lon="12.171795"><ele>73.85714285714286</ele><time>2026-05-02T07:34:28.442Z</time></trkpt><trkpt lat="44.121875" lon="12.17188"><ele>73.57142857142857</ele><time>2026-05-02T07:34:29.443Z</time></trkpt><trkpt lat="44.1218417" lon="12.1719667"><ele>73.28571428571428</ele><time>2026-05-02T07:34:30.442Z</time></trkpt><trkpt lat="44.1218117" lon="12.172055"><ele>73.0</ele><time>2026-05-02T07:34:31.44Z</time></trkpt><trkpt lat="44.121785" lon="12.172145"><ele>73.0</ele><time>2026-05-02T07:34:32.44Z</time></trkpt><trkpt lat="44.1217583" lon="12.172235"><ele>73.0</ele><time>2026-05-02T07:34:33.444Z</time></trkpt><trkpt lat="44.121735" lon="12.1723217"><ele>73.0</ele><time>2026-05-02T07:34:34.443Z</time></trkpt><trkpt lat="44.1217083" lon="12.1724117"><ele>73.0</ele><time>2026-05-02T07:34:35.442Z</time></trkpt><trkpt lat="44.1216833" lon="12.1725017"><ele>73.0</ele><time>2026-05-02T07:34:36.441Z</time></trkpt><trkpt lat="44.1216583" lon="12.17259"><ele>73.0</ele><time>2026-05-02T07:34:37.44Z</time></trkpt><trkpt lat="44.1216333" lon="12.17268"><ele>73.0</ele><time>2026-05-02T07:34:38.439Z</time></trkpt><trkpt lat="44.1216083" lon="12.17277"><ele>73.0</ele><time>2026-05-02T07:34:39.439Z</time></trkpt><trkpt lat="44.121585" lon="12.1728583"><ele>73.0</ele><time>2026-05-02T07:34:40.44Z</time></trkpt><trkpt lat="44.1215583" lon="12.172945"><ele>73.0</ele><time>2026-05-02T07:34:41.44Z</time></trkpt><trkpt lat="44.1215283" lon="12.1730333"><ele>73.0</ele><time>2026-05-02T07:34:42.439Z</time></trkpt><trkpt lat="44.1215033" lon="12.17312"><ele>73.0</ele><time>2026-05-02T07:34:43.439Z</time></trkpt><trkpt lat="44.1214817" lon="12.17321"><ele>73.0</ele><time>2026-05-02T07:34:44.44Z</time></trkpt><trkpt lat="44.1214583" lon="12.1732983"><ele>73.0</ele><time>2026-05-02T07:34:45.439Z</time></trkpt><trkpt lat="44.1214317" lon="12.173385"><ele>74.0</ele><time>2026-05-02T07:34:46.44Z</time></trkpt><trkpt lat="44.121405" lon="12.1734667"><ele>75.0</ele><time>2026-05-02T07:34:47.44Z</time></trkpt><trkpt lat="44.1213783" lon="12.1735533"><ele>76.0</ele><time>2026-05-02T07:34:48.439Z</time></trkpt><trkpt lat="44.1213483" lon="12.173635"><ele>77.0</ele><time>2026-05-02T07:34:49.44Z</time></trkpt><trkpt lat="44.12132" lon="12.173715"><ele>78.0</ele><time>2026-05-02T07:34:50.44Z</time></trkpt><trkpt lat="44.121295" lon="12.1737967"><ele>79.0</ele><time>2026-05-02T07:34:51.439Z</time></trkpt><trkpt lat="44.1212717" lon="12.1738783"><ele>80.0</ele><time>2026-05-02T07:34:52.44Z</time></trkpt><trkpt lat="44.1212483" lon="12.1739617"><ele>79.28571428571428</ele><time>2026-05-02T07:34:53.44Z</time></trkpt><trkpt lat="44.1212283" lon="12.1740483"><ele>78.57142857142857</ele><time>2026-05-02T07:34:54.44Z</time></trkpt><trkpt lat="44.12121" lon="12.174135"><ele>77.85714285714286</ele><time>2026-05-02T07:34:55.44Z</time></trkpt><trkpt lat="44.1211933" lon="12.1742233"><ele>77.14285714285714</ele><time>2026-05-02T07:34:56.439Z</time></trkpt><trkpt lat="44.121175" lon="12.1743133"><ele>76.42857142857143</ele><time>2026-05-02T07:34:57.44Z</time></trkpt><trkpt lat="44.1211567" lon="12.1744017"><ele>75.71428571428571</ele><time>2026-05-02T07:34:58.439Z</time></trkpt><trkpt lat="44.12114" lon="12.1744917"><ele>75.0</ele><time>2026-05-02T07:34:59.439Z</time></trkpt><trkpt lat="44.1211233" lon="12.1745817"><ele>75.0</ele><time>2026-05-02T07:35:00.44Z</time></trkpt><trkpt lat="44.1211033" lon="12.17467"><ele>75.0</ele><time>2026-05-02T07:35:01.439Z</time></trkpt><trkpt lat="44.1210833" lon="12.1747583"><ele>75.0</ele><time>2026-05-02T07:35:02.44Z</time></trkpt><trkpt lat="44.1210633" lon="12.174845"><ele>75.0</ele><time>2026-05-02T07:35:03.439Z</time></trkpt><trkpt lat="44.1210217" lon="12.17501"><ele>75.0</ele><time>2026-05-02T07:35:05.442Z</time></trkpt><trkpt lat="44.1209967" lon="12.175095"><ele>75.0</ele><time>2026-05-02T07:35:06.439Z</time></trkpt><trkpt lat="44.1209733" lon="12.17518"><ele>74.16666666666667</ele><time>2026-05-02T07:35:07.44Z</time></trkpt><trkpt lat="44.12095" lon="12.1752633"><ele>73.33333333333333</ele><time>2026-05-02T07:35:08.441Z</time></trkpt><trkpt lat="44.12093" lon="12.1753483"><ele>72.5</ele><time>2026-05-02T07:35:09.443Z</time></trkpt><trkpt lat="44.1209117" lon="12.1754333"><ele>71.66666666666666</ele><time>2026-05-02T07:35:10.443Z</time></trkpt><trkpt lat="44.1208817" lon="12.1756"><ele>70.83333333333333</ele><time>2026-05-02T07:35:12.441Z</time></trkpt><trkpt lat="44.1208717" lon="12.1756883"><ele>70.0</ele><time>2026-05-02T07:35:13.439Z</time></trkpt><trkpt lat="44.120855" lon="12.1758583"><ele>69.5</ele><time>2026-05-02T07:35:15.442Z</time></trkpt><trkpt lat="44.1208517" lon="12.1760167"><ele>69.0</ele><time>2026-05-02T07:35:17.443Z</time></trkpt><trkpt lat="44.1208633" lon="12.1761817"><ele>68.5</ele><time>2026-05-02T07:35:19.441Z</time></trkpt><trkpt lat="44.1208767" lon="12.1763467"><ele>68.0</ele><time>2026-05-02T07:35:21.441Z</time></trkpt><trkpt lat="44.12089" lon="12.1765133"><ele>67.75</ele><time>2026-05-02T07:35:23.441Z</time></trkpt><trkpt lat="44.1209017" lon="12.1766783"><ele>67.5</ele><time>2026-05-02T07:35:25.439Z</time></trkpt><trkpt lat="44.1209133" lon="12.17684"><ele>67.25</ele><time>2026-05-02T07:35:27.441Z</time></trkpt><trkpt lat="44.1209267" lon="12.177"><ele>67.0</ele><time>2026-05-02T07:35:29.44Z</time></trkpt><trkpt lat="44.1209383" lon="12.1771617"><ele>67.0</ele><time>2026-05-02T07:35:31.44Z</time></trkpt><trkpt lat="44.120955" lon="12.1773217"><ele>67.0</ele><time>2026-05-02T07:35:33.441Z</time></trkpt><trkpt lat="44.1209733" lon="12.17748"><ele>67.0</ele><time>2026-05-02T07:35:35.439Z</time></trkpt><trkpt lat="44.120985" lon="12.17764"><ele>67.0</ele><time>2026-05-02T07:35:37.44Z</time></trkpt><trkpt lat="44.1209983" lon="12.177795"><ele>67.0</ele><time>2026-05-02T07:35:39.44Z</time></trkpt><trkpt lat="44.1210133" lon="12.177945"><ele>67.0</ele><time>2026-05-02T07:35:41.441Z</time></trkpt><trkpt lat="44.1210317" lon="12.1780867"><ele>67.0</ele><time>2026-05-02T07:35:43.44Z</time></trkpt><trkpt lat="44.1210567" lon="12.1782333"><ele>67.0</ele><time>2026-05-02T07:35:45.441Z</time></trkpt><trkpt lat="44.121085" lon="12.1783783"><ele>67.0</ele><time>2026-05-02T07:35:47.442Z</time></trkpt><trkpt lat="44.1211133" lon="12.1785233"><ele>67.0</ele><time>2026-05-02T07:35:49.44Z</time></trkpt><trkpt lat="44.1211483" lon="12.1786633"><ele>67.0</ele><time>2026-05-02T07:35:51.439Z</time></trkpt><trkpt lat="44.1211817" lon="12.1788083"><ele>67.0</ele><time>2026-05-02T07:35:53.44Z</time></trkpt><trkpt lat="44.1211967" lon="12.1789567"><ele>67.0</ele><time>2026-05-02T07:35:55.443Z</time></trkpt><trkpt lat="44.12118" lon="12.1791067"><ele>67.0</ele><time>2026-05-02T07:35:57.442Z</time></trkpt><trkpt lat="44.1211617" lon="12.179255"><ele>67.0</ele><time>2026-05-02T07:35:59.44Z</time></trkpt><trkpt lat="44.1211433" lon="12.1793967"><ele>67.0</ele><time>2026-05-02T07:36:01.439Z</time></trkpt><trkpt lat="44.12113" lon="12.1795417"><ele>67.0</ele><time>2026-05-02T07:36:03.44Z</time></trkpt><trkpt lat="44.1211133" lon="12.179685"><ele>67.0</ele><time>2026-05-02T07:36:05.441Z</time></trkpt><trkpt lat="44.1211017" lon="12.179825"><ele>67.0</ele><time>2026-05-02T07:36:07.44Z</time></trkpt><trkpt lat="44.1210833" lon="12.17997"><ele>67.4</ele><time>2026-05-02T07:36:09.44Z</time></trkpt><trkpt lat="44.121055" lon="12.180105"><ele>67.80000000000001</ele><time>2026-05-02T07:36:11.439Z</time></trkpt><trkpt lat="44.12103" lon="12.180235"><ele>68.2</ele><time>2026-05-02T07:36:13.44Z</time></trkpt><trkpt lat="44.121" lon="12.180365"><ele>68.60000000000001</ele><time>2026-05-02T07:36:15.44Z</time></trkpt><trkpt lat="44.120965" lon="12.1804867"><ele>69.0</ele><time>2026-05-02T07:36:17.443Z</time></trkpt><trkpt lat="44.1209383" lon="12.18061"><ele>69.0</ele><time>2026-05-02T07:36:19.44Z</time></trkpt><trkpt lat="44.1209117" lon="12.18073"><ele>69.0</ele><time>2026-05-02T07:36:21.44Z</time></trkpt><trkpt lat="44.1208817" lon="12.1808567"><ele>69.0</ele><time>2026-05-02T07:36:23.44Z</time></trkpt><trkpt lat="44.1208633" lon="12.1809733"><ele>69.0</ele><time>2026-05-02T07:36:25.44Z</time></trkpt><trkpt lat="44.1208417" lon="12.1810917"><ele>69.0</ele><time>2026-05-02T07:36:27.443Z</time></trkpt><trkpt lat="44.1208217" lon="12.1812083"><ele>69.0</ele><time>2026-05-02T07:36:29.442Z</time></trkpt><trkpt lat="44.1208117" lon="12.18133"><ele>69.0</ele><time>2026-05-02T07:36:31.442Z</time></trkpt><trkpt lat="44.1207917" lon="12.1814567"><ele>69.0</ele><time>2026-05-02T07:36:33.441Z</time></trkpt><trkpt lat="44.1207783" lon="12.1815833"><ele>69.0</ele><time>2026-05-02T07:36:35.442Z</time></trkpt><trkpt lat="44.120775" lon="12.1817167"><ele>69.0</ele><time>2026-05-02T07:36:37.441Z</time></trkpt><trkpt lat="44.1207817" lon="12.181845"><ele>69.0</ele><time>2026-05-02T07:36:39.441Z</time></trkpt><trkpt lat="44.120795" lon="12.1819767"><ele>69.0</ele><time>2026-05-02T07:36:41.44Z</time></trkpt><trkpt lat="44.1208183" lon="12.1821133"><ele>69.0</ele><time>2026-05-02T07:36:43.442Z</time></trkpt><trkpt lat="44.1208483" lon="12.1822567"><ele>69.0</ele><time>2026-05-02T07:36:45.442Z</time></trkpt><trkpt lat="44.1208683" lon="12.18241"><ele>69.0</ele><time>2026-05-02T07:36:47.443Z</time></trkpt><trkpt lat="44.1208867" lon="12.182565"><ele>69.0</ele><time>2026-05-02T07:36:49.441Z</time></trkpt><trkpt lat="44.12091" lon="12.1827133"><ele>69.0</ele><time>2026-05-02T07:36:51.441Z</time></trkpt><trkpt lat="44.120935" lon="12.18286"><ele>69.0</ele><time>2026-05-02T07:36:53.441Z</time></trkpt><trkpt lat="44.1209533" lon="12.1830083"><ele>69.0</ele><time>2026-05-02T07:36:55.441Z</time></trkpt><trkpt lat="44.1209783" lon="12.1831617"><ele>69.0</ele><time>2026-05-02T07:36:57.442Z</time></trkpt><trkpt lat="44.1210083" lon="12.1833033"><ele>69.0</ele><time>2026-05-02T07:36:59.44Z</time></trkpt><trkpt lat="44.1210583" lon="12.18345"><ele>68.60000000000001</ele><time>2026-05-02T07:37:01.443Z</time></trkpt><trkpt lat="44.1211167" lon="12.1835817"><ele>68.2</ele><time>2026-05-02T07:37:03.443Z</time></trkpt><trkpt lat="44.1211883" lon="12.1836933"><ele>67.80000000000001</ele><time>2026-05-02T07:37:05.443Z</time></trkpt><trkpt lat="44.1212533" lon="12.1838"><ele>67.4</ele><time>2026-05-02T07:37:07.441Z</time></trkpt><trkpt lat="44.12132" lon="12.1839233"><ele>67.0</ele><time>2026-05-02T07:37:09.44Z</time></trkpt><trkpt lat="44.1213867" lon="12.1840567"><ele>67.0</ele><time>2026-05-02T07:37:11.439Z</time></trkpt><trkpt lat="44.1214517" lon="12.1841983"><ele>67.0</ele><time>2026-05-02T07:37:13.444Z</time></trkpt><trkpt lat="44.1215233" lon="12.184335"><ele>67.0</ele><time>2026-05-02T07:37:15.443Z</time></trkpt><trkpt lat="44.1215917" lon="12.1844833"><ele>67.0</ele><time>2026-05-02T07:37:17.443Z</time></trkpt><trkpt lat="44.1216267" lon="12.1845617"><ele>67.0</ele><time>2026-05-02T07:37:18.439Z</time></trkpt><trkpt lat="44.12166" lon="12.1846483"><ele>67.0</ele><time>2026-05-02T07:37:19.44Z</time></trkpt><trkpt lat="44.1216917" lon="12.1847417"><ele>67.0</ele><time>2026-05-02T07:37:20.44Z</time></trkpt><trkpt lat="44.12172" lon="12.1848383"><ele>67.0</ele><time>2026-05-02T07:37:21.441Z</time></trkpt><trkpt lat="44.1217467" lon="12.1849383"><ele>67.0</ele><time>2026-05-02T07:37:22.442Z</time></trkpt><trkpt lat="44.121765" lon="12.1850417"><ele>67.0</ele><time>2026-05-02T07:37:23.439Z</time></trkpt><trkpt lat="44.1217783" lon="12.1851483"><ele>67.0</ele><time>2026-05-02T07:37:24.44Z</time></trkpt><trkpt lat="44.121785" lon="12.18525"><ele>66.42857142857143</ele><time>2026-05-02T07:37:25.442Z</time></trkpt><trkpt lat="44.1218" lon="12.1853583"><ele>65.85714285714286</ele><time>2026-05-02T07:37:26.443Z</time></trkpt><trkpt lat="44.1218133" lon="12.1854717"><ele>65.28571428571428</ele><time>2026-05-02T07:37:27.443Z</time></trkpt><trkpt lat="44.1218217" lon="12.1855733"><ele>64.71428571428572</ele><time>2026-05-02T07:37:28.439Z</time></trkpt><trkpt lat="44.1218317" lon="12.1856683"><ele>64.14285714285714</ele><time>2026-05-02T07:37:29.439Z</time></trkpt><trkpt lat="44.1218333" lon="12.185765"><ele>63.57142857142857</ele><time>2026-05-02T07:37:30.439Z</time></trkpt><trkpt lat="44.121835" lon="12.1858617"><ele>63.0</ele><time>2026-05-02T07:37:31.439Z</time></trkpt><trkpt lat="44.121835" lon="12.1859517"><ele>62.666666666666664</ele><time>2026-05-02T07:37:32.441Z</time></trkpt><trkpt lat="44.1218317" lon="12.1861267"><ele>62.33333333333333</ele><time>2026-05-02T07:37:34.439Z</time></trkpt><trkpt lat="44.1218367" lon="12.1862967"><ele>62.0</ele><time>2026-05-02T07:37:36.441Z</time></trkpt><trkpt lat="44.1218367" lon="12.186385"><ele>61.666666666666664</ele><time>2026-05-02T07:37:37.44Z</time></trkpt><trkpt lat="44.1218317" lon="12.1864733"><ele>61.33333333333333</ele><time>2026-05-02T07:37:38.44Z</time></trkpt><trkpt lat="44.1218217" lon="12.18657"><ele>61.0</ele><time>2026-05-02T07:37:39.442Z</time></trkpt><trkpt lat="44.1218117" lon="12.1866617"><ele>60.83333333333333</ele><time>2026-05-02T07:37:40.441Z</time></trkpt><trkpt lat="44.1218017" lon="12.1868233"><ele>60.666666666666664</ele><time>2026-05-02T07:37:42.442Z</time></trkpt><trkpt lat="44.1217933" lon="12.1869117"><ele>60.5</ele><time>2026-05-02T07:37:44.443Z</time></trkpt><trkpt lat="44.1218217" lon="12.1870217"><ele>60.33333333333333</ele><time>2026-05-02T07:37:47.442Z</time></trkpt><trkpt lat="44.1219067" lon="12.187025"><ele>60.166666666666664</ele><time>2026-05-02T07:37:49.443Z</time></trkpt><trkpt lat="44.12199" lon="12.1870183"><ele>60.0</ele><time>2026-05-02T07:37:51.443Z</time></trkpt><trkpt lat="44.1220633" lon="12.187015"><ele>60.0</ele><time>2026-05-02T07:37:53.443Z</time></trkpt><trkpt lat="44.1221417" lon="12.1869983"><ele>60.0</ele><time>2026-05-02T07:37:55.441Z</time></trkpt><trkpt lat="44.122225" lon="12.1869883"><ele>60.0</ele><time>2026-05-02T07:37:57.441Z</time></trkpt><trkpt lat="44.1223167" lon="12.186975"><ele>60.0</ele><time>2026-05-02T07:37:59.44Z</time></trkpt><trkpt lat="44.1224067" lon="12.18697"><ele>60.0</ele><time>2026-05-02T07:38:01.44Z</time></trkpt><trkpt lat="44.122485" lon="12.1869683"><ele>60.0</ele><time>2026-05-02T07:38:03.441Z</time></trkpt><trkpt lat="44.1225567" lon="12.1869583"><ele>60.142857142857146</ele><time>2026-05-02T07:38:05.441Z</time></trkpt><trkpt lat="44.1226217" lon="12.1869583"><ele>60.28571428571428</ele><time>2026-05-02T07:38:07.441Z</time></trkpt><trkpt lat="44.1226733" lon="12.1870267"><ele>60.42857142857142</ele><time>2026-05-02T07:38:10.444Z</time></trkpt><trkpt lat="44.12269" lon="12.1871483"><ele>60.57142857142857</ele><time>2026-05-02T07:38:13.442Z</time></trkpt><trkpt lat="44.1227033" lon="12.1872367"><ele>60.71428571428571</ele><time>2026-05-02T07:38:15.443Z</time></trkpt><trkpt lat="44.1227133" lon="12.1873617"><ele>60.85714285714285</ele><time>2026-05-02T07:38:18.443Z</time></trkpt><trkpt lat="44.1227367" lon="12.18745"><ele>60.99999999999999</ele><time>2026-05-02T07:38:20.444Z</time></trkpt><trkpt lat="44.1227533" lon="12.187535"><ele>60.49999999999999</ele><time>2026-05-02T07:38:22.442Z</time></trkpt><trkpt lat="44.12278" lon="12.187655"><ele>60.0</ele><time>2026-05-02T07:38:25.442Z</time></trkpt><trkpt lat="44.1228" lon="12.1877667"><ele>59.5</ele><time>2026-05-02T07:38:28.442Z</time></trkpt><trkpt lat="44.122815" lon="12.1878867"><ele>59.0</ele><time>2026-05-02T07:38:31.442Z</time></trkpt><trkpt lat="44.1228267" lon="12.1879917"><ele>58.49999999999999</ele><time>2026-05-02T07:38:33.441Z</time></trkpt><trkpt lat="44.1228467" lon="12.1881"><ele>58.0</ele><time>2026-05-02T07:38:35.439Z</time></trkpt><trkpt lat="44.12287" lon="12.18821"><ele>57.83333333333333</ele><time>2026-05-02T07:38:37.439Z</time></trkpt><trkpt lat="44.1228967" lon="12.1883217"><ele>57.666666666666664</ele><time>2026-05-02T07:38:39.442Z</time></trkpt><trkpt lat="44.1229267" lon="12.1884383"><ele>57.5</ele><time>2026-05-02T07:38:41.442Z</time></trkpt><trkpt lat="44.122965" lon="12.1885467"><ele>57.33333333333333</ele><time>2026-05-02T07:38:43.438Z</time></trkpt><trkpt lat="44.1230083" lon="12.188655"><ele>57.166666666666664</ele><time>2026-05-02T07:38:45.442Z</time></trkpt><trkpt lat="44.1230517" lon="12.188765"><ele>57.0</ele><time>2026-05-02T07:38:47.442Z</time></trkpt><trkpt lat="44.1231083" lon="12.188865"><ele>57.0</ele><time>2026-05-02T07:38:49.442Z</time></trkpt><trkpt lat="44.12316" lon="12.1889533"><ele>57.0</ele><time>2026-05-02T07:38:51.442Z</time></trkpt><trkpt lat="44.123215" lon="12.1890433"><ele>57.0</ele><time>2026-05-02T07:38:53.441Z</time></trkpt><trkpt lat="44.1232667" lon="12.1891233"><ele>57.0</ele><time>2026-05-02T07:38:55.443Z</time></trkpt><trkpt lat="44.1233217" lon="12.18921"><ele>57.0</ele><time>2026-05-02T07:38:57.442Z</time></trkpt><trkpt lat="44.1233783" lon="12.1892833"><ele>57.0</ele><time>2026-05-02T07:38:59.442Z</time></trkpt><trkpt lat="44.1234467" lon="12.18936"><ele>56.75</ele><time>2026-05-02T07:39:01.441Z</time></trkpt><trkpt lat="44.1235217" lon="12.1894567"><ele>56.5</ele><time>2026-05-02T07:39:03.442Z</time></trkpt><trkpt lat="44.1236033" lon="12.1895717"><ele>56.25</ele><time>2026-05-02T07:39:05.438Z</time></trkpt><trkpt lat="44.12369" lon="12.1896867"><ele>56.0</ele><time>2026-05-02T07:39:07.442Z</time></trkpt><trkpt lat="44.1237717" lon="12.1898067"><ele>55.599999999999994</ele><time>2026-05-02T07:39:09.443Z</time></trkpt><trkpt lat="44.1238667" lon="12.1899083"><ele>55.199999999999996</ele><time>2026-05-02T07:39:11.442Z</time></trkpt><trkpt lat="44.123945" lon="12.1900133"><ele>54.800000000000004</ele><time>2026-05-02T07:39:13.442Z</time></trkpt><trkpt lat="44.1240283" lon="12.190115"><ele>54.400000000000006</ele><time>2026-05-02T07:39:15.441Z</time></trkpt><trkpt lat="44.124105" lon="12.1902133"><ele>54.0</ele><time>2026-05-02T07:39:17.441Z</time></trkpt><trkpt lat="44.1241767" lon="12.1903067"><ele>54.0</ele><time>2026-05-02T07:39:19.439Z</time></trkpt><trkpt lat="44.1242483" lon="12.1903967"><ele>54.00000000000001</ele><time>2026-05-02T07:39:21.44Z</time></trkpt><trkpt lat="44.1243233" lon="12.1904867"><ele>54.00000000000001</ele><time>2026-05-02T07:39:23.438Z</time></trkpt><trkpt lat="44.1243933" lon="12.1905767"><ele>54.0</ele><time>2026-05-02T07:39:25.439Z</time></trkpt><trkpt lat="44.1244667" lon="12.1906683"><ele>54.0</ele><time>2026-05-02T07:39:27.44Z</time></trkpt><trkpt lat="44.12454" lon="12.1907633"><ele>54.0</ele><time>2026-05-02T07:39:29.439Z</time></trkpt><trkpt lat="44.12461" lon="12.1908567"><ele>54.00000000000001</ele><time>2026-05-02T07:39:31.439Z</time></trkpt><trkpt lat="44.1246733" lon="12.1909533"><ele>54.00000000000001</ele><time>2026-05-02T07:39:33.44Z</time></trkpt><trkpt lat="44.124745" lon="12.1910517"><ele>54.0</ele><time>2026-05-02T07:39:35.439Z</time></trkpt><trkpt lat="44.1248133" lon="12.1911517"><ele>54.0</ele><time>2026-05-02T07:39:37.438Z</time></trkpt><trkpt lat="44.124885" lon="12.1912533"><ele>53.800000000000004</ele><time>2026-05-02T07:39:39.441Z</time></trkpt><trkpt lat="44.1249583" lon="12.1913567"><ele>53.60000000000001</ele><time>2026-05-02T07:39:41.439Z</time></trkpt><trkpt lat="44.1250283" lon="12.1914633"><ele>53.4</ele><time>2026-05-02T07:39:43.439Z</time></trkpt><trkpt lat="44.125095" lon="12.191565"><ele>53.2</ele><time>2026-05-02T07:39:45.439Z</time></trkpt><trkpt lat="44.12517" lon="12.19166"><ele>53.0</ele><time>2026-05-02T07:39:47.442Z</time></trkpt><trkpt lat="44.1252367" lon="12.1917567"><ele>53.0</ele><time>2026-05-02T07:39:49.44Z</time></trkpt><trkpt lat="44.1253017" lon="12.191855"><ele>53.0</ele><time>2026-05-02T07:39:51.44Z</time></trkpt><trkpt lat="44.1253683" lon="12.1919667"><ele>53.0</ele><time>2026-05-02T07:39:53.438Z</time></trkpt><trkpt lat="44.1254383" lon="12.19207"><ele>53.0</ele><time>2026-05-02T07:39:55.439Z</time></trkpt><trkpt lat="44.125505" lon="12.1921817"><ele>53.0</ele><time>2026-05-02T07:39:57.439Z</time></trkpt><trkpt lat="44.125565" lon="12.1922933"><ele>53.0</ele><time>2026-05-02T07:39:59.44Z</time></trkpt><trkpt lat="44.1256267" lon="12.1924067"><ele>53.0</ele><time>2026-05-02T07:40:01.441Z</time></trkpt><trkpt lat="44.1256933" lon="12.1925183"><ele>53.0</ele><time>2026-05-02T07:40:03.443Z</time></trkpt><trkpt lat="44.1257667" lon="12.192635"><ele>53.0</ele><time>2026-05-02T07:40:05.442Z</time></trkpt><trkpt lat="44.1258383" lon="12.1927467"><ele>53.0</ele><time>2026-05-02T07:40:07.441Z</time></trkpt><trkpt lat="44.12591" lon="12.1928533"><ele>52.599999999999994</ele><time>2026-05-02T07:40:09.442Z</time></trkpt><trkpt lat="44.1259817" lon="12.1929633"><ele>52.199999999999996</ele><time>2026-05-02T07:40:11.442Z</time></trkpt><trkpt lat="44.12605" lon="12.1930733"><ele>51.8</ele><time>2026-05-02T07:40:13.442Z</time></trkpt><trkpt lat="44.1261183" lon="12.1931817"><ele>51.4</ele><time>2026-05-02T07:40:15.442Z</time></trkpt><trkpt lat="44.1261883" lon="12.19329"><ele>51.0</ele><time>2026-05-02T07:40:17.442Z</time></trkpt><trkpt lat="44.12626" lon="12.1933983"><ele>50.8</ele><time>2026-05-02T07:40:19.439Z</time></trkpt><trkpt lat="44.126325" lon="12.1935067"><ele>50.599999999999994</ele><time>2026-05-02T07:40:21.439Z</time></trkpt><trkpt lat="44.1263867" lon="12.19361"><ele>50.4</ele><time>2026-05-02T07:40:23.439Z</time></trkpt><trkpt lat="44.12645" lon="12.1937133"><ele>50.2</ele><time>2026-05-02T07:40:25.44Z</time></trkpt><trkpt lat="44.1265117" lon="12.193825"><ele>50.0</ele><time>2026-05-02T07:40:27.443Z</time></trkpt><trkpt lat="44.12657" lon="12.193935"><ele>49.8</ele><time>2026-05-02T07:40:29.439Z</time></trkpt><trkpt lat="44.12662" lon="12.194045"><ele>49.6</ele><time>2026-05-02T07:40:31.442Z</time></trkpt><trkpt lat="44.1266767" lon="12.194165"><ele>49.400000000000006</ele><time>2026-05-02T07:40:33.442Z</time></trkpt><trkpt lat="44.1267417" lon="12.194285"><ele>49.2</ele><time>2026-05-02T07:40:35.442Z</time></trkpt><trkpt lat="44.1268" lon="12.1944"><ele>49.0</ele><time>2026-05-02T07:40:37.442Z</time></trkpt><trkpt lat="44.126855" lon="12.1945167"><ele>49.0</ele><time>2026-05-02T07:40:39.443Z</time></trkpt><trkpt lat="44.12691" lon="12.194645"><ele>49.0</ele><time>2026-05-02T07:40:41.441Z</time></trkpt><trkpt lat="44.1269567" lon="12.1947667"><ele>49.0</ele><time>2026-05-02T07:40:43.442Z</time></trkpt><trkpt lat="44.1270083" lon="12.1948817"><ele>49.0</ele><time>2026-05-02T07:40:45.443Z</time></trkpt><trkpt lat="44.12706" lon="12.1950033"><ele>49.0</ele><time>2026-05-02T07:40:47.441Z</time></trkpt><trkpt lat="44.1271167" lon="12.19512"><ele>49.0</ele><time>2026-05-02T07:40:49.439Z</time></trkpt><trkpt lat="44.12718" lon="12.195225"><ele>49.0</ele><time>2026-05-02T07:40:51.439Z</time></trkpt><trkpt lat="44.12725" lon="12.1953267"><ele>49.0</ele><time>2026-05-02T07:40:53.439Z</time></trkpt><trkpt lat="44.1273333" lon="12.1954133"><ele>49.0</ele><time>2026-05-02T07:40:55.44Z</time></trkpt><trkpt lat="44.1274183" lon="12.1954933"><ele>49.0</ele><time>2026-05-02T07:40:57.44Z</time></trkpt><trkpt lat="44.127495" lon="12.195595"><ele>49.2</ele><time>2026-05-02T07:40:59.44Z</time></trkpt><trkpt lat="44.1275517" lon="12.19572"><ele>49.400000000000006</ele><time>2026-05-02T07:41:01.442Z</time></trkpt><trkpt lat="44.1275933" lon="12.195835"><ele>49.6</ele><time>2026-05-02T07:41:03.442Z</time></trkpt><trkpt lat="44.12761" lon="12.1959467"><ele>49.8</ele><time>2026-05-02T07:41:05.442Z</time></trkpt><trkpt lat="44.1276033" lon="12.1960733"><ele>50.0</ele><time>2026-05-02T07:41:07.439Z</time></trkpt><trkpt lat="44.12759" lon="12.1962033"><ele>50.0</ele><time>2026-05-02T07:41:09.442Z</time></trkpt><trkpt lat="44.1275667" lon="12.1963333"><ele>50.0</ele><time>2026-05-02T07:41:11.441Z</time></trkpt><trkpt lat="44.127525" lon="12.196455"><ele>50.0</ele><time>2026-05-02T07:41:13.441Z</time></trkpt><trkpt lat="44.127465" lon="12.1965617"><ele>50.0</ele><time>2026-05-02T07:41:15.443Z</time></trkpt><trkpt lat="44.12739" lon="12.1966533"><ele>50.0</ele><time>2026-05-02T07:41:17.442Z</time></trkpt><trkpt lat="44.1273133" lon="12.1967483"><ele>49.8</ele><time>2026-05-02T07:41:19.44Z</time></trkpt><trkpt lat="44.12724" lon="12.19683"><ele>49.6</ele><time>2026-05-02T07:41:21.44Z</time></trkpt><trkpt lat="44.12716" lon="12.1969"><ele>49.400000000000006</ele><time>2026-05-02T07:41:23.44Z</time></trkpt><trkpt lat="44.1270733" lon="12.1969617"><ele>49.2</ele><time>2026-05-02T07:41:25.441Z</time></trkpt><trkpt lat="44.1269917" lon="12.197035"><ele>49.0</ele><time>2026-05-02T07:41:27.44Z</time></trkpt><trkpt lat="44.12691" lon="12.1971017"><ele>48.99999999999999</ele><time>2026-05-02T07:41:29.439Z</time></trkpt><trkpt lat="44.1268367" lon="12.19718"><ele>49.0</ele><time>2026-05-02T07:41:31.442Z</time></trkpt><trkpt lat="44.12676" lon="12.1972517"><ele>49.0</ele><time>2026-05-02T07:41:33.442Z</time></trkpt><trkpt lat="44.1266883" lon="12.1973217"><ele>49.0</ele><time>2026-05-02T07:41:35.441Z</time></trkpt><trkpt lat="44.1266217" lon="12.1973917"><ele>48.99999999999999</ele><time>2026-05-02T07:41:37.442Z</time></trkpt><trkpt lat="44.1265533" lon="12.1974633"><ele>49.0</ele><time>2026-05-02T07:41:39.442Z</time></trkpt><trkpt lat="44.12648" lon="12.1975483"><ele>49.0</ele><time>2026-05-02T07:41:41.443Z</time></trkpt><trkpt lat="44.126405" lon="12.1976217"><ele>49.0</ele><time>2026-05-02T07:41:43.441Z</time></trkpt><trkpt lat="44.1263383" lon="12.1977"><ele>49.0</ele><time>2026-05-02T07:41:45.442Z</time></trkpt><trkpt lat="44.1262617" lon="12.1977683"><ele>49.0</ele><time>2026-05-02T07:41:47.441Z</time></trkpt><trkpt lat="44.1261883" lon="12.19784"><ele>49.0</ele><time>2026-05-02T07:41:49.438Z</time></trkpt><trkpt lat="44.1261167" lon="12.1979233"><ele>49.0</ele><time>2026-05-02T07:41:51.439Z</time></trkpt><trkpt lat="44.1260533" lon="12.1980067"><ele>49.0</ele><time>2026-05-02T07:41:53.438Z</time></trkpt><trkpt lat="44.12598" lon="12.1980983"><ele>49.0</ele><time>2026-05-02T07:41:55.442Z</time></trkpt><trkpt lat="44.1259117" lon="12.1981783"><ele>49.0</ele><time>2026-05-02T07:41:57.442Z</time></trkpt><trkpt lat="44.1258367" lon="12.1982667"><ele>49.0</ele><time>2026-05-02T07:41:59.441Z</time></trkpt><trkpt lat="44.1257633" lon="12.1983633"><ele>49.0</ele><time>2026-05-02T07:42:01.441Z</time></trkpt><trkpt lat="44.12568" lon="12.1984533"><ele>49.0</ele><time>2026-05-02T07:42:03.442Z</time></trkpt><trkpt lat="44.125605" lon="12.198535"><ele>49.0</ele><time>2026-05-02T07:42:05.441Z</time></trkpt><trkpt lat="44.1255267" lon="12.198625"><ele>49.0</ele><time>2026-05-02T07:42:07.442Z</time></trkpt><trkpt lat="44.1254417" lon="12.1987167"><ele>49.0</ele><time>2026-05-02T07:42:09.442Z</time></trkpt><trkpt lat="44.1253567" lon="12.1988133"><ele>49.0</ele><time>2026-05-02T07:42:11.441Z</time></trkpt><trkpt lat="44.12528" lon="12.1989067"><ele>49.0</ele><time>2026-05-02T07:42:13.441Z</time></trkpt><trkpt lat="44.1252017" lon="12.1989983"><ele>49.0</ele><time>2026-05-02T07:42:15.442Z</time></trkpt><trkpt lat="44.12512" lon="12.199085"><ele>49.0</ele><time>2026-05-02T07:42:17.441Z</time></trkpt><trkpt lat="44.125035" lon="12.199175"><ele>49.0</ele><time>2026-05-02T07:42:19.442Z</time></trkpt><trkpt lat="44.12495" lon="12.1992633"><ele>48.800000000000004</ele><time>2026-05-02T07:42:21.442Z</time></trkpt><trkpt lat="44.1248683" lon="12.19936"><ele>48.6</ele><time>2026-05-02T07:42:23.441Z</time></trkpt><trkpt lat="44.1247867" lon="12.199455"><ele>48.4</ele><time>2026-05-02T07:42:25.443Z</time></trkpt><trkpt lat="44.1247033" lon="12.1995467"><ele>48.2</ele><time>2026-05-02T07:42:27.441Z</time></trkpt><trkpt lat="44.1246217" lon="12.19964"><ele>48.0</ele><time>2026-05-02T07:42:29.442Z</time></trkpt><trkpt lat="44.1245383" lon="12.19973"><ele>48.0</ele><time>2026-05-02T07:42:31.442Z</time></trkpt><trkpt lat="44.124455" lon="12.1998167"><ele>48.0</ele><time>2026-05-02T07:42:33.442Z</time></trkpt><trkpt lat="44.1243767" lon="12.1999083"><ele>48.0</ele><time>2026-05-02T07:42:35.441Z</time></trkpt><trkpt lat="44.1243" lon="12.1999983"><ele>48.0</ele><time>2026-05-02T07:42:37.441Z</time></trkpt><trkpt lat="44.1242267" lon="12.20004"><ele>48.0</ele><time>2026-05-02T07:42:39.443Z</time></trkpt><trkpt lat="44.1241583" lon="12.2001133"><ele>48.333333333333336</ele><time>2026-05-02T07:42:43.442Z</time></trkpt><trkpt lat="44.1241217" lon="12.2002167"><ele>48.66666666666667</ele><time>2026-05-02T07:42:46.442Z</time></trkpt><trkpt lat="44.1240717" lon="12.200325"><ele>49.0</ele><time>2026-05-02T07:42:49.442Z</time></trkpt><trkpt lat="44.1240267" lon="12.2004067"><ele>49.333333333333336</ele><time>2026-05-02T07:42:51.443Z</time></trkpt><trkpt lat="44.123965" lon="12.2005033"><ele>49.66666666666667</ele><time>2026-05-02T07:42:53.442Z</time></trkpt><trkpt lat="44.1239033" lon="12.200605"><ele>50.0</ele><time>2026-05-02T07:42:55.441Z</time></trkpt><trkpt lat="44.1238367" lon="12.2006983"><ele>50.00000000000001</ele><time>2026-05-02T07:42:57.443Z</time></trkpt><trkpt lat="44.1237817" lon="12.2007833"><ele>50.0</ele><time>2026-05-02T07:42:59.442Z</time></trkpt><trkpt lat="44.1237233" lon="12.20087"><ele>50.0</ele><time>2026-05-02T07:43:01.442Z</time></trkpt><trkpt lat="44.123655" lon="12.2009567"><ele>50.0</ele><time>2026-05-02T07:43:03.443Z</time></trkpt><trkpt lat="44.1235883" lon="12.201035"><ele>50.00000000000001</ele><time>2026-05-02T07:43:05.441Z</time></trkpt><trkpt lat="44.1235217" lon="12.2011283"><ele>50.0</ele><time>2026-05-02T07:43:07.441Z</time></trkpt><trkpt lat="44.1234533" lon="12.20123"><ele>50.0</ele><time>2026-05-02T07:43:09.443Z</time></trkpt><trkpt lat="44.123385" lon="12.2013317"><ele>50.0</ele><time>2026-05-02T07:43:11.442Z</time></trkpt><trkpt lat="44.123325" lon="12.20144"><ele>50.0</ele><time>2026-05-02T07:43:13.441Z</time></trkpt><trkpt lat="44.1232683" lon="12.20156"><ele>50.0</ele><time>2026-05-02T07:43:15.44Z</time></trkpt><trkpt lat="44.12321" lon="12.20168"><ele>50.0</ele><time>2026-05-02T07:43:17.439Z</time></trkpt><trkpt lat="44.1231517" lon="12.2018"><ele>49.6</ele><time>2026-05-02T07:43:19.441Z</time></trkpt><trkpt lat="44.1230933" lon="12.2019233"><ele>49.2</ele><time>2026-05-02T07:43:21.442Z</time></trkpt><trkpt lat="44.1230367" lon="12.202035"><ele>48.8</ele><time>2026-05-02T07:43:23.441Z</time></trkpt><trkpt lat="44.1229817" lon="12.2021517"><ele>48.4</ele><time>2026-05-02T07:43:25.442Z</time></trkpt><trkpt lat="44.1229217" lon="12.2022683"><ele>48.0</ele><time>2026-05-02T07:43:27.44Z</time></trkpt><trkpt lat="44.1228617" lon="12.202385"><ele>47.599999999999994</ele><time>2026-05-02T07:43:29.442Z</time></trkpt><trkpt lat="44.1228017" lon="12.2025017"><ele>47.199999999999996</ele><time>2026-05-02T07:43:31.442Z</time></trkpt><trkpt lat="44.1227367" lon="12.20262"><ele>46.8</ele><time>2026-05-02T07:43:33.443Z</time></trkpt><trkpt lat="44.1226683" lon="12.2027417"><ele>46.4</ele><time>2026-05-02T07:43:35.442Z</time></trkpt><trkpt lat="44.1226017" lon="12.2028683"><ele>46.0</ele><time>2026-05-02T07:43:37.442Z</time></trkpt><trkpt lat="44.1225383" lon="12.202995"><ele>46.0</ele><time>2026-05-02T07:43:39.44Z</time></trkpt><trkpt lat="44.1224767" lon="12.203135"><ele>46.0</ele><time>2026-05-02T07:43:41.442Z</time></trkpt><trkpt lat="44.1224183" lon="12.2032683"><ele>46.0</ele><time>2026-05-02T07:43:43.442Z</time></trkpt><trkpt lat="44.1223417" lon="12.20339"><ele>46.0</ele><time>2026-05-02T07:43:45.44Z</time></trkpt><trkpt lat="44.1222817" lon="12.2035183"><ele>46.4</ele><time>2026-05-02T07:43:47.441Z</time></trkpt><trkpt lat="44.1222233" lon="12.2036533"><ele>46.8</ele><time>2026-05-02T07:43:49.443Z</time></trkpt><trkpt lat="44.12216" lon="12.203775"><ele>47.199999999999996</ele><time>2026-05-02T07:43:51.443Z</time></trkpt><trkpt lat="44.1221017" lon="12.203895"><ele>47.599999999999994</ele><time>2026-05-02T07:43:53.443Z</time></trkpt><trkpt lat="44.1220483" lon="12.20402"><ele>48.0</ele><time>2026-05-02T07:43:55.442Z</time></trkpt><trkpt lat="44.121995" lon="12.2041417"><ele>48.0</ele><time>2026-05-02T07:43:57.443Z</time></trkpt><trkpt lat="44.12194" lon="12.2042717"><ele>48.0</ele><time>2026-05-02T07:43:59.442Z</time></trkpt><trkpt lat="44.1218867" lon="12.2044133"><ele>48.0</ele><time>2026-05-02T07:44:01.442Z</time></trkpt><trkpt lat="44.1218333" lon="12.2045567"><ele>48.0</ele><time>2026-05-02T07:44:03.443Z</time></trkpt><trkpt lat="44.1217867" lon="12.20468"><ele>48.0</ele><time>2026-05-02T07:44:05.442Z</time></trkpt><trkpt lat="44.121735" lon="12.2048083"><ele>48.0</ele><time>2026-05-02T07:44:07.442Z</time></trkpt><trkpt lat="44.1216817" lon="12.2049467"><ele>48.0</ele><time>2026-05-02T07:44:09.442Z</time></trkpt><trkpt lat="44.12163" lon="12.2050817"><ele>48.0</ele><time>2026-05-02T07:44:11.441Z</time></trkpt><trkpt lat="44.12158" lon="12.2052133"><ele>48.0</ele><time>2026-05-02T07:44:13.438Z</time></trkpt><trkpt lat="44.12153" lon="12.2053333"><ele>48.0</ele><time>2026-05-02T07:44:15.441Z</time></trkpt><trkpt lat="44.1214867" lon="12.2054533"><ele>48.2</ele><time>2026-05-02T07:44:17.44Z</time></trkpt><trkpt lat="44.1214417" lon="12.205575"><ele>48.4</ele><time>2026-05-02T07:44:19.442Z</time></trkpt><trkpt lat="44.1213917" lon="12.2056917"><ele>48.6</ele><time>2026-05-02T07:44:21.443Z</time></trkpt><trkpt lat="44.121345" lon="12.2058217"><ele>48.800000000000004</ele><time>2026-05-02T07:44:23.443Z</time></trkpt><trkpt lat="44.1213033" lon="12.20594"><ele>49.0</ele><time>2026-05-02T07:44:25.443Z</time></trkpt><trkpt lat="44.121255" lon="12.2060567"><ele>49.2</ele><time>2026-05-02T07:44:27.442Z</time></trkpt><trkpt lat="44.121205" lon="12.2061783"><ele>49.400000000000006</ele><time>2026-05-02T07:44:29.441Z</time></trkpt><trkpt lat="44.1211567" lon="12.2063067"><ele>49.6</ele><time>2026-05-02T07:44:31.44Z</time></trkpt><trkpt lat="44.12111" lon="12.2064233"><ele>49.8</ele><time>2026-05-02T07:44:33.442Z</time></trkpt><trkpt lat="44.12106" lon="12.2065517"><ele>50.0</ele><time>2026-05-02T07:44:35.442Z</time></trkpt><trkpt lat="44.1210117" lon="12.206675"><ele>49.6</ele><time>2026-05-02T07:44:37.441Z</time></trkpt><trkpt lat="44.1209683" lon="12.2067933"><ele>49.2</ele><time>2026-05-02T07:44:39.443Z</time></trkpt><trkpt lat="44.1209233" lon="12.2069133"><ele>48.8</ele><time>2026-05-02T07:44:41.439Z</time></trkpt><trkpt lat="44.1208717" lon="12.2070467"><ele>48.4</ele><time>2026-05-02T07:44:43.44Z</time></trkpt><trkpt lat="44.1208283" lon="12.2071817"><ele>48.0</ele><time>2026-05-02T07:44:45.443Z</time></trkpt><trkpt lat="44.120775" lon="12.2073117"><ele>48.0</ele><time>2026-05-02T07:44:47.439Z</time></trkpt><trkpt lat="44.1207317" lon="12.2074517"><ele>48.0</ele><time>2026-05-02T07:44:49.442Z</time></trkpt><trkpt lat="44.1206767" lon="12.207585"><ele>48.0</ele><time>2026-05-02T07:44:51.443Z</time></trkpt><trkpt lat="44.120625" lon="12.207715"><ele>48.0</ele><time>2026-05-02T07:44:53.442Z</time></trkpt><trkpt lat="44.1205633" lon="12.2078467"><ele>48.0</ele><time>2026-05-02T07:44:55.442Z</time></trkpt><trkpt lat="44.1205033" lon="12.2079717"><ele>48.0</ele><time>2026-05-02T07:44:57.442Z</time></trkpt><trkpt lat="44.120455" lon="12.20809"><ele>48.0</ele><time>2026-05-02T07:44:59.442Z</time></trkpt><trkpt lat="44.1204117" lon="12.2082083"><ele>48.0</ele><time>2026-05-02T07:45:01.441Z</time></trkpt><trkpt lat="44.1203633" lon="12.2083217"><ele>48.0</ele><time>2026-05-02T07:45:03.439Z</time></trkpt><trkpt lat="44.1203133" lon="12.208435"><ele>48.0</ele><time>2026-05-02T07:45:05.443Z</time></trkpt><trkpt lat="44.1202717" lon="12.2085483"><ele>48.333333333333336</ele><time>2026-05-02T07:45:07.442Z</time></trkpt><trkpt lat="44.1202433" lon="12.208645"><ele>48.66666666666667</ele><time>2026-05-02T07:45:09.442Z</time></trkpt><trkpt lat="44.1201967" lon="12.208745"><ele>49.0</ele><time>2026-05-02T07:45:12.443Z</time></trkpt><trkpt lat="44.1201567" lon="12.2088267"><ele>49.333333333333336</ele><time>2026-05-02T07:45:18.443Z</time></trkpt><trkpt lat="44.120145" lon="12.20894"><ele>49.66666666666667</ele><time>2026-05-02T07:45:21.442Z</time></trkpt><trkpt lat="44.1201267" lon="12.2090517"><ele>50.0</ele><time>2026-05-02T07:45:24.442Z</time></trkpt><trkpt lat="44.1200667" lon="12.2091367"><ele>50.0</ele><time>2026-05-02T07:45:27.44Z</time></trkpt><trkpt lat="44.1200433" lon="12.2092417"><ele>50.0</ele><time>2026-05-02T07:45:29.44Z</time></trkpt><trkpt lat="44.1199933" lon="12.2093817"><ele>50.0</ele><time>2026-05-02T07:45:31.443Z</time></trkpt><trkpt lat="44.1199483" lon="12.2094967"><ele>50.0</ele><time>2026-05-02T07:45:33.442Z</time></trkpt><trkpt lat="44.1199" lon="12.209605"><ele>50.0</ele><time>2026-05-02T07:45:35.534Z</time></trkpt><trkpt lat="44.1198483" lon="12.2097183"><ele>48.6</ele><time>2026-05-02T07:45:37.443Z</time></trkpt><trkpt lat="44.1198017" lon="12.2098383"><ele>47.2</ele><time>2026-05-02T07:45:39.443Z</time></trkpt><trkpt lat="44.1197617" lon="12.2099767"><ele>45.8</ele><time>2026-05-02T07:45:41.442Z</time></trkpt><trkpt lat="44.119745" lon="12.2101133"><ele>44.4</ele><time>2026-05-02T07:45:43.442Z</time></trkpt><trkpt lat="44.1197417" lon="12.2102383"><ele>43.0</ele><time>2026-05-02T07:45:45.442Z</time></trkpt><trkpt lat="44.1197583" lon="12.2103483"><ele>43.0</ele><time>2026-05-02T07:45:47.442Z</time></trkpt><trkpt lat="44.119765" lon="12.2104683"><ele>43.0</ele><time>2026-05-02T07:45:49.439Z</time></trkpt><trkpt lat="44.119775" lon="12.2105667"><ele>43.0</ele><time>2026-05-02T07:45:51.44Z</time></trkpt><trkpt lat="44.1197817" lon="12.2106767"><ele>43.0</ele><time>2026-05-02T07:45:53.441Z</time></trkpt><trkpt lat="44.1197967" lon="12.2108017"><ele>43.0</ele><time>2026-05-02T07:45:55.443Z</time></trkpt><trkpt lat="44.1198067" lon="12.21092"><ele>43.0</ele><time>2026-05-02T07:45:57.443Z</time></trkpt><trkpt lat="44.119825" lon="12.2110283"><ele>43.142857142857146</ele><time>2026-05-02T07:45:59.443Z</time></trkpt><trkpt lat="44.119835" lon="12.2111283"><ele>43.285714285714285</ele><time>2026-05-02T07:46:01.442Z</time></trkpt><trkpt lat="44.1198533" lon="12.2112483"><ele>43.42857142857143</ele><time>2026-05-02T07:46:04.442Z</time></trkpt><trkpt lat="44.1198667" lon="12.2113383"><ele>43.57142857142857</ele><time>2026-05-02T07:46:06.443Z</time></trkpt><trkpt lat="44.11988" lon="12.2114467"><ele>43.714285714285715</ele><time>2026-05-02T07:46:08.441Z</time></trkpt><trkpt lat="44.11989" lon="12.211555"><ele>43.85714285714286</ele><time>2026-05-02T07:46:10.442Z</time></trkpt><trkpt lat="44.1198967" lon="12.2116433"><ele>44.0</ele><time>2026-05-02T07:46:12.442Z</time></trkpt><trkpt lat="44.1198983" lon="12.2117417"><ele>44.166666666666664</ele><time>2026-05-02T07:46:14.442Z</time></trkpt><trkpt lat="44.1199067" lon="12.2118583"><ele>44.33333333333333</ele><time>2026-05-02T07:46:16.441Z</time></trkpt><trkpt lat="44.1199233" lon="12.2119767"><ele>44.5</ele><time>2026-05-02T07:46:18.44Z</time></trkpt><trkpt lat="44.1199567" lon="12.2120783"><ele>44.666666666666664</ele><time>2026-05-02T07:46:20.44Z</time></trkpt><trkpt lat="44.1199833" lon="12.2121683"><ele>44.833333333333336</ele><time>2026-05-02T07:46:22.439Z</time></trkpt><trkpt lat="44.1199983" lon="12.21226"><ele>45.0</ele><time>2026-05-02T07:46:24.439Z</time></trkpt><trkpt lat="44.1200167" lon="12.2123533"><ele>45.0</ele><time>2026-05-02T07:46:26.441Z</time></trkpt><trkpt lat="44.12005" lon="12.2124683"><ele>45.0</ele><time>2026-05-02T07:46:28.442Z</time></trkpt><trkpt lat="44.1200817" lon="12.2125867"><ele>45.0</ele><time>2026-05-02T07:46:30.442Z</time></trkpt><trkpt lat="44.12012" lon="12.2127033"><ele>45.0</ele><time>2026-05-02T07:46:32.443Z</time></trkpt><trkpt lat="44.1201583" lon="12.212825"><ele>45.0</ele><time>2026-05-02T07:46:34.441Z</time></trkpt><trkpt lat="44.12019" lon="12.2129467"><ele>45.0</ele><time>2026-05-02T07:46:36.441Z</time></trkpt><trkpt lat="44.1202183" lon="12.2130633"><ele>45.0</ele><time>2026-05-02T07:46:38.44Z</time></trkpt><trkpt lat="44.120245" lon="12.2131767"><ele>45.0</ele><time>2026-05-02T07:46:40.441Z</time></trkpt><trkpt lat="44.1202717" lon="12.21329"><ele>45.0</ele><time>2026-05-02T07:46:42.443Z</time></trkpt><trkpt lat="44.1202833" lon="12.21341"><ele>45.0</ele><time>2026-05-02T07:46:44.442Z</time></trkpt><trkpt lat="44.12026" lon="12.2135033"><ele>45.0</ele><time>2026-05-02T07:46:47.443Z</time></trkpt><trkpt lat="44.1202" lon="12.2135683"><ele>45.0</ele><time>2026-05-02T07:46:50.44Z</time></trkpt><trkpt lat="44.120145" lon="12.2136283"><ele>45.0</ele><time>2026-05-02T07:46:52.44Z</time></trkpt><trkpt lat="44.1200833" lon="12.21369"><ele>45.0</ele><time>2026-05-02T07:46:54.441Z</time></trkpt><trkpt lat="44.1200117" lon="12.213755"><ele>45.0</ele><time>2026-05-02T07:46:56.443Z</time></trkpt><trkpt lat="44.1199367" lon="12.213815"><ele>45.0</ele><time>2026-05-02T07:46:58.44Z</time></trkpt><trkpt lat="44.119875" lon="12.2138817"><ele>45.0</ele><time>2026-05-02T07:47:01.443Z</time></trkpt><trkpt lat="44.119955" lon="12.21385"><ele>45.0</ele><time>2026-05-02T07:47:05.44Z</time></trkpt><trkpt lat="44.120015" lon="12.21379"><ele>45.0</ele><time>2026-05-02T07:47:07.44Z</time></trkpt><trkpt lat="44.120075" lon="12.213735"><ele>45.0</ele><time>2026-05-02T07:47:09.441Z</time></trkpt><trkpt lat="44.1201483" lon="12.213655"><ele>45.0</ele><time>2026-05-02T07:47:11.44Z</time></trkpt><trkpt lat="44.120215" lon="12.2136033"><ele>45.0</ele><time>2026-05-02T07:47:13.442Z</time></trkpt><trkpt lat="44.1202667" lon="12.213655"><ele>45.0</ele><time>2026-05-02T07:47:15.442Z</time></trkpt><trkpt lat="44.120265" lon="12.213765"><ele>45.0</ele><time>2026-05-02T07:47:17.442Z</time></trkpt><trkpt lat="44.120245" lon="12.2138917"><ele>45.0</ele><time>2026-05-02T07:47:19.44Z</time></trkpt><trkpt lat="44.1201883" lon="12.2140117"><ele>45.0</ele><time>2026-05-02T07:47:21.44Z</time></trkpt><trkpt lat="44.12008" lon="12.214065"><ele>45.0</ele><time>2026-05-02T07:47:23.439Z</time></trkpt><trkpt lat="44.1199767" lon="12.2141233"><ele>45.0</ele><time>2026-05-02T07:47:25.441Z</time></trkpt><trkpt lat="44.119905" lon="12.2142417"><ele>44.2</ele><time>2026-05-02T07:47:27.441Z</time></trkpt><trkpt lat="44.1198933" lon="12.2143817"><ele>43.4</ele><time>2026-05-02T07:47:29.442Z</time></trkpt><trkpt lat="44.1199167" lon="12.2145167"><ele>42.599999999999994</ele><time>2026-05-02T07:47:31.442Z</time></trkpt><trkpt lat="44.1199367" lon="12.2146633"><ele>41.8</ele><time>2026-05-02T07:47:33.443Z</time></trkpt><trkpt lat="44.1199717" lon="12.214805"><ele>41.0</ele><time>2026-05-02T07:47:35.441Z</time></trkpt><trkpt lat="44.1200183" lon="12.2148883"><ele>39.857142857142854</ele><time>2026-05-02T07:47:37.441Z</time></trkpt><trkpt lat="44.1200967" lon="12.2149367"><ele>38.714285714285715</ele><time>2026-05-02T07:47:40.438Z</time></trkpt><trkpt lat="44.12016" lon="12.2149583"><ele>37.57142857142857</ele><time>2026-05-02T07:47:42.443Z</time></trkpt><trkpt lat="44.1202333" lon="12.2149717"><ele>36.42857142857143</ele><time>2026-05-02T07:47:44.442Z</time></trkpt><trkpt lat="44.120315" lon="12.2149833"><ele>35.285714285714285</ele><time>2026-05-02T07:47:46.442Z</time></trkpt><trkpt lat="44.120385" lon="12.2149933"><ele>34.14285714285714</ele><time>2026-05-02T07:47:48.441Z</time></trkpt><trkpt lat="44.12045" lon="12.2150083"><ele>33.0</ele><time>2026-05-02T07:47:50.44Z</time></trkpt><trkpt lat="44.12052" lon="12.2150417"><ele>33.0</ele><time>2026-05-02T07:47:52.439Z</time></trkpt><trkpt lat="44.1205767" lon="12.2150833"><ele>33.0</ele><time>2026-05-02T07:47:54.44Z</time></trkpt><trkpt lat="44.12065" lon="12.2151283"><ele>33.0</ele><time>2026-05-02T07:48:06.439Z</time></trkpt><trkpt lat="44.1207167" lon="12.21519"><ele>33.0</ele><time>2026-05-02T07:48:15.442Z</time></trkpt><trkpt lat="44.12079" lon="12.21519"><ele>33.0</ele><time>2026-05-02T07:48:22.44Z</time></trkpt><trkpt lat="44.12087" lon="12.215225"><ele>33.0</ele><time>2026-05-02T07:48:32.442Z</time></trkpt><trkpt lat="44.1209367" lon="12.2152117"><ele>33.0</ele><time>2026-05-02T07:48:44.442Z</time></trkpt><trkpt lat="44.1210083" lon="12.215195"><ele>33.285714285714285</ele><time>2026-05-02T07:48:50.441Z</time></trkpt><trkpt lat="44.1211167" lon="12.215165"><ele>33.57142857142857</ele><time>2026-05-02T07:48:58.44Z</time></trkpt><trkpt lat="44.1211817" lon="12.2151567"><ele>33.85714285714286</ele><time>2026-05-02T07:49:03.443Z</time></trkpt><trkpt lat="44.1212467" lon="12.2151533"><ele>34.14285714285714</ele><time>2026-05-02T07:49:10.443Z</time></trkpt><trkpt lat="44.1213133" lon="12.2151483"><ele>34.42857142857143</ele><time>2026-05-02T07:49:16.443Z</time></trkpt><trkpt lat="44.1213883" lon="12.215135"><ele>34.714285714285715</ele><time>2026-05-02T07:49:22.438Z</time></trkpt><trkpt lat="44.1214533" lon="12.2151383"><ele>35.0</ele><time>2026-05-02T07:49:28.443Z</time></trkpt><trkpt lat="44.121525" lon="12.2151417"><ele>34.666666666666664</ele><time>2026-05-02T07:49:35.442Z</time></trkpt><trkpt lat="44.1215917" lon="12.2151633"><ele>34.33333333333333</ele><time>2026-05-02T07:49:56.441Z</time></trkpt><trkpt lat="44.121715" lon="12.2151733"><ele>34.0</ele><time>2026-05-02T07:50:07.443Z</time></trkpt><trkpt lat="44.1217967" lon="12.215135"><ele>33.666666666666664</ele><time>2026-05-02T07:52:16.442Z</time></trkpt><trkpt lat="44.1218683" lon="12.215135"><ele>33.333333333333336</ele><time>2026-05-02T07:52:22.44Z</time></trkpt><trkpt lat="44.121935" lon="12.21517"><ele>33.0</ele><time>2026-05-02T07:52:35.442Z</time></trkpt><trkpt lat="44.122" lon="12.2152217"><ele>33.0</ele><time>2026-05-02T07:52:41.442Z</time></trkpt><trkpt lat="44.12208" lon="12.2152517"><ele>33.0</ele><time>2026-05-02T07:52:45.443Z</time></trkpt><trkpt lat="44.12215" lon="12.2152933"><ele>33.0</ele><time>2026-05-02T07:52:49.441Z</time></trkpt><trkpt lat="44.1222267" lon="12.2153383"><ele>33.0</ele><time>2026-05-02T07:52:53.44Z</time></trkpt><trkpt lat="44.1222933" lon="12.21536"><ele>33.0</ele><time>2026-05-02T07:52:57.443Z</time></trkpt><trkpt lat="44.12235" lon="12.2154067"><ele>33.0</ele><time>2026-05-02T07:53:01.443Z</time></trkpt><trkpt lat="44.12241" lon="12.2154583"><ele>33.0</ele><time>2026-05-02T07:53:05.443Z</time></trkpt><trkpt lat="44.1224783" lon="12.215495"><ele>33.0</ele><time>2026-05-02T07:53:09.443Z</time></trkpt><trkpt lat="44.1225467" lon="12.2155317"><ele>33.0</ele><time>2026-05-02T07:53:13.441Z</time></trkpt><trkpt lat="44.122615" lon="12.2155683"><ele>33.0</ele><time>2026-05-02T07:53:17.443Z</time></trkpt><trkpt lat="44.1226783" lon="12.2156133"><ele>33.0</ele><time>2026-05-02T07:53:21.44Z</time></trkpt><trkpt lat="44.1227367" lon="12.2156667"><ele>33.0</ele><time>2026-05-02T07:53:25.442Z</time></trkpt><trkpt lat="44.122805" lon="12.2157267"><ele>33.0</ele><time>2026-05-02T07:53:29.442Z</time></trkpt><trkpt lat="44.122875" lon="12.2157833"><ele>33.0</ele><time>2026-05-02T07:53:33.443Z</time></trkpt><trkpt lat="44.12294" lon="12.21584"><ele>32.666666666666664</ele><time>2026-05-02T07:53:37.443Z</time></trkpt><trkpt lat="44.1229917" lon="12.2159217"><ele>32.333333333333336</ele><time>2026-05-02T07:53:41.443Z</time></trkpt><trkpt lat="44.1230267" lon="12.2160183"><ele>32.0</ele><time>2026-05-02T07:53:45.443Z</time></trkpt><trkpt lat="44.1230567" lon="12.216105"><ele>31.666666666666668</ele><time>2026-05-02T07:53:48.441Z</time></trkpt><trkpt lat="44.123085" lon="12.2162"><ele>31.333333333333336</ele><time>2026-05-02T07:53:51.441Z</time></trkpt><trkpt lat="44.1231117" lon="12.2163067"><ele>31.0</ele><time>2026-05-02T07:53:54.439Z</time></trkpt><trkpt lat="44.1231583" lon="12.21639"><ele>31.0</ele><time>2026-05-02T07:53:57.443Z</time></trkpt><trkpt lat="44.1231983" lon="12.2164717"><ele>31.000000000000004</ele><time>2026-05-02T07:54:00.442Z</time></trkpt><trkpt lat="44.1232333" lon="12.216545"><ele>31.0</ele><time>2026-05-02T07:54:04.443Z</time></trkpt><trkpt lat="44.1232733" lon="12.21663"><ele>31.0</ele><time>2026-05-02T07:54:09.444Z</time></trkpt><trkpt lat="44.12331" lon="12.2167083"><ele>31.000000000000004</ele><time>2026-05-02T07:54:13.443Z</time></trkpt><trkpt lat="44.1233717" lon="12.216765"><ele>31.0</ele><time>2026-05-02T07:54:18.442Z</time></trkpt><trkpt lat="44.1234367" lon="12.2167883"><ele>31.0</ele><time>2026-05-02T07:54:22.44Z</time></trkpt><trkpt lat="44.12351" lon="12.21682"><ele>31.28571428571429</ele><time>2026-05-02T07:54:26.44Z</time></trkpt><trkpt lat="44.1235833" lon="12.21685"><ele>31.571428571428577</ele><time>2026-05-02T07:54:31.442Z</time></trkpt><trkpt lat="44.1236483" lon="12.2168483"><ele>31.857142857142858</ele><time>2026-05-02T07:54:35.442Z</time></trkpt><trkpt lat="44.1237117" lon="12.2168617"><ele>32.142857142857146</ele><time>2026-05-02T07:54:38.441Z</time></trkpt><trkpt lat="44.1237783" lon="12.21688"><ele>32.42857142857143</ele><time>2026-05-02T07:54:50.441Z</time></trkpt><trkpt lat="44.1237117" lon="12.2169283"><ele>32.714285714285715</ele><time>2026-05-02T07:55:08.441Z</time></trkpt><trkpt lat="44.12365" lon="12.2169767"><ele>33.0</ele><time>2026-05-02T07:55:14.44Z</time></trkpt><trkpt lat="44.1235933" lon="12.2170267"><ele>33.0</ele><time>2026-05-02T07:55:20.439Z</time></trkpt><trkpt lat="44.1234783" lon="12.2171267"><ele>33.0</ele><time>2026-05-02T07:55:36.442Z</time></trkpt><trkpt lat="44.1234183" lon="12.2171917"><ele>33.0</ele><time>2026-05-02T07:55:40.443Z</time></trkpt><trkpt lat="44.1234683" lon="12.2173167"><ele>33.0</ele><time>2026-05-02T07:55:59.44Z</time></trkpt><trkpt lat="44.1235283" lon="12.2172683"><ele>33.0</ele><time>2026-05-02T07:56:06.442Z</time></trkpt><trkpt lat="44.1235917" lon="12.217265"><ele>33.0</ele><time>2026-05-02T07:56:14.441Z</time></trkpt><trkpt lat="44.1236283" lon="12.2171833"><ele>33.0</ele><time>2026-05-02T07:56:22.439Z</time></trkpt><trkpt lat="44.1235883" lon="12.2172583"><ele>33.0</ele><time>2026-05-02T07:56:35.442Z</time></trkpt><trkpt lat="44.1236083" lon="12.2173417"><ele>33.0</ele><time>2026-05-02T07:56:43.442Z</time></trkpt><trkpt lat="44.12366" lon="12.2174817"><ele>33.0</ele><time>2026-05-02T07:57:00.441Z</time></trkpt><trkpt lat="44.1237117" lon="12.2176317"><ele>33.0</ele><time>2026-05-02T07:57:17.442Z</time></trkpt><trkpt lat="44.123705" lon="12.217735"><ele>33.0</ele><time>2026-05-02T07:57:30.44Z</time></trkpt><trkpt lat="44.123725" lon="12.2178217"><ele>33.0</ele><time>2026-05-02T07:57:34.442Z</time></trkpt><trkpt lat="44.12375" lon="12.21792"><ele>33.0</ele><time>2026-05-02T07:57:38.441Z</time></trkpt><trkpt lat="44.1237683" lon="12.2180233"><ele>33.0</ele><time>2026-05-02T07:57:42.44Z</time></trkpt><trkpt lat="44.1237933" lon="12.2181217"><ele>33.0</ele><time>2026-05-02T07:57:46.442Z</time></trkpt><trkpt lat="44.1238233" lon="12.2182233"><ele>33.0</ele><time>2026-05-02T07:57:50.44Z</time></trkpt><trkpt lat="44.1238417" lon="12.2183333"><ele>33.0</ele><time>2026-05-02T07:57:54.44Z</time></trkpt><trkpt lat="44.1238583" lon="12.2184433"><ele>33.0</ele><time>2026-05-02T07:57:58.442Z</time></trkpt><trkpt lat="44.1238533" lon="12.2185483"><ele>33.0</ele><time>2026-05-02T07:58:02.443Z</time></trkpt><trkpt lat="44.1238583" lon="12.2186483"><ele>33.0</ele><time>2026-05-02T07:58:06.443Z</time></trkpt><trkpt lat="44.1239" lon="12.2187233"><ele>33.0</ele><time>2026-05-02T07:58:11.441Z</time></trkpt><trkpt lat="44.1239717" lon="12.2186717"><ele>33.0</ele><time>2026-05-02T07:58:16.442Z</time></trkpt><trkpt lat="44.12405" lon="12.2186467"><ele>33.0</ele><time>2026-05-02T07:58:20.441Z</time></trkpt><trkpt lat="44.1241133" lon="12.218605"><ele>33.0</ele><time>2026-05-02T07:58:24.441Z</time></trkpt><trkpt lat="44.124185" lon="12.2185783"><ele>33.333333333333336</ele><time>2026-05-02T07:58:28.439Z</time></trkpt><trkpt lat="44.124265" lon="12.2185417"><ele>33.666666666666664</ele><time>2026-05-02T07:58:32.443Z</time></trkpt><trkpt lat="44.1243417" lon="12.2185067"><ele>34.0</ele><time>2026-05-02T07:58:36.442Z</time></trkpt><trkpt lat="44.1244117" lon="12.218485"><ele>34.33333333333333</ele><time>2026-05-02T07:58:40.443Z</time></trkpt><trkpt lat="44.1244833" lon="12.2184633"><ele>34.666666666666664</ele><time>2026-05-02T07:58:44.442Z</time></trkpt><trkpt lat="44.1245583" lon="12.2184233"><ele>35.0</ele><time>2026-05-02T07:58:48.442Z</time></trkpt><trkpt lat="44.1246283" lon="12.2183917"><ele>35.0</ele><time>2026-05-02T07:58:54.441Z</time></trkpt><trkpt lat="44.1246917" lon="12.21835"><ele>35.0</ele><time>2026-05-02T07:58:59.44Z</time></trkpt><trkpt lat="44.1247583" lon="12.2183067"><ele>35.0</ele><time>2026-05-02T07:59:04.443Z</time></trkpt><trkpt lat="44.1248267" lon="12.21829"><ele>35.0</ele><time>2026-05-02T07:59:08.442Z</time></trkpt><trkpt lat="44.12484" lon="12.2183867"><ele>35.0</ele><time>2026-05-02T07:59:15.442Z</time></trkpt><trkpt lat="44.1248267" lon="12.21848"><ele>35.0</ele><time>2026-05-02T07:59:19.44Z</time></trkpt><trkpt lat="44.1248183" lon="12.21857"><ele>35.0</ele><time>2026-05-02T07:59:24.439Z</time></trkpt><trkpt lat="44.1248117" lon="12.21867"><ele>35.0</ele><time>2026-05-02T07:59:29.44Z</time></trkpt><trkpt lat="44.124785" lon="12.21876"><ele>35.0</ele><time>2026-05-02T07:59:33.443Z</time></trkpt><trkpt lat="44.1247533" lon="12.2188383"><ele>35.0</ele><time>2026-05-02T07:59:36.443Z</time></trkpt><trkpt lat="44.1247033" lon="12.2189233"><ele>35.0</ele><time>2026-05-02T07:59:39.443Z</time></trkpt><trkpt lat="44.1246583" lon="12.2189867"><ele>35.0</ele><time>2026-05-02T07:59:41.442Z</time></trkpt><trkpt lat="44.1246133" lon="12.2190533"><ele>35.0</ele><time>2026-05-02T07:59:43.443Z</time></trkpt><trkpt lat="44.1245683" lon="12.219125"><ele>35.0</ele><time>2026-05-02T07:59:45.443Z</time></trkpt><trkpt lat="44.12453" lon="12.21921"><ele>34.83333333333333</ele><time>2026-05-02T07:59:47.443Z</time></trkpt><trkpt lat="44.1244883" lon="12.219295"><ele>34.666666666666664</ele><time>2026-05-02T07:59:50.439Z</time></trkpt><trkpt lat="44.1244433" lon="12.21937"><ele>34.5</ele><time>2026-05-02T07:59:53.439Z</time></trkpt><trkpt lat="44.1243867" lon="12.2194633"><ele>34.333333333333336</ele><time>2026-05-02T07:59:56.442Z</time></trkpt><trkpt lat="44.1243333" lon="12.21955"><ele>34.16666666666667</ele><time>2026-05-02T07:59:59.44Z</time></trkpt><trkpt lat="44.1242817" lon="12.2196183"><ele>34.0</ele><time>2026-05-02T08:00:02.441Z</time></trkpt><trkpt lat="44.1242217" lon="12.219695"><ele>34.0</ele><time>2026-05-02T08:00:05.441Z</time></trkpt><trkpt lat="44.12418" lon="12.219775"><ele>34.0</ele><time>2026-05-02T08:00:08.44Z</time></trkpt><trkpt lat="44.1241267" lon="12.2198617"><ele>34.0</ele><time>2026-05-02T08:00:11.439Z</time></trkpt><trkpt lat="44.1240667" lon="12.2199483"><ele>34.0</ele><time>2026-05-02T08:00:14.443Z</time></trkpt><trkpt lat="44.1240183" lon="12.2200367"><ele>34.0</ele><time>2026-05-02T08:00:17.443Z</time></trkpt><trkpt lat="44.1239583" lon="12.220125"><ele>34.0</ele><time>2026-05-02T08:00:20.439Z</time></trkpt><trkpt lat="44.1239017" lon="12.2201933"><ele>34.4</ele><time>2026-05-02T08:00:23.44Z</time></trkpt><trkpt lat="44.123825" lon="12.2202667"><ele>34.8</ele><time>2026-05-02T08:00:26.439Z</time></trkpt><trkpt lat="44.12376" lon="12.2203583"><ele>35.2</ele><time>2026-05-02T08:00:29.441Z</time></trkpt><trkpt lat="44.12369" lon="12.2204233"><ele>35.6</ele><time>2026-05-02T08:00:32.441Z</time></trkpt><trkpt lat="44.1236217" lon="12.2204967"><ele>36.0</ele><time>2026-05-02T08:00:35.44Z</time></trkpt><trkpt lat="44.1235633" lon="12.2206"><ele>36.333333333333336</ele><time>2026-05-02T08:00:38.44Z</time></trkpt><trkpt lat="44.1235267" lon="12.2206933"><ele>36.666666666666664</ele><time>2026-05-02T08:00:41.439Z</time></trkpt><trkpt lat="44.1234833" lon="12.2207717"><ele>37.0</ele><time>2026-05-02T08:00:45.443Z</time></trkpt><trkpt lat="44.1234317" lon="12.220855"><ele>37.33333333333333</ele><time>2026-05-02T08:00:48.441Z</time></trkpt><trkpt lat="44.1233833" lon="12.220945"><ele>37.666666666666664</ele><time>2026-05-02T08:00:51.44Z</time></trkpt><trkpt lat="44.1233167" lon="12.221005"><ele>38.0</ele><time>2026-05-02T08:00:53.44Z</time></trkpt><trkpt lat="44.123235" lon="12.2210683"><ele>37.199999999999996</ele><time>2026-05-02T08:00:55.442Z</time></trkpt><trkpt lat="44.1231633" lon="12.22114"><ele>36.4</ele><time>2026-05-02T08:00:57.44Z</time></trkpt><trkpt lat="44.1230917" lon="12.2212183"><ele>35.599999999999994</ele><time>2026-05-02T08:00:59.44Z</time></trkpt><trkpt lat="44.1230183" lon="12.2212933"><ele>34.8</ele><time>2026-05-02T08:01:01.44Z</time></trkpt><trkpt lat="44.1229517" lon="12.2213783"><ele>34.0</ele><time>2026-05-02T08:01:03.441Z</time></trkpt><trkpt lat="44.1228983" lon="12.22148"><ele>34.42857142857142</ele><time>2026-05-02T08:01:05.44Z</time></trkpt><trkpt lat="44.12286" lon="12.22158"><ele>34.857142857142854</ele><time>2026-05-02T08:01:07.44Z</time></trkpt><trkpt lat="44.1228317" lon="12.2216767"><ele>35.285714285714285</ele><time>2026-05-02T08:01:09.44Z</time></trkpt><trkpt lat="44.1228017" lon="12.2217633"><ele>35.71428571428571</ele><time>2026-05-02T08:01:11.441Z</time></trkpt><trkpt lat="44.12277" lon="12.2218467"><ele>36.14285714285714</ele><time>2026-05-02T08:01:13.441Z</time></trkpt><trkpt lat="44.12274" lon="12.22194"><ele>36.57142857142857</ele><time>2026-05-02T08:01:15.441Z</time></trkpt><trkpt lat="44.1227167" lon="12.222025"><ele>37.0</ele><time>2026-05-02T08:01:17.441Z</time></trkpt><trkpt lat="44.12275" lon="12.221945"><ele>37.0</ele><time>2026-05-02T08:01:23.44Z</time></trkpt><trkpt lat="44.1227817" lon="12.22183"><ele>37.0</ele><time>2026-05-02T08:01:25.442Z</time></trkpt><trkpt lat="44.1228167" lon="12.2217017"><ele>37.0</ele><time>2026-05-02T08:01:27.441Z</time></trkpt><trkpt lat="44.12285" lon="12.22158"><ele>37.0</ele><time>2026-05-02T08:01:29.441Z</time></trkpt><trkpt lat="44.1228667" lon="12.2214883"><ele>37.0</ele><time>2026-05-02T08:01:31.44Z</time></trkpt><trkpt lat="44.12279" lon="12.2214717"><ele>37.0</ele><time>2026-05-02T08:01:44.44Z</time></trkpt><trkpt lat="44.122715" lon="12.2215233"><ele>37.0</ele><time>2026-05-02T08:01:47.442Z</time></trkpt><trkpt lat="44.1226583" lon="12.2215633"><ele>37.0</ele><time>2026-05-02T08:01:49.441Z</time></trkpt><trkpt lat="44.1226017" lon="12.221605"><ele>37.0</ele><time>2026-05-02T08:01:51.441Z</time></trkpt><trkpt lat="44.1225383" lon="12.22165"><ele>37.0</ele><time>2026-05-02T08:01:53.441Z</time></trkpt><trkpt lat="44.12247" lon="12.22171"><ele>37.0</ele><time>2026-05-02T08:01:55.441Z</time></trkpt><trkpt lat="44.1223983" lon="12.2217683"><ele>37.0</ele><time>2026-05-02T08:01:57.441Z</time></trkpt><trkpt lat="44.122325" lon="12.2218233"><ele>37.0</ele><time>2026-05-02T08:01:59.441Z</time></trkpt><trkpt lat="44.1222483" lon="12.2218767"><ele>36.2</ele><time>2026-05-02T08:02:01.441Z</time></trkpt><trkpt lat="44.12217" lon="12.2219267"><ele>35.400000000000006</ele><time>2026-05-02T08:02:03.44Z</time></trkpt><trkpt lat="44.1220883" lon="12.22197"><ele>34.599999999999994</ele><time>2026-05-02T08:02:05.441Z</time></trkpt><trkpt lat="44.1220017" lon="12.2220233"><ele>33.8</ele><time>2026-05-02T08:02:07.442Z</time></trkpt><trkpt lat="44.1219083" lon="12.2220783"><ele>33.0</ele><time>2026-05-02T08:02:09.441Z</time></trkpt><trkpt lat="44.1217967" lon="12.222135"><ele>33.0</ele><time>2026-05-02T08:02:11.441Z</time></trkpt><trkpt lat="44.12173" lon="12.2221633"><ele>33.0</ele><time>2026-05-02T08:02:12.442Z</time></trkpt><trkpt lat="44.1216633" lon="12.22219"><ele>33.0</ele><time>2026-05-02T08:02:13.441Z</time></trkpt><trkpt lat="44.1215867" lon="12.2222117"><ele>33.0</ele><time>2026-05-02T08:02:14.44Z</time></trkpt><trkpt lat="44.121505" lon="12.2222233"><ele>33.0</ele><time>2026-05-02T08:02:15.441Z</time></trkpt><trkpt lat="44.1214183" lon="12.2222333"><ele>33.0</ele><time>2026-05-02T08:02:16.44Z</time></trkpt><trkpt lat="44.1213283" lon="12.2222433"><ele>32.666666666666664</ele><time>2026-05-02T08:02:17.44Z</time></trkpt><trkpt lat="44.12124" lon="12.2222633"><ele>32.333333333333336</ele><time>2026-05-02T08:02:18.441Z</time></trkpt><trkpt lat="44.1211567" lon="12.22229"><ele>32.0</ele><time>2026-05-02T08:02:19.441Z</time></trkpt><trkpt lat="44.1210733" lon="12.2223183"><ele>31.666666666666668</ele><time>2026-05-02T08:02:20.443Z</time></trkpt><trkpt lat="44.1209933" lon="12.2223533"><ele>31.333333333333336</ele><time>2026-05-02T08:02:21.441Z</time></trkpt><trkpt lat="44.120915" lon="12.2223833"><ele>31.0</ele><time>2026-05-02T08:02:22.439Z</time></trkpt><trkpt lat="44.1208417" lon="12.2224133"><ele>31.0</ele><time>2026-05-02T08:02:23.444Z</time></trkpt><trkpt lat="44.1207683" lon="12.2224417"><ele>31.000000000000004</ele><time>2026-05-02T08:02:24.44Z</time></trkpt><trkpt lat="44.1206967" lon="12.222465"><ele>31.0</ele><time>2026-05-02T08:02:25.441Z</time></trkpt><trkpt lat="44.12063" lon="12.2224883"><ele>31.0</ele><time>2026-05-02T08:02:26.441Z</time></trkpt><trkpt lat="44.120565" lon="12.2225083"><ele>31.000000000000004</ele><time>2026-05-02T08:02:27.44Z</time></trkpt><trkpt lat="44.1204983" lon="12.22252"><ele>31.0</ele><time>2026-05-02T08:02:28.442Z</time></trkpt><trkpt lat="44.120435" lon="12.2225367"><ele>31.0</ele><time>2026-05-02T08:02:29.441Z</time></trkpt><trkpt lat="44.1203717" lon="12.2225633"><ele>31.0</ele><time>2026-05-02T08:02:30.441Z</time></trkpt><trkpt lat="44.120305" lon="12.22259"><ele>31.000000000000004</ele><time>2026-05-02T08:02:31.44Z</time></trkpt><trkpt lat="44.1202383" lon="12.222615"><ele>31.0</ele><time>2026-05-02T08:02:32.441Z</time></trkpt><trkpt lat="44.1201683" lon="12.2226417"><ele>31.0</ele><time>2026-05-02T08:02:33.441Z</time></trkpt><trkpt lat="44.1200983" lon="12.2226683"><ele>31.000000000000004</ele><time>2026-05-02T08:02:34.441Z</time></trkpt><trkpt lat="44.12003" lon="12.222695"><ele>31.0</ele><time>2026-05-02T08:02:35.441Z</time></trkpt><trkpt lat="44.1199617" lon="12.2227167"><ele>31.0</ele><time>2026-05-02T08:02:36.442Z</time></trkpt><trkpt lat="44.1198967" lon="12.22274"><ele>31.0</ele><time>2026-05-02T08:02:37.441Z</time></trkpt><trkpt lat="44.1198317" lon="12.22276"><ele>31.000000000000004</ele><time>2026-05-02T08:02:38.441Z</time></trkpt><trkpt lat="44.1197683" lon="12.2227817"><ele>31.0</ele><time>2026-05-02T08:02:39.441Z</time></trkpt><trkpt lat="44.119705" lon="12.2228083"><ele>31.0</ele><time>2026-05-02T08:02:40.441Z</time></trkpt><trkpt lat="44.1196417" lon="12.2228333"><ele>31.000000000000004</ele><time>2026-05-02T08:02:41.441Z</time></trkpt><trkpt lat="44.119575" lon="12.2228567"><ele>31.0</ele><time>2026-05-02T08:02:42.441Z</time></trkpt><trkpt lat="44.11951" lon="12.2228767"><ele>31.0</ele><time>2026-05-02T08:02:43.44Z</time></trkpt><trkpt lat="44.1194483" lon="12.2229033"><ele>31.0</ele><time>2026-05-02T08:02:44.441Z</time></trkpt><trkpt lat="44.119385" lon="12.2229283"><ele>31.000000000000004</ele><time>2026-05-02T08:02:45.44Z</time></trkpt><trkpt lat="44.1193217" lon="12.2229517"><ele>31.0</ele><time>2026-05-02T08:02:46.441Z</time></trkpt><trkpt lat="44.11926" lon="12.222975"><ele>31.0</ele><time>2026-05-02T08:02:47.441Z</time></trkpt><trkpt lat="44.1191983" lon="12.2229967"><ele>31.000000000000004</ele><time>2026-05-02T08:02:48.441Z</time></trkpt><trkpt lat="44.1191367" lon="12.2230233"><ele>31.0</ele><time>2026-05-02T08:02:49.442Z</time></trkpt><trkpt lat="44.1190733" lon="12.2230533"><ele>31.0</ele><time>2026-05-02T08:02:50.439Z</time></trkpt><trkpt lat="44.119015" lon="12.2230933"><ele>31.4</ele><time>2026-05-02T08:02:51.441Z</time></trkpt><trkpt lat="44.11891" lon="12.2231883"><ele>31.8</ele><time>2026-05-02T08:02:53.442Z</time></trkpt><trkpt lat="44.1188617" lon="12.2232483"><ele>32.199999999999996</ele><time>2026-05-02T08:02:54.441Z</time></trkpt><trkpt lat="44.1187783" lon="12.223365"><ele>32.6</ele><time>2026-05-02T08:02:56.439Z</time></trkpt><trkpt lat="44.1186983" lon="12.2234917"><ele>33.0</ele><time>2026-05-02T08:02:58.44Z</time></trkpt><trkpt lat="44.1186567" lon="12.2235617"><ele>33.0</ele><time>2026-05-02T08:02:59.44Z</time></trkpt><trkpt lat="44.11859" lon="12.2236967"><ele>33.0</ele><time>2026-05-02T08:03:01.44Z</time></trkpt><trkpt lat="44.1185417" lon="12.22382"><ele>33.0</ele><time>2026-05-02T08:03:03.44Z</time></trkpt><trkpt lat="44.1184867" lon="12.2239617"><ele>33.0</ele><time>2026-05-02T08:03:05.438Z</time></trkpt><trkpt lat="44.1184383" lon="12.2241133"><ele>32.8</ele><time>2026-05-02T08:03:07.44Z</time></trkpt><trkpt lat="44.1184233" lon="12.22427"><ele>32.599999999999994</ele><time>2026-05-02T08:03:09.44Z</time></trkpt><trkpt lat="44.118425" lon="12.2244283"><ele>32.400000000000006</ele><time>2026-05-02T08:03:11.439Z</time></trkpt><trkpt lat="44.118445" lon="12.2245833"><ele>32.2</ele><time>2026-05-02T08:03:13.441Z</time></trkpt><trkpt lat="44.1184683" lon="12.22473"><ele>32.0</ele><time>2026-05-02T08:03:15.44Z</time></trkpt><trkpt lat="44.1184917" lon="12.2248717"><ele>32.0</ele><time>2026-05-02T08:03:17.441Z</time></trkpt><trkpt lat="44.118515" lon="12.22501"><ele>32.0</ele><time>2026-05-02T08:03:19.44Z</time></trkpt><trkpt lat="44.1185367" lon="12.2251517"><ele>32.0</ele><time>2026-05-02T08:03:21.439Z</time></trkpt><trkpt lat="44.1185567" lon="12.225295"><ele>32.0</ele><time>2026-05-02T08:03:23.439Z</time></trkpt><trkpt lat="44.1185767" lon="12.22544"><ele>32.0</ele><time>2026-05-02T08:03:25.44Z</time></trkpt><trkpt lat="44.1186117" lon="12.225585"><ele>32.2</ele><time>2026-05-02T08:03:27.44Z</time></trkpt><trkpt lat="44.1186533" lon="12.2257233"><ele>32.400000000000006</ele><time>2026-05-02T08:03:29.44Z</time></trkpt><trkpt lat="44.1186917" lon="12.225855"><ele>32.599999999999994</ele><time>2026-05-02T08:03:31.44Z</time></trkpt><trkpt lat="44.1187317" lon="12.225985"><ele>32.8</ele><time>2026-05-02T08:03:33.44Z</time></trkpt><trkpt lat="44.1187733" lon="12.2261183"><ele>33.0</ele><time>2026-05-02T08:03:35.439Z</time></trkpt><trkpt lat="44.1188133" lon="12.2262517"><ele>33.0</ele><time>2026-05-02T08:03:37.44Z</time></trkpt><trkpt lat="44.11886" lon="12.2263833"><ele>33.0</ele><time>2026-05-02T08:03:39.44Z</time></trkpt><trkpt lat="44.11891" lon="12.226515"><ele>33.0</ele><time>2026-05-02T08:03:41.439Z</time></trkpt><trkpt lat="44.1189583" lon="12.2266467"><ele>33.0</ele><time>2026-05-02T08:03:43.442Z</time></trkpt><trkpt lat="44.119005" lon="12.22678"><ele>33.0</ele><time>2026-05-02T08:03:45.441Z</time></trkpt><trkpt lat="44.119055" lon="12.2269117"><ele>32.8</ele><time>2026-05-02T08:03:47.442Z</time></trkpt><trkpt lat="44.1191033" lon="12.2270417"><ele>32.599999999999994</ele><time>2026-05-02T08:03:49.441Z</time></trkpt><trkpt lat="44.1191583" lon="12.22717"><ele>32.400000000000006</ele><time>2026-05-02T08:03:51.439Z</time></trkpt><trkpt lat="44.1192117" lon="12.2272967"><ele>32.2</ele><time>2026-05-02T08:03:53.44Z</time></trkpt><trkpt lat="44.1192717" lon="12.227425"><ele>32.0</ele><time>2026-05-02T08:03:55.439Z</time></trkpt><trkpt lat="44.1193317" lon="12.2275433"><ele>31.8</ele><time>2026-05-02T08:03:57.44Z</time></trkpt><trkpt lat="44.1193883" lon="12.227665"><ele>31.6</ele><time>2026-05-02T08:03:59.438Z</time></trkpt><trkpt lat="44.1194517" lon="12.2277883"><ele>31.400000000000002</ele><time>2026-05-02T08:04:01.441Z</time></trkpt><trkpt lat="44.119525" lon="12.2279017"><ele>31.200000000000003</ele><time>2026-05-02T08:04:03.442Z</time></trkpt><trkpt lat="44.1196033" lon="12.228005"><ele>31.0</ele><time>2026-05-02T08:04:05.441Z</time></trkpt><trkpt lat="44.1196833" lon="12.2280933"><ele>30.833333333333336</ele><time>2026-05-02T08:04:07.44Z</time></trkpt><trkpt lat="44.119765" lon="12.2281767"><ele>30.666666666666668</ele><time>2026-05-02T08:04:09.44Z</time></trkpt><trkpt lat="44.1198417" lon="12.2282583"><ele>30.5</ele><time>2026-05-02T08:04:11.44Z</time></trkpt><trkpt lat="44.1199117" lon="12.2283283"><ele>30.333333333333336</ele><time>2026-05-02T08:04:13.439Z</time></trkpt><trkpt lat="44.11998" lon="12.2283917"><ele>30.166666666666668</ele><time>2026-05-02T08:04:15.441Z</time></trkpt><trkpt lat="44.1200517" lon="12.2284483"><ele>30.0</ele><time>2026-05-02T08:04:17.442Z</time></trkpt><trkpt lat="44.1201167" lon="12.2285083"><ele>30.0</ele><time>2026-05-02T08:04:19.439Z</time></trkpt><trkpt lat="44.1201817" lon="12.2285633"><ele>30.0</ele><time>2026-05-02T08:04:21.439Z</time></trkpt><trkpt lat="44.1202417" lon="12.2286167"><ele>30.0</ele><time>2026-05-02T08:04:23.44Z</time></trkpt><trkpt lat="44.1203217" lon="12.22868"><ele>30.0</ele><time>2026-05-02T08:04:26.44Z</time></trkpt><trkpt lat="44.120385" lon="12.2287183"><ele>30.0</ele><time>2026-05-02T08:05:27.443Z</time></trkpt><trkpt lat="44.1204667" lon="12.2287867"><ele>30.0</ele><time>2026-05-02T08:05:30.441Z</time></trkpt><trkpt lat="44.1205317" lon="12.2288283"><ele>30.0</ele><time>2026-05-02T08:05:32.439Z</time></trkpt><trkpt lat="44.1206" lon="12.2288617"><ele>30.0</ele><time>2026-05-02T08:05:34.44Z</time></trkpt><trkpt lat="44.12067" lon="12.228895"><ele>30.0</ele><time>2026-05-02T08:05:36.44Z</time></trkpt><trkpt lat="44.120745" lon="12.2289283"><ele>30.0</ele><time>2026-05-02T08:05:38.44Z</time></trkpt><trkpt lat="44.120825" lon="12.2289617"><ele>30.0</ele><time>2026-05-02T08:05:40.44Z</time></trkpt><trkpt lat="44.1209067" lon="12.2289883"><ele>30.0</ele><time>2026-05-02T08:05:42.441Z</time></trkpt><trkpt lat="44.1209917" lon="12.2290217"><ele>30.2</ele><time>2026-05-02T08:05:44.44Z</time></trkpt><trkpt lat="44.1210817" lon="12.2290467"><ele>30.4</ele><time>2026-05-02T08:05:46.442Z</time></trkpt><trkpt lat="44.1211717" lon="12.2290567"><ele>30.6</ele><time>2026-05-02T08:05:48.439Z</time></trkpt><trkpt lat="44.1212733" lon="12.229055"><ele>30.8</ele><time>2026-05-02T08:05:50.439Z</time></trkpt><trkpt lat="44.1213733" lon="12.2290433"><ele>31.0</ele><time>2026-05-02T08:05:52.439Z</time></trkpt><trkpt lat="44.1214817" lon="12.2290267"><ele>30.8</ele><time>2026-05-02T08:05:54.44Z</time></trkpt><trkpt lat="44.1215817" lon="12.22902"><ele>30.6</ele><time>2026-05-02T08:05:56.439Z</time></trkpt><trkpt lat="44.1216833" lon="12.2290233"><ele>30.4</ele><time>2026-05-02T08:05:58.44Z</time></trkpt><trkpt lat="44.1217817" lon="12.2290183"><ele>30.2</ele><time>2026-05-02T08:06:00.439Z</time></trkpt><trkpt lat="44.1218733" lon="12.2290183"><ele>30.0</ele><time>2026-05-02T08:06:02.441Z</time></trkpt><trkpt lat="44.1219683" lon="12.229005"><ele>30.0</ele><time>2026-05-02T08:06:04.44Z</time></trkpt><trkpt lat="44.1220683" lon="12.2289933"><ele>30.0</ele><time>2026-05-02T08:06:06.44Z</time></trkpt><trkpt lat="44.122165" lon="12.22899"><ele>30.0</ele><time>2026-05-02T08:06:08.44Z</time></trkpt><trkpt lat="44.1222633" lon="12.2289817"><ele>30.0</ele><time>2026-05-02T08:06:10.44Z</time></trkpt><trkpt lat="44.12236" lon="12.2289633"><ele>30.0</ele><time>2026-05-02T08:06:12.44Z</time></trkpt><trkpt lat="44.122455" lon="12.228925"><ele>30.5</ele><time>2026-05-02T08:06:14.439Z</time></trkpt><trkpt lat="44.1225517" lon="12.2288783"><ele>31.0</ele><time>2026-05-02T08:06:16.443Z</time></trkpt><trkpt lat="44.1226333" lon="12.2288383"><ele>31.5</ele><time>2026-05-02T08:06:18.443Z</time></trkpt><trkpt lat="44.1227183" lon="12.2288117"><ele>32.0</ele><time>2026-05-02T08:06:20.441Z</time></trkpt><trkpt lat="44.1228" lon="12.2287867"><ele>32.5</ele><time>2026-05-02T08:06:22.443Z</time></trkpt><trkpt lat="44.12288" lon="12.22875"><ele>33.0</ele><time>2026-05-02T08:06:24.443Z</time></trkpt><trkpt lat="44.1229583" lon="12.2287083"><ele>33.0</ele><time>2026-05-02T08:06:26.439Z</time></trkpt><trkpt lat="44.1230417" lon="12.22865"><ele>33.0</ele><time>2026-05-02T08:06:28.439Z</time></trkpt><trkpt lat="44.12312" lon="12.228585"><ele>33.0</ele><time>2026-05-02T08:06:30.439Z</time></trkpt><trkpt lat="44.1232" lon="12.22852"><ele>33.0</ele><time>2026-05-02T08:06:32.439Z</time></trkpt><trkpt lat="44.1232883" lon="12.228485"><ele>33.0</ele><time>2026-05-02T08:06:34.439Z</time></trkpt><trkpt lat="44.1233833" lon="12.2284467"><ele>32.666666666666664</ele><time>2026-05-02T08:06:36.44Z</time></trkpt><trkpt lat="44.12346" lon="12.2283833"><ele>32.333333333333336</ele><time>2026-05-02T08:06:38.44Z</time></trkpt><trkpt lat="44.1235283" lon="12.2283233"><ele>32.0</ele><time>2026-05-02T08:06:40.438Z</time></trkpt><trkpt lat="44.1235983" lon="12.2282717"><ele>31.666666666666668</ele><time>2026-05-02T08:06:42.439Z</time></trkpt><trkpt lat="44.1236783" lon="12.2282467"><ele>31.333333333333336</ele><time>2026-05-02T08:06:44.44Z</time></trkpt><trkpt lat="44.123765" lon="12.228235"><ele>31.0</ele><time>2026-05-02T08:06:46.44Z</time></trkpt><trkpt lat="44.1238533" lon="12.2282333"><ele>31.0</ele><time>2026-05-02T08:06:48.44Z</time></trkpt><trkpt lat="44.1239433" lon="12.2282283"><ele>31.0</ele><time>2026-05-02T08:06:50.439Z</time></trkpt><trkpt lat="44.1240317" lon="12.2282167"><ele>31.0</ele><time>2026-05-02T08:06:52.443Z</time></trkpt><trkpt lat="44.1241233" lon="12.2282"><ele>31.0</ele><time>2026-05-02T08:06:54.44Z</time></trkpt><trkpt lat="44.124215" lon="12.2281717"><ele>31.0</ele><time>2026-05-02T08:06:56.44Z</time></trkpt><trkpt lat="44.1243033" lon="12.2281383"><ele>31.833333333333336</ele><time>2026-05-02T08:06:58.439Z</time></trkpt><trkpt lat="44.1243933" lon="12.2281017"><ele>32.66666666666667</ele><time>2026-05-02T08:07:00.439Z</time></trkpt><trkpt lat="44.1244783" lon="12.2280667"><ele>33.5</ele><time>2026-05-02T08:07:02.44Z</time></trkpt><trkpt lat="44.12455" lon="12.2280617"><ele>34.333333333333336</ele><time>2026-05-02T08:07:04.439Z</time></trkpt><trkpt lat="44.1246183" lon="12.2280617"><ele>35.166666666666664</ele><time>2026-05-02T08:07:06.44Z</time></trkpt><trkpt lat="44.1247083" lon="12.2280733"><ele>36.0</ele><time>2026-05-02T08:07:09.439Z</time></trkpt><trkpt lat="44.124785" lon="12.2280883"><ele>36.0</ele><time>2026-05-02T08:07:12.439Z</time></trkpt><trkpt lat="44.1248617" lon="12.2281067"><ele>36.0</ele><time>2026-05-02T08:07:15.44Z</time></trkpt><trkpt lat="44.1249417" lon="12.2281167"><ele>36.0</ele><time>2026-05-02T08:07:18.439Z</time></trkpt><trkpt lat="44.1250167" lon="12.2280983"><ele>36.0</ele><time>2026-05-02T08:07:21.442Z</time></trkpt><trkpt lat="44.1250867" lon="12.228065"><ele>36.0</ele><time>2026-05-02T08:07:24.44Z</time></trkpt><trkpt lat="44.12516" lon="12.2280433"><ele>36.0</ele><time>2026-05-02T08:07:27.441Z</time></trkpt><trkpt lat="44.12524" lon="12.2280117"><ele>36.333333333333336</ele><time>2026-05-02T08:07:30.439Z</time></trkpt><trkpt lat="44.125325" lon="12.2279817"><ele>36.666666666666664</ele><time>2026-05-02T08:07:33.439Z</time></trkpt><trkpt lat="44.12542" lon="12.2279617"><ele>37.0</ele><time>2026-05-02T08:07:36.439Z</time></trkpt><trkpt lat="44.125485" lon="12.2279683"><ele>37.33333333333333</ele><time>2026-05-02T08:07:38.439Z</time></trkpt><trkpt lat="44.1255567" lon="12.22799"><ele>37.666666666666664</ele><time>2026-05-02T08:07:40.443Z</time></trkpt><trkpt lat="44.1256317" lon="12.2280117"><ele>38.0</ele><time>2026-05-02T08:07:42.442Z</time></trkpt><trkpt lat="44.1257" lon="12.2280467"><ele>37.83333333333333</ele><time>2026-05-02T08:07:44.44Z</time></trkpt><trkpt lat="44.12576" lon="12.22808"><ele>37.666666666666664</ele><time>2026-05-02T08:07:46.439Z</time></trkpt><trkpt lat="44.12582" lon="12.2281267"><ele>37.5</ele><time>2026-05-02T08:07:48.443Z</time></trkpt><trkpt lat="44.125895" lon="12.2281733"><ele>37.333333333333336</ele><time>2026-05-02T08:07:50.439Z</time></trkpt><trkpt lat="44.12599" lon="12.22821"><ele>37.16666666666667</ele><time>2026-05-02T08:07:52.443Z</time></trkpt><trkpt lat="44.1260733" lon="12.2282433"><ele>37.0</ele><time>2026-05-02T08:07:54.442Z</time></trkpt><trkpt lat="44.12615" lon="12.2282817"><ele>36.66666666666667</ele><time>2026-05-02T08:07:56.44Z</time></trkpt><trkpt lat="44.126215" lon="12.2283233"><ele>36.333333333333336</ele><time>2026-05-02T08:07:58.439Z</time></trkpt><trkpt lat="44.1262817" lon="12.2283667"><ele>36.0</ele><time>2026-05-02T08:08:00.443Z</time></trkpt><trkpt lat="44.1263567" lon="12.2284183"><ele>35.666666666666664</ele><time>2026-05-02T08:08:02.44Z</time></trkpt><trkpt lat="44.1264433" lon="12.22848"><ele>35.33333333333333</ele><time>2026-05-02T08:08:04.44Z</time></trkpt><trkpt lat="44.126535" lon="12.2285267"><ele>35.0</ele><time>2026-05-02T08:08:06.44Z</time></trkpt><trkpt lat="44.126625" lon="12.2285833"><ele>35.0</ele><time>2026-05-02T08:08:08.439Z</time></trkpt><trkpt lat="44.12672" lon="12.2286383"><ele>35.0</ele><time>2026-05-02T08:08:10.442Z</time></trkpt><trkpt lat="44.1268167" lon="12.2287"><ele>35.0</ele><time>2026-05-02T08:08:12.439Z</time></trkpt><trkpt lat="44.1269083" lon="12.2287667"><ele>35.0</ele><time>2026-05-02T08:08:14.44Z</time></trkpt><trkpt lat="44.127005" lon="12.22882"><ele>35.0</ele><time>2026-05-02T08:08:16.443Z</time></trkpt><trkpt lat="44.1270983" lon="12.22885"><ele>35.0</ele><time>2026-05-02T08:08:18.442Z</time></trkpt><trkpt lat="44.12719" lon="12.228845"><ele>35.0</ele><time>2026-05-02T08:08:20.443Z</time></trkpt><trkpt lat="44.12727" lon="12.2288333"><ele>35.0</ele><time>2026-05-02T08:08:22.442Z</time></trkpt><trkpt lat="44.1273333" lon="12.2289167"><ele>35.0</ele><time>2026-05-02T08:08:25.443Z</time></trkpt><trkpt lat="44.1273183" lon="12.22902"><ele>35.0</ele><time>2026-05-02T08:08:27.441Z</time></trkpt><trkpt lat="44.12731" lon="12.2291167"><ele>35.0</ele><time>2026-05-02T08:08:29.439Z</time></trkpt><trkpt lat="44.1273033" lon="12.22924"><ele>34.5</ele><time>2026-05-02T08:08:32.44Z</time></trkpt><trkpt lat="44.1272867" lon="12.22936"><ele>34.0</ele><time>2026-05-02T08:08:34.439Z</time></trkpt><trkpt lat="44.1272733" lon="12.229475"><ele>33.5</ele><time>2026-05-02T08:08:36.44Z</time></trkpt><trkpt lat="44.1272633" lon="12.22959"><ele>33.0</ele><time>2026-05-02T08:08:38.441Z</time></trkpt><trkpt lat="44.1272533" lon="12.2296983"><ele>32.5</ele><time>2026-05-02T08:08:40.439Z</time></trkpt><trkpt lat="44.1272367" lon="12.229805"><ele>32.0</ele><time>2026-05-02T08:08:42.439Z</time></trkpt><trkpt lat="44.1272183" lon="12.2299033"><ele>31.999999999999996</ele><time>2026-05-02T08:08:44.44Z</time></trkpt><trkpt lat="44.127215" lon="12.2300233"><ele>32.0</ele><time>2026-05-02T08:08:47.439Z</time></trkpt><trkpt lat="44.1272867" lon="12.2300733"><ele>32.0</ele><time>2026-05-02T08:08:50.443Z</time></trkpt><trkpt lat="44.1273417" lon="12.2301333"><ele>32.0</ele><time>2026-05-02T08:08:54.442Z</time></trkpt><trkpt lat="44.127395" lon="12.23018"><ele>31.999999999999996</ele><time>2026-05-02T08:08:56.441Z</time></trkpt><trkpt lat="44.12747" lon="12.2302333"><ele>32.0</ele><time>2026-05-02T08:08:58.44Z</time></trkpt><trkpt lat="44.1275617" lon="12.2302667"><ele>31.8</ele><time>2026-05-02T08:09:00.441Z</time></trkpt><trkpt lat="44.1276667" lon="12.23031"><ele>31.6</ele><time>2026-05-02T08:09:02.441Z</time></trkpt><trkpt lat="44.1277867" lon="12.230355"><ele>31.400000000000002</ele><time>2026-05-02T08:09:04.44Z</time></trkpt><trkpt lat="44.12785" lon="12.2303717"><ele>31.200000000000003</ele><time>2026-05-02T08:09:05.441Z</time></trkpt><trkpt lat="44.127915" lon="12.23038"><ele>31.0</ele><time>2026-05-02T08:09:06.441Z</time></trkpt><trkpt lat="44.1280367" lon="12.2303983"><ele>31.0</ele><time>2026-05-02T08:09:08.44Z</time></trkpt><trkpt lat="44.128145" lon="12.230435"><ele>31.0</ele><time>2026-05-02T08:09:10.441Z</time></trkpt><trkpt lat="44.1282433" lon="12.2305"><ele>31.0</ele><time>2026-05-02T08:09:12.44Z</time></trkpt><trkpt lat="44.12833" lon="12.2305717"><ele>31.0</ele><time>2026-05-02T08:09:14.441Z</time></trkpt><trkpt lat="44.1284133" lon="12.2306467"><ele>31.0</ele><time>2026-05-02T08:09:16.443Z</time></trkpt><trkpt lat="44.1285" lon="12.2307233"><ele>30.8</ele><time>2026-05-02T08:09:18.443Z</time></trkpt><trkpt lat="44.12858" lon="12.23081"><ele>30.6</ele><time>2026-05-02T08:09:20.44Z</time></trkpt><trkpt lat="44.1286617" lon="12.230885"><ele>30.4</ele><time>2026-05-02T08:09:22.443Z</time></trkpt><trkpt lat="44.12874" lon="12.230965"><ele>30.2</ele><time>2026-05-02T08:09:24.442Z</time></trkpt><trkpt lat="44.128825" lon="12.2310433"><ele>30.0</ele><time>2026-05-02T08:09:26.441Z</time></trkpt><trkpt lat="44.12891" lon="12.2311267"><ele>30.0</ele><time>2026-05-02T08:09:28.441Z</time></trkpt><trkpt lat="44.1289933" lon="12.2312083"><ele>30.0</ele><time>2026-05-02T08:09:30.441Z</time></trkpt><trkpt lat="44.1290767" lon="12.2312817"><ele>30.0</ele><time>2026-05-02T08:09:32.442Z</time></trkpt><trkpt lat="44.12916" lon="12.2313383"><ele>30.0</ele><time>2026-05-02T08:09:34.442Z</time></trkpt><trkpt lat="44.1292433" lon="12.2313567"><ele>30.0</ele><time>2026-05-02T08:09:36.441Z</time></trkpt><trkpt lat="44.1293133" lon="12.2313567"><ele>30.0</ele><time>2026-05-02T08:09:38.441Z</time></trkpt><trkpt lat="44.1293867" lon="12.23142"><ele>30.166666666666668</ele><time>2026-05-02T08:09:41.442Z</time></trkpt><trkpt lat="44.1293867" lon="12.2315283"><ele>30.333333333333336</ele><time>2026-05-02T08:09:44.441Z</time></trkpt><trkpt lat="44.1294233" lon="12.2316167"><ele>30.5</ele><time>2026-05-02T08:09:48.439Z</time></trkpt><trkpt lat="44.1294967" lon="12.2316917"><ele>30.666666666666668</ele><time>2026-05-02T08:09:53.44Z</time></trkpt><trkpt lat="44.1295733" lon="12.231755"><ele>30.833333333333336</ele><time>2026-05-02T08:09:56.441Z</time></trkpt><trkpt lat="44.129645" lon="12.2318017"><ele>31.0</ele><time>2026-05-02T08:09:58.442Z</time></trkpt><trkpt lat="44.129725" lon="12.2318517"><ele>31.0</ele><time>2026-05-02T08:10:00.441Z</time></trkpt><trkpt lat="44.129805" lon="12.2319033"><ele>31.0</ele><time>2026-05-02T08:10:02.441Z</time></trkpt><trkpt lat="44.1298817" lon="12.23197"><ele>31.0</ele><time>2026-05-02T08:10:04.441Z</time></trkpt><trkpt lat="44.1299583" lon="12.2320383"><ele>31.0</ele><time>2026-05-02T08:10:06.44Z</time></trkpt><trkpt lat="44.130035" lon="12.2321067"><ele>31.0</ele><time>2026-05-02T08:10:08.439Z</time></trkpt><trkpt lat="44.1301117" lon="12.2321833"><ele>30.8</ele><time>2026-05-02T08:10:10.44Z</time></trkpt><trkpt lat="44.1301917" lon="12.2322667"><ele>30.6</ele><time>2026-05-02T08:10:12.44Z</time></trkpt><trkpt lat="44.1302717" lon="12.2323567"><ele>30.4</ele><time>2026-05-02T08:10:14.44Z</time></trkpt><trkpt lat="44.1303533" lon="12.2324467"><ele>30.2</ele><time>2026-05-02T08:10:16.442Z</time></trkpt><trkpt lat="44.1304367" lon="12.2325467"><ele>30.0</ele><time>2026-05-02T08:10:18.44Z</time></trkpt><trkpt lat="44.1305183" lon="12.2326433"><ele>30.4</ele><time>2026-05-02T08:10:20.439Z</time></trkpt><trkpt lat="44.1306" lon="12.2327417"><ele>30.8</ele><time>2026-05-02T08:10:22.439Z</time></trkpt><trkpt lat="44.130675" lon="12.2328383"><ele>31.200000000000003</ele><time>2026-05-02T08:10:24.44Z</time></trkpt><trkpt lat="44.130755" lon="12.23293"><ele>31.6</ele><time>2026-05-02T08:10:26.44Z</time></trkpt><trkpt lat="44.1308417" lon="12.23301"><ele>32.0</ele><time>2026-05-02T08:10:28.44Z</time></trkpt><trkpt lat="44.13092" lon="12.2331083"><ele>31.6</ele><time>2026-05-02T08:10:30.44Z</time></trkpt><trkpt lat="44.1309917" lon="12.233205"><ele>31.200000000000003</ele><time>2026-05-02T08:10:32.44Z</time></trkpt><trkpt lat="44.131075" lon="12.2332867"><ele>30.8</ele><time>2026-05-02T08:10:34.439Z</time></trkpt><trkpt lat="44.1311583" lon="12.233365"><ele>30.4</ele><time>2026-05-02T08:10:36.44Z</time></trkpt><trkpt lat="44.1312367" lon="12.23344"><ele>30.0</ele><time>2026-05-02T08:10:38.44Z</time></trkpt><trkpt lat="44.1313183" lon="12.233515"><ele>30.0</ele><time>2026-05-02T08:10:40.439Z</time></trkpt><trkpt lat="44.1314017" lon="12.233585"><ele>30.0</ele><time>2026-05-02T08:10:42.44Z</time></trkpt><trkpt lat="44.13149" lon="12.2336533"><ele>30.0</ele><time>2026-05-02T08:10:44.439Z</time></trkpt><trkpt lat="44.1315817" lon="12.2337133"><ele>30.0</ele><time>2026-05-02T08:10:46.443Z</time></trkpt><trkpt lat="44.131675" lon="12.2337767"><ele>30.0</ele><time>2026-05-02T08:10:48.438Z</time></trkpt><trkpt lat="44.1317667" lon="12.2338433"><ele>30.2</ele><time>2026-05-02T08:10:50.439Z</time></trkpt><trkpt lat="44.1318533" lon="12.23391"><ele>30.4</ele><time>2026-05-02T08:10:52.439Z</time></trkpt><trkpt lat="44.131945" lon="12.2339783"><ele>30.6</ele><time>2026-05-02T08:10:54.44Z</time></trkpt><trkpt lat="44.132035" lon="12.2340483"><ele>30.8</ele><time>2026-05-02T08:10:56.439Z</time></trkpt><trkpt lat="44.132125" lon="12.234115"><ele>31.0</ele><time>2026-05-02T08:10:58.439Z</time></trkpt><trkpt lat="44.13222" lon="12.2341783"><ele>31.0</ele><time>2026-05-02T08:11:00.44Z</time></trkpt><trkpt lat="44.1323183" lon="12.2342333"><ele>31.0</ele><time>2026-05-02T08:11:02.44Z</time></trkpt><trkpt lat="44.13241" lon="12.2342967"><ele>31.0</ele><time>2026-05-02T08:11:04.44Z</time></trkpt><trkpt lat="44.1325" lon="12.2343717"><ele>31.0</ele><time>2026-05-02T08:11:06.439Z</time></trkpt><trkpt lat="44.1325933" lon="12.23443"><ele>31.0</ele><time>2026-05-02T08:11:08.439Z</time></trkpt><trkpt lat="44.1326833" lon="12.234495"><ele>31.0</ele><time>2026-05-02T08:11:10.439Z</time></trkpt><trkpt lat="44.1327683" lon="12.23456"><ele>31.0</ele><time>2026-05-02T08:11:12.44Z</time></trkpt><trkpt lat="44.13285" lon="12.23463"><ele>31.0</ele><time>2026-05-02T08:11:14.438Z</time></trkpt><trkpt lat="44.1329367" lon="12.2346917"><ele>31.0</ele><time>2026-05-02T08:11:16.443Z</time></trkpt><trkpt lat="44.1330233" lon="12.234745"><ele>31.0</ele><time>2026-05-02T08:11:18.441Z</time></trkpt><trkpt lat="44.1331083" lon="12.2348017"><ele>31.500000000000004</ele><time>2026-05-02T08:11:20.44Z</time></trkpt><trkpt lat="44.13319" lon="12.234855"><ele>32.0</ele><time>2026-05-02T08:11:22.439Z</time></trkpt><trkpt lat="44.133275" lon="12.234895"><ele>32.5</ele><time>2026-05-02T08:11:24.439Z</time></trkpt><trkpt lat="44.1333567" lon="12.2349217"><ele>33.0</ele><time>2026-05-02T08:11:26.44Z</time></trkpt><trkpt lat="44.1334417" lon="12.2349333"><ele>33.5</ele><time>2026-05-02T08:11:28.44Z</time></trkpt><trkpt lat="44.133525" lon="12.2349433"><ele>34.0</ele><time>2026-05-02T08:11:30.44Z</time></trkpt><trkpt lat="44.1336017" lon="12.2349433"><ele>34.0</ele><time>2026-05-02T08:11:32.439Z</time></trkpt><trkpt lat="44.1336767" lon="12.2349933"><ele>34.0</ele><time>2026-05-02T08:11:35.44Z</time></trkpt><trkpt lat="44.1336867" lon="12.23511"><ele>34.0</ele><time>2026-05-02T08:11:38.442Z</time></trkpt><trkpt lat="44.1337017" lon="12.2352133"><ele>34.0</ele><time>2026-05-02T08:11:41.442Z</time></trkpt><trkpt lat="44.13373" lon="12.2353017"><ele>34.0</ele><time>2026-05-02T08:11:44.441Z</time></trkpt><trkpt lat="44.1337767" lon="12.2353783"><ele>34.0</ele><time>2026-05-02T08:11:48.439Z</time></trkpt><trkpt lat="44.1338433" lon="12.235425"><ele>33.99999999999999</ele><time>2026-05-02T08:11:51.439Z</time></trkpt><trkpt lat="44.133925" lon="12.235415"><ele>34.0</ele><time>2026-05-02T08:11:54.44Z</time></trkpt><trkpt lat="44.1339967" lon="12.2353983"><ele>34.0</ele><time>2026-05-02T08:11:57.439Z</time></trkpt><trkpt lat="44.13406" lon="12.2353833"><ele>34.0</ele><time>2026-05-02T08:11:59.439Z</time></trkpt><trkpt lat="44.1341233" lon="12.23537"><ele>34.0</ele><time>2026-05-02T08:12:01.44Z</time></trkpt><trkpt lat="44.1341867" lon="12.2353633"><ele>33.99999999999999</ele><time>2026-05-02T08:12:03.44Z</time></trkpt><trkpt lat="44.1342633" lon="12.235425"><ele>34.0</ele><time>2026-05-02T08:12:06.439Z</time></trkpt><trkpt lat="44.1343417" lon="12.2354817"><ele>34.0</ele><time>2026-05-02T08:12:09.44Z</time></trkpt><trkpt lat="44.134415" lon="12.2355483"><ele>34.0</ele><time>2026-05-02T08:12:12.44Z</time></trkpt><trkpt lat="44.134475" lon="12.235615"><ele>34.0</ele><time>2026-05-02T08:12:15.44Z</time></trkpt><trkpt lat="44.1345367" lon="12.2356783"><ele>34.0</ele><time>2026-05-02T08:12:18.439Z</time></trkpt><trkpt lat="44.1346" lon="12.2357533"><ele>34.0</ele><time>2026-05-02T08:12:21.439Z</time></trkpt><trkpt lat="44.13467" lon="12.2358233"><ele>34.0</ele><time>2026-05-02T08:12:24.44Z</time></trkpt><trkpt lat="44.13474" lon="12.2358817"><ele>33.99999999999999</ele><time>2026-05-02T08:12:27.439Z</time></trkpt><trkpt lat="44.1348067" lon="12.235945"><ele>34.0</ele><time>2026-05-02T08:12:30.439Z</time></trkpt><trkpt lat="44.13487" lon="12.2360133"><ele>34.0</ele><time>2026-05-02T08:12:33.442Z</time></trkpt><trkpt lat="44.13494" lon="12.2360533"><ele>34.0</ele><time>2026-05-02T08:12:36.439Z</time></trkpt><trkpt lat="44.134995" lon="12.2361033"><ele>34.0</ele><time>2026-05-02T08:12:39.439Z</time></trkpt><trkpt lat="44.1350533" lon="12.2361367"><ele>33.99999999999999</ele><time>2026-05-02T08:12:42.439Z</time></trkpt><trkpt lat="44.135105" lon="12.2362"><ele>34.0</ele><time>2026-05-02T08:12:45.44Z</time></trkpt><trkpt lat="44.1351683" lon="12.2362683"><ele>34.14285714285714</ele><time>2026-05-02T08:12:49.439Z</time></trkpt><trkpt lat="44.1352183" lon="12.2363417"><ele>34.285714285714285</ele><time>2026-05-02T08:12:53.439Z</time></trkpt><trkpt lat="44.1352833" lon="12.236405"><ele>34.42857142857143</ele><time>2026-05-02T08:12:57.439Z</time></trkpt><trkpt lat="44.1353333" lon="12.2364733"><ele>34.57142857142857</ele><time>2026-05-02T08:13:01.44Z</time></trkpt><trkpt lat="44.1352933" lon="12.23656"><ele>34.714285714285715</ele><time>2026-05-02T08:13:04.439Z</time></trkpt><trkpt lat="44.13525" lon="12.2366267"><ele>34.857142857142854</ele><time>2026-05-02T08:13:06.44Z</time></trkpt><trkpt lat="44.1351917" lon="12.2366867"><ele>35.0</ele><time>2026-05-02T08:13:09.443Z</time></trkpt><trkpt lat="44.13516" lon="12.2367783"><ele>35.0</ele><time>2026-05-02T08:13:13.44Z</time></trkpt><trkpt lat="44.1351417" lon="12.236865"><ele>35.0</ele><time>2026-05-02T08:13:17.439Z</time></trkpt><trkpt lat="44.13513" lon="12.2369633"><ele>35.0</ele><time>2026-05-02T08:13:20.439Z</time></trkpt><trkpt lat="44.135115" lon="12.2370733"><ele>35.0</ele><time>2026-05-02T08:13:23.44Z</time></trkpt><trkpt lat="44.1350783" lon="12.2371583"><ele>35.0</ele><time>2026-05-02T08:13:27.44Z</time></trkpt><trkpt lat="44.1351583" lon="12.2371683"><ele>35.0</ele><time>2026-05-02T08:13:34.44Z</time></trkpt><trkpt lat="44.1352033" lon="12.2372533"><ele>35.0</ele><time>2026-05-02T08:13:36.439Z</time></trkpt><trkpt lat="44.135255" lon="12.23737"><ele>35.0</ele><time>2026-05-02T08:13:38.44Z</time></trkpt><trkpt lat="44.13532" lon="12.237495"><ele>35.0</ele><time>2026-05-02T08:13:40.441Z</time></trkpt><trkpt lat="44.135365" lon="12.2376033"><ele>35.0</ele><time>2026-05-02T08:13:42.439Z</time></trkpt><trkpt lat="44.1354117" lon="12.2377117"><ele>35.0</ele><time>2026-05-02T08:13:45.441Z</time></trkpt><trkpt lat="44.1355433" lon="12.237715"><ele>35.0</ele><time>2026-05-02T08:13:55.44Z</time></trkpt><trkpt lat="44.1356033" lon="12.2376833"><ele>35.0</ele><time>2026-05-02T08:13:58.439Z</time></trkpt><trkpt lat="44.1356717" lon="12.2376567"><ele>35.0</ele><time>2026-05-02T08:14:03.44Z</time></trkpt><trkpt lat="44.1356067" lon="12.2376567"><ele>35.0</ele><time>2026-05-02T08:14:12.439Z</time></trkpt><trkpt lat="44.135545" lon="12.23771"><ele>35.0</ele><time>2026-05-02T08:14:15.44Z</time></trkpt><trkpt lat="44.13549" lon="12.23776"><ele>35.0</ele><time>2026-05-02T08:14:18.44Z</time></trkpt><trkpt lat="44.1354183" lon="12.2376917"><ele>35.0</ele><time>2026-05-02T08:14:22.443Z</time></trkpt><trkpt lat="44.13537" lon="12.2376117"><ele>35.0</ele><time>2026-05-02T08:14:25.438Z</time></trkpt><trkpt lat="44.1353317" lon="12.23751"><ele>35.0</ele><time>2026-05-02T08:14:28.44Z</time></trkpt><trkpt lat="44.1352883" lon="12.2374117"><ele>35.0</ele><time>2026-05-02T08:14:31.441Z</time></trkpt><trkpt lat="44.1352433" lon="12.237315"><ele>35.0</ele><time>2026-05-02T08:14:34.441Z</time></trkpt><trkpt lat="44.1352033" lon="12.237225"><ele>35.0</ele><time>2026-05-02T08:14:37.441Z</time></trkpt><trkpt lat="44.1351567" lon="12.2371333"><ele>35.0</ele><time>2026-05-02T08:14:40.441Z</time></trkpt><trkpt lat="44.13515" lon="12.23703"><ele>35.0</ele><time>2026-05-02T08:14:43.439Z</time></trkpt><trkpt lat="44.135165" lon="12.236925"><ele>35.0</ele><time>2026-05-02T08:14:46.441Z</time></trkpt><trkpt lat="44.135195" lon="12.2368367"><ele>35.0</ele><time>2026-05-02T08:14:49.44Z</time></trkpt><trkpt lat="44.1352267" lon="12.2369417"><ele>35.0</ele><time>2026-05-02T08:14:55.44Z</time></trkpt><trkpt lat="44.1352317" lon="12.2370517"><ele>35.0</ele><time>2026-05-02T08:14:59.443Z</time></trkpt><trkpt lat="44.1352533" lon="12.2371617"><ele>35.0</ele><time>2026-05-02T08:15:03.442Z</time></trkpt><trkpt lat="44.1352833" lon="12.2372583"><ele>35.0</ele><time>2026-05-02T08:15:06.443Z</time></trkpt><trkpt lat="44.135335" lon="12.2373517"><ele>35.0</ele><time>2026-05-02T08:15:09.441Z</time></trkpt><trkpt lat="44.135385" lon="12.2374333"><ele>35.0</ele><time>2026-05-02T08:15:12.44Z</time></trkpt><trkpt lat="44.13544" lon="12.2375317"><ele>35.0</ele><time>2026-05-02T08:15:15.443Z</time></trkpt><trkpt lat="44.1354933" lon="12.2376233"><ele>35.0</ele><time>2026-05-02T08:15:18.443Z</time></trkpt><trkpt lat="44.1355433" lon="12.23771"><ele>35.0</ele><time>2026-05-02T08:15:21.441Z</time></trkpt><trkpt lat="44.1355867" lon="12.2377867"><ele>35.0</ele><time>2026-05-02T08:15:24.44Z</time></trkpt><trkpt lat="44.135615" lon="12.2378667"><ele>35.0</ele><time>2026-05-02T08:16:16.438Z</time></trkpt><trkpt lat="44.135645" lon="12.2379617"><ele>35.0</ele><time>2026-05-02T08:16:19.439Z</time></trkpt><trkpt lat="44.135695" lon="12.2380417"><ele>35.0</ele><time>2026-05-02T08:16:23.439Z</time></trkpt><trkpt lat="44.1357517" lon="12.2380967"><ele>35.0</ele><time>2026-05-02T08:16:27.438Z</time></trkpt><trkpt lat="44.135785" lon="12.238175"><ele>35.0</ele><time>2026-05-02T08:16:31.442Z</time></trkpt><trkpt lat="44.1357833" lon="12.238285"><ele>35.0</ele><time>2026-05-02T08:16:35.439Z</time></trkpt><trkpt lat="44.1358333" lon="12.2383617"><ele>35.0</ele><time>2026-05-02T08:16:39.44Z</time></trkpt><trkpt lat="44.1359067" lon="12.2383833"><ele>36.285714285714285</ele><time>2026-05-02T08:16:42.44Z</time></trkpt><trkpt lat="44.1359683" lon="12.2384317"><ele>37.57142857142857</ele><time>2026-05-02T08:16:46.437Z</time></trkpt><trkpt lat="44.1360367" lon="12.2384617"><ele>38.85714285714286</ele><time>2026-05-02T08:16:49.441Z</time></trkpt><trkpt lat="44.13611" lon="12.2384867"><ele>40.14285714285714</ele><time>2026-05-02T08:16:53.44Z</time></trkpt><trkpt lat="44.1361867" lon="12.238515"><ele>41.42857142857143</ele><time>2026-05-02T08:16:57.44Z</time></trkpt><trkpt lat="44.136255" lon="12.238535"><ele>42.714285714285715</ele><time>2026-05-02T08:17:01.439Z</time></trkpt><trkpt lat="44.136335" lon="12.2385383"><ele>44.0</ele><time>2026-05-02T08:17:05.44Z</time></trkpt><trkpt lat="44.1364283" lon="12.2385467"><ele>44.0</ele><time>2026-05-02T08:17:08.44Z</time></trkpt><trkpt lat="44.1364933" lon="12.2385667"><ele>44.0</ele><time>2026-05-02T08:17:10.439Z</time></trkpt><trkpt lat="44.1365717" lon="12.2386083"><ele>44.0</ele><time>2026-05-02T08:17:13.44Z</time></trkpt><trkpt lat="44.13665" lon="12.238625"><ele>44.0</ele><time>2026-05-02T08:17:16.438Z</time></trkpt><trkpt lat="44.13671" lon="12.23867"><ele>44.0</ele><time>2026-05-02T08:17:19.442Z</time></trkpt><trkpt lat="44.1367767" lon="12.238705"><ele>44.0</ele><time>2026-05-02T08:17:22.44Z</time></trkpt><trkpt lat="44.1368467" lon="12.2387283"><ele>44.0</ele><time>2026-05-02T08:17:25.438Z</time></trkpt><trkpt lat="44.1369167" lon="12.2387917"><ele>44.33333333333333</ele><time>2026-05-02T08:17:29.439Z</time></trkpt><trkpt lat="44.1369833" lon="12.238865"><ele>44.666666666666664</ele><time>2026-05-02T08:17:32.439Z</time></trkpt><trkpt lat="44.137035" lon="12.2389283"><ele>45.0</ele><time>2026-05-02T08:17:35.44Z</time></trkpt><trkpt lat="44.137095" lon="12.2389683"><ele>45.333333333333336</ele><time>2026-05-02T08:17:39.439Z</time></trkpt><trkpt lat="44.13714" lon="12.2390617"><ele>45.66666666666667</ele><time>2026-05-02T08:17:43.441Z</time></trkpt><trkpt lat="44.137175" lon="12.2391617"><ele>46.0</ele><time>2026-05-02T08:18:03.442Z</time></trkpt><trkpt lat="44.13719" lon="12.2392633"><ele>45.599999999999994</ele><time>2026-05-02T08:18:08.442Z</time></trkpt><trkpt lat="44.1372383" lon="12.2393417"><ele>45.2</ele><time>2026-05-02T08:18:14.442Z</time></trkpt><trkpt lat="44.1372933" lon="12.2395133"><ele>44.8</ele><time>2026-05-02T08:18:29.438Z</time></trkpt><trkpt lat="44.137385" lon="12.2396483"><ele>44.400000000000006</ele><time>2026-05-02T08:18:46.443Z</time></trkpt><trkpt lat="44.1374583" lon="12.239625"><ele>44.0</ele><time>2026-05-02T08:18:56.439Z</time></trkpt><trkpt lat="44.1374933" lon="12.2397067"><ele>44.5</ele><time>2026-05-02T08:19:01.44Z</time></trkpt><trkpt lat="44.1375333" lon="12.23987"><ele>45.0</ele><time>2026-05-02T08:19:14.442Z</time></trkpt><trkpt lat="44.13753" lon="12.23997"><ele>45.5</ele><time>2026-05-02T08:19:19.44Z</time></trkpt><trkpt lat="44.137575" lon="12.24013"><ele>46.0</ele><time>2026-05-02T08:19:40.44Z</time></trkpt><trkpt lat="44.1375667" lon="12.2403467"><ele>46.0</ele><time>2026-05-02T08:19:57.44Z</time></trkpt><trkpt lat="44.1375967" lon="12.240435"><ele>46.0</ele><time>2026-05-02T08:20:02.441Z</time></trkpt><trkpt lat="44.1375933" lon="12.2405317"><ele>46.0</ele><time>2026-05-02T08:20:07.438Z</time></trkpt><trkpt lat="44.13756" lon="12.2406283"><ele>46.0</ele><time>2026-05-02T08:20:12.44Z</time></trkpt><trkpt lat="44.1375417" lon="12.2407133"><ele>46.0</ele><time>2026-05-02T08:20:18.44Z</time></trkpt><trkpt lat="44.1375333" lon="12.2408017"><ele>46.0</ele><time>2026-05-02T08:20:24.44Z</time></trkpt><trkpt lat="44.13753" lon="12.2409067"><ele>46.0</ele><time>2026-05-02T08:20:29.442Z</time></trkpt><trkpt lat="44.1375133" lon="12.2410067"><ele>46.16666666666667</ele><time>2026-05-02T08:20:35.44Z</time></trkpt><trkpt lat="44.1374883" lon="12.2410933"><ele>46.333333333333336</ele><time>2026-05-02T08:20:40.441Z</time></trkpt><trkpt lat="44.137535" lon="12.24116"><ele>46.5</ele><time>2026-05-02T08:20:47.441Z</time></trkpt><trkpt lat="44.1375317" lon="12.2412717"><ele>46.666666666666664</ele><time>2026-05-02T08:20:58.441Z</time></trkpt><trkpt lat="44.137485" lon="12.2414567"><ele>46.83333333333333</ele><time>2026-05-02T08:21:13.444Z</time></trkpt><trkpt lat="44.1374567" lon="12.241545"><ele>47.0</ele><time>2026-05-02T08:21:20.443Z</time></trkpt><trkpt lat="44.1374467" lon="12.2416483"><ele>47.0</ele><time>2026-05-02T08:21:27.441Z</time></trkpt><trkpt lat="44.1374133" lon="12.2417267"><ele>47.0</ele><time>2026-05-02T08:21:32.442Z</time></trkpt><trkpt lat="44.1373667" lon="12.2417967"><ele>47.0</ele><time>2026-05-02T08:21:38.443Z</time></trkpt><trkpt lat="44.1372883" lon="12.2419417"><ele>47.0</ele><time>2026-05-02T08:21:56.442Z</time></trkpt><trkpt lat="44.1372467" lon="12.2421067"><ele>47.0</ele><time>2026-05-02T08:22:12.439Z</time></trkpt><trkpt lat="44.1372283" lon="12.2421917"><ele>47.8</ele><time>2026-05-02T08:22:16.442Z</time></trkpt><trkpt lat="44.13719" lon="12.2422767"><ele>48.6</ele><time>2026-05-02T08:22:20.44Z</time></trkpt><trkpt lat="44.1371133" lon="12.2424033"><ele>49.4</ele><time>2026-05-02T08:22:31.441Z</time></trkpt><trkpt lat="44.13709" lon="12.242495"><ele>50.199999999999996</ele><time>2026-05-02T08:22:38.44Z</time></trkpt><trkpt lat="44.1370067" lon="12.2426167"><ele>51.0</ele><time>2026-05-02T08:22:52.439Z</time></trkpt><trkpt lat="44.1369433" lon="12.2426583"><ele>51.0</ele><time>2026-05-02T08:22:55.439Z</time></trkpt><trkpt lat="44.13684" lon="12.2427417"><ele>51.0</ele><time>2026-05-02T08:23:09.44Z</time></trkpt><trkpt lat="44.1368" lon="12.2428167"><ele>51.0</ele><time>2026-05-02T08:23:15.44Z</time></trkpt><trkpt lat="44.1367467" lon="12.24289"><ele>51.0</ele><time>2026-05-02T08:23:22.439Z</time></trkpt><trkpt lat="44.1367083" lon="12.2429717"><ele>51.0</ele><time>2026-05-02T08:23:28.438Z</time></trkpt><trkpt lat="44.13665" lon="12.2430267"><ele>51.0</ele><time>2026-05-02T08:23:35.442Z</time></trkpt><trkpt lat="44.1367117" lon="12.24312"><ele>50.199999999999996</ele><time>2026-05-02T08:24:39.441Z</time></trkpt><trkpt lat="44.1367483" lon="12.2432733"><ele>49.4</ele><time>2026-05-02T08:25:14.439Z</time></trkpt><trkpt lat="44.136655" lon="12.2432167"><ele>48.6</ele><time>2026-05-02T08:51:41.438Z</time></trkpt><trkpt lat="44.1365533" lon="12.2431567"><ele>47.8</ele><time>2026-05-02T08:52:15.44Z</time></trkpt><trkpt lat="44.1364783" lon="12.243175"><ele>47.0</ele><time>2026-05-02T08:52:20.439Z</time></trkpt><trkpt lat="44.136415" lon="12.2431833"><ele>46.714285714285715</ele><time>2026-05-02T08:52:23.439Z</time></trkpt><trkpt lat="44.13634" lon="12.2432067"><ele>46.42857142857143</ele><time>2026-05-02T08:52:27.44Z</time></trkpt><trkpt lat="44.1362583" lon="12.2432267"><ele>46.14285714285714</ele><time>2026-05-02T08:52:30.439Z</time></trkpt><trkpt lat="44.1361917" lon="12.2432333"><ele>45.85714285714286</ele><time>2026-05-02T08:52:33.441Z</time></trkpt><trkpt lat="44.1361233" lon="12.2432567"><ele>45.57142857142858</ele><time>2026-05-02T08:52:36.44Z</time></trkpt><trkpt lat="44.1360583" lon="12.2432617"><ele>45.285714285714285</ele><time>2026-05-02T08:52:39.441Z</time></trkpt><trkpt lat="44.1359917" lon="12.24326"><ele>45.0</ele><time>2026-05-02T08:52:41.439Z</time></trkpt><trkpt lat="44.1359267" lon="12.2432733"><ele>45.0</ele><time>2026-05-02T08:52:44.44Z</time></trkpt><trkpt lat="44.1358467" lon="12.2432683"><ele>45.0</ele><time>2026-05-02T08:52:47.44Z</time></trkpt><trkpt lat="44.1357817" lon="12.2432433"><ele>45.0</ele><time>2026-05-02T08:52:49.441Z</time></trkpt><trkpt lat="44.1357133" lon="12.2432267"><ele>45.0</ele><time>2026-05-02T08:52:51.439Z</time></trkpt><trkpt lat="44.1356417" lon="12.2432233"><ele>45.0</ele><time>2026-05-02T08:52:53.441Z</time></trkpt><trkpt lat="44.1355517" lon="12.24322"><ele>45.0</ele><time>2026-05-02T08:52:56.44Z</time></trkpt><trkpt lat="44.1354533" lon="12.2432333"><ele>45.0</ele><time>2026-05-02T08:52:58.439Z</time></trkpt><trkpt lat="44.1353883" lon="12.2432667"><ele>45.0</ele><time>2026-05-02T08:52:59.439Z</time></trkpt><trkpt lat="44.135285" lon="12.2433067"><ele>45.0</ele><time>2026-05-02T08:53:01.438Z</time></trkpt><trkpt lat="44.1351833" lon="12.2433517"><ele>45.0</ele><time>2026-05-02T08:53:03.44Z</time></trkpt><trkpt lat="44.13511" lon="12.2433983"><ele>45.0</ele><time>2026-05-02T08:53:05.438Z</time></trkpt><trkpt lat="44.135045" lon="12.2434617"><ele>45.0</ele><time>2026-05-02T08:53:07.439Z</time></trkpt><trkpt lat="44.1349767" lon="12.2435083"><ele>45.0</ele><time>2026-05-02T08:53:09.44Z</time></trkpt><trkpt lat="44.1348933" lon="12.2435017"><ele>45.0</ele><time>2026-05-02T08:53:11.439Z</time></trkpt><trkpt lat="44.1348117" lon="12.243505"><ele>45.0</ele><time>2026-05-02T08:53:13.438Z</time></trkpt><trkpt lat="44.1347433" lon="12.2435283"><ele>45.0</ele><time>2026-05-02T08:53:15.439Z</time></trkpt><trkpt lat="44.1347" lon="12.243605"><ele>45.0</ele><time>2026-05-02T08:53:17.44Z</time></trkpt><trkpt lat="44.1346867" lon="12.2436917"><ele>45.0</ele><time>2026-05-02T08:53:20.44Z</time></trkpt><trkpt lat="44.134605" lon="12.2437317"><ele>44.833333333333336</ele><time>2026-05-02T08:53:42.442Z</time></trkpt><trkpt lat="44.13455" lon="12.243795"><ele>44.666666666666664</ele><time>2026-05-02T08:53:45.443Z</time></trkpt><trkpt lat="44.1345083" lon="12.243885"><ele>44.5</ele><time>2026-05-02T08:53:48.44Z</time></trkpt><trkpt lat="44.1344583" lon="12.2439467"><ele>44.33333333333333</ele><time>2026-05-02T08:53:50.44Z</time></trkpt><trkpt lat="44.1344033" lon="12.2440267"><ele>44.166666666666664</ele><time>2026-05-02T08:53:52.441Z</time></trkpt><trkpt lat="44.1343533" lon="12.2441283"><ele>44.0</ele><time>2026-05-02T08:53:54.442Z</time></trkpt><trkpt lat="44.1343017" lon="12.2442383"><ele>44.0</ele><time>2026-05-02T08:53:56.442Z</time></trkpt><trkpt lat="44.1342317" lon="12.24432"><ele>44.0</ele><time>2026-05-02T08:53:58.441Z</time></trkpt><trkpt lat="44.1341367" lon="12.2443817"><ele>44.0</ele><time>2026-05-02T08:54:00.441Z</time></trkpt><trkpt lat="44.1340267" lon="12.2444183"><ele>44.0</ele><time>2026-05-02T08:54:02.44Z</time></trkpt><trkpt lat="44.133915" lon="12.244445"><ele>44.0</ele><time>2026-05-02T08:54:04.443Z</time></trkpt><trkpt lat="44.1338133" lon="12.244475"><ele>44.0</ele><time>2026-05-02T08:54:06.443Z</time></trkpt><trkpt lat="44.13377" lon="12.244575"><ele>44.0</ele><time>2026-05-02T08:54:08.44Z</time></trkpt><trkpt lat="44.1337533" lon="12.244685"><ele>44.0</ele><time>2026-05-02T08:54:10.442Z</time></trkpt><trkpt lat="44.13369" lon="12.24471"><ele>44.0</ele><time>2026-05-02T08:54:13.439Z</time></trkpt><trkpt lat="44.1336133" lon="12.2447083"><ele>44.0</ele><time>2026-05-02T08:54:16.438Z</time></trkpt><trkpt lat="44.1334833" lon="12.2447133"><ele>44.0</ele><time>2026-05-02T08:54:27.44Z</time></trkpt><trkpt lat="44.13342" lon="12.2447117"><ele>44.0</ele><time>2026-05-02T08:54:29.44Z</time></trkpt><trkpt lat="44.13333" lon="12.2447167"><ele>44.0</ele><time>2026-05-02T08:54:31.44Z</time></trkpt><trkpt lat="44.1332517" lon="12.2447133"><ele>44.0</ele><time>2026-05-02T08:54:33.44Z</time></trkpt><trkpt lat="44.1331883" lon="12.2447083"><ele>44.0</ele><time>2026-05-02T08:54:35.44Z</time></trkpt><trkpt lat="44.1330667" lon="12.2447983"><ele>44.0</ele><time>2026-05-02T08:54:44.439Z</time></trkpt><trkpt lat="44.1330283" lon="12.2448967"><ele>44.0</ele><time>2026-05-02T08:54:47.439Z</time></trkpt><trkpt lat="44.1330333" lon="12.2450217"><ele>44.0</ele><time>2026-05-02T08:54:50.441Z</time></trkpt><trkpt lat="44.1330333" lon="12.24514"><ele>44.0</ele><time>2026-05-02T08:54:52.442Z</time></trkpt><trkpt lat="44.133035" lon="12.24526"><ele>44.0</ele><time>2026-05-02T08:54:54.442Z</time></trkpt><trkpt lat="44.1330367" lon="12.2453867"><ele>44.0</ele><time>2026-05-02T08:54:56.443Z</time></trkpt><trkpt lat="44.1330367" lon="12.2455133"><ele>44.0</ele><time>2026-05-02T08:54:58.442Z</time></trkpt><trkpt lat="44.1330167" lon="12.2456017"><ele>43.666666666666664</ele><time>2026-05-02T08:55:00.442Z</time></trkpt><trkpt lat="44.13294" lon="12.245655"><ele>43.33333333333333</ele><time>2026-05-02T08:55:03.44Z</time></trkpt><trkpt lat="44.1328817" lon="12.2457333"><ele>43.0</ele><time>2026-05-02T08:55:06.44Z</time></trkpt><trkpt lat="44.1328333" lon="12.245835"><ele>42.666666666666664</ele><time>2026-05-02T08:55:09.439Z</time></trkpt><trkpt lat="44.1327833" lon="12.245905"><ele>42.333333333333336</ele><time>2026-05-02T08:55:11.442Z</time></trkpt><trkpt lat="44.1327233" lon="12.2459783"><ele>42.0</ele><time>2026-05-02T08:55:13.439Z</time></trkpt><trkpt lat="44.1326533" lon="12.2460333"><ele>42.0</ele><time>2026-05-02T08:55:15.44Z</time></trkpt><trkpt lat="44.132575" lon="12.2460733"><ele>42.0</ele><time>2026-05-02T08:55:17.44Z</time></trkpt><trkpt lat="44.1325017" lon="12.2461317"><ele>42.0</ele><time>2026-05-02T08:55:19.44Z</time></trkpt><trkpt lat="44.13243" lon="12.2462067"><ele>42.0</ele><time>2026-05-02T08:55:21.44Z</time></trkpt><trkpt lat="44.1323667" lon="12.246295"><ele>42.0</ele><time>2026-05-02T08:55:23.44Z</time></trkpt><trkpt lat="44.1323067" lon="12.2464"><ele>42.0</ele><time>2026-05-02T08:55:25.44Z</time></trkpt><trkpt lat="44.1322417" lon="12.2464833"><ele>41.8</ele><time>2026-05-02T08:55:27.44Z</time></trkpt><trkpt lat="44.132165" lon="12.2465467"><ele>41.6</ele><time>2026-05-02T08:55:29.44Z</time></trkpt><trkpt lat="44.13208" lon="12.2466067"><ele>41.4</ele><time>2026-05-02T08:55:31.439Z</time></trkpt><trkpt lat="44.132" lon="12.2466717"><ele>41.199999999999996</ele><time>2026-05-02T08:55:33.443Z</time></trkpt><trkpt lat="44.1319217" lon="12.2467533"><ele>41.0</ele><time>2026-05-02T08:55:35.44Z</time></trkpt><trkpt lat="44.131835" lon="12.246825"><ele>41.0</ele><time>2026-05-02T08:55:37.442Z</time></trkpt><trkpt lat="44.1317467" lon="12.2469"><ele>41.0</ele><time>2026-05-02T08:55:39.443Z</time></trkpt><trkpt lat="44.1316567" lon="12.2469417"><ele>41.0</ele><time>2026-05-02T08:55:41.439Z</time></trkpt><trkpt lat="44.1315667" lon="12.246985"><ele>41.0</ele><time>2026-05-02T08:55:43.442Z</time></trkpt><trkpt lat="44.1314783" lon="12.2470133"><ele>41.0</ele><time>2026-05-02T08:55:45.442Z</time></trkpt><trkpt lat="44.1313833" lon="12.2470367"><ele>41.599999999999994</ele><time>2026-05-02T08:55:47.44Z</time></trkpt><trkpt lat="44.1312867" lon="12.2470667"><ele>42.2</ele><time>2026-05-02T08:55:49.441Z</time></trkpt><trkpt lat="44.1311867" lon="12.2470967"><ele>42.8</ele><time>2026-05-02T08:55:51.442Z</time></trkpt><trkpt lat="44.1310833" lon="12.24713"><ele>43.400000000000006</ele><time>2026-05-02T08:55:53.439Z</time></trkpt><trkpt lat="44.130985" lon="12.2471517"><ele>44.0</ele><time>2026-05-02T08:55:55.442Z</time></trkpt><trkpt lat="44.130885" lon="12.247175"><ele>44.0</ele><time>2026-05-02T08:55:57.443Z</time></trkpt><trkpt lat="44.130785" lon="12.2471883"><ele>44.0</ele><time>2026-05-02T08:55:59.442Z</time></trkpt><trkpt lat="44.130685" lon="12.2472067"><ele>44.0</ele><time>2026-05-02T08:56:01.44Z</time></trkpt><trkpt lat="44.1305833" lon="12.2472233"><ele>44.0</ele><time>2026-05-02T08:56:03.441Z</time></trkpt><trkpt lat="44.130485" lon="12.2472333"><ele>44.0</ele><time>2026-05-02T08:56:05.44Z</time></trkpt><trkpt lat="44.1303917" lon="12.2472317"><ele>44.2</ele><time>2026-05-02T08:56:07.442Z</time></trkpt><trkpt lat="44.1303033" lon="12.247235"><ele>44.400000000000006</ele><time>2026-05-02T08:56:09.439Z</time></trkpt><trkpt lat="44.1302133" lon="12.247255"><ele>44.6</ele><time>2026-05-02T08:56:11.439Z</time></trkpt><trkpt lat="44.1301283" lon="12.247275"><ele>44.8</ele><time>2026-05-02T08:56:13.439Z</time></trkpt><trkpt lat="44.1300383" lon="12.2473133"><ele>45.0</ele><time>2026-05-02T08:56:15.439Z</time></trkpt><trkpt lat="44.129945" lon="12.2473217"><ele>45.2</ele><time>2026-05-02T08:56:17.439Z</time></trkpt><trkpt lat="44.129855" lon="12.2473333"><ele>45.4</ele><time>2026-05-02T08:56:19.438Z</time></trkpt><trkpt lat="44.1297583" lon="12.2473233"><ele>45.599999999999994</ele><time>2026-05-02T08:56:21.442Z</time></trkpt><trkpt lat="44.1296667" lon="12.2472967"><ele>45.8</ele><time>2026-05-02T08:56:23.438Z</time></trkpt><trkpt lat="44.1295817" lon="12.2472783"><ele>46.0</ele><time>2026-05-02T08:56:25.438Z</time></trkpt><trkpt lat="44.12949" lon="12.2472667"><ele>46.0</ele><time>2026-05-02T08:56:27.44Z</time></trkpt><trkpt lat="44.1293883" lon="12.2472717"><ele>46.0</ele><time>2026-05-02T08:56:29.44Z</time></trkpt><trkpt lat="44.1292967" lon="12.2472733"><ele>46.0</ele><time>2026-05-02T08:56:31.44Z</time></trkpt><trkpt lat="44.1292017" lon="12.2472883"><ele>46.0</ele><time>2026-05-02T08:56:33.438Z</time></trkpt><trkpt lat="44.1290867" lon="12.2473017"><ele>46.0</ele><time>2026-05-02T08:56:35.439Z</time></trkpt><trkpt lat="44.1289867" lon="12.2472817"><ele>46.0</ele><time>2026-05-02T08:56:37.442Z</time></trkpt><trkpt lat="44.12889" lon="12.24724"><ele>46.0</ele><time>2026-05-02T08:56:39.441Z</time></trkpt><trkpt lat="44.12882" lon="12.247155"><ele>46.0</ele><time>2026-05-02T08:56:41.441Z</time></trkpt><trkpt lat="44.1287933" lon="12.2470333"><ele>46.0</ele><time>2026-05-02T08:56:43.44Z</time></trkpt><trkpt lat="44.1287967" lon="12.2468833"><ele>46.0</ele><time>2026-05-02T08:56:45.44Z</time></trkpt><trkpt lat="44.128815" lon="12.2467467"><ele>46.0</ele><time>2026-05-02T08:56:47.441Z</time></trkpt><trkpt lat="44.1288417" lon="12.2466267"><ele>46.0</ele><time>2026-05-02T08:56:49.438Z</time></trkpt><trkpt lat="44.1288633" lon="12.2465"><ele>46.0</ele><time>2026-05-02T08:56:51.442Z</time></trkpt><trkpt lat="44.1288733" lon="12.246365"><ele>46.0</ele><time>2026-05-02T08:56:53.441Z</time></trkpt><trkpt lat="44.1288633" lon="12.2462267"><ele>46.0</ele><time>2026-05-02T08:56:55.439Z</time></trkpt><trkpt lat="44.1288583" lon="12.2460933"><ele>46.0</ele><time>2026-05-02T08:56:57.44Z</time></trkpt><trkpt lat="44.12884" lon="12.2459633"><ele>46.0</ele><time>2026-05-02T08:56:59.439Z</time></trkpt><trkpt lat="44.1287967" lon="12.2458517"><ele>46.0</ele><time>2026-05-02T08:57:01.438Z</time></trkpt><trkpt lat="44.1287317" lon="12.24575"><ele>46.0</ele><time>2026-05-02T08:57:03.44Z</time></trkpt><trkpt lat="44.1286583" lon="12.245655"><ele>46.0</ele><time>2026-05-02T08:57:05.44Z</time></trkpt><trkpt lat="44.1285883" lon="12.2455633"><ele>46.16666666666667</ele><time>2026-05-02T08:57:07.44Z</time></trkpt><trkpt lat="44.1285283" lon="12.245485"><ele>46.333333333333336</ele><time>2026-05-02T08:57:09.44Z</time></trkpt><trkpt lat="44.128455" lon="12.2454167"><ele>46.5</ele><time>2026-05-02T08:57:11.439Z</time></trkpt><trkpt lat="44.12838" lon="12.24534"><ele>46.666666666666664</ele><time>2026-05-02T08:57:13.439Z</time></trkpt><trkpt lat="44.1283" lon="12.2453283"><ele>46.83333333333333</ele><time>2026-05-02T08:57:15.44Z</time></trkpt><trkpt lat="44.1282" lon="12.2453317"><ele>47.0</ele><time>2026-05-02T08:57:17.442Z</time></trkpt><trkpt lat="44.1280967" lon="12.24533"><ele>47.2</ele><time>2026-05-02T08:57:19.442Z</time></trkpt><trkpt lat="44.1280017" lon="12.2453267"><ele>47.400000000000006</ele><time>2026-05-02T08:57:21.44Z</time></trkpt><trkpt lat="44.1279" lon="12.2453333"><ele>47.599999999999994</ele><time>2026-05-02T08:57:23.439Z</time></trkpt><trkpt lat="44.1278017" lon="12.2453433"><ele>47.8</ele><time>2026-05-02T08:57:25.439Z</time></trkpt><trkpt lat="44.1277017" lon="12.2453533"><ele>48.0</ele><time>2026-05-02T08:57:27.441Z</time></trkpt><trkpt lat="44.1275983" lon="12.245345"><ele>48.0</ele><time>2026-05-02T08:57:29.442Z</time></trkpt><trkpt lat="44.12751" lon="12.2453133"><ele>48.0</ele><time>2026-05-02T08:57:31.442Z</time></trkpt><trkpt lat="44.1274317" lon="12.2452617"><ele>48.0</ele><time>2026-05-02T08:57:33.442Z</time></trkpt><trkpt lat="44.12736" lon="12.2451917"><ele>48.0</ele><time>2026-05-02T08:57:35.442Z</time></trkpt><trkpt lat="44.12729" lon="12.2451017"><ele>48.0</ele><time>2026-05-02T08:57:37.442Z</time></trkpt><trkpt lat="44.1272233" lon="12.2450017"><ele>48.166666666666664</ele><time>2026-05-02T08:57:39.442Z</time></trkpt><trkpt lat="44.1271583" lon="12.244925"><ele>48.33333333333333</ele><time>2026-05-02T08:57:41.441Z</time></trkpt><trkpt lat="44.1270817" lon="12.2448883"><ele>48.5</ele><time>2026-05-02T08:57:43.439Z</time></trkpt><trkpt lat="44.1269883" lon="12.2448967"><ele>48.666666666666664</ele><time>2026-05-02T08:57:45.443Z</time></trkpt><trkpt lat="44.126895" lon="12.2449017"><ele>48.83333333333333</ele><time>2026-05-02T08:57:47.44Z</time></trkpt><trkpt lat="44.1268133" lon="12.2449133"><ele>49.0</ele><time>2026-05-02T08:57:49.441Z</time></trkpt><trkpt lat="44.1267517" lon="12.2448867"><ele>48.99999999999999</ele><time>2026-05-02T08:57:51.44Z</time></trkpt><trkpt lat="44.1267283" lon="12.244805"><ele>49.0</ele><time>2026-05-02T08:57:54.441Z</time></trkpt><trkpt lat="44.126675" lon="12.24473"><ele>49.0</ele><time>2026-05-02T08:57:59.441Z</time></trkpt><trkpt lat="44.1266117" lon="12.2447367"><ele>49.0</ele><time>2026-05-02T08:58:01.44Z</time></trkpt><trkpt lat="44.1265533" lon="12.2446667"><ele>48.99999999999999</ele><time>2026-05-02T08:58:04.442Z</time></trkpt><trkpt lat="44.1264883" lon="12.24458"><ele>49.0</ele><time>2026-05-02T08:58:06.443Z</time></trkpt><trkpt lat="44.126395" lon="12.2445383"><ele>49.33333333333333</ele><time>2026-05-02T08:58:08.439Z</time></trkpt><trkpt lat="44.1263067" lon="12.24451"><ele>49.666666666666664</ele><time>2026-05-02T08:58:10.44Z</time></trkpt><trkpt lat="44.1262333" lon="12.2445117"><ele>50.0</ele><time>2026-05-02T08:58:12.44Z</time></trkpt><trkpt lat="44.126155" lon="12.244525"><ele>50.33333333333333</ele><time>2026-05-02T08:58:15.44Z</time></trkpt><trkpt lat="44.1260583" lon="12.2445467"><ele>50.666666666666664</ele><time>2026-05-02T08:58:18.44Z</time></trkpt><trkpt lat="44.1259817" lon="12.2445383"><ele>51.0</ele><time>2026-05-02T08:58:20.44Z</time></trkpt><trkpt lat="44.1259067" lon="12.244525"><ele>51.0</ele><time>2026-05-02T08:58:22.439Z</time></trkpt><trkpt lat="44.125815" lon="12.2445217"><ele>51.0</ele><time>2026-05-02T08:58:24.44Z</time></trkpt><trkpt lat="44.1257183" lon="12.24452"><ele>51.0</ele><time>2026-05-02T08:58:26.439Z</time></trkpt><trkpt lat="44.1256167" lon="12.2445283"><ele>51.0</ele><time>2026-05-02T08:58:28.438Z</time></trkpt><trkpt lat="44.12553" lon="12.2445533"><ele>51.0</ele><time>2026-05-02T08:58:30.439Z</time></trkpt><trkpt lat="44.12543" lon="12.2445517"><ele>50.666666666666664</ele><time>2026-05-02T08:58:32.442Z</time></trkpt><trkpt lat="44.1253033" lon="12.24454"><ele>50.33333333333333</ele><time>2026-05-02T08:58:34.439Z</time></trkpt><trkpt lat="44.1252317" lon="12.24453"><ele>50.0</ele><time>2026-05-02T08:58:35.443Z</time></trkpt><trkpt lat="44.1251683" lon="12.244515"><ele>49.666666666666664</ele><time>2026-05-02T08:58:36.443Z</time></trkpt><trkpt lat="44.125105" lon="12.2444983"><ele>49.33333333333333</ele><time>2026-05-02T08:58:37.442Z</time></trkpt><trkpt lat="44.1249867" lon="12.2444583"><ele>49.0</ele><time>2026-05-02T08:58:39.442Z</time></trkpt><trkpt lat="44.12488" lon="12.2444333"><ele>49.0</ele><time>2026-05-02T08:58:41.438Z</time></trkpt><trkpt lat="44.124785" lon="12.244395"><ele>49.0</ele><time>2026-05-02T08:58:43.443Z</time></trkpt><trkpt lat="44.1246967" lon="12.2443383"><ele>49.0</ele><time>2026-05-02T08:58:45.442Z</time></trkpt><trkpt lat="44.12461" lon="12.244265"><ele>49.0</ele><time>2026-05-02T08:58:47.442Z</time></trkpt><trkpt lat="44.12453" lon="12.2441867"><ele>49.0</ele><time>2026-05-02T08:58:49.44Z</time></trkpt><trkpt lat="44.12444" lon="12.2441167"><ele>48.99999999999999</ele><time>2026-05-02T08:58:51.44Z</time></trkpt><trkpt lat="44.1243517" lon="12.244045"><ele>49.0</ele><time>2026-05-02T08:58:53.441Z</time></trkpt><trkpt lat="44.1242717" lon="12.2439833"><ele>49.0</ele><time>2026-05-02T08:58:55.443Z</time></trkpt><trkpt lat="44.1242217" lon="12.2439167"><ele>49.0</ele><time>2026-05-02T08:58:57.441Z</time></trkpt><trkpt lat="44.1241733" lon="12.2438417"><ele>48.99999999999999</ele><time>2026-05-02T08:59:00.443Z</time></trkpt><trkpt lat="44.1241467" lon="12.243755"><ele>49.0</ele><time>2026-05-02T08:59:03.442Z</time></trkpt><trkpt lat="44.1241317" lon="12.2436417"><ele>49.166666666666664</ele><time>2026-05-02T08:59:06.443Z</time></trkpt><trkpt lat="44.1241067" lon="12.2435317"><ele>49.33333333333333</ele><time>2026-05-02T08:59:09.443Z</time></trkpt><trkpt lat="44.1240683" lon="12.243435"><ele>49.5</ele><time>2026-05-02T08:59:12.443Z</time></trkpt><trkpt lat="44.1239933" lon="12.2434117"><ele>49.66666666666667</ele><time>2026-05-02T08:59:15.443Z</time></trkpt><trkpt lat="44.1239283" lon="12.243385"><ele>49.833333333333336</ele><time>2026-05-02T08:59:19.44Z</time></trkpt><trkpt lat="44.1238683" lon="12.24333"><ele>50.0</ele><time>2026-05-02T08:59:22.438Z</time></trkpt><trkpt lat="44.1237967" lon="12.2433133"><ele>50.16666666666667</ele><time>2026-05-02T08:59:24.441Z</time></trkpt><trkpt lat="44.1237283" lon="12.2432783"><ele>50.333333333333336</ele><time>2026-05-02T08:59:26.439Z</time></trkpt><trkpt lat="44.1236433" lon="12.2432533"><ele>50.5</ele><time>2026-05-02T08:59:28.44Z</time></trkpt><trkpt lat="44.1235533" lon="12.2432333"><ele>50.66666666666667</ele><time>2026-05-02T08:59:30.443Z</time></trkpt><trkpt lat="44.1234717" lon="12.2432083"><ele>50.833333333333336</ele><time>2026-05-02T08:59:32.442Z</time></trkpt><trkpt lat="44.123385" lon="12.2431783"><ele>51.0</ele><time>2026-05-02T08:59:34.442Z</time></trkpt><trkpt lat="44.1233017" lon="12.2431533"><ele>51.0</ele><time>2026-05-02T08:59:36.443Z</time></trkpt><trkpt lat="44.1232117" lon="12.2431217"><ele>51.0</ele><time>2026-05-02T08:59:38.442Z</time></trkpt><trkpt lat="44.1231233" lon="12.2430883"><ele>51.0</ele><time>2026-05-02T08:59:40.443Z</time></trkpt><trkpt lat="44.1230317" lon="12.2430483"><ele>51.0</ele><time>2026-05-02T08:59:42.439Z</time></trkpt><trkpt lat="44.1229417" lon="12.2430067"><ele>51.0</ele><time>2026-05-02T08:59:44.44Z</time></trkpt><trkpt lat="44.1228367" lon="12.242975"><ele>51.0</ele><time>2026-05-02T08:59:46.443Z</time></trkpt><trkpt lat="44.1227267" lon="12.242945"><ele>51.0</ele><time>2026-05-02T08:59:48.44Z</time></trkpt><trkpt lat="44.1226283" lon="12.24292"><ele>51.0</ele><time>2026-05-02T08:59:50.44Z</time></trkpt><trkpt lat="44.12253" lon="12.24288"><ele>51.0</ele><time>2026-05-02T08:59:52.44Z</time></trkpt><trkpt lat="44.1224283" lon="12.2428417"><ele>51.0</ele><time>2026-05-02T08:59:54.44Z</time></trkpt><trkpt lat="44.12232" lon="12.2428017"><ele>51.199999999999996</ele><time>2026-05-02T08:59:56.443Z</time></trkpt><trkpt lat="44.1222183" lon="12.2427517"><ele>51.4</ele><time>2026-05-02T08:59:58.44Z</time></trkpt><trkpt lat="44.1221167" lon="12.2426933"><ele>51.6</ele><time>2026-05-02T09:00:00.44Z</time></trkpt><trkpt lat="44.1220283" lon="12.24263"><ele>51.8</ele><time>2026-05-02T09:00:02.439Z</time></trkpt><trkpt lat="44.1219417" lon="12.24256"><ele>52.0</ele><time>2026-05-02T09:00:04.441Z</time></trkpt><trkpt lat="44.1218483" lon="12.24249"><ele>52.0</ele><time>2026-05-02T09:00:06.439Z</time></trkpt><trkpt lat="44.1217483" lon="12.24243"><ele>52.0</ele><time>2026-05-02T09:00:08.439Z</time></trkpt><trkpt lat="44.121645" lon="12.2423633"><ele>52.0</ele><time>2026-05-02T09:00:10.439Z</time></trkpt><trkpt lat="44.121545" lon="12.242275"><ele>52.0</ele><time>2026-05-02T09:00:12.443Z</time></trkpt><trkpt lat="44.1214383" lon="12.2422083"><ele>52.400000000000006</ele><time>2026-05-02T09:00:14.443Z</time></trkpt><trkpt lat="44.121335" lon="12.24214"><ele>52.800000000000004</ele><time>2026-05-02T09:00:16.444Z</time></trkpt><trkpt lat="44.121235" lon="12.2420917"><ele>53.2</ele><time>2026-05-02T09:00:18.439Z</time></trkpt><trkpt lat="44.1211367" lon="12.2420367"><ele>53.6</ele><time>2026-05-02T09:00:20.439Z</time></trkpt><trkpt lat="44.121035" lon="12.24199"><ele>54.0</ele><time>2026-05-02T09:00:22.439Z</time></trkpt><trkpt lat="44.1209283" lon="12.2419417"><ele>54.0</ele><time>2026-05-02T09:00:24.44Z</time></trkpt><trkpt lat="44.1208217" lon="12.2418983"><ele>54.00000000000001</ele><time>2026-05-02T09:00:26.441Z</time></trkpt><trkpt lat="44.1207183" lon="12.2418583"><ele>54.00000000000001</ele><time>2026-05-02T09:00:28.444Z</time></trkpt><trkpt lat="44.1206133" lon="12.24182"><ele>54.0</ele><time>2026-05-02T09:00:30.44Z</time></trkpt><trkpt lat="44.120515" lon="12.2417883"><ele>54.0</ele><time>2026-05-02T09:00:32.442Z</time></trkpt><trkpt lat="44.12041" lon="12.2417467"><ele>54.2</ele><time>2026-05-02T09:00:34.442Z</time></trkpt><trkpt lat="44.1203117" lon="12.2417"><ele>54.400000000000006</ele><time>2026-05-02T09:00:36.443Z</time></trkpt><trkpt lat="44.120205" lon="12.2416567"><ele>54.6</ele><time>2026-05-02T09:00:38.44Z</time></trkpt><trkpt lat="44.1200967" lon="12.2416217"><ele>54.8</ele><time>2026-05-02T09:00:40.442Z</time></trkpt><trkpt lat="44.1199867" lon="12.2415783"><ele>55.0</ele><time>2026-05-02T09:00:42.443Z</time></trkpt><trkpt lat="44.1198817" lon="12.2415267"><ele>55.0</ele><time>2026-05-02T09:00:44.443Z</time></trkpt><trkpt lat="44.1197783" lon="12.2414883"><ele>55.0</ele><time>2026-05-02T09:00:46.445Z</time></trkpt><trkpt lat="44.1196767" lon="12.2414467"><ele>55.0</ele><time>2026-05-02T09:00:48.44Z</time></trkpt><trkpt lat="44.119575" lon="12.2414033"><ele>55.0</ele><time>2026-05-02T09:00:50.442Z</time></trkpt><trkpt lat="44.119465" lon="12.241365"><ele>55.0</ele><time>2026-05-02T09:00:52.439Z</time></trkpt><trkpt lat="44.1193683" lon="12.2413183"><ele>54.99999999999999</ele><time>2026-05-02T09:00:54.439Z</time></trkpt><trkpt lat="44.1192767" lon="12.2412783"><ele>55.0</ele><time>2026-05-02T09:00:56.442Z</time></trkpt><trkpt lat="44.1191917" lon="12.2412367"><ele>55.0</ele><time>2026-05-02T09:00:58.443Z</time></trkpt><trkpt lat="44.1191217" lon="12.2411967"><ele>55.0</ele><time>2026-05-02T09:01:00.439Z</time></trkpt><trkpt lat="44.1190417" lon="12.24115"><ele>54.99999999999999</ele><time>2026-05-02T09:01:03.441Z</time></trkpt><trkpt lat="44.119" lon="12.2412217"><ele>55.0</ele><time>2026-05-02T09:01:21.439Z</time></trkpt><trkpt lat="44.1190583" lon="12.2412933"><ele>54.99999999999999</ele><time>2026-05-02T09:01:24.44Z</time></trkpt><trkpt lat="44.119115" lon="12.241355"><ele>55.0</ele><time>2026-05-02T09:01:26.438Z</time></trkpt><trkpt lat="44.1191417" lon="12.2414483"><ele>55.0</ele><time>2026-05-02T09:01:28.442Z</time></trkpt><trkpt lat="44.1191333" lon="12.2415517"><ele>55.0</ele><time>2026-05-02T09:01:30.439Z</time></trkpt><trkpt lat="44.11911" lon="12.241645"><ele>54.99999999999999</ele><time>2026-05-02T09:01:32.44Z</time></trkpt><trkpt lat="44.1190867" lon="12.24175"><ele>55.0</ele><time>2026-05-02T09:01:34.442Z</time></trkpt><trkpt lat="44.119055" lon="12.2418583"><ele>55.49999999999999</ele><time>2026-05-02T09:01:36.439Z</time></trkpt><trkpt lat="44.1190133" lon="12.2419717"><ele>56.0</ele><time>2026-05-02T09:01:38.441Z</time></trkpt><trkpt lat="44.1189833" lon="12.242085"><ele>56.5</ele><time>2026-05-02T09:01:40.439Z</time></trkpt><trkpt lat="44.11895" lon="12.2421917"><ele>57.0</ele><time>2026-05-02T09:01:42.441Z</time></trkpt><trkpt lat="44.1189233" lon="12.242295"><ele>57.49999999999999</ele><time>2026-05-02T09:01:44.443Z</time></trkpt><trkpt lat="44.1188983" lon="12.2423917"><ele>58.0</ele><time>2026-05-02T09:01:46.442Z</time></trkpt><trkpt lat="44.1188733" lon="12.2424883"><ele>58.166666666666664</ele><time>2026-05-02T09:01:48.443Z</time></trkpt><trkpt lat="44.1188533" lon="12.242585"><ele>58.33333333333333</ele><time>2026-05-02T09:01:50.441Z</time></trkpt><trkpt lat="44.1188217" lon="12.2426783"><ele>58.5</ele><time>2026-05-02T09:01:52.442Z</time></trkpt><trkpt lat="44.1187983" lon="12.2427717"><ele>58.66666666666667</ele><time>2026-05-02T09:01:54.442Z</time></trkpt><trkpt lat="44.1187733" lon="12.2428717"><ele>58.833333333333336</ele><time>2026-05-02T09:01:56.442Z</time></trkpt><trkpt lat="44.118735" lon="12.243"><ele>59.0</ele><time>2026-05-02T09:01:59.44Z</time></trkpt><trkpt lat="44.1187017" lon="12.24309"><ele>59.16666666666667</ele><time>2026-05-02T09:02:01.44Z</time></trkpt><trkpt lat="44.1186667" lon="12.243195"><ele>59.333333333333336</ele><time>2026-05-02T09:02:03.44Z</time></trkpt><trkpt lat="44.1186333" lon="12.2433033"><ele>59.5</ele><time>2026-05-02T09:02:05.442Z</time></trkpt><trkpt lat="44.1186117" lon="12.2434117"><ele>59.66666666666667</ele><time>2026-05-02T09:02:07.44Z</time></trkpt><trkpt lat="44.118585" lon="12.2435267"><ele>59.833333333333336</ele><time>2026-05-02T09:02:09.441Z</time></trkpt><trkpt lat="44.1185517" lon="12.2436367"><ele>60.0</ele><time>2026-05-02T09:02:11.439Z</time></trkpt><trkpt lat="44.1185167" lon="12.2437383"><ele>60.0</ele><time>2026-05-02T09:02:13.443Z</time></trkpt><trkpt lat="44.1184833" lon="12.2438517"><ele>60.0</ele><time>2026-05-02T09:02:15.443Z</time></trkpt><trkpt lat="44.1184517" lon="12.2439717"><ele>60.0</ele><time>2026-05-02T09:02:17.44Z</time></trkpt><trkpt lat="44.1184133" lon="12.2441"><ele>60.0</ele><time>2026-05-02T09:02:19.443Z</time></trkpt><trkpt lat="44.118375" lon="12.244235"><ele>60.0</ele><time>2026-05-02T09:02:21.442Z</time></trkpt><trkpt lat="44.1183333" lon="12.2443767"><ele>59.2</ele><time>2026-05-02T09:02:23.438Z</time></trkpt><trkpt lat="44.1182933" lon="12.244515"><ele>58.4</ele><time>2026-05-02T09:02:25.442Z</time></trkpt><trkpt lat="44.1182333" lon="12.2446367"><ele>57.599999999999994</ele><time>2026-05-02T09:02:27.443Z</time></trkpt><trkpt lat="44.1181567" lon="12.244745"><ele>56.8</ele><time>2026-05-02T09:02:29.439Z</time></trkpt><trkpt lat="44.1180833" lon="12.2448517"><ele>56.0</ele><time>2026-05-02T09:02:31.438Z</time></trkpt><trkpt lat="44.118015" lon="12.2449683"><ele>58.0</ele><time>2026-05-02T09:02:33.44Z</time></trkpt><trkpt lat="44.1179583" lon="12.245085"><ele>59.99999999999999</ele><time>2026-05-02T09:02:35.444Z</time></trkpt><trkpt lat="44.1179067" lon="12.2452033"><ele>61.99999999999999</ele><time>2026-05-02T09:02:37.438Z</time></trkpt><trkpt lat="44.1178533" lon="12.2453117"><ele>64.0</ele><time>2026-05-02T09:02:39.442Z</time></trkpt><trkpt lat="44.1178083" lon="12.2454167"><ele>66.0</ele><time>2026-05-02T09:02:41.438Z</time></trkpt><trkpt lat="44.11776" lon="12.2455283"><ele>66.0</ele><time>2026-05-02T09:02:43.443Z</time></trkpt><trkpt lat="44.1177233" lon="12.2456283"><ele>66.0</ele><time>2026-05-02T09:02:45.441Z</time></trkpt><trkpt lat="44.1176883" lon="12.2457333"><ele>66.0</ele><time>2026-05-02T09:02:47.439Z</time></trkpt><trkpt lat="44.117655" lon="12.24583"><ele>66.0</ele><time>2026-05-02T09:02:49.442Z</time></trkpt><trkpt lat="44.11763" lon="12.2459367"><ele>66.0</ele><time>2026-05-02T09:02:51.443Z</time></trkpt><trkpt lat="44.117605" lon="12.246035"><ele>66.0</ele><time>2026-05-02T09:02:53.439Z</time></trkpt><trkpt lat="44.1176083" lon="12.2461433"><ele>65.16666666666667</ele><time>2026-05-02T09:02:55.442Z</time></trkpt><trkpt lat="44.11762" lon="12.246255"><ele>64.33333333333333</ele><time>2026-05-02T09:02:57.44Z</time></trkpt><trkpt lat="44.1176383" lon="12.2463583"><ele>63.5</ele><time>2026-05-02T09:02:59.438Z</time></trkpt><trkpt lat="44.1176583" lon="12.2464583"><ele>62.666666666666664</ele><time>2026-05-02T09:03:01.44Z</time></trkpt><trkpt lat="44.1176717" lon="12.2465683"><ele>61.83333333333333</ele><time>2026-05-02T09:03:03.44Z</time></trkpt><trkpt lat="44.1176633" lon="12.2466767"><ele>61.0</ele><time>2026-05-02T09:03:05.44Z</time></trkpt><trkpt lat="44.11764" lon="12.2467817"><ele>60.99999999999999</ele><time>2026-05-02T09:03:07.439Z</time></trkpt><trkpt lat="44.1176133" lon="12.2468833"><ele>61.0</ele><time>2026-05-02T09:03:09.44Z</time></trkpt><trkpt lat="44.11758" lon="12.2469783"><ele>61.0</ele><time>2026-05-02T09:03:11.44Z</time></trkpt><trkpt lat="44.117545" lon="12.2470817"><ele>61.0</ele><time>2026-05-02T09:03:13.447Z</time></trkpt><trkpt lat="44.1175167" lon="12.2471867"><ele>60.99999999999999</ele><time>2026-05-02T09:03:15.444Z</time></trkpt><trkpt lat="44.1174867" lon="12.2472967"><ele>61.0</ele><time>2026-05-02T09:03:17.44Z</time></trkpt><trkpt lat="44.11745" lon="12.2474017"><ele>60.85714285714285</ele><time>2026-05-02T09:03:19.44Z</time></trkpt><trkpt lat="44.11742" lon="12.2475017"><ele>60.71428571428571</ele><time>2026-05-02T09:03:21.439Z</time></trkpt><trkpt lat="44.11739" lon="12.2475967"><ele>60.57142857142857</ele><time>2026-05-02T09:03:23.439Z</time></trkpt><trkpt lat="44.117365" lon="12.2476917"><ele>60.42857142857142</ele><time>2026-05-02T09:03:25.438Z</time></trkpt><trkpt lat="44.1173417" lon="12.2477833"><ele>60.28571428571428</ele><time>2026-05-02T09:03:27.441Z</time></trkpt><trkpt lat="44.1173167" lon="12.2478767"><ele>60.142857142857146</ele><time>2026-05-02T09:03:29.44Z</time></trkpt><trkpt lat="44.117285" lon="12.247965"><ele>60.0</ele><time>2026-05-02T09:03:31.44Z</time></trkpt><trkpt lat="44.1172567" lon="12.2480483"><ele>61.85714285714286</ele><time>2026-05-02T09:03:33.44Z</time></trkpt><trkpt lat="44.11719" lon="12.24813"><ele>63.71428571428571</ele><time>2026-05-02T09:03:36.439Z</time></trkpt><trkpt lat="44.1171317" lon="12.248195"><ele>65.57142857142857</ele><time>2026-05-02T09:03:40.443Z</time></trkpt><trkpt lat="44.1170717" lon="12.2482583"><ele>67.42857142857143</ele><time>2026-05-02T09:03:45.443Z</time></trkpt><trkpt lat="44.1170183" lon="12.248325"><ele>69.28571428571429</ele><time>2026-05-02T09:03:51.44Z</time></trkpt><trkpt lat="44.11696" lon="12.248385"><ele>71.14285714285714</ele><time>2026-05-02T09:03:57.44Z</time></trkpt><trkpt lat="44.1169033" lon="12.2484317"><ele>73.0</ele><time>2026-05-02T09:04:03.44Z</time></trkpt><trkpt lat="44.1168517" lon="12.2484933"><ele>73.0</ele><time>2026-05-02T09:04:09.443Z</time></trkpt><trkpt lat="44.1168017" lon="12.2485617"><ele>73.0</ele><time>2026-05-02T09:04:15.443Z</time></trkpt><trkpt lat="44.11674" lon="12.2486217"><ele>73.0</ele><time>2026-05-02T09:04:22.438Z</time></trkpt><trkpt lat="44.11669" lon="12.2486833"><ele>73.0</ele><time>2026-05-02T09:04:27.44Z</time></trkpt><trkpt lat="44.11664" lon="12.2487383"><ele>73.0</ele><time>2026-05-02T09:04:32.442Z</time></trkpt><trkpt lat="44.1165767" lon="12.2487967"><ele>73.0</ele><time>2026-05-02T09:04:38.442Z</time></trkpt><trkpt lat="44.1165117" lon="12.2488533"><ele>73.0</ele><time>2026-05-02T09:04:44.442Z</time></trkpt><trkpt lat="44.1164483" lon="12.2488767"><ele>75.28571428571428</ele><time>2026-05-02T09:04:50.442Z</time></trkpt><trkpt lat="44.1163883" lon="12.2489083"><ele>77.57142857142857</ele><time>2026-05-02T09:04:55.44Z</time></trkpt><trkpt lat="44.1163117" lon="12.248965"><ele>79.85714285714286</ele><time>2026-05-02T09:06:00.441Z</time></trkpt><trkpt lat="44.1162417" lon="12.2489983"><ele>82.14285714285714</ele><time>2026-05-02T09:06:05.44Z</time></trkpt><trkpt lat="44.1161783" lon="12.249035"><ele>84.42857142857143</ele><time>2026-05-02T09:06:10.44Z</time></trkpt><trkpt lat="44.11612" lon="12.2490767"><ele>86.71428571428571</ele><time>2026-05-02T09:06:15.44Z</time></trkpt><trkpt lat="44.1160683" lon="12.24914"><ele>89.0</ele><time>2026-05-02T09:06:21.441Z</time></trkpt><trkpt lat="44.1160233" lon="12.2492167"><ele>88.99999999999999</ele><time>2026-05-02T09:06:27.441Z</time></trkpt><trkpt lat="44.1160133" lon="12.2493067"><ele>89.0</ele><time>2026-05-02T09:06:33.44Z</time></trkpt><trkpt lat="44.1159983" lon="12.2493933"><ele>89.0</ele><time>2026-05-02T09:06:39.441Z</time></trkpt><trkpt lat="44.1159883" lon="12.2494867"><ele>89.0</ele><time>2026-05-02T09:06:45.443Z</time></trkpt><trkpt lat="44.11597" lon="12.249575"><ele>89.0</ele><time>2026-05-02T09:06:51.447Z</time></trkpt><trkpt lat="44.1159233" lon="12.249635"><ele>88.99999999999999</ele><time>2026-05-02T09:06:55.439Z</time></trkpt><trkpt lat="44.11587" lon="12.2497083"><ele>89.0</ele><time>2026-05-02T09:07:01.439Z</time></trkpt><trkpt lat="44.1158183" lon="12.2497767"><ele>88.85714285714285</ele><time>2026-05-02T09:07:07.44Z</time></trkpt><trkpt lat="44.1157533" lon="12.2498233"><ele>88.71428571428571</ele><time>2026-05-02T09:07:13.44Z</time></trkpt><trkpt lat="44.1156933" lon="12.24987"><ele>88.57142857142857</ele><time>2026-05-02T09:07:19.438Z</time></trkpt><trkpt lat="44.1156333" lon="12.2499233"><ele>88.42857142857142</ele><time>2026-05-02T09:07:25.439Z</time></trkpt><trkpt lat="44.1155783" lon="12.249985"><ele>88.28571428571428</ele><time>2026-05-02T09:07:31.439Z</time></trkpt><trkpt lat="44.1155233" lon="12.2500417"><ele>88.14285714285714</ele><time>2026-05-02T09:07:37.44Z</time></trkpt><trkpt lat="44.1154917" lon="12.25012"><ele>88.0</ele><time>2026-05-02T09:07:43.441Z</time></trkpt><trkpt lat="44.1154867" lon="12.2502167"><ele>90.0</ele><time>2026-05-02T09:07:49.442Z</time></trkpt><trkpt lat="44.115525" lon="12.2503067"><ele>92.0</ele><time>2026-05-02T09:07:55.438Z</time></trkpt><trkpt lat="44.1155667" lon="12.250385"><ele>94.0</ele><time>2026-05-02T09:08:01.443Z</time></trkpt><trkpt lat="44.1156183" lon="12.25045"><ele>96.0</ele><time>2026-05-02T09:08:07.442Z</time></trkpt><trkpt lat="44.1156567" lon="12.25053"><ele>98.0</ele><time>2026-05-02T09:08:13.441Z</time></trkpt><trkpt lat="44.1156933" lon="12.2506117"><ele>100.0</ele><time>2026-05-02T09:08:19.442Z</time></trkpt><trkpt lat="44.1157167" lon="12.2507033"><ele>102.0</ele><time>2026-05-02T09:08:25.439Z</time></trkpt><trkpt lat="44.115725" lon="12.250795"><ele>102.57142857142857</ele><time>2026-05-02T09:08:30.44Z</time></trkpt><trkpt lat="44.11571" lon="12.2508883"><ele>103.14285714285714</ele><time>2026-05-02T09:08:35.44Z</time></trkpt><trkpt lat="44.115665" lon="12.2509783"><ele>103.71428571428572</ele><time>2026-05-02T09:08:41.441Z</time></trkpt><trkpt lat="44.1156283" lon="12.2510683"><ele>104.28571428571428</ele><time>2026-05-02T09:08:47.443Z</time></trkpt><trkpt lat="44.1155833" lon="12.2511517"><ele>104.85714285714285</ele><time>2026-05-02T09:08:53.441Z</time></trkpt><trkpt lat="44.1155533" lon="12.25123"><ele>105.42857142857143</ele><time>2026-05-02T09:08:58.441Z</time></trkpt><trkpt lat="44.115525" lon="12.25131"><ele>106.0</ele><time>2026-05-02T09:09:03.443Z</time></trkpt><trkpt lat="44.1154967" lon="12.2513933"><ele>107.16666666666667</ele><time>2026-05-02T09:09:08.442Z</time></trkpt><trkpt lat="44.11547" lon="12.251485"><ele>108.33333333333334</ele><time>2026-05-02T09:09:14.441Z</time></trkpt><trkpt lat="44.1154417" lon="12.251575"><ele>109.5</ele><time>2026-05-02T09:09:20.442Z</time></trkpt><trkpt lat="44.1154117" lon="12.2516817"><ele>110.66666666666666</ele><time>2026-05-02T09:09:28.44Z</time></trkpt><trkpt lat="44.115425" lon="12.2518017"><ele>111.83333333333333</ele><time>2026-05-02T09:09:37.439Z</time></trkpt><trkpt lat="44.1154317" lon="12.2519333"><ele>113.0</ele><time>2026-05-02T09:09:46.442Z</time></trkpt><trkpt lat="44.1154267" lon="12.25203"><ele>113.0</ele><time>2026-05-02T09:09:53.439Z</time></trkpt><trkpt lat="44.1153833" lon="12.2520983"><ele>113.0</ele><time>2026-05-02T09:09:59.439Z</time></trkpt><trkpt lat="44.1153317" lon="12.252165"><ele>113.0</ele><time>2026-05-02T09:10:06.44Z</time></trkpt><trkpt lat="44.1152783" lon="12.252225"><ele>113.0</ele><time>2026-05-02T09:10:13.44Z</time></trkpt><trkpt lat="44.115225" lon="12.252275"><ele>113.0</ele><time>2026-05-02T09:10:18.44Z</time></trkpt><trkpt lat="44.11516" lon="12.25233"><ele>113.0</ele><time>2026-05-02T09:10:24.441Z</time></trkpt><trkpt lat="44.1150967" lon="12.25238"><ele>113.0</ele><time>2026-05-02T09:10:31.442Z</time></trkpt><trkpt lat="44.1150417" lon="12.25243"><ele>114.2</ele><time>2026-05-02T09:10:37.441Z</time></trkpt><trkpt lat="44.1149883" lon="12.2524933"><ele>115.4</ele><time>2026-05-02T09:10:44.443Z</time></trkpt><trkpt lat="44.1149333" lon="12.252555"><ele>116.60000000000001</ele><time>2026-05-02T09:10:51.439Z</time></trkpt><trkpt lat="44.1148517" lon="12.25261"><ele>117.80000000000001</ele><time>2026-05-02T09:11:00.443Z</time></trkpt><trkpt lat="44.1147517" lon="12.2527083"><ele>119.0</ele><time>2026-05-02T09:11:20.441Z</time></trkpt><trkpt lat="44.1146683" lon="12.252815"><ele>124.75</ele><time>2026-05-02T09:11:35.443Z</time></trkpt><trkpt lat="44.1145817" lon="12.2529367"><ele>130.5</ele><time>2026-05-02T09:11:54.441Z</time></trkpt><trkpt lat="44.1144933" lon="12.2530417"><ele>136.25</ele><time>2026-05-02T09:12:10.44Z</time></trkpt><trkpt lat="44.1144067" lon="12.2531533"><ele>142.0</ele><time>2026-05-02T09:12:26.441Z</time></trkpt><trkpt lat="44.11432" lon="12.2532567"><ele>142.0</ele><time>2026-05-02T09:12:45.441Z</time></trkpt><trkpt lat="44.114275" lon="12.2533783"><ele>142.0</ele><time>2026-05-02T09:13:09.441Z</time></trkpt><trkpt lat="44.114275" lon="12.2534667"><ele>142.0</ele><time>2026-05-02T09:13:11.44Z</time></trkpt><trkpt lat="44.1142933" lon="12.25358"><ele>142.0</ele><time>2026-05-02T09:13:13.439Z</time></trkpt><trkpt lat="44.1143033" lon="12.2537017"><ele>142.0</ele><time>2026-05-02T09:13:15.442Z</time></trkpt><trkpt lat="44.1143133" lon="12.2538333"><ele>142.0</ele><time>2026-05-02T09:13:17.442Z</time></trkpt><trkpt lat="44.114325" lon="12.2539683"><ele>141.0</ele><time>2026-05-02T09:13:19.443Z</time></trkpt><trkpt lat="44.11435" lon="12.2541017"><ele>140.0</ele><time>2026-05-02T09:13:21.44Z</time></trkpt><trkpt lat="44.1143767" lon="12.2542033"><ele>139.0</ele><time>2026-05-02T09:13:23.44Z</time></trkpt><trkpt lat="44.1143267" lon="12.2542883"><ele>138.0</ele><time>2026-05-02T09:13:26.439Z</time></trkpt><trkpt lat="44.11425" lon="12.25429"><ele>137.0</ele><time>2026-05-02T09:13:28.44Z</time></trkpt><trkpt lat="44.114175" lon="12.2542783"><ele>136.0</ele><time>2026-05-02T09:13:30.441Z</time></trkpt><trkpt lat="44.1141033" lon="12.254275"><ele>135.83333333333334</ele><time>2026-05-02T09:13:32.442Z</time></trkpt><trkpt lat="44.1140367" lon="12.25426"><ele>135.66666666666669</ele><time>2026-05-02T09:13:34.439Z</time></trkpt><trkpt lat="44.113975" lon="12.2542383"><ele>135.5</ele><time>2026-05-02T09:13:36.44Z</time></trkpt><trkpt lat="44.1138833" lon="12.2542033"><ele>135.33333333333334</ele><time>2026-05-02T09:13:39.443Z</time></trkpt><trkpt lat="44.113795" lon="12.2542017"><ele>135.16666666666666</ele><time>2026-05-02T09:13:42.443Z</time></trkpt><trkpt lat="44.1137367" lon="12.254165"><ele>135.0</ele><time>2026-05-02T09:13:45.441Z</time></trkpt><trkpt lat="44.11367" lon="12.254115"><ele>135.0</ele><time>2026-05-02T09:13:51.445Z</time></trkpt><trkpt lat="44.1136217" lon="12.2540467"><ele>135.0</ele><time>2026-05-02T09:13:56.439Z</time></trkpt><trkpt lat="44.113565" lon="12.2540017"><ele>135.0</ele><time>2026-05-02T09:14:00.438Z</time></trkpt><trkpt lat="44.1135083" lon="12.2539417"><ele>135.0</ele><time>2026-05-02T09:14:04.439Z</time></trkpt><trkpt lat="44.113455" lon="12.253855"><ele>135.0</ele><time>2026-05-02T09:14:09.44Z</time></trkpt><trkpt lat="44.1134033" lon="12.2537567"><ele>135.0</ele><time>2026-05-02T09:14:12.44Z</time></trkpt><trkpt lat="44.11336" lon="12.2536867"><ele>135.0</ele><time>2026-05-02T09:14:14.44Z</time></trkpt><trkpt lat="44.1133133" lon="12.253605"><ele>135.0</ele><time>2026-05-02T09:14:16.44Z</time></trkpt><trkpt lat="44.1132633" lon="12.2535117"><ele>135.0</ele><time>2026-05-02T09:14:18.442Z</time></trkpt><trkpt lat="44.113215" lon="12.2534133"><ele>135.0</ele><time>2026-05-02T09:14:20.441Z</time></trkpt><trkpt lat="44.113155" lon="12.253315"><ele>135.0</ele><time>2026-05-02T09:14:22.442Z</time></trkpt><trkpt lat="44.1131" lon="12.25321"><ele>135.0</ele><time>2026-05-02T09:14:24.443Z</time></trkpt><trkpt lat="44.1130483" lon="12.2530883"><ele>135.0</ele><time>2026-05-02T09:14:26.441Z</time></trkpt><trkpt lat="44.1129767" lon="12.252965"><ele>135.0</ele><time>2026-05-02T09:14:28.441Z</time></trkpt><trkpt lat="44.11288" lon="12.2528517"><ele>135.0</ele><time>2026-05-02T09:14:30.44Z</time></trkpt><trkpt lat="44.112825" lon="12.2527933"><ele>135.0</ele><time>2026-05-02T09:14:31.44Z</time></trkpt><trkpt lat="44.1127667" lon="12.25274"><ele>135.0</ele><time>2026-05-02T09:14:32.438Z</time></trkpt><trkpt lat="44.1127017" lon="12.252685"><ele>135.0</ele><time>2026-05-02T09:14:33.44Z</time></trkpt><trkpt lat="44.1126367" lon="12.252645"><ele>135.0</ele><time>2026-05-02T09:14:34.439Z</time></trkpt><trkpt lat="44.1125633" lon="12.252605"><ele>135.0</ele><time>2026-05-02T09:14:35.441Z</time></trkpt><trkpt lat="44.1124817" lon="12.2525717"><ele>135.0</ele><time>2026-05-02T09:14:36.44Z</time></trkpt><trkpt lat="44.11239" lon="12.25254"><ele>135.0</ele><time>2026-05-02T09:14:37.441Z</time></trkpt><trkpt lat="44.1122983" lon="12.2525133"><ele>135.0</ele><time>2026-05-02T09:14:38.439Z</time></trkpt><trkpt lat="44.1122133" lon="12.2525017"><ele>131.66666666666666</ele><time>2026-05-02T09:14:39.441Z</time></trkpt><trkpt lat="44.1121333" lon="12.252485"><ele>128.33333333333334</ele><time>2026-05-02T09:14:40.441Z</time></trkpt><trkpt lat="44.1120667" lon="12.2524833"><ele>125.0</ele><time>2026-05-02T09:14:41.443Z</time></trkpt><trkpt lat="44.1119433" lon="12.2524733"><ele>121.66666666666667</ele><time>2026-05-02T09:14:43.443Z</time></trkpt><trkpt lat="44.11188" lon="12.252485"><ele>118.33333333333334</ele><time>2026-05-02T09:14:44.439Z</time></trkpt><trkpt lat="44.1118167" lon="12.2525067"><ele>115.0</ele><time>2026-05-02T09:14:45.44Z</time></trkpt><trkpt lat="44.1117467" lon="12.25254"><ele>115.00000000000001</ele><time>2026-05-02T09:14:46.439Z</time></trkpt><trkpt lat="44.1116783" lon="12.2525817"><ele>115.0</ele><time>2026-05-02T09:14:47.438Z</time></trkpt><trkpt lat="44.1116183" lon="12.252625"><ele>115.0</ele><time>2026-05-02T09:14:48.442Z</time></trkpt><trkpt lat="44.11155" lon="12.252675"><ele>115.0</ele><time>2026-05-02T09:14:49.439Z</time></trkpt><trkpt lat="44.111475" lon="12.2527267"><ele>115.00000000000001</ele><time>2026-05-02T09:14:50.44Z</time></trkpt><trkpt lat="44.1113917" lon="12.2527783"><ele>115.0</ele><time>2026-05-02T09:14:51.439Z</time></trkpt><trkpt lat="44.1113133" lon="12.2528233"><ele>113.0</ele><time>2026-05-02T09:14:52.439Z</time></trkpt><trkpt lat="44.1112433" lon="12.252865"><ele>111.0</ele><time>2026-05-02T09:14:53.439Z</time></trkpt><trkpt lat="44.1111783" lon="12.2528967"><ele>109.0</ele><time>2026-05-02T09:14:54.439Z</time></trkpt><trkpt lat="44.1110733" lon="12.2529583"><ele>107.0</ele><time>2026-05-02T09:14:56.439Z</time></trkpt><trkpt lat="44.110985" lon="12.2530233"><ele>105.0</ele><time>2026-05-02T09:14:58.439Z</time></trkpt><trkpt lat="44.1108933" lon="12.2530917"><ele>103.71428571428571</ele><time>2026-05-02T09:15:00.441Z</time></trkpt><trkpt lat="44.110805" lon="12.25317"><ele>102.42857142857143</ele><time>2026-05-02T09:15:02.439Z</time></trkpt><trkpt lat="44.1107483" lon="12.2532167"><ele>101.14285714285714</ele><time>2026-05-02T09:15:03.439Z</time></trkpt><trkpt lat="44.1106867" lon="12.253265"><ele>99.85714285714286</ele><time>2026-05-02T09:15:04.439Z</time></trkpt><trkpt lat="44.110625" lon="12.253315"><ele>98.57142857142857</ele><time>2026-05-02T09:15:05.44Z</time></trkpt><trkpt lat="44.110565" lon="12.253365"><ele>97.28571428571428</ele><time>2026-05-02T09:15:06.439Z</time></trkpt><trkpt lat="44.1105117" lon="12.2534167"><ele>96.0</ele><time>2026-05-02T09:15:07.439Z</time></trkpt><trkpt lat="44.1104567" lon="12.2534733"><ele>94.83333333333333</ele><time>2026-05-02T09:15:08.439Z</time></trkpt><trkpt lat="44.1103983" lon="12.2535333"><ele>93.66666666666667</ele><time>2026-05-02T09:15:09.44Z</time></trkpt><trkpt lat="44.1103433" lon="12.2535967"><ele>92.5</ele><time>2026-05-02T09:15:10.439Z</time></trkpt><trkpt lat="44.1102867" lon="12.2536667"><ele>91.33333333333334</ele><time>2026-05-02T09:15:11.439Z</time></trkpt><trkpt lat="44.1102333" lon="12.2537383"><ele>90.16666666666667</ele><time>2026-05-02T09:15:12.44Z</time></trkpt><trkpt lat="44.1101783" lon="12.2538133"><ele>89.0</ele><time>2026-05-02T09:15:13.439Z</time></trkpt><trkpt lat="44.1119433" lon="12.2524733"><ele>91.28571428571428</ele><time>2026-05-02T09:14:43.443Z</time></trkpt><trkpt lat="44.11188" lon="12.252485"><ele>93.57142857142857</ele><time>2026-05-02T09:14:44.439Z</time></trkpt><trkpt lat="44.1118167" lon="12.2525067"><ele>95.85714285714286</ele><time>2026-05-02T09:14:45.44Z</time></trkpt><trkpt lat="44.1117467" lon="12.25254"><ele>98.14285714285714</ele><time>2026-05-02T09:14:46.439Z</time></trkpt><trkpt lat="44.1116783" lon="12.2525817"><ele>100.42857142857143</ele><time>2026-05-02T09:14:47.438Z</time></trkpt><trkpt lat="44.1116183" lon="12.252625"><ele>102.71428571428571</ele><time>2026-05-02T09:14:48.442Z</time></trkpt><trkpt lat="44.11155" lon="12.252675"><ele>105.0</ele><time>2026-05-02T09:14:49.439Z</time></trkpt><trkpt lat="44.111475" lon="12.2527267"><ele>105.0</ele><time>2026-05-02T09:14:50.44Z</time></trkpt><trkpt lat="44.1113917" lon="12.2527783"><ele>105.0</ele><time>2026-05-02T09:14:51.439Z</time></trkpt><trkpt lat="44.1113133" lon="12.2528233"><ele>105.0</ele><time>2026-05-02T09:14:52.439Z</time></trkpt><trkpt lat="44.1112433" lon="12.252865"><ele>105.0</ele><time>2026-05-02T09:14:53.439Z</time></trkpt><trkpt lat="44.1111783" lon="12.2528967"><ele>105.0</ele><time>2026-05-02T09:14:54.439Z</time></trkpt><trkpt lat="44.1110733" lon="12.2529583"><ele>105.0</ele><time>2026-05-02T09:14:56.439Z</time></trkpt><trkpt lat="44.110985" lon="12.2530233"><ele>105.0</ele><time>2026-05-02T09:14:58.439Z</time></trkpt><trkpt lat="44.1108933" lon="12.2530917"><ele>105.0</ele><time>2026-05-02T09:15:00.441Z</time></trkpt><trkpt lat="44.110805" lon="12.25317"><ele>105.0</ele><time>2026-05-02T09:15:02.439Z</time></trkpt><trkpt lat="44.1107483" lon="12.2532167"><ele>105.0</ele><time>2026-05-02T09:15:03.439Z</time></trkpt><trkpt lat="44.1106867" lon="12.253265"><ele>105.0</ele><time>2026-05-02T09:15:04.439Z</time></trkpt><trkpt lat="44.110625" lon="12.253315"><ele>105.0</ele><time>2026-05-02T09:15:05.44Z</time></trkpt><trkpt lat="44.110565" lon="12.253365"><ele>102.71428571428571</ele><time>2026-05-02T09:15:06.439Z</time></trkpt><trkpt lat="44.1105117" lon="12.2534167"><ele>100.42857142857143</ele><time>2026-05-02T09:15:07.439Z</time></trkpt><trkpt lat="44.1104567" lon="12.2534733"><ele>98.14285714285714</ele><time>2026-05-02T09:15:08.439Z</time></trkpt><trkpt lat="44.1103983" lon="12.2535333"><ele>95.85714285714286</ele><time>2026-05-02T09:15:09.44Z</time></trkpt><trkpt lat="44.1103433" lon="12.2535967"><ele>93.57142857142857</ele><time>2026-05-02T09:15:10.439Z</time></trkpt><trkpt lat="44.1102867" lon="12.2536667"><ele>91.28571428571428</ele><time>2026-05-02T09:15:11.439Z</time></trkpt><trkpt lat="44.1102333" lon="12.2537383"><ele>89.0</ele><time>2026-05-02T09:15:12.44Z</time></trkpt><trkpt lat="44.1101783" lon="12.2538133"><ele>89.0</ele><time>2026-05-02T09:15:13.439Z</time></trkpt><trkpt lat="44.1101233" lon="12.2538917"><ele>89.0</ele><time>2026-05-02T09:15:14.44Z</time></trkpt><trkpt lat="44.1100683" lon="12.2539667"><ele>89.0</ele><time>2026-05-02T09:15:15.44Z</time></trkpt><trkpt lat="44.1100183" lon="12.2540433"><ele>89.0</ele><time>2026-05-02T09:15:16.439Z</time></trkpt><trkpt lat="44.1099733" lon="12.2541183"><ele>89.0</ele><time>2026-05-02T09:15:17.439Z</time></trkpt><trkpt lat="44.1099333" lon="12.2541917"><ele>89.0</ele><time>2026-05-02T09:15:18.44Z</time></trkpt><trkpt lat="44.1098567" lon="12.254335"><ele>86.5</ele><time>2026-05-02T09:15:20.44Z</time></trkpt><trkpt lat="44.10982" lon="12.254415"><ele>84.0</ele><time>2026-05-02T09:15:21.44Z</time></trkpt><trkpt lat="44.109785" lon="12.2545067"><ele>81.5</ele><time>2026-05-02T09:15:22.439Z</time></trkpt><trkpt lat="44.1097517" lon="12.254595"><ele>79.0</ele><time>2026-05-02T09:15:23.439Z</time></trkpt><trkpt lat="44.10972" lon="12.2546783"><ele>76.5</ele><time>2026-05-02T09:15:24.44Z</time></trkpt><trkpt lat="44.1096967" lon="12.25476"><ele>74.0</ele><time>2026-05-02T09:15:25.44Z</time></trkpt><trkpt lat="44.1096667" lon="12.25492"><ele>73.0</ele><time>2026-05-02T09:15:27.44Z</time></trkpt><trkpt lat="44.109665" lon="12.25501"><ele>72.0</ele><time>2026-05-02T09:15:28.439Z</time></trkpt><trkpt lat="44.1096617" lon="12.2551033"><ele>71.0</ele><time>2026-05-02T09:15:29.439Z</time></trkpt><trkpt lat="44.109665" lon="12.2551967"><ele>70.0</ele><time>2026-05-02T09:15:30.442Z</time></trkpt><trkpt lat="44.1096783" lon="12.2552867"><ele>69.0</ele><time>2026-05-02T09:15:31.438Z</time></trkpt><trkpt lat="44.1096967" lon="12.2553733"><ele>68.0</ele><time>2026-05-02T09:15:32.439Z</time></trkpt><trkpt lat="44.1097167" lon="12.2554617"><ele>67.0</ele><time>2026-05-02T09:15:33.44Z</time></trkpt><trkpt lat="44.1097383" lon="12.2555467"><ele>66.0</ele><time>2026-05-02T09:15:34.442Z</time></trkpt><trkpt lat="44.1097367" lon="12.25569"><ele>65.0</ele><time>2026-05-02T09:15:36.443Z</time></trkpt><trkpt lat="44.1096667" lon="12.2558217"><ele>64.0</ele><time>2026-05-02T09:15:38.443Z</time></trkpt><trkpt lat="44.1096083" lon="12.2558783"><ele>63.0</ele><time>2026-05-02T09:15:39.439Z</time></trkpt><trkpt lat="44.1095117" lon="12.255965"><ele>62.0</ele><time>2026-05-02T09:15:41.438Z</time></trkpt><trkpt lat="44.1094667" lon="12.256075"><ele>62.0</ele><time>2026-05-02T09:15:43.44Z</time></trkpt><trkpt lat="44.1095033" lon="12.2561883"><ele>62.0</ele><time>2026-05-02T09:15:45.44Z</time></trkpt><trkpt lat="44.1095583" lon="12.2562933"><ele>62.0</ele><time>2026-05-02T09:15:47.443Z</time></trkpt><trkpt lat="44.1096233" lon="12.256405"><ele>62.0</ele><time>2026-05-02T09:15:49.44Z</time></trkpt><trkpt lat="44.1096967" lon="12.2565183"><ele>62.0</ele><time>2026-05-02T09:15:51.441Z</time></trkpt><trkpt lat="44.1097767" lon="12.2566267"><ele>62.16666666666667</ele><time>2026-05-02T09:15:53.442Z</time></trkpt><trkpt lat="44.1098633" lon="12.256735"><ele>62.333333333333336</ele><time>2026-05-02T09:15:55.44Z</time></trkpt><trkpt lat="44.1099567" lon="12.2568517"><ele>62.5</ele><time>2026-05-02T09:15:57.441Z</time></trkpt><trkpt lat="44.1100017" lon="12.2569133"><ele>62.66666666666667</ele><time>2026-05-02T09:15:58.441Z</time></trkpt><trkpt lat="44.1100467" lon="12.256975"><ele>62.833333333333336</ele><time>2026-05-02T09:15:59.439Z</time></trkpt><trkpt lat="44.1100917" lon="12.2570417"><ele>63.0</ele><time>2026-05-02T09:16:00.439Z</time></trkpt><trkpt lat="44.1101333" lon="12.2571083"><ele>63.0</ele><time>2026-05-02T09:16:01.44Z</time></trkpt><trkpt lat="44.110175" lon="12.257175"><ele>63.0</ele><time>2026-05-02T09:16:02.441Z</time></trkpt><trkpt lat="44.1102167" lon="12.257245"><ele>63.0</ele><time>2026-05-02T09:16:03.443Z</time></trkpt><trkpt lat="44.1102533" lon="12.2573167"><ele>63.0</ele><time>2026-05-02T09:16:04.44Z</time></trkpt><trkpt lat="44.110285" lon="12.2573967"><ele>63.0</ele><time>2026-05-02T09:16:05.44Z</time></trkpt><trkpt lat="44.110315" lon="12.2574783"><ele>63.0</ele><time>2026-05-02T09:16:06.44Z</time></trkpt><trkpt lat="44.1103433" lon="12.2575617"><ele>63.0</ele><time>2026-05-02T09:16:07.441Z</time></trkpt><trkpt lat="44.1103717" lon="12.2576433"><ele>63.14285714285714</ele><time>2026-05-02T09:16:08.439Z</time></trkpt><trkpt lat="44.1104" lon="12.257725"><ele>63.285714285714285</ele><time>2026-05-02T09:16:09.443Z</time></trkpt><trkpt lat="44.11043" lon="12.257805"><ele>63.42857142857143</ele><time>2026-05-02T09:16:10.442Z</time></trkpt><trkpt lat="44.1104633" lon="12.25788"><ele>63.57142857142857</ele><time>2026-05-02T09:16:11.442Z</time></trkpt><trkpt lat="44.110505" lon="12.2579467"><ele>63.71428571428571</ele><time>2026-05-02T09:16:12.44Z</time></trkpt><trkpt lat="44.1105533" lon="12.258005"><ele>63.857142857142854</ele><time>2026-05-02T09:16:13.44Z</time></trkpt><trkpt lat="44.1106067" lon="12.2580567"><ele>64.0</ele><time>2026-05-02T09:16:14.44Z</time></trkpt><trkpt lat="44.1107133" lon="12.2581483"><ele>63.2</ele><time>2026-05-02T09:16:16.44Z</time></trkpt><trkpt lat="44.1107717" lon="12.25819"><ele>62.400000000000006</ele><time>2026-05-02T09:16:17.439Z</time></trkpt><trkpt lat="44.1108317" lon="12.2582267"><ele>61.6</ele><time>2026-05-02T09:16:18.44Z</time></trkpt><trkpt lat="44.1109367" lon="12.258325"><ele>60.8</ele><time>2026-05-02T09:16:20.439Z</time></trkpt><trkpt lat="44.1109867" lon="12.2583833"><ele>60.0</ele><time>2026-05-02T09:16:21.44Z</time></trkpt><trkpt lat="44.11107" lon="12.2585167"><ele>60.0</ele><time>2026-05-02T09:16:23.439Z</time></trkpt><trkpt lat="44.1111083" lon="12.2585883"><ele>60.0</ele><time>2026-05-02T09:16:24.44Z</time></trkpt><trkpt lat="44.1111467" lon="12.2586617"><ele>60.0</ele><time>2026-05-02T09:16:25.44Z</time></trkpt><trkpt lat="44.1111833" lon="12.258735"><ele>60.0</ele><time>2026-05-02T09:16:26.439Z</time></trkpt><trkpt lat="44.1112317" lon="12.258815"><ele>60.0</ele><time>2026-05-02T09:16:27.44Z</time></trkpt><trkpt lat="44.11127" lon="12.258895"><ele>60.0</ele><time>2026-05-02T09:16:28.44Z</time></trkpt><trkpt lat="44.11131" lon="12.25897"><ele>60.0</ele><time>2026-05-02T09:16:29.439Z</time></trkpt><trkpt lat="44.1113533" lon="12.25904"><ele>59.85714285714286</ele><time>2026-05-02T09:16:30.44Z</time></trkpt><trkpt lat="44.1114017" lon="12.25911"><ele>59.71428571428571</ele><time>2026-05-02T09:16:31.439Z</time></trkpt><trkpt lat="44.1114517" lon="12.259175"><ele>59.57142857142857</ele><time>2026-05-02T09:16:32.44Z</time></trkpt><trkpt lat="44.1115033" lon="12.25924"><ele>59.42857142857143</ele><time>2026-05-02T09:16:33.44Z</time></trkpt><trkpt lat="44.1115567" lon="12.2593017"><ele>59.28571428571429</ele><time>2026-05-02T09:16:34.44Z</time></trkpt><trkpt lat="44.1116117" lon="12.2593633"><ele>59.14285714285714</ele><time>2026-05-02T09:16:35.44Z</time></trkpt><trkpt lat="44.1116633" lon="12.2594267"><ele>59.0</ele><time>2026-05-02T09:16:36.44Z</time></trkpt><trkpt lat="44.111715" lon="12.2594933"><ele>59.0</ele><time>2026-05-02T09:16:37.44Z</time></trkpt><trkpt lat="44.11177" lon="12.259555"><ele>59.0</ele><time>2026-05-02T09:16:38.439Z</time></trkpt><trkpt lat="44.1118217" lon="12.2596183"><ele>59.0</ele><time>2026-05-02T09:16:39.44Z</time></trkpt><trkpt lat="44.11187" lon="12.2596883"><ele>59.0</ele><time>2026-05-02T09:16:40.439Z</time></trkpt><trkpt lat="44.1119183" lon="12.25976"><ele>59.0</ele><time>2026-05-02T09:16:41.439Z</time></trkpt><trkpt lat="44.1119667" lon="12.2598333"><ele>59.0</ele><time>2026-05-02T09:16:42.44Z</time></trkpt><trkpt lat="44.1120217" lon="12.2599017"><ele>59.0</ele><time>2026-05-02T09:16:43.443Z</time></trkpt><trkpt lat="44.112075" lon="12.2599717"><ele>58.857142857142854</ele><time>2026-05-02T09:16:44.443Z</time></trkpt><trkpt lat="44.1121267" lon="12.2600417"><ele>58.71428571428572</ele><time>2026-05-02T09:16:45.441Z</time></trkpt><trkpt lat="44.112175" lon="12.2601167"><ele>58.57142857142858</ele><time>2026-05-02T09:16:46.439Z</time></trkpt><trkpt lat="44.1122217" lon="12.2601883"><ele>58.42857142857143</ele><time>2026-05-02T09:16:47.443Z</time></trkpt><trkpt lat="44.1122717" lon="12.260255"><ele>58.28571428571429</ele><time>2026-05-02T09:16:48.44Z</time></trkpt><trkpt lat="44.1123183" lon="12.2603267"><ele>58.14285714285715</ele><time>2026-05-02T09:16:49.442Z</time></trkpt><trkpt lat="44.1123667" lon="12.2604"><ele>58.00000000000001</ele><time>2026-05-02T09:16:50.44Z</time></trkpt><trkpt lat="44.1124133" lon="12.2604717"><ele>58.00000000000001</ele><time>2026-05-02T09:16:51.439Z</time></trkpt><trkpt lat="44.1124617" lon="12.26054"><ele>58.0</ele><time>2026-05-02T09:16:52.44Z</time></trkpt><trkpt lat="44.1125083" lon="12.26061"><ele>58.00000000000001</ele><time>2026-05-02T09:16:53.439Z</time></trkpt><trkpt lat="44.1125483" lon="12.2606867"><ele>58.00000000000001</ele><time>2026-05-02T09:16:54.439Z</time></trkpt><trkpt lat="44.1125867" lon="12.2607683"><ele>58.0</ele><time>2026-05-02T09:16:55.439Z</time></trkpt><trkpt lat="44.112625" lon="12.26085"><ele>58.00000000000001</ele><time>2026-05-02T09:16:56.44Z</time></trkpt><trkpt lat="44.1126617" lon="12.2609333"><ele>58.00000000000001</ele><time>2026-05-02T09:16:57.44Z</time></trkpt><trkpt lat="44.1126967" lon="12.26102"><ele>57.71428571428572</ele><time>2026-05-02T09:16:58.44Z</time></trkpt><trkpt lat="44.1127367" lon="12.261105"><ele>57.42857142857143</ele><time>2026-05-02T09:16:59.439Z</time></trkpt><trkpt lat="44.1127733" lon="12.2611883"><ele>57.142857142857146</ele><time>2026-05-02T09:17:00.439Z</time></trkpt><trkpt lat="44.1128117" lon="12.2612733"><ele>56.85714285714286</ele><time>2026-05-02T09:17:01.44Z</time></trkpt><trkpt lat="44.1128533" lon="12.261355"><ele>56.57142857142857</ele><time>2026-05-02T09:17:02.443Z</time></trkpt><trkpt lat="44.1128933" lon="12.2614367"><ele>56.285714285714285</ele><time>2026-05-02T09:17:03.443Z</time></trkpt><trkpt lat="44.11294" lon="12.261515"><ele>56.0</ele><time>2026-05-02T09:17:04.443Z</time></trkpt><trkpt lat="44.1129817" lon="12.2615967"><ele>56.0</ele><time>2026-05-02T09:17:05.442Z</time></trkpt><trkpt lat="44.1130267" lon="12.2616683"><ele>56.0</ele><time>2026-05-02T09:17:06.441Z</time></trkpt><trkpt lat="44.1130717" lon="12.2617467"><ele>56.0</ele><time>2026-05-02T09:17:07.441Z</time></trkpt><trkpt lat="44.1131183" lon="12.2618233"><ele>56.0</ele><time>2026-05-02T09:17:08.443Z</time></trkpt><trkpt lat="44.1131617" lon="12.2619"><ele>56.0</ele><time>2026-05-02T09:17:09.442Z</time></trkpt><trkpt lat="44.113205" lon="12.26198"><ele>56.0</ele><time>2026-05-02T09:17:10.443Z</time></trkpt><trkpt lat="44.113245" lon="12.2620633"><ele>56.0</ele><time>2026-05-02T09:17:11.439Z</time></trkpt><trkpt lat="44.1132867" lon="12.2621467"><ele>55.857142857142854</ele><time>2026-05-02T09:17:12.44Z</time></trkpt><trkpt lat="44.1133267" lon="12.2622317"><ele>55.714285714285715</ele><time>2026-05-02T09:17:13.44Z</time></trkpt><trkpt lat="44.1133667" lon="12.2623133"><ele>55.57142857142857</ele><time>2026-05-02T09:17:14.44Z</time></trkpt><trkpt lat="44.1134067" lon="12.2623933"><ele>55.42857142857143</ele><time>2026-05-02T09:17:15.439Z</time></trkpt><trkpt lat="44.1134467" lon="12.262475"><ele>55.285714285714285</ele><time>2026-05-02T09:17:16.443Z</time></trkpt><trkpt lat="44.11349" lon="12.2625567"><ele>55.14285714285714</ele><time>2026-05-02T09:17:17.442Z</time></trkpt><trkpt lat="44.1135333" lon="12.26264"><ele>55.0</ele><time>2026-05-02T09:17:18.44Z</time></trkpt><trkpt lat="44.1135767" lon="12.262725"><ele>54.857142857142854</ele><time>2026-05-02T09:17:19.441Z</time></trkpt><trkpt lat="44.1136183" lon="12.2628067"><ele>54.714285714285715</ele><time>2026-05-02T09:17:20.439Z</time></trkpt><trkpt lat="44.1136567" lon="12.2628883"><ele>54.57142857142857</ele><time>2026-05-02T09:17:21.44Z</time></trkpt><trkpt lat="44.1136983" lon="12.26297"><ele>54.42857142857143</ele><time>2026-05-02T09:17:22.439Z</time></trkpt><trkpt lat="44.1137417" lon="12.26305"><ele>54.285714285714285</ele><time>2026-05-02T09:17:23.441Z</time></trkpt><trkpt lat="44.113785" lon="12.26313"><ele>54.14285714285714</ele><time>2026-05-02T09:17:24.441Z</time></trkpt><trkpt lat="44.11383" lon="12.2632067"><ele>54.0</ele><time>2026-05-02T09:17:25.441Z</time></trkpt><trkpt lat="44.11388" lon="12.2632783"><ele>54.0</ele><time>2026-05-02T09:17:26.443Z</time></trkpt><trkpt lat="44.1139283" lon="12.2633517"><ele>54.0</ele><time>2026-05-02T09:17:27.443Z</time></trkpt><trkpt lat="44.1139767" lon="12.263425"><ele>54.0</ele><time>2026-05-02T09:17:28.442Z</time></trkpt><trkpt lat="44.1140283" lon="12.2634967"><ele>54.0</ele><time>2026-05-02T09:17:29.443Z</time></trkpt><trkpt lat="44.11408" lon="12.2635717"><ele>54.0</ele><time>2026-05-02T09:17:30.442Z</time></trkpt><trkpt lat="44.1141317" lon="12.2636467"><ele>54.0</ele><time>2026-05-02T09:17:31.44Z</time></trkpt><trkpt lat="44.1141817" lon="12.2637217"><ele>54.0</ele><time>2026-05-02T09:17:32.443Z</time></trkpt><trkpt lat="44.114225" lon="12.2638"><ele>53.57142857142857</ele><time>2026-05-02T09:17:33.443Z</time></trkpt><trkpt lat="44.114275" lon="12.2638783"><ele>53.14285714285714</ele><time>2026-05-02T09:17:34.442Z</time></trkpt><trkpt lat="44.1143283" lon="12.26395"><ele>52.714285714285715</ele><time>2026-05-02T09:17:35.443Z</time></trkpt><trkpt lat="44.11438" lon="12.2640233"><ele>52.285714285714285</ele><time>2026-05-02T09:17:36.44Z</time></trkpt><trkpt lat="44.1144317" lon="12.2640983"><ele>51.85714285714286</ele><time>2026-05-02T09:17:37.443Z</time></trkpt><trkpt lat="44.114485" lon="12.2641717"><ele>51.42857142857143</ele><time>2026-05-02T09:17:38.439Z</time></trkpt><trkpt lat="44.11454" lon="12.2642417"><ele>51.0</ele><time>2026-05-02T09:17:39.439Z</time></trkpt><trkpt lat="44.1145967" lon="12.26431"><ele>51.0</ele><time>2026-05-02T09:17:40.44Z</time></trkpt><trkpt lat="44.1146517" lon="12.264375"><ele>51.0</ele><time>2026-05-02T09:17:41.443Z</time></trkpt><trkpt lat="44.1147083" lon="12.264435"><ele>51.0</ele><time>2026-05-02T09:17:42.443Z</time></trkpt><trkpt lat="44.1147667" lon="12.2644983"><ele>51.0</ele><time>2026-05-02T09:17:43.442Z</time></trkpt><trkpt lat="44.114825" lon="12.2645583"><ele>51.0</ele><time>2026-05-02T09:17:44.439Z</time></trkpt><trkpt lat="44.1148833" lon="12.2646133"><ele>51.0</ele><time>2026-05-02T09:17:45.441Z</time></trkpt><trkpt lat="44.1149467" lon="12.2646617"><ele>51.0</ele><time>2026-05-02T09:17:46.44Z</time></trkpt><trkpt lat="44.115005" lon="12.2647133"><ele>50.714285714285715</ele><time>2026-05-02T09:17:47.44Z</time></trkpt><trkpt lat="44.1150617" lon="12.2647683"><ele>50.42857142857143</ele><time>2026-05-02T09:17:48.441Z</time></trkpt><trkpt lat="44.1151167" lon="12.2648317"><ele>50.14285714285714</ele><time>2026-05-02T09:17:49.441Z</time></trkpt><trkpt lat="44.1151733" lon="12.2648983"><ele>49.85714285714286</ele><time>2026-05-02T09:17:50.44Z</time></trkpt><trkpt lat="44.11523" lon="12.264955"><ele>49.57142857142857</ele><time>2026-05-02T09:17:51.44Z</time></trkpt><trkpt lat="44.11528" lon="12.2650183"><ele>49.285714285714285</ele><time>2026-05-02T09:17:52.439Z</time></trkpt><trkpt lat="44.1153283" lon="12.2650783"><ele>49.0</ele><time>2026-05-02T09:17:53.44Z</time></trkpt><trkpt lat="44.115385" lon="12.2651317"><ele>49.0</ele><time>2026-05-02T09:17:54.44Z</time></trkpt><trkpt lat="44.1154483" lon="12.2651733"><ele>49.0</ele><time>2026-05-02T09:17:55.441Z</time></trkpt><trkpt lat="44.11551" lon="12.2652117"><ele>49.0</ele><time>2026-05-02T09:17:56.441Z</time></trkpt><trkpt lat="44.1155717" lon="12.2652467"><ele>49.0</ele><time>2026-05-02T09:17:57.441Z</time></trkpt><trkpt lat="44.11563" lon="12.2652817"><ele>49.0</ele><time>2026-05-02T09:17:58.439Z</time></trkpt><trkpt lat="44.11569" lon="12.2653167"><ele>49.0</ele><time>2026-05-02T09:17:59.443Z</time></trkpt><trkpt lat="44.11575" lon="12.265355"><ele>49.0</ele><time>2026-05-02T09:18:00.442Z</time></trkpt><trkpt lat="44.11581" lon="12.2653917"><ele>48.857142857142854</ele><time>2026-05-02T09:18:01.442Z</time></trkpt><trkpt lat="44.1158733" lon="12.26543"><ele>48.714285714285715</ele><time>2026-05-02T09:18:02.44Z</time></trkpt><trkpt lat="44.1159367" lon="12.2654617"><ele>48.57142857142857</ele><time>2026-05-02T09:18:03.439Z</time></trkpt><trkpt lat="44.116" lon="12.2654933"><ele>48.42857142857143</ele><time>2026-05-02T09:18:04.443Z</time></trkpt><trkpt lat="44.116065" lon="12.26552"><ele>48.285714285714285</ele><time>2026-05-02T09:18:05.439Z</time></trkpt><trkpt lat="44.11613" lon="12.2655433"><ele>48.14285714285714</ele><time>2026-05-02T09:18:06.442Z</time></trkpt><trkpt lat="44.1161967" lon="12.2655667"><ele>48.0</ele><time>2026-05-02T09:18:07.443Z</time></trkpt><trkpt lat="44.1162617" lon="12.26559"><ele>47.857142857142854</ele><time>2026-05-02T09:18:08.44Z</time></trkpt><trkpt lat="44.1163267" lon="12.26562"><ele>47.714285714285715</ele><time>2026-05-02T09:18:09.441Z</time></trkpt><trkpt lat="44.1163917" lon="12.2656517"><ele>47.57142857142857</ele><time>2026-05-02T09:18:10.44Z</time></trkpt><trkpt lat="44.116455" lon="12.265685"><ele>47.42857142857143</ele><time>2026-05-02T09:18:11.44Z</time></trkpt><trkpt lat="44.1165217" lon="12.2657233"><ele>47.285714285714285</ele><time>2026-05-02T09:18:12.442Z</time></trkpt><trkpt lat="44.1165817" lon="12.2657733"><ele>47.14285714285714</ele><time>2026-05-02T09:18:13.44Z</time></trkpt><trkpt lat="44.1166417" lon="12.2658233"><ele>47.0</ele><time>2026-05-02T09:18:14.443Z</time></trkpt><trkpt lat="44.1166983" lon="12.2658767"><ele>46.83333333333333</ele><time>2026-05-02T09:18:15.441Z</time></trkpt><trkpt lat="44.116755" lon="12.265925"><ele>46.666666666666664</ele><time>2026-05-02T09:18:16.442Z</time></trkpt><trkpt lat="44.1168117" lon="12.2659717"><ele>46.5</ele><time>2026-05-02T09:18:17.441Z</time></trkpt><trkpt lat="44.11687" lon="12.2660133"><ele>46.333333333333336</ele><time>2026-05-02T09:18:18.44Z</time></trkpt><trkpt lat="44.11693" lon="12.266045"><ele>46.16666666666667</ele><time>2026-05-02T09:18:19.441Z</time></trkpt><trkpt lat="44.117045" lon="12.266105"><ele>46.0</ele><time>2026-05-02T09:18:21.44Z</time></trkpt><trkpt lat="44.1171633" lon="12.2661483"><ele>46.0</ele><time>2026-05-02T09:18:23.44Z</time></trkpt><trkpt lat="44.1172783" lon="12.26618"><ele>46.0</ele><time>2026-05-02T09:18:25.44Z</time></trkpt><trkpt lat="44.1174" lon="12.26622"><ele>46.0</ele><time>2026-05-02T09:18:27.44Z</time></trkpt><trkpt lat="44.1175183" lon="12.266265"><ele>46.0</ele><time>2026-05-02T09:18:29.44Z</time></trkpt><trkpt lat="44.1176367" lon="12.26632"><ele>45.8</ele><time>2026-05-02T09:18:31.441Z</time></trkpt><trkpt lat="44.1176983" lon="12.2663467"><ele>45.599999999999994</ele><time>2026-05-02T09:18:32.44Z</time></trkpt><trkpt lat="44.11782" lon="12.266385"><ele>45.4</ele><time>2026-05-02T09:18:34.441Z</time></trkpt><trkpt lat="44.1179333" lon="12.2664083"><ele>45.2</ele><time>2026-05-02T09:18:36.443Z</time></trkpt><trkpt lat="44.1180533" lon="12.26642"><ele>45.0</ele><time>2026-05-02T09:18:38.443Z</time></trkpt><trkpt lat="44.1181733" lon="12.26644"><ele>44.5</ele><time>2026-05-02T09:18:40.44Z</time></trkpt><trkpt lat="44.118295" lon="12.266455"><ele>44.0</ele><time>2026-05-02T09:18:42.443Z</time></trkpt><trkpt lat="44.11841" lon="12.266505"><ele>43.5</ele><time>2026-05-02T09:18:44.439Z</time></trkpt><trkpt lat="44.1185183" lon="12.26657"><ele>43.0</ele><time>2026-05-02T09:18:46.441Z</time></trkpt><trkpt lat="44.1186167" lon="12.2666183"><ele>43.0</ele><time>2026-05-02T09:18:48.44Z</time></trkpt><trkpt lat="44.1187033" lon="12.266675"><ele>43.0</ele><time>2026-05-02T09:18:50.443Z</time></trkpt><trkpt lat="44.1187167" lon="12.26678"><ele>43.0</ele><time>2026-05-02T09:18:52.442Z</time></trkpt><trkpt lat="44.11867" lon="12.2668567"><ele>43.0</ele><time>2026-05-02T09:18:54.439Z</time></trkpt><trkpt lat="44.118615" lon="12.266945"><ele>43.0</ele><time>2026-05-02T09:18:56.44Z</time></trkpt><trkpt lat="44.1185617" lon="12.2670383"><ele>43.0</ele><time>2026-05-02T09:18:58.441Z</time></trkpt><trkpt lat="44.1185117" lon="12.2671383"><ele>43.0</ele><time>2026-05-02T09:19:00.443Z</time></trkpt><trkpt lat="44.1184617" lon="12.2672383"><ele>43.0</ele><time>2026-05-02T09:19:02.44Z</time></trkpt><trkpt lat="44.118405" lon="12.2673283"><ele>43.0</ele><time>2026-05-02T09:19:04.441Z</time></trkpt><trkpt lat="44.11834" lon="12.2674133"><ele>43.0</ele><time>2026-05-02T09:19:06.44Z</time></trkpt><trkpt lat="44.1182783" lon="12.26751"><ele>43.0</ele><time>2026-05-02T09:19:08.44Z</time></trkpt><trkpt lat="44.118215" lon="12.2676017"><ele>43.0</ele><time>2026-05-02T09:19:10.44Z</time></trkpt><trkpt lat="44.11816" lon="12.2677017"><ele>43.333333333333336</ele><time>2026-05-02T09:19:12.44Z</time></trkpt><trkpt lat="44.1181117" lon="12.2678033"><ele>43.66666666666667</ele><time>2026-05-02T09:19:14.442Z</time></trkpt><trkpt lat="44.1180633" lon="12.2679017"><ele>44.0</ele><time>2026-05-02T09:19:16.441Z</time></trkpt><trkpt lat="44.11802" lon="12.268"><ele>44.333333333333336</ele><time>2026-05-02T09:19:18.44Z</time></trkpt><trkpt lat="44.1179767" lon="12.2680933"><ele>44.666666666666664</ele><time>2026-05-02T09:19:20.442Z</time></trkpt><trkpt lat="44.1179367" lon="12.268195"><ele>45.0</ele><time>2026-05-02T09:19:22.442Z</time></trkpt><trkpt lat="44.117895" lon="12.2682917"><ele>45.42857142857142</ele><time>2026-05-02T09:19:24.44Z</time></trkpt><trkpt lat="44.1178567" lon="12.2683933"><ele>45.85714285714286</ele><time>2026-05-02T09:19:26.442Z</time></trkpt><trkpt lat="44.11782" lon="12.2684883"><ele>46.285714285714285</ele><time>2026-05-02T09:19:28.442Z</time></trkpt><trkpt lat="44.1177883" lon="12.26857"><ele>46.71428571428571</ele><time>2026-05-02T09:19:30.44Z</time></trkpt><trkpt lat="44.1177633" lon="12.2686567"><ele>47.14285714285714</ele><time>2026-05-02T09:19:32.44Z</time></trkpt><trkpt lat="44.1177533" lon="12.2687483"><ele>47.57142857142857</ele><time>2026-05-02T09:19:34.439Z</time></trkpt><trkpt lat="44.1177433" lon="12.2688633"><ele>48.0</ele><time>2026-05-02T09:19:37.44Z</time></trkpt><trkpt lat="44.117745" lon="12.268975"><ele>49.0</ele><time>2026-05-02T09:19:40.44Z</time></trkpt><trkpt lat="44.117745" lon="12.26909"><ele>50.0</ele><time>2026-05-02T09:19:43.441Z</time></trkpt><trkpt lat="44.1177383" lon="12.2691983"><ele>51.0</ele><time>2026-05-02T09:19:46.442Z</time></trkpt><trkpt lat="44.117745" lon="12.2693083"><ele>52.0</ele><time>2026-05-02T09:19:50.443Z</time></trkpt><trkpt lat="44.1177433" lon="12.2693967"><ele>53.0</ele><time>2026-05-02T09:19:53.443Z</time></trkpt><trkpt lat="44.1177483" lon="12.26951"><ele>54.0</ele><time>2026-05-02T09:19:57.439Z</time></trkpt><trkpt lat="44.1177383" lon="12.2696133"><ele>54.0</ele><time>2026-05-02T09:20:01.442Z</time></trkpt><trkpt lat="44.1177183" lon="12.2697133"><ele>54.0</ele><time>2026-05-02T09:20:05.443Z</time></trkpt><trkpt lat="44.1176917" lon="12.2698033"><ele>54.0</ele><time>2026-05-02T09:20:09.443Z</time></trkpt><trkpt lat="44.1176633" lon="12.2698883"><ele>54.0</ele><time>2026-05-02T09:20:13.443Z</time></trkpt><trkpt lat="44.1176317" lon="12.2699833"><ele>54.0</ele><time>2026-05-02T09:20:18.442Z</time></trkpt><trkpt lat="44.117605" lon="12.2700683"><ele>54.0</ele><time>2026-05-02T09:20:24.44Z</time></trkpt><trkpt lat="44.1175817" lon="12.27016"><ele>54.0</ele><time>2026-05-02T09:20:30.442Z</time></trkpt><trkpt lat="44.1175617" lon="12.2702567"><ele>54.714285714285715</ele><time>2026-05-02T09:20:37.441Z</time></trkpt><trkpt lat="44.1175317" lon="12.2703367"><ele>55.42857142857143</ele><time>2026-05-02T09:20:42.442Z</time></trkpt><trkpt lat="44.1175217" lon="12.2704233"><ele>56.14285714285714</ele><time>2026-05-02T09:20:47.439Z</time></trkpt><trkpt lat="44.1175217" lon="12.2705133"><ele>56.85714285714286</ele><time>2026-05-02T09:20:52.439Z</time></trkpt><trkpt lat="44.117525" lon="12.2706033"><ele>57.57142857142858</ele><time>2026-05-02T09:20:57.442Z</time></trkpt><trkpt lat="44.117515" lon="12.2707"><ele>58.285714285714285</ele><time>2026-05-02T09:21:03.441Z</time></trkpt><trkpt lat="44.11753" lon="12.2707883"><ele>59.0</ele><time>2026-05-02T09:21:09.443Z</time></trkpt><trkpt lat="44.1175467" lon="12.2708733"><ele>59.857142857142854</ele><time>2026-05-02T09:21:14.443Z</time></trkpt><trkpt lat="44.11755" lon="12.270965"><ele>60.71428571428572</ele><time>2026-05-02T09:21:20.44Z</time></trkpt><trkpt lat="44.11755" lon="12.2710633"><ele>61.57142857142858</ele><time>2026-05-02T09:21:25.44Z</time></trkpt><trkpt lat="44.1175367" lon="12.2711617"><ele>62.42857142857143</ele><time>2026-05-02T09:21:30.443Z</time></trkpt><trkpt lat="44.1175283" lon="12.2712617"><ele>63.28571428571429</ele><time>2026-05-02T09:21:35.439Z</time></trkpt><trkpt lat="44.1175217" lon="12.2713683"><ele>64.14285714285715</ele><time>2026-05-02T09:21:42.442Z</time></trkpt><trkpt lat="44.117515" lon="12.271465"><ele>65.0</ele><time>2026-05-02T09:21:49.441Z</time></trkpt><trkpt lat="44.1175217" lon="12.2715633"><ele>66.83333333333334</ele><time>2026-05-02T09:21:56.441Z</time></trkpt><trkpt lat="44.117545" lon="12.2716883"><ele>68.66666666666667</ele><time>2026-05-02T09:22:04.44Z</time></trkpt><trkpt lat="44.1175517" lon="12.2717767"><ele>70.5</ele><time>2026-05-02T09:22:10.44Z</time></trkpt><trkpt lat="44.1175517" lon="12.2718983"><ele>72.33333333333333</ele><time>2026-05-02T09:22:17.442Z</time></trkpt><trkpt lat="44.1175667" lon="12.271985"><ele>74.16666666666666</ele><time>2026-05-02T09:22:23.439Z</time></trkpt><trkpt lat="44.1175667" lon="12.27209"><ele>76.0</ele><time>2026-05-02T09:22:29.441Z</time></trkpt><trkpt lat="44.1175817" lon="12.2722433"><ele>76.2</ele><time>2026-05-02T09:22:38.443Z</time></trkpt><trkpt lat="44.1175733" lon="12.2723417"><ele>76.39999999999999</ele><time>2026-05-02T09:22:42.439Z</time></trkpt><trkpt lat="44.11755" lon="12.2724683"><ele>76.6</ele><time>2026-05-02T09:22:45.439Z</time></trkpt><trkpt lat="44.1175367" lon="12.2725983"><ele>76.8</ele><time>2026-05-02T09:22:47.439Z</time></trkpt><trkpt lat="44.1175067" lon="12.2727533"><ele>77.0</ele><time>2026-05-02T09:22:49.439Z</time></trkpt><trkpt lat="44.1174717" lon="12.2728933"><ele>77.0</ele><time>2026-05-02T09:22:51.44Z</time></trkpt><trkpt lat="44.1174367" lon="12.2729967"><ele>77.0</ele><time>2026-05-02T09:22:53.44Z</time></trkpt><trkpt lat="44.1174467" lon="12.2730983"><ele>77.0</ele><time>2026-05-02T09:22:57.44Z</time></trkpt><trkpt lat="44.117515" lon="12.273155"><ele>77.0</ele><time>2026-05-02T09:23:00.44Z</time></trkpt><trkpt lat="44.1175517" lon="12.2732617"><ele>77.0</ele><time>2026-05-02T09:23:03.439Z</time></trkpt><trkpt lat="44.1174767" lon="12.2733717"><ele>77.0</ele><time>2026-05-02T09:23:05.44Z</time></trkpt><trkpt lat="44.1173933" lon="12.27349"><ele>75.5</ele><time>2026-05-02T09:23:07.443Z</time></trkpt><trkpt lat="44.1173417" lon="12.273645"><ele>74.0</ele><time>2026-05-02T09:23:09.443Z</time></trkpt><trkpt lat="44.117335" lon="12.2737367"><ele>72.5</ele><time>2026-05-02T09:23:10.44Z</time></trkpt><trkpt lat="44.11734" lon="12.2738317"><ele>71.0</ele><time>2026-05-02T09:23:11.439Z</time></trkpt><trkpt lat="44.117345" lon="12.2739333"><ele>69.5</ele><time>2026-05-02T09:23:12.44Z</time></trkpt><trkpt lat="44.11735" lon="12.2740367"><ele>68.0</ele><time>2026-05-02T09:23:13.439Z</time></trkpt><trkpt lat="44.1173517" lon="12.27414"><ele>66.66666666666667</ele><time>2026-05-02T09:23:14.44Z</time></trkpt><trkpt lat="44.11736" lon="12.274255"><ele>65.33333333333334</ele><time>2026-05-02T09:23:15.441Z</time></trkpt><trkpt lat="44.117365" lon="12.2743717"><ele>64.0</ele><time>2026-05-02T09:23:16.439Z</time></trkpt><trkpt lat="44.1173733" lon="12.2744817"><ele>62.66666666666667</ele><time>2026-05-02T09:23:17.442Z</time></trkpt><trkpt lat="44.11738" lon="12.274585"><ele>61.333333333333336</ele><time>2026-05-02T09:23:18.44Z</time></trkpt><trkpt lat="44.11739" lon="12.2746867"><ele>60.0</ele><time>2026-05-02T09:23:19.439Z</time></trkpt><trkpt lat="44.117395" lon="12.2747917"><ele>58.5</ele><time>2026-05-02T09:23:20.438Z</time></trkpt><trkpt lat="44.117395" lon="12.2748933"><ele>57.0</ele><time>2026-05-02T09:23:21.44Z</time></trkpt><trkpt lat="44.1173967" lon="12.2749917"><ele>55.5</ele><time>2026-05-02T09:23:22.439Z</time></trkpt><trkpt lat="44.1173967" lon="12.2750867"><ele>54.0</ele><time>2026-05-02T09:23:23.44Z</time></trkpt><trkpt lat="44.1173967" lon="12.275175"><ele>52.5</ele><time>2026-05-02T09:23:24.44Z</time></trkpt><trkpt lat="44.1174067" lon="12.2753467"><ele>51.0</ele><time>2026-05-02T09:23:26.44Z</time></trkpt><trkpt lat="44.1174133" lon="12.27544"><ele>51.0</ele><time>2026-05-02T09:23:27.441Z</time></trkpt><trkpt lat="44.1174217" lon="12.275535"><ele>51.0</ele><time>2026-05-02T09:23:28.439Z</time></trkpt><trkpt lat="44.1174333" lon="12.2756267"><ele>51.0</ele><time>2026-05-02T09:23:29.44Z</time></trkpt><trkpt lat="44.1174417" lon="12.2757183"><ele>51.0</ele><time>2026-05-02T09:23:30.441Z</time></trkpt><trkpt lat="44.11745" lon="12.27582"><ele>51.0</ele><time>2026-05-02T09:23:31.439Z</time></trkpt><trkpt lat="44.1174567" lon="12.2759217"><ele>51.0</ele><time>2026-05-02T09:23:32.44Z</time></trkpt><trkpt lat="44.1174633" lon="12.2760183"><ele>51.0</ele><time>2026-05-02T09:23:33.439Z</time></trkpt><trkpt lat="44.1174783" lon="12.2761733"><ele>49.599999999999994</ele><time>2026-05-02T09:23:35.438Z</time></trkpt><trkpt lat="44.1175517" lon="12.2762517"><ele>48.2</ele><time>2026-05-02T09:23:37.439Z</time></trkpt><trkpt lat="44.1176583" lon="12.276265"><ele>46.8</ele><time>2026-05-02T09:23:39.441Z</time></trkpt><trkpt lat="44.117735" lon="12.27632"><ele>45.400000000000006</ele><time>2026-05-02T09:23:41.44Z</time></trkpt><trkpt lat="44.1177417" lon="12.27645"><ele>44.0</ele><time>2026-05-02T09:23:43.439Z</time></trkpt><trkpt lat="44.117745" lon="12.27659"><ele>43.5</ele><time>2026-05-02T09:23:45.44Z</time></trkpt><trkpt lat="44.1177567" lon="12.2767167"><ele>43.0</ele><time>2026-05-02T09:23:47.439Z</time></trkpt><trkpt lat="44.11775" lon="12.276835"><ele>42.5</ele><time>2026-05-02T09:23:49.441Z</time></trkpt><trkpt lat="44.1176867" lon="12.2769"><ele>42.0</ele><time>2026-05-02T09:23:51.44Z</time></trkpt><trkpt lat="44.1176033" lon="12.2769167"><ele>41.5</ele><time>2026-05-02T09:23:53.439Z</time></trkpt><trkpt lat="44.1175367" lon="12.27698"><ele>41.0</ele><time>2026-05-02T09:23:55.439Z</time></trkpt><trkpt lat="44.117525" lon="12.2770883"><ele>41.0</ele><time>2026-05-02T09:23:57.44Z</time></trkpt><trkpt lat="44.1175367" lon="12.2772117"><ele>41.0</ele><time>2026-05-02T09:23:59.438Z</time></trkpt><trkpt lat="44.1175433" lon="12.2773333"><ele>41.0</ele><time>2026-05-02T09:24:01.44Z</time></trkpt><trkpt lat="44.1175517" lon="12.27746"><ele>41.0</ele><time>2026-05-02T09:24:03.44Z</time></trkpt><trkpt lat="44.11756" lon="12.2775833"><ele>41.0</ele><time>2026-05-02T09:24:05.439Z</time></trkpt><trkpt lat="44.117565" lon="12.2777"><ele>41.0</ele><time>2026-05-02T09:24:07.44Z</time></trkpt><trkpt lat="44.1175733" lon="12.2778"><ele>40.666666666666664</ele><time>2026-05-02T09:24:09.441Z</time></trkpt><trkpt lat="44.1175733" lon="12.2778967"><ele>40.33333333333333</ele><time>2026-05-02T09:24:11.44Z</time></trkpt><trkpt lat="44.1175" lon="12.27797"><ele>40.0</ele><time>2026-05-02T09:24:14.439Z</time></trkpt><trkpt lat="44.117435" lon="12.27797"><ele>39.666666666666664</ele><time>2026-05-02T09:24:16.439Z</time></trkpt><trkpt lat="44.1173583" lon="12.2779617"><ele>39.333333333333336</ele><time>2026-05-02T09:24:18.44Z</time></trkpt><trkpt lat="44.1172783" lon="12.2779583"><ele>39.0</ele><time>2026-05-02T09:24:20.441Z</time></trkpt><trkpt lat="44.1171983" lon="12.2779567"><ele>39.0</ele><time>2026-05-02T09:24:22.441Z</time></trkpt><trkpt lat="44.1171183" lon="12.2779567"><ele>39.0</ele><time>2026-05-02T09:24:24.441Z</time></trkpt><trkpt lat="44.1170367" lon="12.2779517"><ele>39.0</ele><time>2026-05-02T09:24:26.44Z</time></trkpt><trkpt lat="44.1169467" lon="12.27795"><ele>39.0</ele><time>2026-05-02T09:24:28.441Z</time></trkpt><trkpt lat="44.1168567" lon="12.27795"><ele>39.0</ele><time>2026-05-02T09:24:30.441Z</time></trkpt><trkpt lat="44.116765" lon="12.27794"><ele>39.0</ele><time>2026-05-02T09:24:32.44Z</time></trkpt><trkpt lat="44.1166667" lon="12.2779233"><ele>39.4</ele><time>2026-05-02T09:24:34.439Z</time></trkpt><trkpt lat="44.1165683" lon="12.277915"><ele>39.8</ele><time>2026-05-02T09:24:36.44Z</time></trkpt><trkpt lat="44.1164733" lon="12.2779117"><ele>40.199999999999996</ele><time>2026-05-02T09:24:38.441Z</time></trkpt><trkpt lat="44.1163783" lon="12.27791"><ele>40.599999999999994</ele><time>2026-05-02T09:24:40.44Z</time></trkpt><trkpt lat="44.116285" lon="12.2779083"><ele>41.0</ele><time>2026-05-02T09:24:42.441Z</time></trkpt><trkpt lat="44.116185" lon="12.27791"><ele>41.0</ele><time>2026-05-02T09:24:44.44Z</time></trkpt><trkpt lat="44.1160883" lon="12.277915"><ele>41.0</ele><time>2026-05-02T09:24:46.44Z</time></trkpt><trkpt lat="44.1159883" lon="12.2779183"><ele>41.0</ele><time>2026-05-02T09:24:48.441Z</time></trkpt><trkpt lat="44.1158933" lon="12.2779117"><ele>41.0</ele><time>2026-05-02T09:24:50.441Z</time></trkpt><trkpt lat="44.115795" lon="12.2778983"><ele>41.0</ele><time>2026-05-02T09:24:52.44Z</time></trkpt><trkpt lat="44.1157" lon="12.2778917"><ele>41.199999999999996</ele><time>2026-05-02T09:24:54.44Z</time></trkpt><trkpt lat="44.1156067" lon="12.27788"><ele>41.4</ele><time>2026-05-02T09:24:56.441Z</time></trkpt><trkpt lat="44.1155117" lon="12.2778683"><ele>41.6</ele><time>2026-05-02T09:24:58.44Z</time></trkpt><trkpt lat="44.1154167" lon="12.277865"><ele>41.8</ele><time>2026-05-02T09:25:00.44Z</time></trkpt><trkpt lat="44.1153267" lon="12.27785"><ele>42.0</ele><time>2026-05-02T09:25:02.439Z</time></trkpt><trkpt lat="44.1152333" lon="12.2778383"><ele>42.0</ele><time>2026-05-02T09:25:04.44Z</time></trkpt><trkpt lat="44.115135" lon="12.277845"><ele>42.0</ele><time>2026-05-02T09:25:06.441Z</time></trkpt><trkpt lat="44.1150383" lon="12.27786"><ele>42.0</ele><time>2026-05-02T09:25:08.439Z</time></trkpt><trkpt lat="44.1149467" lon="12.2778767"><ele>42.0</ele><time>2026-05-02T09:25:10.439Z</time></trkpt><trkpt lat="44.1148567" lon="12.27791"><ele>42.0</ele><time>2026-05-02T09:25:12.439Z</time></trkpt><trkpt lat="44.1147717" lon="12.2779567"><ele>42.166666666666664</ele><time>2026-05-02T09:25:14.44Z</time></trkpt><trkpt lat="44.1146883" lon="12.27802"><ele>42.333333333333336</ele><time>2026-05-02T09:25:16.44Z</time></trkpt><trkpt lat="44.11461" lon="12.2780883"><ele>42.5</ele><time>2026-05-02T09:25:18.439Z</time></trkpt><trkpt lat="44.114535" lon="12.278155"><ele>42.66666666666667</ele><time>2026-05-02T09:25:20.441Z</time></trkpt><trkpt lat="44.1144633" lon="12.2782183"><ele>42.833333333333336</ele><time>2026-05-02T09:25:22.439Z</time></trkpt><trkpt lat="44.1143983" lon="12.2782883"><ele>43.0</ele><time>2026-05-02T09:25:24.439Z</time></trkpt><trkpt lat="44.114365" lon="12.27838"><ele>43.0</ele><time>2026-05-02T09:25:26.44Z</time></trkpt><trkpt lat="44.1143233" lon="12.2784567"><ele>43.0</ele><time>2026-05-02T09:25:28.439Z</time></trkpt><trkpt lat="44.11427" lon="12.2785283"><ele>43.0</ele><time>2026-05-02T09:25:30.439Z</time></trkpt><trkpt lat="44.11422" lon="12.2786067"><ele>43.0</ele><time>2026-05-02T09:25:32.442Z</time></trkpt><trkpt lat="44.1141633" lon="12.2786783"><ele>43.0</ele><time>2026-05-02T09:25:34.443Z</time></trkpt><trkpt lat="44.1140983" lon="12.278755"><ele>43.0</ele><time>2026-05-02T09:25:36.442Z</time></trkpt><trkpt lat="44.1140383" lon="12.2788317"><ele>43.28571428571429</ele><time>2026-05-02T09:25:38.439Z</time></trkpt><trkpt lat="44.1139817" lon="12.2789017"><ele>43.57142857142857</ele><time>2026-05-02T09:25:40.441Z</time></trkpt><trkpt lat="44.1139283" lon="12.278975"><ele>43.85714285714286</ele><time>2026-05-02T09:25:42.44Z</time></trkpt><trkpt lat="44.1138733" lon="12.2790467"><ele>44.142857142857146</ele><time>2026-05-02T09:25:44.441Z</time></trkpt><trkpt lat="44.1138167" lon="12.279115"><ele>44.42857142857143</ele><time>2026-05-02T09:25:46.439Z</time></trkpt><trkpt lat="44.11376" lon="12.2791817"><ele>44.714285714285715</ele><time>2026-05-02T09:25:48.44Z</time></trkpt><trkpt lat="44.1137017" lon="12.27924"><ele>45.0</ele><time>2026-05-02T09:25:50.44Z</time></trkpt><trkpt lat="44.113645" lon="12.2793033"><ele>45.14285714285714</ele><time>2026-05-02T09:25:52.44Z</time></trkpt><trkpt lat="44.1135867" lon="12.2793717"><ele>45.28571428571429</ele><time>2026-05-02T09:25:54.439Z</time></trkpt><trkpt lat="44.1135317" lon="12.2794383"><ele>45.42857142857143</ele><time>2026-05-02T09:25:56.44Z</time></trkpt><trkpt lat="44.1134783" lon="12.2795083"><ele>45.57142857142857</ele><time>2026-05-02T09:25:58.441Z</time></trkpt><trkpt lat="44.1134333" lon="12.2795917"><ele>45.71428571428571</ele><time>2026-05-02T09:26:00.442Z</time></trkpt><trkpt lat="44.113405" lon="12.2796833"><ele>45.85714285714286</ele><time>2026-05-02T09:26:02.441Z</time></trkpt><trkpt lat="44.1133933" lon="12.2797783"><ele>46.0</ele><time>2026-05-02T09:26:04.441Z</time></trkpt><trkpt lat="44.11338" lon="12.2798767"><ele>46.0</ele><time>2026-05-02T09:26:06.441Z</time></trkpt><trkpt lat="44.1133733" lon="12.27997"><ele>46.0</ele><time>2026-05-02T09:26:08.441Z</time></trkpt><trkpt lat="44.113365" lon="12.2800983"><ele>46.0</ele><time>2026-05-02T09:26:11.44Z</time></trkpt><trkpt lat="44.1133433" lon="12.2802233"><ele>46.0</ele><time>2026-05-02T09:26:14.442Z</time></trkpt><trkpt lat="44.1133317" lon="12.280335"><ele>46.0</ele><time>2026-05-02T09:26:17.442Z</time></trkpt><trkpt lat="44.1133267" lon="12.2804317"><ele>46.0</ele><time>2026-05-02T09:26:20.443Z</time></trkpt><trkpt lat="44.1133217" lon="12.2805333"><ele>46.85714285714286</ele><time>2026-05-02T09:26:24.439Z</time></trkpt><trkpt lat="44.1133083" lon="12.2806367"><ele>47.71428571428571</ele><time>2026-05-02T09:26:30.439Z</time></trkpt><trkpt lat="44.1133083" lon="12.2807317"><ele>48.57142857142857</ele><time>2026-05-02T09:26:35.44Z</time></trkpt><trkpt lat="44.1133183" lon="12.28083"><ele>49.42857142857143</ele><time>2026-05-02T09:26:41.443Z</time></trkpt><trkpt lat="44.1133383" lon="12.2809183"><ele>50.28571428571429</ele><time>2026-05-02T09:26:46.443Z</time></trkpt><trkpt lat="44.11334" lon="12.2810067"><ele>51.14285714285714</ele><time>2026-05-02T09:26:51.443Z</time></trkpt><trkpt lat="44.11334" lon="12.2810967"><ele>52.0</ele><time>2026-05-02T09:26:56.44Z</time></trkpt><trkpt lat="44.1133617" lon="12.281185"><ele>52.0</ele><time>2026-05-02T09:27:01.44Z</time></trkpt><trkpt lat="44.1133717" lon="12.281285"><ele>52.0</ele><time>2026-05-02T09:27:07.443Z</time></trkpt><trkpt lat="44.11338" lon="12.28138"><ele>52.0</ele><time>2026-05-02T09:27:12.439Z</time></trkpt><trkpt lat="44.1133583" lon="12.2814633"><ele>52.0</ele><time>2026-05-02T09:27:16.441Z</time></trkpt><trkpt lat="44.1133733" lon="12.2815517"><ele>52.0</ele><time>2026-05-02T09:27:21.441Z</time></trkpt><trkpt lat="44.1133767" lon="12.28164"><ele>52.0</ele><time>2026-05-02T09:27:26.441Z</time></trkpt><trkpt lat="44.113395" lon="12.281735"><ele>52.0</ele><time>2026-05-02T09:27:31.44Z</time></trkpt><trkpt lat="44.113385" lon="12.281835"><ele>53.14285714285714</ele><time>2026-05-02T09:27:37.442Z</time></trkpt><trkpt lat="44.11341" lon="12.2819267"><ele>54.28571428571429</ele><time>2026-05-02T09:27:42.442Z</time></trkpt><trkpt lat="44.1134267" lon="12.2820233"><ele>55.42857142857143</ele><time>2026-05-02T09:27:48.44Z</time></trkpt><trkpt lat="44.1133967" lon="12.2821117"><ele>56.57142857142857</ele><time>2026-05-02T09:27:53.439Z</time></trkpt><trkpt lat="44.1134067" lon="12.2821983"><ele>57.71428571428571</ele><time>2026-05-02T09:27:58.439Z</time></trkpt><trkpt lat="44.1134" lon="12.2822983"><ele>58.85714285714286</ele><time>2026-05-02T09:28:04.442Z</time></trkpt><trkpt lat="44.1134017" lon="12.2824017"><ele>60.0</ele><time>2026-05-02T09:28:10.442Z</time></trkpt><trkpt lat="44.1134033" lon="12.2824967"><ele>61.142857142857146</ele><time>2026-05-02T09:28:15.44Z</time></trkpt><trkpt lat="44.1133733" lon="12.282585"><ele>62.28571428571428</ele><time>2026-05-02T09:28:20.44Z</time></trkpt><trkpt lat="44.11338" lon="12.28268"><ele>63.42857142857142</ele><time>2026-05-02T09:28:26.44Z</time></trkpt><trkpt lat="44.113365" lon="12.28277"><ele>64.57142857142857</ele><time>2026-05-02T09:28:31.44Z</time></trkpt><trkpt lat="44.1133533" lon="12.2828667"><ele>65.71428571428571</ele><time>2026-05-02T09:28:36.441Z</time></trkpt><trkpt lat="44.1133467" lon="12.2829733"><ele>66.85714285714285</ele><time>2026-05-02T09:28:41.44Z</time></trkpt><trkpt lat="44.1133267" lon="12.283065"><ele>68.0</ele><time>2026-05-02T09:28:45.439Z</time></trkpt><trkpt lat="44.1133117" lon="12.2831583"><ele>68.42857142857142</ele><time>2026-05-02T09:28:49.439Z</time></trkpt><trkpt lat="44.1132917" lon="12.283245"><ele>68.85714285714286</ele><time>2026-05-02T09:28:53.439Z</time></trkpt><trkpt lat="44.1132583" lon="12.2833333"><ele>69.28571428571428</ele><time>2026-05-02T09:28:57.439Z</time></trkpt><trkpt lat="44.113235" lon="12.283445"><ele>69.71428571428571</ele><time>2026-05-02T09:29:01.439Z</time></trkpt><trkpt lat="44.113195" lon="12.2835283"><ele>70.14285714285714</ele><time>2026-05-02T09:29:05.441Z</time></trkpt><trkpt lat="44.1131583" lon="12.2836267"><ele>70.57142857142857</ele><time>2026-05-02T09:29:09.439Z</time></trkpt><trkpt lat="44.1131233" lon="12.28371"><ele>71.0</ele><time>2026-05-02T09:29:12.44Z</time></trkpt><trkpt lat="44.1130883" lon="12.2838"><ele>71.0</ele><time>2026-05-02T09:29:15.441Z</time></trkpt><trkpt lat="44.113045" lon="12.2838867"><ele>71.0</ele><time>2026-05-02T09:29:18.439Z</time></trkpt><trkpt lat="44.1130083" lon="12.2839683"><ele>71.0</ele><time>2026-05-02T09:29:21.44Z</time></trkpt><trkpt lat="44.1129633" lon="12.2840483"><ele>71.0</ele><time>2026-05-02T09:29:24.44Z</time></trkpt><trkpt lat="44.112925" lon="12.284135"><ele>71.0</ele><time>2026-05-02T09:29:27.439Z</time></trkpt><trkpt lat="44.1128933" lon="12.2842267"><ele>71.0</ele><time>2026-05-02T09:29:30.439Z</time></trkpt><trkpt lat="44.1128583" lon="12.28432"><ele>71.0</ele><time>2026-05-02T09:29:33.44Z</time></trkpt><trkpt lat="44.11282" lon="12.2844133"><ele>72.42857142857143</ele><time>2026-05-02T09:29:36.44Z</time></trkpt><trkpt lat="44.112785" lon="12.2844967"><ele>73.85714285714285</ele><time>2026-05-02T09:29:39.44Z</time></trkpt><trkpt lat="44.1127617" lon="12.2845833"><ele>75.28571428571428</ele><time>2026-05-02T09:29:42.439Z</time></trkpt><trkpt lat="44.1127333" lon="12.28467"><ele>76.71428571428571</ele><time>2026-05-02T09:29:45.439Z</time></trkpt><trkpt lat="44.112695" lon="12.2847533"><ele>78.14285714285714</ele><time>2026-05-02T09:29:48.44Z</time></trkpt><trkpt lat="44.1126617" lon="12.284845"><ele>79.57142857142857</ele><time>2026-05-02T09:29:51.441Z</time></trkpt><trkpt lat="44.1126367" lon="12.2849317"><ele>81.0</ele><time>2026-05-02T09:29:54.44Z</time></trkpt><trkpt lat="44.112575" lon="12.285005"><ele>81.42857142857143</ele><time>2026-05-02T09:29:58.44Z</time></trkpt><trkpt lat="44.1125183" lon="12.285055"><ele>81.85714285714286</ele><time>2026-05-02T09:30:01.439Z</time></trkpt><trkpt lat="44.1124533" lon="12.28512"><ele>82.28571428571428</ele><time>2026-05-02T09:30:05.439Z</time></trkpt><trkpt lat="44.1124017" lon="12.285175"><ele>82.71428571428572</ele><time>2026-05-02T09:30:08.439Z</time></trkpt><trkpt lat="44.112335" lon="12.2852483"><ele>83.14285714285714</ele><time>2026-05-02T09:30:12.44Z</time></trkpt><trkpt lat="44.11228" lon="12.2852983"><ele>83.57142857142857</ele><time>2026-05-02T09:30:15.441Z</time></trkpt><trkpt lat="44.1122217" lon="12.2853417"><ele>84.0</ele><time>2026-05-02T09:30:19.44Z</time></trkpt><trkpt lat="44.1121533" lon="12.285365"><ele>84.42857142857143</ele><time>2026-05-02T09:30:23.44Z</time></trkpt><trkpt lat="44.1120783" lon="12.28537"><ele>84.85714285714286</ele><time>2026-05-02T09:30:28.439Z</time></trkpt><trkpt lat="44.112015" lon="12.2853867"><ele>85.28571428571428</ele><time>2026-05-02T09:30:32.44Z</time></trkpt><trkpt lat="44.11194" lon="12.285405"><ele>85.71428571428572</ele><time>2026-05-02T09:30:37.44Z</time></trkpt><trkpt lat="44.1118683" lon="12.2854183"><ele>86.14285714285714</ele><time>2026-05-02T09:30:42.439Z</time></trkpt><trkpt lat="44.1117933" lon="12.2854433"><ele>86.57142857142857</ele><time>2026-05-02T09:30:47.44Z</time></trkpt><trkpt lat="44.1117233" lon="12.285485"><ele>87.0</ele><time>2026-05-02T09:30:52.439Z</time></trkpt><trkpt lat="44.11166" lon="12.28555"><ele>86.85714285714286</ele><time>2026-05-02T09:30:58.44Z</time></trkpt><trkpt lat="44.1115933" lon="12.2855967"><ele>86.71428571428572</ele><time>2026-05-02T09:31:02.44Z</time></trkpt><trkpt lat="44.1115333" lon="12.2856417"><ele>86.57142857142858</ele><time>2026-05-02T09:31:06.443Z</time></trkpt><trkpt lat="44.1114667" lon="12.2857033"><ele>86.42857142857143</ele><time>2026-05-02T09:31:10.439Z</time></trkpt><trkpt lat="44.1114233" lon="12.285785"><ele>86.28571428571429</ele><time>2026-05-02T09:31:14.44Z</time></trkpt><trkpt lat="44.111385" lon="12.285855"><ele>86.14285714285715</ele><time>2026-05-02T09:31:17.44Z</time></trkpt><trkpt lat="44.11134" lon="12.28592"><ele>86.0</ele><time>2026-05-02T09:31:20.44Z</time></trkpt><trkpt lat="44.1112867" lon="12.2859717"><ele>87.71428571428572</ele><time>2026-05-02T09:31:23.443Z</time></trkpt><trkpt lat="44.1112317" lon="12.28602"><ele>89.42857142857143</ele><time>2026-05-02T09:31:26.44Z</time></trkpt><trkpt lat="44.1111717" lon="12.2860833"><ele>91.14285714285714</ele><time>2026-05-02T09:31:30.441Z</time></trkpt><trkpt lat="44.1111083" lon="12.2861283"><ele>92.85714285714286</ele><time>2026-05-02T09:31:34.438Z</time></trkpt><trkpt lat="44.11103" lon="12.2861433"><ele>94.57142857142857</ele><time>2026-05-02T09:31:38.44Z</time></trkpt><trkpt lat="44.11095" lon="12.2861633"><ele>96.28571428571429</ele><time>2026-05-02T09:31:42.443Z</time></trkpt><trkpt lat="44.1109383" lon="12.2862617"><ele>98.0</ele><time>2026-05-02T09:31:55.44Z</time></trkpt><trkpt lat="44.1109617" lon="12.28636"><ele>96.99999999999999</ele><time>2026-05-02T09:31:59.44Z</time></trkpt><trkpt lat="44.1109933" lon="12.2864717"><ele>96.0</ele><time>2026-05-02T09:32:02.44Z</time></trkpt><trkpt lat="44.1110167" lon="12.28659"><ele>95.0</ele><time>2026-05-02T09:32:05.439Z</time></trkpt><trkpt lat="44.111045" lon="12.2866833"><ele>94.0</ele><time>2026-05-02T09:32:07.439Z</time></trkpt><trkpt lat="44.1110733" lon="12.28679"><ele>93.0</ele><time>2026-05-02T09:32:09.44Z</time></trkpt><trkpt lat="44.1110983" lon="12.2868817"><ele>92.0</ele><time>2026-05-02T09:32:11.44Z</time></trkpt><trkpt lat="44.1111183" lon="12.28697"><ele>92.0</ele><time>2026-05-02T09:32:13.44Z</time></trkpt><trkpt lat="44.1111367" lon="12.287055"><ele>92.0</ele><time>2026-05-02T09:32:15.44Z</time></trkpt><trkpt lat="44.1111517" lon="12.2871667"><ele>92.0</ele><time>2026-05-02T09:32:18.439Z</time></trkpt><trkpt lat="44.111175" lon="12.2872567"><ele>92.0</ele><time>2026-05-02T09:32:21.444Z</time></trkpt><trkpt lat="44.1112033" lon="12.287385"><ele>92.0</ele><time>2026-05-02T09:32:24.442Z</time></trkpt><trkpt lat="44.11123" lon="12.2874833"><ele>92.0</ele><time>2026-05-02T09:32:26.44Z</time></trkpt><trkpt lat="44.11125" lon="12.2875733"><ele>91.83333333333334</ele><time>2026-05-02T09:32:28.44Z</time></trkpt><trkpt lat="44.1112783" lon="12.2876717"><ele>91.66666666666667</ele><time>2026-05-02T09:32:30.441Z</time></trkpt><trkpt lat="44.1112983" lon="12.2877617"><ele>91.5</ele><time>2026-05-02T09:32:32.442Z</time></trkpt><trkpt lat="44.1113317" lon="12.2878783"><ele>91.33333333333333</ele><time>2026-05-02T09:32:35.44Z</time></trkpt><trkpt lat="44.11136" lon="12.2880033"><ele>91.16666666666666</ele><time>2026-05-02T09:32:38.443Z</time></trkpt><trkpt lat="44.1113767" lon="12.2881033"><ele>91.0</ele><time>2026-05-02T09:32:40.44Z</time></trkpt><trkpt lat="44.1113917" lon="12.28821"><ele>90.0</ele><time>2026-05-02T09:32:42.44Z</time></trkpt><trkpt lat="44.1114033" lon="12.2883183"><ele>89.0</ele><time>2026-05-02T09:32:44.442Z</time></trkpt><trkpt lat="44.1114217" lon="12.2884333"><ele>88.0</ele><time>2026-05-02T09:32:46.44Z</time></trkpt><trkpt lat="44.1114267" lon="12.2885367"><ele>87.0</ele><time>2026-05-02T09:32:48.44Z</time></trkpt><trkpt lat="44.1114367" lon="12.28863"><ele>86.0</ele><time>2026-05-02T09:32:50.443Z</time></trkpt><trkpt lat="44.1114417" lon="12.2887283"><ele>85.0</ele><time>2026-05-02T09:32:52.44Z</time></trkpt><trkpt lat="44.1114333" lon="12.288835"><ele>82.83333333333333</ele><time>2026-05-02T09:32:54.441Z</time></trkpt><trkpt lat="44.1114183" lon="12.28896"><ele>80.66666666666666</ele><time>2026-05-02T09:32:56.443Z</time></trkpt><trkpt lat="44.1114" lon="12.2890933"><ele>78.5</ele><time>2026-05-02T09:32:58.44Z</time></trkpt><trkpt lat="44.1113817" lon="12.28922"><ele>76.33333333333333</ele><time>2026-05-02T09:33:00.44Z</time></trkpt><trkpt lat="44.1113617" lon="12.2893317"><ele>74.16666666666667</ele><time>2026-05-02T09:33:02.442Z</time></trkpt><trkpt lat="44.1113383" lon="12.2894333"><ele>72.0</ele><time>2026-05-02T09:33:04.441Z</time></trkpt><trkpt lat="44.1113133" lon="12.2895433"><ele>72.0</ele><time>2026-05-02T09:33:06.441Z</time></trkpt><trkpt lat="44.1112833" lon="12.2896567"><ele>72.0</ele><time>2026-05-02T09:33:08.441Z</time></trkpt><trkpt lat="44.111255" lon="12.289785"><ele>72.0</ele><time>2026-05-02T09:33:10.441Z</time></trkpt><trkpt lat="44.11121" lon="12.2899167"><ele>72.0</ele><time>2026-05-02T09:33:12.441Z</time></trkpt><trkpt lat="44.1111517" lon="12.2900383"><ele>72.0</ele><time>2026-05-02T09:33:14.442Z</time></trkpt><trkpt lat="44.1110867" lon="12.2901517"><ele>70.5</ele><time>2026-05-02T09:33:16.441Z</time></trkpt><trkpt lat="44.111025" lon="12.2902583"><ele>69.0</ele><time>2026-05-02T09:33:18.439Z</time></trkpt><trkpt lat="44.1109683" lon="12.2903117"><ele>67.5</ele><time>2026-05-02T09:33:20.441Z</time></trkpt><trkpt lat="44.1108867" lon="12.2903567"><ele>66.0</ele><time>2026-05-02T09:33:23.439Z</time></trkpt><trkpt lat="44.11081" lon="12.2903917"><ele>64.5</ele><time>2026-05-02T09:33:27.441Z</time></trkpt><trkpt lat="44.1107367" lon="12.2904233"><ele>63.0</ele><time>2026-05-02T09:33:31.442Z</time></trkpt><trkpt lat="44.11066" lon="12.29045"><ele>63.0</ele><time>2026-05-02T09:33:35.441Z</time></trkpt><trkpt lat="44.1106017" lon="12.290495"><ele>63.0</ele><time>2026-05-02T09:33:38.441Z</time></trkpt><trkpt lat="44.1105217" lon="12.2905233"><ele>63.0</ele><time>2026-05-02T09:33:41.44Z</time></trkpt><trkpt lat="44.1104483" lon="12.29057"><ele>63.0</ele><time>2026-05-02T09:33:44.441Z</time></trkpt><trkpt lat="44.1103883" lon="12.2906233"><ele>63.0</ele><time>2026-05-02T09:33:47.444Z</time></trkpt><trkpt lat="44.11032" lon="12.2907083"><ele>63.0</ele><time>2026-05-02T09:33:50.441Z</time></trkpt><trkpt lat="44.1102633" lon="12.29077"><ele>60.833333333333336</ele><time>2026-05-02T09:33:52.441Z</time></trkpt><trkpt lat="44.1102117" lon="12.2908383"><ele>58.66666666666667</ele><time>2026-05-02T09:33:54.44Z</time></trkpt><trkpt lat="44.11015" lon="12.2909033"><ele>56.5</ele><time>2026-05-02T09:33:56.444Z</time></trkpt><trkpt lat="44.11009" lon="12.2909717"><ele>54.333333333333336</ele><time>2026-05-02T09:33:58.441Z</time></trkpt><trkpt lat="44.1100383" lon="12.2910267"><ele>52.16666666666667</ele><time>2026-05-02T09:34:00.441Z</time></trkpt><trkpt lat="44.1099617" lon="12.2911033"><ele>50.0</ele><time>2026-05-02T09:34:03.44Z</time></trkpt><trkpt lat="44.10989" lon="12.29119"><ele>50.00000000000001</ele><time>2026-05-02T09:34:06.442Z</time></trkpt><trkpt lat="44.10984" lon="12.2912433"><ele>50.0</ele><time>2026-05-02T09:34:08.442Z</time></trkpt><trkpt lat="44.1097817" lon="12.2912917"><ele>50.0</ele><time>2026-05-02T09:34:10.442Z</time></trkpt><trkpt lat="44.1097183" lon="12.29133"><ele>50.0</ele><time>2026-05-02T09:34:12.44Z</time></trkpt><trkpt lat="44.1096517" lon="12.2913633"><ele>50.0</ele><time>2026-05-02T09:34:14.441Z</time></trkpt><trkpt lat="44.109585" lon="12.291395"><ele>50.00000000000001</ele><time>2026-05-02T09:34:16.441Z</time></trkpt><trkpt lat="44.1095117" lon="12.2914283"><ele>50.0</ele><time>2026-05-02T09:34:18.44Z</time></trkpt><trkpt lat="44.1094417" lon="12.2914583"><ele>49.142857142857146</ele><time>2026-05-02T09:34:20.439Z</time></trkpt><trkpt lat="44.1093733" lon="12.2914883"><ele>48.285714285714285</ele><time>2026-05-02T09:34:22.44Z</time></trkpt><trkpt lat="44.10931" lon="12.2915117"><ele>47.42857142857143</ele><time>2026-05-02T09:34:24.44Z</time></trkpt><trkpt lat="44.1092467" lon="12.291545"><ele>46.57142857142857</ele><time>2026-05-02T09:34:26.441Z</time></trkpt><trkpt lat="44.1091833" lon="12.29157"><ele>45.714285714285715</ele><time>2026-05-02T09:34:28.439Z</time></trkpt><trkpt lat="44.1091183" lon="12.29159"><ele>44.85714285714286</ele><time>2026-05-02T09:34:30.439Z</time></trkpt><trkpt lat="44.10905" lon="12.29161"><ele>44.0</ele><time>2026-05-02T09:34:32.439Z</time></trkpt><trkpt lat="44.1089883" lon="12.2916333"><ele>44.0</ele><time>2026-05-02T09:34:34.442Z</time></trkpt><trkpt lat="44.1088983" lon="12.2916533"><ele>44.0</ele><time>2026-05-02T09:34:37.443Z</time></trkpt><trkpt lat="44.1088267" lon="12.29166"><ele>44.0</ele><time>2026-05-02T09:34:39.44Z</time></trkpt><trkpt lat="44.1087583" lon="12.29166"><ele>44.0</ele><time>2026-05-02T09:34:41.44Z</time></trkpt><trkpt lat="44.1086933" lon="12.29165"><ele>44.0</ele><time>2026-05-02T09:34:43.44Z</time></trkpt><trkpt lat="44.10863" lon="12.2916367"><ele>44.0</ele><time>2026-05-02T09:34:45.439Z</time></trkpt><trkpt lat="44.1085667" lon="12.2916167"><ele>44.0</ele><time>2026-05-02T09:34:47.439Z</time></trkpt><trkpt lat="44.1084917" lon="12.2916"><ele>44.0</ele><time>2026-05-02T09:34:49.44Z</time></trkpt><trkpt lat="44.1084233" lon="12.29159"><ele>44.0</ele><time>2026-05-02T09:34:51.439Z</time></trkpt><trkpt lat="44.1083433" lon="12.29159"><ele>44.0</ele><time>2026-05-02T09:34:54.439Z</time></trkpt><trkpt lat="44.10826" lon="12.2915683"><ele>44.0</ele><time>2026-05-02T09:34:57.44Z</time></trkpt><trkpt lat="44.1081683" lon="12.2915483"><ele>44.0</ele><time>2026-05-02T09:35:00.439Z</time></trkpt><trkpt lat="44.108105" lon="12.29154"><ele>44.0</ele><time>2026-05-02T09:35:02.442Z</time></trkpt><trkpt lat="44.108025" lon="12.291515"><ele>44.33333333333333</ele><time>2026-05-02T09:35:05.44Z</time></trkpt><trkpt lat="44.1079533" lon="12.29151"><ele>44.666666666666664</ele><time>2026-05-02T09:35:08.441Z</time></trkpt><trkpt lat="44.1078867" lon="12.29156"><ele>45.0</ele><time>2026-05-02T09:35:12.439Z</time></trkpt><trkpt lat="44.1078317" lon="12.29164"><ele>45.333333333333336</ele><time>2026-05-02T09:35:15.443Z</time></trkpt><trkpt lat="44.1077917" lon="12.29175"><ele>45.66666666666667</ele><time>2026-05-02T09:35:18.44Z</time></trkpt><trkpt lat="44.1077567" lon="12.291855"><ele>46.0</ele><time>2026-05-02T09:35:21.44Z</time></trkpt><trkpt lat="44.1077333" lon="12.291965"><ele>46.0</ele><time>2026-05-02T09:35:24.439Z</time></trkpt><trkpt lat="44.1077733" lon="12.29207"><ele>46.0</ele><time>2026-05-02T09:35:27.44Z</time></trkpt><trkpt lat="44.1078033" lon="12.29215"><ele>46.0</ele><time>2026-05-02T09:35:29.44Z</time></trkpt><trkpt lat="44.107835" lon="12.2922333"><ele>46.0</ele><time>2026-05-02T09:35:31.44Z</time></trkpt><trkpt lat="44.1078683" lon="12.2923267"><ele>46.0</ele><time>2026-05-02T09:35:33.443Z</time></trkpt><trkpt lat="44.1079083" lon="12.29242"><ele>46.0</ele><time>2026-05-02T09:35:35.441Z</time></trkpt><trkpt lat="44.1079417" lon="12.2925233"><ele>45.8</ele><time>2026-05-02T09:35:37.442Z</time></trkpt><trkpt lat="44.1079833" lon="12.2926283"><ele>45.599999999999994</ele><time>2026-05-02T09:35:39.442Z</time></trkpt><trkpt lat="44.108025" lon="12.2927417"><ele>45.4</ele><time>2026-05-02T09:35:41.441Z</time></trkpt><trkpt lat="44.1080633" lon="12.2928567"><ele>45.2</ele><time>2026-05-02T09:35:43.442Z</time></trkpt><trkpt lat="44.1081033" lon="12.2929833"><ele>45.0</ele><time>2026-05-02T09:35:45.439Z</time></trkpt><trkpt lat="44.1081433" lon="12.293105"><ele>44.8</ele><time>2026-05-02T09:35:47.44Z</time></trkpt><trkpt lat="44.1081883" lon="12.2932283"><ele>44.6</ele><time>2026-05-02T09:35:49.439Z</time></trkpt><trkpt lat="44.1082283" lon="12.2933567"><ele>44.400000000000006</ele><time>2026-05-02T09:35:51.439Z</time></trkpt><trkpt lat="44.1082633" lon="12.2934933"><ele>44.2</ele><time>2026-05-02T09:35:53.44Z</time></trkpt><trkpt lat="44.1083033" lon="12.2936217"><ele>44.0</ele><time>2026-05-02T09:35:55.44Z</time></trkpt><trkpt lat="44.1083367" lon="12.2937617"><ele>44.0</ele><time>2026-05-02T09:35:57.439Z</time></trkpt><trkpt lat="44.108375" lon="12.2938967"><ele>44.0</ele><time>2026-05-02T09:35:59.44Z</time></trkpt><trkpt lat="44.108415" lon="12.294035"><ele>44.0</ele><time>2026-05-02T09:36:01.44Z</time></trkpt><trkpt lat="44.1084533" lon="12.2941767"><ele>44.0</ele><time>2026-05-02T09:36:03.44Z</time></trkpt><trkpt lat="44.108495" lon="12.2943167"><ele>44.0</ele><time>2026-05-02T09:36:05.439Z</time></trkpt><trkpt lat="44.1085267" lon="12.2944617"><ele>44.0</ele><time>2026-05-02T09:36:07.439Z</time></trkpt><trkpt lat="44.108565" lon="12.294605"><ele>44.0</ele><time>2026-05-02T09:36:09.439Z</time></trkpt><trkpt lat="44.108595" lon="12.2947467"><ele>44.0</ele><time>2026-05-02T09:36:11.439Z</time></trkpt><trkpt lat="44.108615" lon="12.2948817"><ele>44.0</ele><time>2026-05-02T09:36:13.44Z</time></trkpt><trkpt lat="44.1086267" lon="12.2950167"><ele>44.0</ele><time>2026-05-02T09:36:15.439Z</time></trkpt><trkpt lat="44.1086367" lon="12.295145"><ele>44.33333333333333</ele><time>2026-05-02T09:36:17.441Z</time></trkpt><trkpt lat="44.1086367" lon="12.2952633"><ele>44.666666666666664</ele><time>2026-05-02T09:36:19.44Z</time></trkpt><trkpt lat="44.10863" lon="12.295375"><ele>45.0</ele><time>2026-05-02T09:36:21.44Z</time></trkpt><trkpt lat="44.1086283" lon="12.295485"><ele>45.333333333333336</ele><time>2026-05-02T09:36:23.44Z</time></trkpt><trkpt lat="44.1086283" lon="12.2955933"><ele>45.66666666666667</ele><time>2026-05-02T09:36:25.439Z</time></trkpt><trkpt lat="44.1086183" lon="12.2957067"><ele>46.0</ele><time>2026-05-02T09:36:27.439Z</time></trkpt><trkpt lat="44.1086133" lon="12.2958217"><ele>46.0</ele><time>2026-05-02T09:36:29.44Z</time></trkpt><trkpt lat="44.1086067" lon="12.2959267"><ele>46.0</ele><time>2026-05-02T09:36:31.445Z</time></trkpt><trkpt lat="44.1085917" lon="12.2960333"><ele>46.0</ele><time>2026-05-02T09:36:33.44Z</time></trkpt><trkpt lat="44.1085767" lon="12.2961333"><ele>46.0</ele><time>2026-05-02T09:36:35.44Z</time></trkpt><trkpt lat="44.1085583" lon="12.29623"><ele>46.0</ele><time>2026-05-02T09:36:37.44Z</time></trkpt><trkpt lat="44.1085417" lon="12.2963417"><ele>46.0</ele><time>2026-05-02T09:36:39.442Z</time></trkpt><trkpt lat="44.10853" lon="12.29647"><ele>46.0</ele><time>2026-05-02T09:36:41.441Z</time></trkpt><trkpt lat="44.1085133" lon="12.2965983"><ele>46.0</ele><time>2026-05-02T09:36:43.442Z</time></trkpt><trkpt lat="44.1084967" lon="12.2967183"><ele>46.0</ele><time>2026-05-02T09:36:45.44Z</time></trkpt><trkpt lat="44.10855" lon="12.2966333"><ele>46.0</ele><time>2026-05-02T09:36:54.441Z</time></trkpt><trkpt lat="44.1086267" lon="12.2966067"><ele>46.0</ele><time>2026-05-02T09:36:57.442Z</time></trkpt><trkpt lat="44.1086933" lon="12.29662"><ele>46.0</ele><time>2026-05-02T09:36:59.439Z</time></trkpt><trkpt lat="44.1087617" lon="12.2966317"><ele>46.0</ele><time>2026-05-02T09:37:01.441Z</time></trkpt><trkpt lat="44.10883" lon="12.296635"><ele>46.0</ele><time>2026-05-02T09:37:03.439Z</time></trkpt><trkpt lat="44.108895" lon="12.2966383"><ele>46.0</ele><time>2026-05-02T09:37:05.439Z</time></trkpt><trkpt lat="44.1089717" lon="12.2966567"><ele>46.0</ele><time>2026-05-02T09:37:07.439Z</time></trkpt><trkpt lat="44.1090567" lon="12.2966733"><ele>46.0</ele><time>2026-05-02T09:37:09.439Z</time></trkpt><trkpt lat="44.1091483" lon="12.2966883"><ele>46.0</ele><time>2026-05-02T09:37:11.44Z</time></trkpt><trkpt lat="44.109235" lon="12.2967033"><ele>45.333333333333336</ele><time>2026-05-02T09:37:13.441Z</time></trkpt><trkpt lat="44.1093167" lon="12.2967167"><ele>44.66666666666667</ele><time>2026-05-02T09:37:15.443Z</time></trkpt><trkpt lat="44.1094033" lon="12.2967433"><ele>44.0</ele><time>2026-05-02T09:37:17.441Z</time></trkpt><trkpt lat="44.1094883" lon="12.2967617"><ele>43.333333333333336</ele><time>2026-05-02T09:37:19.44Z</time></trkpt><trkpt lat="44.1095717" lon="12.2967933"><ele>42.666666666666664</ele><time>2026-05-02T09:37:21.44Z</time></trkpt><trkpt lat="44.1096433" lon="12.296875"><ele>42.0</ele><time>2026-05-02T09:37:23.441Z</time></trkpt><trkpt lat="44.1096683" lon="12.2969983"><ele>42.0</ele><time>2026-05-02T09:37:25.444Z</time></trkpt><trkpt lat="44.1096667" lon="12.2971233"><ele>42.0</ele><time>2026-05-02T09:37:27.441Z</time></trkpt><trkpt lat="44.1096617" lon="12.2972467"><ele>42.0</ele><time>2026-05-02T09:37:29.44Z</time></trkpt><trkpt lat="44.1096517" lon="12.2973783"><ele>42.0</ele><time>2026-05-02T09:37:31.44Z</time></trkpt><trkpt lat="44.1096567" lon="12.2974917"><ele>42.0</ele><time>2026-05-02T09:37:33.443Z</time></trkpt><trkpt lat="44.1096617" lon="12.297585"><ele>42.0</ele><time>2026-05-02T09:37:35.439Z</time></trkpt><trkpt lat="44.1096167" lon="12.2976533"><ele>41.833333333333336</ele><time>2026-05-02T09:37:37.443Z</time></trkpt><trkpt lat="44.109555" lon="12.2977067"><ele>41.666666666666664</ele><time>2026-05-02T09:37:39.444Z</time></trkpt><trkpt lat="44.109485" lon="12.2977533"><ele>41.5</ele><time>2026-05-02T09:37:41.44Z</time></trkpt><trkpt lat="44.1094133" lon="12.2978083"><ele>41.33333333333333</ele><time>2026-05-02T09:37:43.44Z</time></trkpt><trkpt lat="44.1093333" lon="12.2978517"><ele>41.166666666666664</ele><time>2026-05-02T09:37:45.443Z</time></trkpt><trkpt lat="44.109255" lon="12.2979033"><ele>41.0</ele><time>2026-05-02T09:37:47.443Z</time></trkpt><trkpt lat="44.1091733" lon="12.2979583"><ele>41.0</ele><time>2026-05-02T09:37:49.443Z</time></trkpt><trkpt lat="44.1090933" lon="12.29802"><ele>41.0</ele><time>2026-05-02T09:37:51.442Z</time></trkpt><trkpt lat="44.109005" lon="12.2980783"><ele>41.0</ele><time>2026-05-02T09:37:53.443Z</time></trkpt><trkpt lat="44.1089133" lon="12.2981333"><ele>41.0</ele><time>2026-05-02T09:37:55.443Z</time></trkpt><trkpt lat="44.1088283" lon="12.2981933"><ele>41.0</ele><time>2026-05-02T09:37:57.444Z</time></trkpt><trkpt lat="44.1087417" lon="12.2982517"><ele>40.599999999999994</ele><time>2026-05-02T09:37:59.441Z</time></trkpt><trkpt lat="44.10865" lon="12.298315"><ele>40.199999999999996</ele><time>2026-05-02T09:38:01.44Z</time></trkpt><trkpt lat="44.10856" lon="12.2983817"><ele>39.8</ele><time>2026-05-02T09:38:03.441Z</time></trkpt><trkpt lat="44.1084767" lon="12.2984433"><ele>39.4</ele><time>2026-05-02T09:38:05.443Z</time></trkpt><trkpt lat="44.10839" lon="12.2985017"><ele>39.0</ele><time>2026-05-02T09:38:07.443Z</time></trkpt><trkpt lat="44.1083067" lon="12.2985633"><ele>39.0</ele><time>2026-05-02T09:38:09.442Z</time></trkpt><trkpt lat="44.10822" lon="12.2986233"><ele>39.0</ele><time>2026-05-02T09:38:11.439Z</time></trkpt><trkpt lat="44.1081333" lon="12.2986833"><ele>39.0</ele><time>2026-05-02T09:38:13.441Z</time></trkpt><trkpt lat="44.1080433" lon="12.2987433"><ele>39.0</ele><time>2026-05-02T09:38:15.441Z</time></trkpt><trkpt lat="44.1079517" lon="12.2988083"><ele>39.0</ele><time>2026-05-02T09:38:17.44Z</time></trkpt><trkpt lat="44.1078567" lon="12.29887"><ele>39.2</ele><time>2026-05-02T09:38:19.442Z</time></trkpt><trkpt lat="44.10776" lon="12.2989333"><ele>39.4</ele><time>2026-05-02T09:38:21.441Z</time></trkpt><trkpt lat="44.10766" lon="12.299"><ele>39.6</ele><time>2026-05-02T09:38:23.44Z</time></trkpt><trkpt lat="44.1075583" lon="12.2990667"><ele>39.8</ele><time>2026-05-02T09:38:25.441Z</time></trkpt><trkpt lat="44.1074567" lon="12.2991367"><ele>40.0</ele><time>2026-05-02T09:38:27.444Z</time></trkpt><trkpt lat="44.10736" lon="12.299205"><ele>40.0</ele><time>2026-05-02T09:38:29.443Z</time></trkpt><trkpt lat="44.10727" lon="12.29927"><ele>40.0</ele><time>2026-05-02T09:38:31.443Z</time></trkpt><trkpt lat="44.10718" lon="12.2993333"><ele>40.0</ele><time>2026-05-02T09:38:33.44Z</time></trkpt><trkpt lat="44.1070917" lon="12.2994017"><ele>40.0</ele><time>2026-05-02T09:38:35.443Z</time></trkpt><trkpt lat="44.1070017" lon="12.29946"><ele>40.0</ele><time>2026-05-02T09:38:37.443Z</time></trkpt><trkpt lat="44.106905" lon="12.29953"><ele>40.0</ele><time>2026-05-02T09:38:39.441Z</time></trkpt><trkpt lat="44.106805" lon="12.2995983"><ele>40.0</ele><time>2026-05-02T09:38:41.44Z</time></trkpt><trkpt lat="44.1067033" lon="12.29966"><ele>40.0</ele><time>2026-05-02T09:38:43.44Z</time></trkpt><trkpt lat="44.1066033" lon="12.2997067"><ele>40.0</ele><time>2026-05-02T09:38:45.443Z</time></trkpt><trkpt lat="44.1065017" lon="12.2997283"><ele>40.0</ele><time>2026-05-02T09:38:47.443Z</time></trkpt><trkpt lat="44.1064033" lon="12.29974"><ele>40.0</ele><time>2026-05-02T09:38:49.44Z</time></trkpt><trkpt lat="44.1063083" lon="12.2997417"><ele>40.0</ele><time>2026-05-02T09:38:51.441Z</time></trkpt><trkpt lat="44.106215" lon="12.299745"><ele>40.0</ele><time>2026-05-02T09:38:53.44Z</time></trkpt><trkpt lat="44.10612" lon="12.2997417"><ele>40.0</ele><time>2026-05-02T09:38:55.44Z</time></trkpt><trkpt lat="44.1060233" lon="12.2997367"><ele>40.0</ele><time>2026-05-02T09:38:57.441Z</time></trkpt><trkpt lat="44.1059217" lon="12.2997317"><ele>40.0</ele><time>2026-05-02T09:38:59.44Z</time></trkpt><trkpt lat="44.1058183" lon="12.2997283"><ele>40.0</ele><time>2026-05-02T09:39:01.439Z</time></trkpt><trkpt lat="44.1057117" lon="12.2997267"><ele>40.0</ele><time>2026-05-02T09:39:03.444Z</time></trkpt><trkpt lat="44.1056033" lon="12.2997267"><ele>40.0</ele><time>2026-05-02T09:39:05.439Z</time></trkpt><trkpt lat="44.1055" lon="12.2997217"><ele>40.0</ele><time>2026-05-02T09:39:07.438Z</time></trkpt><trkpt lat="44.105395" lon="12.2997183"><ele>40.0</ele><time>2026-05-02T09:39:09.44Z</time></trkpt><trkpt lat="44.10529" lon="12.2997183"><ele>40.0</ele><time>2026-05-02T09:39:11.44Z</time></trkpt><trkpt lat="44.1051833" lon="12.2997117"><ele>40.0</ele><time>2026-05-02T09:39:13.44Z</time></trkpt><trkpt lat="44.1050733" lon="12.2997067"><ele>40.0</ele><time>2026-05-02T09:39:15.441Z</time></trkpt><trkpt lat="44.1049617" lon="12.2997067"><ele>40.0</ele><time>2026-05-02T09:39:17.441Z</time></trkpt><trkpt lat="44.10485" lon="12.2997017"><ele>40.6</ele><time>2026-05-02T09:39:19.441Z</time></trkpt><trkpt lat="44.1047417" lon="12.2996967"><ele>41.2</ele><time>2026-05-02T09:39:21.44Z</time></trkpt><trkpt lat="44.104635" lon="12.2996917"><ele>41.8</ele><time>2026-05-02T09:39:23.439Z</time></trkpt><trkpt lat="44.1045317" lon="12.299695"><ele>42.4</ele><time>2026-05-02T09:39:25.443Z</time></trkpt><trkpt lat="44.1044333" lon="12.2996967"><ele>43.0</ele><time>2026-05-02T09:39:27.442Z</time></trkpt><trkpt lat="44.1043367" lon="12.2997"><ele>43.0</ele><time>2026-05-02T09:39:29.441Z</time></trkpt><trkpt lat="44.10424" lon="12.299715"><ele>43.0</ele><time>2026-05-02T09:39:31.441Z</time></trkpt><trkpt lat="44.1041317" lon="12.2997267"><ele>43.0</ele><time>2026-05-02T09:39:33.438Z</time></trkpt><trkpt lat="44.1040267" lon="12.2997517"><ele>43.0</ele><time>2026-05-02T09:39:35.44Z</time></trkpt><trkpt lat="44.1039233" lon="12.2997833"><ele>43.0</ele><time>2026-05-02T09:39:37.441Z</time></trkpt><trkpt lat="44.1038217" lon="12.2998217"><ele>43.599999999999994</ele><time>2026-05-02T09:39:39.443Z</time></trkpt><trkpt lat="44.1037183" lon="12.2998717"><ele>44.199999999999996</ele><time>2026-05-02T09:39:41.443Z</time></trkpt><trkpt lat="44.1036167" lon="12.299915"><ele>44.8</ele><time>2026-05-02T09:39:43.443Z</time></trkpt><trkpt lat="44.1035117" lon="12.29997"><ele>45.4</ele><time>2026-05-02T09:39:45.44Z</time></trkpt><trkpt lat="44.1034117" lon="12.3000083"><ele>46.0</ele><time>2026-05-02T09:39:47.442Z</time></trkpt><trkpt lat="44.10331" lon="12.3000817"><ele>45.8</ele><time>2026-05-02T09:39:49.442Z</time></trkpt><trkpt lat="44.1032067" lon="12.30013"><ele>45.599999999999994</ele><time>2026-05-02T09:39:51.439Z</time></trkpt><trkpt lat="44.1031033" lon="12.3001867"><ele>45.4</ele><time>2026-05-02T09:39:53.439Z</time></trkpt><trkpt lat="44.1030017" lon="12.300245"><ele>45.2</ele><time>2026-05-02T09:39:55.443Z</time></trkpt><trkpt lat="44.1029083" lon="12.300315"><ele>45.0</ele><time>2026-05-02T09:39:57.441Z</time></trkpt><trkpt lat="44.1028217" lon="12.3004017"><ele>45.0</ele><time>2026-05-02T09:39:59.439Z</time></trkpt><trkpt lat="44.1027667" lon="12.300445"><ele>45.0</ele><time>2026-05-02T09:40:01.442Z</time></trkpt><trkpt lat="44.1028167" lon="12.3003817"><ele>45.0</ele><time>2026-05-02T09:40:13.442Z</time></trkpt><trkpt lat="44.1027533" lon="12.3004617"><ele>45.0</ele><time>2026-05-02T09:48:46.442Z</time></trkpt><trkpt lat="44.1026967" lon="12.3005483"><ele>45.0</ele><time>2026-05-02T09:48:49.44Z</time></trkpt><trkpt lat="44.1026517" lon="12.300615"><ele>45.0</ele><time>2026-05-02T09:48:51.441Z</time></trkpt><trkpt lat="44.1026033" lon="12.3006833"><ele>45.0</ele><time>2026-05-02T09:48:53.439Z</time></trkpt><trkpt lat="44.1025483" lon="12.3007583"><ele>45.5</ele><time>2026-05-02T09:48:55.439Z</time></trkpt><trkpt lat="44.1024867" lon="12.300825"><ele>46.0</ele><time>2026-05-02T09:48:57.442Z</time></trkpt><trkpt lat="44.102425" lon="12.3008983"><ele>46.5</ele><time>2026-05-02T09:48:59.438Z</time></trkpt><trkpt lat="44.102355" lon="12.300975"><ele>47.0</ele><time>2026-05-02T09:49:01.442Z</time></trkpt><trkpt lat="44.1022867" lon="12.3010467"><ele>47.5</ele><time>2026-05-02T09:49:03.44Z</time></trkpt><trkpt lat="44.1022233" lon="12.3011183"><ele>48.0</ele><time>2026-05-02T09:49:05.44Z</time></trkpt><trkpt lat="44.1021567" lon="12.3011917"><ele>47.99999999999999</ele><time>2026-05-02T09:49:07.441Z</time></trkpt><trkpt lat="44.1020917" lon="12.30126"><ele>48.0</ele><time>2026-05-02T09:49:09.441Z</time></trkpt><trkpt lat="44.102025" lon="12.3013117"><ele>48.0</ele><time>2026-05-02T09:49:11.438Z</time></trkpt><trkpt lat="44.101955" lon="12.3013567"><ele>48.0</ele><time>2026-05-02T09:49:13.441Z</time></trkpt><trkpt lat="44.1018983" lon="12.301405"><ele>48.0</ele><time>2026-05-02T09:49:15.443Z</time></trkpt><trkpt lat="44.1018283" lon="12.30146"><ele>47.99999999999999</ele><time>2026-05-02T09:49:18.44Z</time></trkpt><trkpt lat="44.10177" lon="12.3015"><ele>48.0</ele><time>2026-05-02T09:49:20.439Z</time></trkpt><trkpt lat="44.1016967" lon="12.3015467"><ele>48.0</ele><time>2026-05-02T09:49:22.44Z</time></trkpt><trkpt lat="44.101615" lon="12.301595"><ele>48.0</ele><time>2026-05-02T09:49:24.44Z</time></trkpt><trkpt lat="44.1015333" lon="12.3016433"><ele>48.0</ele><time>2026-05-02T09:49:26.44Z</time></trkpt><trkpt lat="44.101455" lon="12.3017033"><ele>48.0</ele><time>2026-05-02T09:49:28.442Z</time></trkpt><trkpt lat="44.10139" lon="12.3017867"><ele>48.0</ele><time>2026-05-02T09:49:30.442Z</time></trkpt><trkpt lat="44.1013417" lon="12.30189"><ele>48.0</ele><time>2026-05-02T09:49:32.443Z</time></trkpt><trkpt lat="44.1013133" lon="12.302015"><ele>48.0</ele><time>2026-05-02T09:49:34.442Z</time></trkpt><trkpt lat="44.1012917" lon="12.3021483"><ele>48.0</ele><time>2026-05-02T09:49:36.441Z</time></trkpt><trkpt lat="44.101275" lon="12.3022867"><ele>48.0</ele><time>2026-05-02T09:49:38.441Z</time></trkpt><trkpt lat="44.10126" lon="12.30242"><ele>48.0</ele><time>2026-05-02T09:49:40.441Z</time></trkpt><trkpt lat="44.1012433" lon="12.3025617"><ele>48.0</ele><time>2026-05-02T09:49:42.44Z</time></trkpt><trkpt lat="44.1012233" lon="12.3027033"><ele>48.0</ele><time>2026-05-02T09:49:44.442Z</time></trkpt><trkpt lat="44.1012083" lon="12.302855"><ele>48.0</ele><time>2026-05-02T09:49:46.443Z</time></trkpt><trkpt lat="44.101195" lon="12.3030083"><ele>48.0</ele><time>2026-05-02T09:49:48.441Z</time></trkpt><trkpt lat="44.1011633" lon="12.3031567"><ele>48.0</ele><time>2026-05-02T09:49:50.441Z</time></trkpt><trkpt lat="44.1011383" lon="12.3033033"><ele>48.0</ele><time>2026-05-02T09:49:52.443Z</time></trkpt><trkpt lat="44.1011183" lon="12.3034417"><ele>48.0</ele><time>2026-05-02T09:49:54.443Z</time></trkpt><trkpt lat="44.1010967" lon="12.30358"><ele>48.0</ele><time>2026-05-02T09:49:56.441Z</time></trkpt><trkpt lat="44.1010767" lon="12.3037283"><ele>48.0</ele><time>2026-05-02T09:49:58.441Z</time></trkpt><trkpt lat="44.1010583" lon="12.3038767"><ele>48.0</ele><time>2026-05-02T09:50:00.44Z</time></trkpt><trkpt lat="44.1010417" lon="12.3040317"><ele>48.0</ele><time>2026-05-02T09:50:02.439Z</time></trkpt><trkpt lat="44.1010367" lon="12.3041867"><ele>47.8</ele><time>2026-05-02T09:50:04.44Z</time></trkpt><trkpt lat="44.1010333" lon="12.3043383"><ele>47.599999999999994</ele><time>2026-05-02T09:50:06.439Z</time></trkpt><trkpt lat="44.101035" lon="12.3044967"><ele>47.400000000000006</ele><time>2026-05-02T09:50:08.441Z</time></trkpt><trkpt lat="44.1010317" lon="12.3046467"><ele>47.2</ele><time>2026-05-02T09:50:10.442Z</time></trkpt><trkpt lat="44.1010267" lon="12.3047983"><ele>47.0</ele><time>2026-05-02T09:50:12.441Z</time></trkpt><trkpt lat="44.101015" lon="12.3049533"><ele>46.75</ele><time>2026-05-02T09:50:14.44Z</time></trkpt><trkpt lat="44.100995" lon="12.3051067"><ele>46.5</ele><time>2026-05-02T09:50:16.442Z</time></trkpt><trkpt lat="44.1009633" lon="12.3052617"><ele>46.25</ele><time>2026-05-02T09:50:18.443Z</time></trkpt><trkpt lat="44.100935" lon="12.3054183"><ele>46.0</ele><time>2026-05-02T09:50:20.443Z</time></trkpt><trkpt lat="44.1009" lon="12.305565"><ele>46.0</ele><time>2026-05-02T09:50:22.443Z</time></trkpt><trkpt lat="44.1008583" lon="12.3057133"><ele>46.0</ele><time>2026-05-02T09:50:24.443Z</time></trkpt><trkpt lat="44.1008167" lon="12.305865"><ele>46.0</ele><time>2026-05-02T09:50:26.443Z</time></trkpt><trkpt lat="44.1007867" lon="12.3060033"><ele>46.0</ele><time>2026-05-02T09:50:28.442Z</time></trkpt><trkpt lat="44.1007533" lon="12.3061433"><ele>46.0</ele><time>2026-05-02T09:50:30.442Z</time></trkpt><trkpt lat="44.100705" lon="12.3062933"><ele>45.75</ele><time>2026-05-02T09:50:32.44Z</time></trkpt><trkpt lat="44.1006617" lon="12.3064467"><ele>45.5</ele><time>2026-05-02T09:50:34.441Z</time></trkpt><trkpt lat="44.1006267" lon="12.3066017"><ele>45.25</ele><time>2026-05-02T09:50:36.44Z</time></trkpt><trkpt lat="44.1005917" lon="12.3067483"><ele>45.0</ele><time>2026-05-02T09:50:38.443Z</time></trkpt><trkpt lat="44.1005533" lon="12.3069083"><ele>45.0</ele><time>2026-05-02T09:50:40.442Z</time></trkpt><trkpt lat="44.10051" lon="12.30706"><ele>45.0</ele><time>2026-05-02T09:50:42.443Z</time></trkpt><trkpt lat="44.1004633" lon="12.3072067"><ele>45.0</ele><time>2026-05-02T09:50:44.442Z</time></trkpt><trkpt lat="44.1004233" lon="12.307355"><ele>45.0</ele><time>2026-05-02T09:50:46.442Z</time></trkpt><trkpt lat="44.1003883" lon="12.3075083"><ele>45.0</ele><time>2026-05-02T09:50:48.443Z</time></trkpt><trkpt lat="44.10035" lon="12.3076617"><ele>45.0</ele><time>2026-05-02T09:50:50.442Z</time></trkpt><trkpt lat="44.100315" lon="12.3078067"><ele>45.0</ele><time>2026-05-02T09:50:52.442Z</time></trkpt><trkpt lat="44.100275" lon="12.3079567"><ele>45.0</ele><time>2026-05-02T09:50:54.443Z</time></trkpt><trkpt lat="44.10024" lon="12.308105"><ele>45.0</ele><time>2026-05-02T09:50:56.443Z</time></trkpt><trkpt lat="44.100205" lon="12.308255"><ele>45.0</ele><time>2026-05-02T09:50:58.442Z</time></trkpt><trkpt lat="44.100165" lon="12.3083983"><ele>45.0</ele><time>2026-05-02T09:51:00.442Z</time></trkpt><trkpt lat="44.1001117" lon="12.308535"><ele>45.0</ele><time>2026-05-02T09:51:02.442Z</time></trkpt><trkpt lat="44.100045" lon="12.3086617"><ele>45.0</ele><time>2026-05-02T09:51:04.443Z</time></trkpt><trkpt lat="44.0999817" lon="12.3087833"><ele>45.0</ele><time>2026-05-02T09:51:06.443Z</time></trkpt><trkpt lat="44.09992" lon="12.3089117"><ele>45.0</ele><time>2026-05-02T09:51:08.442Z</time></trkpt><trkpt lat="44.099855" lon="12.309045"><ele>45.0</ele><time>2026-05-02T09:51:10.443Z</time></trkpt><trkpt lat="44.0997917" lon="12.3091767"><ele>45.0</ele><time>2026-05-02T09:51:12.44Z</time></trkpt><trkpt lat="44.0997283" lon="12.309305"><ele>45.25</ele><time>2026-05-02T09:51:14.443Z</time></trkpt><trkpt lat="44.0996633" lon="12.3094417"><ele>45.5</ele><time>2026-05-02T09:51:16.443Z</time></trkpt><trkpt lat="44.0995933" lon="12.3095783"><ele>45.75</ele><time>2026-05-02T09:51:18.44Z</time></trkpt><trkpt lat="44.0995283" lon="12.3097117"><ele>46.0</ele><time>2026-05-02T09:51:20.44Z</time></trkpt><trkpt lat="44.0994683" lon="12.3098433"><ele>45.599999999999994</ele><time>2026-05-02T09:51:22.44Z</time></trkpt><trkpt lat="44.09941" lon="12.3099767"><ele>45.2</ele><time>2026-05-02T09:51:24.439Z</time></trkpt><trkpt lat="44.09935" lon="12.3101033"><ele>44.8</ele><time>2026-05-02T09:51:26.441Z</time></trkpt><trkpt lat="44.0992867" lon="12.3102317"><ele>44.400000000000006</ele><time>2026-05-02T09:51:28.439Z</time></trkpt><trkpt lat="44.0992217" lon="12.310365"><ele>44.0</ele><time>2026-05-02T09:51:30.439Z</time></trkpt><trkpt lat="44.0991567" lon="12.3104983"><ele>44.0</ele><time>2026-05-02T09:51:32.442Z</time></trkpt><trkpt lat="44.0990867" lon="12.3106233"><ele>44.0</ele><time>2026-05-02T09:51:34.443Z</time></trkpt><trkpt lat="44.099025" lon="12.3107517"><ele>44.0</ele><time>2026-05-02T09:51:36.442Z</time></trkpt><trkpt lat="44.0989617" lon="12.310875"><ele>44.0</ele><time>2026-05-02T09:51:38.443Z</time></trkpt><trkpt lat="44.0989033" lon="12.311005"><ele>44.0</ele><time>2026-05-02T09:51:40.442Z</time></trkpt><trkpt lat="44.0988417" lon="12.3111267"><ele>44.2</ele><time>2026-05-02T09:51:42.443Z</time></trkpt><trkpt lat="44.0987817" lon="12.31125"><ele>44.400000000000006</ele><time>2026-05-02T09:51:44.442Z</time></trkpt><trkpt lat="44.098715" lon="12.3113683"><ele>44.6</ele><time>2026-05-02T09:51:46.442Z</time></trkpt><trkpt lat="44.0986583" lon="12.3114967"><ele>44.8</ele><time>2026-05-02T09:51:48.443Z</time></trkpt><trkpt lat="44.0986033" lon="12.3116267"><ele>45.0</ele><time>2026-05-02T09:51:50.441Z</time></trkpt><trkpt lat="44.0985467" lon="12.31175"><ele>45.0</ele><time>2026-05-02T09:51:52.439Z</time></trkpt><trkpt lat="44.098485" lon="12.3118683"><ele>45.0</ele><time>2026-05-02T09:51:54.439Z</time></trkpt><trkpt lat="44.0984217" lon="12.31199"><ele>45.0</ele><time>2026-05-02T09:51:56.439Z</time></trkpt><trkpt lat="44.09835" lon="12.3120967"><ele>45.0</ele><time>2026-05-02T09:51:58.44Z</time></trkpt><trkpt lat="44.09827" lon="12.312185"><ele>45.0</ele><time>2026-05-02T09:52:00.442Z</time></trkpt><trkpt lat="44.09819" lon="12.3122567"><ele>45.4</ele><time>2026-05-02T09:52:02.439Z</time></trkpt><trkpt lat="44.0980983" lon="12.3123233"><ele>45.8</ele><time>2026-05-02T09:52:04.443Z</time></trkpt><trkpt lat="44.0980067" lon="12.3123917"><ele>46.2</ele><time>2026-05-02T09:52:06.44Z</time></trkpt><trkpt lat="44.0979183" lon="12.3124633"><ele>46.6</ele><time>2026-05-02T09:52:08.442Z</time></trkpt><trkpt lat="44.09783" lon="12.3125233"><ele>47.0</ele><time>2026-05-02T09:52:10.443Z</time></trkpt><trkpt lat="44.0977417" lon="12.3125817"><ele>47.0</ele><time>2026-05-02T09:52:12.443Z</time></trkpt><trkpt lat="44.09765" lon="12.3126467"><ele>47.0</ele><time>2026-05-02T09:52:14.442Z</time></trkpt><trkpt lat="44.0975583" lon="12.3127183"><ele>47.0</ele><time>2026-05-02T09:52:16.443Z</time></trkpt><trkpt lat="44.097465" lon="12.312795"><ele>47.0</ele><time>2026-05-02T09:52:18.443Z</time></trkpt><trkpt lat="44.0973733" lon="12.3128733"><ele>47.0</ele><time>2026-05-02T09:52:20.439Z</time></trkpt><trkpt lat="44.0972833" lon="12.3129483"><ele>47.0</ele><time>2026-05-02T09:52:22.439Z</time></trkpt><trkpt lat="44.0971933" lon="12.31302"><ele>47.0</ele><time>2026-05-02T09:52:24.44Z</time></trkpt><trkpt lat="44.0971017" lon="12.31309"><ele>47.0</ele><time>2026-05-02T09:52:26.44Z</time></trkpt><trkpt lat="44.0970083" lon="12.3131683"><ele>47.0</ele><time>2026-05-02T09:52:28.44Z</time></trkpt><trkpt lat="44.09692" lon="12.3132483"><ele>47.0</ele><time>2026-05-02T09:52:30.442Z</time></trkpt><trkpt lat="44.0968317" lon="12.3133367"><ele>47.0</ele><time>2026-05-02T09:52:32.441Z</time></trkpt><trkpt lat="44.0967467" lon="12.313425"><ele>47.0</ele><time>2026-05-02T09:52:34.443Z</time></trkpt><trkpt lat="44.0966633" lon="12.3135117"><ele>47.0</ele><time>2026-05-02T09:52:36.443Z</time></trkpt><trkpt lat="44.0965867" lon="12.3135967"><ele>47.0</ele><time>2026-05-02T09:52:38.44Z</time></trkpt><trkpt lat="44.0964967" lon="12.31365"><ele>47.0</ele><time>2026-05-02T09:52:40.442Z</time></trkpt><trkpt lat="44.0964033" lon="12.3136883"><ele>47.400000000000006</ele><time>2026-05-02T09:52:42.442Z</time></trkpt><trkpt lat="44.0963383" lon="12.3137733"><ele>47.800000000000004</ele><time>2026-05-02T09:52:44.443Z</time></trkpt><trkpt lat="44.09631" lon="12.31389"><ele>48.2</ele><time>2026-05-02T09:52:46.442Z</time></trkpt><trkpt lat="44.0962833" lon="12.3140183"><ele>48.6</ele><time>2026-05-02T09:52:48.441Z</time></trkpt><trkpt lat="44.09624" lon="12.3141367"><ele>49.0</ele><time>2026-05-02T09:52:50.441Z</time></trkpt><trkpt lat="44.0961617" lon="12.31422"><ele>49.0</ele><time>2026-05-02T09:52:52.439Z</time></trkpt><trkpt lat="44.0960767" lon="12.3142983"><ele>49.0</ele><time>2026-05-02T09:52:54.441Z</time></trkpt><trkpt lat="44.0959867" lon="12.3143767"><ele>49.0</ele><time>2026-05-02T09:52:56.441Z</time></trkpt><trkpt lat="44.0959033" lon="12.3144683"><ele>49.0</ele><time>2026-05-02T09:52:58.44Z</time></trkpt><trkpt lat="44.0958383" lon="12.3145883"><ele>49.0</ele><time>2026-05-02T09:53:00.443Z</time></trkpt><trkpt lat="44.0957933" lon="12.3147233"><ele>49.2</ele><time>2026-05-02T09:53:02.442Z</time></trkpt><trkpt lat="44.0957633" lon="12.3148583"><ele>49.400000000000006</ele><time>2026-05-02T09:53:04.443Z</time></trkpt><trkpt lat="44.095735" lon="12.3149983"><ele>49.6</ele><time>2026-05-02T09:53:06.442Z</time></trkpt><trkpt lat="44.0956883" lon="12.3151283"><ele>49.8</ele><time>2026-05-02T09:53:08.443Z</time></trkpt><trkpt lat="44.09562" lon="12.3152367"><ele>50.0</ele><time>2026-05-02T09:53:10.441Z</time></trkpt><trkpt lat="44.0955433" lon="12.315335"><ele>50.0</ele><time>2026-05-02T09:53:12.441Z</time></trkpt><trkpt lat="44.09546" lon="12.315425"><ele>50.0</ele><time>2026-05-02T09:53:14.441Z</time></trkpt><trkpt lat="44.0953783" lon="12.3155117"><ele>50.0</ele><time>2026-05-02T09:53:16.44Z</time></trkpt><trkpt lat="44.0953017" lon="12.3156117"><ele>50.0</ele><time>2026-05-02T09:53:18.44Z</time></trkpt><trkpt lat="44.0952217" lon="12.3156917"><ele>50.0</ele><time>2026-05-02T09:53:20.44Z</time></trkpt><trkpt lat="44.0951433" lon="12.315775"><ele>50.0</ele><time>2026-05-02T09:53:22.44Z</time></trkpt><trkpt lat="44.095065" lon="12.3158633"><ele>50.0</ele><time>2026-05-02T09:53:24.442Z</time></trkpt><trkpt lat="44.09498" lon="12.315945"><ele>50.0</ele><time>2026-05-02T09:53:26.441Z</time></trkpt><trkpt lat="44.094895" lon="12.3160267"><ele>50.0</ele><time>2026-05-02T09:53:28.44Z</time></trkpt><trkpt lat="44.0948133" lon="12.3161183"><ele>50.0</ele><time>2026-05-02T09:53:30.441Z</time></trkpt><trkpt lat="44.0947183" lon="12.31619"><ele>49.8</ele><time>2026-05-02T09:53:32.439Z</time></trkpt><trkpt lat="44.094615" lon="12.31624"><ele>49.6</ele><time>2026-05-02T09:53:34.442Z</time></trkpt><trkpt lat="44.09451" lon="12.31628"><ele>49.400000000000006</ele><time>2026-05-02T09:53:36.441Z</time></trkpt><trkpt lat="44.0944083" lon="12.31632"><ele>49.2</ele><time>2026-05-02T09:53:38.442Z</time></trkpt><trkpt lat="44.0943183" lon="12.316355"><ele>49.0</ele><time>2026-05-02T09:53:40.443Z</time></trkpt><trkpt lat="44.094215" lon="12.3163933"><ele>48.75</ele><time>2026-05-02T09:53:42.441Z</time></trkpt><trkpt lat="44.0941" lon="12.316445"><ele>48.5</ele><time>2026-05-02T09:53:44.442Z</time></trkpt><trkpt lat="44.093985" lon="12.316485"><ele>48.25</ele><time>2026-05-02T09:53:46.443Z</time></trkpt><trkpt lat="44.0938683" lon="12.3165133"><ele>48.0</ele><time>2026-05-02T09:53:48.44Z</time></trkpt><trkpt lat="44.0937483" lon="12.316535"><ele>48.0</ele><time>2026-05-02T09:53:50.441Z</time></trkpt><trkpt lat="44.0936283" lon="12.3165467"><ele>48.0</ele><time>2026-05-02T09:53:52.44Z</time></trkpt><trkpt lat="44.09351" lon="12.3165583"><ele>48.0</ele><time>2026-05-02T09:53:54.441Z</time></trkpt><trkpt lat="44.093395" lon="12.316585"><ele>48.0</ele><time>2026-05-02T09:53:56.443Z</time></trkpt><trkpt lat="44.09328" lon="12.31661"><ele>48.2</ele><time>2026-05-02T09:53:58.442Z</time></trkpt><trkpt lat="44.0931717" lon="12.3166217"><ele>48.4</ele><time>2026-05-02T09:54:00.439Z</time></trkpt><trkpt lat="44.0930617" lon="12.3166433"><ele>48.6</ele><time>2026-05-02T09:54:02.441Z</time></trkpt><trkpt lat="44.0929583" lon="12.3166617"><ele>48.800000000000004</ele><time>2026-05-02T09:54:04.442Z</time></trkpt><trkpt lat="44.0928517" lon="12.3166867"><ele>49.0</ele><time>2026-05-02T09:54:06.442Z</time></trkpt><trkpt lat="44.092745" lon="12.316715"><ele>49.0</ele><time>2026-05-02T09:54:08.443Z</time></trkpt><trkpt lat="44.092645" lon="12.31673"><ele>49.0</ele><time>2026-05-02T09:54:10.441Z</time></trkpt><trkpt lat="44.0925433" lon="12.3167533"><ele>49.0</ele><time>2026-05-02T09:54:12.443Z</time></trkpt><trkpt lat="44.0924433" lon="12.31678"><ele>49.0</ele><time>2026-05-02T09:54:14.442Z</time></trkpt><trkpt lat="44.09234" lon="12.31681"><ele>49.0</ele><time>2026-05-02T09:54:16.441Z</time></trkpt><trkpt lat="44.0922333" lon="12.316835"><ele>48.800000000000004</ele><time>2026-05-02T09:54:18.439Z</time></trkpt><trkpt lat="44.0921233" lon="12.3168667"><ele>48.6</ele><time>2026-05-02T09:54:20.442Z</time></trkpt><trkpt lat="44.09202" lon="12.3169017"><ele>48.4</ele><time>2026-05-02T09:54:22.442Z</time></trkpt><trkpt lat="44.091915" lon="12.3169333"><ele>48.2</ele><time>2026-05-02T09:54:24.441Z</time></trkpt><trkpt lat="44.0918133" lon="12.3169633"><ele>48.0</ele><time>2026-05-02T09:54:26.441Z</time></trkpt><trkpt lat="44.0917117" lon="12.31699"><ele>48.0</ele><time>2026-05-02T09:54:28.439Z</time></trkpt><trkpt lat="44.0916083" lon="12.3170133"><ele>48.0</ele><time>2026-05-02T09:54:30.44Z</time></trkpt><trkpt lat="44.0915083" lon="12.3170333"><ele>48.0</ele><time>2026-05-02T09:54:32.442Z</time></trkpt><trkpt lat="44.0914117" lon="12.3170517"><ele>48.0</ele><time>2026-05-02T09:54:34.442Z</time></trkpt><trkpt lat="44.0913117" lon="12.31708"><ele>48.0</ele><time>2026-05-02T09:54:36.442Z</time></trkpt><trkpt lat="44.09121" lon="12.31711"><ele>47.8</ele><time>2026-05-02T09:54:38.442Z</time></trkpt><trkpt lat="44.0911083" lon="12.3171383"><ele>47.599999999999994</ele><time>2026-05-02T09:54:40.442Z</time></trkpt><trkpt lat="44.0910033" lon="12.31717"><ele>47.400000000000006</ele><time>2026-05-02T09:54:42.442Z</time></trkpt><trkpt lat="44.0909" lon="12.3172"><ele>47.2</ele><time>2026-05-02T09:54:44.442Z</time></trkpt><trkpt lat="44.0907983" lon="12.31723"><ele>47.0</ele><time>2026-05-02T09:54:46.441Z</time></trkpt><trkpt lat="44.0906967" lon="12.31726"><ele>47.6</ele><time>2026-05-02T09:54:48.443Z</time></trkpt><trkpt lat="44.09059" lon="12.3172867"><ele>48.2</ele><time>2026-05-02T09:54:50.442Z</time></trkpt><trkpt lat="44.0904867" lon="12.3173167"><ele>48.8</ele><time>2026-05-02T09:54:52.441Z</time></trkpt><trkpt lat="44.0903867" lon="12.3173467"><ele>49.4</ele><time>2026-05-02T09:54:54.441Z</time></trkpt><trkpt lat="44.0902833" lon="12.31738"><ele>50.0</ele><time>2026-05-02T09:54:56.442Z</time></trkpt><trkpt lat="44.0901817" lon="12.3174017"><ele>50.0</ele><time>2026-05-02T09:54:58.442Z</time></trkpt><trkpt lat="44.0900783" lon="12.3174233"><ele>50.0</ele><time>2026-05-02T09:55:00.442Z</time></trkpt><trkpt lat="44.089975" lon="12.3174367"><ele>50.0</ele><time>2026-05-02T09:55:02.442Z</time></trkpt><trkpt lat="44.08988" lon="12.3174433"><ele>50.0</ele><time>2026-05-02T09:55:04.441Z</time></trkpt><trkpt lat="44.0897867" lon="12.3174467"><ele>50.0</ele><time>2026-05-02T09:55:06.442Z</time></trkpt><trkpt lat="44.0896983" lon="12.3174267"><ele>50.2</ele><time>2026-05-02T09:55:08.442Z</time></trkpt><trkpt lat="44.0896" lon="12.3174117"><ele>50.4</ele><time>2026-05-02T09:55:10.441Z</time></trkpt><trkpt lat="44.0895017" lon="12.3174033"><ele>50.599999999999994</ele><time>2026-05-02T09:55:12.441Z</time></trkpt><trkpt lat="44.0894067" lon="12.3173817"><ele>50.8</ele><time>2026-05-02T09:55:14.439Z</time></trkpt><trkpt lat="44.0893117" lon="12.3173717"><ele>51.0</ele><time>2026-05-02T09:55:16.442Z</time></trkpt><trkpt lat="44.0892167" lon="12.3173633"><ele>51.0</ele><time>2026-05-02T09:55:18.442Z</time></trkpt><trkpt lat="44.089125" lon="12.3173533"><ele>51.0</ele><time>2026-05-02T09:55:20.442Z</time></trkpt><trkpt lat="44.0890267" lon="12.3173433"><ele>51.0</ele><time>2026-05-02T09:55:22.441Z</time></trkpt><trkpt lat="44.0889317" lon="12.3173283"><ele>51.0</ele><time>2026-05-02T09:55:24.439Z</time></trkpt><trkpt lat="44.0888367" lon="12.31731"><ele>51.0</ele><time>2026-05-02T09:55:26.44Z</time></trkpt><trkpt lat="44.0887383" lon="12.3172917"><ele>50.8</ele><time>2026-05-02T09:55:28.442Z</time></trkpt><trkpt lat="44.0886417" lon="12.3172783"><ele>50.599999999999994</ele><time>2026-05-02T09:55:30.442Z</time></trkpt><trkpt lat="44.0885417" lon="12.3172617"><ele>50.4</ele><time>2026-05-02T09:55:32.442Z</time></trkpt><trkpt lat="44.0884367" lon="12.3172567"><ele>50.2</ele><time>2026-05-02T09:55:34.441Z</time></trkpt><trkpt lat="44.0883333" lon="12.31724"><ele>50.0</ele><time>2026-05-02T09:55:36.44Z</time></trkpt><trkpt lat="44.0882383" lon="12.3172183"><ele>49.6</ele><time>2026-05-02T09:55:38.442Z</time></trkpt><trkpt lat="44.0881433" lon="12.31718"><ele>49.2</ele><time>2026-05-02T09:55:40.439Z</time></trkpt><trkpt lat="44.088045" lon="12.3171417"><ele>48.8</ele><time>2026-05-02T09:55:42.442Z</time></trkpt><trkpt lat="44.0879467" lon="12.3171017"><ele>48.4</ele><time>2026-05-02T09:55:44.442Z</time></trkpt><trkpt lat="44.0878433" lon="12.3170667"><ele>48.0</ele><time>2026-05-02T09:55:46.442Z</time></trkpt><trkpt lat="44.0877433" lon="12.317025"><ele>48.0</ele><time>2026-05-02T09:55:48.44Z</time></trkpt><trkpt lat="44.0876417" lon="12.316995"><ele>48.0</ele><time>2026-05-02T09:55:50.44Z</time></trkpt><trkpt lat="44.08754" lon="12.31696"><ele>48.0</ele><time>2026-05-02T09:55:52.439Z</time></trkpt><trkpt lat="44.0874433" lon="12.31692"><ele>48.0</ele><time>2026-05-02T09:55:54.441Z</time></trkpt><trkpt lat="44.0873483" lon="12.3168817"><ele>48.0</ele><time>2026-05-02T09:55:56.441Z</time></trkpt><trkpt lat="44.087255" lon="12.316835"><ele>48.8</ele><time>2026-05-02T09:55:58.439Z</time></trkpt><trkpt lat="44.08716" lon="12.3167917"><ele>49.599999999999994</ele><time>2026-05-02T09:56:00.439Z</time></trkpt><trkpt lat="44.0870617" lon="12.3167533"><ele>50.400000000000006</ele><time>2026-05-02T09:56:02.443Z</time></trkpt><trkpt lat="44.0869617" lon="12.3167117"><ele>51.2</ele><time>2026-05-02T09:56:04.441Z</time></trkpt><trkpt lat="44.0868617" lon="12.3166683"><ele>52.0</ele><time>2026-05-02T09:56:06.441Z</time></trkpt><trkpt lat="44.0867633" lon="12.31663"><ele>52.0</ele><time>2026-05-02T09:56:08.441Z</time></trkpt><trkpt lat="44.0866667" lon="12.3165917"><ele>52.0</ele><time>2026-05-02T09:56:10.442Z</time></trkpt><trkpt lat="44.0865683" lon="12.3165717"><ele>52.0</ele><time>2026-05-02T09:56:12.442Z</time></trkpt><trkpt lat="44.0864667" lon="12.3165483"><ele>52.0</ele><time>2026-05-02T09:56:14.443Z</time></trkpt><trkpt lat="44.0863683" lon="12.3165283"><ele>52.0</ele><time>2026-05-02T09:56:16.441Z</time></trkpt><trkpt lat="44.086265" lon="12.3165067"><ele>52.0</ele><time>2026-05-02T09:56:18.441Z</time></trkpt><trkpt lat="44.0861633" lon="12.3164817"><ele>52.0</ele><time>2026-05-02T09:56:20.44Z</time></trkpt><trkpt lat="44.08606" lon="12.316455"><ele>52.0</ele><time>2026-05-02T09:56:22.441Z</time></trkpt><trkpt lat="44.0859617" lon="12.3164333"><ele>52.0</ele><time>2026-05-02T09:56:24.443Z</time></trkpt><trkpt lat="44.0858633" lon="12.3164117"><ele>52.0</ele><time>2026-05-02T09:56:26.443Z</time></trkpt><trkpt lat="44.0857633" lon="12.3163767"><ele>52.2</ele><time>2026-05-02T09:56:28.442Z</time></trkpt><trkpt lat="44.0856667" lon="12.3163567"><ele>52.400000000000006</ele><time>2026-05-02T09:56:30.443Z</time></trkpt><trkpt lat="44.08556" lon="12.316345"><ele>52.599999999999994</ele><time>2026-05-02T09:56:32.443Z</time></trkpt><trkpt lat="44.0854583" lon="12.31632"><ele>52.8</ele><time>2026-05-02T09:56:34.443Z</time></trkpt><trkpt lat="44.0853567" lon="12.3163017"><ele>53.0</ele><time>2026-05-02T09:56:36.441Z</time></trkpt><trkpt lat="44.0852533" lon="12.3162817"><ele>53.0</ele><time>2026-05-02T09:56:38.443Z</time></trkpt><trkpt lat="44.0851533" lon="12.3162567"><ele>53.0</ele><time>2026-05-02T09:56:40.441Z</time></trkpt><trkpt lat="44.0850533" lon="12.3162283"><ele>53.0</ele><time>2026-05-02T09:56:42.44Z</time></trkpt><trkpt lat="44.08495" lon="12.3162017"><ele>53.0</ele><time>2026-05-02T09:56:44.44Z</time></trkpt><trkpt lat="44.0848467" lon="12.3161817"><ele>53.0</ele><time>2026-05-02T09:56:46.442Z</time></trkpt><trkpt lat="44.0847417" lon="12.316155"><ele>53.2</ele><time>2026-05-02T09:56:48.441Z</time></trkpt><trkpt lat="44.0846367" lon="12.31613"><ele>53.4</ele><time>2026-05-02T09:56:50.441Z</time></trkpt><trkpt lat="44.084535" lon="12.3161133"><ele>53.60000000000001</ele><time>2026-05-02T09:56:52.442Z</time></trkpt><trkpt lat="44.0844317" lon="12.3161017"><ele>53.800000000000004</ele><time>2026-05-02T09:56:54.443Z</time></trkpt><trkpt lat="44.0843267" lon="12.31609"><ele>54.0</ele><time>2026-05-02T09:56:56.441Z</time></trkpt><trkpt lat="44.0842233" lon="12.31607"><ele>54.0</ele><time>2026-05-02T09:56:58.442Z</time></trkpt><trkpt lat="44.084115" lon="12.3160567"><ele>54.00000000000001</ele><time>2026-05-02T09:57:00.441Z</time></trkpt><trkpt lat="44.0840083" lon="12.3160317"><ele>54.00000000000001</ele><time>2026-05-02T09:57:02.439Z</time></trkpt><trkpt lat="44.0838983" lon="12.31601"><ele>54.0</ele><time>2026-05-02T09:57:04.44Z</time></trkpt><trkpt lat="44.08379" lon="12.3159917"><ele>54.0</ele><time>2026-05-02T09:57:06.44Z</time></trkpt><trkpt lat="44.0836783" lon="12.3159733"><ele>54.6</ele><time>2026-05-02T09:57:08.44Z</time></trkpt><trkpt lat="44.0835717" lon="12.3159567"><ele>55.2</ele><time>2026-05-02T09:57:10.44Z</time></trkpt><trkpt lat="44.0834633" lon="12.3159367"><ele>55.800000000000004</ele><time>2026-05-02T09:57:12.44Z</time></trkpt><trkpt lat="44.083355" lon="12.3159167"><ele>56.400000000000006</ele><time>2026-05-02T09:57:14.439Z</time></trkpt><trkpt lat="44.0832417" lon="12.3159033"><ele>57.0</ele><time>2026-05-02T09:57:16.439Z</time></trkpt><trkpt lat="44.0831317" lon="12.3158917"><ele>57.400000000000006</ele><time>2026-05-02T09:57:18.443Z</time></trkpt><trkpt lat="44.0830233" lon="12.3158783"><ele>57.800000000000004</ele><time>2026-05-02T09:57:20.443Z</time></trkpt><trkpt lat="44.0829167" lon="12.3158617"><ele>58.2</ele><time>2026-05-02T09:57:22.44Z</time></trkpt><trkpt lat="44.0828117" lon="12.315835"><ele>58.6</ele><time>2026-05-02T09:57:24.443Z</time></trkpt><trkpt lat="44.0827117" lon="12.3158167"><ele>59.0</ele><time>2026-05-02T09:57:26.443Z</time></trkpt><trkpt lat="44.082605" lon="12.3157917"><ele>59.0</ele><time>2026-05-02T09:57:28.443Z</time></trkpt><trkpt lat="44.0825" lon="12.3157667"><ele>59.00000000000001</ele><time>2026-05-02T09:57:30.442Z</time></trkpt><trkpt lat="44.0823933" lon="12.315755"><ele>59.00000000000001</ele><time>2026-05-02T09:57:32.443Z</time></trkpt><trkpt lat="44.0822883" lon="12.3157383"><ele>59.0</ele><time>2026-05-02T09:57:34.443Z</time></trkpt><trkpt lat="44.0821833" lon="12.3157217"><ele>59.0</ele><time>2026-05-02T09:57:36.442Z</time></trkpt><trkpt lat="44.0820783" lon="12.3157067"><ele>58.800000000000004</ele><time>2026-05-02T09:57:38.442Z</time></trkpt><trkpt lat="44.0819783" lon="12.315695"><ele>58.60000000000001</ele><time>2026-05-02T09:57:40.443Z</time></trkpt><trkpt lat="44.0818733" lon="12.31568"><ele>58.4</ele><time>2026-05-02T09:57:42.442Z</time></trkpt><trkpt lat="44.0817717" lon="12.31566"><ele>58.2</ele><time>2026-05-02T09:57:44.442Z</time></trkpt><trkpt lat="44.08167" lon="12.3156433"><ele>58.0</ele><time>2026-05-02T09:57:46.44Z</time></trkpt><trkpt lat="44.0815633" lon="12.3156267"><ele>58.0</ele><time>2026-05-02T09:57:48.441Z</time></trkpt><trkpt lat="44.081455" lon="12.31561"><ele>58.0</ele><time>2026-05-02T09:57:50.442Z</time></trkpt><trkpt lat="44.0813533" lon="12.315595"><ele>58.0</ele><time>2026-05-02T09:57:52.44Z</time></trkpt><trkpt lat="44.08125" lon="12.3155817"><ele>58.0</ele><time>2026-05-02T09:57:54.44Z</time></trkpt><trkpt lat="44.0811517" lon="12.315565"><ele>58.0</ele><time>2026-05-02T09:57:56.442Z</time></trkpt><trkpt lat="44.0810533" lon="12.3155467"><ele>58.0</ele><time>2026-05-02T09:57:58.443Z</time></trkpt><trkpt lat="44.080945" lon="12.3155233"><ele>58.0</ele><time>2026-05-02T09:58:00.443Z</time></trkpt><trkpt lat="44.08085" lon="12.31551"><ele>58.0</ele><time>2026-05-02T09:58:02.442Z</time></trkpt><trkpt lat="44.0807667" lon="12.3154933"><ele>58.0</ele><time>2026-05-02T09:58:04.443Z</time></trkpt><trkpt lat="44.0806717" lon="12.31548"><ele>58.0</ele><time>2026-05-02T09:58:06.44Z</time></trkpt><trkpt lat="44.08057" lon="12.3154667"><ele>58.0</ele><time>2026-05-02T09:58:08.439Z</time></trkpt><trkpt lat="44.0804633" lon="12.315455"><ele>58.0</ele><time>2026-05-02T09:58:10.442Z</time></trkpt><trkpt lat="44.08035" lon="12.3154583"><ele>58.0</ele><time>2026-05-02T09:58:12.442Z</time></trkpt><trkpt lat="44.080245" lon="12.3154567"><ele>58.0</ele><time>2026-05-02T09:58:14.443Z</time></trkpt><trkpt lat="44.0801417" lon="12.3154667"><ele>58.0</ele><time>2026-05-02T09:58:16.443Z</time></trkpt><trkpt lat="44.0800467" lon="12.31548"><ele>57.99999999999999</ele><time>2026-05-02T09:58:18.441Z</time></trkpt><trkpt lat="44.0799567" lon="12.3155033"><ele>58.0</ele><time>2026-05-02T09:58:20.441Z</time></trkpt><trkpt lat="44.0798733" lon="12.3155317"><ele>58.0</ele><time>2026-05-02T09:58:22.44Z</time></trkpt><trkpt lat="44.0797883" lon="12.31556"><ele>58.0</ele><time>2026-05-02T09:58:24.441Z</time></trkpt><trkpt lat="44.0797033" lon="12.3155867"><ele>57.99999999999999</ele><time>2026-05-02T09:58:26.443Z</time></trkpt><trkpt lat="44.0796217" lon="12.3156133"><ele>58.0</ele><time>2026-05-02T09:58:28.443Z</time></trkpt><trkpt lat="44.0795417" lon="12.3156367"><ele>58.49999999999999</ele><time>2026-05-02T09:58:30.443Z</time></trkpt><trkpt lat="44.0794633" lon="12.3156683"><ele>59.0</ele><time>2026-05-02T09:58:32.443Z</time></trkpt><trkpt lat="44.0793917" lon="12.31571"><ele>59.5</ele><time>2026-05-02T09:58:34.443Z</time></trkpt><trkpt lat="44.07932" lon="12.3157533"><ele>60.0</ele><time>2026-05-02T09:58:36.443Z</time></trkpt><trkpt lat="44.0792517" lon="12.3158017"><ele>60.49999999999999</ele><time>2026-05-02T09:58:38.441Z</time></trkpt><trkpt lat="44.0791867" lon="12.3158517"><ele>61.0</ele><time>2026-05-02T09:58:40.441Z</time></trkpt><trkpt lat="44.0791217" lon="12.3158983"><ele>61.166666666666664</ele><time>2026-05-02T09:58:42.442Z</time></trkpt><trkpt lat="44.079055" lon="12.3159433"><ele>61.33333333333333</ele><time>2026-05-02T09:58:44.44Z</time></trkpt><trkpt lat="44.0789867" lon="12.3159917"><ele>61.5</ele><time>2026-05-02T09:58:46.44Z</time></trkpt><trkpt lat="44.078915" lon="12.3160467"><ele>61.66666666666667</ele><time>2026-05-02T09:58:48.441Z</time></trkpt><trkpt lat="44.0788483" lon="12.316095"><ele>61.833333333333336</ele><time>2026-05-02T09:58:50.441Z</time></trkpt><trkpt lat="44.0787783" lon="12.316145"><ele>62.0</ele><time>2026-05-02T09:58:52.441Z</time></trkpt><trkpt lat="44.07871" lon="12.3161917"><ele>62.00000000000001</ele><time>2026-05-02T09:58:54.441Z</time></trkpt><trkpt lat="44.0786417" lon="12.3162417"><ele>62.0</ele><time>2026-05-02T09:58:56.441Z</time></trkpt><trkpt lat="44.0785717" lon="12.31629"><ele>62.0</ele><time>2026-05-02T09:58:58.442Z</time></trkpt><trkpt lat="44.0785" lon="12.3163417"><ele>62.0</ele><time>2026-05-02T09:59:00.441Z</time></trkpt><trkpt lat="44.078425" lon="12.3163983"><ele>62.00000000000001</ele><time>2026-05-02T09:59:02.44Z</time></trkpt><trkpt lat="44.0783517" lon="12.316455"><ele>62.0</ele><time>2026-05-02T09:59:04.443Z</time></trkpt><trkpt lat="44.078285" lon="12.3165033"><ele>62.16666666666667</ele><time>2026-05-02T09:59:06.439Z</time></trkpt><trkpt lat="44.078215" lon="12.3165467"><ele>62.333333333333336</ele><time>2026-05-02T09:59:08.44Z</time></trkpt><trkpt lat="44.0781417" lon="12.3165967"><ele>62.5</ele><time>2026-05-02T09:59:10.439Z</time></trkpt><trkpt lat="44.0780717" lon="12.316645"><ele>62.66666666666667</ele><time>2026-05-02T09:59:12.443Z</time></trkpt><trkpt lat="44.078" lon="12.3166967"><ele>62.833333333333336</ele><time>2026-05-02T09:59:14.441Z</time></trkpt><trkpt lat="44.0779267" lon="12.316745"><ele>63.0</ele><time>2026-05-02T09:59:16.441Z</time></trkpt><trkpt lat="44.0778567" lon="12.3167967"><ele>63.0</ele><time>2026-05-02T09:59:18.441Z</time></trkpt><trkpt lat="44.0777883" lon="12.3168433"><ele>63.0</ele><time>2026-05-02T09:59:20.439Z</time></trkpt><trkpt lat="44.0777183" lon="12.316885"><ele>63.0</ele><time>2026-05-02T09:59:22.441Z</time></trkpt><trkpt lat="44.077645" lon="12.31693"><ele>63.0</ele><time>2026-05-02T09:59:24.441Z</time></trkpt><trkpt lat="44.0775683" lon="12.3169733"><ele>63.0</ele><time>2026-05-02T09:59:26.439Z</time></trkpt><trkpt lat="44.0774967" lon="12.3170233"><ele>63.0</ele><time>2026-05-02T09:59:28.44Z</time></trkpt><trkpt lat="44.0774233" lon="12.3170717"><ele>63.333333333333336</ele><time>2026-05-02T09:59:30.439Z</time></trkpt><trkpt lat="44.07735" lon="12.3171167"><ele>63.66666666666667</ele><time>2026-05-02T09:59:32.439Z</time></trkpt><trkpt lat="44.0772733" lon="12.317155"><ele>64.0</ele><time>2026-05-02T09:59:34.443Z</time></trkpt><trkpt lat="44.0771983" lon="12.317195"><ele>64.33333333333334</ele><time>2026-05-02T09:59:36.442Z</time></trkpt><trkpt lat="44.0771267" lon="12.3172283"><ele>64.66666666666667</ele><time>2026-05-02T09:59:38.44Z</time></trkpt><trkpt lat="44.0770483" lon="12.3172683"><ele>65.0</ele><time>2026-05-02T09:59:40.442Z</time></trkpt><trkpt lat="44.07697" lon="12.3173083"><ele>65.0</ele><time>2026-05-02T09:59:42.441Z</time></trkpt><trkpt lat="44.0768983" lon="12.31735"><ele>65.0</ele><time>2026-05-02T09:59:44.441Z</time></trkpt><trkpt lat="44.0768267" lon="12.317405"><ele>65.0</ele><time>2026-05-02T09:59:46.44Z</time></trkpt><trkpt lat="44.0767583" lon="12.3174633"><ele>65.0</ele><time>2026-05-02T09:59:48.44Z</time></trkpt><trkpt lat="44.0766883" lon="12.3175233"><ele>65.0</ele><time>2026-05-02T09:59:50.44Z</time></trkpt><trkpt lat="44.07662" lon="12.3175867"><ele>65.0</ele><time>2026-05-02T09:59:52.439Z</time></trkpt><trkpt lat="44.076555" lon="12.317655"><ele>65.0</ele><time>2026-05-02T09:59:54.441Z</time></trkpt><trkpt lat="44.0764883" lon="12.3177217"><ele>65.0</ele><time>2026-05-02T09:59:56.44Z</time></trkpt><trkpt lat="44.0764233" lon="12.3177983"><ele>65.0</ele><time>2026-05-02T09:59:58.441Z</time></trkpt><trkpt lat="44.076365" lon="12.3178817"><ele>65.0</ele><time>2026-05-02T10:00:00.44Z</time></trkpt><trkpt lat="44.0763033" lon="12.317965"><ele>65.0</ele><time>2026-05-02T10:00:02.44Z</time></trkpt><trkpt lat="44.0762383" lon="12.3180467"><ele>65.0</ele><time>2026-05-02T10:00:04.44Z</time></trkpt><trkpt lat="44.0761517" lon="12.3181333"><ele>65.0</ele><time>2026-05-02T10:00:06.44Z</time></trkpt><trkpt lat="44.0760317" lon="12.318175"><ele>65.0</ele><time>2026-05-02T10:00:08.44Z</time></trkpt><trkpt lat="44.0759567" lon="12.3181383"><ele>65.0</ele><time>2026-05-02T10:00:09.441Z</time></trkpt><trkpt lat="44.0758817" lon="12.3180733"><ele>65.0</ele><time>2026-05-02T10:00:10.441Z</time></trkpt><trkpt lat="44.0758033" lon="12.3179967"><ele>65.0</ele><time>2026-05-02T10:00:11.443Z</time></trkpt><trkpt lat="44.0757217" lon="12.3179183"><ele>63.4</ele><time>2026-05-02T10:00:12.442Z</time></trkpt><trkpt lat="44.0756383" lon="12.3178383"><ele>61.8</ele><time>2026-05-02T10:00:13.442Z</time></trkpt><trkpt lat="44.0755533" lon="12.31775"><ele>60.2</ele><time>2026-05-02T10:00:14.442Z</time></trkpt><trkpt lat="44.075465" lon="12.3176617"><ele>58.6</ele><time>2026-05-02T10:00:15.444Z</time></trkpt><trkpt lat="44.0753783" lon="12.31758"><ele>57.0</ele><time>2026-05-02T10:00:16.443Z</time></trkpt><trkpt lat="44.07529" lon="12.3175017"><ele>57.0</ele><time>2026-05-02T10:00:17.44Z</time></trkpt><trkpt lat="44.0752017" lon="12.3174317"><ele>57.0</ele><time>2026-05-02T10:00:18.441Z</time></trkpt><trkpt lat="44.0751117" lon="12.3173683"><ele>57.0</ele><time>2026-05-02T10:00:19.44Z</time></trkpt><trkpt lat="44.0750267" lon="12.3173117"><ele>57.0</ele><time>2026-05-02T10:00:20.441Z</time></trkpt><trkpt lat="44.0749433" lon="12.3172683"><ele>57.0</ele><time>2026-05-02T10:00:21.44Z</time></trkpt><trkpt lat="44.07486" lon="12.3172267"><ele>57.0</ele><time>2026-05-02T10:00:22.44Z</time></trkpt><trkpt lat="44.0747783" lon="12.317185"><ele>57.0</ele><time>2026-05-02T10:00:23.442Z</time></trkpt><trkpt lat="44.0747033" lon="12.3171467"><ele>57.0</ele><time>2026-05-02T10:00:24.44Z</time></trkpt><trkpt lat="44.0746333" lon="12.317115"><ele>57.0</ele><time>2026-05-02T10:00:25.441Z</time></trkpt><trkpt lat="44.07456" lon="12.31709"><ele>57.0</ele><time>2026-05-02T10:00:26.442Z</time></trkpt><trkpt lat="44.0744883" lon="12.3170667"><ele>57.0</ele><time>2026-05-02T10:00:27.443Z</time></trkpt><trkpt lat="44.0744183" lon="12.3170433"><ele>57.0</ele><time>2026-05-02T10:00:28.443Z</time></trkpt><trkpt lat="44.0743533" lon="12.317015"><ele>57.0</ele><time>2026-05-02T10:00:29.44Z</time></trkpt><trkpt lat="44.0742883" lon="12.31699"><ele>57.0</ele><time>2026-05-02T10:00:30.439Z</time></trkpt><trkpt lat="44.0742267" lon="12.3169683"><ele>57.0</ele><time>2026-05-02T10:00:31.44Z</time></trkpt><trkpt lat="44.074105" lon="12.31692"><ele>57.0</ele><time>2026-05-02T10:00:33.441Z</time></trkpt><trkpt lat="44.0740417" lon="12.3168967"><ele>57.0</ele><time>2026-05-02T10:00:34.442Z</time></trkpt><trkpt lat="44.0739817" lon="12.31687"><ele>57.166666666666664</ele><time>2026-05-02T10:00:35.44Z</time></trkpt><trkpt lat="44.07392" lon="12.3168467"><ele>57.33333333333333</ele><time>2026-05-02T10:00:36.442Z</time></trkpt><trkpt lat="44.0737967" lon="12.31682"><ele>57.5</ele><time>2026-05-02T10:00:38.439Z</time></trkpt><trkpt lat="44.0736717" lon="12.3167983"><ele>57.666666666666664</ele><time>2026-05-02T10:00:40.439Z</time></trkpt><trkpt lat="44.0736083" lon="12.3167933"><ele>57.83333333333333</ele><time>2026-05-02T10:00:41.439Z</time></trkpt><trkpt lat="44.0735433" lon="12.3167983"><ele>58.0</ele><time>2026-05-02T10:00:42.44Z</time></trkpt><trkpt lat="44.0734217" lon="12.3168083"><ele>58.0</ele><time>2026-05-02T10:00:44.442Z</time></trkpt><trkpt lat="44.0733583" lon="12.3168133"><ele>58.0</ele><time>2026-05-02T10:00:45.441Z</time></trkpt><trkpt lat="44.0732383" lon="12.3168183"><ele>58.0</ele><time>2026-05-02T10:00:47.442Z</time></trkpt><trkpt lat="44.073115" lon="12.3168167"><ele>58.0</ele><time>2026-05-02T10:00:49.441Z</time></trkpt><trkpt lat="44.0729933" lon="12.3168083"><ele>58.0</ele><time>2026-05-02T10:00:51.441Z</time></trkpt><trkpt lat="44.0728733" lon="12.3167833"><ele>58.4</ele><time>2026-05-02T10:00:53.44Z</time></trkpt><trkpt lat="44.0727617" lon="12.3167383"><ele>58.8</ele><time>2026-05-02T10:00:55.442Z</time></trkpt><trkpt lat="44.0726533" lon="12.3166683"><ele>59.2</ele><time>2026-05-02T10:00:57.442Z</time></trkpt><trkpt lat="44.07256" lon="12.3165833"><ele>59.6</ele><time>2026-05-02T10:00:59.439Z</time></trkpt><trkpt lat="44.07248" lon="12.3164983"><ele>60.0</ele><time>2026-05-02T10:01:01.441Z</time></trkpt><trkpt lat="44.072405" lon="12.316415"><ele>60.2</ele><time>2026-05-02T10:01:03.441Z</time></trkpt><trkpt lat="44.0723267" lon="12.31632"><ele>60.4</ele><time>2026-05-02T10:01:05.443Z</time></trkpt><trkpt lat="44.0722517" lon="12.3162333"><ele>60.599999999999994</ele><time>2026-05-02T10:01:07.443Z</time></trkpt><trkpt lat="44.0721733" lon="12.3161483"><ele>60.8</ele><time>2026-05-02T10:01:09.442Z</time></trkpt><trkpt lat="44.0720967" lon="12.3160583"><ele>61.0</ele><time>2026-05-02T10:01:11.44Z</time></trkpt><trkpt lat="44.0720233" lon="12.31597"><ele>61.0</ele><time>2026-05-02T10:01:13.442Z</time></trkpt><trkpt lat="44.07195" lon="12.31588"><ele>60.99999999999999</ele><time>2026-05-02T10:01:15.443Z</time></trkpt><trkpt lat="44.0718683" lon="12.3157933"><ele>60.99999999999999</ele><time>2026-05-02T10:01:17.442Z</time></trkpt><trkpt lat="44.07179" lon="12.31571"><ele>61.0</ele><time>2026-05-02T10:01:19.441Z</time></trkpt><trkpt lat="44.07171" lon="12.3156217"><ele>61.0</ele><time>2026-05-02T10:01:21.441Z</time></trkpt><trkpt lat="44.07163" lon="12.31553"><ele>60.8</ele><time>2026-05-02T10:01:23.441Z</time></trkpt><trkpt lat="44.0715533" lon="12.31544"><ele>60.599999999999994</ele><time>2026-05-02T10:01:25.442Z</time></trkpt><trkpt lat="44.0714783" lon="12.3153467"><ele>60.4</ele><time>2026-05-02T10:01:27.442Z</time></trkpt><trkpt lat="44.071405" lon="12.3152633"><ele>60.2</ele><time>2026-05-02T10:01:29.44Z</time></trkpt><trkpt lat="44.07133" lon="12.3151867"><ele>60.0</ele><time>2026-05-02T10:01:31.439Z</time></trkpt><trkpt lat="44.07126" lon="12.3151067"><ele>60.0</ele><time>2026-05-02T10:01:33.44Z</time></trkpt><trkpt lat="44.0711883" lon="12.3150333"><ele>60.0</ele><time>2026-05-02T10:01:35.439Z</time></trkpt><trkpt lat="44.0711183" lon="12.31496"><ele>60.0</ele><time>2026-05-02T10:01:37.442Z</time></trkpt><trkpt lat="44.0710483" lon="12.314875"><ele>60.0</ele><time>2026-05-02T10:01:39.44Z</time></trkpt><trkpt lat="44.0709767" lon="12.3147933"><ele>60.0</ele><time>2026-05-02T10:01:41.439Z</time></trkpt><trkpt lat="44.0709017" lon="12.3147083"><ele>60.6</ele><time>2026-05-02T10:01:43.439Z</time></trkpt><trkpt lat="44.0708267" lon="12.3146233"><ele>61.2</ele><time>2026-05-02T10:01:45.443Z</time></trkpt><trkpt lat="44.0707483" lon="12.3145433"><ele>61.8</ele><time>2026-05-02T10:01:47.439Z</time></trkpt><trkpt lat="44.0706733" lon="12.31446"><ele>62.4</ele><time>2026-05-02T10:01:49.442Z</time></trkpt><trkpt lat="44.0705983" lon="12.31437"><ele>63.0</ele><time>2026-05-02T10:01:51.441Z</time></trkpt><trkpt lat="44.07052" lon="12.314285"><ele>63.0</ele><time>2026-05-02T10:01:53.44Z</time></trkpt><trkpt lat="44.070445" lon="12.3142067"><ele>63.0</ele><time>2026-05-02T10:01:55.44Z</time></trkpt><trkpt lat="44.0703733" lon="12.314125"><ele>63.0</ele><time>2026-05-02T10:01:57.443Z</time></trkpt><trkpt lat="44.0702983" lon="12.31405"><ele>63.0</ele><time>2026-05-02T10:01:59.441Z</time></trkpt><trkpt lat="44.0702283" lon="12.31397"><ele>63.0</ele><time>2026-05-02T10:02:01.442Z</time></trkpt><trkpt lat="44.0701567" lon="12.313885"><ele>62.8</ele><time>2026-05-02T10:02:03.444Z</time></trkpt><trkpt lat="44.0700817" lon="12.3138"><ele>62.599999999999994</ele><time>2026-05-02T10:02:05.439Z</time></trkpt><trkpt lat="44.0700117" lon="12.3137133"><ele>62.400000000000006</ele><time>2026-05-02T10:02:07.443Z</time></trkpt><trkpt lat="44.0699433" lon="12.31362"><ele>62.2</ele><time>2026-05-02T10:02:09.441Z</time></trkpt><trkpt lat="44.06987" lon="12.3135383"><ele>62.0</ele><time>2026-05-02T10:02:11.442Z</time></trkpt><trkpt lat="44.0697967" lon="12.3134933"><ele>62.0</ele><time>2026-05-02T10:02:13.444Z</time></trkpt><trkpt lat="44.0697233" lon="12.3134733"><ele>62.00000000000001</ele><time>2026-05-02T10:02:15.443Z</time></trkpt><trkpt lat="44.0696483" lon="12.31346"><ele>62.0</ele><time>2026-05-02T10:02:17.442Z</time></trkpt><trkpt lat="44.0695683" lon="12.3134517"><ele>62.0</ele><time>2026-05-02T10:02:19.443Z</time></trkpt><trkpt lat="44.069495" lon="12.31345"><ele>62.00000000000001</ele><time>2026-05-02T10:02:21.443Z</time></trkpt><trkpt lat="44.0694267" lon="12.3134583"><ele>62.0</ele><time>2026-05-02T10:02:23.442Z</time></trkpt><trkpt lat="44.0693567" lon="12.313455"><ele>62.0</ele><time>2026-05-02T10:02:25.442Z</time></trkpt><trkpt lat="44.0692917" lon="12.3134567"><ele>62.00000000000001</ele><time>2026-05-02T10:02:27.443Z</time></trkpt><trkpt lat="44.0692267" lon="12.3134733"><ele>62.0</ele><time>2026-05-02T10:02:29.44Z</time></trkpt><trkpt lat="44.0691367" lon="12.3135"><ele>62.0</ele><time>2026-05-02T10:02:32.44Z</time></trkpt><trkpt lat="44.0690483" lon="12.31353"><ele>62.0</ele><time>2026-05-02T10:02:35.44Z</time></trkpt><trkpt lat="44.0689583" lon="12.313555"><ele>62.00000000000001</ele><time>2026-05-02T10:02:38.442Z</time></trkpt><trkpt lat="44.0688783" lon="12.3135783"><ele>62.0</ele><time>2026-05-02T10:02:41.44Z</time></trkpt><trkpt lat="44.0688067" lon="12.3136067"><ele>63.42857142857143</ele><time>2026-05-02T10:02:44.442Z</time></trkpt><trkpt lat="44.0687433" lon="12.3136167"><ele>64.85714285714286</ele><time>2026-05-02T10:02:47.442Z</time></trkpt><trkpt lat="44.068665" lon="12.3136183"><ele>66.28571428571429</ele><time>2026-05-02T10:02:52.441Z</time></trkpt><trkpt lat="44.0686417" lon="12.3137083"><ele>67.71428571428572</ele><time>2026-05-02T10:02:57.443Z</time></trkpt><trkpt lat="44.068665" lon="12.31379"><ele>69.14285714285714</ele><time>2026-05-02T10:03:01.441Z</time></trkpt><trkpt lat="44.068695" lon="12.3138767"><ele>70.57142857142858</ele><time>2026-05-02T10:03:06.442Z</time></trkpt><trkpt lat="44.0687033" lon="12.3139733"><ele>72.0</ele><time>2026-05-02T10:03:11.439Z</time></trkpt><trkpt lat="44.0687183" lon="12.31407"><ele>72.00000000000001</ele><time>2026-05-02T10:04:34.44Z</time></trkpt><trkpt lat="44.0687383" lon="12.3141633"><ele>72.0</ele><time>2026-05-02T10:04:38.441Z</time></trkpt><trkpt lat="44.06876" lon="12.314255"><ele>72.0</ele><time>2026-05-02T10:04:42.441Z</time></trkpt><trkpt lat="44.06878" lon="12.3143567"><ele>72.0</ele><time>2026-05-02T10:04:47.444Z</time></trkpt><trkpt lat="44.068825" lon="12.3144467"><ele>72.0</ele><time>2026-05-02T10:04:52.441Z</time></trkpt><trkpt lat="44.0688383" lon="12.3145633"><ele>72.00000000000001</ele><time>2026-05-02T10:04:56.44Z</time></trkpt><trkpt lat="44.068845" lon="12.314655"><ele>72.0</ele><time>2026-05-02T10:04:58.439Z</time></trkpt><trkpt lat="44.068855" lon="12.314785"><ele>71.5</ele><time>2026-05-02T10:05:00.441Z</time></trkpt><trkpt lat="44.0688633" lon="12.314945"><ele>71.0</ele><time>2026-05-02T10:05:02.44Z</time></trkpt><trkpt lat="44.068865" lon="12.3150333"><ele>70.5</ele><time>2026-05-02T10:05:03.441Z</time></trkpt><trkpt lat="44.0688567" lon="12.315135"><ele>70.0</ele><time>2026-05-02T10:05:04.441Z</time></trkpt><trkpt lat="44.0688517" lon="12.3152383"><ele>69.5</ele><time>2026-05-02T10:05:05.439Z</time></trkpt><trkpt lat="44.0688433" lon="12.3153383"><ele>69.0</ele><time>2026-05-02T10:05:06.439Z</time></trkpt><trkpt lat="44.0688367" lon="12.3154567"><ele>69.0</ele><time>2026-05-02T10:05:07.441Z</time></trkpt><trkpt lat="44.068835" lon="12.3155683"><ele>69.0</ele><time>2026-05-02T10:05:08.443Z</time></trkpt><trkpt lat="44.0688567" lon="12.3156633"><ele>69.0</ele><time>2026-05-02T10:05:09.444Z</time></trkpt><trkpt lat="44.06892" lon="12.3157567"><ele>69.0</ele><time>2026-05-02T10:05:10.439Z</time></trkpt><trkpt lat="44.0689783" lon="12.3158283"><ele>69.0</ele><time>2026-05-02T10:05:11.447Z</time></trkpt><trkpt lat="44.06903" lon="12.3158867"><ele>69.0</ele><time>2026-05-02T10:05:12.444Z</time></trkpt><trkpt lat="44.0690883" lon="12.3159667"><ele>69.0</ele><time>2026-05-02T10:05:14.443Z</time></trkpt><trkpt lat="44.0691283" lon="12.3160517"><ele>69.0</ele><time>2026-05-02T10:05:17.439Z</time></trkpt><trkpt lat="44.06915" lon="12.3161383"><ele>69.0</ele><time>2026-05-02T10:05:23.443Z</time></trkpt><trkpt lat="44.0691667" lon="12.31623"><ele>69.0</ele><time>2026-05-02T10:05:29.443Z</time></trkpt><trkpt lat="44.069195" lon="12.3163233"><ele>69.0</ele><time>2026-05-02T10:05:35.442Z</time></trkpt><trkpt lat="44.06923" lon="12.3163967"><ele>69.0</ele><time>2026-05-02T10:05:41.443Z</time></trkpt><trkpt lat="44.069235" lon="12.3165017"><ele>69.0</ele><time>2026-05-02T10:05:47.443Z</time></trkpt><trkpt lat="44.069265" lon="12.316585"><ele>71.80000000000001</ele><time>2026-05-02T10:05:54.442Z</time></trkpt><trkpt lat="44.0692817" lon="12.31668"><ele>74.60000000000001</ele><time>2026-05-02T10:06:01.441Z</time></trkpt><trkpt lat="44.0693183" lon="12.31679"><ele>77.4</ele><time>2026-05-02T10:06:12.442Z</time></trkpt><trkpt lat="44.0693467" lon="12.316925"><ele>80.2</ele><time>2026-05-02T10:06:24.443Z</time></trkpt><trkpt lat="44.0694017" lon="12.3171133"><ele>83.0</ele><time>2026-05-02T10:06:42.44Z</time></trkpt><trkpt lat="44.06943" lon="12.3172067"><ele>83.85714285714285</ele><time>2026-05-02T10:06:49.442Z</time></trkpt><trkpt lat="44.069435" lon="12.3173017"><ele>84.71428571428572</ele><time>2026-05-02T10:06:55.442Z</time></trkpt><trkpt lat="44.0694767" lon="12.31737"><ele>85.57142857142857</ele><time>2026-05-02T10:07:00.439Z</time></trkpt><trkpt lat="44.06949" lon="12.3174617"><ele>86.42857142857142</ele><time>2026-05-02T10:07:06.442Z</time></trkpt><trkpt lat="44.0695183" lon="12.3175433"><ele>87.28571428571428</ele><time>2026-05-02T10:07:11.439Z</time></trkpt><trkpt lat="44.0695583" lon="12.3176183"><ele>88.14285714285714</ele><time>2026-05-02T10:07:16.442Z</time></trkpt><trkpt lat="44.06962" lon="12.31767"><ele>89.0</ele><time>2026-05-02T10:07:23.442Z</time></trkpt><trkpt lat="44.06966" lon="12.31776"><ele>88.99999999999999</ele><time>2026-05-02T10:07:29.44Z</time></trkpt><trkpt lat="44.0697183" lon="12.31781"><ele>89.0</ele><time>2026-05-02T10:07:36.44Z</time></trkpt><trkpt lat="44.06977" lon="12.317875"><ele>89.0</ele><time>2026-05-02T10:07:42.442Z</time></trkpt><trkpt lat="44.06983" lon="12.31791"><ele>89.0</ele><time>2026-05-02T10:07:48.442Z</time></trkpt><trkpt lat="44.0698483" lon="12.3179967"><ele>89.0</ele><time>2026-05-02T10:07:53.441Z</time></trkpt><trkpt lat="44.0699117" lon="12.318"><ele>88.99999999999999</ele><time>2026-05-02T10:07:59.439Z</time></trkpt><trkpt lat="44.0699283" lon="12.3180917"><ele>89.0</ele><time>2026-05-02T10:08:05.44Z</time></trkpt><trkpt lat="44.069975" lon="12.3181733"><ele>91.0</ele><time>2026-05-02T10:08:11.441Z</time></trkpt><trkpt lat="44.070035" lon="12.3182733"><ele>93.0</ele><time>2026-05-02T10:08:19.442Z</time></trkpt><trkpt lat="44.0700683" lon="12.3183883"><ele>95.0</ele><time>2026-05-02T10:08:28.439Z</time></trkpt><trkpt lat="44.07012" lon="12.3184433"><ele>97.0</ele><time>2026-05-02T10:08:34.442Z</time></trkpt><trkpt lat="44.0701333" lon="12.3185333"><ele>98.99999999999999</ele><time>2026-05-02T10:08:40.44Z</time></trkpt><trkpt lat="44.070175" lon="12.3186017"><ele>101.0</ele><time>2026-05-02T10:08:48.442Z</time></trkpt><trkpt lat="44.0702317" lon="12.3186883"><ele>101.0</ele><time>2026-05-02T10:08:56.44Z</time></trkpt><trkpt lat="44.070265" lon="12.3187683"><ele>101.0</ele><time>2026-05-02T10:09:03.44Z</time></trkpt><trkpt lat="44.0703067" lon="12.3188383"><ele>101.0</ele><time>2026-05-02T10:09:10.44Z</time></trkpt><trkpt lat="44.07037" lon="12.318885"><ele>101.0</ele><time>2026-05-02T10:09:17.44Z</time></trkpt><trkpt lat="44.07044" lon="12.3189383"><ele>101.0</ele><time>2026-05-02T10:09:26.443Z</time></trkpt><trkpt lat="44.0704933" lon="12.318985"><ele>101.0</ele><time>2026-05-02T10:09:34.44Z</time></trkpt><trkpt lat="44.0705517" lon="12.3190183"><ele>101.0</ele><time>2026-05-02T10:09:41.439Z</time></trkpt><trkpt lat="44.0706317" lon="12.3190517"><ele>102.66666666666666</ele><time>2026-05-02T10:09:50.441Z</time></trkpt><trkpt lat="44.07073" lon="12.319075"><ele>104.33333333333333</ele><time>2026-05-02T10:10:02.441Z</time></trkpt><trkpt lat="44.07081" lon="12.3191283"><ele>106.0</ele><time>2026-05-02T10:10:13.445Z</time></trkpt><trkpt lat="44.0708783" lon="12.3191617"><ele>107.66666666666666</ele><time>2026-05-02T10:10:22.44Z</time></trkpt><trkpt lat="44.0709533" lon="12.3191767"><ele>109.33333333333333</ele><time>2026-05-02T10:10:31.44Z</time></trkpt><trkpt lat="44.071025" lon="12.3192117"><ele>111.0</ele><time>2026-05-02T10:10:41.443Z</time></trkpt><trkpt lat="44.071105" lon="12.3192533"><ele>112.83333333333333</ele><time>2026-05-02T10:10:52.439Z</time></trkpt><trkpt lat="44.0711883" lon="12.31931"><ele>114.66666666666666</ele><time>2026-05-02T10:11:03.444Z</time></trkpt><trkpt lat="44.0712733" lon="12.319375"><ele>116.5</ele><time>2026-05-02T10:11:13.443Z</time></trkpt><trkpt lat="44.07132" lon="12.3194417"><ele>118.33333333333333</ele><time>2026-05-02T10:11:20.441Z</time></trkpt><trkpt lat="44.0713733" lon="12.3195"><ele>120.16666666666666</ele><time>2026-05-02T10:11:26.442Z</time></trkpt><trkpt lat="44.0714117" lon="12.3195867"><ele>122.0</ele><time>2026-05-02T10:11:31.439Z</time></trkpt><trkpt lat="44.071445" lon="12.3196617"><ele>122.83333333333333</ele><time>2026-05-02T10:11:36.442Z</time></trkpt><trkpt lat="44.0714817" lon="12.3197483"><ele>123.66666666666666</ele><time>2026-05-02T10:11:42.441Z</time></trkpt><trkpt lat="44.071525" lon="12.3198283"><ele>124.5</ele><time>2026-05-02T10:11:47.443Z</time></trkpt><trkpt lat="44.0715717" lon="12.31994"><ele>125.33333333333334</ele><time>2026-05-02T10:12:21.441Z</time></trkpt><trkpt lat="44.0716067" lon="12.3200333"><ele>126.16666666666667</ele><time>2026-05-02T10:12:25.442Z</time></trkpt><trkpt lat="44.071635" lon="12.3201167"><ele>127.0</ele><time>2026-05-02T10:12:29.44Z</time></trkpt><trkpt lat="44.0716567" lon="12.3202117"><ele>127.0</ele><time>2026-05-02T10:12:33.443Z</time></trkpt><trkpt lat="44.0717133" lon="12.320285"><ele>127.0</ele><time>2026-05-02T10:12:37.442Z</time></trkpt><trkpt lat="44.0717183" lon="12.3203833"><ele>127.0</ele><time>2026-05-02T10:12:40.442Z</time></trkpt><trkpt lat="44.07172" lon="12.320475"><ele>127.0</ele><time>2026-05-02T10:12:43.439Z</time></trkpt><trkpt lat="44.071725" lon="12.3205633"><ele>127.0</ele><time>2026-05-02T10:12:46.438Z</time></trkpt><trkpt lat="44.071735" lon="12.3206667"><ele>127.0</ele><time>2026-05-02T10:12:50.44Z</time></trkpt><trkpt lat="44.07176" lon="12.3207717"><ele>127.0</ele><time>2026-05-02T10:12:54.439Z</time></trkpt><trkpt lat="44.07177" lon="12.3208617"><ele>128.14285714285714</ele><time>2026-05-02T10:12:58.438Z</time></trkpt><trkpt lat="44.0717917" lon="12.32096"><ele>129.28571428571428</ele><time>2026-05-02T10:13:02.441Z</time></trkpt><trkpt lat="44.0718117" lon="12.3210567"><ele>130.42857142857142</ele><time>2026-05-02T10:13:06.441Z</time></trkpt><trkpt lat="44.07185" lon="12.3211617"><ele>131.57142857142856</ele><time>2026-05-02T10:13:10.442Z</time></trkpt><trkpt lat="44.0718633" lon="12.321255"><ele>132.7142857142857</ele><time>2026-05-02T10:13:13.443Z</time></trkpt><trkpt lat="44.071875" lon="12.3213483"><ele>133.85714285714286</ele><time>2026-05-02T10:13:16.441Z</time></trkpt><trkpt lat="44.07189" lon="12.3214383"><ele>135.0</ele><time>2026-05-02T10:13:19.439Z</time></trkpt><trkpt lat="44.0719217" lon="12.3215217"><ele>136.42857142857142</ele><time>2026-05-02T10:13:22.44Z</time></trkpt><trkpt lat="44.0719633" lon="12.3216017"><ele>137.85714285714283</ele><time>2026-05-02T10:13:25.439Z</time></trkpt><trkpt lat="44.0719933" lon="12.3216883"><ele>139.28571428571428</ele><time>2026-05-02T10:13:28.439Z</time></trkpt><trkpt lat="44.0720117" lon="12.3217817"><ele>140.71428571428572</ele><time>2026-05-02T10:13:31.441Z</time></trkpt><trkpt lat="44.07204" lon="12.32189"><ele>142.14285714285717</ele><time>2026-05-02T10:13:35.442Z</time></trkpt><trkpt lat="44.07208" lon="12.3219633"><ele>143.57142857142858</ele><time>2026-05-02T10:13:38.442Z</time></trkpt><trkpt lat="44.07212" lon="12.3220367"><ele>145.0</ele><time>2026-05-02T10:13:41.442Z</time></trkpt><trkpt lat="44.0721433" lon="12.32212"><ele>145.0</ele><time>2026-05-02T10:13:44.442Z</time></trkpt><trkpt lat="44.0721667" lon="12.3222033"><ele>145.0</ele><time>2026-05-02T10:13:47.442Z</time></trkpt><trkpt lat="44.0721817" lon="12.32229"><ele>145.0</ele><time>2026-05-02T10:13:50.441Z</time></trkpt><trkpt lat="44.0722183" lon="12.322365"><ele>145.0</ele><time>2026-05-02T10:13:53.442Z</time></trkpt><trkpt lat="44.072235" lon="12.3224783"><ele>145.0</ele><time>2026-05-02T10:13:57.443Z</time></trkpt><trkpt lat="44.0722333" lon="12.3225783"><ele>145.0</ele><time>2026-05-02T10:14:00.443Z</time></trkpt><trkpt lat="44.0722483" lon="12.3226767"><ele>145.0</ele><time>2026-05-02T10:14:04.443Z</time></trkpt><trkpt lat="44.0722567" lon="12.3227667"><ele>146.66666666666669</ele><time>2026-05-02T10:14:07.443Z</time></trkpt><trkpt lat="44.0722783" lon="12.32289"><ele>148.33333333333334</ele><time>2026-05-02T10:14:10.442Z</time></trkpt><trkpt lat="44.0723033" lon="12.3230067"><ele>150.0</ele><time>2026-05-02T10:14:13.44Z</time></trkpt><trkpt lat="44.0723333" lon="12.3230917"><ele>151.66666666666666</ele><time>2026-05-02T10:14:19.443Z</time></trkpt><trkpt lat="44.0723617" lon="12.323185"><ele>153.33333333333331</ele><time>2026-05-02T10:14:26.44Z</time></trkpt><trkpt lat="44.072375" lon="12.32328"><ele>155.0</ele><time>2026-05-02T10:14:32.439Z</time></trkpt><trkpt lat="44.072395" lon="12.32338"><ele>154.16666666666666</ele><time>2026-05-02T10:14:37.443Z</time></trkpt><trkpt lat="44.0724283" lon="12.3234617"><ele>153.33333333333331</ele><time>2026-05-02T10:14:42.442Z</time></trkpt><trkpt lat="44.0724583" lon="12.323555"><ele>152.5</ele><time>2026-05-02T10:14:47.44Z</time></trkpt><trkpt lat="44.0724583" lon="12.323655"><ele>151.66666666666666</ele><time>2026-05-02T10:14:53.442Z</time></trkpt><trkpt lat="44.0724983" lon="12.3237367"><ele>150.83333333333334</ele><time>2026-05-02T10:14:58.44Z</time></trkpt><trkpt lat="44.0725" lon="12.323835"><ele>150.0</ele><time>2026-05-02T10:15:04.439Z</time></trkpt><trkpt lat="44.0725067" lon="12.323995"><ele>154.0</ele><time>2026-05-02T10:15:13.439Z</time></trkpt><trkpt lat="44.0725467" lon="12.3241033"><ele>158.0</ele><time>2026-05-02T10:15:29.441Z</time></trkpt><trkpt lat="44.07269" lon="12.32433"><ele>162.0</ele><time>2026-05-02T10:15:30.439Z</time></trkpt><trkpt lat="44.0727617" lon="12.32443"><ele>166.0</ele><time>2026-05-02T10:15:32.44Z</time></trkpt><trkpt lat="44.0728283" lon="12.3245167"><ele>166.0</ele><time>2026-05-02T10:15:34.44Z</time></trkpt><trkpt lat="44.072875" lon="12.3245833"><ele>166.0</ele><time>2026-05-02T10:15:35.441Z</time></trkpt><trkpt lat="44.07294" lon="12.3246933"><ele>166.0</ele><time>2026-05-02T10:15:37.441Z</time></trkpt><trkpt lat="44.073" lon="12.324785"><ele>166.0</ele><time>2026-05-02T10:15:38.442Z</time></trkpt><trkpt lat="44.07306" lon="12.3248983"><ele>166.0</ele><time>2026-05-02T10:15:40.439Z</time></trkpt><trkpt lat="44.071825" lon="12.3248717"><ele>164.5</ele><time>2026-05-02T10:16:00.443Z</time></trkpt><trkpt lat="44.0717683" lon="12.3249433"><ele>163.0</ele><time>2026-05-02T10:16:04.443Z</time></trkpt><trkpt lat="44.0717667" lon="12.32504"><ele>161.5</ele><time>2026-05-02T10:16:16.442Z</time></trkpt><trkpt lat="44.0718083" lon="12.32511"><ele>160.0</ele><time>2026-05-02T10:16:19.438Z</time></trkpt><trkpt lat="44.0718833" lon="12.3251817"><ele>158.5</ele><time>2026-05-02T10:16:22.44Z</time></trkpt><trkpt lat="44.071945" lon="12.3252367"><ele>157.0</ele><time>2026-05-02T10:16:24.441Z</time></trkpt><trkpt lat="44.0720083" lon="12.3253167"><ele>157.0</ele><time>2026-05-02T10:16:26.442Z</time></trkpt><trkpt lat="44.0720733" lon="12.325385"><ele>157.0</ele><time>2026-05-02T10:16:28.44Z</time></trkpt><trkpt lat="44.07212" lon="12.325455"><ele>157.0</ele><time>2026-05-02T10:16:30.441Z</time></trkpt><trkpt lat="44.072185" lon="12.3254667"><ele>157.0</ele><time>2026-05-02T10:16:32.442Z</time></trkpt><trkpt lat="44.0722617" lon="12.32546"><ele>157.0</ele><time>2026-05-02T10:16:35.44Z</time></trkpt><trkpt lat="44.0723417" lon="12.3254433"><ele>157.0</ele><time>2026-05-02T10:16:39.44Z</time></trkpt><trkpt lat="44.0724217" lon="12.3254167"><ele>158.33333333333334</ele><time>2026-05-02T10:16:43.439Z</time></trkpt><trkpt lat="44.07248" lon="12.3253833"><ele>159.66666666666669</ele><time>2026-05-02T10:16:46.44Z</time></trkpt><trkpt lat="44.0725583" lon="12.325355"><ele>161.0</ele><time>2026-05-02T10:16:50.44Z</time></trkpt><trkpt lat="44.0726383" lon="12.325315"><ele>162.33333333333334</ele><time>2026-05-02T10:16:54.44Z</time></trkpt><trkpt lat="44.0727083" lon="12.32531"><ele>163.66666666666666</ele><time>2026-05-02T10:16:57.441Z</time></trkpt><trkpt lat="44.072785" lon="12.3253067"><ele>165.0</ele><time>2026-05-02T10:17:02.441Z</time></trkpt><trkpt lat="44.0728617" lon="12.3252983"><ele>165.0</ele><time>2026-05-02T10:17:08.441Z</time></trkpt><trkpt lat="44.0729367" lon="12.3252817"><ele>165.0</ele><time>2026-05-02T10:17:12.439Z</time></trkpt><trkpt lat="44.0730133" lon="12.3253"><ele>165.0</ele><time>2026-05-02T10:17:17.442Z</time></trkpt><trkpt lat="44.0730933" lon="12.3253617"><ele>165.0</ele><time>2026-05-02T10:17:20.439Z</time></trkpt><trkpt lat="44.0731533" lon="12.325415"><ele>165.0</ele><time>2026-05-02T10:17:22.439Z</time></trkpt><trkpt lat="44.0732267" lon="12.325475"><ele>165.0</ele><time>2026-05-02T10:17:24.439Z</time></trkpt><trkpt lat="44.073305" lon="12.3255417"><ele>162.2</ele><time>2026-05-02T10:17:26.44Z</time></trkpt><trkpt lat="44.07339" lon="12.3256"><ele>159.4</ele><time>2026-05-02T10:17:28.443Z</time></trkpt><trkpt lat="44.0734683" lon="12.3256817"><ele>156.6</ele><time>2026-05-02T10:17:30.442Z</time></trkpt><trkpt lat="44.0735433" lon="12.3257733"><ele>153.8</ele><time>2026-05-02T10:17:32.443Z</time></trkpt><trkpt lat="44.0736217" lon="12.32588"><ele>151.0</ele><time>2026-05-02T10:17:34.439Z</time></trkpt><trkpt lat="44.0736783" lon="12.3259867"><ele>151.0</ele><time>2026-05-02T10:17:36.443Z</time></trkpt><trkpt lat="44.0737317" lon="12.3260817"><ele>151.0</ele><time>2026-05-02T10:17:38.441Z</time></trkpt><trkpt lat="44.0737817" lon="12.3261683"><ele>151.0</ele><time>2026-05-02T10:17:40.443Z</time></trkpt><trkpt lat="44.0738233" lon="12.3262433"><ele>151.0</ele><time>2026-05-02T10:17:42.441Z</time></trkpt><trkpt lat="44.0738683" lon="12.3263417"><ele>151.0</ele><time>2026-05-02T10:17:45.444Z</time></trkpt><trkpt lat="44.0739283" lon="12.3263933"><ele>151.0</ele><time>2026-05-02T10:17:47.438Z</time></trkpt><trkpt lat="44.0739717" lon="12.3264733"><ele>150.66666666666669</ele><time>2026-05-02T10:17:50.438Z</time></trkpt><trkpt lat="44.0740167" lon="12.3265617"><ele>150.33333333333334</ele><time>2026-05-02T10:17:53.439Z</time></trkpt><trkpt lat="44.0740483" lon="12.3266583"><ele>150.0</ele><time>2026-05-02T10:17:57.441Z</time></trkpt><trkpt lat="44.07396" lon="12.3266633"><ele>149.66666666666666</ele><time>2026-05-02T10:18:14.442Z</time></trkpt><trkpt lat="44.0740417" lon="12.3266367"><ele>149.33333333333331</ele><time>2026-05-02T10:18:34.44Z</time></trkpt><trkpt lat="44.0739783" lon="12.32666"><ele>149.0</ele><time>2026-05-02T10:18:36.442Z</time></trkpt><trkpt lat="44.0739167" lon="12.3267"><ele>149.0</ele><time>2026-05-02T10:18:40.441Z</time></trkpt><trkpt lat="44.0738567" lon="12.3267533"><ele>149.0</ele><time>2026-05-02T10:18:45.44Z</time></trkpt><trkpt lat="44.07397" lon="12.326615"><ele>149.0</ele><time>2026-05-02T10:19:49.441Z</time></trkpt><trkpt lat="44.0740667" lon="12.32659"><ele>149.0</ele><time>2026-05-02T10:20:42.443Z</time></trkpt><trkpt lat="44.0739867" lon="12.3265917"><ele>149.0</ele><time>2026-05-02T10:31:09.442Z</time></trkpt><trkpt lat="44.0740883" lon="12.3267067"><ele>149.71428571428572</ele><time>2026-05-02T10:32:53.443Z</time></trkpt><trkpt lat="44.0741517" lon="12.32674"><ele>150.42857142857142</ele><time>2026-05-02T10:32:57.443Z</time></trkpt><trkpt lat="44.0742367" lon="12.3267633"><ele>151.14285714285714</ele><time>2026-05-02T10:33:01.441Z</time></trkpt><trkpt lat="44.074305" lon="12.32682"><ele>151.85714285714286</ele><time>2026-05-02T10:33:04.44Z</time></trkpt><trkpt lat="44.07436" lon="12.3268733"><ele>152.57142857142856</ele><time>2026-05-02T10:33:07.439Z</time></trkpt><trkpt lat="44.0744117" lon="12.3269233"><ele>153.28571428571428</ele><time>2026-05-02T10:33:10.441Z</time></trkpt><trkpt lat="44.0744733" lon="12.3269917"><ele>154.0</ele><time>2026-05-02T10:33:14.44Z</time></trkpt><trkpt lat="44.0745317" lon="12.3270467"><ele>154.0</ele><time>2026-05-02T10:33:18.441Z</time></trkpt><trkpt lat="44.0745883" lon="12.3270967"><ele>154.0</ele><time>2026-05-02T10:33:21.444Z</time></trkpt><trkpt lat="44.0746417" lon="12.3271517"><ele>154.0</ele><time>2026-05-02T10:33:24.44Z</time></trkpt><trkpt lat="44.0746917" lon="12.327235"><ele>154.0</ele><time>2026-05-02T10:33:28.442Z</time></trkpt><trkpt lat="44.0747517" lon="12.3273117"><ele>154.0</ele><time>2026-05-02T10:33:32.44Z</time></trkpt><trkpt lat="44.0748067" lon="12.327385"><ele>154.0</ele><time>2026-05-02T10:33:36.441Z</time></trkpt><trkpt lat="44.0748683" lon="12.3274517"><ele>154.0</ele><time>2026-05-02T10:33:40.44Z</time></trkpt><trkpt lat="44.0749183" lon="12.3275067"><ele>154.85714285714286</ele><time>2026-05-02T10:33:43.441Z</time></trkpt><trkpt lat="44.0749683" lon="12.3275867"><ele>155.71428571428572</ele><time>2026-05-02T10:33:47.442Z</time></trkpt><trkpt lat="44.0750217" lon="12.3276583"><ele>156.57142857142856</ele><time>2026-05-02T10:33:50.441Z</time></trkpt><trkpt lat="44.0750833" lon="12.3277183"><ele>157.42857142857144</ele><time>2026-05-02T10:33:53.44Z</time></trkpt><trkpt lat="44.0751183" lon="12.3278"><ele>158.28571428571428</ele><time>2026-05-02T10:33:56.443Z</time></trkpt><trkpt lat="44.0751183" lon="12.3279133"><ele>159.14285714285714</ele><time>2026-05-02T10:34:00.441Z</time></trkpt><trkpt lat="44.0751133" lon="12.328005"><ele>160.0</ele><time>2026-05-02T10:34:03.44Z</time></trkpt><trkpt lat="44.0751183" lon="12.3281"><ele>160.57142857142856</ele><time>2026-05-02T10:34:06.439Z</time></trkpt><trkpt lat="44.075125" lon="12.3281917"><ele>161.14285714285714</ele><time>2026-05-02T10:34:09.44Z</time></trkpt><trkpt lat="44.0751333" lon="12.328285"><ele>161.71428571428572</ele><time>2026-05-02T10:34:12.439Z</time></trkpt><trkpt lat="44.0751217" lon="12.328375"><ele>162.28571428571428</ele><time>2026-05-02T10:34:15.444Z</time></trkpt><trkpt lat="44.0751117" lon="12.3284683"><ele>162.85714285714286</ele><time>2026-05-02T10:34:18.443Z</time></trkpt><trkpt lat="44.0751133" lon="12.32857"><ele>163.42857142857142</ele><time>2026-05-02T10:34:21.441Z</time></trkpt><trkpt lat="44.0751" lon="12.3286683"><ele>164.0</ele><time>2026-05-02T10:34:24.441Z</time></trkpt><trkpt lat="44.075085" lon="12.3287783"><ele>164.33333333333331</ele><time>2026-05-02T10:34:27.442Z</time></trkpt><trkpt lat="44.0750967" lon="12.328895"><ele>164.66666666666666</ele><time>2026-05-02T10:34:30.441Z</time></trkpt><trkpt lat="44.0750967" lon="12.328985"><ele>165.0</ele><time>2026-05-02T10:34:33.442Z</time></trkpt><trkpt lat="44.075095" lon="12.3291017"><ele>165.33333333333334</ele><time>2026-05-02T10:34:37.44Z</time></trkpt><trkpt lat="44.0750883" lon="12.3292067"><ele>165.66666666666669</ele><time>2026-05-02T10:34:40.44Z</time></trkpt><trkpt lat="44.0750667" lon="12.3293033"><ele>166.0</ele><time>2026-05-02T10:34:43.44Z</time></trkpt><trkpt lat="44.07507" lon="12.32941"><ele>166.0</ele><time>2026-05-02T10:34:46.442Z</time></trkpt><trkpt lat="44.07507" lon="12.3295167"><ele>166.0</ele><time>2026-05-02T10:34:49.44Z</time></trkpt><trkpt lat="44.07507" lon="12.3296233"><ele>166.0</ele><time>2026-05-02T10:34:52.442Z</time></trkpt><trkpt lat="44.0750783" lon="12.3297283"><ele>166.0</ele><time>2026-05-02T10:34:55.44Z</time></trkpt><trkpt lat="44.07508" lon="12.3298283"><ele>166.0</ele><time>2026-05-02T10:34:58.442Z</time></trkpt><trkpt lat="44.07508" lon="12.329925"><ele>166.0</ele><time>2026-05-02T10:35:01.441Z</time></trkpt><trkpt lat="44.0750767" lon="12.330035"><ele>166.0</ele><time>2026-05-02T10:35:04.441Z</time></trkpt><trkpt lat="44.0750617" lon="12.3301267"><ele>166.0</ele><time>2026-05-02T10:35:06.442Z</time></trkpt><trkpt lat="44.0750383" lon="12.3302483"><ele>166.0</ele><time>2026-05-02T10:35:09.443Z</time></trkpt><trkpt lat="44.0750383" lon="12.330355"><ele>166.0</ele><time>2026-05-02T10:35:12.44Z</time></trkpt><trkpt lat="44.07504" lon="12.3304633"><ele>166.0</ele><time>2026-05-02T10:35:15.441Z</time></trkpt><trkpt lat="44.0750383" lon="12.330565"><ele>166.0</ele><time>2026-05-02T10:35:18.44Z</time></trkpt><trkpt lat="44.0750333" lon="12.33066"><ele>166.66666666666669</ele><time>2026-05-02T10:35:21.442Z</time></trkpt><trkpt lat="44.07502" lon="12.33076"><ele>167.33333333333334</ele><time>2026-05-02T10:35:24.441Z</time></trkpt><trkpt lat="44.0750183" lon="12.3308633"><ele>168.0</ele><time>2026-05-02T10:35:27.44Z</time></trkpt><trkpt lat="44.0750117" lon="12.3309733"><ele>168.66666666666666</ele><time>2026-05-02T10:35:30.44Z</time></trkpt><trkpt lat="44.0750017" lon="12.3310833"><ele>169.33333333333331</ele><time>2026-05-02T10:35:33.445Z</time></trkpt><trkpt lat="44.075" lon="12.3312"><ele>170.0</ele><time>2026-05-02T10:35:36.439Z</time></trkpt><trkpt lat="44.074995" lon="12.3313083"><ele>171.0</ele><time>2026-05-02T10:35:39.441Z</time></trkpt><trkpt lat="44.0750017" lon="12.3314217"><ele>172.0</ele><time>2026-05-02T10:35:42.443Z</time></trkpt><trkpt lat="44.075" lon="12.3315383"><ele>173.0</ele><time>2026-05-02T10:35:45.444Z</time></trkpt><trkpt lat="44.0749883" lon="12.33163"><ele>174.0</ele><time>2026-05-02T10:35:47.44Z</time></trkpt><trkpt lat="44.0749783" lon="12.3317433"><ele>175.0</ele><time>2026-05-02T10:35:50.442Z</time></trkpt><trkpt lat="44.0749717" lon="12.331865"><ele>176.0</ele><time>2026-05-02T10:35:53.44Z</time></trkpt><trkpt lat="44.0749733" lon="12.331975"><ele>176.0</ele><time>2026-05-02T10:35:56.443Z</time></trkpt><trkpt lat="44.0749633" lon="12.3321083"><ele>176.0</ele><time>2026-05-02T10:35:59.441Z</time></trkpt><trkpt lat="44.074965" lon="12.3321983"><ele>176.0</ele><time>2026-05-02T10:36:01.44Z</time></trkpt><trkpt lat="44.07497" lon="12.3322883"><ele>176.0</ele><time>2026-05-02T10:36:03.44Z</time></trkpt><trkpt lat="44.0749733" lon="12.3324183"><ele>176.0</ele><time>2026-05-02T10:36:06.443Z</time></trkpt><trkpt lat="44.0749683" lon="12.3325217"><ele>176.0</ele><time>2026-05-02T10:36:08.442Z</time></trkpt><trkpt lat="44.0749633" lon="12.3326233"><ele>175.83333333333331</ele><time>2026-05-02T10:36:10.442Z</time></trkpt><trkpt lat="44.074955" lon="12.3327283"><ele>175.66666666666666</ele><time>2026-05-02T10:36:12.44Z</time></trkpt><trkpt lat="44.074945" lon="12.3328517"><ele>175.5</ele><time>2026-05-02T10:36:14.442Z</time></trkpt><trkpt lat="44.0749383" lon="12.33297"><ele>175.33333333333334</ele><time>2026-05-02T10:36:16.443Z</time></trkpt><trkpt lat="44.0749317" lon="12.3331033"><ele>175.16666666666669</ele><time>2026-05-02T10:36:18.441Z</time></trkpt><trkpt lat="44.0749183" lon="12.33324"><ele>175.0</ele><time>2026-05-02T10:36:20.442Z</time></trkpt><trkpt lat="44.0749167" lon="12.3333733"><ele>172.6</ele><time>2026-05-02T10:36:22.441Z</time></trkpt><trkpt lat="44.0749117" lon="12.3335167"><ele>170.2</ele><time>2026-05-02T10:36:24.442Z</time></trkpt><trkpt lat="44.0749033" lon="12.3336617"><ele>167.8</ele><time>2026-05-02T10:36:26.442Z</time></trkpt><trkpt lat="44.074895" lon="12.33382"><ele>165.4</ele><time>2026-05-02T10:36:28.439Z</time></trkpt><trkpt lat="44.0748883" lon="12.3339767"><ele>163.0</ele><time>2026-05-02T10:36:30.44Z</time></trkpt><trkpt lat="44.0748783" lon="12.3341167"><ele>163.0</ele><time>2026-05-02T10:36:32.439Z</time></trkpt><trkpt lat="44.0748767" lon="12.33425"><ele>163.0</ele><time>2026-05-02T10:36:34.44Z</time></trkpt><trkpt lat="44.0748717" lon="12.3343883"><ele>163.0</ele><time>2026-05-02T10:36:36.439Z</time></trkpt><trkpt lat="44.074845" lon="12.3345117"><ele>163.0</ele><time>2026-05-02T10:36:38.44Z</time></trkpt><trkpt lat="44.0747883" lon="12.334605"><ele>163.0</ele><time>2026-05-02T10:36:40.44Z</time></trkpt><trkpt lat="44.0747117" lon="12.3346817"><ele>164.0</ele><time>2026-05-02T10:36:42.44Z</time></trkpt><trkpt lat="44.0746417" lon="12.3347517"><ele>165.0</ele><time>2026-05-02T10:36:44.44Z</time></trkpt><trkpt lat="44.074555" lon="12.33479"><ele>166.0</ele><time>2026-05-02T10:36:46.443Z</time></trkpt><trkpt lat="44.0744717" lon="12.3348067"><ele>167.0</ele><time>2026-05-02T10:36:48.442Z</time></trkpt><trkpt lat="44.07439" lon="12.3348183"><ele>168.0</ele><time>2026-05-02T10:36:50.44Z</time></trkpt><trkpt lat="44.074305" lon="12.3348417"><ele>169.0</ele><time>2026-05-02T10:36:52.44Z</time></trkpt><trkpt lat="44.0742267" lon="12.33485"><ele>169.0</ele><time>2026-05-02T10:36:54.441Z</time></trkpt><trkpt lat="44.0741417" lon="12.3348683"><ele>169.0</ele><time>2026-05-02T10:36:56.443Z</time></trkpt><trkpt lat="44.074055" lon="12.33489"><ele>169.0</ele><time>2026-05-02T10:36:58.443Z</time></trkpt><trkpt lat="44.0739617" lon="12.334905"><ele>169.0</ele><time>2026-05-02T10:37:00.441Z</time></trkpt><trkpt lat="44.0738683" lon="12.334915"><ele>169.0</ele><time>2026-05-02T10:37:02.44Z</time></trkpt><trkpt lat="44.0737767" lon="12.334935"><ele>169.0</ele><time>2026-05-02T10:37:04.44Z</time></trkpt><trkpt lat="44.0736767" lon="12.3349567"><ele>169.0</ele><time>2026-05-02T10:37:06.441Z</time></trkpt><trkpt lat="44.0735683" lon="12.3349683"><ele>169.0</ele><time>2026-05-02T10:37:08.44Z</time></trkpt><trkpt lat="44.07345" lon="12.334995"><ele>169.0</ele><time>2026-05-02T10:37:10.439Z</time></trkpt><trkpt lat="44.0733383" lon="12.3350167"><ele>169.0</ele><time>2026-05-02T10:37:12.44Z</time></trkpt><trkpt lat="44.073225" lon="12.3350383"><ele>168.0</ele><time>2026-05-02T10:37:14.44Z</time></trkpt><trkpt lat="44.0731067" lon="12.3350617"><ele>167.0</ele><time>2026-05-02T10:37:16.44Z</time></trkpt><trkpt lat="44.0729883" lon="12.335085"><ele>166.0</ele><time>2026-05-02T10:37:18.44Z</time></trkpt><trkpt lat="44.0728717" lon="12.335105"><ele>165.0</ele><time>2026-05-02T10:37:20.439Z</time></trkpt><trkpt lat="44.0727633" lon="12.33513"><ele>165.0</ele><time>2026-05-02T10:37:22.44Z</time></trkpt><trkpt lat="44.072655" lon="12.3351433"><ele>165.0</ele><time>2026-05-02T10:37:24.439Z</time></trkpt><trkpt lat="44.07256" lon="12.3351517"><ele>165.0</ele><time>2026-05-02T10:37:26.441Z</time></trkpt><trkpt lat="44.0724633" lon="12.33516"><ele>165.0</ele><time>2026-05-02T10:37:28.441Z</time></trkpt><trkpt lat="44.0723533" lon="12.3351733"><ele>165.0</ele><time>2026-05-02T10:37:30.438Z</time></trkpt><trkpt lat="44.0722467" lon="12.3351883"><ele>165.0</ele><time>2026-05-02T10:37:32.438Z</time></trkpt><trkpt lat="44.0721467" lon="12.335205"><ele>165.0</ele><time>2026-05-02T10:37:34.44Z</time></trkpt><trkpt lat="44.072045" lon="12.33522"><ele>165.0</ele><time>2026-05-02T10:37:36.438Z</time></trkpt><trkpt lat="44.0719467" lon="12.33523"><ele>165.0</ele><time>2026-05-02T10:37:38.439Z</time></trkpt><trkpt lat="44.0718517" lon="12.3352433"><ele>165.0</ele><time>2026-05-02T10:37:40.441Z</time></trkpt><trkpt lat="44.0717517" lon="12.3352583"><ele>165.0</ele><time>2026-05-02T10:37:42.441Z</time></trkpt><trkpt lat="44.07166" lon="12.335275"><ele>165.0</ele><time>2026-05-02T10:37:44.441Z</time></trkpt><trkpt lat="44.0715733" lon="12.3352933"><ele>165.0</ele><time>2026-05-02T10:37:46.442Z</time></trkpt><trkpt lat="44.071485" lon="12.3353033"><ele>165.0</ele><time>2026-05-02T10:37:48.442Z</time></trkpt><trkpt lat="44.0714017" lon="12.3353117"><ele>165.0</ele><time>2026-05-02T10:37:50.441Z</time></trkpt><trkpt lat="44.07132" lon="12.3353267"><ele>165.0</ele><time>2026-05-02T10:37:52.441Z</time></trkpt><trkpt lat="44.0712367" lon="12.33535"><ele>165.16666666666666</ele><time>2026-05-02T10:37:54.442Z</time></trkpt><trkpt lat="44.0711567" lon="12.335365"><ele>165.33333333333334</ele><time>2026-05-02T10:37:56.44Z</time></trkpt><trkpt lat="44.07108" lon="12.3353833"><ele>165.5</ele><time>2026-05-02T10:37:58.441Z</time></trkpt><trkpt lat="44.0709983" lon="12.3353983"><ele>165.66666666666669</ele><time>2026-05-02T10:38:00.439Z</time></trkpt><trkpt lat="44.070915" lon="12.3354033"><ele>165.83333333333334</ele><time>2026-05-02T10:38:02.439Z</time></trkpt><trkpt lat="44.0708333" lon="12.335405"><ele>166.0</ele><time>2026-05-02T10:38:04.438Z</time></trkpt><trkpt lat="44.0707533" lon="12.33543"><ele>166.0</ele><time>2026-05-02T10:38:06.441Z</time></trkpt><trkpt lat="44.0706733" lon="12.335455"><ele>166.0</ele><time>2026-05-02T10:38:08.441Z</time></trkpt><trkpt lat="44.070585" lon="12.3354683"><ele>166.0</ele><time>2026-05-02T10:38:10.442Z</time></trkpt><trkpt lat="44.0704933" lon="12.335475"><ele>166.0</ele><time>2026-05-02T10:38:12.44Z</time></trkpt><trkpt lat="44.0704133" lon="12.3354983"><ele>166.0</ele><time>2026-05-02T10:38:14.442Z</time></trkpt><trkpt lat="44.0703417" lon="12.3355217"><ele>166.0</ele><time>2026-05-02T10:38:16.442Z</time></trkpt><trkpt lat="44.0702767" lon="12.3355567"><ele>166.0</ele><time>2026-05-02T10:38:18.442Z</time></trkpt><trkpt lat="44.0702183" lon="12.3355967"><ele>166.0</ele><time>2026-05-02T10:38:20.442Z</time></trkpt><trkpt lat="44.0701883" lon="12.335705"><ele>166.0</ele><time>2026-05-02T10:38:24.442Z</time></trkpt><trkpt lat="44.0701783" lon="12.3357983"><ele>166.0</ele><time>2026-05-02T10:38:26.443Z</time></trkpt><trkpt lat="44.0701567" lon="12.335905"><ele>166.0</ele><time>2026-05-02T10:38:28.439Z</time></trkpt><trkpt lat="44.0701367" lon="12.3360267"><ele>166.0</ele><time>2026-05-02T10:38:30.439Z</time></trkpt><trkpt lat="44.0701033" lon="12.3361683"><ele>166.0</ele><time>2026-05-02T10:38:32.44Z</time></trkpt><trkpt lat="44.0700933" lon="12.336255"><ele>166.0</ele><time>2026-05-02T10:38:33.439Z</time></trkpt><trkpt lat="44.0700683" lon="12.3364167"><ele>166.0</ele><time>2026-05-02T10:38:35.442Z</time></trkpt><trkpt lat="44.0700183" lon="12.33658"><ele>166.0</ele><time>2026-05-02T10:38:37.439Z</time></trkpt><trkpt lat="44.0699883" lon="12.3366633"><ele>166.0</ele><time>2026-05-02T10:38:38.44Z</time></trkpt><trkpt lat="44.0699533" lon="12.3367433"><ele>166.0</ele><time>2026-05-02T10:38:39.44Z</time></trkpt><trkpt lat="44.069915" lon="12.336825"><ele>163.7142857142857</ele><time>2026-05-02T10:38:40.438Z</time></trkpt><trkpt lat="44.0698833" lon="12.3369033"><ele>161.42857142857144</ele><time>2026-05-02T10:38:41.44Z</time></trkpt><trkpt lat="44.06985" lon="12.3369883"><ele>159.14285714285714</ele><time>2026-05-02T10:38:42.44Z</time></trkpt><trkpt lat="44.0698217" lon="12.3370683"><ele>156.85714285714283</ele><time>2026-05-02T10:38:43.44Z</time></trkpt><trkpt lat="44.0697983" lon="12.3371617"><ele>154.57142857142856</ele><time>2026-05-02T10:38:44.439Z</time></trkpt><trkpt lat="44.0697783" lon="12.3372583"><ele>152.28571428571428</ele><time>2026-05-02T10:38:45.441Z</time></trkpt><trkpt lat="44.069755" lon="12.3373517"><ele>150.0</ele><time>2026-05-02T10:38:46.442Z</time></trkpt><trkpt lat="44.06972" lon="12.3374417"><ele>148.83333333333334</ele><time>2026-05-02T10:38:47.442Z</time></trkpt><trkpt lat="44.0696733" lon="12.3375267"><ele>147.66666666666666</ele><time>2026-05-02T10:38:48.441Z</time></trkpt><trkpt lat="44.0696267" lon="12.3376067"><ele>146.5</ele><time>2026-05-02T10:38:49.441Z</time></trkpt><trkpt lat="44.069575" lon="12.3376867"><ele>145.33333333333331</ele><time>2026-05-02T10:38:50.442Z</time></trkpt><trkpt lat="44.0695267" lon="12.337775"><ele>144.16666666666666</ele><time>2026-05-02T10:38:51.443Z</time></trkpt><trkpt lat="44.0694867" lon="12.3378767"><ele>143.0</ele><time>2026-05-02T10:38:52.441Z</time></trkpt><trkpt lat="44.0694533" lon="12.3379833"><ele>142.5</ele><time>2026-05-02T10:38:53.441Z</time></trkpt><trkpt lat="44.0694267" lon="12.3380883"><ele>142.0</ele><time>2026-05-02T10:38:54.442Z</time></trkpt><trkpt lat="44.06941" lon="12.3381967"><ele>141.5</ele><time>2026-05-02T10:38:55.439Z</time></trkpt><trkpt lat="44.069405" lon="12.3383017"><ele>141.0</ele><time>2026-05-02T10:38:56.44Z</time></trkpt><trkpt lat="44.0693967" lon="12.338395"><ele>140.5</ele><time>2026-05-02T10:38:57.44Z</time></trkpt><trkpt lat="44.06936" lon="12.33856"><ele>140.0</ele><time>2026-05-02T10:38:59.442Z</time></trkpt><trkpt lat="44.0693133" lon="12.3386483"><ele>140.0</ele><time>2026-05-02T10:39:00.442Z</time></trkpt><trkpt lat="44.0692633" lon="12.3387317"><ele>140.0</ele><time>2026-05-02T10:39:01.442Z</time></trkpt><trkpt lat="44.0692133" lon="12.338815"><ele>140.0</ele><time>2026-05-02T10:39:02.441Z</time></trkpt><trkpt lat="44.0691667" lon="12.3388983"><ele>140.0</ele><time>2026-05-02T10:39:03.441Z</time></trkpt><trkpt lat="44.0691217" lon="12.33899"><ele>140.0</ele><time>2026-05-02T10:39:04.439Z</time></trkpt><trkpt lat="44.0690833" lon="12.3390917"><ele>140.0</ele><time>2026-05-02T10:39:05.44Z</time></trkpt><trkpt lat="44.0690467" lon="12.3392017"><ele>136.4</ele><time>2026-05-02T10:39:06.44Z</time></trkpt><trkpt lat="44.0690117" lon="12.3393183"><ele>132.8</ele><time>2026-05-02T10:39:07.439Z</time></trkpt><trkpt lat="44.068975" lon="12.33944"><ele>129.2</ele><time>2026-05-02T10:39:08.44Z</time></trkpt><trkpt lat="44.0689383" lon="12.3395667"><ele>125.6</ele><time>2026-05-02T10:39:09.441Z</time></trkpt><trkpt lat="44.068905" lon="12.33969"><ele>122.0</ele><time>2026-05-02T10:39:10.439Z</time></trkpt><trkpt lat="44.0688717" lon="12.3398133"><ele>121.33333333333333</ele><time>2026-05-02T10:39:11.44Z</time></trkpt><trkpt lat="44.068845" lon="12.3399317"><ele>120.66666666666666</ele><time>2026-05-02T10:39:12.439Z</time></trkpt><trkpt lat="44.0688217" lon="12.3400467"><ele>120.0</ele><time>2026-05-02T10:39:13.44Z</time></trkpt><trkpt lat="44.0688083" lon="12.3401667"><ele>119.33333333333334</ele><time>2026-05-02T10:39:14.439Z</time></trkpt><trkpt lat="44.0688" lon="12.340285"><ele>118.66666666666667</ele><time>2026-05-02T10:39:15.44Z</time></trkpt><trkpt lat="44.0687883" lon="12.3403983"><ele>118.0</ele><time>2026-05-02T10:39:16.441Z</time></trkpt><trkpt lat="44.0687717" lon="12.3405067"><ele>117.0</ele><time>2026-05-02T10:39:17.442Z</time></trkpt><trkpt lat="44.0687483" lon="12.3406033"><ele>116.0</ele><time>2026-05-02T10:39:18.442Z</time></trkpt><trkpt lat="44.0687117" lon="12.340685"><ele>115.0</ele><time>2026-05-02T10:39:19.439Z</time></trkpt><trkpt lat="44.0686667" lon="12.3407533"><ele>114.0</ele><time>2026-05-02T10:39:20.439Z</time></trkpt><trkpt lat="44.06861" lon="12.3408033"><ele>113.0</ele><time>2026-05-02T10:39:21.44Z</time></trkpt><trkpt lat="44.068515" lon="12.340865"><ele>112.0</ele><time>2026-05-02T10:39:23.44Z</time></trkpt><trkpt lat="44.0684517" lon="12.3409"><ele>111.0</ele><time>2026-05-02T10:39:25.439Z</time></trkpt><trkpt lat="44.0683983" lon="12.3409483"><ele>111.0</ele><time>2026-05-02T10:39:27.44Z</time></trkpt><trkpt lat="44.06832" lon="12.341"><ele>111.0</ele><time>2026-05-02T10:39:29.441Z</time></trkpt><trkpt lat="44.0682" lon="12.3410517"><ele>111.0</ele><time>2026-05-02T10:39:31.439Z</time></trkpt><trkpt lat="44.06808" lon="12.341105"><ele>111.0</ele><time>2026-05-02T10:39:33.44Z</time></trkpt><trkpt lat="44.0679833" lon="12.34119"><ele>109.83333333333333</ele><time>2026-05-02T10:39:35.44Z</time></trkpt><trkpt lat="44.0679283" lon="12.34129"><ele>108.66666666666666</ele><time>2026-05-02T10:39:37.442Z</time></trkpt><trkpt lat="44.0678833" lon="12.34142"><ele>107.5</ele><time>2026-05-02T10:39:39.441Z</time></trkpt><trkpt lat="44.0678583" lon="12.3415017"><ele>106.33333333333333</ele><time>2026-05-02T10:39:40.441Z</time></trkpt><trkpt lat="44.067835" lon="12.341595"><ele>105.16666666666666</ele><time>2026-05-02T10:39:41.441Z</time></trkpt><trkpt lat="44.0678067" lon="12.3416967"><ele>104.0</ele><time>2026-05-02T10:39:42.443Z</time></trkpt><trkpt lat="44.0677733" lon="12.341795"><ele>102.33333333333333</ele><time>2026-05-02T10:39:43.442Z</time></trkpt><trkpt lat="44.06774" lon="12.3418983"><ele>100.66666666666666</ele><time>2026-05-02T10:39:44.443Z</time></trkpt><trkpt lat="44.0677067" lon="12.3420083"><ele>99.0</ele><time>2026-05-02T10:39:45.441Z</time></trkpt><trkpt lat="44.0676633" lon="12.3421217"><ele>97.33333333333333</ele><time>2026-05-02T10:39:46.442Z</time></trkpt><trkpt lat="44.0676183" lon="12.3422183"><ele>95.66666666666666</ele><time>2026-05-02T10:39:47.443Z</time></trkpt><trkpt lat="44.0675783" lon="12.342315"><ele>94.0</ele><time>2026-05-02T10:39:48.442Z</time></trkpt><trkpt lat="44.06755" lon="12.3424117"><ele>92.57142857142857</ele><time>2026-05-02T10:39:49.439Z</time></trkpt><trkpt lat="44.0675333" lon="12.3425167"><ele>91.14285714285714</ele><time>2026-05-02T10:39:50.44Z</time></trkpt><trkpt lat="44.06753" lon="12.3426167"><ele>89.71428571428572</ele><time>2026-05-02T10:39:51.439Z</time></trkpt><trkpt lat="44.0675317" lon="12.3427083"><ele>88.28571428571428</ele><time>2026-05-02T10:39:52.438Z</time></trkpt><trkpt lat="44.067535" lon="12.3427983"><ele>86.85714285714286</ele><time>2026-05-02T10:39:53.44Z</time></trkpt><trkpt lat="44.0675333" lon="12.3428917"><ele>85.42857142857143</ele><time>2026-05-02T10:39:54.439Z</time></trkpt><trkpt lat="44.06753" lon="12.3429867"><ele>84.0</ele><time>2026-05-02T10:39:55.44Z</time></trkpt><trkpt lat="44.067535" lon="12.3430833"><ele>82.83333333333333</ele><time>2026-05-02T10:39:56.44Z</time></trkpt><trkpt lat="44.06754" lon="12.343185"><ele>81.66666666666667</ele><time>2026-05-02T10:39:57.441Z</time></trkpt><trkpt lat="44.0675433" lon="12.3432867"><ele>80.5</ele><time>2026-05-02T10:39:58.439Z</time></trkpt><trkpt lat="44.0675467" lon="12.3433967"><ele>79.33333333333334</ele><time>2026-05-02T10:39:59.44Z</time></trkpt><trkpt lat="44.0675533" lon="12.34351"><ele>78.16666666666667</ele><time>2026-05-02T10:40:00.44Z</time></trkpt><trkpt lat="44.0675567" lon="12.3436267"><ele>77.0</ele><time>2026-05-02T10:40:01.44Z</time></trkpt><trkpt lat="44.06756" lon="12.3437433"><ele>77.0</ele><time>2026-05-02T10:40:02.439Z</time></trkpt><trkpt lat="44.0675667" lon="12.3438633"><ele>77.0</ele><time>2026-05-02T10:40:03.44Z</time></trkpt><trkpt lat="44.0675733" lon="12.3439783"><ele>77.0</ele><time>2026-05-02T10:40:04.44Z</time></trkpt><trkpt lat="44.0675783" lon="12.3440833"><ele>77.0</ele><time>2026-05-02T10:40:05.44Z</time></trkpt><trkpt lat="44.0675767" lon="12.344175"><ele>77.0</ele><time>2026-05-02T10:40:06.439Z</time></trkpt><trkpt lat="44.0675267" lon="12.3443033"><ele>77.0</ele><time>2026-05-02T10:40:08.44Z</time></trkpt><trkpt lat="44.0674067" lon="12.34436"><ele>76.16666666666667</ele><time>2026-05-02T10:40:10.439Z</time></trkpt><trkpt lat="44.06729" lon="12.3443933"><ele>75.33333333333334</ele><time>2026-05-02T10:40:12.442Z</time></trkpt><trkpt lat="44.067175" lon="12.3444433"><ele>74.5</ele><time>2026-05-02T10:40:14.443Z</time></trkpt><trkpt lat="44.06711" lon="12.3444717"><ele>73.66666666666667</ele><time>2026-05-02T10:40:15.443Z</time></trkpt><trkpt lat="44.0670467" lon="12.3445067"><ele>72.83333333333333</ele><time>2026-05-02T10:40:16.443Z</time></trkpt><trkpt lat="44.066985" lon="12.3445383"><ele>72.0</ele><time>2026-05-02T10:40:17.443Z</time></trkpt><trkpt lat="44.0668683" lon="12.3445917"><ele>72.00000000000001</ele><time>2026-05-02T10:40:19.438Z</time></trkpt><trkpt lat="44.06681" lon="12.34463"><ele>72.0</ele><time>2026-05-02T10:40:20.44Z</time></trkpt><trkpt lat="44.0666967" lon="12.3447067"><ele>72.0</ele><time>2026-05-02T10:40:22.442Z</time></trkpt><trkpt lat="44.0666417" lon="12.3447533"><ele>72.0</ele><time>2026-05-02T10:40:23.441Z</time></trkpt><trkpt lat="44.06659" lon="12.344805"><ele>72.0</ele><time>2026-05-02T10:40:24.44Z</time></trkpt><trkpt lat="44.0665433" lon="12.344865"><ele>72.00000000000001</ele><time>2026-05-02T10:40:25.442Z</time></trkpt><trkpt lat="44.0664983" lon="12.3449333"><ele>72.0</ele><time>2026-05-02T10:40:26.44Z</time></trkpt><trkpt lat="44.0664517" lon="12.345005"><ele>71.83333333333333</ele><time>2026-05-02T10:40:27.441Z</time></trkpt><trkpt lat="44.0664083" lon="12.3450783"><ele>71.66666666666667</ele><time>2026-05-02T10:40:28.44Z</time></trkpt><trkpt lat="44.0663667" lon="12.3451583"><ele>71.5</ele><time>2026-05-02T10:40:29.44Z</time></trkpt><trkpt lat="44.0663283" lon="12.3452433"><ele>71.33333333333334</ele><time>2026-05-02T10:40:30.44Z</time></trkpt><trkpt lat="44.06629" lon="12.3453317"><ele>71.16666666666667</ele><time>2026-05-02T10:40:31.44Z</time></trkpt><trkpt lat="44.0662633" lon="12.3454233"><ele>71.0</ele><time>2026-05-02T10:40:32.441Z</time></trkpt><trkpt lat="44.066215" lon="12.3455783"><ele>70.0</ele><time>2026-05-02T10:40:34.441Z</time></trkpt><trkpt lat="44.0661783" lon="12.34572"><ele>70.0</ele><time>2026-05-02T10:40:36.44Z</time></trkpt><trkpt lat="44.06616" lon="12.3458533"><ele>70.0</ele><time>2026-05-02T10:40:38.443Z</time></trkpt></trkseg><trkseg><trkpt lat="44.049695" lon="12.45658"><ele>40.0</ele><time>2026-05-02T11:47:55.441Z</time></trkpt><trkpt lat="44.049645" lon="12.456515"><ele>40.0</ele><time>2026-05-02T11:47:58.44Z</time></trkpt><trkpt lat="44.0495917" lon="12.456455"><ele>40.0</ele><time>2026-05-02T11:48:01.442Z</time></trkpt><trkpt lat="44.0495433" lon="12.4563767"><ele>40.0</ele><time>2026-05-02T11:48:04.442Z</time></trkpt><trkpt lat="44.0495167" lon="12.4562583"><ele>40.0</ele><time>2026-05-02T11:48:07.441Z</time></trkpt><trkpt lat="44.0495033" lon="12.4561283"><ele>40.0</ele><time>2026-05-02T11:48:10.44Z</time></trkpt><trkpt lat="44.0494933" lon="12.45604"><ele>40.14285714285714</ele><time>2026-05-02T11:48:12.439Z</time></trkpt><trkpt lat="44.0494883" lon="12.4559433"><ele>40.285714285714285</ele><time>2026-05-02T11:48:14.442Z</time></trkpt><trkpt lat="44.0494767" lon="12.455845"><ele>40.42857142857143</ele><time>2026-05-02T11:48:16.44Z</time></trkpt><trkpt lat="44.0494633" lon="12.45575"><ele>40.57142857142857</ele><time>2026-05-02T11:48:18.44Z</time></trkpt><trkpt lat="44.0494467" lon="12.4556567"><ele>40.714285714285715</ele><time>2026-05-02T11:48:20.44Z</time></trkpt><trkpt lat="44.0494217" lon="12.4555567"><ele>40.857142857142854</ele><time>2026-05-02T11:48:22.441Z</time></trkpt><trkpt lat="44.04939" lon="12.4554633"><ele>41.0</ele><time>2026-05-02T11:48:24.441Z</time></trkpt><trkpt lat="44.04936" lon="12.45537"><ele>40.99999999999999</ele><time>2026-05-02T11:48:26.44Z</time></trkpt><trkpt lat="44.0493283" lon="12.4552783"><ele>41.0</ele><time>2026-05-02T11:48:28.441Z</time></trkpt><trkpt lat="44.0492933" lon="12.45519"><ele>41.0</ele><time>2026-05-02T11:48:30.44Z</time></trkpt><trkpt lat="44.04926" lon="12.4551"><ele>41.0</ele><time>2026-05-02T11:48:32.44Z</time></trkpt><trkpt lat="44.04923" lon="12.4550067"><ele>41.0</ele><time>2026-05-02T11:48:34.44Z</time></trkpt><trkpt lat="44.0492" lon="12.4549133"><ele>40.99999999999999</ele><time>2026-05-02T11:48:36.442Z</time></trkpt><trkpt lat="44.0491717" lon="12.4548233"><ele>41.0</ele><time>2026-05-02T11:48:38.443Z</time></trkpt><trkpt lat="44.0491383" lon="12.45474"><ele>40.857142857142854</ele><time>2026-05-02T11:48:40.44Z</time></trkpt><trkpt lat="44.0491" lon="12.4546617"><ele>40.714285714285715</ele><time>2026-05-02T11:48:42.441Z</time></trkpt><trkpt lat="44.0490467" lon="12.45459"><ele>40.57142857142857</ele><time>2026-05-02T11:48:44.442Z</time></trkpt><trkpt lat="44.048985" lon="12.4545333"><ele>40.42857142857143</ele><time>2026-05-02T11:48:46.443Z</time></trkpt><trkpt lat="44.0489167" lon="12.4544867"><ele>40.285714285714285</ele><time>2026-05-02T11:48:48.441Z</time></trkpt><trkpt lat="44.048845" lon="12.4544483"><ele>40.14285714285714</ele><time>2026-05-02T11:48:50.439Z</time></trkpt><trkpt lat="44.0487767" lon="12.454405"><ele>40.0</ele><time>2026-05-02T11:48:52.44Z</time></trkpt><trkpt lat="44.0487133" lon="12.4543467"><ele>40.5</ele><time>2026-05-02T11:48:54.441Z</time></trkpt><trkpt lat="44.0486617" lon="12.4542733"><ele>41.0</ele><time>2026-05-02T11:48:56.441Z</time></trkpt><trkpt lat="44.0486117" lon="12.4541933"><ele>41.5</ele><time>2026-05-02T11:48:58.442Z</time></trkpt><trkpt lat="44.0485733" lon="12.4541"><ele>42.0</ele><time>2026-05-02T11:49:00.44Z</time></trkpt><trkpt lat="44.04854" lon="12.4540033"><ele>42.5</ele><time>2026-05-02T11:49:02.443Z</time></trkpt><trkpt lat="44.0484967" lon="12.4539067"><ele>43.0</ele><time>2026-05-02T11:49:04.439Z</time></trkpt><trkpt lat="44.0484183" lon="12.4537817"><ele>43.0</ele><time>2026-05-02T11:49:07.441Z</time></trkpt><trkpt lat="44.04835" lon="12.4537133"><ele>43.0</ele><time>2026-05-02T11:49:09.439Z</time></trkpt><trkpt lat="44.0482717" lon="12.453675"><ele>43.0</ele><time>2026-05-02T11:49:11.443Z</time></trkpt><trkpt lat="44.0481867" lon="12.4536717"><ele>43.0</ele><time>2026-05-02T11:49:13.442Z</time></trkpt><trkpt lat="44.0481" lon="12.4537117"><ele>43.0</ele><time>2026-05-02T11:49:15.442Z</time></trkpt><trkpt lat="44.0480083" lon="12.4537533"><ele>43.0</ele><time>2026-05-02T11:49:17.442Z</time></trkpt><trkpt lat="44.0479117" lon="12.453775"><ele>42.4</ele><time>2026-05-02T11:49:19.441Z</time></trkpt><trkpt lat="44.0478183" lon="12.4537583"><ele>41.8</ele><time>2026-05-02T11:49:21.44Z</time></trkpt><trkpt lat="44.0477317" lon="12.4537117"><ele>41.2</ele><time>2026-05-02T11:49:23.44Z</time></trkpt><trkpt lat="44.0476583" lon="12.4536317"><ele>40.6</ele><time>2026-05-02T11:49:25.443Z</time></trkpt><trkpt lat="44.0475917" lon="12.45355"><ele>40.0</ele><time>2026-05-02T11:49:27.443Z</time></trkpt><trkpt lat="44.0475183" lon="12.4534567"><ele>39.8</ele><time>2026-05-02T11:49:29.44Z</time></trkpt><trkpt lat="44.047445" lon="12.453355"><ele>39.6</ele><time>2026-05-02T11:49:31.439Z</time></trkpt><trkpt lat="44.04738" lon="12.453255"><ele>39.4</ele><time>2026-05-02T11:49:33.439Z</time></trkpt><trkpt lat="44.0473183" lon="12.453155"><ele>39.2</ele><time>2026-05-02T11:49:35.44Z</time></trkpt><trkpt lat="44.0472733" lon="12.453045"><ele>39.0</ele><time>2026-05-02T11:49:37.439Z</time></trkpt><trkpt lat="44.0472333" lon="12.4529367"><ele>39.0</ele><time>2026-05-02T11:49:39.441Z</time></trkpt><trkpt lat="44.047195" lon="12.4528317"><ele>39.0</ele><time>2026-05-02T11:49:41.44Z</time></trkpt><trkpt lat="44.0471683" lon="12.4527367"><ele>39.0</ele><time>2026-05-02T11:49:43.44Z</time></trkpt><trkpt lat="44.0471817" lon="12.4526467"><ele>39.0</ele><time>2026-05-02T11:49:45.44Z</time></trkpt><trkpt lat="44.04722" lon="12.4525733"><ele>39.0</ele><time>2026-05-02T11:49:47.442Z</time></trkpt><trkpt lat="44.047275" lon="12.45252"><ele>39.0</ele><time>2026-05-02T11:49:49.442Z</time></trkpt><trkpt lat="44.04734" lon="12.452475"><ele>39.0</ele><time>2026-05-02T11:49:51.443Z</time></trkpt><trkpt lat="44.0473983" lon="12.4524267"><ele>39.0</ele><time>2026-05-02T11:49:53.442Z</time></trkpt><trkpt lat="44.047455" lon="12.45238"><ele>39.0</ele><time>2026-05-02T11:49:55.443Z</time></trkpt><trkpt lat="44.04752" lon="12.4523367"><ele>39.0</ele><time>2026-05-02T11:49:57.442Z</time></trkpt><trkpt lat="44.0475833" lon="12.4522933"><ele>39.0</ele><time>2026-05-02T11:49:59.443Z</time></trkpt><trkpt lat="44.04764" lon="12.4522483"><ele>39.0</ele><time>2026-05-02T11:50:01.442Z</time></trkpt><trkpt lat="44.0476983" lon="12.4521983"><ele>39.0</ele><time>2026-05-02T11:50:03.442Z</time></trkpt><trkpt lat="44.047755" lon="12.4521467"><ele>39.0</ele><time>2026-05-02T11:50:05.443Z</time></trkpt><trkpt lat="44.0478083" lon="12.452095"><ele>39.5</ele><time>2026-05-02T11:50:07.442Z</time></trkpt><trkpt lat="44.0478867" lon="12.4520333"><ele>40.0</ele><time>2026-05-02T11:50:10.442Z</time></trkpt><trkpt lat="44.0479583" lon="12.4520183"><ele>40.5</ele><time>2026-05-02T11:50:13.442Z</time></trkpt><trkpt lat="44.0479233" lon="12.4521067"><ele>41.0</ele><time>2026-05-02T11:50:18.442Z</time></trkpt><trkpt lat="44.0478533" lon="12.4521767"><ele>41.5</ele><time>2026-05-02T11:50:21.442Z</time></trkpt><trkpt lat="44.0477833" lon="12.4522433"><ele>42.0</ele><time>2026-05-02T11:50:24.442Z</time></trkpt><trkpt lat="44.0477133" lon="12.452315"><ele>42.0</ele><time>2026-05-02T11:50:27.442Z</time></trkpt><trkpt lat="44.04764" lon="12.4523983"><ele>42.0</ele><time>2026-05-02T11:50:30.442Z</time></trkpt><trkpt lat="44.0475867" lon="12.4524517"><ele>42.0</ele><time>2026-05-02T11:50:32.442Z</time></trkpt><trkpt lat="44.0475367" lon="12.452505"><ele>42.0</ele><time>2026-05-02T11:50:34.442Z</time></trkpt><trkpt lat="44.04746" lon="12.4525717"><ele>42.0</ele><time>2026-05-02T11:50:37.443Z</time></trkpt><trkpt lat="44.0473883" lon="12.4526483"><ele>42.0</ele><time>2026-05-02T11:50:40.443Z</time></trkpt><trkpt lat="44.047335" lon="12.452705"><ele>41.5</ele><time>2026-05-02T11:50:42.443Z</time></trkpt><trkpt lat="44.047275" lon="12.4527617"><ele>41.0</ele><time>2026-05-02T11:50:44.443Z</time></trkpt><trkpt lat="44.047215" lon="12.45282"><ele>40.5</ele><time>2026-05-02T11:50:46.442Z</time></trkpt><trkpt lat="44.0471517" lon="12.452875"><ele>40.0</ele><time>2026-05-02T11:50:48.443Z</time></trkpt><trkpt lat="44.0470917" lon="12.45294"><ele>39.5</ele><time>2026-05-02T11:50:50.442Z</time></trkpt><trkpt lat="44.047025" lon="12.4530017"><ele>39.0</ele><time>2026-05-02T11:50:52.442Z</time></trkpt><trkpt lat="44.0469517" lon="12.4530667"><ele>38.833333333333336</ele><time>2026-05-02T11:50:54.442Z</time></trkpt><trkpt lat="44.0468767" lon="12.4531317"><ele>38.666666666666664</ele><time>2026-05-02T11:50:56.443Z</time></trkpt><trkpt lat="44.0468017" lon="12.4531983"><ele>38.5</ele><time>2026-05-02T11:50:58.443Z</time></trkpt><trkpt lat="44.046725" lon="12.4532683"><ele>38.33333333333333</ele><time>2026-05-02T11:51:00.442Z</time></trkpt><trkpt lat="44.0466483" lon="12.4533367"><ele>38.166666666666664</ele><time>2026-05-02T11:51:02.442Z</time></trkpt><trkpt lat="44.0465733" lon="12.4534017"><ele>38.0</ele><time>2026-05-02T11:51:04.443Z</time></trkpt><trkpt lat="44.0464983" lon="12.45347"><ele>38.0</ele><time>2026-05-02T11:51:06.443Z</time></trkpt><trkpt lat="44.04642" lon="12.4535417"><ele>38.0</ele><time>2026-05-02T11:51:08.443Z</time></trkpt><trkpt lat="44.0463417" lon="12.4536083"><ele>38.0</ele><time>2026-05-02T11:51:10.442Z</time></trkpt><trkpt lat="44.0462633" lon="12.453675"><ele>38.0</ele><time>2026-05-02T11:51:12.442Z</time></trkpt><trkpt lat="44.0461817" lon="12.453745"><ele>38.0</ele><time>2026-05-02T11:51:14.443Z</time></trkpt><trkpt lat="44.0461" lon="12.4538183"><ele>38.0</ele><time>2026-05-02T11:51:16.442Z</time></trkpt><trkpt lat="44.0460217" lon="12.453895"><ele>38.0</ele><time>2026-05-02T11:51:18.443Z</time></trkpt><trkpt lat="44.0459417" lon="12.4539717"><ele>38.0</ele><time>2026-05-02T11:51:20.439Z</time></trkpt><trkpt lat="44.0458583" lon="12.45405"><ele>38.0</ele><time>2026-05-02T11:51:22.44Z</time></trkpt><trkpt lat="44.0457767" lon="12.4541267"><ele>38.0</ele><time>2026-05-02T11:51:24.44Z</time></trkpt><trkpt lat="44.045695" lon="12.454205"><ele>38.4</ele><time>2026-05-02T11:51:26.44Z</time></trkpt><trkpt lat="44.045605" lon="12.4542783"><ele>38.8</ele><time>2026-05-02T11:51:28.44Z</time></trkpt><trkpt lat="44.045525" lon="12.45435"><ele>39.2</ele><time>2026-05-02T11:51:30.443Z</time></trkpt><trkpt lat="44.0454417" lon="12.4544283"><ele>39.6</ele><time>2026-05-02T11:51:32.442Z</time></trkpt><trkpt lat="44.0453567" lon="12.4545033"><ele>40.0</ele><time>2026-05-02T11:51:34.443Z</time></trkpt><trkpt lat="44.0452767" lon="12.454575"><ele>40.2</ele><time>2026-05-02T11:51:36.443Z</time></trkpt><trkpt lat="44.0451967" lon="12.4546533"><ele>40.4</ele><time>2026-05-02T11:51:38.443Z</time></trkpt><trkpt lat="44.045115" lon="12.45472"><ele>40.599999999999994</ele><time>2026-05-02T11:51:40.444Z</time></trkpt><trkpt lat="44.04504" lon="12.454785"><ele>40.8</ele><time>2026-05-02T11:51:42.442Z</time></trkpt><trkpt lat="44.0449683" lon="12.4548517"><ele>41.0</ele><time>2026-05-02T11:51:44.442Z</time></trkpt><trkpt lat="44.0448967" lon="12.454915"><ele>41.33333333333333</ele><time>2026-05-02T11:51:46.442Z</time></trkpt><trkpt lat="44.04483" lon="12.4549767"><ele>41.666666666666664</ele><time>2026-05-02T11:51:48.443Z</time></trkpt><trkpt lat="44.0447567" lon="12.4550383"><ele>42.0</ele><time>2026-05-02T11:51:50.439Z</time></trkpt><trkpt lat="44.0446783" lon="12.4551083"><ele>42.333333333333336</ele><time>2026-05-02T11:51:52.439Z</time></trkpt><trkpt lat="44.0446" lon="12.455185"><ele>42.66666666666667</ele><time>2026-05-02T11:51:54.442Z</time></trkpt><trkpt lat="44.0445267" lon="12.4552483"><ele>43.0</ele><time>2026-05-02T11:51:56.441Z</time></trkpt><trkpt lat="44.044455" lon="12.4553033"><ele>43.0</ele><time>2026-05-02T11:51:58.44Z</time></trkpt><trkpt lat="44.0443767" lon="12.4553683"><ele>43.0</ele><time>2026-05-02T11:52:00.443Z</time></trkpt><trkpt lat="44.0442983" lon="12.4554117"><ele>43.0</ele><time>2026-05-02T11:52:02.443Z</time></trkpt><trkpt lat="44.0442283" lon="12.4553567"><ele>43.0</ele><time>2026-05-02T11:52:04.443Z</time></trkpt><trkpt lat="44.044165" lon="12.4552583"><ele>43.0</ele><time>2026-05-02T11:52:06.442Z</time></trkpt><trkpt lat="44.0441033" lon="12.4551433"><ele>43.0</ele><time>2026-05-02T11:52:08.442Z</time></trkpt><trkpt lat="44.044035" lon="12.4550267"><ele>43.0</ele><time>2026-05-02T11:52:10.441Z</time></trkpt><trkpt lat="44.043965" lon="12.4549217"><ele>43.0</ele><time>2026-05-02T11:52:12.443Z</time></trkpt><trkpt lat="44.0439083" lon="12.4548117"><ele>43.0</ele><time>2026-05-02T11:52:14.442Z</time></trkpt><trkpt lat="44.0439017" lon="12.4546883"><ele>43.0</ele><time>2026-05-02T11:52:16.442Z</time></trkpt><trkpt lat="44.0439483" lon="12.4546033"><ele>43.0</ele><time>2026-05-02T11:52:18.442Z</time></trkpt><trkpt lat="44.044015" lon="12.454535"><ele>43.0</ele><time>2026-05-02T11:52:20.441Z</time></trkpt><trkpt lat="44.0440917" lon="12.4544683"><ele>43.0</ele><time>2026-05-02T11:52:22.439Z</time></trkpt><trkpt lat="44.0441733" lon="12.454405"><ele>43.0</ele><time>2026-05-02T11:52:24.439Z</time></trkpt><trkpt lat="44.0442567" lon="12.4543317"><ele>43.0</ele><time>2026-05-02T11:52:26.44Z</time></trkpt><trkpt lat="44.0443367" lon="12.4542567"><ele>43.0</ele><time>2026-05-02T11:52:28.438Z</time></trkpt><trkpt lat="44.0444167" lon="12.454175"><ele>43.0</ele><time>2026-05-02T11:52:30.442Z</time></trkpt><trkpt lat="44.0444817" lon="12.4540817"><ele>43.0</ele><time>2026-05-02T11:52:32.439Z</time></trkpt><trkpt lat="44.04449" lon="12.45397"><ele>43.0</ele><time>2026-05-02T11:52:34.442Z</time></trkpt><trkpt lat="44.04443" lon="12.4538867"><ele>43.0</ele><time>2026-05-02T11:52:36.442Z</time></trkpt><trkpt lat="44.0443567" lon="12.4538133"><ele>43.0</ele><time>2026-05-02T11:52:38.441Z</time></trkpt><trkpt lat="44.044285" lon="12.453745"><ele>42.8</ele><time>2026-05-02T11:52:40.443Z</time></trkpt><trkpt lat="44.0442033" lon="12.45367"><ele>42.599999999999994</ele><time>2026-05-02T11:52:42.443Z</time></trkpt><trkpt lat="44.0441333" lon="12.453585"><ele>42.400000000000006</ele><time>2026-05-02T11:52:44.442Z</time></trkpt><trkpt lat="44.0440667" lon="12.4534933"><ele>42.2</ele><time>2026-05-02T11:52:46.442Z</time></trkpt><trkpt lat="44.044" lon="12.4533883"><ele>42.0</ele><time>2026-05-02T11:52:48.439Z</time></trkpt><trkpt lat="44.0439367" lon="12.4532667"><ele>42.0</ele><time>2026-05-02T11:52:50.44Z</time></trkpt><trkpt lat="44.04387" lon="12.45315"><ele>42.0</ele><time>2026-05-02T11:52:52.44Z</time></trkpt><trkpt lat="44.0438083" lon="12.4530333"><ele>42.0</ele><time>2026-05-02T11:52:54.439Z</time></trkpt><trkpt lat="44.0437483" lon="12.45292"><ele>42.0</ele><time>2026-05-02T11:52:56.44Z</time></trkpt><trkpt lat="44.043685" lon="12.4528067"><ele>42.0</ele><time>2026-05-02T11:52:58.441Z</time></trkpt><trkpt lat="44.043615" lon="12.452695"><ele>42.0</ele><time>2026-05-02T11:53:00.442Z</time></trkpt><trkpt lat="44.0435417" lon="12.4525833"><ele>42.0</ele><time>2026-05-02T11:53:02.443Z</time></trkpt><trkpt lat="44.0434733" lon="12.4524717"><ele>42.0</ele><time>2026-05-02T11:53:04.442Z</time></trkpt><trkpt lat="44.0434" lon="12.452355"><ele>42.0</ele><time>2026-05-02T11:53:06.443Z</time></trkpt><trkpt lat="44.0433183" lon="12.452235"><ele>42.0</ele><time>2026-05-02T11:53:08.442Z</time></trkpt><trkpt lat="44.043235" lon="12.45211"><ele>42.0</ele><time>2026-05-02T11:53:10.443Z</time></trkpt><trkpt lat="44.0431467" lon="12.45199"><ele>42.0</ele><time>2026-05-02T11:53:12.443Z</time></trkpt><trkpt lat="44.04305" lon="12.4518767"><ele>42.0</ele><time>2026-05-02T11:53:14.443Z</time></trkpt><trkpt lat="44.0429583" lon="12.45177"><ele>42.0</ele><time>2026-05-02T11:53:16.443Z</time></trkpt><trkpt lat="44.0428717" lon="12.451675"><ele>42.0</ele><time>2026-05-02T11:53:18.44Z</time></trkpt><trkpt lat="44.0427817" lon="12.45159"><ele>42.0</ele><time>2026-05-02T11:53:20.441Z</time></trkpt><trkpt lat="44.04268" lon="12.451545"><ele>42.0</ele><time>2026-05-02T11:53:22.439Z</time></trkpt><trkpt lat="44.0425733" lon="12.4515833"><ele>42.0</ele><time>2026-05-02T11:53:24.44Z</time></trkpt><trkpt lat="44.0424667" lon="12.4516217"><ele>42.0</ele><time>2026-05-02T11:53:26.443Z</time></trkpt><trkpt lat="44.0423733" lon="12.4515833"><ele>42.2</ele><time>2026-05-02T11:53:28.443Z</time></trkpt><trkpt lat="44.0422917" lon="12.4515017"><ele>42.400000000000006</ele><time>2026-05-02T11:53:30.442Z</time></trkpt><trkpt lat="44.0422" lon="12.4514433"><ele>42.599999999999994</ele><time>2026-05-02T11:53:32.443Z</time></trkpt><trkpt lat="44.0421" lon="12.4514567"><ele>42.8</ele><time>2026-05-02T11:53:34.443Z</time></trkpt><trkpt lat="44.0420117" lon="12.4515267"><ele>43.0</ele><time>2026-05-02T11:53:36.442Z</time></trkpt><trkpt lat="44.0419267" lon="12.4516"><ele>43.0</ele><time>2026-05-02T11:53:38.443Z</time></trkpt><trkpt lat="44.0418367" lon="12.4516267"><ele>43.0</ele><time>2026-05-02T11:53:40.443Z</time></trkpt><trkpt lat="44.0417433" lon="12.4515967"><ele>43.0</ele><time>2026-05-02T11:53:42.443Z</time></trkpt><trkpt lat="44.0416483" lon="12.4515283"><ele>43.0</ele><time>2026-05-02T11:53:44.443Z</time></trkpt><trkpt lat="44.0415517" lon="12.4514683"><ele>43.0</ele><time>2026-05-02T11:53:46.443Z</time></trkpt><trkpt lat="44.04145" lon="12.4514067"><ele>42.8</ele><time>2026-05-02T11:53:48.439Z</time></trkpt><trkpt lat="44.04135" lon="12.45135"><ele>42.599999999999994</ele><time>2026-05-02T11:53:50.441Z</time></trkpt><trkpt lat="44.0412483" lon="12.4513017"><ele>42.400000000000006</ele><time>2026-05-02T11:53:52.44Z</time></trkpt><trkpt lat="44.0411467" lon="12.4512617"><ele>42.2</ele><time>2026-05-02T11:53:54.44Z</time></trkpt><trkpt lat="44.0410483" lon="12.451215"><ele>42.0</ele><time>2026-05-02T11:53:56.442Z</time></trkpt><trkpt lat="44.040945" lon="12.4511683"><ele>42.2</ele><time>2026-05-02T11:53:58.442Z</time></trkpt><trkpt lat="44.0408417" lon="12.4511233"><ele>42.400000000000006</ele><time>2026-05-02T11:54:00.443Z</time></trkpt><trkpt lat="44.04074" lon="12.45109"><ele>42.599999999999994</ele><time>2026-05-02T11:54:02.443Z</time></trkpt><trkpt lat="44.0406383" lon="12.45106"><ele>42.8</ele><time>2026-05-02T11:54:04.443Z</time></trkpt><trkpt lat="44.0405367" lon="12.4510283"><ele>43.0</ele><time>2026-05-02T11:54:06.443Z</time></trkpt><trkpt lat="44.0404383" lon="12.450985"><ele>43.0</ele><time>2026-05-02T11:54:08.443Z</time></trkpt><trkpt lat="44.0403433" lon="12.4509283"><ele>43.0</ele><time>2026-05-02T11:54:10.443Z</time></trkpt><trkpt lat="44.0402533" lon="12.450865"><ele>43.0</ele><time>2026-05-02T11:54:12.442Z</time></trkpt><trkpt lat="44.0401683" lon="12.45079"><ele>43.0</ele><time>2026-05-02T11:54:14.442Z</time></trkpt><trkpt lat="44.0400883" lon="12.4507017"><ele>43.0</ele><time>2026-05-02T11:54:16.443Z</time></trkpt><trkpt lat="44.0400133" lon="12.450605"><ele>42.8</ele><time>2026-05-02T11:54:18.443Z</time></trkpt><trkpt lat="44.039945" lon="12.450505"><ele>42.599999999999994</ele><time>2026-05-02T11:54:20.442Z</time></trkpt><trkpt lat="44.03988" lon="12.4503983"><ele>42.400000000000006</ele><time>2026-05-02T11:54:22.442Z</time></trkpt><trkpt lat="44.0398183" lon="12.4502917"><ele>42.2</ele><time>2026-05-02T11:54:24.443Z</time></trkpt><trkpt lat="44.0397567" lon="12.4501883"><ele>42.0</ele><time>2026-05-02T11:54:26.443Z</time></trkpt><trkpt lat="44.03969" lon="12.4500833"><ele>42.6</ele><time>2026-05-02T11:54:28.443Z</time></trkpt><trkpt lat="44.039625" lon="12.4499733"><ele>43.2</ele><time>2026-05-02T11:54:30.442Z</time></trkpt><trkpt lat="44.0395583" lon="12.449865"><ele>43.8</ele><time>2026-05-02T11:54:32.443Z</time></trkpt><trkpt lat="44.0394867" lon="12.449755"><ele>44.4</ele><time>2026-05-02T11:54:34.442Z</time></trkpt><trkpt lat="44.0394167" lon="12.4496467"><ele>45.0</ele><time>2026-05-02T11:54:36.442Z</time></trkpt><trkpt lat="44.0393483" lon="12.449535"><ele>45.0</ele><time>2026-05-02T11:54:38.443Z</time></trkpt><trkpt lat="44.0392767" lon="12.4494117"><ele>45.0</ele><time>2026-05-02T11:54:40.443Z</time></trkpt><trkpt lat="44.0392" lon="12.44928"><ele>45.0</ele><time>2026-05-02T11:54:42.443Z</time></trkpt><trkpt lat="44.03913" lon="12.449145"><ele>45.0</ele><time>2026-05-02T11:54:44.443Z</time></trkpt><trkpt lat="44.0390617" lon="12.4490117"><ele>45.0</ele><time>2026-05-02T11:54:46.443Z</time></trkpt><trkpt lat="44.0389967" lon="12.4488767"><ele>45.0</ele><time>2026-05-02T11:54:48.442Z</time></trkpt><trkpt lat="44.0389267" lon="12.4487467"><ele>45.0</ele><time>2026-05-02T11:54:50.442Z</time></trkpt><trkpt lat="44.0388583" lon="12.4486183"><ele>45.0</ele><time>2026-05-02T11:54:52.443Z</time></trkpt><trkpt lat="44.0387883" lon="12.4484917"><ele>45.75</ele><time>2026-05-02T11:54:54.443Z</time></trkpt><trkpt lat="44.0387217" lon="12.4483633"><ele>46.5</ele><time>2026-05-02T11:54:56.443Z</time></trkpt><trkpt lat="44.0386517" lon="12.4482367"><ele>47.25</ele><time>2026-05-02T11:54:58.442Z</time></trkpt><trkpt lat="44.0385867" lon="12.44811"><ele>48.0</ele><time>2026-05-02T11:55:00.442Z</time></trkpt><trkpt lat="44.03852" lon="12.4479867"><ele>48.0</ele><time>2026-05-02T11:55:02.443Z</time></trkpt><trkpt lat="44.0384583" lon="12.4478633"><ele>48.0</ele><time>2026-05-02T11:55:04.443Z</time></trkpt><trkpt lat="44.0383967" lon="12.4477417"><ele>48.0</ele><time>2026-05-02T11:55:06.443Z</time></trkpt><trkpt lat="44.0383333" lon="12.44762"><ele>48.0</ele><time>2026-05-02T11:55:08.442Z</time></trkpt><trkpt lat="44.03827" lon="12.4475"><ele>48.0</ele><time>2026-05-02T11:55:10.442Z</time></trkpt><trkpt lat="44.0382033" lon="12.447375"><ele>48.0</ele><time>2026-05-02T11:55:12.442Z</time></trkpt><trkpt lat="44.0381383" lon="12.4472483"><ele>48.0</ele><time>2026-05-02T11:55:14.443Z</time></trkpt><trkpt lat="44.0380733" lon="12.4471283"><ele>48.0</ele><time>2026-05-02T11:55:16.443Z</time></trkpt><trkpt lat="44.0380133" lon="12.4470117"><ele>48.0</ele><time>2026-05-02T11:55:18.443Z</time></trkpt><trkpt lat="44.03796" lon="12.4468967"><ele>48.0</ele><time>2026-05-02T11:55:20.442Z</time></trkpt><trkpt lat="44.0379117" lon="12.44677"><ele>48.0</ele><time>2026-05-02T11:55:22.443Z</time></trkpt><trkpt lat="44.0378633" lon="12.4466283"><ele>48.0</ele><time>2026-05-02T11:55:24.443Z</time></trkpt><trkpt lat="44.0378167" lon="12.446475"><ele>48.0</ele><time>2026-05-02T11:55:26.442Z</time></trkpt><trkpt lat="44.037775" lon="12.446315"><ele>48.0</ele><time>2026-05-02T11:55:28.442Z</time></trkpt><trkpt lat="44.0377333" lon="12.446155"><ele>47.75</ele><time>2026-05-02T11:55:30.442Z</time></trkpt><trkpt lat="44.03769" lon="12.4460033"><ele>47.5</ele><time>2026-05-02T11:55:32.443Z</time></trkpt><trkpt lat="44.0376417" lon="12.4458633"><ele>47.25</ele><time>2026-05-02T11:55:34.443Z</time></trkpt><trkpt lat="44.0375867" lon="12.4457283"><ele>47.0</ele><time>2026-05-02T11:55:36.443Z</time></trkpt><trkpt lat="44.0375267" lon="12.4456017"><ele>47.400000000000006</ele><time>2026-05-02T11:55:38.443Z</time></trkpt><trkpt lat="44.0374633" lon="12.44548"><ele>47.800000000000004</ele><time>2026-05-02T11:55:40.442Z</time></trkpt><trkpt lat="44.0374" lon="12.445365"><ele>48.2</ele><time>2026-05-02T11:55:42.442Z</time></trkpt><trkpt lat="44.03734" lon="12.4452517"><ele>48.6</ele><time>2026-05-02T11:55:44.443Z</time></trkpt><trkpt lat="44.0372817" lon="12.4451433"><ele>49.0</ele><time>2026-05-02T11:55:46.443Z</time></trkpt><trkpt lat="44.03722" lon="12.4450283"><ele>49.0</ele><time>2026-05-02T11:55:48.442Z</time></trkpt><trkpt lat="44.03716" lon="12.444905"><ele>49.0</ele><time>2026-05-02T11:55:50.443Z</time></trkpt><trkpt lat="44.0370967" lon="12.4447767"><ele>49.0</ele><time>2026-05-02T11:55:52.443Z</time></trkpt><trkpt lat="44.037035" lon="12.44465"><ele>49.0</ele><time>2026-05-02T11:55:54.442Z</time></trkpt><trkpt lat="44.0369733" lon="12.44453"><ele>49.0</ele><time>2026-05-02T11:55:56.442Z</time></trkpt><trkpt lat="44.0369117" lon="12.4444117"><ele>48.800000000000004</ele><time>2026-05-02T11:55:58.443Z</time></trkpt><trkpt lat="44.0368517" lon="12.44429"><ele>48.6</ele><time>2026-05-02T11:56:00.443Z</time></trkpt><trkpt lat="44.0367883" lon="12.4441767"><ele>48.4</ele><time>2026-05-02T11:56:02.443Z</time></trkpt><trkpt lat="44.0367267" lon="12.44406"><ele>48.2</ele><time>2026-05-02T11:56:04.443Z</time></trkpt><trkpt lat="44.0366633" lon="12.443945"><ele>48.0</ele><time>2026-05-02T11:56:06.442Z</time></trkpt><trkpt lat="44.0365983" lon="12.4438267"><ele>48.2</ele><time>2026-05-02T11:56:08.444Z</time></trkpt><trkpt lat="44.0365333" lon="12.4437067"><ele>48.4</ele><time>2026-05-02T11:56:10.443Z</time></trkpt><trkpt lat="44.036465" lon="12.4435867"><ele>48.6</ele><time>2026-05-02T11:56:12.443Z</time></trkpt><trkpt lat="44.0363983" lon="12.44346"><ele>48.800000000000004</ele><time>2026-05-02T11:56:14.442Z</time></trkpt><trkpt lat="44.03633" lon="12.4433367"><ele>49.0</ele><time>2026-05-02T11:56:16.443Z</time></trkpt><trkpt lat="44.0362583" lon="12.443215"><ele>49.0</ele><time>2026-05-02T11:56:18.442Z</time></trkpt><trkpt lat="44.036185" lon="12.443095"><ele>49.0</ele><time>2026-05-02T11:56:20.443Z</time></trkpt><trkpt lat="44.0361083" lon="12.44298"><ele>49.0</ele><time>2026-05-02T11:56:22.442Z</time></trkpt><trkpt lat="44.0360267" lon="12.4428717"><ele>49.0</ele><time>2026-05-02T11:56:24.442Z</time></trkpt><trkpt lat="44.0359433" lon="12.4427717"><ele>49.0</ele><time>2026-05-02T11:56:26.442Z</time></trkpt><trkpt lat="44.0358617" lon="12.4426767"><ele>49.400000000000006</ele><time>2026-05-02T11:56:28.442Z</time></trkpt><trkpt lat="44.03578" lon="12.4425817"><ele>49.8</ele><time>2026-05-02T11:56:30.442Z</time></trkpt><trkpt lat="44.0357" lon="12.4424867"><ele>50.2</ele><time>2026-05-02T11:56:32.442Z</time></trkpt><trkpt lat="44.03562" lon="12.442395"><ele>50.599999999999994</ele><time>2026-05-02T11:56:34.442Z</time></trkpt><trkpt lat="44.03554" lon="12.4423017"><ele>51.0</ele><time>2026-05-02T11:56:36.442Z</time></trkpt><trkpt lat="44.0354567" lon="12.442205"><ele>51.0</ele><time>2026-05-02T11:56:38.442Z</time></trkpt><trkpt lat="44.0353733" lon="12.4421117"><ele>51.0</ele><time>2026-05-02T11:56:40.442Z</time></trkpt><trkpt lat="44.0352917" lon="12.442015"><ele>51.0</ele><time>2026-05-02T11:56:42.442Z</time></trkpt><trkpt lat="44.0352083" lon="12.4419183"><ele>51.0</ele><time>2026-05-02T11:56:44.441Z</time></trkpt><trkpt lat="44.03513" lon="12.4418217"><ele>51.0</ele><time>2026-05-02T11:56:46.442Z</time></trkpt><trkpt lat="44.0350517" lon="12.44173"><ele>51.0</ele><time>2026-05-02T11:56:48.441Z</time></trkpt><trkpt lat="44.0349733" lon="12.441645"><ele>51.0</ele><time>2026-05-02T11:56:50.443Z</time></trkpt><trkpt lat="44.0349083" lon="12.4415633"><ele>51.0</ele><time>2026-05-02T11:56:52.442Z</time></trkpt><trkpt lat="44.034895" lon="12.441475"><ele>51.0</ele><time>2026-05-02T11:56:54.445Z</time></trkpt><trkpt lat="44.0349433" lon="12.4414167"><ele>51.0</ele><time>2026-05-02T11:56:56.443Z</time></trkpt><trkpt lat="44.0350117" lon="12.4413717"><ele>51.0</ele><time>2026-05-02T11:56:58.441Z</time></trkpt><trkpt lat="44.0350883" lon="12.4413217"><ele>51.166666666666664</ele><time>2026-05-02T11:57:00.442Z</time></trkpt><trkpt lat="44.03513" lon="12.441225"><ele>51.33333333333333</ele><time>2026-05-02T11:57:02.443Z</time></trkpt><trkpt lat="44.0351083" lon="12.4411133"><ele>51.5</ele><time>2026-05-02T11:57:04.441Z</time></trkpt><trkpt lat="44.035045" lon="12.4410417"><ele>51.666666666666664</ele><time>2026-05-02T11:57:06.442Z</time></trkpt><trkpt lat="44.0349717" lon="12.4409817"><ele>51.83333333333333</ele><time>2026-05-02T11:57:08.443Z</time></trkpt><trkpt lat="44.0348933" lon="12.44092"><ele>52.0</ele><time>2026-05-02T11:57:10.441Z</time></trkpt><trkpt lat="44.03482" lon="12.4408533"><ele>52.2</ele><time>2026-05-02T11:57:12.442Z</time></trkpt><trkpt lat="44.0347433" lon="12.440775"><ele>52.400000000000006</ele><time>2026-05-02T11:57:14.443Z</time></trkpt><trkpt lat="44.0346567" lon="12.4406867"><ele>52.599999999999994</ele><time>2026-05-02T11:57:16.443Z</time></trkpt><trkpt lat="44.034565" lon="12.4405967"><ele>52.8</ele><time>2026-05-02T11:57:18.441Z</time></trkpt><trkpt lat="44.0344833" lon="12.44052"><ele>53.0</ele><time>2026-05-02T11:57:20.442Z</time></trkpt><trkpt lat="44.0344117" lon="12.440445"><ele>52.50000000000001</ele><time>2026-05-02T11:57:22.442Z</time></trkpt><trkpt lat="44.0343483" lon="12.4403667"><ele>52.0</ele><time>2026-05-02T11:57:24.443Z</time></trkpt><trkpt lat="44.0342917" lon="12.4402917"><ele>51.5</ele><time>2026-05-02T11:57:26.443Z</time></trkpt><trkpt lat="44.0342333" lon="12.4402333"><ele>51.0</ele><time>2026-05-02T11:57:28.443Z</time></trkpt><trkpt lat="44.0341767" lon="12.4401817"><ele>50.50000000000001</ele><time>2026-05-02T11:57:30.441Z</time></trkpt><trkpt lat="44.0341183" lon="12.4401317"><ele>50.0</ele><time>2026-05-02T11:57:32.443Z</time></trkpt><trkpt lat="44.0340383" lon="12.44008"><ele>50.00000000000001</ele><time>2026-05-02T11:57:35.442Z</time></trkpt><trkpt lat="44.033975" lon="12.4400733"><ele>50.0</ele><time>2026-05-02T11:57:44.443Z</time></trkpt><trkpt lat="44.03391" lon="12.4400767"><ele>50.0</ele><time>2026-05-02T11:57:51.441Z</time></trkpt><trkpt lat="44.0338467" lon="12.4400833"><ele>50.0</ele><time>2026-05-02T11:57:57.442Z</time></trkpt><trkpt lat="44.0337783" lon="12.4400883"><ele>50.0</ele><time>2026-05-02T11:58:06.443Z</time></trkpt><trkpt lat="44.0337117" lon="12.4401033"><ele>50.00000000000001</ele><time>2026-05-02T11:58:12.443Z</time></trkpt><trkpt lat="44.03365" lon="12.4401533"><ele>50.0</ele><time>2026-05-02T11:58:18.44Z</time></trkpt><trkpt lat="44.0336" lon="12.4402233"><ele>50.00000000000001</ele><time>2026-05-02T11:58:22.441Z</time></trkpt><trkpt lat="44.0335467" lon="12.44031"><ele>50.0</ele><time>2026-05-02T11:58:26.442Z</time></trkpt><trkpt lat="44.0335" lon="12.4403783"><ele>50.0</ele><time>2026-05-02T11:58:29.443Z</time></trkpt><trkpt lat="44.03344" lon="12.4404533"><ele>50.0</ele><time>2026-05-02T11:58:32.442Z</time></trkpt><trkpt lat="44.0333817" lon="12.4405267"><ele>50.0</ele><time>2026-05-02T11:58:35.443Z</time></trkpt><trkpt lat="44.0333367" lon="12.4405883"><ele>50.00000000000001</ele><time>2026-05-02T11:58:38.443Z</time></trkpt><trkpt lat="44.0332813" lon="12.4406461"><ele>50.0</ele><time>2026-05-02T11:58:42.444Z</time></trkpt><trkpt lat="44.0332277" lon="12.4407253"><ele>50.28571428571429</ele><time>2026-05-02T11:58:46.443Z</time></trkpt><trkpt lat="44.0331694" lon="12.4407943"><ele>50.57142857142857</ele><time>2026-05-02T11:58:49.441Z</time></trkpt><trkpt lat="44.0331231" lon="12.4408556"><ele>50.85714285714286</ele><time>2026-05-02T11:58:51.442Z</time></trkpt><trkpt lat="44.0330729" lon="12.440919"><ele>51.142857142857146</ele><time>2026-05-02T11:58:53.441Z</time></trkpt><trkpt lat="44.0330216" lon="12.4409822"><ele>51.42857142857143</ele><time>2026-05-02T11:58:55.443Z</time></trkpt><trkpt lat="44.03297" lon="12.4410499"><ele>51.714285714285715</ele><time>2026-05-02T11:58:57.442Z</time></trkpt><trkpt lat="44.0329163" lon="12.4411172"><ele>52.0</ele><time>2026-05-02T11:58:59.443Z</time></trkpt><trkpt lat="44.032863" lon="12.4411873"><ele>51.99999999999999</ele><time>2026-05-02T11:59:01.443Z</time></trkpt><trkpt lat="44.0328048" lon="12.4412578"><ele>52.0</ele><time>2026-05-02T11:59:03.443Z</time></trkpt><trkpt lat="44.0327457" lon="12.4413423"><ele>52.0</ele><time>2026-05-02T11:59:05.443Z</time></trkpt><trkpt lat="44.0326808" lon="12.4414257"><ele>52.0</ele><time>2026-05-02T11:59:07.442Z</time></trkpt><trkpt lat="44.0326122" lon="12.4415025"><ele>51.99999999999999</ele><time>2026-05-02T11:59:09.443Z</time></trkpt><trkpt lat="44.0325458" lon="12.4415799"><ele>52.0</ele><time>2026-05-02T11:59:11.442Z</time></trkpt><trkpt lat="44.0324785" lon="12.4416459"><ele>52.33333333333333</ele><time>2026-05-02T11:59:13.442Z</time></trkpt><trkpt lat="44.03241" lon="12.4417017"><ele>52.666666666666664</ele><time>2026-05-02T11:59:15.443Z</time></trkpt><trkpt lat="44.0323441" lon="12.441751"><ele>53.0</ele><time>2026-05-02T11:59:17.443Z</time></trkpt><trkpt lat="44.0322949" lon="12.4418115"><ele>53.33333333333333</ele><time>2026-05-02T11:59:19.44Z</time></trkpt><trkpt lat="44.0322715" lon="12.4419343"><ele>53.666666666666664</ele><time>2026-05-02T11:59:22.44Z</time></trkpt><trkpt lat="44.0322497" lon="12.442036"><ele>54.0</ele><time>2026-05-02T11:59:25.443Z</time></trkpt><trkpt lat="44.0322039" lon="12.4421308"><ele>54.333333333333336</ele><time>2026-05-02T11:59:28.442Z</time></trkpt><trkpt lat="44.0321491" lon="12.4422043"><ele>54.66666666666667</ele><time>2026-05-02T11:59:31.443Z</time></trkpt><trkpt lat="44.0320924" lon="12.4422807"><ele>55.0</ele><time>2026-05-02T11:59:34.442Z</time></trkpt><trkpt lat="44.0320163" lon="12.4423303"><ele>55.333333333333336</ele><time>2026-05-02T11:59:37.443Z</time></trkpt><trkpt lat="44.0319254" lon="12.4423659"><ele>55.66666666666667</ele><time>2026-05-02T11:59:40.442Z</time></trkpt><trkpt lat="44.0318586" lon="12.4423964"><ele>56.0</ele><time>2026-05-02T11:59:42.443Z</time></trkpt><trkpt lat="44.0317787" lon="12.442439"><ele>56.00000000000001</ele><time>2026-05-02T11:59:45.443Z</time></trkpt><trkpt lat="44.0316992" lon="12.4424829"><ele>56.0</ele><time>2026-05-02T11:59:48.44Z</time></trkpt><trkpt lat="44.0316326" lon="12.4425237"><ele>56.0</ele><time>2026-05-02T11:59:50.441Z</time></trkpt><trkpt lat="44.0315601" lon="12.4425695"><ele>56.0</ele><time>2026-05-02T11:59:52.443Z</time></trkpt><trkpt lat="44.0314893" lon="12.4426239"><ele>56.00000000000001</ele><time>2026-05-02T11:59:54.441Z</time></trkpt><trkpt lat="44.0314157" lon="12.4426769"><ele>56.0</ele><time>2026-05-02T11:59:56.442Z</time></trkpt><trkpt lat="44.0313428" lon="12.4427317"><ele>55.833333333333336</ele><time>2026-05-02T11:59:58.443Z</time></trkpt><trkpt lat="44.0312692" lon="12.4427816"><ele>55.66666666666667</ele><time>2026-05-02T12:00:00.442Z</time></trkpt><trkpt lat="44.0311952" lon="12.4428294"><ele>55.5</ele><time>2026-05-02T12:00:02.44Z</time></trkpt><trkpt lat="44.0311236" lon="12.4428737"><ele>55.33333333333333</ele><time>2026-05-02T12:00:04.441Z</time></trkpt><trkpt lat="44.031053" lon="12.4429126"><ele>55.166666666666664</ele><time>2026-05-02T12:00:06.441Z</time></trkpt><trkpt lat="44.0309873" lon="12.442958"><ele>55.0</ele><time>2026-05-02T12:00:08.441Z</time></trkpt><trkpt lat="44.0309272" lon="12.4430013"><ele>54.99999999999999</ele><time>2026-05-02T12:00:10.441Z</time></trkpt><trkpt lat="44.0308665" lon="12.4430524"><ele>55.0</ele><time>2026-05-02T12:00:12.443Z</time></trkpt><trkpt lat="44.0307989" lon="12.4430905"><ele>55.0</ele><time>2026-05-02T12:00:14.441Z</time></trkpt><trkpt lat="44.0307264" lon="12.4431342"><ele>55.0</ele><time>2026-05-02T12:00:16.443Z</time></trkpt><trkpt lat="44.0306507" lon="12.4431878"><ele>54.99999999999999</ele><time>2026-05-02T12:00:18.442Z</time></trkpt><trkpt lat="44.0305755" lon="12.4432428"><ele>55.0</ele><time>2026-05-02T12:00:20.441Z</time></trkpt><trkpt lat="44.0304993" lon="12.4432948"><ele>54.99999999999999</ele><time>2026-05-02T12:00:22.442Z</time></trkpt><trkpt lat="44.0304258" lon="12.4433547"><ele>55.0</ele><time>2026-05-02T12:00:24.441Z</time></trkpt><trkpt lat="44.0303567" lon="12.4434161"><ele>55.0</ele><time>2026-05-02T12:00:26.442Z</time></trkpt><trkpt lat="44.0302886" lon="12.4434794"><ele>55.0</ele><time>2026-05-02T12:00:28.44Z</time></trkpt><trkpt lat="44.0302221" lon="12.4435385"><ele>54.99999999999999</ele><time>2026-05-02T12:00:30.441Z</time></trkpt><trkpt lat="44.030155" lon="12.4435905"><ele>55.0</ele><time>2026-05-02T12:00:32.442Z</time></trkpt><trkpt lat="44.0300832" lon="12.4436386"><ele>54.99999999999999</ele><time>2026-05-02T12:00:34.441Z</time></trkpt><trkpt lat="44.0300036" lon="12.4436905"><ele>55.0</ele><time>2026-05-02T12:00:36.442Z</time></trkpt><trkpt lat="44.0299261" lon="12.443737"><ele>55.0</ele><time>2026-05-02T12:00:38.441Z</time></trkpt><trkpt lat="44.0298481" lon="12.4437814"><ele>55.0</ele><time>2026-05-02T12:00:40.442Z</time></trkpt><trkpt lat="44.0297796" lon="12.4438181"><ele>54.99999999999999</ele><time>2026-05-02T12:00:42.442Z</time></trkpt><trkpt lat="44.0297136" lon="12.4438672"><ele>55.0</ele><time>2026-05-02T12:00:44.441Z</time></trkpt><trkpt lat="44.0296404" lon="12.4439243"><ele>55.166666666666664</ele><time>2026-05-02T12:00:46.443Z</time></trkpt><trkpt lat="44.0295612" lon="12.4439749"><ele>55.33333333333333</ele><time>2026-05-02T12:00:48.441Z</time></trkpt><trkpt lat="44.0294887" lon="12.4440307"><ele>55.5</ele><time>2026-05-02T12:00:50.44Z</time></trkpt><trkpt lat="44.0294226" lon="12.4440881"><ele>55.66666666666667</ele><time>2026-05-02T12:00:52.438Z</time></trkpt><trkpt lat="44.0293646" lon="12.4441364"><ele>55.833333333333336</ele><time>2026-05-02T12:00:54.439Z</time></trkpt><trkpt lat="44.0292997" lon="12.4441989"><ele>56.0</ele><time>2026-05-02T12:00:57.44Z</time></trkpt><trkpt lat="44.0292602" lon="12.4443034"><ele>56.00000000000001</ele><time>2026-05-02T12:01:00.439Z</time></trkpt><trkpt lat="44.0292686" lon="12.4444204"><ele>56.0</ele><time>2026-05-02T12:01:03.44Z</time></trkpt><trkpt lat="44.0293021" lon="12.4445102"><ele>56.0</ele><time>2026-05-02T12:01:06.438Z</time></trkpt><trkpt lat="44.0292875" lon="12.4446271"><ele>56.0</ele><time>2026-05-02T12:01:09.438Z</time></trkpt><trkpt lat="44.0292341" lon="12.4447088"><ele>56.00000000000001</ele><time>2026-05-02T12:01:11.439Z</time></trkpt><trkpt lat="44.0291647" lon="12.4447798"><ele>56.0</ele><time>2026-05-02T12:01:13.439Z</time></trkpt><trkpt lat="44.0290964" lon="12.4448482"><ele>56.199999999999996</ele><time>2026-05-02T12:01:15.438Z</time></trkpt><trkpt lat="44.0290269" lon="12.4449227"><ele>56.39999999999999</ele><time>2026-05-02T12:01:17.442Z</time></trkpt><trkpt lat="44.0289571" lon="12.4450044"><ele>56.6</ele><time>2026-05-02T12:01:19.44Z</time></trkpt><trkpt lat="44.0288892" lon="12.4450898"><ele>56.8</ele><time>2026-05-02T12:01:21.439Z</time></trkpt><trkpt lat="44.0288206" lon="12.4451722"><ele>57.0</ele><time>2026-05-02T12:01:23.439Z</time></trkpt><trkpt lat="44.0287479" lon="12.4452561"><ele>57.0</ele><time>2026-05-02T12:01:25.44Z</time></trkpt><trkpt lat="44.028674" lon="12.4453369"><ele>57.0</ele><time>2026-05-02T12:01:27.439Z</time></trkpt><trkpt lat="44.028603" lon="12.4454269"><ele>57.0</ele><time>2026-05-02T12:01:29.44Z</time></trkpt><trkpt lat="44.0285251" lon="12.4455205"><ele>57.0</ele><time>2026-05-02T12:01:31.439Z</time></trkpt><trkpt lat="44.0284509" lon="12.4456162"><ele>57.0</ele><time>2026-05-02T12:01:33.44Z</time></trkpt><trkpt lat="44.0283714" lon="12.445712"><ele>57.2</ele><time>2026-05-02T12:01:35.44Z</time></trkpt><trkpt lat="44.0282908" lon="12.4458027"><ele>57.400000000000006</ele><time>2026-05-02T12:01:37.44Z</time></trkpt><trkpt lat="44.0282105" lon="12.4458942"><ele>57.599999999999994</ele><time>2026-05-02T12:01:39.439Z</time></trkpt><trkpt lat="44.0281306" lon="12.4459875"><ele>57.8</ele><time>2026-05-02T12:01:41.439Z</time></trkpt><trkpt lat="44.0280535" lon="12.4460801"><ele>58.0</ele><time>2026-05-02T12:01:43.44Z</time></trkpt><trkpt lat="44.027977" lon="12.4461734"><ele>58.0</ele><time>2026-05-02T12:01:45.44Z</time></trkpt><trkpt lat="44.027902" lon="12.4462702"><ele>58.0</ele><time>2026-05-02T12:01:47.443Z</time></trkpt><trkpt lat="44.027833" lon="12.4463743"><ele>58.0</ele><time>2026-05-02T12:01:49.442Z</time></trkpt><trkpt lat="44.0277666" lon="12.4464828"><ele>58.0</ele><time>2026-05-02T12:01:51.442Z</time></trkpt><trkpt lat="44.0277018" lon="12.4465943"><ele>58.0</ele><time>2026-05-02T12:01:53.442Z</time></trkpt><trkpt lat="44.0276372" lon="12.4467075"><ele>57.8</ele><time>2026-05-02T12:01:55.441Z</time></trkpt><trkpt lat="44.0275762" lon="12.4468171"><ele>57.599999999999994</ele><time>2026-05-02T12:01:57.44Z</time></trkpt><trkpt lat="44.0275178" lon="12.4469227"><ele>57.400000000000006</ele><time>2026-05-02T12:01:59.44Z</time></trkpt><trkpt lat="44.0274485" lon="12.4470245"><ele>57.2</ele><time>2026-05-02T12:02:01.44Z</time></trkpt><trkpt lat="44.027379" lon="12.447132"><ele>57.0</ele><time>2026-05-02T12:02:03.44Z</time></trkpt><trkpt lat="44.0273067" lon="12.4472233"><ele>57.6</ele><time>2026-05-02T12:02:05.439Z</time></trkpt><trkpt lat="44.0272367" lon="12.4473283"><ele>58.2</ele><time>2026-05-02T12:02:07.44Z</time></trkpt><trkpt lat="44.0271717" lon="12.4474267"><ele>58.8</ele><time>2026-05-02T12:02:09.44Z</time></trkpt><trkpt lat="44.027105" lon="12.4475283"><ele>59.4</ele><time>2026-05-02T12:02:11.44Z</time></trkpt><trkpt lat="44.0270317" lon="12.4476267"><ele>60.0</ele><time>2026-05-02T12:02:13.441Z</time></trkpt><trkpt lat="44.026955" lon="12.4477217"><ele>60.0</ele><time>2026-05-02T12:02:15.44Z</time></trkpt><trkpt lat="44.02688" lon="12.4478217"><ele>60.0</ele><time>2026-05-02T12:02:17.442Z</time></trkpt><trkpt lat="44.0268017" lon="12.447915"><ele>60.0</ele><time>2026-05-02T12:02:19.443Z</time></trkpt><trkpt lat="44.0267233" lon="12.44801"><ele>60.0</ele><time>2026-05-02T12:02:21.442Z</time></trkpt><trkpt lat="44.0266467" lon="12.448105"><ele>60.0</ele><time>2026-05-02T12:02:23.443Z</time></trkpt><trkpt lat="44.0265717" lon="12.4481917"><ele>59.8</ele><time>2026-05-02T12:02:25.44Z</time></trkpt><trkpt lat="44.0264967" lon="12.4482933"><ele>59.6</ele><time>2026-05-02T12:02:27.44Z</time></trkpt><trkpt lat="44.0264133" lon="12.4483917"><ele>59.400000000000006</ele><time>2026-05-02T12:02:29.44Z</time></trkpt><trkpt lat="44.0263267" lon="12.4484767"><ele>59.2</ele><time>2026-05-02T12:02:31.44Z</time></trkpt><trkpt lat="44.0262417" lon="12.4485567"><ele>59.0</ele><time>2026-05-02T12:02:33.439Z</time></trkpt><trkpt lat="44.026155" lon="12.4486383"><ele>59.0</ele><time>2026-05-02T12:02:35.439Z</time></trkpt><trkpt lat="44.02606" lon="12.4487117"><ele>59.00000000000001</ele><time>2026-05-02T12:02:37.442Z</time></trkpt><trkpt lat="44.0259617" lon="12.4487833"><ele>59.00000000000001</ele><time>2026-05-02T12:02:39.439Z</time></trkpt><trkpt lat="44.0258717" lon="12.448855"><ele>59.0</ele><time>2026-05-02T12:02:41.439Z</time></trkpt><trkpt lat="44.0257767" lon="12.4489183"><ele>59.0</ele><time>2026-05-02T12:02:43.442Z</time></trkpt><trkpt lat="44.0256733" lon="12.44898"><ele>59.2</ele><time>2026-05-02T12:02:45.441Z</time></trkpt><trkpt lat="44.025575" lon="12.4490367"><ele>59.400000000000006</ele><time>2026-05-02T12:02:47.442Z</time></trkpt><trkpt lat="44.0254783" lon="12.44909"><ele>59.6</ele><time>2026-05-02T12:02:49.443Z</time></trkpt><trkpt lat="44.0253783" lon="12.4491383"><ele>59.8</ele><time>2026-05-02T12:02:51.442Z</time></trkpt><trkpt lat="44.0252783" lon="12.4491867"><ele>60.0</ele><time>2026-05-02T12:02:53.439Z</time></trkpt><trkpt lat="44.0251783" lon="12.4492333"><ele>60.0</ele><time>2026-05-02T12:02:55.44Z</time></trkpt><trkpt lat="44.0250817" lon="12.4492817"><ele>60.0</ele><time>2026-05-02T12:02:57.443Z</time></trkpt><trkpt lat="44.02498" lon="12.44933"><ele>60.0</ele><time>2026-05-02T12:02:59.438Z</time></trkpt><trkpt lat="44.0248817" lon="12.4493833"><ele>60.0</ele><time>2026-05-02T12:03:01.44Z</time></trkpt><trkpt lat="44.0247817" lon="12.4494433"><ele>60.0</ele><time>2026-05-02T12:03:03.441Z</time></trkpt><trkpt lat="44.0246817" lon="12.4495033"><ele>60.0</ele><time>2026-05-02T12:03:05.439Z</time></trkpt><trkpt lat="44.02458" lon="12.4495683"><ele>60.0</ele><time>2026-05-02T12:03:07.441Z</time></trkpt><trkpt lat="44.0244767" lon="12.4496417"><ele>60.0</ele><time>2026-05-02T12:03:09.44Z</time></trkpt><trkpt lat="44.0243817" lon="12.4496983"><ele>60.0</ele><time>2026-05-02T12:03:11.441Z</time></trkpt><trkpt lat="44.02428" lon="12.449755"><ele>60.0</ele><time>2026-05-02T12:03:13.44Z</time></trkpt><trkpt lat="44.0241833" lon="12.4498317"><ele>59.8</ele><time>2026-05-02T12:03:15.441Z</time></trkpt><trkpt lat="44.0240867" lon="12.4499117"><ele>59.6</ele><time>2026-05-02T12:03:17.442Z</time></trkpt><trkpt lat="44.0239867" lon="12.4499783"><ele>59.400000000000006</ele><time>2026-05-02T12:03:19.44Z</time></trkpt><trkpt lat="44.0238883" lon="12.4500367"><ele>59.2</ele><time>2026-05-02T12:03:21.44Z</time></trkpt><trkpt lat="44.0237867" lon="12.4500867"><ele>59.0</ele><time>2026-05-02T12:03:23.439Z</time></trkpt><trkpt lat="44.0236883" lon="12.4501267"><ele>59.0</ele><time>2026-05-02T12:03:25.441Z</time></trkpt><trkpt lat="44.0235933" lon="12.4501633"><ele>59.00000000000001</ele><time>2026-05-02T12:03:27.441Z</time></trkpt><trkpt lat="44.0235017" lon="12.4501967"><ele>59.00000000000001</ele><time>2026-05-02T12:03:29.441Z</time></trkpt><trkpt lat="44.0234017" lon="12.4502283"><ele>59.0</ele><time>2026-05-02T12:03:31.44Z</time></trkpt><trkpt lat="44.023305" lon="12.4502617"><ele>59.0</ele><time>2026-05-02T12:03:33.441Z</time></trkpt><trkpt lat="44.023205" lon="12.4502933"><ele>59.2</ele><time>2026-05-02T12:03:35.44Z</time></trkpt><trkpt lat="44.02311" lon="12.45033"><ele>59.400000000000006</ele><time>2026-05-02T12:03:37.44Z</time></trkpt><trkpt lat="44.023015" lon="12.4503633"><ele>59.6</ele><time>2026-05-02T12:03:39.441Z</time></trkpt><trkpt lat="44.0229167" lon="12.4504033"><ele>59.8</ele><time>2026-05-02T12:03:41.44Z</time></trkpt><trkpt lat="44.0228217" lon="12.45045"><ele>60.0</ele><time>2026-05-02T12:03:43.44Z</time></trkpt><trkpt lat="44.0227267" lon="12.4505"><ele>60.0</ele><time>2026-05-02T12:03:45.44Z</time></trkpt><trkpt lat="44.0226467" lon="12.4505783"><ele>60.0</ele><time>2026-05-02T12:03:47.443Z</time></trkpt><trkpt lat="44.0225867" lon="12.4506883"><ele>60.0</ele><time>2026-05-02T12:03:49.44Z</time></trkpt><trkpt lat="44.022575" lon="12.45083"><ele>60.0</ele><time>2026-05-02T12:03:51.44Z</time></trkpt><trkpt lat="44.02254" lon="12.4509567"><ele>60.0</ele><time>2026-05-02T12:03:53.44Z</time></trkpt><trkpt lat="44.0224817" lon="12.4510583"><ele>60.4</ele><time>2026-05-02T12:03:55.44Z</time></trkpt><trkpt lat="44.0223983" lon="12.4511217"><ele>60.8</ele><time>2026-05-02T12:03:57.442Z</time></trkpt><trkpt lat="44.0223133" lon="12.4511983"><ele>61.2</ele><time>2026-05-02T12:03:59.44Z</time></trkpt><trkpt lat="44.02224" lon="12.451295"><ele>61.6</ele><time>2026-05-02T12:04:01.44Z</time></trkpt><trkpt lat="44.02217" lon="12.451395"><ele>62.0</ele><time>2026-05-02T12:04:03.441Z</time></trkpt><trkpt lat="44.0221033" lon="12.45149"><ele>62.0</ele><time>2026-05-02T12:04:05.441Z</time></trkpt><trkpt lat="44.0220283" lon="12.4515733"><ele>62.0</ele><time>2026-05-02T12:04:07.439Z</time></trkpt><trkpt lat="44.021945" lon="12.4516483"><ele>62.0</ele><time>2026-05-02T12:04:09.441Z</time></trkpt><trkpt lat="44.0218683" lon="12.451735"><ele>62.0</ele><time>2026-05-02T12:04:11.44Z</time></trkpt><trkpt lat="44.0217883" lon="12.4518283"><ele>62.0</ele><time>2026-05-02T12:04:13.441Z</time></trkpt><trkpt lat="44.0217117" lon="12.4519083"><ele>62.0</ele><time>2026-05-02T12:04:15.441Z</time></trkpt><trkpt lat="44.02164" lon="12.451985"><ele>62.0</ele><time>2026-05-02T12:04:17.439Z</time></trkpt><trkpt lat="44.0215567" lon="12.4520683"><ele>62.0</ele><time>2026-05-02T12:04:19.44Z</time></trkpt><trkpt lat="44.0214567" lon="12.4521333"><ele>62.0</ele><time>2026-05-02T12:04:21.441Z</time></trkpt><trkpt lat="44.02135" lon="12.4521817"><ele>62.0</ele><time>2026-05-02T12:04:23.44Z</time></trkpt><trkpt lat="44.0212433" lon="12.4522217"><ele>62.400000000000006</ele><time>2026-05-02T12:04:25.439Z</time></trkpt><trkpt lat="44.0211433" lon="12.45226"><ele>62.800000000000004</ele><time>2026-05-02T12:04:27.441Z</time></trkpt><trkpt lat="44.0210433" lon="12.4523067"><ele>63.2</ele><time>2026-05-02T12:04:29.439Z</time></trkpt><trkpt lat="44.02095" lon="12.4523517"><ele>63.6</ele><time>2026-05-02T12:04:31.441Z</time></trkpt><trkpt lat="44.0208567" lon="12.4524033"><ele>64.0</ele><time>2026-05-02T12:04:33.441Z</time></trkpt><trkpt lat="44.0207583" lon="12.4524467"><ele>63.99999999999999</ele><time>2026-05-02T12:04:35.439Z</time></trkpt><trkpt lat="44.0206717" lon="12.45251"><ele>64.0</ele><time>2026-05-02T12:04:37.441Z</time></trkpt><trkpt lat="44.0205917" lon="12.4525717"><ele>64.0</ele><time>2026-05-02T12:04:39.441Z</time></trkpt><trkpt lat="44.0205083" lon="12.4526267"><ele>64.0</ele><time>2026-05-02T12:04:41.44Z</time></trkpt><trkpt lat="44.0204367" lon="12.4526933"><ele>63.99999999999999</ele><time>2026-05-02T12:04:43.441Z</time></trkpt><trkpt lat="44.02037" lon="12.4527583"><ele>64.0</ele><time>2026-05-02T12:04:45.44Z</time></trkpt><trkpt lat="44.020305" lon="12.452825"><ele>64.0</ele><time>2026-05-02T12:04:47.443Z</time></trkpt><trkpt lat="44.0202433" lon="12.4529033"><ele>64.0</ele><time>2026-05-02T12:04:49.44Z</time></trkpt><trkpt lat="44.02014" lon="12.453015"><ele>64.0</ele><time>2026-05-02T12:05:32.44Z</time></trkpt><trkpt lat="44.02013" lon="12.4531283"><ele>64.0</ele><time>2026-05-02T12:05:35.439Z</time></trkpt><trkpt lat="44.0201817" lon="12.4532233"><ele>64.0</ele><time>2026-05-02T12:05:37.438Z</time></trkpt><trkpt lat="44.020235" lon="12.4533183"><ele>63.99999999999999</ele><time>2026-05-02T12:05:39.439Z</time></trkpt><trkpt lat="44.02029" lon="12.453425"><ele>64.0</ele><time>2026-05-02T12:05:41.441Z</time></trkpt><trkpt lat="44.0203183" lon="12.4535283"><ele>64.0</ele><time>2026-05-02T12:05:43.44Z</time></trkpt><trkpt lat="44.0203083" lon="12.4536217"><ele>64.0</ele><time>2026-05-02T12:05:45.44Z</time></trkpt><trkpt lat="44.0202667" lon="12.4537033"><ele>63.99999999999999</ele><time>2026-05-02T12:05:47.44Z</time></trkpt><trkpt lat="44.0202" lon="12.45378"><ele>64.0</ele><time>2026-05-02T12:05:49.442Z</time></trkpt><trkpt lat="44.0201283" lon="12.4538533"><ele>63.99999999999999</ele><time>2026-05-02T12:05:51.439Z</time></trkpt><trkpt lat="44.0200667" lon="12.453915"><ele>64.0</ele><time>2026-05-02T12:05:53.44Z</time></trkpt><trkpt lat="44.020005" lon="12.4539883"><ele>64.0</ele><time>2026-05-02T12:05:55.44Z</time></trkpt><trkpt lat="44.0199317" lon="12.454065"><ele>64.0</ele><time>2026-05-02T12:05:57.44Z</time></trkpt><trkpt lat="44.0198617" lon="12.4541433"><ele>63.99999999999999</ele><time>2026-05-02T12:05:59.439Z</time></trkpt><trkpt lat="44.0197933" lon="12.45423"><ele>64.0</ele><time>2026-05-02T12:06:01.439Z</time></trkpt><trkpt lat="44.01974" lon="12.4543033"><ele>64.14285714285714</ele><time>2026-05-02T12:06:03.44Z</time></trkpt><trkpt lat="44.01968" lon="12.45438"><ele>64.28571428571428</ele><time>2026-05-02T12:06:05.438Z</time></trkpt><trkpt lat="44.019635" lon="12.4544533"><ele>64.42857142857143</ele><time>2026-05-02T12:06:07.44Z</time></trkpt><trkpt lat="44.0195833" lon="12.4545167"><ele>64.57142857142857</ele><time>2026-05-02T12:06:09.44Z</time></trkpt><trkpt lat="44.0195333" lon="12.4545783"><ele>64.71428571428572</ele><time>2026-05-02T12:06:11.438Z</time></trkpt><trkpt lat="44.01947" lon="12.4546567"><ele>64.85714285714286</ele><time>2026-05-02T12:06:14.439Z</time></trkpt><trkpt lat="44.0194133" lon="12.45473"><ele>65.0</ele><time>2026-05-02T12:06:17.443Z</time></trkpt><trkpt lat="44.019365" lon="12.4548017"><ele>65.28571428571429</ele><time>2026-05-02T12:06:20.441Z</time></trkpt><trkpt lat="44.0193183" lon="12.454895"><ele>65.57142857142857</ele><time>2026-05-02T12:06:24.441Z</time></trkpt><trkpt lat="44.019285" lon="12.4549783"><ele>65.85714285714286</ele><time>2026-05-02T12:06:28.441Z</time></trkpt><trkpt lat="44.0192433" lon="12.455045"><ele>66.14285714285714</ele><time>2026-05-02T12:06:32.442Z</time></trkpt><trkpt lat="44.019195" lon="12.4551067"><ele>66.42857142857143</ele><time>2026-05-02T12:06:36.442Z</time></trkpt><trkpt lat="44.01916" lon="12.4552017"><ele>66.71428571428572</ele><time>2026-05-02T12:06:41.44Z</time></trkpt><trkpt lat="44.0191383" lon="12.455285"><ele>67.0</ele><time>2026-05-02T12:06:47.442Z</time></trkpt><trkpt lat="44.0191" lon="12.45537"><ele>68.85714285714286</ele><time>2026-05-02T12:06:54.441Z</time></trkpt><trkpt lat="44.01908" lon="12.45546"><ele>70.71428571428571</ele><time>2026-05-02T12:07:00.441Z</time></trkpt><trkpt lat="44.019045" lon="12.4555383"><ele>72.57142857142857</ele><time>2026-05-02T12:07:09.44Z</time></trkpt><trkpt lat="44.0190517" lon="12.4556383"><ele>74.42857142857143</ele><time>2026-05-02T12:07:18.443Z</time></trkpt><trkpt lat="44.0190283" lon="12.4557217"><ele>76.28571428571429</ele><time>2026-05-02T12:07:24.44Z</time></trkpt><trkpt lat="44.0189917" lon="12.4558183"><ele>78.14285714285714</ele><time>2026-05-02T12:07:30.443Z</time></trkpt><trkpt lat="44.0189533" lon="12.4558983"><ele>80.0</ele><time>2026-05-02T12:07:36.441Z</time></trkpt><trkpt lat="44.0189067" lon="12.4559667"><ele>80.0</ele><time>2026-05-02T12:07:44.44Z</time></trkpt><trkpt lat="44.0188533" lon="12.4560133"><ele>80.0</ele><time>2026-05-02T12:07:51.443Z</time></trkpt><trkpt lat="44.018785" lon="12.4560517"><ele>80.0</ele><time>2026-05-02T12:07:57.439Z</time></trkpt><trkpt lat="44.01873" lon="12.4561167"><ele>80.0</ele><time>2026-05-02T12:08:03.439Z</time></trkpt><trkpt lat="44.0186733" lon="12.4561867"><ele>80.0</ele><time>2026-05-02T12:08:08.44Z</time></trkpt><trkpt lat="44.0186317" lon="12.4562617"><ele>80.0</ele><time>2026-05-02T12:08:12.441Z</time></trkpt><trkpt lat="44.0185833" lon="12.45635"><ele>80.0</ele><time>2026-05-02T12:08:16.442Z</time></trkpt><trkpt lat="44.01854" lon="12.456445"><ele>80.0</ele><time>2026-05-02T12:08:20.443Z</time></trkpt><trkpt lat="44.018505" lon="12.4565283"><ele>80.0</ele><time>2026-05-02T12:08:23.443Z</time></trkpt><trkpt lat="44.01846" lon="12.456625"><ele>80.0</ele><time>2026-05-02T12:08:26.44Z</time></trkpt><trkpt lat="44.0184133" lon="12.4567167"><ele>80.0</ele><time>2026-05-02T12:08:29.44Z</time></trkpt><trkpt lat="44.0183617" lon="12.4567933"><ele>80.0</ele><time>2026-05-02T12:08:32.439Z</time></trkpt><trkpt lat="44.0183067" lon="12.4568383"><ele>80.0</ele><time>2026-05-02T12:08:35.44Z</time></trkpt><trkpt lat="44.018245" lon="12.456895"><ele>80.0</ele><time>2026-05-02T12:08:38.439Z</time></trkpt><trkpt lat="44.0181617" lon="12.4569133"><ele>80.33333333333334</ele><time>2026-05-02T12:08:41.439Z</time></trkpt><trkpt lat="44.0180833" lon="12.4568983"><ele>80.66666666666667</ele><time>2026-05-02T12:08:44.44Z</time></trkpt><trkpt lat="44.0180017" lon="12.4568617"><ele>81.0</ele><time>2026-05-02T12:08:47.44Z</time></trkpt><trkpt lat="44.017915" lon="12.4568317"><ele>81.33333333333333</ele><time>2026-05-02T12:08:50.44Z</time></trkpt><trkpt lat="44.01785" lon="12.4568333"><ele>81.66666666666666</ele><time>2026-05-02T12:08:52.44Z</time></trkpt><trkpt lat="44.017765" lon="12.4568867"><ele>82.0</ele><time>2026-05-02T12:08:55.439Z</time></trkpt><trkpt lat="44.0176983" lon="12.456985"><ele>81.99999999999999</ele><time>2026-05-02T12:08:58.44Z</time></trkpt><trkpt lat="44.0176617" lon="12.4570567"><ele>82.0</ele><time>2026-05-02T12:09:00.44Z</time></trkpt><trkpt lat="44.0176217" lon="12.4571317"><ele>82.0</ele><time>2026-05-02T12:09:02.44Z</time></trkpt><trkpt lat="44.01757" lon="12.4572433"><ele>82.0</ele><time>2026-05-02T12:09:05.439Z</time></trkpt><trkpt lat="44.0175383" lon="12.45732"><ele>82.0</ele><time>2026-05-02T12:09:07.439Z</time></trkpt><trkpt lat="44.0175033" lon="12.4574017"><ele>81.99999999999999</ele><time>2026-05-02T12:09:09.441Z</time></trkpt><trkpt lat="44.0174683" lon="12.4574867"><ele>82.0</ele><time>2026-05-02T12:09:11.44Z</time></trkpt><trkpt lat="44.0174283" lon="12.4575683"><ele>81.99999999999999</ele><time>2026-05-02T12:09:13.439Z</time></trkpt><trkpt lat="44.0173917" lon="12.457655"><ele>82.0</ele><time>2026-05-02T12:09:15.439Z</time></trkpt><trkpt lat="44.0173517" lon="12.4577433"><ele>82.0</ele><time>2026-05-02T12:09:17.443Z</time></trkpt><trkpt lat="44.01731" lon="12.4578267"><ele>82.0</ele><time>2026-05-02T12:09:19.439Z</time></trkpt><trkpt lat="44.017265" lon="12.4578983"><ele>82.0</ele><time>2026-05-02T12:09:21.443Z</time></trkpt><trkpt lat="44.0172183" lon="12.457965"><ele>81.99999999999999</ele><time>2026-05-02T12:09:23.443Z</time></trkpt><trkpt lat="44.0171717" lon="12.4580267"><ele>82.0</ele><time>2026-05-02T12:09:25.443Z</time></trkpt><trkpt lat="44.017125" lon="12.4580933"><ele>82.0</ele><time>2026-05-02T12:09:27.441Z</time></trkpt><trkpt lat="44.0170717" lon="12.4581633"><ele>82.0</ele><time>2026-05-02T12:09:29.443Z</time></trkpt><trkpt lat="44.0170167" lon="12.45824"><ele>82.0</ele><time>2026-05-02T12:09:31.441Z</time></trkpt><trkpt lat="44.0169567" lon="12.4583333"><ele>82.0</ele><time>2026-05-02T12:09:33.442Z</time></trkpt><trkpt lat="44.016895" lon="12.4584283"><ele>82.0</ele><time>2026-05-02T12:09:35.44Z</time></trkpt><trkpt lat="44.0168283" lon="12.45852"><ele>82.0</ele><time>2026-05-02T12:09:37.44Z</time></trkpt><trkpt lat="44.016755" lon="12.458615"><ele>82.0</ele><time>2026-05-02T12:09:39.44Z</time></trkpt><trkpt lat="44.0166867" lon="12.4587133"><ele>82.0</ele><time>2026-05-02T12:09:41.44Z</time></trkpt><trkpt lat="44.0166217" lon="12.4588083"><ele>82.0</ele><time>2026-05-02T12:09:43.44Z</time></trkpt><trkpt lat="44.0165567" lon="12.45889"><ele>82.0</ele><time>2026-05-02T12:09:45.44Z</time></trkpt><trkpt lat="44.0164917" lon="12.4589767"><ele>82.0</ele><time>2026-05-02T12:09:47.443Z</time></trkpt><trkpt lat="44.01643" lon="12.4590683"><ele>82.28571428571428</ele><time>2026-05-02T12:09:49.44Z</time></trkpt><trkpt lat="44.0163767" lon="12.4591517"><ele>82.57142857142857</ele><time>2026-05-02T12:09:51.439Z</time></trkpt><trkpt lat="44.0163233" lon="12.459215"><ele>82.85714285714286</ele><time>2026-05-02T12:09:53.441Z</time></trkpt><trkpt lat="44.0162717" lon="12.459275"><ele>83.14285714285714</ele><time>2026-05-02T12:09:55.44Z</time></trkpt><trkpt lat="44.0162233" lon="12.4593383"><ele>83.42857142857143</ele><time>2026-05-02T12:09:57.441Z</time></trkpt><trkpt lat="44.01617" lon="12.4594183"><ele>83.71428571428571</ele><time>2026-05-02T12:09:59.44Z</time></trkpt><trkpt lat="44.0161167" lon="12.4594983"><ele>84.0</ele><time>2026-05-02T12:10:01.44Z</time></trkpt><trkpt lat="44.0160633" lon="12.4595867"><ele>83.5</ele><time>2026-05-02T12:10:03.44Z</time></trkpt><trkpt lat="44.016005" lon="12.4596733"><ele>83.0</ele><time>2026-05-02T12:10:05.44Z</time></trkpt><trkpt lat="44.0159433" lon="12.4597417"><ele>82.5</ele><time>2026-05-02T12:10:07.438Z</time></trkpt><trkpt lat="44.0158817" lon="12.45978"><ele>82.0</ele><time>2026-05-02T12:10:09.439Z</time></trkpt><trkpt lat="44.01582" lon="12.4598167"><ele>81.5</ele><time>2026-05-02T12:10:11.438Z</time></trkpt><trkpt lat="44.015745" lon="12.45986"><ele>81.0</ele><time>2026-05-02T12:10:13.44Z</time></trkpt><trkpt lat="44.01566" lon="12.459915"><ele>80.33333333333333</ele><time>2026-05-02T12:10:15.439Z</time></trkpt><trkpt lat="44.0155917" lon="12.4599817"><ele>79.66666666666667</ele><time>2026-05-02T12:10:17.44Z</time></trkpt><trkpt lat="44.0155217" lon="12.46006"><ele>79.0</ele><time>2026-05-02T12:10:19.439Z</time></trkpt><trkpt lat="44.0154567" lon="12.46016"><ele>78.33333333333334</ele><time>2026-05-02T12:10:21.44Z</time></trkpt><trkpt lat="44.015395" lon="12.4602483"><ele>77.66666666666667</ele><time>2026-05-02T12:10:23.439Z</time></trkpt><trkpt lat="44.0153467" lon="12.46033"><ele>77.0</ele><time>2026-05-02T12:10:25.44Z</time></trkpt><trkpt lat="44.0153167" lon="12.4604183"><ele>76.0</ele><time>2026-05-02T12:10:27.44Z</time></trkpt><trkpt lat="44.0153217" lon="12.46051"><ele>75.0</ele><time>2026-05-02T12:10:29.439Z</time></trkpt><trkpt lat="44.01538" lon="12.4606167"><ele>74.0</ele><time>2026-05-02T12:10:32.44Z</time></trkpt><trkpt lat="44.0154383" lon="12.4606783"><ele>73.0</ele><time>2026-05-02T12:10:34.44Z</time></trkpt><trkpt lat="44.0154933" lon="12.4607467"><ele>72.0</ele><time>2026-05-02T12:10:36.44Z</time></trkpt><trkpt lat="44.0155517" lon="12.4608317"><ele>71.0</ele><time>2026-05-02T12:10:38.439Z</time></trkpt><trkpt lat="44.0156233" lon="12.46092"><ele>71.0</ele><time>2026-05-02T12:10:40.44Z</time></trkpt><trkpt lat="44.015695" lon="12.461"><ele>71.0</ele><time>2026-05-02T12:10:42.439Z</time></trkpt><trkpt lat="44.01576" lon="12.4610867"><ele>71.0</ele><time>2026-05-02T12:10:44.442Z</time></trkpt><trkpt lat="44.0158233" lon="12.461185"><ele>71.0</ele><time>2026-05-02T12:10:46.44Z</time></trkpt><trkpt lat="44.015875" lon="12.46129"><ele>71.0</ele><time>2026-05-02T12:10:48.443Z</time></trkpt><trkpt lat="44.01593" lon="12.4613783"><ele>70.42857142857143</ele><time>2026-05-02T12:10:50.44Z</time></trkpt><trkpt lat="44.015985" lon="12.4614517"><ele>69.85714285714285</ele><time>2026-05-02T12:10:52.439Z</time></trkpt><trkpt lat="44.0160533" lon="12.4615183"><ele>69.28571428571428</ele><time>2026-05-02T12:10:55.439Z</time></trkpt><trkpt lat="44.016115" lon="12.4615883"><ele>68.71428571428571</ele><time>2026-05-02T12:10:59.438Z</time></trkpt><trkpt lat="44.016165" lon="12.461655"><ele>68.14285714285714</ele><time>2026-05-02T12:11:03.44Z</time></trkpt><trkpt lat="44.0162133" lon="12.461735"><ele>67.57142857142857</ele><time>2026-05-02T12:11:07.439Z</time></trkpt><trkpt lat="44.01626" lon="12.461795"><ele>67.0</ele><time>2026-05-02T12:11:10.44Z</time></trkpt><trkpt lat="44.0163083" lon="12.4618583"><ele>67.0</ele><time>2026-05-02T12:11:13.439Z</time></trkpt><trkpt lat="44.0163633" lon="12.4619417"><ele>67.0</ele><time>2026-05-02T12:11:17.439Z</time></trkpt><trkpt lat="44.0164083" lon="12.4620133"><ele>67.0</ele><time>2026-05-02T12:11:21.44Z</time></trkpt><trkpt lat="44.01646" lon="12.4620733"><ele>67.0</ele><time>2026-05-02T12:11:25.44Z</time></trkpt><trkpt lat="44.0165217" lon="12.4621317"><ele>67.0</ele><time>2026-05-02T12:11:29.439Z</time></trkpt><trkpt lat="44.0165933" lon="12.4621667"><ele>67.0</ele><time>2026-05-02T12:11:33.439Z</time></trkpt><trkpt lat="44.0166633" lon="12.46216"><ele>67.0</ele><time>2026-05-02T12:11:37.441Z</time></trkpt><trkpt lat="44.0167283" lon="12.4621117"><ele>67.71428571428572</ele><time>2026-05-02T12:11:42.441Z</time></trkpt><trkpt lat="44.016785" lon="12.4620483"><ele>68.42857142857143</ele><time>2026-05-02T12:11:48.44Z</time></trkpt><trkpt lat="44.01684" lon="12.4619983"><ele>69.14285714285714</ele><time>2026-05-02T12:11:54.44Z</time></trkpt><trkpt lat="44.0168967" lon="12.4619317"><ele>69.85714285714286</ele><time>2026-05-02T12:12:00.44Z</time></trkpt><trkpt lat="44.016955" lon="12.461885"><ele>70.57142857142857</ele><time>2026-05-02T12:12:06.44Z</time></trkpt><trkpt lat="44.0170067" lon="12.46183"><ele>71.28571428571429</ele><time>2026-05-02T12:12:12.439Z</time></trkpt><trkpt lat="44.0170633" lon="12.4617867"><ele>72.0</ele><time>2026-05-02T12:12:18.442Z</time></trkpt><trkpt lat="44.0171167" lon="12.4617267"><ele>72.00000000000001</ele><time>2026-05-02T12:12:24.442Z</time></trkpt><trkpt lat="44.01717" lon="12.4616683"><ele>72.0</ele><time>2026-05-02T12:12:30.44Z</time></trkpt><trkpt lat="44.0172233" lon="12.4616083"><ele>72.0</ele><time>2026-05-02T12:12:36.44Z</time></trkpt><trkpt lat="44.017275" lon="12.4615533"><ele>72.0</ele><time>2026-05-02T12:12:42.44Z</time></trkpt><trkpt lat="44.0173233" lon="12.4614867"><ele>72.0</ele><time>2026-05-02T12:12:48.441Z</time></trkpt><trkpt lat="44.01738" lon="12.4614217"><ele>72.00000000000001</ele><time>2026-05-02T12:12:54.439Z</time></trkpt><trkpt lat="44.017425" lon="12.4613583"><ele>72.0</ele><time>2026-05-02T12:12:59.439Z</time></trkpt><trkpt lat="44.0174783" lon="12.4613"><ele>72.71428571428572</ele><time>2026-05-02T12:13:04.441Z</time></trkpt><trkpt lat="44.0175267" lon="12.4612417"><ele>73.42857142857143</ele><time>2026-05-02T12:13:08.44Z</time></trkpt><trkpt lat="44.0175917" lon="12.461175"><ele>74.14285714285714</ele><time>2026-05-02T12:13:12.44Z</time></trkpt><trkpt lat="44.0176433" lon="12.4611217"><ele>74.85714285714286</ele><time>2026-05-02T12:13:15.439Z</time></trkpt><trkpt lat="44.0177017" lon="12.4610667"><ele>75.57142857142857</ele><time>2026-05-02T12:13:19.439Z</time></trkpt><trkpt lat="44.0177617" lon="12.4610267"><ele>76.28571428571429</ele><time>2026-05-02T12:13:23.44Z</time></trkpt><trkpt lat="44.0178433" lon="12.4610717"><ele>77.0</ele><time>2026-05-02T12:13:27.44Z</time></trkpt><trkpt lat="44.0178967" lon="12.4611783"><ele>76.71428571428571</ele><time>2026-05-02T12:13:30.439Z</time></trkpt><trkpt lat="44.0179533" lon="12.4612883"><ele>76.42857142857143</ele><time>2026-05-02T12:13:33.443Z</time></trkpt><trkpt lat="44.0179933" lon="12.461365"><ele>76.14285714285714</ele><time>2026-05-02T12:13:35.443Z</time></trkpt><trkpt lat="44.0180283" lon="12.461445"><ele>75.85714285714286</ele><time>2026-05-02T12:13:37.443Z</time></trkpt><trkpt lat="44.0180617" lon="12.4615217"><ele>75.57142857142857</ele><time>2026-05-02T12:13:39.442Z</time></trkpt><trkpt lat="44.0181" lon="12.4615983"><ele>75.28571428571428</ele><time>2026-05-02T12:13:41.44Z</time></trkpt><trkpt lat="44.01814" lon="12.461675"><ele>75.0</ele><time>2026-05-02T12:13:43.44Z</time></trkpt><trkpt lat="44.0181767" lon="12.4617467"><ele>75.0</ele><time>2026-05-02T12:13:45.44Z</time></trkpt><trkpt lat="44.0182283" lon="12.4618517"><ele>75.0</ele><time>2026-05-02T12:13:48.44Z</time></trkpt><trkpt lat="44.0182733" lon="12.461955"><ele>75.0</ele><time>2026-05-02T12:13:51.441Z</time></trkpt><trkpt lat="44.01832" lon="12.4620567"><ele>75.0</ele><time>2026-05-02T12:13:54.441Z</time></trkpt><trkpt lat="44.0183717" lon="12.4621667"><ele>75.0</ele><time>2026-05-02T12:13:57.44Z</time></trkpt><trkpt lat="44.01842" lon="12.462255"><ele>75.0</ele><time>2026-05-02T12:13:59.44Z</time></trkpt><trkpt lat="44.0184733" lon="12.462345"><ele>75.0</ele><time>2026-05-02T12:14:01.441Z</time></trkpt><trkpt lat="44.0185183" lon="12.4624417"><ele>75.0</ele><time>2026-05-02T12:14:03.441Z</time></trkpt><trkpt lat="44.018575" lon="12.462525"><ele>75.0</ele><time>2026-05-02T12:14:05.439Z</time></trkpt><trkpt lat="44.0186267" lon="12.4626117"><ele>75.0</ele><time>2026-05-02T12:14:07.439Z</time></trkpt><trkpt lat="44.018675" lon="12.4626933"><ele>75.0</ele><time>2026-05-02T12:14:09.44Z</time></trkpt><trkpt lat="44.01872" lon="12.46278"><ele>75.0</ele><time>2026-05-02T12:14:11.439Z</time></trkpt><trkpt lat="44.0187667" lon="12.4628733"><ele>74.5</ele><time>2026-05-02T12:14:13.44Z</time></trkpt><trkpt lat="44.018825" lon="12.4629717"><ele>74.0</ele><time>2026-05-02T12:14:15.44Z</time></trkpt><trkpt lat="44.0188817" lon="12.46307"><ele>73.5</ele><time>2026-05-02T12:14:17.439Z</time></trkpt><trkpt lat="44.01893" lon="12.4631717"><ele>73.0</ele><time>2026-05-02T12:14:19.438Z</time></trkpt><trkpt lat="44.018975" lon="12.4632617"><ele>72.5</ele><time>2026-05-02T12:14:21.44Z</time></trkpt><trkpt lat="44.0190233" lon="12.4633517"><ele>72.0</ele><time>2026-05-02T12:14:23.44Z</time></trkpt><trkpt lat="44.0190583" lon="12.4634433"><ele>72.00000000000001</ele><time>2026-05-02T12:14:25.439Z</time></trkpt><trkpt lat="44.0190867" lon="12.46353"><ele>72.0</ele><time>2026-05-02T12:14:27.439Z</time></trkpt><trkpt lat="44.0191183" lon="12.4636067"><ele>72.0</ele><time>2026-05-02T12:14:29.439Z</time></trkpt><trkpt lat="44.0191317" lon="12.4637133"><ele>72.0</ele><time>2026-05-02T12:14:32.44Z</time></trkpt><trkpt lat="44.019065" lon="12.4637733"><ele>72.0</ele><time>2026-05-02T12:14:35.44Z</time></trkpt><trkpt lat="44.019" lon="12.4638033"><ele>72.00000000000001</ele><time>2026-05-02T12:14:37.438Z</time></trkpt><trkpt lat="44.0189267" lon="12.4638333"><ele>72.0</ele><time>2026-05-02T12:14:39.44Z</time></trkpt><trkpt lat="44.0188417" lon="12.463875"><ele>71.33333333333333</ele><time>2026-05-02T12:14:41.439Z</time></trkpt><trkpt lat="44.0187483" lon="12.4639183"><ele>70.66666666666667</ele><time>2026-05-02T12:14:43.439Z</time></trkpt><trkpt lat="44.0186367" lon="12.4639667"><ele>70.0</ele><time>2026-05-02T12:14:45.44Z</time></trkpt><trkpt lat="44.0185733" lon="12.463995"><ele>69.33333333333334</ele><time>2026-05-02T12:14:46.442Z</time></trkpt><trkpt lat="44.0185067" lon="12.4640267"><ele>68.66666666666667</ele><time>2026-05-02T12:14:47.44Z</time></trkpt><trkpt lat="44.0184367" lon="12.4640617"><ele>68.0</ele><time>2026-05-02T12:14:48.441Z</time></trkpt><trkpt lat="44.0183617" lon="12.4641"><ele>67.0</ele><time>2026-05-02T12:14:49.44Z</time></trkpt><trkpt lat="44.0182817" lon="12.464135"><ele>66.0</ele><time>2026-05-02T12:14:50.441Z</time></trkpt><trkpt lat="44.0181933" lon="12.46417"><ele>65.0</ele><time>2026-05-02T12:14:51.439Z</time></trkpt><trkpt lat="44.0181033" lon="12.4642083"><ele>64.0</ele><time>2026-05-02T12:14:52.441Z</time></trkpt><trkpt lat="44.01801" lon="12.4642517"><ele>63.0</ele><time>2026-05-02T12:14:53.442Z</time></trkpt><trkpt lat="44.0179167" lon="12.464295"><ele>63.0</ele><time>2026-05-02T12:14:54.441Z</time></trkpt><trkpt lat="44.0178233" lon="12.46434"><ele>63.0</ele><time>2026-05-02T12:14:55.439Z</time></trkpt><trkpt lat="44.01773" lon="12.46439"><ele>63.0</ele><time>2026-05-02T12:14:56.439Z</time></trkpt><trkpt lat="44.0176383" lon="12.4644467"><ele>63.0</ele><time>2026-05-02T12:14:57.44Z</time></trkpt><trkpt lat="44.0175483" lon="12.4645017"><ele>63.0</ele><time>2026-05-02T12:14:58.44Z</time></trkpt><trkpt lat="44.0174617" lon="12.4645617"><ele>63.666666666666664</ele><time>2026-05-02T12:14:59.438Z</time></trkpt><trkpt lat="44.01738" lon="12.4646267"><ele>64.33333333333333</ele><time>2026-05-02T12:15:00.439Z</time></trkpt><trkpt lat="44.0173" lon="12.4646883"><ele>65.0</ele><time>2026-05-02T12:15:01.44Z</time></trkpt><trkpt lat="44.0172233" lon="12.4647483"><ele>65.66666666666666</ele><time>2026-05-02T12:15:02.439Z</time></trkpt><trkpt lat="44.01715" lon="12.4648067"><ele>66.33333333333333</ele><time>2026-05-02T12:15:03.44Z</time></trkpt><trkpt lat="44.0170783" lon="12.4648633"><ele>67.0</ele><time>2026-05-02T12:15:04.439Z</time></trkpt><trkpt lat="44.01701" lon="12.4649167"><ele>67.0</ele><time>2026-05-02T12:15:05.44Z</time></trkpt><trkpt lat="44.016945" lon="12.4649733"><ele>67.0</ele><time>2026-05-02T12:15:06.439Z</time></trkpt><trkpt lat="44.016885" lon="12.46503"><ele>67.0</ele><time>2026-05-02T12:15:07.44Z</time></trkpt><trkpt lat="44.0168317" lon="12.4650867"><ele>67.0</ele><time>2026-05-02T12:15:08.439Z</time></trkpt><trkpt lat="44.0167583" lon="12.4652117"><ele>67.0</ele><time>2026-05-02T12:15:10.44Z</time></trkpt><trkpt lat="44.0167233" lon="12.46533"><ele>67.0</ele><time>2026-05-02T12:15:12.44Z</time></trkpt><trkpt lat="44.016725" lon="12.46543"><ele>67.66666666666666</ele><time>2026-05-02T12:15:14.44Z</time></trkpt><trkpt lat="44.0167383" lon="12.46555"><ele>68.33333333333333</ele><time>2026-05-02T12:15:17.439Z</time></trkpt><trkpt lat="44.0167667" lon="12.465655"><ele>69.0</ele><time>2026-05-02T12:15:20.44Z</time></trkpt><trkpt lat="44.0168083" lon="12.4657467"><ele>69.66666666666667</ele><time>2026-05-02T12:15:23.439Z</time></trkpt><trkpt lat="44.01683" lon="12.4658383"><ele>70.33333333333334</ele><time>2026-05-02T12:15:26.439Z</time></trkpt><trkpt lat="44.0168617" lon="12.4659217"><ele>71.0</ele><time>2026-05-02T12:15:29.439Z</time></trkpt><trkpt lat="44.0168883" lon="12.4660083"><ele>71.0</ele><time>2026-05-02T12:15:32.44Z</time></trkpt><trkpt lat="44.0169217" lon="12.4660983"><ele>71.0</ele><time>2026-05-02T12:15:35.44Z</time></trkpt><trkpt lat="44.0169517" lon="12.466185"><ele>71.0</ele><time>2026-05-02T12:15:38.44Z</time></trkpt><trkpt lat="44.017005" lon="12.46626"><ele>71.0</ele><time>2026-05-02T12:15:41.44Z</time></trkpt><trkpt lat="44.0170233" lon="12.466375"><ele>71.0</ele><time>2026-05-02T12:15:45.44Z</time></trkpt><trkpt lat="44.0169933" lon="12.4664667"><ele>71.0</ele><time>2026-05-02T12:15:48.441Z</time></trkpt><trkpt lat="44.0169433" lon="12.4665467"><ele>71.83333333333334</ele><time>2026-05-02T12:15:51.441Z</time></trkpt><trkpt lat="44.01687" lon="12.4665833"><ele>72.66666666666667</ele><time>2026-05-02T12:15:54.441Z</time></trkpt><trkpt lat="44.01679" lon="12.466585"><ele>73.5</ele><time>2026-05-02T12:15:57.442Z</time></trkpt><trkpt lat="44.01672" lon="12.4665567"><ele>74.33333333333333</ele><time>2026-05-02T12:16:00.442Z</time></trkpt><trkpt lat="44.0166483" lon="12.4665167"><ele>75.16666666666666</ele><time>2026-05-02T12:16:03.442Z</time></trkpt><trkpt lat="44.0165733" lon="12.4664717"><ele>76.0</ele><time>2026-05-02T12:16:06.441Z</time></trkpt><trkpt lat="44.0164967" lon="12.4664267"><ele>77.5</ele><time>2026-05-02T12:16:09.441Z</time></trkpt><trkpt lat="44.016435" lon="12.4663533"><ele>79.0</ele><time>2026-05-02T12:16:12.442Z</time></trkpt><trkpt lat="44.016385" lon="12.4662667"><ele>80.5</ele><time>2026-05-02T12:16:15.442Z</time></trkpt><trkpt lat="44.0163283" lon="12.4661933"><ele>82.0</ele><time>2026-05-02T12:16:18.441Z</time></trkpt><trkpt lat="44.0162633" lon="12.4661317"><ele>83.5</ele><time>2026-05-02T12:16:21.441Z</time></trkpt><trkpt lat="44.0162083" lon="12.466055"><ele>85.0</ele><time>2026-05-02T12:16:24.439Z</time></trkpt><trkpt lat="44.01617" lon="12.4659733"><ele>85.0</ele><time>2026-05-02T12:16:27.44Z</time></trkpt><trkpt lat="44.016125" lon="12.4658733"><ele>85.0</ele><time>2026-05-02T12:16:30.44Z</time></trkpt><trkpt lat="44.0160733" lon="12.4657833"><ele>85.0</ele><time>2026-05-02T12:16:33.439Z</time></trkpt><trkpt lat="44.01603" lon="12.4656933"><ele>85.0</ele><time>2026-05-02T12:16:36.441Z</time></trkpt><trkpt lat="44.01599" lon="12.4656"><ele>85.0</ele><time>2026-05-02T12:16:39.439Z</time></trkpt><trkpt lat="44.0159533" lon="12.4655017"><ele>85.0</ele><time>2026-05-02T12:16:42.44Z</time></trkpt><trkpt lat="44.0159133" lon="12.46542"><ele>84.57142857142857</ele><time>2026-05-02T12:16:45.44Z</time></trkpt><trkpt lat="44.015865" lon="12.4653483"><ele>84.14285714285714</ele><time>2026-05-02T12:16:48.44Z</time></trkpt><trkpt lat="44.0158233" lon="12.4652517"><ele>83.71428571428571</ele><time>2026-05-02T12:16:51.439Z</time></trkpt><trkpt lat="44.0157683" lon="12.4651733"><ele>83.28571428571428</ele><time>2026-05-02T12:16:54.439Z</time></trkpt><trkpt lat="44.0157033" lon="12.4651317"><ele>82.85714285714286</ele><time>2026-05-02T12:16:57.441Z</time></trkpt><trkpt lat="44.0156317" lon="12.4650967"><ele>82.42857142857142</ele><time>2026-05-02T12:17:01.44Z</time></trkpt><trkpt lat="44.0155733" lon="12.465135"><ele>82.0</ele><time>2026-05-02T12:17:07.44Z</time></trkpt><trkpt lat="44.015525" lon="12.465205"><ele>83.28571428571428</ele><time>2026-05-02T12:17:13.44Z</time></trkpt><trkpt lat="44.0155217" lon="12.4653083"><ele>84.57142857142857</ele><time>2026-05-02T12:17:19.44Z</time></trkpt><trkpt lat="44.0155283" lon="12.4654"><ele>85.85714285714286</ele><time>2026-05-02T12:17:24.441Z</time></trkpt><trkpt lat="44.015545" lon="12.4654983"><ele>87.14285714285714</ele><time>2026-05-02T12:17:29.441Z</time></trkpt><trkpt lat="44.0155483" lon="12.4655983"><ele>88.42857142857143</ele><time>2026-05-02T12:17:34.441Z</time></trkpt><trkpt lat="44.0155483" lon="12.4656967"><ele>89.71428571428571</ele><time>2026-05-02T12:17:39.441Z</time></trkpt><trkpt lat="44.0155167" lon="12.4657883"><ele>91.0</ele><time>2026-05-02T12:17:44.441Z</time></trkpt><trkpt lat="44.0154633" lon="12.4658517"><ele>92.0</ele><time>2026-05-02T12:17:49.44Z</time></trkpt><trkpt lat="44.015395" lon="12.4658683"><ele>93.0</ele><time>2026-05-02T12:17:54.441Z</time></trkpt><trkpt lat="44.015325" lon="12.4658483"><ele>94.0</ele><time>2026-05-02T12:17:59.439Z</time></trkpt><trkpt lat="44.0152583" lon="12.46581"><ele>95.0</ele><time>2026-05-02T12:18:04.439Z</time></trkpt><trkpt lat="44.0152067" lon="12.46574"><ele>96.0</ele><time>2026-05-02T12:18:09.44Z</time></trkpt><trkpt lat="44.0151833" lon="12.4656583"><ele>97.0</ele><time>2026-05-02T12:18:13.442Z</time></trkpt><trkpt lat="44.0151667" lon="12.4655417"><ele>98.0</ele><time>2026-05-02T12:18:17.44Z</time></trkpt><trkpt lat="44.01513" lon="12.4654583"><ele>97.0</ele><time>2026-05-02T12:18:20.44Z</time></trkpt><trkpt lat="44.0150867" lon="12.4653917"><ele>96.0</ele><time>2026-05-02T12:18:23.439Z</time></trkpt><trkpt lat="44.0150167" lon="12.4653383"><ele>95.0</ele><time>2026-05-02T12:18:27.44Z</time></trkpt><trkpt lat="44.01494" lon="12.4652967"><ele>94.0</ele><time>2026-05-02T12:18:31.439Z</time></trkpt><trkpt lat="44.0148733" lon="12.4652867"><ele>93.0</ele><time>2026-05-02T12:18:34.44Z</time></trkpt><trkpt lat="44.0147967" lon="12.4652767"><ele>92.0</ele><time>2026-05-02T12:18:38.439Z</time></trkpt><trkpt lat="44.014725" lon="12.4653067"><ele>91.0</ele><time>2026-05-02T12:18:42.441Z</time></trkpt><trkpt lat="44.0146617" lon="12.4653617"><ele>91.0</ele><time>2026-05-02T12:18:46.44Z</time></trkpt><trkpt lat="44.0146133" lon="12.4654283"><ele>91.0</ele><time>2026-05-02T12:18:51.44Z</time></trkpt><trkpt lat="44.0145767" lon="12.4655017"><ele>91.0</ele><time>2026-05-02T12:18:56.44Z</time></trkpt><trkpt lat="44.0145583" lon="12.4655933"><ele>91.0</ele><time>2026-05-02T12:19:01.44Z</time></trkpt><trkpt lat="44.0145583" lon="12.465695"><ele>91.0</ele><time>2026-05-02T12:19:06.44Z</time></trkpt><trkpt lat="44.0145717" lon="12.4657883"><ele>91.0</ele><time>2026-05-02T12:19:11.44Z</time></trkpt><trkpt lat="44.0146017" lon="12.465875"><ele>91.0</ele><time>2026-05-02T12:19:15.439Z</time></trkpt><trkpt lat="44.014645" lon="12.4659667"><ele>92.71428571428571</ele><time>2026-05-02T12:19:19.439Z</time></trkpt><trkpt lat="44.014675" lon="12.46607"><ele>94.42857142857143</ele><time>2026-05-02T12:19:23.439Z</time></trkpt><trkpt lat="44.0147117" lon="12.4661717"><ele>96.14285714285714</ele><time>2026-05-02T12:19:27.44Z</time></trkpt><trkpt lat="44.0147533" lon="12.46627"><ele>97.85714285714286</ele><time>2026-05-02T12:19:31.44Z</time></trkpt><trkpt lat="44.0147783" lon="12.4663617"><ele>99.57142857142857</ele><time>2026-05-02T12:19:34.439Z</time></trkpt><trkpt lat="44.0147967" lon="12.4664517"><ele>101.28571428571428</ele><time>2026-05-02T12:19:37.44Z</time></trkpt><trkpt lat="44.0148133" lon="12.46654"><ele>103.0</ele><time>2026-05-02T12:19:40.44Z</time></trkpt><trkpt lat="44.0148283" lon="12.4666333"><ele>103.99999999999999</ele><time>2026-05-02T12:19:43.439Z</time></trkpt><trkpt lat="44.01483" lon="12.466725"><ele>105.0</ele><time>2026-05-02T12:19:46.44Z</time></trkpt><trkpt lat="44.0148217" lon="12.466815"><ele>106.0</ele><time>2026-05-02T12:19:49.44Z</time></trkpt><trkpt lat="44.0147917" lon="12.4669017"><ele>107.0</ele><time>2026-05-02T12:19:52.439Z</time></trkpt><trkpt lat="44.01476" lon="12.4669817"><ele>108.0</ele><time>2026-05-02T12:19:55.44Z</time></trkpt><trkpt lat="44.0147133" lon="12.467045"><ele>108.99999999999999</ele><time>2026-05-02T12:19:58.44Z</time></trkpt><trkpt lat="44.014645" lon="12.4670667"><ele>110.0</ele><time>2026-05-02T12:20:01.439Z</time></trkpt><trkpt lat="44.0145767" lon="12.4670617"><ele>109.99999999999999</ele><time>2026-05-02T12:20:04.44Z</time></trkpt><trkpt lat="44.0145067" lon="12.4670367"><ele>110.0</ele><time>2026-05-02T12:20:07.439Z</time></trkpt><trkpt lat="44.0144483" lon="12.46698"><ele>110.0</ele><time>2026-05-02T12:20:10.439Z</time></trkpt><trkpt lat="44.0143983" lon="12.4669167"><ele>110.0</ele><time>2026-05-02T12:20:13.44Z</time></trkpt><trkpt lat="44.0143367" lon="12.4668667"><ele>110.0</ele><time>2026-05-02T12:20:16.44Z</time></trkpt><trkpt lat="44.014265" lon="12.4668367"><ele>109.99999999999999</ele><time>2026-05-02T12:20:19.44Z</time></trkpt><trkpt lat="44.0142" lon="12.4668133"><ele>110.0</ele><time>2026-05-02T12:20:22.439Z</time></trkpt><trkpt lat="44.014135" lon="12.466805"><ele>110.85714285714285</ele><time>2026-05-02T12:20:25.439Z</time></trkpt><trkpt lat="44.0140667" lon="12.4668133"><ele>111.71428571428572</ele><time>2026-05-02T12:20:28.44Z</time></trkpt><trkpt lat="44.0140017" lon="12.4668383"><ele>112.57142857142858</ele><time>2026-05-02T12:20:31.439Z</time></trkpt><trkpt lat="44.0139367" lon="12.46687"><ele>113.42857142857143</ele><time>2026-05-02T12:20:34.439Z</time></trkpt><trkpt lat="44.013875" lon="12.4669183"><ele>114.28571428571429</ele><time>2026-05-02T12:20:37.44Z</time></trkpt><trkpt lat="44.0138083" lon="12.46697"><ele>115.14285714285715</ele><time>2026-05-02T12:20:40.439Z</time></trkpt><trkpt lat="44.013745" lon="12.467025"><ele>116.00000000000001</ele><time>2026-05-02T12:20:43.44Z</time></trkpt><trkpt lat="44.0136783" lon="12.4670683"><ele>116.42857142857144</ele><time>2026-05-02T12:20:46.44Z</time></trkpt><trkpt lat="44.013615" lon="12.467115"><ele>116.85714285714286</ele><time>2026-05-02T12:20:49.44Z</time></trkpt><trkpt lat="44.013555" lon="12.4671533"><ele>117.28571428571429</ele><time>2026-05-02T12:20:52.442Z</time></trkpt><trkpt lat="44.0134983" lon="12.4671917"><ele>117.71428571428572</ele><time>2026-05-02T12:20:55.439Z</time></trkpt><trkpt lat="44.0134183" lon="12.4672383"><ele>118.14285714285714</ele><time>2026-05-02T12:21:36.441Z</time></trkpt><trkpt lat="44.0133583" lon="12.4672683"><ele>118.57142857142857</ele><time>2026-05-02T12:21:42.44Z</time></trkpt><trkpt lat="44.01328" lon="12.46728"><ele>119.0</ele><time>2026-05-02T12:21:48.44Z</time></trkpt><trkpt lat="44.0132117" lon="12.4672533"><ele>120.0</ele><time>2026-05-02T12:21:53.443Z</time></trkpt><trkpt lat="44.01314" lon="12.4672367"><ele>121.0</ele><time>2026-05-02T12:21:58.442Z</time></trkpt><trkpt lat="44.0130633" lon="12.46723"><ele>122.0</ele><time>2026-05-02T12:22:03.442Z</time></trkpt><trkpt lat="44.01299" lon="12.4672267"><ele>123.0</ele><time>2026-05-02T12:22:08.443Z</time></trkpt><trkpt lat="44.01292" lon="12.4672317"><ele>124.0</ele><time>2026-05-02T12:22:13.443Z</time></trkpt><trkpt lat="44.012855" lon="12.4672517"><ele>125.0</ele><time>2026-05-02T12:22:18.438Z</time></trkpt><trkpt lat="44.0127867" lon="12.46725"><ele>126.0</ele><time>2026-05-02T12:22:24.438Z</time></trkpt><trkpt lat="44.0127283" lon="12.4672867"><ele>126.0</ele><time>2026-05-02T12:22:29.44Z</time></trkpt><trkpt lat="44.0126833" lon="12.4673517"><ele>126.0</ele><time>2026-05-02T12:22:35.438Z</time></trkpt><trkpt lat="44.01262" lon="12.467405"><ele>126.0</ele><time>2026-05-02T12:22:40.441Z</time></trkpt><trkpt lat="44.012565" lon="12.4674533"><ele>126.0</ele><time>2026-05-02T12:22:45.44Z</time></trkpt><trkpt lat="44.0125167" lon="12.46751"><ele>126.0</ele><time>2026-05-02T12:22:50.44Z</time></trkpt><trkpt lat="44.01246" lon="12.467555"><ele>126.0</ele><time>2026-05-02T12:22:55.439Z</time></trkpt><trkpt lat="44.0123933" lon="12.4675683"><ele>126.0</ele><time>2026-05-02T12:23:00.439Z</time></trkpt><trkpt lat="44.012325" lon="12.46757"><ele>127.0</ele><time>2026-05-02T12:23:05.439Z</time></trkpt><trkpt lat="44.0122483" lon="12.4675633"><ele>128.0</ele><time>2026-05-02T12:23:10.44Z</time></trkpt><trkpt lat="44.012185" lon="12.46755"><ele>129.0</ele><time>2026-05-02T12:23:14.44Z</time></trkpt><trkpt lat="44.012115" lon="12.4675233"><ele>130.0</ele><time>2026-05-02T12:23:20.44Z</time></trkpt><trkpt lat="44.0120467" lon="12.4675033"><ele>131.0</ele><time>2026-05-02T12:23:25.439Z</time></trkpt><trkpt lat="44.01197" lon="12.4674867"><ele>132.0</ele><time>2026-05-02T12:23:31.442Z</time></trkpt><trkpt lat="44.0118983" lon="12.4674667"><ele>133.0</ele><time>2026-05-02T12:23:36.44Z</time></trkpt><trkpt lat="44.0118167" lon="12.4674617"><ele>133.0</ele><time>2026-05-02T12:23:41.439Z</time></trkpt><trkpt lat="44.0117533" lon="12.4674417"><ele>133.0</ele><time>2026-05-02T12:23:46.442Z</time></trkpt><trkpt lat="44.01168" lon="12.4674267"><ele>133.0</ele><time>2026-05-02T12:23:51.439Z</time></trkpt><trkpt lat="44.0116" lon="12.4674267"><ele>133.0</ele><time>2026-05-02T12:23:56.44Z</time></trkpt><trkpt lat="44.011525" lon="12.4674417"><ele>133.0</ele><time>2026-05-02T12:24:00.441Z</time></trkpt><trkpt lat="44.01145" lon="12.4674333"><ele>133.0</ele><time>2026-05-02T12:24:04.439Z</time></trkpt><trkpt lat="44.0113717" lon="12.467435"><ele>133.0</ele><time>2026-05-02T12:24:08.44Z</time></trkpt><trkpt lat="44.0112983" lon="12.4674367"><ele>133.85714285714286</ele><time>2026-05-02T12:24:12.443Z</time></trkpt><trkpt lat="44.0112233" lon="12.4674667"><ele>134.71428571428572</ele><time>2026-05-02T12:24:16.442Z</time></trkpt><trkpt lat="44.011155" lon="12.4674683"><ele>135.57142857142856</ele><time>2026-05-02T12:24:19.438Z</time></trkpt><trkpt lat="44.0110933" lon="12.467445"><ele>136.42857142857144</ele><time>2026-05-02T12:24:22.438Z</time></trkpt><trkpt lat="44.0110167" lon="12.4674067"><ele>137.28571428571428</ele><time>2026-05-02T12:24:26.44Z</time></trkpt><trkpt lat="44.01097" lon="12.467345"><ele>138.14285714285714</ele><time>2026-05-02T12:24:29.44Z</time></trkpt><trkpt lat="44.0109083" lon="12.4672817"><ele>139.0</ele><time>2026-05-02T12:24:33.439Z</time></trkpt><trkpt lat="44.0108533" lon="12.4672033"><ele>139.85714285714286</ele><time>2026-05-02T12:24:37.441Z</time></trkpt><trkpt lat="44.0108" lon="12.467155"><ele>140.71428571428572</ele><time>2026-05-02T12:24:42.442Z</time></trkpt><trkpt lat="44.0107267" lon="12.4671333"><ele>141.57142857142858</ele><time>2026-05-02T12:24:47.442Z</time></trkpt><trkpt lat="44.0106617" lon="12.46714"><ele>142.42857142857144</ele><time>2026-05-02T12:24:51.44Z</time></trkpt><trkpt lat="44.0105967" lon="12.46717"><ele>143.2857142857143</ele><time>2026-05-02T12:24:56.441Z</time></trkpt><trkpt lat="44.0105383" lon="12.4672133"><ele>144.14285714285714</ele><time>2026-05-02T12:25:01.44Z</time></trkpt><trkpt lat="44.0104817" lon="12.4672783"><ele>145.0</ele><time>2026-05-02T12:25:06.44Z</time></trkpt><trkpt lat="44.0104267" lon="12.4673333"><ele>145.0</ele><time>2026-05-02T12:25:11.439Z</time></trkpt><trkpt lat="44.0103683" lon="12.4673967"><ele>145.0</ele><time>2026-05-02T12:25:16.443Z</time></trkpt><trkpt lat="44.0103017" lon="12.4674517"><ele>145.0</ele><time>2026-05-02T12:25:21.439Z</time></trkpt><trkpt lat="44.0102367" lon="12.467505"><ele>145.0</ele><time>2026-05-02T12:25:25.44Z</time></trkpt><trkpt lat="44.0101783" lon="12.4675583"><ele>145.0</ele><time>2026-05-02T12:25:29.441Z</time></trkpt><trkpt lat="44.01012" lon="12.4676133"><ele>145.0</ele><time>2026-05-02T12:25:33.441Z</time></trkpt><trkpt lat="44.010065" lon="12.467665"><ele>145.0</ele><time>2026-05-02T12:25:37.441Z</time></trkpt><trkpt lat="44.0099967" lon="12.4677067"><ele>145.66666666666669</ele><time>2026-05-02T12:25:41.443Z</time></trkpt><trkpt lat="44.0099283" lon="12.4677467"><ele>146.33333333333334</ele><time>2026-05-02T12:25:45.44Z</time></trkpt><trkpt lat="44.009855" lon="12.4677767"><ele>147.0</ele><time>2026-05-02T12:25:49.443Z</time></trkpt><trkpt lat="44.0097917" lon="12.467785"><ele>147.66666666666666</ele><time>2026-05-02T12:25:52.442Z</time></trkpt><trkpt lat="44.0097067" lon="12.4677867"><ele>148.33333333333331</ele><time>2026-05-02T12:25:56.441Z</time></trkpt><trkpt lat="44.009625" lon="12.467775"><ele>149.0</ele><time>2026-05-02T12:26:00.44Z</time></trkpt><trkpt lat="44.0095483" lon="12.467755"><ele>149.0</ele><time>2026-05-02T12:26:04.44Z</time></trkpt><trkpt lat="44.0094733" lon="12.4677417"><ele>149.0</ele><time>2026-05-02T12:26:08.44Z</time></trkpt><trkpt lat="44.009395" lon="12.4677167"><ele>149.0</ele><time>2026-05-02T12:26:12.441Z</time></trkpt><trkpt lat="44.0093167" lon="12.4676817"><ele>149.0</ele><time>2026-05-02T12:26:16.442Z</time></trkpt><trkpt lat="44.0092383" lon="12.4676517"><ele>149.0</ele><time>2026-05-02T12:26:20.442Z</time></trkpt><trkpt lat="44.0091767" lon="12.4676317"><ele>149.0</ele><time>2026-05-02T12:26:23.442Z</time></trkpt><trkpt lat="44.009105" lon="12.46761"><ele>150.0</ele><time>2026-05-02T12:26:26.44Z</time></trkpt><trkpt lat="44.0090367" lon="12.4675883"><ele>151.0</ele><time>2026-05-02T12:26:29.439Z</time></trkpt><trkpt lat="44.0089683" lon="12.467565"><ele>152.0</ele><time>2026-05-02T12:26:32.44Z</time></trkpt><trkpt lat="44.0089" lon="12.4675417"><ele>153.0</ele><time>2026-05-02T12:26:35.438Z</time></trkpt><trkpt lat="44.0088333" lon="12.4675267"><ele>154.0</ele><time>2026-05-02T12:26:38.44Z</time></trkpt><trkpt lat="44.0087683" lon="12.467505"><ele>155.0</ele><time>2026-05-02T12:26:41.439Z</time></trkpt><trkpt lat="44.0087" lon="12.4674833"><ele>156.0</ele><time>2026-05-02T12:26:44.44Z</time></trkpt><trkpt lat="44.0086333" lon="12.4674533"><ele>156.0</ele><time>2026-05-02T12:26:47.442Z</time></trkpt><trkpt lat="44.0085667" lon="12.46743"><ele>156.0</ele><time>2026-05-02T12:26:50.443Z</time></trkpt><trkpt lat="44.0085" lon="12.4674233"><ele>156.0</ele><time>2026-05-02T12:26:53.442Z</time></trkpt><trkpt lat="44.0084317" lon="12.4674083"><ele>156.0</ele><time>2026-05-02T12:26:56.44Z</time></trkpt><trkpt lat="44.0083683" lon="12.4673733"><ele>156.0</ele><time>2026-05-02T12:26:59.438Z</time></trkpt><trkpt lat="44.008305" lon="12.4673817"><ele>156.0</ele><time>2026-05-02T12:27:02.44Z</time></trkpt><trkpt lat="44.0082217" lon="12.4673567"><ele>156.0</ele><time>2026-05-02T12:27:06.442Z</time></trkpt><trkpt lat="44.0081583" lon="12.467345"><ele>157.0</ele><time>2026-05-02T12:27:09.439Z</time></trkpt><trkpt lat="44.0080917" lon="12.4673333"><ele>158.0</ele><time>2026-05-02T12:27:12.44Z</time></trkpt><trkpt lat="44.0080283" lon="12.46734"><ele>159.0</ele><time>2026-05-02T12:27:15.44Z</time></trkpt><trkpt lat="44.007965" lon="12.4673483"><ele>160.0</ele><time>2026-05-02T12:27:18.442Z</time></trkpt><trkpt lat="44.0078833" lon="12.467345"><ele>161.0</ele><time>2026-05-02T12:27:22.439Z</time></trkpt><trkpt lat="44.0078183" lon="12.4673467"><ele>162.0</ele><time>2026-05-02T12:27:25.442Z</time></trkpt><trkpt lat="44.007735" lon="12.4673617"><ele>163.0</ele><time>2026-05-02T12:27:29.44Z</time></trkpt><trkpt lat="44.0076533" lon="12.4673517"><ele>163.0</ele><time>2026-05-02T12:27:33.441Z</time></trkpt><trkpt lat="44.0075733" lon="12.467365"><ele>163.0</ele><time>2026-05-02T12:27:37.44Z</time></trkpt><trkpt lat="44.007495" lon="12.467355"><ele>163.0</ele><time>2026-05-02T12:27:41.44Z</time></trkpt><trkpt lat="44.0074217" lon="12.46736"><ele>163.0</ele><time>2026-05-02T12:27:45.443Z</time></trkpt><trkpt lat="44.0073433" lon="12.4673767"><ele>163.0</ele><time>2026-05-02T12:27:49.441Z</time></trkpt><trkpt lat="44.0072667" lon="12.46739"><ele>163.0</ele><time>2026-05-02T12:27:53.44Z</time></trkpt><trkpt lat="44.0072033" lon="12.4673883"><ele>164.0</ele><time>2026-05-02T12:27:56.44Z</time></trkpt><trkpt lat="44.0071383" lon="12.4673833"><ele>165.0</ele><time>2026-05-02T12:27:59.439Z</time></trkpt><trkpt lat="44.0070617" lon="12.4674"><ele>166.0</ele><time>2026-05-02T12:28:03.442Z</time></trkpt><trkpt lat="44.0069983" lon="12.4673967"><ele>167.0</ele><time>2026-05-02T12:28:06.44Z</time></trkpt><trkpt lat="44.006935" lon="12.4673967"><ele>168.0</ele><time>2026-05-02T12:28:09.44Z</time></trkpt><trkpt lat="44.0068667" lon="12.467395"><ele>169.0</ele><time>2026-05-02T12:28:12.443Z</time></trkpt><trkpt lat="44.0068033" lon="12.4674017"><ele>170.0</ele><time>2026-05-02T12:28:15.44Z</time></trkpt><trkpt lat="44.00672" lon="12.467415"><ele>170.14285714285714</ele><time>2026-05-02T12:28:19.438Z</time></trkpt><trkpt lat="44.006655" lon="12.467425"><ele>170.28571428571428</ele><time>2026-05-02T12:28:22.44Z</time></trkpt><trkpt lat="44.00658" lon="12.4674233"><ele>170.42857142857142</ele><time>2026-05-02T12:28:26.44Z</time></trkpt><trkpt lat="44.0064967" lon="12.4674283"><ele>170.57142857142856</ele><time>2026-05-02T12:28:30.44Z</time></trkpt><trkpt lat="44.006425" lon="12.4674383"><ele>170.71428571428572</ele><time>2026-05-02T12:28:33.44Z</time></trkpt><trkpt lat="44.006355" lon="12.467445"><ele>170.85714285714283</ele><time>2026-05-02T12:28:36.44Z</time></trkpt><trkpt lat="44.0062833" lon="12.46745"><ele>171.0</ele><time>2026-05-02T12:28:39.44Z</time></trkpt><trkpt lat="44.0062117" lon="12.4674583"><ele>170.99999999999997</ele><time>2026-05-02T12:28:42.442Z</time></trkpt><trkpt lat="44.0061333" lon="12.4674667"><ele>171.0</ele><time>2026-05-02T12:28:45.441Z</time></trkpt><trkpt lat="44.0060617" lon="12.4674783"><ele>171.0</ele><time>2026-05-02T12:28:48.439Z</time></trkpt><trkpt lat="44.0059967" lon="12.4674917"><ele>171.0</ele><time>2026-05-02T12:28:51.44Z</time></trkpt><trkpt lat="44.0059333" lon="12.4675217"><ele>171.0</ele><time>2026-05-02T12:28:54.44Z</time></trkpt><trkpt lat="44.0058733" lon="12.4675517"><ele>170.99999999999997</ele><time>2026-05-02T12:28:57.439Z</time></trkpt><trkpt lat="44.0058117" lon="12.4675867"><ele>171.0</ele><time>2026-05-02T12:29:00.439Z</time></trkpt><trkpt lat="44.005745" lon="12.4676283"><ele>171.7142857142857</ele><time>2026-05-02T12:29:03.441Z</time></trkpt><trkpt lat="44.0056767" lon="12.467665"><ele>172.42857142857142</ele><time>2026-05-02T12:29:06.443Z</time></trkpt><trkpt lat="44.00561" lon="12.4677"><ele>173.14285714285714</ele><time>2026-05-02T12:29:09.44Z</time></trkpt><trkpt lat="44.0055417" lon="12.4677367"><ele>173.85714285714283</ele><time>2026-05-02T12:29:12.44Z</time></trkpt><trkpt lat="44.00548" lon="12.4677733"><ele>174.57142857142856</ele><time>2026-05-02T12:29:15.441Z</time></trkpt><trkpt lat="44.0054167" lon="12.4678067"><ele>175.28571428571428</ele><time>2026-05-02T12:29:18.439Z</time></trkpt><trkpt lat="44.00535" lon="12.4678483"><ele>176.0</ele><time>2026-05-02T12:29:21.44Z</time></trkpt><trkpt lat="44.0052967" lon="12.4678967"><ele>175.66666666666666</ele><time>2026-05-02T12:29:24.44Z</time></trkpt><trkpt lat="44.0052417" lon="12.467955"><ele>175.33333333333331</ele><time>2026-05-02T12:29:27.441Z</time></trkpt><trkpt lat="44.0051783" lon="12.4680117"><ele>175.0</ele><time>2026-05-02T12:29:31.44Z</time></trkpt><trkpt lat="44.0051183" lon="12.468075"><ele>174.66666666666666</ele><time>2026-05-02T12:29:35.439Z</time></trkpt><trkpt lat="44.0050483" lon="12.4681333"><ele>174.33333333333334</ele><time>2026-05-02T12:29:38.439Z</time></trkpt><trkpt lat="44.004975" lon="12.4681717"><ele>174.0</ele><time>2026-05-02T12:29:41.44Z</time></trkpt><trkpt lat="44.00489" lon="12.4681667"><ele>174.0</ele><time>2026-05-02T12:29:44.441Z</time></trkpt><trkpt lat="44.0048267" lon="12.4681217"><ele>174.0</ele><time>2026-05-02T12:29:46.44Z</time></trkpt><trkpt lat="44.0047667" lon="12.4680533"><ele>174.0</ele><time>2026-05-02T12:29:48.442Z</time></trkpt><trkpt lat="44.004715" lon="12.4679783"><ele>174.0</ele><time>2026-05-02T12:29:50.443Z</time></trkpt><trkpt lat="44.00468" lon="12.4678983"><ele>174.0</ele><time>2026-05-02T12:29:52.439Z</time></trkpt><trkpt lat="44.0046467" lon="12.4678133"><ele>174.0</ele><time>2026-05-02T12:29:54.442Z</time></trkpt><trkpt lat="44.0046183" lon="12.467735"><ele>174.0</ele><time>2026-05-02T12:29:56.439Z</time></trkpt><trkpt lat="44.00457" lon="12.4676283"><ele>175.33333333333334</ele><time>2026-05-02T12:29:59.441Z</time></trkpt><trkpt lat="44.0045033" lon="12.4675317"><ele>176.66666666666666</ele><time>2026-05-02T12:30:02.441Z</time></trkpt><trkpt lat="44.0044267" lon="12.4674683"><ele>178.0</ele><time>2026-05-02T12:30:05.44Z</time></trkpt><trkpt lat="44.00436" lon="12.4674417"><ele>179.33333333333331</ele><time>2026-05-02T12:30:08.44Z</time></trkpt><trkpt lat="44.0042767" lon="12.4674717"><ele>180.66666666666666</ele><time>2026-05-02T12:30:12.439Z</time></trkpt><trkpt lat="44.00421" lon="12.4674783"><ele>182.0</ele><time>2026-05-02T12:30:15.439Z</time></trkpt><trkpt lat="44.0041367" lon="12.4674783"><ele>182.85714285714286</ele><time>2026-05-02T12:30:18.442Z</time></trkpt><trkpt lat="44.00407" lon="12.4674883"><ele>183.71428571428572</ele><time>2026-05-02T12:30:21.443Z</time></trkpt><trkpt lat="44.004005" lon="12.4675033"><ele>184.57142857142856</ele><time>2026-05-02T12:30:24.442Z</time></trkpt><trkpt lat="44.00394" lon="12.4675183"><ele>185.42857142857144</ele><time>2026-05-02T12:30:27.44Z</time></trkpt><trkpt lat="44.0038567" lon="12.4675333"><ele>186.28571428571428</ele><time>2026-05-02T12:30:30.441Z</time></trkpt><trkpt lat="44.0037817" lon="12.4675583"><ele>187.14285714285714</ele><time>2026-05-02T12:30:33.44Z</time></trkpt><trkpt lat="44.0037117" lon="12.46758"><ele>188.0</ele><time>2026-05-02T12:30:36.439Z</time></trkpt><trkpt lat="44.00364" lon="12.4676"><ele>188.0</ele><time>2026-05-02T12:30:39.44Z</time></trkpt><trkpt lat="44.0035633" lon="12.467625"><ele>188.0</ele><time>2026-05-02T12:30:42.439Z</time></trkpt><trkpt lat="44.0034917" lon="12.46766"><ele>188.0</ele><time>2026-05-02T12:30:45.443Z</time></trkpt><trkpt lat="44.0034083" lon="12.4676833"><ele>188.0</ele><time>2026-05-02T12:30:48.443Z</time></trkpt><trkpt lat="44.0033283" lon="12.4676983"><ele>188.0</ele><time>2026-05-02T12:30:51.442Z</time></trkpt><trkpt lat="44.003255" lon="12.4677183"><ele>188.0</ele><time>2026-05-02T12:30:54.442Z</time></trkpt><trkpt lat="44.003175" lon="12.46775"><ele>189.16666666666666</ele><time>2026-05-02T12:30:57.44Z</time></trkpt><trkpt lat="44.00309" lon="12.467775"><ele>190.33333333333331</ele><time>2026-05-02T12:31:00.441Z</time></trkpt><trkpt lat="44.0029967" lon="12.467815"><ele>191.5</ele><time>2026-05-02T12:31:03.441Z</time></trkpt><trkpt lat="44.002915" lon="12.4678467"><ele>192.66666666666666</ele><time>2026-05-02T12:31:06.44Z</time></trkpt><trkpt lat="44.0028367" lon="12.4678683"><ele>193.83333333333334</ele><time>2026-05-02T12:31:09.439Z</time></trkpt><trkpt lat="44.002755" lon="12.4678983"><ele>195.0</ele><time>2026-05-02T12:31:12.44Z</time></trkpt><trkpt lat="44.0026733" lon="12.467935"><ele>194.16666666666666</ele><time>2026-05-02T12:31:15.442Z</time></trkpt><trkpt lat="44.0025783" lon="12.4680317"><ele>193.33333333333334</ele><time>2026-05-02T12:31:43.439Z</time></trkpt><trkpt lat="44.0025167" lon="12.4681217"><ele>192.5</ele><time>2026-05-02T12:31:46.443Z</time></trkpt><trkpt lat="44.0024633" lon="12.4681717"><ele>191.66666666666669</ele><time>2026-05-02T12:31:48.443Z</time></trkpt><trkpt lat="44.002405" lon="12.4682233"><ele>190.83333333333334</ele><time>2026-05-02T12:31:50.442Z</time></trkpt><trkpt lat="44.0023517" lon="12.4682817"><ele>190.0</ele><time>2026-05-02T12:31:52.443Z</time></trkpt><trkpt lat="44.002285" lon="12.4683283"><ele>190.0</ele><time>2026-05-02T12:31:54.442Z</time></trkpt><trkpt lat="44.00221" lon="12.468385"><ele>190.0</ele><time>2026-05-02T12:31:56.439Z</time></trkpt><trkpt lat="44.00213" lon="12.468445"><ele>190.0</ele><time>2026-05-02T12:31:58.439Z</time></trkpt><trkpt lat="44.0020483" lon="12.4684933"><ele>190.0</ele><time>2026-05-02T12:32:00.441Z</time></trkpt><trkpt lat="44.0019733" lon="12.46856"><ele>190.0</ele><time>2026-05-02T12:32:02.439Z</time></trkpt><trkpt lat="44.0018917" lon="12.468605"><ele>190.0</ele><time>2026-05-02T12:32:04.44Z</time></trkpt><trkpt lat="44.001805" lon="12.4686633"><ele>190.0</ele><time>2026-05-02T12:32:06.44Z</time></trkpt><trkpt lat="44.0017017" lon="12.46872"><ele>190.0</ele><time>2026-05-02T12:32:08.439Z</time></trkpt><trkpt lat="44.0015917" lon="12.4687933"><ele>190.0</ele><time>2026-05-02T12:32:10.44Z</time></trkpt><trkpt lat="44.0014733" lon="12.4688583"><ele>190.0</ele><time>2026-05-02T12:32:12.44Z</time></trkpt><trkpt lat="44.0013683" lon="12.4689483"><ele>188.28571428571428</ele><time>2026-05-02T12:32:14.44Z</time></trkpt><trkpt lat="44.0013117" lon="12.4689967"><ele>186.57142857142858</ele><time>2026-05-02T12:32:15.44Z</time></trkpt><trkpt lat="44.0012583" lon="12.469055"><ele>184.85714285714283</ele><time>2026-05-02T12:32:16.443Z</time></trkpt><trkpt lat="44.0012033" lon="12.4691183"><ele>183.14285714285714</ele><time>2026-05-02T12:32:17.443Z</time></trkpt><trkpt lat="44.00115" lon="12.4691867"><ele>181.42857142857142</ele><time>2026-05-02T12:32:18.441Z</time></trkpt><trkpt lat="44.0010967" lon="12.46926"><ele>179.7142857142857</ele><time>2026-05-02T12:32:19.44Z</time></trkpt><trkpt lat="44.0010433" lon="12.4693333"><ele>178.0</ele><time>2026-05-02T12:32:20.44Z</time></trkpt><trkpt lat="44.0009833" lon="12.4694117"><ele>178.0</ele><time>2026-05-02T12:32:21.444Z</time></trkpt><trkpt lat="44.0009267" lon="12.4694917"><ele>178.0</ele><time>2026-05-02T12:32:22.442Z</time></trkpt><trkpt lat="44.00087" lon="12.4695717"><ele>178.0</ele><time>2026-05-02T12:32:23.442Z</time></trkpt><trkpt lat="44.0008133" lon="12.4696583"><ele>178.0</ele><time>2026-05-02T12:32:24.443Z</time></trkpt><trkpt lat="44.0007567" lon="12.46974"><ele>178.0</ele><time>2026-05-02T12:32:25.441Z</time></trkpt><trkpt lat="44.000705" lon="12.4698167"><ele>178.0</ele><time>2026-05-02T12:32:26.439Z</time></trkpt><trkpt lat="44.0006567" lon="12.4698917"><ele>177.5</ele><time>2026-05-02T12:32:27.441Z</time></trkpt><trkpt lat="44.00061" lon="12.4699667"><ele>177.0</ele><time>2026-05-02T12:32:28.44Z</time></trkpt><trkpt lat="44.00056" lon="12.4700383"><ele>176.5</ele><time>2026-05-02T12:32:29.441Z</time></trkpt><trkpt lat="44.0004883" lon="12.4701617"><ele>176.0</ele><time>2026-05-02T12:32:31.441Z</time></trkpt><trkpt lat="44.0004267" lon="12.4702583"><ele>175.5</ele><time>2026-05-02T12:32:33.44Z</time></trkpt><trkpt lat="44.0003583" lon="12.470345"><ele>175.0</ele><time>2026-05-02T12:32:35.441Z</time></trkpt><trkpt lat="44.00031" lon="12.4704467"><ele>175.6</ele><time>2026-05-02T12:32:37.44Z</time></trkpt><trkpt lat="44.0002667" lon="12.4705583"><ele>176.2</ele><time>2026-05-02T12:32:39.441Z</time></trkpt><trkpt lat="44.000235" lon="12.4706733"><ele>176.8</ele><time>2026-05-02T12:32:41.44Z</time></trkpt><trkpt lat="44.0002183" lon="12.4707917"><ele>177.4</ele><time>2026-05-02T12:32:43.442Z</time></trkpt><trkpt lat="44.0002117" lon="12.470905"><ele>178.0</ele><time>2026-05-02T12:32:45.441Z</time></trkpt><trkpt lat="44.0013117" lon="12.4689967"><ele>177.99999999999997</ele><time>2026-05-02T12:32:15.44Z</time></trkpt><trkpt lat="44.0012583" lon="12.469055"><ele>178.0</ele><time>2026-05-02T12:32:16.443Z</time></trkpt><trkpt lat="44.0012033" lon="12.4691183"><ele>178.0</ele><time>2026-05-02T12:32:17.443Z</time></trkpt><trkpt lat="44.00115" lon="12.4691867"><ele>178.0</ele><time>2026-05-02T12:32:18.441Z</time></trkpt><trkpt lat="44.0010967" lon="12.46926"><ele>178.0</ele><time>2026-05-02T12:32:19.44Z</time></trkpt><trkpt lat="44.0010433" lon="12.4693333"><ele>177.99999999999997</ele><time>2026-05-02T12:32:20.44Z</time></trkpt><trkpt lat="44.0009833" lon="12.4694117"><ele>178.0</ele><time>2026-05-02T12:32:21.444Z</time></trkpt><trkpt lat="44.0009267" lon="12.4694917"><ele>178.0</ele><time>2026-05-02T12:32:22.442Z</time></trkpt><trkpt lat="44.00087" lon="12.4695717"><ele>178.0</ele><time>2026-05-02T12:32:23.442Z</time></trkpt><trkpt lat="44.0008133" lon="12.4696583"><ele>178.0</ele><time>2026-05-02T12:32:24.443Z</time></trkpt><trkpt lat="44.0007567" lon="12.46974"><ele>178.0</ele><time>2026-05-02T12:32:25.441Z</time></trkpt><trkpt lat="44.000705" lon="12.4698167"><ele>178.0</ele><time>2026-05-02T12:32:26.439Z</time></trkpt><trkpt lat="44.0006567" lon="12.4698917"><ele>178.0</ele><time>2026-05-02T12:32:27.441Z</time></trkpt><trkpt lat="44.00061" lon="12.4699667"><ele>177.4</ele><time>2026-05-02T12:32:28.44Z</time></trkpt><trkpt lat="44.00056" lon="12.4700383"><ele>176.8</ele><time>2026-05-02T12:32:29.441Z</time></trkpt><trkpt lat="44.0004883" lon="12.4701617"><ele>176.2</ele><time>2026-05-02T12:32:31.441Z</time></trkpt><trkpt lat="44.0004267" lon="12.4702583"><ele>175.6</ele><time>2026-05-02T12:32:33.44Z</time></trkpt><trkpt lat="44.0003583" lon="12.470345"><ele>175.0</ele><time>2026-05-02T12:32:35.441Z</time></trkpt><trkpt lat="44.00031" lon="12.4704467"><ele>176.0</ele><time>2026-05-02T12:32:37.44Z</time></trkpt><trkpt lat="44.0002667" lon="12.4705583"><ele>177.0</ele><time>2026-05-02T12:32:39.441Z</time></trkpt><trkpt lat="44.000235" lon="12.4706733"><ele>178.0</ele><time>2026-05-02T12:32:41.44Z</time></trkpt><trkpt lat="44.0002183" lon="12.4707917"><ele>179.0</ele><time>2026-05-02T12:32:43.442Z</time></trkpt><trkpt lat="44.0002117" lon="12.470905"><ele>180.0</ele><time>2026-05-02T12:32:45.441Z</time></trkpt><trkpt lat="44.00022" lon="12.471025"><ele>181.0</ele><time>2026-05-02T12:32:47.44Z</time></trkpt><trkpt lat="44.0002333" lon="12.471135"><ele>181.0</ele><time>2026-05-02T12:32:49.442Z</time></trkpt><trkpt lat="44.0002467" lon="12.4712433"><ele>181.0</ele><time>2026-05-02T12:32:51.444Z</time></trkpt><trkpt lat="44.0002633" lon="12.47136"><ele>181.0</ele><time>2026-05-02T12:32:53.442Z</time></trkpt><trkpt lat="44.00028" lon="12.4714783"><ele>181.0</ele><time>2026-05-02T12:32:55.44Z</time></trkpt><trkpt lat="44.0003033" lon="12.4715933"><ele>181.0</ele><time>2026-05-02T12:32:57.441Z</time></trkpt><trkpt lat="44.0003283" lon="12.4717083"><ele>181.0</ele><time>2026-05-02T12:32:59.44Z</time></trkpt><trkpt lat="44.0003483" lon="12.4718283"><ele>180.83333333333334</ele><time>2026-05-02T12:33:01.441Z</time></trkpt><trkpt lat="44.000375" lon="12.4719483"><ele>180.66666666666669</ele><time>2026-05-02T12:33:03.44Z</time></trkpt><trkpt lat="44.0004083" lon="12.4720667"><ele>180.5</ele><time>2026-05-02T12:33:05.439Z</time></trkpt><trkpt lat="44.0004217" lon="12.4721783"><ele>180.33333333333334</ele><time>2026-05-02T12:33:07.44Z</time></trkpt><trkpt lat="44.00043" lon="12.4722883"><ele>180.16666666666666</ele><time>2026-05-02T12:33:09.441Z</time></trkpt><trkpt lat="44.0004267" lon="12.4724"><ele>180.0</ele><time>2026-05-02T12:33:11.44Z</time></trkpt><trkpt lat="44.0004117" lon="12.4725067"><ele>179.85714285714286</ele><time>2026-05-02T12:33:13.44Z</time></trkpt><trkpt lat="44.0003983" lon="12.47261"><ele>179.71428571428572</ele><time>2026-05-02T12:33:15.439Z</time></trkpt><trkpt lat="44.0003833" lon="12.4727117"><ele>179.57142857142858</ele><time>2026-05-02T12:33:17.44Z</time></trkpt><trkpt lat="44.0003683" lon="12.4728083"><ele>179.42857142857144</ele><time>2026-05-02T12:33:19.444Z</time></trkpt><trkpt lat="44.0003583" lon="12.4729033"><ele>179.28571428571428</ele><time>2026-05-02T12:33:21.442Z</time></trkpt><trkpt lat="44.0003517" lon="12.4729933"><ele>179.14285714285717</ele><time>2026-05-02T12:33:23.443Z</time></trkpt><trkpt lat="44.0003367" lon="12.4730817"><ele>179.0</ele><time>2026-05-02T12:33:25.441Z</time></trkpt><trkpt lat="44.0003233" lon="12.4731717"><ele>179.85714285714286</ele><time>2026-05-02T12:33:27.439Z</time></trkpt><trkpt lat="44.0003117" lon="12.4732617"><ele>180.71428571428572</ele><time>2026-05-02T12:33:29.44Z</time></trkpt><trkpt lat="44.0003017" lon="12.4733483"><ele>181.57142857142856</ele><time>2026-05-02T12:33:31.441Z</time></trkpt><trkpt lat="44.00029" lon="12.4734383"><ele>182.42857142857144</ele><time>2026-05-02T12:33:33.44Z</time></trkpt><trkpt lat="44.0002817" lon="12.47353"><ele>183.28571428571428</ele><time>2026-05-02T12:33:35.439Z</time></trkpt><trkpt lat="44.0002717" lon="12.473625"><ele>184.14285714285714</ele><time>2026-05-02T12:33:37.44Z</time></trkpt><trkpt lat="44.0002567" lon="12.4737217"><ele>185.0</ele><time>2026-05-02T12:33:39.44Z</time></trkpt><trkpt lat="44.0002483" lon="12.4738183"><ele>186.28571428571428</ele><time>2026-05-02T12:33:41.439Z</time></trkpt><trkpt lat="44.000245" lon="12.4739167"><ele>187.57142857142856</ele><time>2026-05-02T12:33:43.441Z</time></trkpt><trkpt lat="44.0002317" lon="12.4740133"><ele>188.85714285714283</ele><time>2026-05-02T12:33:45.441Z</time></trkpt><trkpt lat="44.0002167" lon="12.4741033"><ele>190.14285714285714</ele><time>2026-05-02T12:33:47.443Z</time></trkpt><trkpt lat="44.0002017" lon="12.4742033"><ele>191.42857142857144</ele><time>2026-05-02T12:33:49.439Z</time></trkpt><trkpt lat="44.0001983" lon="12.474295"><ele>192.7142857142857</ele><time>2026-05-02T12:33:51.439Z</time></trkpt><trkpt lat="44.00019" lon="12.47439"><ele>194.0</ele><time>2026-05-02T12:33:53.44Z</time></trkpt><trkpt lat="44.00018" lon="12.4744867"><ele>194.00000000000003</ele><time>2026-05-02T12:33:55.44Z</time></trkpt><trkpt lat="44.0001683" lon="12.47458"><ele>194.0</ele><time>2026-05-02T12:33:57.44Z</time></trkpt><trkpt lat="44.0001567" lon="12.47467"><ele>194.0</ele><time>2026-05-02T12:33:59.44Z</time></trkpt><trkpt lat="44.0001433" lon="12.4747567"><ele>194.0</ele><time>2026-05-02T12:34:01.441Z</time></trkpt><trkpt lat="44.0001367" lon="12.4748833"><ele>194.00000000000003</ele><time>2026-05-02T12:34:04.441Z</time></trkpt><trkpt lat="44.0001133" lon="12.4750017"><ele>194.0</ele><time>2026-05-02T12:34:07.44Z</time></trkpt><trkpt lat="44.0000867" lon="12.475105"><ele>193.85714285714286</ele><time>2026-05-02T12:34:10.44Z</time></trkpt><trkpt lat="44.000035" lon="12.475195"><ele>193.71428571428572</ele><time>2026-05-02T12:34:13.441Z</time></trkpt><trkpt lat="43.999995" lon="12.4752683"><ele>193.57142857142858</ele><time>2026-05-02T12:34:26.442Z</time></trkpt><trkpt lat="44.0000367" lon="12.4753533"><ele>193.42857142857144</ele><time>2026-05-02T12:34:30.44Z</time></trkpt><trkpt lat="44.000105" lon="12.4754217"><ele>193.28571428571428</ele><time>2026-05-02T12:34:33.442Z</time></trkpt><trkpt lat="44.0001533" lon="12.47548"><ele>193.14285714285717</ele><time>2026-05-02T12:34:35.44Z</time></trkpt><trkpt lat="44.0002017" lon="12.4755533"><ele>193.0</ele><time>2026-05-02T12:34:37.44Z</time></trkpt><trkpt lat="44.0002517" lon="12.4756367"><ele>193.0</ele><time>2026-05-02T12:34:39.442Z</time></trkpt><trkpt lat="44.0002983" lon="12.47573"><ele>193.0</ele><time>2026-05-02T12:34:41.443Z</time></trkpt><trkpt lat="44.00035" lon="12.4758283"><ele>193.0</ele><time>2026-05-02T12:34:43.441Z</time></trkpt><trkpt lat="44.000405" lon="12.4759333"><ele>193.0</ele><time>2026-05-02T12:34:45.441Z</time></trkpt><trkpt lat="44.0004583" lon="12.476045"><ele>193.0</ele><time>2026-05-02T12:34:47.441Z</time></trkpt><trkpt lat="44.0005033" lon="12.476165"><ele>191.0</ele><time>2026-05-02T12:34:49.441Z</time></trkpt><trkpt lat="44.0005533" lon="12.4762817"><ele>189.0</ele><time>2026-05-02T12:34:51.441Z</time></trkpt><trkpt lat="44.00059" lon="12.4764017"><ele>187.0</ele><time>2026-05-02T12:34:53.44Z</time></trkpt><trkpt lat="44.0006217" lon="12.4765233"><ele>185.0</ele><time>2026-05-02T12:34:55.441Z</time></trkpt><trkpt lat="44.0006567" lon="12.4766433"><ele>183.0</ele><time>2026-05-02T12:34:57.44Z</time></trkpt><trkpt lat="44.0006967" lon="12.476755"><ele>183.0</ele><time>2026-05-02T12:34:59.44Z</time></trkpt><trkpt lat="44.000735" lon="12.476865"><ele>183.0</ele><time>2026-05-02T12:35:01.44Z</time></trkpt><trkpt lat="44.00077" lon="12.476985"><ele>183.0</ele><time>2026-05-02T12:35:03.44Z</time></trkpt><trkpt lat="44.000795" lon="12.477105"><ele>183.0</ele><time>2026-05-02T12:35:05.44Z</time></trkpt><trkpt lat="44.0008283" lon="12.477235"><ele>183.0</ele><time>2026-05-02T12:35:07.439Z</time></trkpt><trkpt lat="44.0008733" lon="12.47739"><ele>183.33333333333334</ele><time>2026-05-02T12:35:09.441Z</time></trkpt><trkpt lat="44.0008933" lon="12.477475"><ele>183.66666666666666</ele><time>2026-05-02T12:35:10.44Z</time></trkpt><trkpt lat="44.0009267" lon="12.477645"><ele>184.0</ele><time>2026-05-02T12:35:12.441Z</time></trkpt><trkpt lat="44.0009517" lon="12.4777383"><ele>184.33333333333331</ele><time>2026-05-02T12:35:13.44Z</time></trkpt><trkpt lat="44.000975" lon="12.4778283"><ele>184.66666666666666</ele><time>2026-05-02T12:35:14.44Z</time></trkpt><trkpt lat="44.000995" lon="12.4779167"><ele>185.0</ele><time>2026-05-02T12:35:15.439Z</time></trkpt><trkpt lat="44.0010183" lon="12.4780067"><ele>185.0</ele><time>2026-05-02T12:35:16.438Z</time></trkpt><trkpt lat="44.0010433" lon="12.4781017"><ele>185.0</ele><time>2026-05-02T12:35:17.441Z</time></trkpt><trkpt lat="44.0010717" lon="12.4781883"><ele>185.0</ele><time>2026-05-02T12:35:18.44Z</time></trkpt><trkpt lat="44.0011183" lon="12.4783533"><ele>185.0</ele><time>2026-05-02T12:35:20.44Z</time></trkpt><trkpt lat="44.0011433" lon="12.478435"><ele>185.0</ele><time>2026-05-02T12:35:21.441Z</time></trkpt><trkpt lat="44.0011717" lon="12.478515"><ele>185.0</ele><time>2026-05-02T12:35:22.44Z</time></trkpt><trkpt lat="44.001205" lon="12.4785933"><ele>184.99999999999997</ele><time>2026-05-02T12:35:23.439Z</time></trkpt><trkpt lat="44.00124" lon="12.4786683"><ele>185.0</ele><time>2026-05-02T12:35:24.44Z</time></trkpt><trkpt lat="44.0012783" lon="12.4787433"><ele>185.0</ele><time>2026-05-02T12:35:25.439Z</time></trkpt><trkpt lat="44.00132" lon="12.47882"><ele>185.0</ele><time>2026-05-02T12:35:26.44Z</time></trkpt><trkpt lat="44.0013633" lon="12.4789033"><ele>185.0</ele><time>2026-05-02T12:35:27.441Z</time></trkpt><trkpt lat="44.0014117" lon="12.4789917"><ele>184.99999999999997</ele><time>2026-05-02T12:35:28.441Z</time></trkpt><trkpt lat="44.0014583" lon="12.4790817"><ele>185.0</ele><time>2026-05-02T12:35:29.44Z</time></trkpt><trkpt lat="44.0015083" lon="12.4791717"><ele>185.16666666666666</ele><time>2026-05-02T12:35:30.441Z</time></trkpt><trkpt lat="44.0015633" lon="12.4792633"><ele>185.33333333333331</ele><time>2026-05-02T12:35:31.441Z</time></trkpt><trkpt lat="44.0016167" lon="12.47936"><ele>185.5</ele><time>2026-05-02T12:35:32.441Z</time></trkpt><trkpt lat="44.0016683" lon="12.4794583"><ele>185.66666666666666</ele><time>2026-05-02T12:35:33.441Z</time></trkpt><trkpt lat="44.001715" lon="12.479565"><ele>185.83333333333334</ele><time>2026-05-02T12:35:34.44Z</time></trkpt><trkpt lat="44.0017583" lon="12.479675"><ele>186.0</ele><time>2026-05-02T12:35:35.441Z</time></trkpt><trkpt lat="44.0017933" lon="12.4797967"><ele>184.60000000000002</ele><time>2026-05-02T12:35:36.441Z</time></trkpt><trkpt lat="44.0018133" lon="12.4799333"><ele>183.2</ele><time>2026-05-02T12:35:37.439Z</time></trkpt><trkpt lat="44.00181" lon="12.480075"><ele>181.8</ele><time>2026-05-02T12:35:38.44Z</time></trkpt><trkpt lat="44.0017867" lon="12.4802183"><ele>180.39999999999998</ele><time>2026-05-02T12:35:39.44Z</time></trkpt><trkpt lat="44.00175" lon="12.4803583"><ele>179.0</ele><time>2026-05-02T12:35:40.441Z</time></trkpt><trkpt lat="44.0017183" lon="12.4804917"><ele>178.0</ele><time>2026-05-02T12:35:41.44Z</time></trkpt><trkpt lat="44.0016933" lon="12.4806117"><ele>177.0</ele><time>2026-05-02T12:35:42.44Z</time></trkpt><trkpt lat="44.0016883" lon="12.4807283"><ele>176.0</ele><time>2026-05-02T12:35:43.44Z</time></trkpt><trkpt lat="44.0017067" lon="12.4808333"><ele>175.0</ele><time>2026-05-02T12:35:44.441Z</time></trkpt><trkpt lat="44.001755" lon="12.4809067"><ele>174.0</ele><time>2026-05-02T12:35:45.441Z</time></trkpt><trkpt lat="44.001815" lon="12.4809517"><ele>173.0</ele><time>2026-05-02T12:35:46.442Z</time></trkpt><trkpt lat="44.0018767" lon="12.4809317"><ele>173.0</ele><time>2026-05-02T12:35:47.442Z</time></trkpt><trkpt lat="44.00194" lon="12.4808417"><ele>173.0</ele><time>2026-05-02T12:35:48.441Z</time></trkpt><trkpt lat="44.0020117" lon="12.4807083"><ele>173.0</ele><time>2026-05-02T12:35:49.44Z</time></trkpt><trkpt lat="44.002095" lon="12.48057"><ele>173.0</ele><time>2026-05-02T12:35:50.441Z</time></trkpt><trkpt lat="44.002165" lon="12.4804667"><ele>173.0</ele><time>2026-05-02T12:35:51.441Z</time></trkpt><trkpt lat="44.002235" lon="12.4803583"><ele>174.2</ele><time>2026-05-02T12:35:52.439Z</time></trkpt><trkpt lat="44.0023" lon="12.4802483"><ele>175.4</ele><time>2026-05-02T12:35:53.44Z</time></trkpt><trkpt lat="44.0023667" lon="12.48015"><ele>176.6</ele><time>2026-05-02T12:35:54.441Z</time></trkpt><trkpt lat="44.0024433" lon="12.4800567"><ele>177.79999999999998</ele><time>2026-05-02T12:35:55.441Z</time></trkpt><trkpt lat="44.00252" lon="12.4799867"><ele>179.0</ele><time>2026-05-02T12:35:56.44Z</time></trkpt><trkpt lat="44.00261" lon="12.4799683"><ele>176.0</ele><time>2026-05-02T12:35:57.441Z</time></trkpt><trkpt lat="44.00271" lon="12.48"><ele>173.0</ele><time>2026-05-02T12:35:58.44Z</time></trkpt><trkpt lat="44.0027733" lon="12.4800783"><ele>170.0</ele><time>2026-05-02T12:35:59.44Z</time></trkpt><trkpt lat="44.0027867" lon="12.4802183"><ele>167.0</ele><time>2026-05-02T12:36:00.441Z</time></trkpt><trkpt lat="44.0028017" lon="12.4803633"><ele>164.0</ele><time>2026-05-02T12:36:01.441Z</time></trkpt><trkpt lat="44.0028233" lon="12.480515"><ele>163.5</ele><time>2026-05-02T12:36:02.439Z</time></trkpt><trkpt lat="44.00287" lon="12.4806667"><ele>163.0</ele><time>2026-05-02T12:36:03.441Z</time></trkpt><trkpt lat="44.002935" lon="12.4808033"><ele>162.5</ele><time>2026-05-02T12:36:04.442Z</time></trkpt><trkpt lat="44.0030183" lon="12.4809117"><ele>162.0</ele><time>2026-05-02T12:36:05.442Z</time></trkpt><trkpt lat="44.003105" lon="12.481005"><ele>162.0</ele><time>2026-05-02T12:36:06.442Z</time></trkpt><trkpt lat="44.003195" lon="12.4810883"><ele>162.0</ele><time>2026-05-02T12:36:07.442Z</time></trkpt><trkpt lat="44.00329" lon="12.48117"><ele>162.0</ele><time>2026-05-02T12:36:08.439Z</time></trkpt><trkpt lat="44.0033817" lon="12.4812517"><ele>162.0</ele><time>2026-05-02T12:36:09.439Z</time></trkpt><trkpt lat="44.0034767" lon="12.4813283"><ele>162.0</ele><time>2026-05-02T12:36:10.438Z</time></trkpt><trkpt lat="44.0035733" lon="12.4814"><ele>160.0</ele><time>2026-05-02T12:36:11.439Z</time></trkpt><trkpt lat="44.0036717" lon="12.4814717"><ele>158.0</ele><time>2026-05-02T12:36:12.439Z</time></trkpt><trkpt lat="44.003765" lon="12.481545"><ele>156.0</ele><time>2026-05-02T12:36:13.439Z</time></trkpt><trkpt lat="44.0038533" lon="12.48162"><ele>154.0</ele><time>2026-05-02T12:36:14.44Z</time></trkpt><trkpt lat="44.0039333" lon="12.4817017"><ele>152.0</ele><time>2026-05-02T12:36:15.44Z</time></trkpt><trkpt lat="44.0040067" lon="12.4817883"><ele>152.0</ele><time>2026-05-02T12:36:16.441Z</time></trkpt><trkpt lat="44.0040783" lon="12.4818817"><ele>152.0</ele><time>2026-05-02T12:36:17.44Z</time></trkpt><trkpt lat="44.0041433" lon="12.4819767"><ele>152.0</ele><time>2026-05-02T12:36:18.441Z</time></trkpt><trkpt lat="44.0042067" lon="12.48207"><ele>152.0</ele><time>2026-05-02T12:36:19.44Z</time></trkpt><trkpt lat="44.0042717" lon="12.482165"><ele>152.0</ele><time>2026-05-02T12:36:20.441Z</time></trkpt><trkpt lat="44.0043367" lon="12.4822617"><ele>150.6</ele><time>2026-05-02T12:36:21.44Z</time></trkpt><trkpt lat="44.0044017" lon="12.4823533"><ele>149.2</ele><time>2026-05-02T12:36:22.441Z</time></trkpt><trkpt lat="44.004465" lon="12.48245"><ele>147.8</ele><time>2026-05-02T12:36:23.44Z</time></trkpt><trkpt lat="44.0045283" lon="12.4825467"><ele>146.4</ele><time>2026-05-02T12:36:24.441Z</time></trkpt><trkpt lat="44.0045883" lon="12.482645"><ele>145.0</ele><time>2026-05-02T12:36:25.44Z</time></trkpt><trkpt lat="44.00465" lon="12.4827417"><ele>145.0</ele><time>2026-05-02T12:36:26.44Z</time></trkpt><trkpt lat="44.0047133" lon="12.4828383"><ele>145.0</ele><time>2026-05-02T12:36:27.441Z</time></trkpt><trkpt lat="44.004775" lon="12.4829317"><ele>145.0</ele><time>2026-05-02T12:36:28.442Z</time></trkpt><trkpt lat="44.004835" lon="12.4830283"><ele>145.0</ele><time>2026-05-02T12:36:29.441Z</time></trkpt><trkpt lat="44.0048967" lon="12.483125"><ele>145.0</ele><time>2026-05-02T12:36:30.441Z</time></trkpt><trkpt lat="44.00496" lon="12.4832217"><ele>144.4</ele><time>2026-05-02T12:36:31.441Z</time></trkpt><trkpt lat="44.0050233" lon="12.483315"><ele>143.8</ele><time>2026-05-02T12:36:32.441Z</time></trkpt><trkpt lat="44.0050917" lon="12.4834117"><ele>143.2</ele><time>2026-05-02T12:36:33.441Z</time></trkpt><trkpt lat="44.0051533" lon="12.4835067"><ele>142.6</ele><time>2026-05-02T12:36:34.441Z</time></trkpt><trkpt lat="44.005215" lon="12.4835983"><ele>142.0</ele><time>2026-05-02T12:36:35.441Z</time></trkpt><trkpt lat="44.0052683" lon="12.483685"><ele>141.0</ele><time>2026-05-02T12:36:36.441Z</time></trkpt><trkpt lat="44.0053133" lon="12.4837717"><ele>140.0</ele><time>2026-05-02T12:36:37.441Z</time></trkpt><trkpt lat="44.00534" lon="12.4838567"><ele>139.0</ele><time>2026-05-02T12:36:38.44Z</time></trkpt><trkpt lat="44.00537" lon="12.4840217"><ele>138.0</ele><time>2026-05-02T12:36:40.441Z</time></trkpt><trkpt lat="44.00539" lon="12.4841817"><ele>137.0</ele><time>2026-05-02T12:36:42.441Z</time></trkpt><trkpt lat="44.0054033" lon="12.4843417"><ele>137.0</ele><time>2026-05-02T12:36:44.441Z</time></trkpt><trkpt lat="44.0054167" lon="12.4845"><ele>137.0</ele><time>2026-05-02T12:36:46.442Z</time></trkpt><trkpt lat="44.0054433" lon="12.4846683"><ele>137.0</ele><time>2026-05-02T12:36:48.441Z</time></trkpt><trkpt lat="44.005455" lon="12.484755"><ele>137.0</ele><time>2026-05-02T12:36:49.441Z</time></trkpt><trkpt lat="44.005465" lon="12.484845"><ele>137.0</ele><time>2026-05-02T12:36:50.44Z</time></trkpt><trkpt lat="44.0054767" lon="12.4849367"><ele>137.0</ele><time>2026-05-02T12:36:51.441Z</time></trkpt><trkpt lat="44.0054867" lon="12.4850283"><ele>136.16666666666666</ele><time>2026-05-02T12:36:52.439Z</time></trkpt><trkpt lat="44.0054917" lon="12.4851183"><ele>135.33333333333331</ele><time>2026-05-02T12:36:53.44Z</time></trkpt><trkpt lat="44.005495" lon="12.4852067"><ele>134.5</ele><time>2026-05-02T12:36:54.441Z</time></trkpt><trkpt lat="44.0055" lon="12.4852983"><ele>133.66666666666666</ele><time>2026-05-02T12:36:55.44Z</time></trkpt><trkpt lat="44.0055017" lon="12.4854567"><ele>132.83333333333334</ele><time>2026-05-02T12:36:57.442Z</time></trkpt><trkpt lat="44.0055" lon="12.4855967"><ele>132.0</ele><time>2026-05-02T12:36:59.44Z</time></trkpt><trkpt lat="44.0054883" lon="12.485725"><ele>132.0</ele><time>2026-05-02T12:37:01.44Z</time></trkpt><trkpt lat="44.00546" lon="12.48587"><ele>132.0</ele><time>2026-05-02T12:37:03.441Z</time></trkpt><trkpt lat="44.0054183" lon="12.4860033"><ele>132.0</ele><time>2026-05-02T12:37:05.439Z</time></trkpt><trkpt lat="44.0053883" lon="12.4861433"><ele>132.0</ele><time>2026-05-02T12:37:07.442Z</time></trkpt><trkpt lat="44.0053567" lon="12.4862833"><ele>132.0</ele><time>2026-05-02T12:37:09.442Z</time></trkpt><trkpt lat="44.0053133" lon="12.4864217"><ele>133.25</ele><time>2026-05-02T12:37:11.44Z</time></trkpt><trkpt lat="44.005275" lon="12.486565"><ele>134.5</ele><time>2026-05-02T12:37:13.44Z</time></trkpt><trkpt lat="44.0052333" lon="12.4867117"><ele>135.75</ele><time>2026-05-02T12:37:15.44Z</time></trkpt><trkpt lat="44.0051983" lon="12.48687"><ele>137.0</ele><time>2026-05-02T12:37:17.442Z</time></trkpt><trkpt lat="44.00516" lon="12.4870317"><ele>136.5</ele><time>2026-05-02T12:37:19.441Z</time></trkpt><trkpt lat="44.0051217" lon="12.4871967"><ele>136.0</ele><time>2026-05-02T12:37:21.442Z</time></trkpt><trkpt lat="44.0050983" lon="12.48728"><ele>135.5</ele><time>2026-05-02T12:37:22.44Z</time></trkpt><trkpt lat="44.0050683" lon="12.4873633"><ele>135.0</ele><time>2026-05-02T12:37:23.44Z</time></trkpt><trkpt lat="44.005035" lon="12.4874483"><ele>134.5</ele><time>2026-05-02T12:37:24.44Z</time></trkpt><trkpt lat="44.0050017" lon="12.4875333"><ele>134.0</ele><time>2026-05-02T12:37:25.439Z</time></trkpt><trkpt lat="44.0049633" lon="12.4876167"><ele>133.0</ele><time>2026-05-02T12:37:26.44Z</time></trkpt><trkpt lat="44.00492" lon="12.4876967"><ele>132.0</ele><time>2026-05-02T12:37:27.44Z</time></trkpt><trkpt lat="44.0048683" lon="12.4877733"><ele>131.0</ele><time>2026-05-02T12:37:28.441Z</time></trkpt><trkpt lat="44.0048183" lon="12.4878517"><ele>130.0</ele><time>2026-05-02T12:37:29.441Z</time></trkpt><trkpt lat="44.00477" lon="12.4879317"><ele>129.0</ele><time>2026-05-02T12:37:30.44Z</time></trkpt><trkpt lat="44.0047183" lon="12.4880067"><ele>128.0</ele><time>2026-05-02T12:37:31.44Z</time></trkpt><trkpt lat="44.0046633" lon="12.4880817"><ele>127.99999999999999</ele><time>2026-05-02T12:37:32.44Z</time></trkpt><trkpt lat="44.0046117" lon="12.4881617"><ele>128.0</ele><time>2026-05-02T12:37:33.442Z</time></trkpt><trkpt lat="44.004555" lon="12.4882433"><ele>128.0</ele><time>2026-05-02T12:37:34.44Z</time></trkpt><trkpt lat="44.0045017" lon="12.4883283"><ele>128.0</ele><time>2026-05-02T12:37:35.441Z</time></trkpt><trkpt lat="44.0044467" lon="12.4884133"><ele>127.99999999999999</ele><time>2026-05-02T12:37:36.441Z</time></trkpt><trkpt lat="44.0043867" lon="12.4884967"><ele>128.0</ele><time>2026-05-02T12:37:37.44Z</time></trkpt><trkpt lat="44.0043317" lon="12.488585"><ele>127.99999999999999</ele><time>2026-05-02T12:37:38.441Z</time></trkpt><trkpt lat="44.004275" lon="12.4886667"><ele>128.0</ele><time>2026-05-02T12:37:39.442Z</time></trkpt><trkpt lat="44.00422" lon="12.4887483"><ele>128.0</ele><time>2026-05-02T12:37:40.44Z</time></trkpt><trkpt lat="44.0041733" lon="12.48883"><ele>128.0</ele><time>2026-05-02T12:37:41.44Z</time></trkpt><trkpt lat="44.0041183" lon="12.48891"><ele>127.99999999999999</ele><time>2026-05-02T12:37:42.441Z</time></trkpt><trkpt lat="44.004065" lon="12.48899"><ele>128.0</ele><time>2026-05-02T12:37:43.439Z</time></trkpt><trkpt lat="44.0040083" lon="12.489065"><ele>127.57142857142857</ele><time>2026-05-02T12:37:44.44Z</time></trkpt><trkpt lat="44.003955" lon="12.48914"><ele>127.14285714285714</ele><time>2026-05-02T12:37:45.44Z</time></trkpt><trkpt lat="44.0039017" lon="12.489215"><ele>126.71428571428571</ele><time>2026-05-02T12:37:46.443Z</time></trkpt><trkpt lat="44.0038517" lon="12.4892917"><ele>126.28571428571428</ele><time>2026-05-02T12:37:47.442Z</time></trkpt><trkpt lat="44.0038033" lon="12.4893667"><ele>125.85714285714286</ele><time>2026-05-02T12:37:48.441Z</time></trkpt><trkpt lat="44.003755" lon="12.489435"><ele>125.42857142857142</ele><time>2026-05-02T12:37:49.441Z</time></trkpt><trkpt lat="44.003715" lon="12.4895067"><ele>125.0</ele><time>2026-05-02T12:37:50.441Z</time></trkpt><trkpt lat="44.0036733" lon="12.4895767"><ele>125.5</ele><time>2026-05-02T12:37:51.441Z</time></trkpt><trkpt lat="44.00359" lon="12.4897067"><ele>126.0</ele><time>2026-05-02T12:37:53.44Z</time></trkpt><trkpt lat="44.0035117" lon="12.48983"><ele>126.5</ele><time>2026-05-02T12:37:55.44Z</time></trkpt><trkpt lat="44.0034317" lon="12.48995"><ele>127.0</ele><time>2026-05-02T12:37:57.44Z</time></trkpt><trkpt lat="44.003355" lon="12.4900733"><ele>126.75</ele><time>2026-05-02T12:37:59.44Z</time></trkpt><trkpt lat="44.0032733" lon="12.4902017"><ele>126.5</ele><time>2026-05-02T12:38:01.439Z</time></trkpt><trkpt lat="44.0031883" lon="12.490325"><ele>126.25</ele><time>2026-05-02T12:38:03.44Z</time></trkpt><trkpt lat="44.003105" lon="12.490445"><ele>126.0</ele><time>2026-05-02T12:38:05.441Z</time></trkpt><trkpt lat="44.0030233" lon="12.490565"><ele>126.0</ele><time>2026-05-02T12:38:07.44Z</time></trkpt><trkpt lat="44.0029433" lon="12.4906817"><ele>126.0</ele><time>2026-05-02T12:38:09.446Z</time></trkpt><trkpt lat="44.0028667" lon="12.4907817"><ele>126.0</ele><time>2026-05-02T12:38:11.439Z</time></trkpt><trkpt lat="44.0027917" lon="12.4908717"><ele>126.0</ele><time>2026-05-02T12:38:13.44Z</time></trkpt><trkpt lat="44.0027467" lon="12.49097"><ele>126.0</ele><time>2026-05-02T12:38:15.441Z</time></trkpt><trkpt lat="44.0027867" lon="12.4910517"><ele>126.0</ele><time>2026-05-02T12:38:17.443Z</time></trkpt><trkpt lat="44.0028283" lon="12.4911233"><ele>126.0</ele><time>2026-05-02T12:38:19.44Z</time></trkpt><trkpt lat="44.0028433" lon="12.491215"><ele>126.0</ele><time>2026-05-02T12:38:22.44Z</time></trkpt><trkpt lat="44.0028833" lon="12.49133"><ele>126.0</ele><time>2026-05-02T12:38:25.441Z</time></trkpt><trkpt lat="44.0029083" lon="12.4914267"><ele>126.0</ele><time>2026-05-02T12:38:27.44Z</time></trkpt><trkpt lat="44.0029283" lon="12.4915217"><ele>126.0</ele><time>2026-05-02T12:38:29.439Z</time></trkpt><trkpt lat="44.0029533" lon="12.4916167"><ele>126.0</ele><time>2026-05-02T12:38:31.441Z</time></trkpt><trkpt lat="44.0029783" lon="12.4917267"><ele>126.19999999999999</ele><time>2026-05-02T12:38:33.439Z</time></trkpt><trkpt lat="44.0030133" lon="12.4918567"><ele>126.39999999999999</ele><time>2026-05-02T12:38:35.439Z</time></trkpt><trkpt lat="44.0030517" lon="12.4920017"><ele>126.6</ele><time>2026-05-02T12:38:37.44Z</time></trkpt><trkpt lat="44.0030883" lon="12.492155"><ele>126.8</ele><time>2026-05-02T12:38:39.44Z</time></trkpt><trkpt lat="44.0031317" lon="12.4923083"><ele>127.0</ele><time>2026-05-02T12:38:41.442Z</time></trkpt><trkpt lat="44.0031717" lon="12.4924633"><ele>127.6</ele><time>2026-05-02T12:38:43.443Z</time></trkpt><trkpt lat="44.0032133" lon="12.4926183"><ele>128.2</ele><time>2026-05-02T12:38:45.44Z</time></trkpt><trkpt lat="44.0032383" lon="12.4927633"><ele>128.8</ele><time>2026-05-02T12:38:47.44Z</time></trkpt><trkpt lat="44.0032733" lon="12.4928967"><ele>129.4</ele><time>2026-05-02T12:38:49.444Z</time></trkpt><trkpt lat="44.0033183" lon="12.4930267"><ele>130.0</ele><time>2026-05-02T12:38:51.442Z</time></trkpt><trkpt lat="44.0033717" lon="12.49317"><ele>128.5</ele><time>2026-05-02T12:38:53.441Z</time></trkpt><trkpt lat="44.0034167" lon="12.4933283"><ele>127.0</ele><time>2026-05-02T12:38:55.439Z</time></trkpt><trkpt lat="44.00344" lon="12.4934933"><ele>125.5</ele><time>2026-05-02T12:38:57.44Z</time></trkpt><trkpt lat="44.0034517" lon="12.4935883"><ele>124.0</ele><time>2026-05-02T12:38:58.441Z</time></trkpt><trkpt lat="44.0034583" lon="12.4936817"><ele>122.50000000000001</ele><time>2026-05-02T12:38:59.44Z</time></trkpt><trkpt lat="44.0034617" lon="12.4937733"><ele>121.0</ele><time>2026-05-02T12:39:00.439Z</time></trkpt><trkpt lat="44.0034533" lon="12.493865"><ele>120.71428571428571</ele><time>2026-05-02T12:39:01.44Z</time></trkpt><trkpt lat="44.0034533" lon="12.4939583"><ele>120.42857142857142</ele><time>2026-05-02T12:39:02.44Z</time></trkpt><trkpt lat="44.0034533" lon="12.494055"><ele>120.14285714285714</ele><time>2026-05-02T12:39:03.441Z</time></trkpt><trkpt lat="44.00346" lon="12.4941517"><ele>119.85714285714286</ele><time>2026-05-02T12:39:04.44Z</time></trkpt><trkpt lat="44.0034683" lon="12.4942533"><ele>119.57142857142857</ele><time>2026-05-02T12:39:05.439Z</time></trkpt><trkpt lat="44.0034767" lon="12.4943583"><ele>119.28571428571428</ele><time>2026-05-02T12:39:06.44Z</time></trkpt><trkpt lat="44.0034883" lon="12.4944667"><ele>119.0</ele><time>2026-05-02T12:39:07.44Z</time></trkpt><trkpt lat="44.0035033" lon="12.4945667"><ele>118.49999999999999</ele><time>2026-05-02T12:39:08.441Z</time></trkpt><trkpt lat="44.0035267" lon="12.49467"><ele>118.0</ele><time>2026-05-02T12:39:09.441Z</time></trkpt><trkpt lat="44.003555" lon="12.494775"><ele>117.5</ele><time>2026-05-02T12:39:10.44Z</time></trkpt><trkpt lat="44.00358" lon="12.49488"><ele>117.0</ele><time>2026-05-02T12:39:11.44Z</time></trkpt><trkpt lat="44.0035933" lon="12.494985"><ele>116.49999999999999</ele><time>2026-05-02T12:39:12.44Z</time></trkpt><trkpt lat="44.0036067" lon="12.4950883"><ele>116.0</ele><time>2026-05-02T12:39:13.44Z</time></trkpt><trkpt lat="44.0036083" lon="12.4951933"><ele>115.99999999999999</ele><time>2026-05-02T12:39:14.44Z</time></trkpt><trkpt lat="44.0036033" lon="12.4953"><ele>116.0</ele><time>2026-05-02T12:39:15.441Z</time></trkpt><trkpt lat="44.003595" lon="12.4954"><ele>116.0</ele><time>2026-05-02T12:39:16.443Z</time></trkpt><trkpt lat="44.0035783" lon="12.4955533"><ele>116.0</ele><time>2026-05-02T12:39:18.442Z</time></trkpt><trkpt lat="44.0035883" lon="12.495645"><ele>115.99999999999999</ele><time>2026-05-02T12:39:20.441Z</time></trkpt><trkpt lat="44.0036" lon="12.4957483"><ele>116.0</ele><time>2026-05-02T12:39:22.441Z</time></trkpt><trkpt lat="44.003615" lon="12.4958883"><ele>114.19999999999999</ele><time>2026-05-02T12:39:24.441Z</time></trkpt><trkpt lat="44.0036383" lon="12.4960233"><ele>112.39999999999999</ele><time>2026-05-02T12:39:26.442Z</time></trkpt><trkpt lat="44.00365" lon="12.4961283"><ele>110.6</ele><time>2026-05-02T12:39:28.442Z</time></trkpt><trkpt lat="44.0036767" lon="12.4962433"><ele>108.8</ele><time>2026-05-02T12:39:30.441Z</time></trkpt><trkpt lat="44.0037133" lon="12.4963733"><ele>107.0</ele><time>2026-05-02T12:39:32.442Z</time></trkpt><trkpt lat="44.0037533" lon="12.4965167"><ele>105.0</ele><time>2026-05-02T12:39:34.44Z</time></trkpt><trkpt lat="44.0038" lon="12.4966617"><ele>102.99999999999999</ele><time>2026-05-02T12:39:36.442Z</time></trkpt><trkpt lat="44.0038583" lon="12.4968083"><ele>101.0</ele><time>2026-05-02T12:39:38.442Z</time></trkpt><trkpt lat="44.0039183" lon="12.4969483"><ele>99.0</ele><time>2026-05-02T12:39:40.442Z</time></trkpt><trkpt lat="44.00397" lon="12.49706"><ele>97.0</ele><time>2026-05-02T12:39:42.442Z</time></trkpt><trkpt lat="44.0040117" lon="12.4971417"><ele>96.50000000000001</ele><time>2026-05-02T12:39:44.442Z</time></trkpt><trkpt lat="44.0040567" lon="12.497215"><ele>96.0</ele><time>2026-05-02T12:39:46.441Z</time></trkpt><trkpt lat="44.004125" lon="12.4972883"><ele>95.5</ele><time>2026-05-02T12:39:48.442Z</time></trkpt><trkpt lat="44.0042167" lon="12.4973367"><ele>95.0</ele><time>2026-05-02T12:39:50.44Z</time></trkpt><trkpt lat="44.00433" lon="12.4973967"><ele>94.5</ele><time>2026-05-02T12:39:52.44Z</time></trkpt><trkpt lat="44.0043917" lon="12.4974417"><ele>94.0</ele><time>2026-05-02T12:39:53.44Z</time></trkpt><trkpt lat="44.004445" lon="12.4974967"><ele>94.0</ele><time>2026-05-02T12:39:54.44Z</time></trkpt><trkpt lat="44.0044917" lon="12.497565"><ele>94.0</ele><time>2026-05-02T12:39:55.44Z</time></trkpt><trkpt lat="44.004535" lon="12.4976417"><ele>94.0</ele><time>2026-05-02T12:39:56.441Z</time></trkpt><trkpt lat="44.0045717" lon="12.4977283"><ele>94.0</ele><time>2026-05-02T12:39:57.441Z</time></trkpt><trkpt lat="44.0046" lon="12.497815"><ele>94.0</ele><time>2026-05-02T12:39:58.439Z</time></trkpt><trkpt lat="44.004645" lon="12.4979783"><ele>94.0</ele><time>2026-05-02T12:40:00.44Z</time></trkpt><trkpt lat="44.00469" lon="12.4981383"><ele>92.25</ele><time>2026-05-02T12:40:02.44Z</time></trkpt><trkpt lat="44.004735" lon="12.49829"><ele>90.5</ele><time>2026-05-02T12:40:04.44Z</time></trkpt><trkpt lat="44.004785" lon="12.49845"><ele>88.75</ele><time>2026-05-02T12:40:06.441Z</time></trkpt><trkpt lat="44.004835" lon="12.498605"><ele>87.0</ele><time>2026-05-02T12:40:08.44Z</time></trkpt><trkpt lat="44.004875" lon="12.49876"><ele>86.6</ele><time>2026-05-02T12:40:10.44Z</time></trkpt><trkpt lat="44.0049117" lon="12.4989067"><ele>86.19999999999999</ele><time>2026-05-02T12:40:12.44Z</time></trkpt><trkpt lat="44.004945" lon="12.499035"><ele>85.8</ele><time>2026-05-02T12:40:14.441Z</time></trkpt><trkpt lat="44.0049817" lon="12.4991683"><ele>85.4</ele><time>2026-05-02T12:40:16.44Z</time></trkpt><trkpt lat="44.0050217" lon="12.4993083"><ele>85.0</ele><time>2026-05-02T12:40:18.441Z</time></trkpt><trkpt lat="44.0050633" lon="12.499455"><ele>84.0</ele><time>2026-05-02T12:40:20.441Z</time></trkpt><trkpt lat="44.00511" lon="12.49961"><ele>83.0</ele><time>2026-05-02T12:40:22.44Z</time></trkpt><trkpt lat="44.0051567" lon="12.49976"><ele>82.0</ele><time>2026-05-02T12:40:24.441Z</time></trkpt><trkpt lat="44.0052033" lon="12.4999067"><ele>81.0</ele><time>2026-05-02T12:40:26.441Z</time></trkpt><trkpt lat="44.005245" lon="12.50005"><ele>81.0</ele><time>2026-05-02T12:40:28.44Z</time></trkpt><trkpt lat="44.00529" lon="12.5002"><ele>81.0</ele><time>2026-05-02T12:40:30.44Z</time></trkpt><trkpt lat="44.0053367" lon="12.5003433"><ele>81.0</ele><time>2026-05-02T12:40:32.44Z</time></trkpt><trkpt lat="44.0054033" lon="12.50048"><ele>81.0</ele><time>2026-05-02T12:40:34.439Z</time></trkpt><trkpt lat="44.0054633" lon="12.500625"><ele>79.8</ele><time>2026-05-02T12:40:36.439Z</time></trkpt><trkpt lat="44.0055167" lon="12.5007717"><ele>78.6</ele><time>2026-05-02T12:40:38.44Z</time></trkpt><trkpt lat="44.0055783" lon="12.50091"><ele>77.4</ele><time>2026-05-02T12:40:40.442Z</time></trkpt><trkpt lat="44.0056317" lon="12.5010333"><ele>76.2</ele><time>2026-05-02T12:40:42.439Z</time></trkpt><trkpt lat="44.0056567" lon="12.5011183"><ele>75.0</ele><time>2026-05-02T12:40:45.44Z</time></trkpt><trkpt lat="44.00566" lon="12.5012083"><ele>74.83333333333333</ele><time>2026-05-02T12:40:48.44Z</time></trkpt><trkpt lat="44.0056917" lon="12.5013017"><ele>74.66666666666667</ele><time>2026-05-02T12:40:51.441Z</time></trkpt><trkpt lat="44.0057183" lon="12.501395"><ele>74.5</ele><time>2026-05-02T12:40:53.439Z</time></trkpt><trkpt lat="44.0057583" lon="12.501515"><ele>74.33333333333334</ele><time>2026-05-02T12:40:55.44Z</time></trkpt><trkpt lat="44.0057983" lon="12.501665"><ele>74.16666666666667</ele><time>2026-05-02T12:40:57.441Z</time></trkpt><trkpt lat="44.0058167" lon="12.5017533"><ele>74.0</ele><time>2026-05-02T12:40:58.439Z</time></trkpt><trkpt lat="44.0058367" lon="12.5018433"><ele>74.0</ele><time>2026-05-02T12:40:59.44Z</time></trkpt><trkpt lat="44.0058667" lon="12.5019333"><ele>74.0</ele><time>2026-05-02T12:41:00.44Z</time></trkpt><trkpt lat="44.0058967" lon="12.50203"><ele>74.0</ele><time>2026-05-02T12:41:01.443Z</time></trkpt><trkpt lat="44.0059233" lon="12.5021317"><ele>74.0</ele><time>2026-05-02T12:41:02.441Z</time></trkpt><trkpt lat="44.0059517" lon="12.5022367"><ele>74.0</ele><time>2026-05-02T12:41:03.44Z</time></trkpt><trkpt lat="44.0059783" lon="12.502345"><ele>74.0</ele><time>2026-05-02T12:41:04.439Z</time></trkpt><trkpt lat="44.0060133" lon="12.5024567"><ele>73.5</ele><time>2026-05-02T12:41:05.44Z</time></trkpt><trkpt lat="44.006045" lon="12.5025683"><ele>73.0</ele><time>2026-05-02T12:41:06.44Z</time></trkpt><trkpt lat="44.006075" lon="12.50268"><ele>72.5</ele><time>2026-05-02T12:41:07.44Z</time></trkpt><trkpt lat="44.006105" lon="12.5027933"><ele>72.0</ele><time>2026-05-02T12:41:08.44Z</time></trkpt><trkpt lat="44.0061317" lon="12.502905"><ele>71.5</ele><time>2026-05-02T12:41:09.44Z</time></trkpt><trkpt lat="44.0061567" lon="12.5030183"><ele>71.0</ele><time>2026-05-02T12:41:10.44Z</time></trkpt><trkpt lat="44.0061783" lon="12.5031283"><ele>70.16666666666667</ele><time>2026-05-02T12:41:11.44Z</time></trkpt><trkpt lat="44.0062" lon="12.5032383"><ele>69.33333333333334</ele><time>2026-05-02T12:41:12.442Z</time></trkpt><trkpt lat="44.00622" lon="12.5033467"><ele>68.5</ele><time>2026-05-02T12:41:13.439Z</time></trkpt><trkpt lat="44.0062433" lon="12.5034567"><ele>67.66666666666667</ele><time>2026-05-02T12:41:14.439Z</time></trkpt><trkpt lat="44.006265" lon="12.5035583"><ele>66.83333333333333</ele><time>2026-05-02T12:41:15.44Z</time></trkpt><trkpt lat="44.0062833" lon="12.5036667"><ele>66.0</ele><time>2026-05-02T12:41:16.438Z</time></trkpt><trkpt lat="44.0063" lon="12.50377"><ele>65.33333333333333</ele><time>2026-05-02T12:41:17.439Z</time></trkpt><trkpt lat="44.006315" lon="12.5038717"><ele>64.66666666666667</ele><time>2026-05-02T12:41:18.439Z</time></trkpt><trkpt lat="44.00633" lon="12.5039733"><ele>64.0</ele><time>2026-05-02T12:41:19.439Z</time></trkpt><trkpt lat="44.006345" lon="12.5040783"><ele>63.333333333333336</ele><time>2026-05-02T12:41:20.439Z</time></trkpt><trkpt lat="44.0063617" lon="12.504185"><ele>62.66666666666667</ele><time>2026-05-02T12:41:21.44Z</time></trkpt><trkpt lat="44.0063783" lon="12.50429"><ele>62.0</ele><time>2026-05-02T12:41:22.439Z</time></trkpt><trkpt lat="44.00639" lon="12.5043983"><ele>62.00000000000001</ele><time>2026-05-02T12:41:23.439Z</time></trkpt><trkpt lat="44.0064" lon="12.5045083"><ele>62.0</ele><time>2026-05-02T12:41:24.439Z</time></trkpt><trkpt lat="44.0064117" lon="12.5046167"><ele>62.0</ele><time>2026-05-02T12:41:25.438Z</time></trkpt><trkpt lat="44.0064233" lon="12.504725"><ele>62.0</ele><time>2026-05-02T12:41:26.439Z</time></trkpt><trkpt lat="44.0064333" lon="12.504825"><ele>62.00000000000001</ele><time>2026-05-02T12:41:27.439Z</time></trkpt><trkpt lat="44.0064433" lon="12.504925"><ele>62.0</ele><time>2026-05-02T12:41:28.439Z</time></trkpt><trkpt lat="44.0064567" lon="12.505025"><ele>61.0</ele><time>2026-05-02T12:41:29.439Z</time></trkpt><trkpt lat="44.0064717" lon="12.50512"><ele>60.00000000000001</ele><time>2026-05-02T12:41:30.439Z</time></trkpt><trkpt lat="44.0064883" lon="12.505215"><ele>59.0</ele><time>2026-05-02T12:41:31.439Z</time></trkpt><trkpt lat="44.0065" lon="12.5053083"><ele>58.0</ele><time>2026-05-02T12:41:32.442Z</time></trkpt><trkpt lat="44.0065083" lon="12.5054017"><ele>57.0</ele><time>2026-05-02T12:41:33.44Z</time></trkpt><trkpt lat="44.0065167" lon="12.50549"><ele>56.0</ele><time>2026-05-02T12:41:34.44Z</time></trkpt><trkpt lat="44.0065283" lon="12.5055817"><ele>55.0</ele><time>2026-05-02T12:41:35.439Z</time></trkpt><trkpt lat="44.0065483" lon="12.5057567"><ele>54.71428571428571</ele><time>2026-05-02T12:41:37.442Z</time></trkpt><trkpt lat="44.0065567" lon="12.5058483"><ele>54.42857142857143</ele><time>2026-05-02T12:41:38.439Z</time></trkpt><trkpt lat="44.0065633" lon="12.5059417"><ele>54.14285714285714</ele><time>2026-05-02T12:41:39.439Z</time></trkpt><trkpt lat="44.00657" lon="12.5060333"><ele>53.857142857142854</ele><time>2026-05-02T12:41:40.439Z</time></trkpt><trkpt lat="44.00658" lon="12.5061217"><ele>53.57142857142857</ele><time>2026-05-02T12:41:41.44Z</time></trkpt><trkpt lat="44.0065883" lon="12.5062117"><ele>53.285714285714285</ele><time>2026-05-02T12:41:42.44Z</time></trkpt><trkpt lat="44.0066" lon="12.5063"><ele>53.0</ele><time>2026-05-02T12:41:43.439Z</time></trkpt><trkpt lat="44.0066267" lon="12.5064683"><ele>52.2</ele><time>2026-05-02T12:41:45.44Z</time></trkpt><trkpt lat="44.0066367" lon="12.506555"><ele>51.4</ele><time>2026-05-02T12:41:46.443Z</time></trkpt><trkpt lat="44.0066567" lon="12.506715"><ele>50.6</ele><time>2026-05-02T12:41:48.44Z</time></trkpt><trkpt lat="44.0066617" lon="12.5068783"><ele>49.800000000000004</ele><time>2026-05-02T12:41:50.439Z</time></trkpt><trkpt lat="44.00666" lon="12.5070417"><ele>49.0</ele><time>2026-05-02T12:41:52.439Z</time></trkpt><trkpt lat="44.0066417" lon="12.5072133"><ele>48.49999999999999</ele><time>2026-05-02T12:41:54.44Z</time></trkpt><trkpt lat="44.0066217" lon="12.5073017"><ele>48.0</ele><time>2026-05-02T12:41:55.44Z</time></trkpt><trkpt lat="44.0066067" lon="12.5073967"><ele>47.5</ele><time>2026-05-02T12:41:56.44Z</time></trkpt><trkpt lat="44.0065967" lon="12.507495"><ele>47.0</ele><time>2026-05-02T12:41:57.439Z</time></trkpt><trkpt lat="44.0065883" lon="12.5076033"><ele>46.5</ele><time>2026-05-02T12:41:58.44Z</time></trkpt><trkpt lat="44.0065717" lon="12.50772"><ele>46.0</ele><time>2026-05-02T12:41:59.44Z</time></trkpt><trkpt lat="44.0065533" lon="12.5078367"><ele>45.833333333333336</ele><time>2026-05-02T12:42:00.44Z</time></trkpt><trkpt lat="44.0065283" lon="12.5079533"><ele>45.66666666666667</ele><time>2026-05-02T12:42:01.44Z</time></trkpt><trkpt lat="44.006505" lon="12.508075"><ele>45.5</ele><time>2026-05-02T12:42:02.439Z</time></trkpt><trkpt lat="44.0064883" lon="12.5081967"><ele>45.333333333333336</ele><time>2026-05-02T12:42:03.44Z</time></trkpt><trkpt lat="44.0064783" lon="12.50831"><ele>45.166666666666664</ele><time>2026-05-02T12:42:04.439Z</time></trkpt><trkpt lat="44.0064733" lon="12.50841"><ele>45.0</ele><time>2026-05-02T12:42:05.44Z</time></trkpt><trkpt lat="44.0064817" lon="12.5085"><ele>45.0</ele><time>2026-05-02T12:42:06.44Z</time></trkpt><trkpt lat="44.006525" lon="12.5086417"><ele>45.0</ele><time>2026-05-02T12:42:08.44Z</time></trkpt><trkpt lat="44.0065583" lon="12.5087483"><ele>45.0</ele><time>2026-05-02T12:42:10.439Z</time></trkpt><trkpt lat="44.0065967" lon="12.5088583"><ele>45.0</ele><time>2026-05-02T12:42:12.44Z</time></trkpt><trkpt lat="44.0066133" lon="12.50897"><ele>45.0</ele><time>2026-05-02T12:42:15.44Z</time></trkpt><trkpt lat="44.0065633" lon="12.5090317"><ele>45.0</ele><time>2026-05-02T12:42:17.441Z</time></trkpt><trkpt lat="44.0064933" lon="12.5091017"><ele>45.0</ele><time>2026-05-02T12:42:19.442Z</time></trkpt><trkpt lat="44.0064183" lon="12.5091917"><ele>45.0</ele><time>2026-05-02T12:42:21.442Z</time></trkpt><trkpt lat="44.0063433" lon="12.5092983"><ele>45.0</ele><time>2026-05-02T12:42:23.441Z</time></trkpt><trkpt lat="44.00627" lon="12.509415"><ele>45.0</ele><time>2026-05-02T12:42:25.44Z</time></trkpt><trkpt lat="44.0062183" lon="12.509565"><ele>45.0</ele><time>2026-05-02T12:42:27.439Z</time></trkpt><trkpt lat="44.006165" lon="12.5097167"><ele>44.857142857142854</ele><time>2026-05-02T12:42:29.441Z</time></trkpt><trkpt lat="44.0061367" lon="12.509795"><ele>44.714285714285715</ele><time>2026-05-02T12:42:30.441Z</time></trkpt><trkpt lat="44.0061083" lon="12.5098783"><ele>44.57142857142857</ele><time>2026-05-02T12:42:31.44Z</time></trkpt><trkpt lat="44.00608" lon="12.5099617"><ele>44.42857142857143</ele><time>2026-05-02T12:42:32.44Z</time></trkpt><trkpt lat="44.0060467" lon="12.5100383"><ele>44.285714285714285</ele><time>2026-05-02T12:42:33.442Z</time></trkpt><trkpt lat="44.0060133" lon="12.510115"><ele>44.142857142857146</ele><time>2026-05-02T12:42:34.44Z</time></trkpt><trkpt lat="44.0059767" lon="12.5101867"><ele>44.0</ele><time>2026-05-02T12:42:35.44Z</time></trkpt><trkpt lat="44.005935" lon="12.5102583"><ele>44.0</ele><time>2026-05-02T12:42:36.441Z</time></trkpt><trkpt lat="44.0058467" lon="12.5103817"><ele>44.0</ele><time>2026-05-02T12:42:38.44Z</time></trkpt><trkpt lat="44.0057983" lon="12.5104417"><ele>44.0</ele><time>2026-05-02T12:42:39.44Z</time></trkpt><trkpt lat="44.005745" lon="12.5104933"><ele>44.0</ele><time>2026-05-02T12:42:40.44Z</time></trkpt><trkpt lat="44.005695" lon="12.5105467"><ele>44.0</ele><time>2026-05-02T12:42:41.439Z</time></trkpt><trkpt lat="44.005645" lon="12.5106017"><ele>44.0</ele><time>2026-05-02T12:42:42.441Z</time></trkpt><trkpt lat="44.0055933" lon="12.5106533"><ele>44.0</ele><time>2026-05-02T12:42:43.44Z</time></trkpt><trkpt lat="44.0055433" lon="12.51071"><ele>44.6</ele><time>2026-05-02T12:42:44.44Z</time></trkpt><trkpt lat="44.005445" lon="12.5108167"><ele>45.2</ele><time>2026-05-02T12:42:46.442Z</time></trkpt><trkpt lat="44.0053933" lon="12.51087"><ele>45.800000000000004</ele><time>2026-05-02T12:42:47.442Z</time></trkpt><trkpt lat="44.0053017" lon="12.510985"><ele>46.400000000000006</ele><time>2026-05-02T12:42:49.443Z</time></trkpt><trkpt lat="44.0052133" lon="12.5111083"><ele>47.0</ele><time>2026-05-02T12:42:51.442Z</time></trkpt><trkpt lat="44.00517" lon="12.5111733"><ele>47.75</ele><time>2026-05-02T12:42:52.442Z</time></trkpt><trkpt lat="44.0051283" lon="12.5112417"><ele>48.5</ele><time>2026-05-02T12:42:53.443Z</time></trkpt><trkpt lat="44.0050117" lon="12.5114433"><ele>49.25</ele><time>2026-05-02T12:42:56.441Z</time></trkpt><trkpt lat="44.0049333" lon="12.5115733"><ele>50.0</ele><time>2026-05-02T12:42:58.44Z</time></trkpt><trkpt lat="44.00485" lon="12.511695"><ele>50.0</ele><time>2026-05-02T12:43:00.441Z</time></trkpt><trkpt lat="44.00476" lon="12.5117967"><ele>50.0</ele><time>2026-05-02T12:43:02.442Z</time></trkpt><trkpt lat="44.00467" lon="12.5118683"><ele>50.0</ele><time>2026-05-02T12:43:04.441Z</time></trkpt><trkpt lat="44.004585" lon="12.5119183"><ele>50.0</ele><time>2026-05-02T12:43:06.441Z</time></trkpt><trkpt lat="44.00453" lon="12.5120067"><ele>50.0</ele><time>2026-05-02T12:43:08.44Z</time></trkpt><trkpt lat="44.0045333" lon="12.512135"><ele>48.25</ele><time>2026-05-02T12:43:10.44Z</time></trkpt><trkpt lat="44.0045617" lon="12.5122883"><ele>46.5</ele><time>2026-05-02T12:43:12.44Z</time></trkpt><trkpt lat="44.0045933" lon="12.5124483"><ele>44.75</ele><time>2026-05-02T12:43:14.44Z</time></trkpt><trkpt lat="44.0046383" lon="12.512605"><ele>43.0</ele><time>2026-05-02T12:43:16.443Z</time></trkpt><trkpt lat="44.0046967" lon="12.5127517"><ele>43.0</ele><time>2026-05-02T12:43:18.442Z</time></trkpt><trkpt lat="44.00476" lon="12.5128917"><ele>43.0</ele><time>2026-05-02T12:43:20.442Z</time></trkpt><trkpt lat="44.0048367" lon="12.51302"><ele>43.0</ele><time>2026-05-02T12:43:22.443Z</time></trkpt><trkpt lat="44.0049217" lon="12.51314"><ele>43.0</ele><time>2026-05-02T12:43:24.443Z</time></trkpt><trkpt lat="44.0050117" lon="12.5132383"><ele>42.0</ele><time>2026-05-02T12:43:26.441Z</time></trkpt><trkpt lat="44.0051017" lon="12.5133283"><ele>41.0</ele><time>2026-05-02T12:43:28.44Z</time></trkpt><trkpt lat="44.005195" lon="12.5134133"><ele>40.0</ele><time>2026-05-02T12:43:30.441Z</time></trkpt><trkpt lat="44.00528" lon="12.5135017"><ele>39.0</ele><time>2026-05-02T12:43:32.441Z</time></trkpt><trkpt lat="44.0053633" lon="12.5135917"><ele>38.0</ele><time>2026-05-02T12:43:34.44Z</time></trkpt><trkpt lat="44.005435" lon="12.5136783"><ele>38.33333333333333</ele><time>2026-05-02T12:43:36.44Z</time></trkpt><trkpt lat="44.005505" lon="12.51377"><ele>38.666666666666664</ele><time>2026-05-02T12:43:38.441Z</time></trkpt><trkpt lat="44.0055633" lon="12.5138717"><ele>39.0</ele><time>2026-05-02T12:43:40.44Z</time></trkpt><trkpt lat="44.0056033" lon="12.51398"><ele>39.333333333333336</ele><time>2026-05-02T12:43:42.441Z</time></trkpt><trkpt lat="44.00563" lon="12.51408"><ele>39.66666666666667</ele><time>2026-05-02T12:43:44.44Z</time></trkpt><trkpt lat="44.0056417" lon="12.5141683"><ele>40.0</ele><time>2026-05-02T12:43:46.443Z</time></trkpt><trkpt lat="44.0056417" lon="12.51429"><ele>40.0</ele><time>2026-05-02T12:43:49.443Z</time></trkpt><trkpt lat="44.005655" lon="12.5144133"><ele>40.0</ele><time>2026-05-02T12:43:52.442Z</time></trkpt><trkpt lat="44.0056683" lon="12.5145217"><ele>40.0</ele><time>2026-05-02T12:43:55.441Z</time></trkpt><trkpt lat="44.005685" lon="12.51462"><ele>40.0</ele><time>2026-05-02T12:43:58.44Z</time></trkpt><trkpt lat="44.0057033" lon="12.514705"><ele>40.0</ele><time>2026-05-02T12:44:01.44Z</time></trkpt><trkpt lat="44.0057317" lon="12.514785"><ele>40.0</ele><time>2026-05-02T12:44:05.44Z</time></trkpt><trkpt lat="44.0057733" lon="12.51486"><ele>40.0</ele><time>2026-05-02T12:44:09.442Z</time></trkpt><trkpt lat="44.0058217" lon="12.51493"><ele>41.0</ele><time>2026-05-02T12:44:14.44Z</time></trkpt><trkpt lat="44.0058733" lon="12.515"><ele>42.0</ele><time>2026-05-02T12:44:18.443Z</time></trkpt><trkpt lat="44.0059233" lon="12.5150817"><ele>43.0</ele><time>2026-05-02T12:44:22.442Z</time></trkpt><trkpt lat="44.005975" lon="12.5151567"><ele>44.0</ele><time>2026-05-02T12:44:27.44Z</time></trkpt><trkpt lat="44.0060467" lon="12.5152067"><ele>45.0</ele><time>2026-05-02T12:44:31.442Z</time></trkpt><trkpt lat="44.0061033" lon="12.51527"><ele>46.0</ele><time>2026-05-02T12:44:35.444Z</time></trkpt><trkpt lat="44.0061567" lon="12.5153517"><ele>46.0</ele><time>2026-05-02T12:44:40.439Z</time></trkpt><trkpt lat="44.0062317" lon="12.515385"><ele>46.0</ele><time>2026-05-02T12:44:45.44Z</time></trkpt><trkpt lat="44.006275" lon="12.5154583"><ele>46.0</ele><time>2026-05-02T12:44:49.443Z</time></trkpt><trkpt lat="44.006325" lon="12.5155167"><ele>46.0</ele><time>2026-05-02T12:44:53.443Z</time></trkpt><trkpt lat="44.00639" lon="12.5155617"><ele>46.0</ele><time>2026-05-02T12:44:59.443Z</time></trkpt><trkpt lat="44.0064467" lon="12.5156217"><ele>46.0</ele><time>2026-05-02T12:45:04.441Z</time></trkpt><trkpt lat="44.0065133" lon="12.51567"><ele>46.0</ele><time>2026-05-02T12:45:10.441Z</time></trkpt><trkpt lat="44.006575" lon="12.515715"><ele>46.142857142857146</ele><time>2026-05-02T12:45:15.44Z</time></trkpt><trkpt lat="44.0066267" lon="12.51578"><ele>46.285714285714285</ele><time>2026-05-02T12:45:20.443Z</time></trkpt><trkpt lat="44.0066883" lon="12.5158167"><ele>46.42857142857143</ele><time>2026-05-02T12:45:25.44Z</time></trkpt><trkpt lat="44.0067517" lon="12.5158567"><ele>46.57142857142857</ele><time>2026-05-02T12:45:30.441Z</time></trkpt><trkpt lat="44.0068267" lon="12.5158767"><ele>46.71428571428571</ele><time>2026-05-02T12:45:36.441Z</time></trkpt><trkpt lat="44.0068933" lon="12.5159067"><ele>46.857142857142854</ele><time>2026-05-02T12:45:41.44Z</time></trkpt><trkpt lat="44.0069667" lon="12.5159133"><ele>47.0</ele><time>2026-05-02T12:45:46.442Z</time></trkpt><trkpt lat="44.0070333" lon="12.5158917"><ele>48.42857142857143</ele><time>2026-05-02T12:45:51.441Z</time></trkpt><trkpt lat="44.0070983" lon="12.51592"><ele>49.857142857142854</ele><time>2026-05-02T12:45:56.44Z</time></trkpt><trkpt lat="44.0071667" lon="12.5159467"><ele>51.285714285714285</ele><time>2026-05-02T12:46:02.441Z</time></trkpt><trkpt lat="44.0072317" lon="12.5159683"><ele>52.71428571428571</ele><time>2026-05-02T12:46:07.44Z</time></trkpt><trkpt lat="44.0072983" lon="12.515975"><ele>54.14285714285714</ele><time>2026-05-02T12:46:12.441Z</time></trkpt><trkpt lat="44.0073717" lon="12.5159967"><ele>55.57142857142857</ele><time>2026-05-02T12:46:19.439Z</time></trkpt><trkpt lat="44.007435" lon="12.5159917"><ele>57.0</ele><time>2026-05-02T12:46:24.44Z</time></trkpt><trkpt lat="44.0075" lon="12.515985"><ele>58.14285714285714</ele><time>2026-05-02T12:46:29.445Z</time></trkpt><trkpt lat="44.0075633" lon="12.5159933"><ele>59.28571428571428</ele><time>2026-05-02T12:46:33.438Z</time></trkpt><trkpt lat="44.007625" lon="12.5160333"><ele>60.42857142857143</ele><time>2026-05-02T12:46:38.439Z</time></trkpt><trkpt lat="44.0076883" lon="12.5160781"><ele>61.57142857142857</ele><time>2026-05-02T12:46:44.438Z</time></trkpt><trkpt lat="44.0077641" lon="12.5160964"><ele>62.714285714285715</ele><time>2026-05-02T12:46:50.439Z</time></trkpt><trkpt lat="44.0078158" lon="12.5161708"><ele>63.85714285714286</ele><time>2026-05-02T12:46:56.441Z</time></trkpt><trkpt lat="44.0078479" lon="12.5162533"><ele>65.0</ele><time>2026-05-02T12:47:01.438Z</time></trkpt><trkpt lat="44.0078549" lon="12.5163606"><ele>65.14285714285715</ele><time>2026-05-02T12:47:06.44Z</time></trkpt><trkpt lat="44.0078344" lon="12.51646"><ele>65.28571428571429</ele><time>2026-05-02T12:47:12.439Z</time></trkpt><trkpt lat="44.0078226" lon="12.5165466"><ele>65.42857142857143</ele><time>2026-05-02T12:47:16.441Z</time></trkpt><trkpt lat="44.0078054" lon="12.5166432"><ele>65.57142857142858</ele><time>2026-05-02T12:47:20.439Z</time></trkpt><trkpt lat="44.0077698" lon="12.5167446"><ele>65.71428571428572</ele><time>2026-05-02T12:47:24.44Z</time></trkpt><trkpt lat="44.0077483" lon="12.5168269"><ele>65.85714285714286</ele><time>2026-05-02T12:47:27.441Z</time></trkpt><trkpt lat="44.0077302" lon="12.5169325"><ele>66.0</ele><time>2026-05-02T12:47:31.439Z</time></trkpt><trkpt lat="44.0077177" lon="12.5170351"><ele>67.0</ele><time>2026-05-02T12:47:35.44Z</time></trkpt><trkpt lat="44.0077179" lon="12.5171245"><ele>68.0</ele><time>2026-05-02T12:47:39.44Z</time></trkpt><trkpt lat="44.0077267" lon="12.5172208"><ele>69.0</ele><time>2026-05-02T12:47:44.44Z</time></trkpt><trkpt lat="44.0077519" lon="12.5173118"><ele>70.0</ele><time>2026-05-02T12:47:49.44Z</time></trkpt><trkpt lat="44.0077959" lon="12.517386"><ele>71.0</ele><time>2026-05-02T12:47:54.44Z</time></trkpt><trkpt lat="44.0078467" lon="12.5174493"><ele>72.0</ele><time>2026-05-02T12:47:59.439Z</time></trkpt><trkpt lat="44.0078885" lon="12.5175213"><ele>73.0</ele><time>2026-05-02T12:48:04.439Z</time></trkpt><trkpt lat="44.0079526" lon="12.517563"><ele>73.0</ele><time>2026-05-02T12:48:09.44Z</time></trkpt><trkpt lat="44.0080206" lon="12.5175743"><ele>73.0</ele><time>2026-05-02T12:48:13.439Z</time></trkpt><trkpt lat="44.0080856" lon="12.5175688"><ele>73.0</ele><time>2026-05-02T12:48:17.442Z</time></trkpt><trkpt lat="44.008152" lon="12.5175336"><ele>73.0</ele><time>2026-05-02T12:48:21.44Z</time></trkpt><trkpt lat="44.008215" lon="12.5175"><ele>73.0</ele><time>2026-05-02T12:48:25.439Z</time></trkpt><trkpt lat="44.0082767" lon="12.5174483"><ele>73.0</ele><time>2026-05-02T12:48:29.439Z</time></trkpt><trkpt lat="44.008335" lon="12.51739"><ele>73.0</ele><time>2026-05-02T12:48:33.441Z</time></trkpt><trkpt lat="44.0083967" lon="12.517325"><ele>73.5</ele><time>2026-05-02T12:48:37.439Z</time></trkpt><trkpt lat="44.0084533" lon="12.51725"><ele>74.0</ele><time>2026-05-02T12:48:41.441Z</time></trkpt><trkpt lat="44.0085017" lon="12.5171867"><ele>74.5</ele><time>2026-05-02T12:48:44.44Z</time></trkpt><trkpt lat="44.0085583" lon="12.51713"><ele>75.0</ele><time>2026-05-02T12:48:47.442Z</time></trkpt><trkpt lat="44.0086183" lon="12.51706"><ele>75.5</ele><time>2026-05-02T12:48:50.439Z</time></trkpt><trkpt lat="44.0086817" lon="12.5169883"><ele>76.0</ele><time>2026-05-02T12:48:53.441Z</time></trkpt><trkpt lat="44.0087533" lon="12.51693"><ele>76.16666666666666</ele><time>2026-05-02T12:48:56.441Z</time></trkpt><trkpt lat="44.0088233" lon="12.5168583"><ele>76.33333333333333</ele><time>2026-05-02T12:48:59.441Z</time></trkpt><trkpt lat="44.00889" lon="12.5167767"><ele>76.5</ele><time>2026-05-02T12:49:02.439Z</time></trkpt><trkpt lat="44.00895" lon="12.5167"><ele>76.66666666666667</ele><time>2026-05-02T12:49:05.44Z</time></trkpt><trkpt lat="44.0090183" lon="12.51663"><ele>76.83333333333334</ele><time>2026-05-02T12:49:08.441Z</time></trkpt><trkpt lat="44.009085" lon="12.5165583"><ele>77.0</ele><time>2026-05-02T12:49:11.439Z</time></trkpt><trkpt lat="44.009155" lon="12.5164933"><ele>77.33333333333334</ele><time>2026-05-02T12:49:14.44Z</time></trkpt><trkpt lat="44.0092167" lon="12.516425"><ele>77.66666666666667</ele><time>2026-05-02T12:49:17.443Z</time></trkpt><trkpt lat="44.00928" lon="12.5163717"><ele>78.0</ele><time>2026-05-02T12:49:20.44Z</time></trkpt><trkpt lat="44.00935" lon="12.5163217"><ele>78.33333333333333</ele><time>2026-05-02T12:49:23.44Z</time></trkpt><trkpt lat="44.0094267" lon="12.5162767"><ele>78.66666666666666</ele><time>2026-05-02T12:49:26.442Z</time></trkpt><trkpt lat="44.0094917" lon="12.516235"><ele>79.0</ele><time>2026-05-02T12:49:29.442Z</time></trkpt><trkpt lat="44.0095717" lon="12.516195"><ele>80.0</ele><time>2026-05-02T12:49:32.443Z</time></trkpt><trkpt lat="44.0096567" lon="12.51615"><ele>81.0</ele><time>2026-05-02T12:49:35.44Z</time></trkpt><trkpt lat="44.0097283" lon="12.5161267"><ele>82.0</ele><time>2026-05-02T12:49:38.44Z</time></trkpt><trkpt lat="44.00982" lon="12.5160983"><ele>83.0</ele><time>2026-05-02T12:49:41.44Z</time></trkpt><trkpt lat="44.00991" lon="12.516085"><ele>84.0</ele><time>2026-05-02T12:49:44.44Z</time></trkpt><trkpt lat="44.0099983" lon="12.51607"><ele>85.0</ele><time>2026-05-02T12:49:47.442Z</time></trkpt><trkpt lat="44.0100717" lon="12.5160567"><ele>85.0</ele><time>2026-05-02T12:49:50.443Z</time></trkpt><trkpt lat="44.010155" lon="12.5160483"><ele>85.0</ele><time>2026-05-02T12:49:54.443Z</time></trkpt><trkpt lat="44.01023" lon="12.51605"><ele>85.0</ele><time>2026-05-02T12:49:57.443Z</time></trkpt><trkpt lat="44.01031" lon="12.51603"><ele>85.0</ele><time>2026-05-02T12:50:00.441Z</time></trkpt><trkpt lat="44.0103917" lon="12.51602"><ele>85.0</ele><time>2026-05-02T12:50:03.442Z</time></trkpt><trkpt lat="44.010475" lon="12.516015"><ele>85.0</ele><time>2026-05-02T12:50:06.442Z</time></trkpt><trkpt lat="44.0105517" lon="12.5160033"><ele>85.0</ele><time>2026-05-02T12:50:09.441Z</time></trkpt><trkpt lat="44.01063" lon="12.51598"><ele>85.0</ele><time>2026-05-02T12:50:12.442Z</time></trkpt><trkpt lat="44.0106933" lon="12.5159783"><ele>85.0</ele><time>2026-05-02T12:50:15.442Z</time></trkpt><trkpt lat="44.0107617" lon="12.5159717"><ele>85.0</ele><time>2026-05-02T12:50:18.442Z</time></trkpt><trkpt lat="44.0108483" lon="12.5159867"><ele>85.0</ele><time>2026-05-02T12:50:21.443Z</time></trkpt><trkpt lat="44.0109283" lon="12.5159917"><ele>85.0</ele><time>2026-05-02T12:50:24.442Z</time></trkpt><trkpt lat="44.0109967" lon="12.51599"><ele>85.0</ele><time>2026-05-02T12:50:26.44Z</time></trkpt><trkpt lat="44.01106" lon="12.5159833"><ele>84.83333333333333</ele><time>2026-05-02T12:50:28.44Z</time></trkpt><trkpt lat="44.01115" lon="12.5159633"><ele>84.66666666666666</ele><time>2026-05-02T12:50:31.439Z</time></trkpt><trkpt lat="44.0112183" lon="12.515965"><ele>84.5</ele><time>2026-05-02T12:50:33.439Z</time></trkpt><trkpt lat="44.0112817" lon="12.5159617"><ele>84.33333333333333</ele><time>2026-05-02T12:50:35.44Z</time></trkpt><trkpt lat="44.0113633" lon="12.5159717"><ele>84.16666666666667</ele><time>2026-05-02T12:50:38.439Z</time></trkpt><trkpt lat="44.01145" lon="12.51596"><ele>84.0</ele><time>2026-05-02T12:50:41.439Z</time></trkpt><trkpt lat="44.01153" lon="12.515955"><ele>84.0</ele><time>2026-05-02T12:50:44.439Z</time></trkpt><trkpt lat="44.0116017" lon="12.5159533"><ele>84.0</ele><time>2026-05-02T12:50:46.442Z</time></trkpt><trkpt lat="44.011665" lon="12.5159517"><ele>84.0</ele><time>2026-05-02T12:50:48.442Z</time></trkpt><trkpt lat="44.0117533" lon="12.51593"><ele>84.0</ele><time>2026-05-02T12:50:51.442Z</time></trkpt><trkpt lat="44.0118433" lon="12.5159283"><ele>84.0</ele><time>2026-05-02T12:50:54.442Z</time></trkpt><trkpt lat="44.0119167" lon="12.5159033"><ele>84.0</ele><time>2026-05-02T12:50:57.441Z</time></trkpt><trkpt lat="44.01201" lon="12.515905"><ele>84.57142857142857</ele><time>2026-05-02T12:51:00.441Z</time></trkpt><trkpt lat="44.012075" lon="12.51591"><ele>85.14285714285714</ele><time>2026-05-02T12:51:02.442Z</time></trkpt><trkpt lat="44.0121633" lon="12.5159183"><ele>85.71428571428572</ele><time>2026-05-02T12:51:05.441Z</time></trkpt><trkpt lat="44.0122267" lon="12.5159167"><ele>86.28571428571428</ele><time>2026-05-02T12:51:07.441Z</time></trkpt><trkpt lat="44.0123" lon="12.5159117"><ele>86.85714285714286</ele><time>2026-05-02T12:51:10.439Z</time></trkpt><trkpt lat="44.012375" lon="12.5158933"><ele>87.42857142857143</ele><time>2026-05-02T12:51:13.44Z</time></trkpt><trkpt lat="44.0124467" lon="12.5158867"><ele>88.0</ele><time>2026-05-02T12:51:16.442Z</time></trkpt><trkpt lat="44.0125233" lon="12.51589"><ele>88.33333333333333</ele><time>2026-05-02T12:51:19.44Z</time></trkpt><trkpt lat="44.0126017" lon="12.51588"><ele>88.66666666666666</ele><time>2026-05-02T12:51:22.44Z</time></trkpt><trkpt lat="44.0126783" lon="12.5158717"><ele>89.0</ele><time>2026-05-02T12:51:25.44Z</time></trkpt><trkpt lat="44.0127583" lon="12.5158567"><ele>89.33333333333333</ele><time>2026-05-02T12:51:28.44Z</time></trkpt><trkpt lat="44.01285" lon="12.515855"><ele>89.66666666666667</ele><time>2026-05-02T12:51:31.44Z</time></trkpt><trkpt lat="44.0129383" lon="12.5158533"><ele>90.0</ele><time>2026-05-02T12:51:34.439Z</time></trkpt><trkpt lat="44.0130233" lon="12.5158317"><ele>90.0</ele><time>2026-05-02T12:51:37.442Z</time></trkpt><trkpt lat="44.0131167" lon="12.5158267"><ele>90.0</ele><time>2026-05-02T12:51:40.44Z</time></trkpt><trkpt lat="44.0131867" lon="12.51582"><ele>90.0</ele><time>2026-05-02T12:51:42.442Z</time></trkpt><trkpt lat="44.0132533" lon="12.515815"><ele>90.0</ele><time>2026-05-02T12:51:44.44Z</time></trkpt><trkpt lat="44.0133267" lon="12.51581"><ele>90.0</ele><time>2026-05-02T12:51:46.442Z</time></trkpt><trkpt lat="44.0134067" lon="12.5158117"><ele>90.0</ele><time>2026-05-02T12:51:48.443Z</time></trkpt><trkpt lat="44.01349" lon="12.5158067"><ele>90.0</ele><time>2026-05-02T12:51:50.441Z</time></trkpt><trkpt lat="44.0135667" lon="12.5157983"><ele>90.0</ele><time>2026-05-02T12:51:52.44Z</time></trkpt><trkpt lat="44.0136483" lon="12.515795"><ele>90.0</ele><time>2026-05-02T12:51:54.44Z</time></trkpt><trkpt lat="44.0137233" lon="12.51579"><ele>90.0</ele><time>2026-05-02T12:51:56.44Z</time></trkpt><trkpt lat="44.013795" lon="12.515795"><ele>90.0</ele><time>2026-05-02T12:51:58.44Z</time></trkpt><trkpt lat="44.0138583" lon="12.5158"><ele>90.0</ele><time>2026-05-02T12:52:00.439Z</time></trkpt><trkpt lat="44.0139233" lon="12.5158083"><ele>90.0</ele><time>2026-05-02T12:52:03.441Z</time></trkpt><trkpt lat="44.0139967" lon="12.5158417"><ele>90.0</ele><time>2026-05-02T12:52:07.44Z</time></trkpt><trkpt lat="44.0140717" lon="12.515865"><ele>90.0</ele><time>2026-05-02T12:52:11.439Z</time></trkpt><trkpt lat="44.0141383" lon="12.5159"><ele>90.0</ele><time>2026-05-02T12:52:15.44Z</time></trkpt><trkpt lat="44.0142083" lon="12.51594"><ele>90.0</ele><time>2026-05-02T12:52:19.441Z</time></trkpt><trkpt lat="44.014285" lon="12.5159667"><ele>90.0</ele><time>2026-05-02T12:52:23.438Z</time></trkpt><trkpt lat="44.0143517" lon="12.516025"><ele>90.0</ele><time>2026-05-02T12:52:28.439Z</time></trkpt><trkpt lat="44.0143983" lon="12.5160883"><ele>90.0</ele><time>2026-05-02T12:52:31.443Z</time></trkpt><trkpt lat="44.0144383" lon="12.5161583"><ele>90.0</ele><time>2026-05-02T12:52:34.439Z</time></trkpt><trkpt lat="44.01449" lon="12.5162383"><ele>90.0</ele><time>2026-05-02T12:52:38.442Z</time></trkpt><trkpt lat="44.0145433" lon="12.5163167"><ele>90.0</ele><time>2026-05-02T12:52:42.442Z</time></trkpt><trkpt lat="44.0146" lon="12.51638"><ele>90.0</ele><time>2026-05-02T12:52:46.443Z</time></trkpt><trkpt lat="44.01466" lon="12.5164517"><ele>90.0</ele><time>2026-05-02T12:52:50.438Z</time></trkpt><trkpt lat="44.0147167" lon="12.516535"><ele>90.0</ele><time>2026-05-02T12:52:54.44Z</time></trkpt><trkpt lat="44.0147783" lon="12.5165917"><ele>90.0</ele><time>2026-05-02T12:52:58.442Z</time></trkpt><trkpt lat="44.01483" lon="12.5166733"><ele>90.0</ele><time>2026-05-02T12:53:02.442Z</time></trkpt><trkpt lat="44.0149017" lon="12.5167383"><ele>90.0</ele><time>2026-05-02T12:53:05.438Z</time></trkpt><trkpt lat="44.01497" lon="12.516805"><ele>90.0</ele><time>2026-05-02T12:53:09.44Z</time></trkpt><trkpt lat="44.0150417" lon="12.5168783"><ele>90.0</ele><time>2026-05-02T12:53:53.44Z</time></trkpt><trkpt lat="44.0151267" lon="12.5169417"><ele>90.0</ele><time>2026-05-02T12:53:58.439Z</time></trkpt><trkpt lat="44.015185" lon="12.5169767"><ele>91.0</ele><time>2026-05-02T12:54:00.442Z</time></trkpt><trkpt lat="44.0152567" lon="12.5170317"><ele>92.0</ele><time>2026-05-02T12:54:03.442Z</time></trkpt><trkpt lat="44.0153183" lon="12.5170683"><ele>93.0</ele><time>2026-05-02T12:54:06.439Z</time></trkpt><trkpt lat="44.015385" lon="12.5171117"><ele>94.0</ele><time>2026-05-02T12:54:09.439Z</time></trkpt><trkpt lat="44.0154467" lon="12.5171583"><ele>95.0</ele><time>2026-05-02T12:54:11.439Z</time></trkpt><trkpt lat="44.0155083" lon="12.517195"><ele>96.0</ele><time>2026-05-02T12:54:13.439Z</time></trkpt><trkpt lat="44.0155633" lon="12.5172417"><ele>97.0</ele><time>2026-05-02T12:54:15.439Z</time></trkpt><trkpt lat="44.01564" lon="12.5173"><ele>97.00000000000001</ele><time>2026-05-02T12:54:18.442Z</time></trkpt><trkpt lat="44.0157217" lon="12.5173617"><ele>97.0</ele><time>2026-05-02T12:54:21.443Z</time></trkpt><trkpt lat="44.0158017" lon="12.51743"><ele>97.0</ele><time>2026-05-02T12:54:24.442Z</time></trkpt><trkpt lat="44.015865" lon="12.517465"><ele>97.0</ele><time>2026-05-02T12:54:26.439Z</time></trkpt><trkpt lat="44.01593" lon="12.5175083"><ele>97.00000000000001</ele><time>2026-05-02T12:54:28.439Z</time></trkpt><trkpt lat="44.015995" lon="12.5175567"><ele>97.0</ele><time>2026-05-02T12:54:30.44Z</time></trkpt><trkpt lat="44.0160533" lon="12.517605"><ele>97.42857142857143</ele><time>2026-05-02T12:54:32.447Z</time></trkpt><trkpt lat="44.016125" lon="12.5176483"><ele>97.85714285714286</ele><time>2026-05-02T12:54:34.439Z</time></trkpt><trkpt lat="44.0161883" lon="12.5176983"><ele>98.28571428571429</ele><time>2026-05-02T12:54:36.441Z</time></trkpt><trkpt lat="44.0162617" lon="12.51775"><ele>98.71428571428572</ele><time>2026-05-02T12:54:38.442Z</time></trkpt><trkpt lat="44.0163167" lon="12.5177933"><ele>99.14285714285714</ele><time>2026-05-02T12:54:40.439Z</time></trkpt><trkpt lat="44.0163767" lon="12.5178533"><ele>99.57142857142858</ele><time>2026-05-02T12:54:42.44Z</time></trkpt><trkpt lat="44.0164467" lon="12.5179033"><ele>100.0</ele><time>2026-05-02T12:54:44.44Z</time></trkpt><trkpt lat="44.0165167" lon="12.5179567"><ele>100.16666666666667</ele><time>2026-05-02T12:54:46.442Z</time></trkpt><trkpt lat="44.01658" lon="12.5180133"><ele>100.33333333333334</ele><time>2026-05-02T12:54:48.443Z</time></trkpt><trkpt lat="44.0166517" lon="12.518075"><ele>100.5</ele><time>2026-05-02T12:54:50.443Z</time></trkpt><trkpt lat="44.01672" lon="12.518135"><ele>100.66666666666666</ele><time>2026-05-02T12:54:52.441Z</time></trkpt><trkpt lat="44.0167817" lon="12.5181867"><ele>100.83333333333333</ele><time>2026-05-02T12:54:54.443Z</time></trkpt><trkpt lat="44.0168583" lon="12.5182433"><ele>101.0</ele><time>2026-05-02T12:54:56.442Z</time></trkpt><trkpt lat="44.0169283" lon="12.5183133"><ele>100.99999999999999</ele><time>2026-05-02T12:54:58.441Z</time></trkpt><trkpt lat="44.0169967" lon="12.51839"><ele>101.0</ele><time>2026-05-02T12:55:00.443Z</time></trkpt><trkpt lat="44.0170617" lon="12.5184667"><ele>101.0</ele><time>2026-05-02T12:55:02.442Z</time></trkpt><trkpt lat="44.0171183" lon="12.5185483"><ele>101.0</ele><time>2026-05-02T12:55:04.44Z</time></trkpt><trkpt lat="44.01717" lon="12.5186467"><ele>100.99999999999999</ele><time>2026-05-02T12:55:06.442Z</time></trkpt><trkpt lat="44.0172183" lon="12.518745"><ele>101.0</ele><time>2026-05-02T12:55:08.44Z</time></trkpt><trkpt lat="44.0172567" lon="12.51885"><ele>100.6</ele><time>2026-05-02T12:55:10.44Z</time></trkpt><trkpt lat="44.017295" lon="12.51896"><ele>100.19999999999999</ele><time>2026-05-02T12:55:12.439Z</time></trkpt><trkpt lat="44.0173433" lon="12.5190917"><ele>99.80000000000001</ele><time>2026-05-02T12:55:14.439Z</time></trkpt><trkpt lat="44.0173883" lon="12.51924"><ele>99.4</ele><time>2026-05-02T12:55:16.442Z</time></trkpt><trkpt lat="44.0174433" lon="12.519405"><ele>99.0</ele><time>2026-05-02T12:55:18.442Z</time></trkpt><trkpt lat="44.01748" lon="12.5194983"><ele>97.83333333333333</ele><time>2026-05-02T12:55:19.442Z</time></trkpt><trkpt lat="44.017515" lon="12.5195933"><ele>96.66666666666667</ele><time>2026-05-02T12:55:20.442Z</time></trkpt><trkpt lat="44.01755" lon="12.51969"><ele>95.5</ele><time>2026-05-02T12:55:21.443Z</time></trkpt><trkpt lat="44.0175867" lon="12.5197883"><ele>94.33333333333334</ele><time>2026-05-02T12:55:22.442Z</time></trkpt><trkpt lat="44.0176217" lon="12.5198933"><ele>93.16666666666667</ele><time>2026-05-02T12:55:23.443Z</time></trkpt><trkpt lat="44.0176617" lon="12.520005"><ele>92.0</ele><time>2026-05-02T12:55:24.442Z</time></trkpt><trkpt lat="44.0177" lon="12.5201217"><ele>92.0</ele><time>2026-05-02T12:55:25.44Z</time></trkpt><trkpt lat="44.0177417" lon="12.520245"><ele>92.0</ele><time>2026-05-02T12:55:26.44Z</time></trkpt><trkpt lat="44.0177817" lon="12.5203683"><ele>92.0</ele><time>2026-05-02T12:55:27.441Z</time></trkpt><trkpt lat="44.0178267" lon="12.5204933"><ele>92.0</ele><time>2026-05-02T12:55:28.44Z</time></trkpt><trkpt lat="44.0178683" lon="12.5206217"><ele>92.0</ele><time>2026-05-02T12:55:29.439Z</time></trkpt><trkpt lat="44.0179133" lon="12.52075"><ele>90.8</ele><time>2026-05-02T12:55:30.44Z</time></trkpt><trkpt lat="44.0179617" lon="12.5208767"><ele>89.6</ele><time>2026-05-02T12:55:31.44Z</time></trkpt><trkpt lat="44.0180083" lon="12.5210083"><ele>88.39999999999999</ele><time>2026-05-02T12:55:32.439Z</time></trkpt><trkpt lat="44.0180567" lon="12.5211367"><ele>87.19999999999999</ele><time>2026-05-02T12:55:33.44Z</time></trkpt><trkpt lat="44.0181067" lon="12.5212633"><ele>86.0</ele><time>2026-05-02T12:55:34.44Z</time></trkpt><trkpt lat="44.0181567" lon="12.5213867"><ele>84.8</ele><time>2026-05-02T12:55:35.441Z</time></trkpt><trkpt lat="44.0182117" lon="12.521505"><ele>83.6</ele><time>2026-05-02T12:55:36.439Z</time></trkpt><trkpt lat="44.0182683" lon="12.5216167"><ele>82.4</ele><time>2026-05-02T12:55:37.441Z</time></trkpt><trkpt lat="44.0183233" lon="12.5217233"><ele>81.2</ele><time>2026-05-02T12:55:38.439Z</time></trkpt><trkpt lat="44.0183783" lon="12.521825"><ele>80.0</ele><time>2026-05-02T12:55:39.441Z</time></trkpt><trkpt lat="44.018435" lon="12.52192"><ele>80.0</ele><time>2026-05-02T12:55:40.441Z</time></trkpt><trkpt lat="44.0184883" lon="12.52201"><ele>80.0</ele><time>2026-05-02T12:55:41.443Z</time></trkpt><trkpt lat="44.0185433" lon="12.5220933"><ele>80.0</ele><time>2026-05-02T12:55:42.439Z</time></trkpt><trkpt lat="44.018595" lon="12.5221767"><ele>80.0</ele><time>2026-05-02T12:55:43.44Z</time></trkpt><trkpt lat="44.0186467" lon="12.5222533"><ele>80.0</ele><time>2026-05-02T12:55:44.44Z</time></trkpt><trkpt lat="44.0186983" lon="12.5223233"><ele>80.0</ele><time>2026-05-02T12:55:45.44Z</time></trkpt><trkpt lat="44.0187483" lon="12.5223933"><ele>79.83333333333334</ele><time>2026-05-02T12:55:46.438Z</time></trkpt><trkpt lat="44.0187967" lon="12.5224617"><ele>79.66666666666667</ele><time>2026-05-02T12:55:47.442Z</time></trkpt><trkpt lat="44.0188483" lon="12.52253"><ele>79.5</ele><time>2026-05-02T12:55:48.44Z</time></trkpt><trkpt lat="44.0188967" lon="12.5225983"><ele>79.33333333333333</ele><time>2026-05-02T12:55:49.443Z</time></trkpt><trkpt lat="44.0189767" lon="12.5226867"><ele>79.16666666666666</ele><time>2026-05-02T12:55:51.439Z</time></trkpt><trkpt lat="44.018945" lon="12.5226033"><ele>79.0</ele><time>2026-05-02T12:55:56.44Z</time></trkpt><trkpt lat="44.018885" lon="12.5225217"><ele>79.0</ele><time>2026-05-02T12:55:59.442Z</time></trkpt><trkpt lat="44.0188167" lon="12.52244"><ele>79.0</ele><time>2026-05-02T12:56:02.44Z</time></trkpt><trkpt lat="44.0187683" lon="12.5223767"><ele>79.0</ele><time>2026-05-02T12:56:04.44Z</time></trkpt><trkpt lat="44.0187033" lon="12.5222867"><ele>79.0</ele><time>2026-05-02T12:56:07.442Z</time></trkpt><trkpt lat="44.0186533" lon="12.5222233"><ele>79.0</ele><time>2026-05-02T12:56:09.441Z</time></trkpt><trkpt lat="44.0186017" lon="12.5221583"><ele>79.0</ele><time>2026-05-02T12:56:11.44Z</time></trkpt><trkpt lat="44.01855" lon="12.5220883"><ele>79.14285714285715</ele><time>2026-05-02T12:56:13.441Z</time></trkpt><trkpt lat="44.0185033" lon="12.5220133"><ele>79.28571428571429</ele><time>2026-05-02T12:56:15.441Z</time></trkpt><trkpt lat="44.0184483" lon="12.5219533"><ele>79.42857142857143</ele><time>2026-05-02T12:56:17.443Z</time></trkpt><trkpt lat="44.0183967" lon="12.5218767"><ele>79.57142857142858</ele><time>2026-05-02T12:56:19.442Z</time></trkpt><trkpt lat="44.01835" lon="12.521795"><ele>79.71428571428572</ele><time>2026-05-02T12:56:21.442Z</time></trkpt><trkpt lat="44.0183017" lon="12.52172"><ele>79.85714285714286</ele><time>2026-05-02T12:56:23.443Z</time></trkpt><trkpt lat="44.0182667" lon="12.52164"><ele>80.0</ele><time>2026-05-02T12:56:25.44Z</time></trkpt><trkpt lat="44.0182033" lon="12.5215533"><ele>79.5</ele><time>2026-05-02T12:56:28.441Z</time></trkpt><trkpt lat="44.018135" lon="12.521575"><ele>79.0</ele><time>2026-05-02T12:56:31.441Z</time></trkpt><trkpt lat="44.018115" lon="12.521665"><ele>78.5</ele><time>2026-05-02T12:56:34.44Z</time></trkpt><trkpt lat="44.01809" lon="12.52176"><ele>78.0</ele><time>2026-05-02T12:56:37.441Z</time></trkpt><trkpt lat="44.01807" lon="12.5218917"><ele>77.5</ele><time>2026-05-02T12:56:40.44Z</time></trkpt><trkpt lat="44.01805" lon="12.5220133"><ele>77.0</ele><time>2026-05-02T12:56:42.44Z</time></trkpt><trkpt lat="44.01803" lon="12.52216"><ele>75.5</ele><time>2026-05-02T12:56:44.442Z</time></trkpt><trkpt lat="44.0180183" lon="12.5223183"><ele>74.0</ele><time>2026-05-02T12:56:46.442Z</time></trkpt><trkpt lat="44.0180083" lon="12.5224767"><ele>72.5</ele><time>2026-05-02T12:56:48.443Z</time></trkpt><trkpt lat="44.0180017" lon="12.5226367"><ele>71.0</ele><time>2026-05-02T12:56:50.442Z</time></trkpt><trkpt lat="44.018" lon="12.5228067"><ele>70.75</ele><time>2026-05-02T12:56:52.443Z</time></trkpt><trkpt lat="44.0179883" lon="12.5229767"><ele>70.5</ele><time>2026-05-02T12:56:54.443Z</time></trkpt><trkpt lat="44.0179817" lon="12.5231433"><ele>70.25</ele><time>2026-05-02T12:56:56.44Z</time></trkpt><trkpt lat="44.01797" lon="12.52331"><ele>70.0</ele><time>2026-05-02T12:56:58.44Z</time></trkpt><trkpt lat="44.01793" lon="12.5234183"><ele>70.0</ele><time>2026-05-02T12:57:00.442Z</time></trkpt><trkpt lat="44.0178917" lon="12.52349"><ele>70.0</ele><time>2026-05-02T12:57:02.441Z</time></trkpt><trkpt lat="44.0178433" lon="12.5235733"><ele>70.0</ele><time>2026-05-02T12:57:05.441Z</time></trkpt><trkpt lat="44.0177967" lon="12.52364"><ele>70.0</ele><time>2026-05-02T12:57:09.44Z</time></trkpt><trkpt lat="44.0177283" lon="12.5236967"><ele>70.0</ele><time>2026-05-02T12:57:13.442Z</time></trkpt><trkpt lat="44.0176667" lon="12.5237633"><ele>70.0</ele><time>2026-05-02T12:57:16.442Z</time></trkpt><trkpt lat="44.0176" lon="12.5238317"><ele>70.0</ele><time>2026-05-02T12:57:20.442Z</time></trkpt><trkpt lat="44.0175467" lon="12.523895"><ele>69.33333333333333</ele><time>2026-05-02T12:57:23.44Z</time></trkpt><trkpt lat="44.0174767" lon="12.5239567"><ele>68.66666666666666</ele><time>2026-05-02T12:57:26.443Z</time></trkpt><trkpt lat="44.0174217" lon="12.5240383"><ele>68.0</ele><time>2026-05-02T12:57:29.441Z</time></trkpt><trkpt lat="44.0173533" lon="12.5241183"><ele>67.33333333333333</ele><time>2026-05-02T12:57:32.441Z</time></trkpt><trkpt lat="44.0172917" lon="12.5242317"><ele>66.66666666666667</ele><time>2026-05-02T12:57:35.44Z</time></trkpt><trkpt lat="44.0172433" lon="12.524315"><ele>66.0</ele><time>2026-05-02T12:57:37.441Z</time></trkpt><trkpt lat="44.0171833" lon="12.524415"><ele>66.0</ele><time>2026-05-02T12:57:39.44Z</time></trkpt><trkpt lat="44.0171217" lon="12.5245217"><ele>66.0</ele><time>2026-05-02T12:57:41.439Z</time></trkpt><trkpt lat="44.0170617" lon="12.5246083"><ele>66.0</ele><time>2026-05-02T12:57:43.441Z</time></trkpt><trkpt lat="44.017005" lon="12.5246783"><ele>66.0</ele><time>2026-05-02T12:57:45.441Z</time></trkpt><trkpt lat="44.0169517" lon="12.5247683"><ele>66.0</ele><time>2026-05-02T12:57:48.439Z</time></trkpt><trkpt lat="44.0168967" lon="12.5248367"><ele>66.0</ele><time>2026-05-02T12:57:51.44Z</time></trkpt><trkpt lat="44.016855" lon="12.5249033"><ele>66.66666666666667</ele><time>2026-05-02T12:57:54.439Z</time></trkpt><trkpt lat="44.0168117" lon="12.5249683"><ele>67.33333333333333</ele><time>2026-05-02T12:57:57.439Z</time></trkpt><trkpt lat="44.0167667" lon="12.525065"><ele>68.0</ele><time>2026-05-02T12:58:01.438Z</time></trkpt><trkpt lat="44.01672" lon="12.5251367"><ele>68.66666666666666</ele><time>2026-05-02T12:58:04.439Z</time></trkpt><trkpt lat="44.016665" lon="12.5252283"><ele>69.33333333333333</ele><time>2026-05-02T12:58:08.441Z</time></trkpt><trkpt lat="44.0166267" lon="12.5253033"><ele>70.0</ele><time>2026-05-02T12:58:11.439Z</time></trkpt><trkpt lat="44.016575" lon="12.5253917"><ele>70.71428571428571</ele><time>2026-05-02T12:58:15.44Z</time></trkpt><trkpt lat="44.0165283" lon="12.5254667"><ele>71.42857142857143</ele><time>2026-05-02T12:58:19.44Z</time></trkpt><trkpt lat="44.0164717" lon="12.5255483"><ele>72.14285714285714</ele><time>2026-05-02T12:58:23.438Z</time></trkpt><trkpt lat="44.0164417" lon="12.5256283"><ele>72.85714285714286</ele><time>2026-05-02T12:58:27.44Z</time></trkpt><trkpt lat="44.0164017" lon="12.52571"><ele>73.57142857142857</ele><time>2026-05-02T12:58:31.44Z</time></trkpt><trkpt lat="44.0163517" lon="12.5257917"><ele>74.28571428571428</ele><time>2026-05-02T12:58:35.439Z</time></trkpt><trkpt lat="44.016315" lon="12.525865"><ele>75.0</ele><time>2026-05-02T12:58:39.442Z</time></trkpt><trkpt lat="44.0162783" lon="12.5259617"><ele>75.0</ele><time>2026-05-02T12:58:43.44Z</time></trkpt><trkpt lat="44.0162383" lon="12.5260617"><ele>75.0</ele><time>2026-05-02T12:58:46.442Z</time></trkpt><trkpt lat="44.0161983" lon="12.52615"><ele>75.0</ele><time>2026-05-02T12:58:48.44Z</time></trkpt><trkpt lat="44.0161567" lon="12.5262633"><ele>75.0</ele><time>2026-05-02T12:58:50.439Z</time></trkpt><trkpt lat="44.0161167" lon="12.5263867"><ele>75.0</ele><time>2026-05-02T12:58:52.439Z</time></trkpt><trkpt lat="44.0160667" lon="12.526505"><ele>75.0</ele><time>2026-05-02T12:58:54.439Z</time></trkpt><trkpt lat="44.0160183" lon="12.52663"><ele>75.0</ele><time>2026-05-02T12:58:56.439Z</time></trkpt><trkpt lat="44.0159733" lon="12.5267383"><ele>75.0</ele><time>2026-05-02T12:58:58.439Z</time></trkpt><trkpt lat="44.015925" lon="12.5268417"><ele>75.0</ele><time>2026-05-02T12:59:00.442Z</time></trkpt><trkpt lat="44.0158833" lon="12.5269517"><ele>75.0</ele><time>2026-05-02T12:59:02.438Z</time></trkpt><trkpt lat="44.0158467" lon="12.5270417"><ele>75.0</ele><time>2026-05-02T12:59:04.44Z</time></trkpt><trkpt lat="44.0157967" lon="12.5271083"><ele>75.0</ele><time>2026-05-02T12:59:06.439Z</time></trkpt><trkpt lat="44.0157467" lon="12.5271683"><ele>74.71428571428571</ele><time>2026-05-02T12:59:09.439Z</time></trkpt><trkpt lat="44.015695" lon="12.5272483"><ele>74.42857142857143</ele><time>2026-05-02T12:59:14.438Z</time></trkpt><trkpt lat="44.0156583" lon="12.5273217"><ele>74.14285714285714</ele><time>2026-05-02T12:59:17.44Z</time></trkpt><trkpt lat="44.0156033" lon="12.5273717"><ele>73.85714285714286</ele><time>2026-05-02T12:59:21.441Z</time></trkpt><trkpt lat="44.0155333" lon="12.5274333"><ele>73.57142857142857</ele><time>2026-05-02T12:59:25.439Z</time></trkpt><trkpt lat="44.0154867" lon="12.5275067"><ele>73.28571428571428</ele><time>2026-05-02T12:59:28.44Z</time></trkpt><trkpt lat="44.01544" lon="12.5275833"><ele>73.0</ele><time>2026-05-02T12:59:31.441Z</time></trkpt><trkpt lat="44.0153867" lon="12.527665"><ele>73.0</ele><time>2026-05-02T12:59:34.44Z</time></trkpt><trkpt lat="44.015335" lon="12.5277467"><ele>73.0</ele><time>2026-05-02T12:59:37.439Z</time></trkpt><trkpt lat="44.0152817" lon="12.5278167"><ele>73.0</ele><time>2026-05-02T12:59:40.44Z</time></trkpt><trkpt lat="44.0152167" lon="12.5278933"><ele>73.0</ele><time>2026-05-02T12:59:43.441Z</time></trkpt><trkpt lat="44.015135" lon="12.5279667"><ele>73.0</ele><time>2026-05-02T12:59:46.443Z</time></trkpt><trkpt lat="44.0150683" lon="12.5280617"><ele>73.0</ele><time>2026-05-02T12:59:48.442Z</time></trkpt><trkpt lat="44.0149867" lon="12.5281867"><ele>72.0</ele><time>2026-05-02T12:59:50.439Z</time></trkpt><trkpt lat="44.0149383" lon="12.5282517"><ele>71.0</ele><time>2026-05-02T12:59:51.439Z</time></trkpt><trkpt lat="44.0148883" lon="12.52832"><ele>70.0</ele><time>2026-05-02T12:59:52.44Z</time></trkpt><trkpt lat="44.014835" lon="12.5283917"><ele>69.0</ele><time>2026-05-02T12:59:53.438Z</time></trkpt><trkpt lat="44.01478" lon="12.5284633"><ele>68.0</ele><time>2026-05-02T12:59:54.439Z</time></trkpt><trkpt lat="44.0147233" lon="12.528535"><ele>67.0</ele><time>2026-05-02T12:59:55.441Z</time></trkpt><trkpt lat="44.01466" lon="12.528615"><ele>66.0</ele><time>2026-05-02T12:59:56.44Z</time></trkpt><trkpt lat="44.0146" lon="12.528695"><ele>66.33333333333333</ele><time>2026-05-02T12:59:57.44Z</time></trkpt><trkpt lat="44.01454" lon="12.528775"><ele>66.66666666666667</ele><time>2026-05-02T12:59:58.441Z</time></trkpt><trkpt lat="44.01448" lon="12.5288517"><ele>67.0</ele><time>2026-05-02T12:59:59.439Z</time></trkpt><trkpt lat="44.01442" lon="12.5289317"><ele>67.33333333333334</ele><time>2026-05-02T13:00:00.439Z</time></trkpt><trkpt lat="44.0143617" lon="12.5290117"><ele>67.66666666666667</ele><time>2026-05-02T13:00:01.44Z</time></trkpt><trkpt lat="44.0143017" lon="12.52909"><ele>68.0</ele><time>2026-05-02T13:00:02.439Z</time></trkpt><trkpt lat="44.0142417" lon="12.529165"><ele>67.99999999999999</ele><time>2026-05-02T13:00:03.44Z</time></trkpt><trkpt lat="44.0141783" lon="12.5292317"><ele>68.0</ele><time>2026-05-02T13:00:04.44Z</time></trkpt><trkpt lat="44.0141133" lon="12.5292967"><ele>68.0</ele><time>2026-05-02T13:00:05.438Z</time></trkpt><trkpt lat="44.0140483" lon="12.529355"><ele>68.0</ele><time>2026-05-02T13:00:06.44Z</time></trkpt><trkpt lat="44.0139817" lon="12.5293983"><ele>68.0</ele><time>2026-05-02T13:00:07.443Z</time></trkpt><trkpt lat="44.013915" lon="12.52943"><ele>67.99999999999999</ele><time>2026-05-02T13:00:08.441Z</time></trkpt><trkpt lat="44.01385" lon="12.5294533"><ele>68.0</ele><time>2026-05-02T13:00:09.44Z</time></trkpt><trkpt lat="44.0137883" lon="12.5294767"><ele>68.0</ele><time>2026-05-02T13:00:10.44Z</time></trkpt><trkpt lat="44.0136917" lon="12.5295167"><ele>68.0</ele><time>2026-05-02T13:00:12.441Z</time></trkpt><trkpt lat="44.0136083" lon="12.5295533"><ele>68.0</ele><time>2026-05-02T13:00:14.439Z</time></trkpt><trkpt lat="44.0135517" lon="12.5295967"><ele>68.0</ele><time>2026-05-02T13:00:16.442Z</time></trkpt><trkpt lat="44.0134933" lon="12.5296483"><ele>68.0</ele><time>2026-05-02T13:00:18.44Z</time></trkpt><trkpt lat="44.0134267" lon="12.5296983"><ele>68.0</ele><time>2026-05-02T13:00:20.439Z</time></trkpt><trkpt lat="44.0133567" lon="12.529755"><ele>68.0</ele><time>2026-05-02T13:00:22.439Z</time></trkpt><trkpt lat="44.013275" lon="12.529825"><ele>68.0</ele><time>2026-05-02T13:00:24.439Z</time></trkpt><trkpt lat="44.013205" lon="12.5298867"><ele>68.0</ele><time>2026-05-02T13:00:26.44Z</time></trkpt><trkpt lat="44.0131467" lon="12.5299583"><ele>68.0</ele><time>2026-05-02T13:00:28.44Z</time></trkpt><trkpt lat="44.0130867" lon="12.530025"><ele>68.0</ele><time>2026-05-02T13:00:30.44Z</time></trkpt><trkpt lat="44.0130133" lon="12.530105"><ele>68.0</ele><time>2026-05-02T13:00:32.44Z</time></trkpt><trkpt lat="44.0129283" lon="12.5301867"><ele>68.0</ele><time>2026-05-02T13:00:34.439Z</time></trkpt><trkpt lat="44.0128267" lon="12.5302933"><ele>68.0</ele><time>2026-05-02T13:00:36.439Z</time></trkpt><trkpt lat="44.01276" lon="12.5303517"><ele>68.0</ele><time>2026-05-02T13:00:37.439Z</time></trkpt><trkpt lat="44.0126833" lon="12.5304117"><ele>68.0</ele><time>2026-05-02T13:00:38.44Z</time></trkpt><trkpt lat="44.0126" lon="12.5304717"><ele>68.0</ele><time>2026-05-02T13:00:39.44Z</time></trkpt><trkpt lat="44.0125133" lon="12.5305383"><ele>66.0</ele><time>2026-05-02T13:00:40.438Z</time></trkpt><trkpt lat="44.0124233" lon="12.5306083"><ele>64.0</ele><time>2026-05-02T13:00:41.441Z</time></trkpt><trkpt lat="44.0123333" lon="12.5306783"><ele>62.0</ele><time>2026-05-02T13:00:42.439Z</time></trkpt><trkpt lat="44.0122483" lon="12.53075"><ele>60.0</ele><time>2026-05-02T13:00:43.442Z</time></trkpt><trkpt lat="44.012175" lon="12.5308167"><ele>58.0</ele><time>2026-05-02T13:00:44.44Z</time></trkpt><trkpt lat="44.0121067" lon="12.5308767"><ele>57.99999999999999</ele><time>2026-05-02T13:00:45.439Z</time></trkpt><trkpt lat="44.012045" lon="12.5309433"><ele>58.0</ele><time>2026-05-02T13:00:46.442Z</time></trkpt><trkpt lat="44.011995" lon="12.531025"><ele>58.0</ele><time>2026-05-02T13:00:47.443Z</time></trkpt><trkpt lat="44.0119617" lon="12.5311283"><ele>58.0</ele><time>2026-05-02T13:00:48.439Z</time></trkpt><trkpt lat="44.01195" lon="12.5312417"><ele>57.99999999999999</ele><time>2026-05-02T13:00:49.441Z</time></trkpt><trkpt lat="44.01195" lon="12.5313633"><ele>58.0</ele><time>2026-05-02T13:00:50.44Z</time></trkpt><trkpt lat="44.0119533" lon="12.5314867"><ele>57.166666666666664</ele><time>2026-05-02T13:00:51.44Z</time></trkpt><trkpt lat="44.0119567" lon="12.5316067"><ele>56.33333333333333</ele><time>2026-05-02T13:00:52.44Z</time></trkpt><trkpt lat="44.01196" lon="12.53172"><ele>55.5</ele><time>2026-05-02T13:00:53.44Z</time></trkpt><trkpt lat="44.0119667" lon="12.53183"><ele>54.66666666666667</ele><time>2026-05-02T13:00:54.439Z</time></trkpt><trkpt lat="44.01197" lon="12.5319383"><ele>53.833333333333336</ele><time>2026-05-02T13:00:55.44Z</time></trkpt><trkpt lat="44.011975" lon="12.532035"><ele>53.0</ele><time>2026-05-02T13:00:56.441Z</time></trkpt><trkpt lat="44.0119783" lon="12.5321233"><ele>53.00000000000001</ele><time>2026-05-02T13:00:57.441Z</time></trkpt><trkpt lat="44.0119783" lon="12.532285"><ele>53.0</ele><time>2026-05-02T13:00:59.44Z</time></trkpt><trkpt lat="44.0119833" lon="12.532415"><ele>53.0</ele><time>2026-05-02T13:01:01.44Z</time></trkpt><trkpt lat="44.0119883" lon="12.53252"><ele>53.0</ele><time>2026-05-02T13:01:03.442Z</time></trkpt><trkpt lat="44.012" lon="12.5326283"><ele>53.00000000000001</ele><time>2026-05-02T13:01:05.44Z</time></trkpt><trkpt lat="44.0120467" lon="12.53272"><ele>53.0</ele><time>2026-05-02T13:01:07.441Z</time></trkpt><trkpt lat="44.0121017" lon="12.5327883"><ele>53.0</ele><time>2026-05-02T13:01:10.439Z</time></trkpt><trkpt lat="44.0121267" lon="12.5328817"><ele>53.0</ele><time>2026-05-02T13:01:22.439Z</time></trkpt><trkpt lat="44.0121733" lon="12.532945"><ele>53.0</ele><time>2026-05-02T13:01:24.44Z</time></trkpt><trkpt lat="44.0122317" lon="12.5330367"><ele>53.0</ele><time>2026-05-02T13:01:26.442Z</time></trkpt><trkpt lat="44.0123083" lon="12.53314"><ele>53.0</ele><time>2026-05-02T13:01:28.442Z</time></trkpt><trkpt lat="44.0124083" lon="12.53327"><ele>53.2</ele><time>2026-05-02T13:01:30.442Z</time></trkpt><trkpt lat="44.012475" lon="12.53335"><ele>53.4</ele><time>2026-05-02T13:01:31.44Z</time></trkpt><trkpt lat="44.012545" lon="12.5334333"><ele>53.60000000000001</ele><time>2026-05-02T13:01:32.44Z</time></trkpt><trkpt lat="44.0126133" lon="12.5335233"><ele>53.800000000000004</ele><time>2026-05-02T13:01:33.441Z</time></trkpt><trkpt lat="44.01269" lon="12.53362"><ele>54.0</ele><time>2026-05-02T13:01:34.439Z</time></trkpt><trkpt lat="44.01278" lon="12.5337183"><ele>50.25</ele><time>2026-05-02T13:01:35.44Z</time></trkpt><trkpt lat="44.0128767" lon="12.5338233"><ele>46.5</ele><time>2026-05-02T13:01:36.44Z</time></trkpt><trkpt lat="44.0129683" lon="12.53391"><ele>42.75</ele><time>2026-05-02T13:01:37.441Z</time></trkpt><trkpt lat="44.0130567" lon="12.53399"><ele>39.0</ele><time>2026-05-02T13:01:38.441Z</time></trkpt><trkpt lat="44.0131517" lon="12.5340767"><ele>39.0</ele><time>2026-05-02T13:01:39.439Z</time></trkpt><trkpt lat="44.0132483" lon="12.5341733"><ele>39.0</ele><time>2026-05-02T13:01:40.442Z</time></trkpt><trkpt lat="44.0133483" lon="12.5342733"><ele>39.0</ele><time>2026-05-02T13:01:41.439Z</time></trkpt><trkpt lat="44.0134367" lon="12.53438"><ele>39.0</ele><time>2026-05-02T13:01:42.44Z</time></trkpt><trkpt lat="44.01352" lon="12.5344967"><ele>36.0</ele><time>2026-05-02T13:01:43.44Z</time></trkpt><trkpt lat="44.0135983" lon="12.5346133"><ele>33.0</ele><time>2026-05-02T13:01:44.44Z</time></trkpt><trkpt lat="44.0136717" lon="12.534735"><ele>30.0</ele><time>2026-05-02T13:01:45.439Z</time></trkpt><trkpt lat="44.0137417" lon="12.5348583"><ele>27.0</ele><time>2026-05-02T13:01:46.443Z</time></trkpt><trkpt lat="44.0138083" lon="12.53498"><ele>27.0</ele><time>2026-05-02T13:01:47.443Z</time></trkpt><trkpt lat="44.0138733" lon="12.535095"><ele>27.000000000000004</ele><time>2026-05-02T13:01:48.443Z</time></trkpt><trkpt lat="44.0139317" lon="12.5352083"><ele>27.000000000000004</ele><time>2026-05-02T13:01:49.443Z</time></trkpt><trkpt lat="44.0139917" lon="12.5353133"><ele>27.0</ele><time>2026-05-02T13:01:50.443Z</time></trkpt><trkpt lat="44.01405" lon="12.5354167"><ele>27.0</ele><time>2026-05-02T13:01:51.442Z</time></trkpt><trkpt lat="44.014105" lon="12.53552"><ele>26.833333333333332</ele><time>2026-05-02T13:01:52.443Z</time></trkpt><trkpt lat="44.014165" lon="12.53562"><ele>26.666666666666664</ele><time>2026-05-02T13:01:53.442Z</time></trkpt><trkpt lat="44.01422" lon="12.5357167"><ele>26.5</ele><time>2026-05-02T13:01:54.442Z</time></trkpt><trkpt lat="44.01427" lon="12.5358117"><ele>26.333333333333332</ele><time>2026-05-02T13:01:55.439Z</time></trkpt><trkpt lat="44.01431" lon="12.5359067"><ele>26.166666666666664</ele><time>2026-05-02T13:01:56.442Z</time></trkpt><trkpt lat="44.0143567" lon="12.5360017"><ele>26.0</ele><time>2026-05-02T13:01:57.442Z</time></trkpt><trkpt lat="44.014395" lon="12.5360933"><ele>26.0</ele><time>2026-05-02T13:01:58.44Z</time></trkpt><trkpt lat="44.0144317" lon="12.5361883"><ele>26.0</ele><time>2026-05-02T13:01:59.44Z</time></trkpt><trkpt lat="44.0144633" lon="12.5362733"><ele>26.0</ele><time>2026-05-02T13:02:00.44Z</time></trkpt><trkpt lat="44.0144933" lon="12.5363583"><ele>26.0</ele><time>2026-05-02T13:02:01.439Z</time></trkpt><trkpt lat="44.0145317" lon="12.5365217"><ele>26.0</ele><time>2026-05-02T13:02:03.441Z</time></trkpt><trkpt lat="44.0145533" lon="12.5366883"><ele>25.999999999999996</ele><time>2026-05-02T13:02:05.44Z</time></trkpt><trkpt lat="44.0145717" lon="12.536855"><ele>26.0</ele><time>2026-05-02T13:02:07.44Z</time></trkpt><trkpt lat="44.0145817" lon="12.5369433"><ele>26.0</ele><time>2026-05-02T13:02:08.441Z</time></trkpt><trkpt lat="44.014595" lon="12.537035"><ele>26.0</ele><time>2026-05-02T13:02:09.44Z</time></trkpt><trkpt lat="44.01461" lon="12.53713"><ele>25.999999999999996</ele><time>2026-05-02T13:02:10.44Z</time></trkpt><trkpt lat="44.01462" lon="12.537225"><ele>26.0</ele><time>2026-05-02T13:02:11.44Z</time></trkpt><trkpt lat="44.0146333" lon="12.5373183"><ele>26.0</ele><time>2026-05-02T13:02:12.441Z</time></trkpt><trkpt lat="44.01465" lon="12.5374133"><ele>26.0</ele><time>2026-05-02T13:02:13.441Z</time></trkpt><trkpt lat="44.0146583" lon="12.5375083"><ele>26.0</ele><time>2026-05-02T13:02:14.44Z</time></trkpt><trkpt lat="44.0146717" lon="12.537605"><ele>26.0</ele><time>2026-05-02T13:02:15.44Z</time></trkpt><trkpt lat="44.0146883" lon="12.537695"><ele>26.0</ele><time>2026-05-02T13:02:16.44Z</time></trkpt><trkpt lat="44.0147067" lon="12.5377867"><ele>26.0</ele><time>2026-05-02T13:02:17.443Z</time></trkpt><trkpt lat="44.0147283" lon="12.5378767"><ele>26.0</ele><time>2026-05-02T13:02:18.443Z</time></trkpt><trkpt lat="44.014755" lon="12.537965"><ele>25.499999999999996</ele><time>2026-05-02T13:02:19.443Z</time></trkpt><trkpt lat="44.0147767" lon="12.5380533"><ele>25.0</ele><time>2026-05-02T13:02:20.443Z</time></trkpt><trkpt lat="44.0148033" lon="12.5381367"><ele>24.5</ele><time>2026-05-02T13:02:21.442Z</time></trkpt><trkpt lat="44.0148533" lon="12.5382983"><ele>24.0</ele><time>2026-05-02T13:02:23.442Z</time></trkpt><trkpt lat="44.01488" lon="12.5383817"><ele>23.5</ele><time>2026-05-02T13:02:24.443Z</time></trkpt><trkpt lat="44.014935" lon="12.5385317"><ele>23.0</ele><time>2026-05-02T13:02:26.44Z</time></trkpt><trkpt lat="44.0149817" lon="12.5386683"><ele>24.0</ele><time>2026-05-02T13:02:28.44Z</time></trkpt><trkpt lat="44.0149967" lon="12.53881"><ele>25.0</ele><time>2026-05-02T13:02:30.44Z</time></trkpt><trkpt lat="44.01501" lon="12.5389433"><ele>25.999999999999996</ele><time>2026-05-02T13:02:32.44Z</time></trkpt><trkpt lat="44.0150117" lon="12.5390683"><ele>27.0</ele><time>2026-05-02T13:02:34.44Z</time></trkpt><trkpt lat="44.01501" lon="12.5391883"><ele>28.0</ele><time>2026-05-02T13:02:36.44Z</time></trkpt><trkpt lat="44.015005" lon="12.5393117"><ele>28.0</ele><time>2026-05-02T13:02:38.439Z</time></trkpt><trkpt lat="44.01501" lon="12.5394367"><ele>27.999999999999996</ele><time>2026-05-02T13:02:40.439Z</time></trkpt><trkpt lat="44.015015" lon="12.5395617"><ele>27.999999999999996</ele><time>2026-05-02T13:02:42.442Z</time></trkpt><trkpt lat="44.0150167" lon="12.539695"><ele>28.0</ele><time>2026-05-02T13:02:44.439Z</time></trkpt><trkpt lat="44.01502" lon="12.539825"><ele>28.0</ele><time>2026-05-02T13:02:46.443Z</time></trkpt><trkpt lat="44.01502" lon="12.5399583"><ele>27.799999999999997</ele><time>2026-05-02T13:02:48.442Z</time></trkpt><trkpt lat="44.015025" lon="12.5400917"><ele>27.599999999999998</ele><time>2026-05-02T13:02:50.443Z</time></trkpt><trkpt lat="44.0150283" lon="12.5402217"><ele>27.400000000000002</ele><time>2026-05-02T13:02:52.443Z</time></trkpt><trkpt lat="44.0150317" lon="12.5403467"><ele>27.200000000000003</ele><time>2026-05-02T13:02:54.443Z</time></trkpt><trkpt lat="44.0150383" lon="12.5404767"><ele>27.0</ele><time>2026-05-02T13:02:56.44Z</time></trkpt><trkpt lat="44.01504" lon="12.5406083"><ele>27.0</ele><time>2026-05-02T13:02:58.44Z</time></trkpt><trkpt lat="44.0150467" lon="12.5407383"><ele>27.000000000000004</ele><time>2026-05-02T13:03:00.439Z</time></trkpt><trkpt lat="44.0150417" lon="12.54087"><ele>27.000000000000004</ele><time>2026-05-02T13:03:02.443Z</time></trkpt><trkpt lat="44.01504" lon="12.5410033"><ele>27.0</ele><time>2026-05-02T13:03:04.44Z</time></trkpt><trkpt lat="44.015045" lon="12.54114"><ele>27.0</ele><time>2026-05-02T13:03:06.439Z</time></trkpt><trkpt lat="44.0150483" lon="12.54128"><ele>26.8</ele><time>2026-05-02T13:03:08.44Z</time></trkpt><trkpt lat="44.0150517" lon="12.5414183"><ele>26.6</ele><time>2026-05-02T13:03:10.44Z</time></trkpt><trkpt lat="44.015055" lon="12.5415483"><ele>26.400000000000002</ele><time>2026-05-02T13:03:12.439Z</time></trkpt><trkpt lat="44.015055" lon="12.5416783"><ele>26.200000000000003</ele><time>2026-05-02T13:03:14.44Z</time></trkpt><trkpt lat="44.0150583" lon="12.541815"><ele>26.0</ele><time>2026-05-02T13:03:16.442Z</time></trkpt><trkpt lat="44.015065" lon="12.541955"><ele>25.6</ele><time>2026-05-02T13:03:18.443Z</time></trkpt><trkpt lat="44.0150683" lon="12.5420933"><ele>25.200000000000003</ele><time>2026-05-02T13:03:20.439Z</time></trkpt><trkpt lat="44.0150717" lon="12.5422283"><ele>24.799999999999997</ele><time>2026-05-02T13:03:22.44Z</time></trkpt><trkpt lat="44.015075" lon="12.5423617"><ele>24.4</ele><time>2026-05-02T13:03:24.441Z</time></trkpt><trkpt lat="44.0150733" lon="12.542495"><ele>24.0</ele><time>2026-05-02T13:03:26.441Z</time></trkpt><trkpt lat="44.0150783" lon="12.5426317"><ele>24.0</ele><time>2026-05-02T13:03:28.439Z</time></trkpt><trkpt lat="44.0150833" lon="12.542775"><ele>24.0</ele><time>2026-05-02T13:03:30.44Z</time></trkpt><trkpt lat="44.015085" lon="12.5429233"><ele>24.0</ele><time>2026-05-02T13:03:32.44Z</time></trkpt><trkpt lat="44.015085" lon="12.54306"><ele>24.0</ele><time>2026-05-02T13:03:34.44Z</time></trkpt><trkpt lat="44.01509" lon="12.5432017"><ele>24.0</ele><time>2026-05-02T13:03:36.442Z</time></trkpt><trkpt lat="44.0150933" lon="12.5433467"><ele>23.799999999999997</ele><time>2026-05-02T13:03:38.442Z</time></trkpt><trkpt lat="44.0150917" lon="12.5434917"><ele>23.599999999999998</ele><time>2026-05-02T13:03:40.441Z</time></trkpt><trkpt lat="44.0150917" lon="12.5436417"><ele>23.4</ele><time>2026-05-02T13:03:42.44Z</time></trkpt><trkpt lat="44.015095" lon="12.54379"><ele>23.2</ele><time>2026-05-02T13:03:44.443Z</time></trkpt><trkpt lat="44.0151017" lon="12.5439333"><ele>23.0</ele><time>2026-05-02T13:03:46.443Z</time></trkpt><trkpt lat="44.0151" lon="12.5440733"><ele>23.0</ele><time>2026-05-02T13:03:48.442Z</time></trkpt><trkpt lat="44.0151033" lon="12.544215"><ele>23.0</ele><time>2026-05-02T13:03:50.438Z</time></trkpt><trkpt lat="44.0151133" lon="12.5443617"><ele>23.0</ele><time>2026-05-02T13:03:52.438Z</time></trkpt><trkpt lat="44.0151183" lon="12.54449"><ele>23.0</ele><time>2026-05-02T13:03:54.44Z</time></trkpt><trkpt lat="44.0150617" lon="12.544545"><ele>23.0</ele><time>2026-05-02T13:03:56.439Z</time></trkpt><trkpt lat="44.0149733" lon="12.5444783"><ele>22.5</ele><time>2026-05-02T13:03:58.441Z</time></trkpt><trkpt lat="44.0148867" lon="12.54438"><ele>22.0</ele><time>2026-05-02T13:04:00.44Z</time></trkpt><trkpt lat="44.0147917" lon="12.5442867"><ele>21.5</ele><time>2026-05-02T13:04:02.439Z</time></trkpt><trkpt lat="44.0146783" lon="12.5442183"><ele>21.0</ele><time>2026-05-02T13:04:04.438Z</time></trkpt><trkpt lat="44.0145667" lon="12.5441467"><ele>21.0</ele><time>2026-05-02T13:04:06.439Z</time></trkpt><trkpt lat="44.0144583" lon="12.5440817"><ele>21.0</ele><time>2026-05-02T13:04:08.439Z</time></trkpt><trkpt lat="44.014365" lon="12.544005"><ele>21.0</ele><time>2026-05-02T13:04:10.438Z</time></trkpt><trkpt lat="44.01428" lon="12.54392"><ele>21.0</ele><time>2026-05-02T13:04:12.439Z</time></trkpt><trkpt lat="44.0142183" lon="12.5438383"><ele>21.0</ele><time>2026-05-02T13:04:14.439Z</time></trkpt><trkpt lat="44.014155" lon="12.5437817"><ele>21.4</ele><time>2026-05-02T13:04:16.442Z</time></trkpt><trkpt lat="44.014085" lon="12.5438"><ele>21.8</ele><time>2026-05-02T13:04:18.442Z</time></trkpt><trkpt lat="44.0140233" lon="12.5438833"><ele>22.2</ele><time>2026-05-02T13:04:20.437Z</time></trkpt><trkpt lat="44.0139617" lon="12.5439933"><ele>22.599999999999998</ele><time>2026-05-02T13:04:22.439Z</time></trkpt><trkpt lat="44.0138917" lon="12.54411"><ele>23.0</ele><time>2026-05-02T13:04:24.438Z</time></trkpt><trkpt lat="44.0138233" lon="12.544225"><ele>23.0</ele><time>2026-05-02T13:04:26.439Z</time></trkpt><trkpt lat="44.0137483" lon="12.5443317"><ele>23.0</ele><time>2026-05-02T13:04:28.438Z</time></trkpt><trkpt lat="44.0136767" lon="12.54443"><ele>23.0</ele><time>2026-05-02T13:04:30.44Z</time></trkpt><trkpt lat="44.013615" lon="12.5445283"><ele>23.0</ele><time>2026-05-02T13:04:32.439Z</time></trkpt><trkpt lat="44.0135567" lon="12.5446133"><ele>23.0</ele><time>2026-05-02T13:04:34.44Z</time></trkpt><trkpt lat="44.0135017" lon="12.5447"><ele>23.5</ele><time>2026-05-02T13:04:36.439Z</time></trkpt><trkpt lat="44.0134517" lon="12.5447767"><ele>24.0</ele><time>2026-05-02T13:04:38.44Z</time></trkpt><trkpt lat="44.0134" lon="12.54485"><ele>24.5</ele><time>2026-05-02T13:04:40.438Z</time></trkpt><trkpt lat="44.0133467" lon="12.544925"><ele>25.0</ele><time>2026-05-02T13:04:42.438Z</time></trkpt><trkpt lat="44.0132933" lon="12.54501"><ele>25.499999999999996</ele><time>2026-05-02T13:04:44.439Z</time></trkpt><trkpt lat="44.01324" lon="12.5450917"><ele>26.0</ele><time>2026-05-02T13:04:46.442Z</time></trkpt><trkpt lat="44.0131883" lon="12.5451683"><ele>26.166666666666664</ele><time>2026-05-02T13:04:48.439Z</time></trkpt><trkpt lat="44.0131283" lon="12.54524"><ele>26.333333333333332</ele><time>2026-05-02T13:04:50.44Z</time></trkpt><trkpt lat="44.0130817" lon="12.545325"><ele>26.5</ele><time>2026-05-02T13:04:52.439Z</time></trkpt><trkpt lat="44.01303" lon="12.545415"><ele>26.666666666666664</ele><time>2026-05-02T13:04:54.438Z</time></trkpt><trkpt lat="44.0129583" lon="12.545485"><ele>26.833333333333332</ele><time>2026-05-02T13:04:56.44Z</time></trkpt><trkpt lat="44.0128867" lon="12.5455567"><ele>27.0</ele><time>2026-05-02T13:04:58.442Z</time></trkpt><trkpt lat="44.0128183" lon="12.5456367"><ele>27.0</ele><time>2026-05-02T13:05:00.439Z</time></trkpt><trkpt lat="44.012755" lon="12.545715"><ele>27.0</ele><time>2026-05-02T13:05:02.44Z</time></trkpt><trkpt lat="44.012695" lon="12.5457983"><ele>27.0</ele><time>2026-05-02T13:05:04.44Z</time></trkpt><trkpt lat="44.0126317" lon="12.5458833"><ele>27.0</ele><time>2026-05-02T13:05:06.44Z</time></trkpt><trkpt lat="44.0125667" lon="12.54596"><ele>27.0</ele><time>2026-05-02T13:05:08.439Z</time></trkpt><trkpt lat="44.0125083" lon="12.54603"><ele>27.0</ele><time>2026-05-02T13:05:10.44Z</time></trkpt><trkpt lat="44.0124633" lon="12.5460917"><ele>27.0</ele><time>2026-05-02T13:05:12.439Z</time></trkpt><trkpt lat="44.0124167" lon="12.5461583"><ele>27.000000000000004</ele><time>2026-05-02T13:05:15.441Z</time></trkpt><trkpt lat="44.0123383" lon="12.546255"><ele>27.000000000000004</ele><time>2026-05-02T13:06:35.44Z</time></trkpt><trkpt lat="44.012265" lon="12.54636"><ele>27.0</ele><time>2026-05-02T13:06:37.44Z</time></trkpt><trkpt lat="44.012195" lon="12.54645"><ele>27.0</ele><time>2026-05-02T13:06:39.439Z</time></trkpt><trkpt lat="44.0121217" lon="12.5465483"><ele>26.6</ele><time>2026-05-02T13:06:41.441Z</time></trkpt><trkpt lat="44.0120417" lon="12.5466367"><ele>26.200000000000003</ele><time>2026-05-02T13:06:43.441Z</time></trkpt><trkpt lat="44.0119617" lon="12.5467167"><ele>25.8</ele><time>2026-05-02T13:06:45.44Z</time></trkpt><trkpt lat="44.01188" lon="12.5467933"><ele>25.4</ele><time>2026-05-02T13:06:47.442Z</time></trkpt><trkpt lat="44.0118067" lon="12.546865"><ele>25.0</ele><time>2026-05-02T13:06:49.445Z</time></trkpt><trkpt lat="44.0117367" lon="12.546935"><ele>25.0</ele><time>2026-05-02T13:06:51.442Z</time></trkpt><trkpt lat="44.01166" lon="12.5470233"><ele>25.0</ele><time>2026-05-02T13:06:53.441Z</time></trkpt><trkpt lat="44.0115817" lon="12.54709"><ele>25.0</ele><time>2026-05-02T13:06:55.44Z</time></trkpt><trkpt lat="44.0114983" lon="12.5471533"><ele>25.0</ele><time>2026-05-02T13:06:57.44Z</time></trkpt><trkpt lat="44.0114133" lon="12.5472183"><ele>25.0</ele><time>2026-05-02T13:06:59.438Z</time></trkpt><trkpt lat="44.011325" lon="12.5472817"><ele>25.0</ele><time>2026-05-02T13:07:01.44Z</time></trkpt><trkpt lat="44.0112333" lon="12.5473467"><ele>25.0</ele><time>2026-05-02T13:07:03.439Z</time></trkpt><trkpt lat="44.0111417" lon="12.5474067"><ele>25.0</ele><time>2026-05-02T13:07:05.441Z</time></trkpt><trkpt lat="44.01105" lon="12.54747"><ele>25.0</ele><time>2026-05-02T13:07:07.439Z</time></trkpt><trkpt lat="44.010965" lon="12.54753"><ele>25.0</ele><time>2026-05-02T13:07:09.441Z</time></trkpt><trkpt lat="44.0108783" lon="12.5475817"><ele>25.6</ele><time>2026-05-02T13:07:11.439Z</time></trkpt><trkpt lat="44.01079" lon="12.54763"><ele>26.2</ele><time>2026-05-02T13:07:13.441Z</time></trkpt><trkpt lat="44.0107" lon="12.5476767"><ele>26.799999999999997</ele><time>2026-05-02T13:07:15.44Z</time></trkpt><trkpt lat="44.01061" lon="12.5477283"><ele>27.4</ele><time>2026-05-02T13:07:17.442Z</time></trkpt><trkpt lat="44.0105183" lon="12.54778"><ele>28.0</ele><time>2026-05-02T13:07:19.443Z</time></trkpt><trkpt lat="44.0104233" lon="12.547845"><ele>28.2</ele><time>2026-05-02T13:07:21.443Z</time></trkpt><trkpt lat="44.010335" lon="12.547915"><ele>28.4</ele><time>2026-05-02T13:07:23.443Z</time></trkpt><trkpt lat="44.01025" lon="12.5479783"><ele>28.599999999999998</ele><time>2026-05-02T13:07:25.44Z</time></trkpt><trkpt lat="44.010165" lon="12.5480483"><ele>28.799999999999997</ele><time>2026-05-02T13:07:27.44Z</time></trkpt><trkpt lat="44.0100783" lon="12.5481233"><ele>29.0</ele><time>2026-05-02T13:07:29.44Z</time></trkpt><trkpt lat="44.0100017" lon="12.5482017"><ele>28.799999999999997</ele><time>2026-05-02T13:07:31.44Z</time></trkpt><trkpt lat="44.009925" lon="12.5482883"><ele>28.599999999999998</ele><time>2026-05-02T13:07:33.44Z</time></trkpt><trkpt lat="44.0098517" lon="12.548385"><ele>28.4</ele><time>2026-05-02T13:07:35.44Z</time></trkpt><trkpt lat="44.0097717" lon="12.5484817"><ele>28.2</ele><time>2026-05-02T13:07:37.44Z</time></trkpt><trkpt lat="44.0097" lon="12.54857"><ele>28.0</ele><time>2026-05-02T13:07:39.441Z</time></trkpt><trkpt lat="44.00963" lon="12.5486617"><ele>28.0</ele><time>2026-05-02T13:07:41.439Z</time></trkpt><trkpt lat="44.0095583" lon="12.54875"><ele>27.999999999999996</ele><time>2026-05-02T13:07:43.439Z</time></trkpt><trkpt lat="44.009495" lon="12.5488567"><ele>27.999999999999996</ele><time>2026-05-02T13:07:45.439Z</time></trkpt><trkpt lat="44.0094267" lon="12.5489583"><ele>28.0</ele><time>2026-05-02T13:07:47.442Z</time></trkpt><trkpt lat="44.0093617" lon="12.5490583"><ele>28.0</ele><time>2026-05-02T13:07:49.443Z</time></trkpt><trkpt lat="44.0093017" lon="12.5491433"><ele>28.000000000000004</ele><time>2026-05-02T13:07:51.443Z</time></trkpt><trkpt lat="44.0092467" lon="12.5492317"><ele>28.0</ele><time>2026-05-02T13:07:53.443Z</time></trkpt><trkpt lat="44.009195" lon="12.5493233"><ele>28.0</ele><time>2026-05-02T13:07:55.441Z</time></trkpt><trkpt lat="44.0091383" lon="12.5494233"><ele>28.0</ele><time>2026-05-02T13:07:57.439Z</time></trkpt><trkpt lat="44.009075" lon="12.5495233"><ele>28.000000000000004</ele><time>2026-05-02T13:07:59.44Z</time></trkpt><trkpt lat="44.00902" lon="12.5496283"><ele>28.0</ele><time>2026-05-02T13:08:01.439Z</time></trkpt><trkpt lat="44.0089617" lon="12.54972"><ele>27.833333333333336</ele><time>2026-05-02T13:08:03.44Z</time></trkpt><trkpt lat="44.0089117" lon="12.5498133"><ele>27.666666666666668</ele><time>2026-05-02T13:08:05.44Z</time></trkpt><trkpt lat="44.0088583" lon="12.549895"><ele>27.5</ele><time>2026-05-02T13:08:07.439Z</time></trkpt><trkpt lat="44.0088083" lon="12.54998"><ele>27.333333333333336</ele><time>2026-05-02T13:08:09.44Z</time></trkpt><trkpt lat="44.0087467" lon="12.5500817"><ele>27.166666666666668</ele><time>2026-05-02T13:08:11.44Z</time></trkpt><trkpt lat="44.0086867" lon="12.550185"><ele>27.0</ele><time>2026-05-02T13:08:13.44Z</time></trkpt><trkpt lat="44.0086383" lon="12.5502867"><ele>27.333333333333332</ele><time>2026-05-02T13:08:15.442Z</time></trkpt><trkpt lat="44.008615" lon="12.5503867"><ele>27.666666666666664</ele><time>2026-05-02T13:08:17.443Z</time></trkpt><trkpt lat="44.00862" lon="12.5505"><ele>28.0</ele><time>2026-05-02T13:08:19.443Z</time></trkpt><trkpt lat="44.0086267" lon="12.55061"><ele>28.333333333333332</ele><time>2026-05-02T13:08:21.443Z</time></trkpt><trkpt lat="44.0086367" lon="12.5507033"><ele>28.666666666666664</ele><time>2026-05-02T13:08:23.443Z</time></trkpt><trkpt lat="44.0086917" lon="12.550795"><ele>29.0</ele><time>2026-05-02T13:08:26.439Z</time></trkpt><trkpt lat="44.0087667" lon="12.5508767"><ele>28.999999999999996</ele><time>2026-05-02T13:08:29.441Z</time></trkpt><trkpt lat="44.0088183" lon="12.5509417"><ele>29.0</ele><time>2026-05-02T13:08:31.441Z</time></trkpt><trkpt lat="44.0088617" lon="12.5510067"><ele>29.0</ele><time>2026-05-02T13:08:33.439Z</time></trkpt><trkpt lat="44.008915" lon="12.5510867"><ele>29.0</ele><time>2026-05-02T13:08:35.441Z</time></trkpt><trkpt lat="44.0089783" lon="12.5511883"><ele>28.999999999999996</ele><time>2026-05-02T13:08:37.442Z</time></trkpt><trkpt lat="44.009045" lon="12.5512783"><ele>29.0</ele><time>2026-05-02T13:08:39.441Z</time></trkpt><trkpt lat="44.0090983" lon="12.5513733"><ele>28.571428571428577</ele><time>2026-05-02T13:08:41.441Z</time></trkpt><trkpt lat="44.009135" lon="12.5514733"><ele>28.142857142857146</ele><time>2026-05-02T13:08:43.439Z</time></trkpt><trkpt lat="44.009135" lon="12.55158"><ele>27.714285714285715</ele><time>2026-05-02T13:08:45.44Z</time></trkpt><trkpt lat="44.0091117" lon="12.551675"><ele>27.28571428571429</ele><time>2026-05-02T13:08:47.442Z</time></trkpt><trkpt lat="44.009065" lon="12.55175"><ele>26.85714285714286</ele><time>2026-05-02T13:08:49.442Z</time></trkpt><trkpt lat="44.0090117" lon="12.5518133"><ele>26.428571428571427</ele><time>2026-05-02T13:08:51.442Z</time></trkpt><trkpt lat="44.00896" lon="12.55187"><ele>26.0</ele><time>2026-05-02T13:08:53.442Z</time></trkpt><trkpt lat="44.0089033" lon="12.5519183"><ele>25.999999999999996</ele><time>2026-05-02T13:08:55.44Z</time></trkpt><trkpt lat="44.0088367" lon="12.55197"><ele>26.0</ele><time>2026-05-02T13:08:57.44Z</time></trkpt><trkpt lat="44.008755" lon="12.5520067"><ele>26.0</ele><time>2026-05-02T13:08:59.439Z</time></trkpt><trkpt lat="44.0086717" lon="12.5520333"><ele>26.0</ele><time>2026-05-02T13:09:01.439Z</time></trkpt><trkpt lat="44.0085917" lon="12.5520733"><ele>25.999999999999996</ele><time>2026-05-02T13:09:03.441Z</time></trkpt><trkpt lat="44.00851" lon="12.5521167"><ele>26.0</ele><time>2026-05-02T13:09:05.44Z</time></trkpt><trkpt lat="44.008435" lon="12.5521667"><ele>25.833333333333332</ele><time>2026-05-02T13:09:07.44Z</time></trkpt><trkpt lat="44.0083617" lon="12.552215"><ele>25.666666666666664</ele><time>2026-05-02T13:09:09.439Z</time></trkpt><trkpt lat="44.0083" lon="12.5522717"><ele>25.5</ele><time>2026-05-02T13:09:11.44Z</time></trkpt><trkpt lat="44.0082367" lon="12.5523183"><ele>25.333333333333336</ele><time>2026-05-02T13:09:13.44Z</time></trkpt><trkpt lat="44.0081667" lon="12.5523817"><ele>25.166666666666668</ele><time>2026-05-02T13:09:15.44Z</time></trkpt><trkpt lat="44.0080983" lon="12.5524433"><ele>25.0</ele><time>2026-05-02T13:09:17.445Z</time></trkpt><trkpt lat="44.0080233" lon="12.552515"><ele>25.4</ele><time>2026-05-02T13:09:19.442Z</time></trkpt><trkpt lat="44.00795" lon="12.5525917"><ele>25.8</ele><time>2026-05-02T13:09:21.443Z</time></trkpt><trkpt lat="44.0078883" lon="12.552685"><ele>26.200000000000003</ele><time>2026-05-02T13:09:23.443Z</time></trkpt><trkpt lat="44.0078283" lon="12.5527733"><ele>26.6</ele><time>2026-05-02T13:09:25.439Z</time></trkpt><trkpt lat="44.00776" lon="12.5528583"><ele>27.0</ele><time>2026-05-02T13:09:27.444Z</time></trkpt><trkpt lat="44.0076883" lon="12.5529517"><ele>27.0</ele><time>2026-05-02T13:09:29.439Z</time></trkpt><trkpt lat="44.0076167" lon="12.5530383"><ele>27.000000000000004</ele><time>2026-05-02T13:09:31.44Z</time></trkpt><trkpt lat="44.0075533" lon="12.5531283"><ele>27.000000000000004</ele><time>2026-05-02T13:09:33.44Z</time></trkpt><trkpt lat="44.0074833" lon="12.5532167"><ele>27.0</ele><time>2026-05-02T13:09:35.439Z</time></trkpt><trkpt lat="44.007415" lon="12.5533133"><ele>27.0</ele><time>2026-05-02T13:09:37.443Z</time></trkpt><trkpt lat="44.00734" lon="12.5534067"><ele>27.0</ele><time>2026-05-02T13:09:39.438Z</time></trkpt><trkpt lat="44.00726" lon="12.5535017"><ele>27.000000000000004</ele><time>2026-05-02T13:09:41.438Z</time></trkpt><trkpt lat="44.00718" lon="12.5535883"><ele>27.000000000000004</ele><time>2026-05-02T13:09:43.44Z</time></trkpt><trkpt lat="44.0071" lon="12.5536683"><ele>27.0</ele><time>2026-05-02T13:09:45.439Z</time></trkpt><trkpt lat="44.007025" lon="12.55375"><ele>27.0</ele><time>2026-05-02T13:09:47.441Z</time></trkpt><trkpt lat="44.0069467" lon="12.5538383"><ele>27.0</ele><time>2026-05-02T13:09:49.439Z</time></trkpt><trkpt lat="44.00686" lon="12.553925"><ele>27.000000000000004</ele><time>2026-05-02T13:09:51.438Z</time></trkpt><trkpt lat="44.00678" lon="12.554005"><ele>27.000000000000004</ele><time>2026-05-02T13:09:53.439Z</time></trkpt><trkpt lat="44.0066917" lon="12.5540767"><ele>27.0</ele><time>2026-05-02T13:09:55.44Z</time></trkpt><trkpt lat="44.0066067" lon="12.5541467"><ele>27.0</ele><time>2026-05-02T13:09:57.44Z</time></trkpt><trkpt lat="44.0065167" lon="12.5542083"><ele>27.6</ele><time>2026-05-02T13:09:59.439Z</time></trkpt><trkpt lat="44.006425" lon="12.55427"><ele>28.200000000000003</ele><time>2026-05-02T13:10:01.439Z</time></trkpt><trkpt lat="44.0063333" lon="12.554335"><ele>28.8</ele><time>2026-05-02T13:10:03.439Z</time></trkpt><trkpt lat="44.0062417" lon="12.5543967"><ele>29.4</ele><time>2026-05-02T13:10:05.439Z</time></trkpt><trkpt lat="44.006155" lon="12.5544467"><ele>30.0</ele><time>2026-05-02T13:10:07.439Z</time></trkpt><trkpt lat="44.0060633" lon="12.55449"><ele>30.2</ele><time>2026-05-02T13:10:09.439Z</time></trkpt><trkpt lat="44.0059667" lon="12.554545"><ele>30.4</ele><time>2026-05-02T13:10:11.44Z</time></trkpt><trkpt lat="44.00587" lon="12.5545967"><ele>30.6</ele><time>2026-05-02T13:10:13.439Z</time></trkpt><trkpt lat="44.0057817" lon="12.5546517"><ele>30.8</ele><time>2026-05-02T13:10:15.439Z</time></trkpt><trkpt lat="44.0056983" lon="12.5546917"><ele>31.0</ele><time>2026-05-02T13:10:17.443Z</time></trkpt><trkpt lat="44.0056067" lon="12.554715"><ele>31.0</ele><time>2026-05-02T13:10:19.441Z</time></trkpt><trkpt lat="44.0055167" lon="12.5547517"><ele>31.0</ele><time>2026-05-02T13:10:21.44Z</time></trkpt><trkpt lat="44.005425" lon="12.5547983"><ele>31.0</ele><time>2026-05-02T13:10:23.44Z</time></trkpt><trkpt lat="44.0053333" lon="12.5548633"><ele>31.0</ele><time>2026-05-02T13:10:25.44Z</time></trkpt><trkpt lat="44.0052567" lon="12.5549383"><ele>31.0</ele><time>2026-05-02T13:10:27.44Z</time></trkpt><trkpt lat="44.00518" lon="12.55503"><ele>31.0</ele><time>2026-05-02T13:10:29.441Z</time></trkpt><trkpt lat="44.0051033" lon="12.55513"><ele>31.0</ele><time>2026-05-02T13:10:31.44Z</time></trkpt><trkpt lat="44.0050233" lon="12.5552167"><ele>31.0</ele><time>2026-05-02T13:10:33.443Z</time></trkpt><trkpt lat="44.004945" lon="12.55531"><ele>31.0</ele><time>2026-05-02T13:10:35.44Z</time></trkpt><trkpt lat="44.0048667" lon="12.5554"><ele>31.0</ele><time>2026-05-02T13:10:37.44Z</time></trkpt><trkpt lat="44.004785" lon="12.555485"><ele>31.200000000000003</ele><time>2026-05-02T13:10:39.441Z</time></trkpt><trkpt lat="44.004705" lon="12.555555"><ele>31.400000000000002</ele><time>2026-05-02T13:10:41.442Z</time></trkpt><trkpt lat="44.0046267" lon="12.5556267"><ele>31.6</ele><time>2026-05-02T13:10:43.44Z</time></trkpt><trkpt lat="44.0045383" lon="12.5557083"><ele>31.8</ele><time>2026-05-02T13:10:45.44Z</time></trkpt><trkpt lat="44.0044567" lon="12.5557867"><ele>32.0</ele><time>2026-05-02T13:10:47.538Z</time></trkpt><trkpt lat="44.0043733" lon="12.5558633"><ele>32.0</ele><time>2026-05-02T13:10:49.439Z</time></trkpt><trkpt lat="44.0042883" lon="12.5559383"><ele>32.0</ele><time>2026-05-02T13:10:51.438Z</time></trkpt><trkpt lat="44.0042083" lon="12.5560167"><ele>32.0</ele><time>2026-05-02T13:10:53.439Z</time></trkpt><trkpt lat="44.0041233" lon="12.5560883"><ele>32.0</ele><time>2026-05-02T13:10:55.44Z</time></trkpt><trkpt lat="44.004035" lon="12.5561533"><ele>32.0</ele><time>2026-05-02T13:10:57.44Z</time></trkpt><trkpt lat="44.0039467" lon="12.5562133"><ele>32.0</ele><time>2026-05-02T13:10:59.438Z</time></trkpt><trkpt lat="44.00386" lon="12.5562733"><ele>32.0</ele><time>2026-05-02T13:11:01.439Z</time></trkpt><trkpt lat="44.0037767" lon="12.5563517"><ele>32.0</ele><time>2026-05-02T13:11:03.439Z</time></trkpt><trkpt lat="44.0036867" lon="12.5564133"><ele>32.0</ele><time>2026-05-02T13:11:05.439Z</time></trkpt><trkpt lat="44.003595" lon="12.55647"><ele>32.0</ele><time>2026-05-02T13:11:07.438Z</time></trkpt><trkpt lat="44.0035033" lon="12.5565217"><ele>32.0</ele><time>2026-05-02T13:11:09.44Z</time></trkpt><trkpt lat="44.0034117" lon="12.55657"><ele>32.0</ele><time>2026-05-02T13:11:11.44Z</time></trkpt><trkpt lat="44.0033167" lon="12.5566117"><ele>32.0</ele><time>2026-05-02T13:11:13.439Z</time></trkpt><trkpt lat="44.003225" lon="12.55664"><ele>32.0</ele><time>2026-05-02T13:11:15.44Z</time></trkpt><trkpt lat="44.0031383" lon="12.556685"><ele>32.0</ele><time>2026-05-02T13:11:17.442Z</time></trkpt><trkpt lat="44.0030583" lon="12.5567533"><ele>31.8</ele><time>2026-05-02T13:11:19.438Z</time></trkpt><trkpt lat="44.0029783" lon="12.5568217"><ele>31.6</ele><time>2026-05-02T13:11:21.44Z</time></trkpt><trkpt lat="44.002895" lon="12.5569"><ele>31.400000000000002</ele><time>2026-05-02T13:11:23.438Z</time></trkpt><trkpt lat="44.002815" lon="12.5569833"><ele>31.200000000000003</ele><time>2026-05-02T13:11:25.438Z</time></trkpt><trkpt lat="44.00274" lon="12.5570567"><ele>31.0</ele><time>2026-05-02T13:11:27.44Z</time></trkpt><trkpt lat="44.0026617" lon="12.5571283"><ele>31.0</ele><time>2026-05-02T13:11:29.439Z</time></trkpt><trkpt lat="44.0025883" lon="12.5572067"><ele>31.0</ele><time>2026-05-02T13:11:31.438Z</time></trkpt><trkpt lat="44.00251" lon="12.5572917"><ele>31.0</ele><time>2026-05-02T13:11:33.44Z</time></trkpt><trkpt lat="44.0024283" lon="12.5573683"><ele>31.0</ele><time>2026-05-02T13:11:35.439Z</time></trkpt><trkpt lat="44.0023517" lon="12.5574433"><ele>31.0</ele><time>2026-05-02T13:11:37.439Z</time></trkpt><trkpt lat="44.0022717" lon="12.55751"><ele>32.4</ele><time>2026-05-02T13:11:39.442Z</time></trkpt><trkpt lat="44.0021883" lon="12.5575767"><ele>33.8</ele><time>2026-05-02T13:11:41.44Z</time></trkpt><trkpt lat="44.0021067" lon="12.5576333"><ele>35.199999999999996</ele><time>2026-05-02T13:11:43.438Z</time></trkpt><trkpt lat="44.0020183" lon="12.557685"><ele>36.6</ele><time>2026-05-02T13:11:45.44Z</time></trkpt><trkpt lat="44.0019283" lon="12.55773"><ele>38.0</ele><time>2026-05-02T13:11:47.442Z</time></trkpt><trkpt lat="44.0018333" lon="12.5577733"><ele>38.0</ele><time>2026-05-02T13:11:49.44Z</time></trkpt><trkpt lat="44.0017367" lon="12.5578017"><ele>38.0</ele><time>2026-05-02T13:11:51.44Z</time></trkpt><trkpt lat="44.001645" lon="12.5578117"><ele>38.0</ele><time>2026-05-02T13:11:53.44Z</time></trkpt><trkpt lat="44.00155" lon="12.557835"><ele>38.0</ele><time>2026-05-02T13:11:55.439Z</time></trkpt><trkpt lat="44.0014533" lon="12.557865"><ele>38.0</ele><time>2026-05-02T13:11:57.44Z</time></trkpt><trkpt lat="44.001355" lon="12.5579"><ele>37.199999999999996</ele><time>2026-05-02T13:11:59.44Z</time></trkpt><trkpt lat="44.00126" lon="12.5579433"><ele>36.4</ele><time>2026-05-02T13:12:01.439Z</time></trkpt><trkpt lat="44.00117" lon="12.557995"><ele>35.599999999999994</ele><time>2026-05-02T13:12:03.439Z</time></trkpt><trkpt lat="44.0010817" lon="12.5580633"><ele>34.8</ele><time>2026-05-02T13:12:05.44Z</time></trkpt><trkpt lat="44.000995" lon="12.55814"><ele>34.0</ele><time>2026-05-02T13:12:07.44Z</time></trkpt><trkpt lat="44.0009133" lon="12.5582283"><ele>34.4</ele><time>2026-05-02T13:12:09.44Z</time></trkpt><trkpt lat="44.00083" lon="12.5583183"><ele>34.8</ele><time>2026-05-02T13:12:11.44Z</time></trkpt><trkpt lat="44.000745" lon="12.558405"><ele>35.2</ele><time>2026-05-02T13:12:13.439Z</time></trkpt><trkpt lat="44.0006617" lon="12.5584867"><ele>35.6</ele><time>2026-05-02T13:12:15.44Z</time></trkpt><trkpt lat="44.0005733" lon="12.5585717"><ele>36.0</ele><time>2026-05-02T13:12:17.441Z</time></trkpt><trkpt lat="44.0004883" lon="12.5586667"><ele>35.0</ele><time>2026-05-02T13:12:19.438Z</time></trkpt><trkpt lat="44.0004017" lon="12.558765"><ele>34.0</ele><time>2026-05-02T13:12:21.438Z</time></trkpt><trkpt lat="44.000315" lon="12.5588683"><ele>33.0</ele><time>2026-05-02T13:12:23.44Z</time></trkpt><trkpt lat="44.00023" lon="12.5589733"><ele>32.0</ele><time>2026-05-02T13:12:25.44Z</time></trkpt><trkpt lat="44.0001433" lon="12.5590733"><ele>32.0</ele><time>2026-05-02T13:12:27.44Z</time></trkpt><trkpt lat="44.0000583" lon="12.5591667"><ele>32.0</ele><time>2026-05-02T13:12:29.44Z</time></trkpt><trkpt lat="43.9999767" lon="12.55924"><ele>32.0</ele><time>2026-05-02T13:12:31.441Z</time></trkpt><trkpt lat="43.9998967" lon="12.5593033"><ele>32.0</ele><time>2026-05-02T13:12:33.44Z</time></trkpt><trkpt lat="43.9998133" lon="12.55938"><ele>32.0</ele><time>2026-05-02T13:12:35.439Z</time></trkpt><trkpt lat="43.9997283" lon="12.559445"><ele>32.0</ele><time>2026-05-02T13:12:37.44Z</time></trkpt><trkpt lat="43.99964" lon="12.5595017"><ele>32.0</ele><time>2026-05-02T13:12:39.44Z</time></trkpt><trkpt lat="43.999545" lon="12.5595533"><ele>32.0</ele><time>2026-05-02T13:12:41.439Z</time></trkpt><trkpt lat="43.999455" lon="12.5596067"><ele>32.0</ele><time>2026-05-02T13:12:43.439Z</time></trkpt><trkpt lat="43.9993617" lon="12.559665"><ele>32.0</ele><time>2026-05-02T13:12:45.439Z</time></trkpt><trkpt lat="43.9992683" lon="12.559725"><ele>32.0</ele><time>2026-05-02T13:12:47.443Z</time></trkpt><trkpt lat="43.9991833" lon="12.55978"><ele>32.0</ele><time>2026-05-02T13:12:49.439Z</time></trkpt><trkpt lat="43.9991017" lon="12.5598483"><ele>32.0</ele><time>2026-05-02T13:12:51.439Z</time></trkpt><trkpt lat="43.9990117" lon="12.55991"><ele>32.0</ele><time>2026-05-02T13:12:53.44Z</time></trkpt><trkpt lat="43.99892" lon="12.5599667"><ele>32.0</ele><time>2026-05-02T13:12:55.44Z</time></trkpt><trkpt lat="43.99883" lon="12.5600267"><ele>32.2</ele><time>2026-05-02T13:12:57.439Z</time></trkpt><trkpt lat="43.9987383" lon="12.560085"><ele>32.400000000000006</ele><time>2026-05-02T13:12:59.44Z</time></trkpt><trkpt lat="43.9986483" lon="12.5601383"><ele>32.599999999999994</ele><time>2026-05-02T13:13:01.44Z</time></trkpt><trkpt lat="43.99856" lon="12.5601817"><ele>32.8</ele><time>2026-05-02T13:13:03.439Z</time></trkpt><trkpt lat="43.9984683" lon="12.5602267"><ele>33.0</ele><time>2026-05-02T13:13:05.439Z</time></trkpt><trkpt lat="43.9983717" lon="12.5602733"><ele>33.199999999999996</ele><time>2026-05-02T13:13:07.439Z</time></trkpt><trkpt lat="43.9982783" lon="12.560315"><ele>33.4</ele><time>2026-05-02T13:13:09.442Z</time></trkpt><trkpt lat="43.9981883" lon="12.5603483"><ele>33.599999999999994</ele><time>2026-05-02T13:13:11.441Z</time></trkpt><trkpt lat="43.998095" lon="12.5603767"><ele>33.8</ele><time>2026-05-02T13:13:13.44Z</time></trkpt><trkpt lat="43.9980033" lon="12.5604"><ele>34.0</ele><time>2026-05-02T13:13:15.439Z</time></trkpt><trkpt lat="43.9979083" lon="12.5604167"><ele>34.0</ele><time>2026-05-02T13:13:17.443Z</time></trkpt><trkpt lat="43.99781" lon="12.5604133"><ele>34.0</ele><time>2026-05-02T13:13:19.44Z</time></trkpt><trkpt lat="43.9977133" lon="12.5603933"><ele>34.0</ele><time>2026-05-02T13:13:21.44Z</time></trkpt><trkpt lat="43.99762" lon="12.5603633"><ele>34.0</ele><time>2026-05-02T13:13:23.44Z</time></trkpt><trkpt lat="43.9975267" lon="12.5603233"><ele>34.0</ele><time>2026-05-02T13:13:25.44Z</time></trkpt><trkpt lat="43.997435" lon="12.5602767"><ele>34.16666666666667</ele><time>2026-05-02T13:13:27.44Z</time></trkpt><trkpt lat="43.9973417" lon="12.56024"><ele>34.333333333333336</ele><time>2026-05-02T13:13:29.44Z</time></trkpt><trkpt lat="43.997245" lon="12.5602333"><ele>34.5</ele><time>2026-05-02T13:13:31.439Z</time></trkpt><trkpt lat="43.9971567" lon="12.56025"><ele>34.666666666666664</ele><time>2026-05-02T13:13:33.439Z</time></trkpt><trkpt lat="43.9970867" lon="12.5602933"><ele>34.83333333333333</ele><time>2026-05-02T13:13:35.439Z</time></trkpt><trkpt lat="43.9970433" lon="12.5603783"><ele>35.0</ele><time>2026-05-02T13:13:38.442Z</time></trkpt><trkpt lat="43.9970317" lon="12.5604717"><ele>35.142857142857146</ele><time>2026-05-02T13:13:41.439Z</time></trkpt><trkpt lat="43.99702" lon="12.5605583"><ele>35.285714285714285</ele><time>2026-05-02T13:13:44.44Z</time></trkpt><trkpt lat="43.997015" lon="12.56066"><ele>35.42857142857143</ele><time>2026-05-02T13:13:47.442Z</time></trkpt><trkpt lat="43.997015" lon="12.5607717"><ele>35.57142857142857</ele><time>2026-05-02T13:13:50.443Z</time></trkpt><trkpt lat="43.997005" lon="12.5608833"><ele>35.714285714285715</ele><time>2026-05-02T13:13:53.442Z</time></trkpt><trkpt lat="43.9969967" lon="12.560985"><ele>35.85714285714286</ele><time>2026-05-02T13:13:56.44Z</time></trkpt><trkpt lat="43.996975" lon="12.5610883"><ele>36.0</ele><time>2026-05-02T13:13:59.439Z</time></trkpt><trkpt lat="43.9969533" lon="12.5611967"><ele>36.0</ele><time>2026-05-02T13:14:02.439Z</time></trkpt><trkpt lat="43.9969367" lon="12.5613217"><ele>36.0</ele><time>2026-05-02T13:14:05.439Z</time></trkpt><trkpt lat="43.9969233" lon="12.561425"><ele>36.0</ele><time>2026-05-02T13:14:07.44Z</time></trkpt><trkpt lat="43.9969133" lon="12.5615433"><ele>36.0</ele><time>2026-05-02T13:14:09.441Z</time></trkpt><trkpt lat="43.9969033" lon="12.5616833"><ele>36.0</ele><time>2026-05-02T13:14:11.44Z</time></trkpt><trkpt lat="43.99688" lon="12.5618333"><ele>36.0</ele><time>2026-05-02T13:14:13.439Z</time></trkpt><trkpt lat="43.9968483" lon="12.5619967"><ele>36.0</ele><time>2026-05-02T13:14:15.44Z</time></trkpt><trkpt lat="43.996845" lon="12.5620867"><ele>36.0</ele><time>2026-05-02T13:14:16.445Z</time></trkpt><trkpt lat="43.9968483" lon="12.5622567"><ele>36.0</ele><time>2026-05-02T13:14:18.442Z</time></trkpt><trkpt lat="43.9968633" lon="12.5623417"><ele>36.0</ele><time>2026-05-02T13:14:19.441Z</time></trkpt><trkpt lat="43.996915" lon="12.5624983"><ele>35.4</ele><time>2026-05-02T13:14:21.443Z</time></trkpt><trkpt lat="43.9969717" lon="12.5626533"><ele>34.8</ele><time>2026-05-02T13:14:23.441Z</time></trkpt><trkpt lat="43.99703" lon="12.562805"><ele>34.199999999999996</ele><time>2026-05-02T13:14:25.44Z</time></trkpt><trkpt lat="43.9970617" lon="12.5628817"><ele>33.6</ele><time>2026-05-02T13:14:26.438Z</time></trkpt><trkpt lat="43.9971217" lon="12.56303"><ele>33.0</ele><time>2026-05-02T13:14:28.438Z</time></trkpt><trkpt lat="43.9971817" lon="12.5631833"><ele>33.0</ele><time>2026-05-02T13:14:30.44Z</time></trkpt><trkpt lat="43.9972183" lon="12.563255"><ele>33.0</ele><time>2026-05-02T13:14:31.438Z</time></trkpt><trkpt lat="43.9972967" lon="12.5633817"><ele>33.0</ele><time>2026-05-02T13:14:33.442Z</time></trkpt><trkpt lat="43.9973867" lon="12.563485"><ele>33.0</ele><time>2026-05-02T13:14:35.441Z</time></trkpt><trkpt lat="43.9974733" lon="12.56356"><ele>33.0</ele><time>2026-05-02T13:14:37.441Z</time></trkpt><trkpt lat="43.997535" lon="12.563655"><ele>33.0</ele><time>2026-05-02T13:14:39.438Z</time></trkpt><trkpt lat="43.9975067" lon="12.56376"><ele>33.0</ele><time>2026-05-02T13:14:41.44Z</time></trkpt><trkpt lat="43.9974267" lon="12.5638117"><ele>33.0</ele><time>2026-05-02T13:14:43.438Z</time></trkpt><trkpt lat="43.9973533" lon="12.5638467"><ele>33.0</ele><time>2026-05-02T13:14:45.44Z</time></trkpt><trkpt lat="43.9972917" lon="12.56388"><ele>33.0</ele><time>2026-05-02T13:14:47.442Z</time></trkpt><trkpt lat="43.9972233" lon="12.56392"><ele>33.0</ele><time>2026-05-02T13:14:49.441Z</time></trkpt><trkpt lat="43.9971367" lon="12.5639483"><ele>33.0</ele><time>2026-05-02T13:14:51.442Z</time></trkpt><trkpt lat="43.9970467" lon="12.5639933"><ele>33.0</ele><time>2026-05-02T13:14:53.442Z</time></trkpt><trkpt lat="43.9969567" lon="12.5640517"><ele>33.0</ele><time>2026-05-02T13:14:55.439Z</time></trkpt><trkpt lat="43.9968833" lon="12.5641033"><ele>33.0</ele><time>2026-05-02T13:14:57.438Z</time></trkpt><trkpt lat="43.996815" lon="12.5641483"><ele>33.0</ele><time>2026-05-02T13:14:59.439Z</time></trkpt><trkpt lat="43.9967283" lon="12.564205"><ele>33.0</ele><time>2026-05-02T13:15:01.439Z</time></trkpt><trkpt lat="43.9966317" lon="12.5642617"><ele>33.333333333333336</ele><time>2026-05-02T13:15:03.44Z</time></trkpt><trkpt lat="43.996535" lon="12.56431"><ele>33.666666666666664</ele><time>2026-05-02T13:15:05.44Z</time></trkpt><trkpt lat="43.9964467" lon="12.5643483"><ele>34.0</ele><time>2026-05-02T13:15:07.439Z</time></trkpt><trkpt lat="43.99637" lon="12.5643983"><ele>34.33333333333333</ele><time>2026-05-02T13:15:09.44Z</time></trkpt><trkpt lat="43.9963067" lon="12.56446"><ele>34.666666666666664</ele><time>2026-05-02T13:15:11.44Z</time></trkpt><trkpt lat="43.996265" lon="12.564545"><ele>35.0</ele><time>2026-05-02T13:15:13.438Z</time></trkpt><trkpt lat="43.99623" lon="12.564655"><ele>35.0</ele><time>2026-05-02T13:15:15.439Z</time></trkpt><trkpt lat="43.9962233" lon="12.564785"><ele>35.0</ele><time>2026-05-02T13:15:17.441Z</time></trkpt><trkpt lat="43.9962433" lon="12.564945"><ele>35.0</ele><time>2026-05-02T13:15:19.439Z</time></trkpt><trkpt lat="43.99626" lon="12.565085"><ele>35.0</ele><time>2026-05-02T13:15:21.44Z</time></trkpt><trkpt lat="43.9962767" lon="12.565215"><ele>35.0</ele><time>2026-05-02T13:15:23.439Z</time></trkpt><trkpt lat="43.9962967" lon="12.5653333"><ele>34.6</ele><time>2026-05-02T13:15:25.439Z</time></trkpt><trkpt lat="43.9963117" lon="12.565465"><ele>34.2</ele><time>2026-05-02T13:15:27.44Z</time></trkpt><trkpt lat="43.99633" lon="12.5656117"><ele>33.8</ele><time>2026-05-02T13:15:29.438Z</time></trkpt><trkpt lat="43.996315" lon="12.5657383"><ele>33.4</ele><time>2026-05-02T13:15:31.442Z</time></trkpt><trkpt lat="43.9962667" lon="12.5658433"><ele>33.0</ele><time>2026-05-02T13:15:33.44Z</time></trkpt><trkpt lat="43.9961933" lon="12.56589"><ele>33.0</ele><time>2026-05-02T13:15:35.439Z</time></trkpt><trkpt lat="43.9961183" lon="12.5659267"><ele>33.0</ele><time>2026-05-02T13:15:37.438Z</time></trkpt><trkpt lat="43.9960333" lon="12.5659717"><ele>33.0</ele><time>2026-05-02T13:15:39.439Z</time></trkpt><trkpt lat="43.9959333" lon="12.56603"><ele>33.0</ele><time>2026-05-02T13:15:41.439Z</time></trkpt><trkpt lat="43.9958333" lon="12.56608"><ele>33.0</ele><time>2026-05-02T13:15:43.439Z</time></trkpt><trkpt lat="43.9957417" lon="12.56613"><ele>33.166666666666664</ele><time>2026-05-02T13:15:45.44Z</time></trkpt><trkpt lat="43.9956517" lon="12.5661817"><ele>33.333333333333336</ele><time>2026-05-02T13:15:47.441Z</time></trkpt><trkpt lat="43.995575" lon="12.566225"><ele>33.5</ele><time>2026-05-02T13:15:49.442Z</time></trkpt><trkpt lat="43.9955033" lon="12.566265"><ele>33.66666666666667</ele><time>2026-05-02T13:15:51.441Z</time></trkpt><trkpt lat="43.9954367" lon="12.5662967"><ele>33.833333333333336</ele><time>2026-05-02T13:15:53.441Z</time></trkpt><trkpt lat="43.9953517" lon="12.5663267"><ele>34.0</ele><time>2026-05-02T13:15:56.44Z</time></trkpt><trkpt lat="43.9952617" lon="12.5663483"><ele>34.2</ele><time>2026-05-02T13:15:59.44Z</time></trkpt><trkpt lat="43.9951833" lon="12.5663683"><ele>34.4</ele><time>2026-05-02T13:16:01.44Z</time></trkpt><trkpt lat="43.9950917" lon="12.56638"><ele>34.6</ele><time>2026-05-02T13:16:03.441Z</time></trkpt><trkpt lat="43.994985" lon="12.56639"><ele>34.8</ele><time>2026-05-02T13:16:05.44Z</time></trkpt><trkpt lat="43.9948983" lon="12.5663967"><ele>35.0</ele><time>2026-05-02T13:16:07.44Z</time></trkpt><trkpt lat="43.9948133" lon="12.56643"><ele>35.0</ele><time>2026-05-02T13:16:09.44Z</time></trkpt><trkpt lat="43.9948067" lon="12.56652"><ele>35.0</ele><time>2026-05-02T13:16:11.44Z</time></trkpt><trkpt lat="43.9948233" lon="12.5666267"><ele>35.0</ele><time>2026-05-02T13:16:13.442Z</time></trkpt><trkpt lat="43.994845" lon="12.5667167"><ele>35.0</ele><time>2026-05-02T13:16:15.441Z</time></trkpt><trkpt lat="43.99487" lon="12.5668217"><ele>35.0</ele><time>2026-05-02T13:16:17.442Z</time></trkpt><trkpt lat="43.994895" lon="12.5669483"><ele>35.0</ele><time>2026-05-02T13:16:19.44Z</time></trkpt><trkpt lat="43.9949267" lon="12.567085"><ele>35.0</ele><time>2026-05-02T13:16:21.44Z</time></trkpt><trkpt lat="43.9949517" lon="12.5672217"><ele>35.0</ele><time>2026-05-02T13:16:23.439Z</time></trkpt><trkpt lat="43.9949733" lon="12.5673633"><ele>35.0</ele><time>2026-05-02T13:16:25.439Z</time></trkpt><trkpt lat="43.9949983" lon="12.5675"><ele>35.0</ele><time>2026-05-02T13:16:27.439Z</time></trkpt><trkpt lat="43.9950267" lon="12.5676333"><ele>35.0</ele><time>2026-05-02T13:16:29.44Z</time></trkpt><trkpt lat="43.9950533" lon="12.5677717"><ele>35.0</ele><time>2026-05-02T13:16:31.438Z</time></trkpt><trkpt lat="43.99508" lon="12.567905"><ele>35.0</ele><time>2026-05-02T13:16:33.443Z</time></trkpt><trkpt lat="43.9951017" lon="12.5680383"><ele>35.0</ele><time>2026-05-02T13:16:35.439Z</time></trkpt><trkpt lat="43.9951233" lon="12.5681667"><ele>35.0</ele><time>2026-05-02T13:16:37.44Z</time></trkpt><trkpt lat="43.9951417" lon="12.568285"><ele>35.0</ele><time>2026-05-02T13:16:39.439Z</time></trkpt><trkpt lat="43.9951633" lon="12.5684083"><ele>35.0</ele><time>2026-05-02T13:16:41.44Z</time></trkpt><trkpt lat="43.9951933" lon="12.568535"><ele>35.0</ele><time>2026-05-02T13:16:43.44Z</time></trkpt><trkpt lat="43.995215" lon="12.5686583"><ele>35.0</ele><time>2026-05-02T13:16:45.443Z</time></trkpt><trkpt lat="43.9952417" lon="12.568785"><ele>35.0</ele><time>2026-05-02T13:16:47.439Z</time></trkpt><trkpt lat="43.995265" lon="12.568915"><ele>35.0</ele><time>2026-05-02T13:16:49.439Z</time></trkpt><trkpt lat="43.9952783" lon="12.5690367"><ele>35.0</ele><time>2026-05-02T13:16:51.441Z</time></trkpt><trkpt lat="43.9953017" lon="12.56916"><ele>35.0</ele><time>2026-05-02T13:16:53.439Z</time></trkpt><trkpt lat="43.995325" lon="12.56928"><ele>35.0</ele><time>2026-05-02T13:16:55.44Z</time></trkpt><trkpt lat="43.9953417" lon="12.5693983"><ele>35.0</ele><time>2026-05-02T13:16:57.439Z</time></trkpt><trkpt lat="43.9953633" lon="12.56952"><ele>35.0</ele><time>2026-05-02T13:16:59.439Z</time></trkpt><trkpt lat="43.9953883" lon="12.5696467"><ele>35.0</ele><time>2026-05-02T13:17:01.439Z</time></trkpt><trkpt lat="43.9954183" lon="12.569775"><ele>35.0</ele><time>2026-05-02T13:17:03.444Z</time></trkpt><trkpt lat="43.9954433" lon="12.5699017"><ele>35.0</ele><time>2026-05-02T13:17:05.44Z</time></trkpt><trkpt lat="43.9954633" lon="12.5700267"><ele>35.0</ele><time>2026-05-02T13:17:07.439Z</time></trkpt><trkpt lat="43.9954867" lon="12.5701533"><ele>35.0</ele><time>2026-05-02T13:17:09.441Z</time></trkpt><trkpt lat="43.9955117" lon="12.5702867"><ele>35.0</ele><time>2026-05-02T13:17:11.44Z</time></trkpt><trkpt lat="43.9955333" lon="12.57042"><ele>35.0</ele><time>2026-05-02T13:17:13.44Z</time></trkpt><trkpt lat="43.99556" lon="12.5705517"><ele>35.0</ele><time>2026-05-02T13:17:15.439Z</time></trkpt><trkpt lat="43.9955817" lon="12.5706883"><ele>35.0</ele><time>2026-05-02T13:17:17.442Z</time></trkpt><trkpt lat="43.995605" lon="12.5708217"><ele>35.0</ele><time>2026-05-02T13:17:19.44Z</time></trkpt><trkpt lat="43.9956267" lon="12.5709533"><ele>35.0</ele><time>2026-05-02T13:17:21.44Z</time></trkpt><trkpt lat="43.9956483" lon="12.5710817"><ele>35.0</ele><time>2026-05-02T13:17:23.439Z</time></trkpt><trkpt lat="43.995675" lon="12.5712133"><ele>35.0</ele><time>2026-05-02T13:17:25.44Z</time></trkpt><trkpt lat="43.9956983" lon="12.5713417"><ele>35.0</ele><time>2026-05-02T13:17:27.439Z</time></trkpt><trkpt lat="43.99572" lon="12.5714733"><ele>35.0</ele><time>2026-05-02T13:17:29.439Z</time></trkpt><trkpt lat="43.995745" lon="12.571605"><ele>34.83333333333333</ele><time>2026-05-02T13:17:31.44Z</time></trkpt><trkpt lat="43.9957683" lon="12.5717367"><ele>34.666666666666664</ele><time>2026-05-02T13:17:33.44Z</time></trkpt><trkpt lat="43.9957933" lon="12.571865"><ele>34.5</ele><time>2026-05-02T13:17:35.439Z</time></trkpt><trkpt lat="43.9958083" lon="12.5719633"><ele>34.333333333333336</ele><time>2026-05-02T13:17:37.44Z</time></trkpt><trkpt lat="43.9957183" lon="12.5720017"><ele>34.16666666666667</ele><time>2026-05-02T13:17:53.441Z</time></trkpt><trkpt lat="43.99566" lon="12.571955"><ele>34.0</ele><time>2026-05-02T13:17:56.44Z</time></trkpt><trkpt lat="43.9955833" lon="12.5719167"><ele>33.99999999999999</ele><time>2026-05-02T13:17:59.44Z</time></trkpt><trkpt lat="43.995525" lon="12.571875"><ele>34.0</ele><time>2026-05-02T13:18:01.439Z</time></trkpt><trkpt lat="43.9954667" lon="12.5718383"><ele>34.0</ele><time>2026-05-02T13:18:03.44Z</time></trkpt><trkpt lat="43.995395" lon="12.571785"><ele>34.0</ele><time>2026-05-02T13:18:06.44Z</time></trkpt><trkpt lat="43.9953383" lon="12.571735"><ele>34.0</ele><time>2026-05-02T13:18:09.44Z</time></trkpt><trkpt lat="43.9952867" lon="12.5718017"><ele>33.99999999999999</ele><time>2026-05-02T13:18:13.439Z</time></trkpt><trkpt lat="43.9952717" lon="12.5719033"><ele>34.0</ele><time>2026-05-02T13:18:16.442Z</time></trkpt><trkpt lat="43.9952167" lon="12.5720117"><ele>33.99999999999999</ele><time>2026-05-02T13:18:19.442Z</time></trkpt><trkpt lat="43.995185" lon="12.572105"><ele>34.0</ele><time>2026-05-02T13:18:21.443Z</time></trkpt><trkpt lat="43.9951533" lon="12.5721817"><ele>34.0</ele><time>2026-05-02T13:18:23.443Z</time></trkpt><trkpt lat="43.995115" lon="12.572285"><ele>34.0</ele><time>2026-05-02T13:18:26.44Z</time></trkpt><trkpt lat="43.9950883" lon="12.5723717"><ele>34.0</ele><time>2026-05-02T13:18:28.44Z</time></trkpt><trkpt lat="43.9950667" lon="12.5724717"><ele>33.99999999999999</ele><time>2026-05-02T13:18:30.44Z</time></trkpt><trkpt lat="43.9950567" lon="12.57258"><ele>34.0</ele><time>2026-05-02T13:18:32.439Z</time></trkpt><trkpt lat="43.9950433" lon="12.5726817"><ele>34.0</ele><time>2026-05-02T13:18:34.44Z</time></trkpt><trkpt lat="43.9950283" lon="12.572785"><ele>34.0</ele><time>2026-05-02T13:18:36.44Z</time></trkpt><trkpt lat="43.9950117" lon="12.57289"><ele>34.0</ele><time>2026-05-02T13:18:38.439Z</time></trkpt><trkpt lat="43.994985" lon="12.5729833"><ele>34.0</ele><time>2026-05-02T13:18:40.44Z</time></trkpt><trkpt lat="43.9949467" lon="12.573075"><ele>34.0</ele><time>2026-05-02T13:18:42.44Z</time></trkpt><trkpt lat="43.9948983" lon="12.573155"><ele>34.0</ele><time>2026-05-02T13:18:44.439Z</time></trkpt><trkpt lat="43.994855" lon="12.5732417"><ele>34.16666666666667</ele><time>2026-05-02T13:18:46.443Z</time></trkpt><trkpt lat="43.994815" lon="12.573335"><ele>34.333333333333336</ele><time>2026-05-02T13:18:48.443Z</time></trkpt><trkpt lat="43.9947783" lon="12.57344"><ele>34.5</ele><time>2026-05-02T13:18:50.443Z</time></trkpt><trkpt lat="43.9947517" lon="12.5735467"><ele>34.666666666666664</ele><time>2026-05-02T13:18:52.442Z</time></trkpt><trkpt lat="43.9947317" lon="12.573655"><ele>34.83333333333333</ele><time>2026-05-02T13:18:54.443Z</time></trkpt><trkpt lat="43.9947067" lon="12.5737583"><ele>35.0</ele><time>2026-05-02T13:18:56.44Z</time></trkpt><trkpt lat="43.99469" lon="12.573865"><ele>35.0</ele><time>2026-05-02T13:18:58.439Z</time></trkpt><trkpt lat="43.99468" lon="12.5739767"><ele>35.0</ele><time>2026-05-02T13:19:00.439Z</time></trkpt><trkpt lat="43.9946717" lon="12.5740883"><ele>35.0</ele><time>2026-05-02T13:19:02.441Z</time></trkpt><trkpt lat="43.9946583" lon="12.5742083"><ele>35.0</ele><time>2026-05-02T13:19:04.44Z</time></trkpt><trkpt lat="43.994635" lon="12.5743283"><ele>35.0</ele><time>2026-05-02T13:19:06.442Z</time></trkpt><trkpt lat="43.9946133" lon="12.5744333"><ele>35.0</ele><time>2026-05-02T13:19:08.439Z</time></trkpt><trkpt lat="43.99459" lon="12.5745267"><ele>34.857142857142854</ele><time>2026-05-02T13:19:10.439Z</time></trkpt><trkpt lat="43.9945733" lon="12.5746167"><ele>34.714285714285715</ele><time>2026-05-02T13:19:12.44Z</time></trkpt><trkpt lat="43.9945467" lon="12.57474"><ele>34.57142857142857</ele><time>2026-05-02T13:19:15.439Z</time></trkpt><trkpt lat="43.9945217" lon="12.5748383"><ele>34.42857142857143</ele><time>2026-05-02T13:19:17.442Z</time></trkpt><trkpt lat="43.9945083" lon="12.57494"><ele>34.285714285714285</ele><time>2026-05-02T13:19:19.441Z</time></trkpt><trkpt lat="43.994495" lon="12.5750317"><ele>34.14285714285714</ele><time>2026-05-02T13:19:21.442Z</time></trkpt><trkpt lat="43.994485" lon="12.575125"><ele>34.0</ele><time>2026-05-02T13:19:23.442Z</time></trkpt><trkpt lat="43.9944983" lon="12.5752467"><ele>34.0</ele><time>2026-05-02T13:19:26.438Z</time></trkpt><trkpt lat="43.9945217" lon="12.5753633"><ele>34.0</ele><time>2026-05-02T13:19:29.439Z</time></trkpt><trkpt lat="43.9945717" lon="12.5754783"><ele>34.0</ele><time>2026-05-02T13:19:32.438Z</time></trkpt><trkpt lat="43.9946183" lon="12.5755617"><ele>34.0</ele><time>2026-05-02T13:19:34.438Z</time></trkpt><trkpt lat="43.9946733" lon="12.5756467"><ele>34.0</ele><time>2026-05-02T13:19:36.441Z</time></trkpt><trkpt lat="43.9947333" lon="12.575735"><ele>34.0</ele><time>2026-05-02T13:19:38.439Z</time></trkpt><trkpt lat="43.99479" lon="12.5758233"><ele>34.0</ele><time>2026-05-02T13:19:40.438Z</time></trkpt><trkpt lat="43.9948517" lon="12.5759133"><ele>34.0</ele><time>2026-05-02T13:19:42.439Z</time></trkpt><trkpt lat="43.99491" lon="12.5760067"><ele>34.0</ele><time>2026-05-02T13:19:44.438Z</time></trkpt><trkpt lat="43.9949733" lon="12.5760967"><ele>34.0</ele><time>2026-05-02T13:19:46.442Z</time></trkpt><trkpt lat="43.995025" lon="12.5761833"><ele>34.0</ele><time>2026-05-02T13:19:48.442Z</time></trkpt><trkpt lat="43.99507" lon="12.57626"><ele>34.0</ele><time>2026-05-02T13:19:50.438Z</time></trkpt><trkpt lat="43.995125" lon="12.5763683"><ele>34.0</ele><time>2026-05-02T13:19:53.441Z</time></trkpt><trkpt lat="43.9951767" lon="12.5764717"><ele>34.0</ele><time>2026-05-02T13:19:56.44Z</time></trkpt><trkpt lat="43.99521" lon="12.5765467"><ele>34.0</ele><time>2026-05-02T13:19:59.439Z</time></trkpt><trkpt lat="43.9952717" lon="12.5766217"><ele>34.0</ele><time>2026-05-02T13:20:03.441Z</time></trkpt><trkpt lat="43.9953367" lon="12.5766983"><ele>34.0</ele><time>2026-05-02T13:20:07.439Z</time></trkpt><trkpt lat="43.9953917" lon="12.5767717"><ele>34.0</ele><time>2026-05-02T13:20:09.439Z</time></trkpt><trkpt lat="43.995435" lon="12.5768367"><ele>34.0</ele><time>2026-05-02T13:20:11.438Z</time></trkpt><trkpt lat="43.9954583" lon="12.5769367"><ele>34.0</ele><time>2026-05-02T13:20:14.439Z</time></trkpt><trkpt lat="43.995465" lon="12.5770683"><ele>34.0</ele><time>2026-05-02T13:20:17.442Z</time></trkpt><trkpt lat="43.9954517" lon="12.577175"><ele>34.0</ele><time>2026-05-02T13:20:20.442Z</time></trkpt><trkpt lat="43.9954333" lon="12.5773033"><ele>34.0</ele><time>2026-05-02T13:20:23.441Z</time></trkpt><trkpt lat="43.995425" lon="12.57741"><ele>34.0</ele><time>2026-05-02T13:20:25.441Z</time></trkpt><trkpt lat="43.99541" lon="12.5775133"><ele>34.0</ele><time>2026-05-02T13:20:27.439Z</time></trkpt><trkpt lat="43.9953983" lon="12.577605"><ele>34.0</ele><time>2026-05-02T13:20:29.438Z</time></trkpt><trkpt lat="43.995385" lon="12.57773"><ele>34.0</ele><time>2026-05-02T13:20:32.438Z</time></trkpt><trkpt lat="43.9953667" lon="12.5778183"><ele>34.0</ele><time>2026-05-02T13:20:34.439Z</time></trkpt><trkpt lat="43.9953533" lon="12.5779183"><ele>34.0</ele><time>2026-05-02T13:20:36.438Z</time></trkpt><trkpt lat="43.9953433" lon="12.5780133"><ele>34.0</ele><time>2026-05-02T13:20:38.439Z</time></trkpt><trkpt lat="43.9953267" lon="12.5781283"><ele>34.0</ele><time>2026-05-02T13:20:41.439Z</time></trkpt><trkpt lat="43.9952983" lon="12.57824"><ele>34.0</ele><time>2026-05-02T13:20:45.44Z</time></trkpt><trkpt lat="43.995305" lon="12.5783367"><ele>34.0</ele><time>2026-05-02T13:20:48.442Z</time></trkpt><trkpt lat="43.995305" lon="12.57846"><ele>34.0</ele><time>2026-05-02T13:20:51.443Z</time></trkpt><trkpt lat="43.9952967" lon="12.5785617"><ele>34.0</ele><time>2026-05-02T13:20:53.441Z</time></trkpt><trkpt lat="43.9952867" lon="12.5786683"><ele>34.0</ele><time>2026-05-02T13:20:55.439Z</time></trkpt><trkpt lat="43.9952733" lon="12.5787567"><ele>34.0</ele><time>2026-05-02T13:20:57.439Z</time></trkpt><trkpt lat="43.995255" lon="12.5788633"><ele>34.0</ele><time>2026-05-02T13:21:00.441Z</time></trkpt><trkpt lat="43.9952233" lon="12.5789533"><ele>34.0</ele><time>2026-05-02T13:21:03.44Z</time></trkpt><trkpt lat="43.9952483" lon="12.5790433"><ele>34.0</ele><time>2026-05-02T13:21:06.441Z</time></trkpt><trkpt lat="43.99533" lon="12.5790233"><ele>34.0</ele><time>2026-05-02T13:21:10.439Z</time></trkpt><trkpt lat="43.9953933" lon="12.5790117"><ele>34.0</ele><time>2026-05-02T13:21:12.439Z</time></trkpt><trkpt lat="43.9954783" lon="12.5790017"><ele>34.0</ele><time>2026-05-02T13:21:14.439Z</time></trkpt><trkpt lat="43.99557" lon="12.5789883"><ele>34.0</ele><time>2026-05-02T13:21:16.443Z</time></trkpt><trkpt lat="43.9956567" lon="12.578985"><ele>34.0</ele><time>2026-05-02T13:21:18.442Z</time></trkpt><trkpt lat="43.9957433" lon="12.5789783"><ele>34.0</ele><time>2026-05-02T13:21:20.442Z</time></trkpt><trkpt lat="43.9958367" lon="12.5789633"><ele>34.0</ele><time>2026-05-02T13:21:22.442Z</time></trkpt><trkpt lat="43.9959283" lon="12.5789483"><ele>34.0</ele><time>2026-05-02T13:21:24.442Z</time></trkpt><trkpt lat="43.996025" lon="12.5789467"><ele>34.0</ele><time>2026-05-02T13:21:26.439Z</time></trkpt><trkpt lat="43.9961217" lon="12.5789417"><ele>34.0</ele><time>2026-05-02T13:21:28.438Z</time></trkpt><trkpt lat="43.996235" lon="12.578935"><ele>34.0</ele><time>2026-05-02T13:21:30.44Z</time></trkpt><trkpt lat="43.9963517" lon="12.5789267"><ele>34.0</ele><time>2026-05-02T13:21:32.44Z</time></trkpt><trkpt lat="43.9964633" lon="12.5789183"><ele>34.0</ele><time>2026-05-02T13:21:34.439Z</time></trkpt><trkpt lat="43.9965567" lon="12.578905"><ele>34.0</ele><time>2026-05-02T13:21:36.44Z</time></trkpt><trkpt lat="43.99665" lon="12.5788933"><ele>34.0</ele><time>2026-05-02T13:21:38.44Z</time></trkpt><trkpt lat="43.9967633" lon="12.5788833"><ele>34.0</ele><time>2026-05-02T13:21:40.438Z</time></trkpt><trkpt lat="43.9968883" lon="12.5788833"><ele>34.0</ele><time>2026-05-02T13:21:42.439Z</time></trkpt><trkpt lat="43.9970017" lon="12.57886"><ele>34.0</ele><time>2026-05-02T13:21:44.439Z</time></trkpt><trkpt lat="43.9971033" lon="12.5788517"><ele>34.0</ele><time>2026-05-02T13:21:46.443Z</time></trkpt><trkpt lat="43.997195" lon="12.578845"><ele>34.0</ele><time>2026-05-02T13:21:48.445Z</time></trkpt><trkpt lat="43.997275" lon="12.578845"><ele>34.0</ele><time>2026-05-02T13:21:50.44Z</time></trkpt><trkpt lat="43.9973667" lon="12.5788467"><ele>34.0</ele><time>2026-05-02T13:21:52.439Z</time></trkpt><trkpt lat="43.9974683" lon="12.57885"><ele>33.8</ele><time>2026-05-02T13:21:54.439Z</time></trkpt><trkpt lat="43.9975683" lon="12.5788483"><ele>33.599999999999994</ele><time>2026-05-02T13:21:56.44Z</time></trkpt><trkpt lat="43.9976717" lon="12.5788633"><ele>33.4</ele><time>2026-05-02T13:21:58.438Z</time></trkpt><trkpt lat="43.9977783" lon="12.5788933"><ele>33.199999999999996</ele><time>2026-05-02T13:22:00.44Z</time></trkpt><trkpt lat="43.9978883" lon="12.5789333"><ele>33.0</ele><time>2026-05-02T13:22:02.439Z</time></trkpt><trkpt lat="43.997985" lon="12.5789733"><ele>33.0</ele><time>2026-05-02T13:22:04.44Z</time></trkpt><trkpt lat="43.9980817" lon="12.57901"><ele>33.0</ele><time>2026-05-02T13:22:06.44Z</time></trkpt><trkpt lat="43.9981767" lon="12.5790367"><ele>33.0</ele><time>2026-05-02T13:22:08.44Z</time></trkpt><trkpt lat="43.9982733" lon="12.5790667"><ele>33.0</ele><time>2026-05-02T13:22:10.439Z</time></trkpt><trkpt lat="43.998365" lon="12.5790983"><ele>33.0</ele><time>2026-05-02T13:22:12.439Z</time></trkpt><trkpt lat="43.998455" lon="12.5791233"><ele>33.4</ele><time>2026-05-02T13:22:14.439Z</time></trkpt><trkpt lat="43.9985517" lon="12.5791483"><ele>33.8</ele><time>2026-05-02T13:22:16.443Z</time></trkpt><trkpt lat="43.99865" lon="12.57918"><ele>34.2</ele><time>2026-05-02T13:22:18.439Z</time></trkpt><trkpt lat="43.9987417" lon="12.579215"><ele>34.6</ele><time>2026-05-02T13:22:20.44Z</time></trkpt><trkpt lat="43.9988333" lon="12.5792433"><ele>35.0</ele><time>2026-05-02T13:22:22.439Z</time></trkpt><trkpt lat="43.9989267" lon="12.5792683"><ele>35.0</ele><time>2026-05-02T13:22:24.439Z</time></trkpt><trkpt lat="43.9990167" lon="12.57927"><ele>35.0</ele><time>2026-05-02T13:22:26.441Z</time></trkpt><trkpt lat="43.999095" lon="12.5792883"><ele>35.0</ele><time>2026-05-02T13:22:28.438Z</time></trkpt><trkpt lat="43.9991933" lon="12.5793067"><ele>35.0</ele><time>2026-05-02T13:22:30.44Z</time></trkpt><trkpt lat="43.9992717" lon="12.5793417"><ele>35.0</ele><time>2026-05-02T13:22:32.445Z</time></trkpt><trkpt lat="43.9992983" lon="12.579445"><ele>35.0</ele><time>2026-05-02T13:22:34.438Z</time></trkpt><trkpt lat="43.9993" lon="12.5795717"><ele>35.2</ele><time>2026-05-02T13:22:36.44Z</time></trkpt><trkpt lat="43.999295" lon="12.5797033"><ele>35.4</ele><time>2026-05-02T13:22:38.44Z</time></trkpt><trkpt lat="43.9992867" lon="12.579835"><ele>35.6</ele><time>2026-05-02T13:22:40.439Z</time></trkpt><trkpt lat="43.9992933" lon="12.5799583"><ele>35.8</ele><time>2026-05-02T13:22:42.441Z</time></trkpt><trkpt lat="43.9993" lon="12.5800883"><ele>36.0</ele><time>2026-05-02T13:22:44.44Z</time></trkpt><trkpt lat="43.9993117" lon="12.5802183"><ele>36.0</ele><time>2026-05-02T13:22:46.443Z</time></trkpt><trkpt lat="43.9993267" lon="12.5803533"><ele>36.0</ele><time>2026-05-02T13:22:48.44Z</time></trkpt><trkpt lat="43.9993417" lon="12.580485"><ele>36.0</ele><time>2026-05-02T13:22:50.44Z</time></trkpt><trkpt lat="43.9993583" lon="12.5806217"><ele>36.0</ele><time>2026-05-02T13:22:52.44Z</time></trkpt><trkpt lat="43.9993767" lon="12.5807567"><ele>36.0</ele><time>2026-05-02T13:22:54.439Z</time></trkpt><trkpt lat="43.9993867" lon="12.5808917"><ele>36.0</ele><time>2026-05-02T13:22:56.44Z</time></trkpt><trkpt lat="43.9993883" lon="12.58102"><ele>36.0</ele><time>2026-05-02T13:22:58.438Z</time></trkpt><trkpt lat="43.9994067" lon="12.58114"><ele>36.0</ele><time>2026-05-02T13:23:00.439Z</time></trkpt><trkpt lat="43.9994467" lon="12.5812533"><ele>36.0</ele><time>2026-05-02T13:23:02.44Z</time></trkpt><trkpt lat="43.999505" lon="12.5813533"><ele>36.0</ele><time>2026-05-02T13:23:04.44Z</time></trkpt><trkpt lat="43.9995683" lon="12.5814417"><ele>35.6</ele><time>2026-05-02T13:23:06.439Z</time></trkpt><trkpt lat="43.9996367" lon="12.5815267"><ele>35.2</ele><time>2026-05-02T13:23:08.439Z</time></trkpt><trkpt lat="43.999705" lon="12.5816117"><ele>34.8</ele><time>2026-05-02T13:23:10.44Z</time></trkpt><trkpt lat="43.999775" lon="12.5816967"><ele>34.4</ele><time>2026-05-02T13:23:12.44Z</time></trkpt><trkpt lat="43.9998433" lon="12.5817833"><ele>34.0</ele><time>2026-05-02T13:23:14.439Z</time></trkpt><trkpt lat="43.9999083" lon="12.5818717"><ele>34.0</ele><time>2026-05-02T13:23:16.442Z</time></trkpt><trkpt lat="43.99997" lon="12.5819617"><ele>34.0</ele><time>2026-05-02T13:23:18.44Z</time></trkpt><trkpt lat="44.00002" lon="12.582065"><ele>34.0</ele><time>2026-05-02T13:23:20.44Z</time></trkpt><trkpt lat="44.000035" lon="12.5821917"><ele>34.0</ele><time>2026-05-02T13:23:22.439Z</time></trkpt><trkpt lat="43.999995" lon="12.5823167"><ele>34.0</ele><time>2026-05-02T13:23:24.441Z</time></trkpt><trkpt lat="43.999925" lon="12.5824083"><ele>34.0</ele><time>2026-05-02T13:23:26.44Z</time></trkpt><trkpt lat="43.9998517" lon="12.582485"><ele>34.0</ele><time>2026-05-02T13:23:28.439Z</time></trkpt><trkpt lat="43.9997767" lon="12.582565"><ele>34.0</ele><time>2026-05-02T13:23:30.44Z</time></trkpt><trkpt lat="43.9997" lon="12.5826433"><ele>34.0</ele><time>2026-05-02T13:23:32.442Z</time></trkpt><trkpt lat="43.999625" lon="12.582725"><ele>34.0</ele><time>2026-05-02T13:23:34.439Z</time></trkpt><trkpt lat="43.9995517" lon="12.5828067"><ele>33.8</ele><time>2026-05-02T13:23:36.44Z</time></trkpt><trkpt lat="43.9994883" lon="12.582915"><ele>33.599999999999994</ele><time>2026-05-02T13:23:38.44Z</time></trkpt><trkpt lat="43.9994167" lon="12.5829933"><ele>33.4</ele><time>2026-05-02T13:23:40.439Z</time></trkpt><trkpt lat="43.9993333" lon="12.5830583"><ele>33.199999999999996</ele><time>2026-05-02T13:23:42.441Z</time></trkpt><trkpt lat="43.9992483" lon="12.583135"><ele>33.0</ele><time>2026-05-02T13:23:44.44Z</time></trkpt><trkpt lat="43.9991567" lon="12.5832333"><ele>33.0</ele><time>2026-05-02T13:23:46.441Z</time></trkpt><trkpt lat="43.99906" lon="12.58333"><ele>33.0</ele><time>2026-05-02T13:23:48.441Z</time></trkpt><trkpt lat="43.99896" lon="12.5834317"><ele>33.0</ele><time>2026-05-02T13:23:50.442Z</time></trkpt><trkpt lat="43.99891" lon="12.583485"><ele>33.0</ele><time>2026-05-02T13:23:51.44Z</time></trkpt><trkpt lat="43.99886" lon="12.5835383"><ele>33.0</ele><time>2026-05-02T13:23:52.439Z</time></trkpt><trkpt lat="43.9987633" lon="12.583635"><ele>33.0</ele><time>2026-05-02T13:23:54.442Z</time></trkpt><trkpt lat="43.9986617" lon="12.5837283"><ele>33.0</ele><time>2026-05-02T13:23:56.438Z</time></trkpt><trkpt lat="43.9985683" lon="12.58382"><ele>33.0</ele><time>2026-05-02T13:23:58.439Z</time></trkpt><trkpt lat="43.9984817" lon="12.58391"><ele>33.0</ele><time>2026-05-02T13:24:00.439Z</time></trkpt><trkpt lat="43.998395" lon="12.5839917"><ele>33.0</ele><time>2026-05-02T13:24:02.438Z</time></trkpt><trkpt lat="43.9983133" lon="12.5840733"><ele>33.0</ele><time>2026-05-02T13:24:04.439Z</time></trkpt><trkpt lat="43.9982383" lon="12.584155"><ele>33.0</ele><time>2026-05-02T13:24:06.44Z</time></trkpt><trkpt lat="43.9981683" lon="12.5842333"><ele>33.0</ele><time>2026-05-02T13:24:08.438Z</time></trkpt><trkpt lat="43.9981133" lon="12.584325"><ele>33.0</ele><time>2026-05-02T13:24:10.439Z</time></trkpt><trkpt lat="43.998085" lon="12.5844267"><ele>33.0</ele><time>2026-05-02T13:24:12.438Z</time></trkpt><trkpt lat="43.9981067" lon="12.58454"><ele>33.0</ele><time>2026-05-02T13:24:14.44Z</time></trkpt><trkpt lat="43.9981383" lon="12.584635"><ele>32.8</ele><time>2026-05-02T13:24:16.443Z</time></trkpt><trkpt lat="43.9981717" lon="12.584745"><ele>32.599999999999994</ele><time>2026-05-02T13:24:18.439Z</time></trkpt><trkpt lat="43.9982067" lon="12.584865"><ele>32.400000000000006</ele><time>2026-05-02T13:24:20.44Z</time></trkpt><trkpt lat="43.998255" lon="12.5849783"><ele>32.2</ele><time>2026-05-02T13:24:22.438Z</time></trkpt><trkpt lat="43.9982917" lon="12.5850917"><ele>32.0</ele><time>2026-05-02T13:24:24.439Z</time></trkpt><trkpt lat="43.9983267" lon="12.5852067"><ele>32.0</ele><time>2026-05-02T13:24:26.443Z</time></trkpt><trkpt lat="43.9983717" lon="12.585325"><ele>32.0</ele><time>2026-05-02T13:24:28.442Z</time></trkpt><trkpt lat="43.998415" lon="12.5854383"><ele>32.0</ele><time>2026-05-02T13:24:30.438Z</time></trkpt><trkpt lat="43.99846" lon="12.5855533"><ele>32.0</ele><time>2026-05-02T13:24:32.439Z</time></trkpt><trkpt lat="43.99851" lon="12.5856667"><ele>32.0</ele><time>2026-05-02T13:24:34.44Z</time></trkpt><trkpt lat="43.9985667" lon="12.58578"><ele>32.0</ele><time>2026-05-02T13:24:36.439Z</time></trkpt><trkpt lat="43.9986267" lon="12.5858933"><ele>32.0</ele><time>2026-05-02T13:24:38.439Z</time></trkpt><trkpt lat="43.9986767" lon="12.5860033"><ele>32.0</ele><time>2026-05-02T13:24:40.44Z</time></trkpt><trkpt lat="43.998725" lon="12.5861117"><ele>32.0</ele><time>2026-05-02T13:24:42.438Z</time></trkpt><trkpt lat="43.9987783" lon="12.586215"><ele>32.0</ele><time>2026-05-02T13:24:44.439Z</time></trkpt><trkpt lat="43.998835" lon="12.5863167"><ele>32.0</ele><time>2026-05-02T13:24:46.443Z</time></trkpt><trkpt lat="43.9988967" lon="12.5864133"><ele>32.0</ele><time>2026-05-02T13:24:48.441Z</time></trkpt><trkpt lat="43.99896" lon="12.586515"><ele>32.0</ele><time>2026-05-02T13:24:50.439Z</time></trkpt><trkpt lat="43.9990167" lon="12.58662"><ele>32.0</ele><time>2026-05-02T13:24:52.439Z</time></trkpt><trkpt lat="43.9990767" lon="12.5867283"><ele>32.0</ele><time>2026-05-02T13:24:54.44Z</time></trkpt><trkpt lat="43.9991383" lon="12.58685"><ele>32.0</ele><time>2026-05-02T13:24:56.44Z</time></trkpt><trkpt lat="43.9991683" lon="12.5869867"><ele>32.0</ele><time>2026-05-02T13:24:58.438Z</time></trkpt><trkpt lat="43.999175" lon="12.5871333"><ele>32.0</ele><time>2026-05-02T13:25:00.439Z</time></trkpt><trkpt lat="43.9991533" lon="12.5872817"><ele>32.0</ele><time>2026-05-02T13:25:02.44Z</time></trkpt><trkpt lat="43.9991183" lon="12.5874267"><ele>32.0</ele><time>2026-05-02T13:25:04.439Z</time></trkpt><trkpt lat="43.9990817" lon="12.5875667"><ele>31.8</ele><time>2026-05-02T13:25:06.441Z</time></trkpt><trkpt lat="43.9990367" lon="12.587705"><ele>31.6</ele><time>2026-05-02T13:25:08.439Z</time></trkpt><trkpt lat="43.999005" lon="12.5878533"><ele>31.400000000000002</ele><time>2026-05-02T13:25:10.439Z</time></trkpt><trkpt lat="43.9990083" lon="12.588"><ele>31.200000000000003</ele><time>2026-05-02T13:25:12.438Z</time></trkpt><trkpt lat="43.9990083" lon="12.5881417"><ele>31.0</ele><time>2026-05-02T13:25:14.441Z</time></trkpt><trkpt lat="43.999015" lon="12.5882883"><ele>31.0</ele><time>2026-05-02T13:25:16.442Z</time></trkpt><trkpt lat="43.9990283" lon="12.588435"><ele>31.0</ele><time>2026-05-02T13:25:18.44Z</time></trkpt><trkpt lat="43.99904" lon="12.5885867"><ele>31.0</ele><time>2026-05-02T13:25:20.44Z</time></trkpt><trkpt lat="43.9990533" lon="12.5887333"><ele>31.0</ele><time>2026-05-02T13:25:22.439Z</time></trkpt><trkpt lat="43.999055" lon="12.58888"><ele>31.0</ele><time>2026-05-02T13:25:24.439Z</time></trkpt><trkpt lat="43.99906" lon="12.58903"><ele>31.0</ele><time>2026-05-02T13:25:26.44Z</time></trkpt><trkpt lat="43.99908" lon="12.5891683"><ele>31.0</ele><time>2026-05-02T13:25:28.439Z</time></trkpt><trkpt lat="43.999125" lon="12.5893083"><ele>31.0</ele><time>2026-05-02T13:25:30.439Z</time></trkpt><trkpt lat="43.9991967" lon="12.5894233"><ele>31.0</ele><time>2026-05-02T13:25:32.44Z</time></trkpt><trkpt lat="43.9992933" lon="12.5894867"><ele>31.0</ele><time>2026-05-02T13:25:34.438Z</time></trkpt><trkpt lat="43.9994083" lon="12.5895083"><ele>30.4</ele><time>2026-05-02T13:25:36.44Z</time></trkpt><trkpt lat="43.9995133" lon="12.5895133"><ele>29.8</ele><time>2026-05-02T13:25:38.439Z</time></trkpt><trkpt lat="43.999615" lon="12.58951"><ele>29.199999999999996</ele><time>2026-05-02T13:25:40.437Z</time></trkpt><trkpt lat="43.999715" lon="12.58952"><ele>28.599999999999998</ele><time>2026-05-02T13:25:42.439Z</time></trkpt><trkpt lat="43.99978" lon="12.5896017"><ele>28.0</ele><time>2026-05-02T13:25:44.44Z</time></trkpt><trkpt lat="43.9997967" lon="12.589745"><ele>28.0</ele><time>2026-05-02T13:25:46.443Z</time></trkpt><trkpt lat="43.99978" lon="12.5899"><ele>27.999999999999996</ele><time>2026-05-02T13:25:48.444Z</time></trkpt><trkpt lat="43.999755" lon="12.5900683"><ele>27.999999999999996</ele><time>2026-05-02T13:25:50.443Z</time></trkpt><trkpt lat="43.9997533" lon="12.5902117"><ele>28.0</ele><time>2026-05-02T13:25:52.442Z</time></trkpt><trkpt lat="43.9997667" lon="12.590335"><ele>28.0</ele><time>2026-05-02T13:25:54.443Z</time></trkpt><trkpt lat="43.9997867" lon="12.59044"><ele>28.166666666666668</ele><time>2026-05-02T13:25:56.44Z</time></trkpt><trkpt lat="43.999775" lon="12.5905317"><ele>28.333333333333336</ele><time>2026-05-02T13:25:58.439Z</time></trkpt><trkpt lat="43.9996967" lon="12.5905867"><ele>28.5</ele><time>2026-05-02T13:26:01.439Z</time></trkpt><trkpt lat="43.9996017" lon="12.5906283"><ele>28.666666666666664</ele><time>2026-05-02T13:26:04.439Z</time></trkpt><trkpt lat="43.9995233" lon="12.590665"><ele>28.833333333333332</ele><time>2026-05-02T13:26:06.44Z</time></trkpt><trkpt lat="43.9994483" lon="12.5907067"><ele>29.0</ele><time>2026-05-02T13:26:08.44Z</time></trkpt><trkpt lat="43.9993667" lon="12.5907417"><ele>28.999999999999996</ele><time>2026-05-02T13:26:10.44Z</time></trkpt><trkpt lat="43.9992767" lon="12.5907683"><ele>29.0</ele><time>2026-05-02T13:26:12.439Z</time></trkpt><trkpt lat="43.9991983" lon="12.5907933"><ele>29.0</ele><time>2026-05-02T13:26:14.439Z</time></trkpt><trkpt lat="43.9991117" lon="12.59083"><ele>29.0</ele><time>2026-05-02T13:26:17.442Z</time></trkpt><trkpt lat="43.999045" lon="12.5908567"><ele>28.999999999999996</ele><time>2026-05-02T13:26:19.442Z</time></trkpt><trkpt lat="43.998955" lon="12.5909017"><ele>29.0</ele><time>2026-05-02T13:26:22.443Z</time></trkpt><trkpt lat="43.998885" lon="12.5909267"><ele>28.999999999999996</ele><time>2026-05-02T13:26:24.442Z</time></trkpt><trkpt lat="43.99881" lon="12.5909583"><ele>29.0</ele><time>2026-05-02T13:26:26.44Z</time></trkpt><trkpt lat="43.9987433" lon="12.591005"><ele>29.0</ele><time>2026-05-02T13:26:28.44Z</time></trkpt><trkpt lat="43.998675" lon="12.5910817"><ele>29.0</ele><time>2026-05-02T13:26:31.44Z</time></trkpt><trkpt lat="43.9986283" lon="12.5911733"><ele>28.999999999999996</ele><time>2026-05-02T13:26:34.44Z</time></trkpt><trkpt lat="43.9985717" lon="12.5912633"><ele>29.0</ele><time>2026-05-02T13:26:37.441Z</time></trkpt><trkpt lat="43.9985117" lon="12.59137"><ele>29.142857142857146</ele><time>2026-05-02T13:26:40.439Z</time></trkpt><trkpt lat="43.9984683" lon="12.5914433"><ele>29.285714285714285</ele><time>2026-05-02T13:26:42.44Z</time></trkpt><trkpt lat="43.9984317" lon="12.5915167"><ele>29.42857142857143</ele><time>2026-05-02T13:26:44.44Z</time></trkpt><trkpt lat="43.9983967" lon="12.5915917"><ele>29.571428571428573</ele><time>2026-05-02T13:26:46.442Z</time></trkpt><trkpt lat="43.998345" lon="12.591695"><ele>29.714285714285715</ele><time>2026-05-02T13:26:49.443Z</time></trkpt><trkpt lat="43.9983083" lon="12.5917667"><ele>29.857142857142858</ele><time>2026-05-02T13:26:51.443Z</time></trkpt><trkpt lat="43.998255" lon="12.591855"><ele>30.0</ele><time>2026-05-02T13:26:53.443Z</time></trkpt><trkpt lat="43.9981883" lon="12.5919583"><ele>29.6</ele><time>2026-05-02T13:26:55.439Z</time></trkpt><trkpt lat="43.99812" lon="12.5920767"><ele>29.2</ele><time>2026-05-02T13:26:57.44Z</time></trkpt><trkpt lat="43.998045" lon="12.5922"><ele>28.799999999999997</ele><time>2026-05-02T13:26:59.439Z</time></trkpt><trkpt lat="43.9979717" lon="12.59234"><ele>28.4</ele><time>2026-05-02T13:27:01.439Z</time></trkpt><trkpt lat="43.9979317" lon="12.59241"><ele>28.0</ele><time>2026-05-02T13:27:02.44Z</time></trkpt><trkpt lat="43.9978917" lon="12.59248"><ele>28.0</ele><time>2026-05-02T13:27:03.441Z</time></trkpt><trkpt lat="43.997815" lon="12.5926117"><ele>28.0</ele><time>2026-05-02T13:27:05.44Z</time></trkpt><trkpt lat="43.9977367" lon="12.5927417"><ele>28.0</ele><time>2026-05-02T13:27:07.441Z</time></trkpt><trkpt lat="43.9976633" lon="12.5928783"><ele>28.0</ele><time>2026-05-02T13:27:09.44Z</time></trkpt><trkpt lat="43.9975883" lon="12.5930117"><ele>27.799999999999997</ele><time>2026-05-02T13:27:11.439Z</time></trkpt><trkpt lat="43.9975217" lon="12.593135"><ele>27.599999999999998</ele><time>2026-05-02T13:27:13.44Z</time></trkpt><trkpt lat="43.997455" lon="12.5932533"><ele>27.400000000000002</ele><time>2026-05-02T13:27:15.44Z</time></trkpt><trkpt lat="43.99739" lon="12.5933717"><ele>27.200000000000003</ele><time>2026-05-02T13:27:17.443Z</time></trkpt><trkpt lat="43.9973317" lon="12.593485"><ele>27.0</ele><time>2026-05-02T13:27:19.439Z</time></trkpt><trkpt lat="43.9972717" lon="12.5935867"><ele>27.333333333333332</ele><time>2026-05-02T13:27:21.44Z</time></trkpt><trkpt lat="43.99722" lon="12.593685"><ele>27.666666666666664</ele><time>2026-05-02T13:27:23.441Z</time></trkpt><trkpt lat="43.9971667" lon="12.5937783"><ele>28.0</ele><time>2026-05-02T13:27:25.438Z</time></trkpt><trkpt lat="43.9971117" lon="12.5938683"><ele>28.333333333333332</ele><time>2026-05-02T13:27:27.44Z</time></trkpt><trkpt lat="43.9970567" lon="12.5939633"><ele>28.666666666666664</ele><time>2026-05-02T13:27:29.44Z</time></trkpt><trkpt lat="43.997005" lon="12.5940583"><ele>29.0</ele><time>2026-05-02T13:27:31.44Z</time></trkpt><trkpt lat="43.9969533" lon="12.5941567"><ele>28.999999999999996</ele><time>2026-05-02T13:27:33.44Z</time></trkpt><trkpt lat="43.9969" lon="12.5942483"><ele>29.0</ele><time>2026-05-02T13:27:35.44Z</time></trkpt><trkpt lat="43.9968517" lon="12.5943467"><ele>29.0</ele><time>2026-05-02T13:27:37.44Z</time></trkpt><trkpt lat="43.9968033" lon="12.5944433"><ele>29.0</ele><time>2026-05-02T13:27:39.441Z</time></trkpt><trkpt lat="43.9967517" lon="12.5945367"><ele>28.999999999999996</ele><time>2026-05-02T13:27:41.44Z</time></trkpt><trkpt lat="43.9967067" lon="12.5946267"><ele>29.0</ele><time>2026-05-02T13:27:43.44Z</time></trkpt><trkpt lat="43.9966683" lon="12.59471"><ele>28.999999999999996</ele><time>2026-05-02T13:27:45.439Z</time></trkpt><trkpt lat="43.9966367" lon="12.5947867"><ele>29.0</ele><time>2026-05-02T13:27:47.442Z</time></trkpt><trkpt lat="43.9966267" lon="12.59488"><ele>29.0</ele><time>2026-05-02T13:27:52.44Z</time></trkpt><trkpt lat="43.9966633" lon="12.59498"><ele>29.0</ele><time>2026-05-02T13:27:55.44Z</time></trkpt><trkpt lat="43.996735" lon="12.59505"><ele>28.999999999999996</ele><time>2026-05-02T13:27:57.44Z</time></trkpt><trkpt lat="43.9967983" lon="12.5951283"><ele>29.0</ele><time>2026-05-02T13:27:59.44Z</time></trkpt><trkpt lat="43.9968483" lon="12.5952217"><ele>29.0</ele><time>2026-05-02T13:28:01.44Z</time></trkpt><trkpt lat="43.9968917" lon="12.5953167"><ele>29.0</ele><time>2026-05-02T13:28:03.441Z</time></trkpt><trkpt lat="43.9969317" lon="12.5954133"><ele>29.0</ele><time>2026-05-02T13:28:05.44Z</time></trkpt><trkpt lat="43.9969733" lon="12.5955417"><ele>29.0</ele><time>2026-05-02T13:28:07.44Z</time></trkpt><trkpt lat="43.9970183" lon="12.5956783"><ele>29.0</ele><time>2026-05-02T13:28:09.441Z</time></trkpt><trkpt lat="43.997065" lon="12.5958117"><ele>28.799999999999997</ele><time>2026-05-02T13:28:11.439Z</time></trkpt><trkpt lat="43.99711" lon="12.595945"><ele>28.599999999999998</ele><time>2026-05-02T13:28:13.44Z</time></trkpt><trkpt lat="43.99715" lon="12.5960767"><ele>28.4</ele><time>2026-05-02T13:28:15.441Z</time></trkpt><trkpt lat="43.9971883" lon="12.5962167"><ele>28.2</ele><time>2026-05-02T13:28:17.442Z</time></trkpt><trkpt lat="43.9972233" lon="12.5963617"><ele>28.0</ele><time>2026-05-02T13:28:19.44Z</time></trkpt><trkpt lat="43.99726" lon="12.5965083"><ele>28.4</ele><time>2026-05-02T13:28:21.439Z</time></trkpt><trkpt lat="43.9972917" lon="12.59665"><ele>28.799999999999997</ele><time>2026-05-02T13:28:23.442Z</time></trkpt><trkpt lat="43.997325" lon="12.5967867"><ele>29.2</ele><time>2026-05-02T13:28:25.439Z</time></trkpt><trkpt lat="43.9973517" lon="12.5969233"><ele>29.6</ele><time>2026-05-02T13:28:27.44Z</time></trkpt><trkpt lat="43.9973717" lon="12.5970617"><ele>30.0</ele><time>2026-05-02T13:28:29.439Z</time></trkpt><trkpt lat="43.9973983" lon="12.5971967"><ele>30.0</ele><time>2026-05-02T13:28:31.439Z</time></trkpt><trkpt lat="43.9974183" lon="12.5973217"><ele>30.0</ele><time>2026-05-02T13:28:33.439Z</time></trkpt><trkpt lat="43.9974367" lon="12.59744"><ele>30.0</ele><time>2026-05-02T13:28:35.438Z</time></trkpt><trkpt lat="43.9974417" lon="12.5975617"><ele>30.0</ele><time>2026-05-02T13:28:37.439Z</time></trkpt><trkpt lat="43.9974483" lon="12.59769"><ele>30.0</ele><time>2026-05-02T13:28:39.439Z</time></trkpt><trkpt lat="43.997435" lon="12.59783"><ele>29.8</ele><time>2026-05-02T13:28:41.439Z</time></trkpt><trkpt lat="43.9974167" lon="12.5979733"><ele>29.6</ele><time>2026-05-02T13:28:43.439Z</time></trkpt><trkpt lat="43.9974017" lon="12.5981183"><ele>29.4</ele><time>2026-05-02T13:28:45.44Z</time></trkpt><trkpt lat="43.997395" lon="12.598265"><ele>29.2</ele><time>2026-05-02T13:28:47.442Z</time></trkpt><trkpt lat="43.997395" lon="12.598415"><ele>29.0</ele><time>2026-05-02T13:28:49.439Z</time></trkpt><trkpt lat="43.9973967" lon="12.598565"><ele>29.0</ele><time>2026-05-02T13:28:51.44Z</time></trkpt><trkpt lat="43.9973967" lon="12.5987167"><ele>29.0</ele><time>2026-05-02T13:28:53.438Z</time></trkpt><trkpt lat="43.9974017" lon="12.5988683"><ele>29.0</ele><time>2026-05-02T13:28:55.438Z</time></trkpt><trkpt lat="43.9974067" lon="12.5990233"><ele>29.0</ele><time>2026-05-02T13:28:57.44Z</time></trkpt><trkpt lat="43.9974033" lon="12.5991833"><ele>29.0</ele><time>2026-05-02T13:28:59.439Z</time></trkpt><trkpt lat="43.9973917" lon="12.5993367"><ele>29.0</ele><time>2026-05-02T13:29:01.439Z</time></trkpt><trkpt lat="43.9973733" lon="12.59949"><ele>29.0</ele><time>2026-05-02T13:29:03.439Z</time></trkpt><trkpt lat="43.9973467" lon="12.599635"><ele>29.0</ele><time>2026-05-02T13:29:05.438Z</time></trkpt><trkpt lat="43.9973183" lon="12.59978"><ele>29.0</ele><time>2026-05-02T13:29:07.439Z</time></trkpt><trkpt lat="43.9972783" lon="12.59992"><ele>29.0</ele><time>2026-05-02T13:29:09.44Z</time></trkpt><trkpt lat="43.9972367" lon="12.60006"><ele>28.799999999999997</ele><time>2026-05-02T13:29:11.44Z</time></trkpt><trkpt lat="43.9971983" lon="12.6002"><ele>28.599999999999998</ele><time>2026-05-02T13:29:13.439Z</time></trkpt><trkpt lat="43.9971583" lon="12.60034"><ele>28.4</ele><time>2026-05-02T13:29:15.439Z</time></trkpt><trkpt lat="43.9971183" lon="12.6004717"><ele>28.2</ele><time>2026-05-02T13:29:17.443Z</time></trkpt><trkpt lat="43.9970917" lon="12.6006017"><ele>28.0</ele><time>2026-05-02T13:29:19.438Z</time></trkpt><trkpt lat="43.9970533" lon="12.6007333"><ele>28.0</ele><time>2026-05-02T13:29:21.44Z</time></trkpt><trkpt lat="43.9970183" lon="12.6008633"><ele>27.999999999999996</ele><time>2026-05-02T13:29:23.439Z</time></trkpt><trkpt lat="43.9969767" lon="12.6010133"><ele>27.999999999999996</ele><time>2026-05-02T13:29:25.438Z</time></trkpt><trkpt lat="43.99693" lon="12.6011633"><ele>28.0</ele><time>2026-05-02T13:29:27.44Z</time></trkpt><trkpt lat="43.996905" lon="12.601245"><ele>28.0</ele><time>2026-05-02T13:29:28.439Z</time></trkpt><trkpt lat="43.9968583" lon="12.6014017"><ele>28.0</ele><time>2026-05-02T13:29:30.445Z</time></trkpt><trkpt lat="43.9968183" lon="12.6015483"><ele>27.999999999999996</ele><time>2026-05-02T13:29:32.439Z</time></trkpt><trkpt lat="43.99678" lon="12.6016867"><ele>27.999999999999996</ele><time>2026-05-02T13:29:34.438Z</time></trkpt><trkpt lat="43.9967417" lon="12.6018183"><ele>28.0</ele><time>2026-05-02T13:29:36.439Z</time></trkpt><trkpt lat="43.9967067" lon="12.6019483"><ele>28.0</ele><time>2026-05-02T13:29:38.439Z</time></trkpt><trkpt lat="43.9966733" lon="12.6020683"><ele>27.833333333333336</ele><time>2026-05-02T13:29:40.439Z</time></trkpt><trkpt lat="43.99664" lon="12.6021833"><ele>27.666666666666668</ele><time>2026-05-02T13:29:42.44Z</time></trkpt><trkpt lat="43.9966117" lon="12.6022967"><ele>27.5</ele><time>2026-05-02T13:29:44.439Z</time></trkpt><trkpt lat="43.9965867" lon="12.6023983"><ele>27.333333333333336</ele><time>2026-05-02T13:29:46.443Z</time></trkpt><trkpt lat="43.9965583" lon="12.602495"><ele>27.166666666666668</ele><time>2026-05-02T13:29:48.44Z</time></trkpt><trkpt lat="43.9965283" lon="12.602615"><ele>27.0</ele><time>2026-05-02T13:29:50.44Z</time></trkpt><trkpt lat="43.9964933" lon="12.6027333"><ele>27.0</ele><time>2026-05-02T13:29:52.439Z</time></trkpt><trkpt lat="43.99644" lon="12.60283"><ele>27.0</ele><time>2026-05-02T13:29:54.44Z</time></trkpt><trkpt lat="43.9963817" lon="12.6029167"><ele>27.0</ele><time>2026-05-02T13:29:56.439Z</time></trkpt><trkpt lat="43.9963633" lon="12.6030217"><ele>27.0</ele><time>2026-05-02T13:29:58.44Z</time></trkpt><trkpt lat="43.99637" lon="12.6031383"><ele>27.0</ele><time>2026-05-02T13:30:00.44Z</time></trkpt><trkpt lat="43.9963917" lon="12.603265"><ele>27.0</ele><time>2026-05-02T13:30:02.44Z</time></trkpt><trkpt lat="43.9964083" lon="12.603395"><ele>27.0</ele><time>2026-05-02T13:30:04.44Z</time></trkpt><trkpt lat="43.9964233" lon="12.6035217"><ele>27.000000000000004</ele><time>2026-05-02T13:30:06.441Z</time></trkpt><trkpt lat="43.9964467" lon="12.6036517"><ele>27.000000000000004</ele><time>2026-05-02T13:30:08.439Z</time></trkpt><trkpt lat="43.9964717" lon="12.6037783"><ele>27.0</ele><time>2026-05-02T13:30:10.439Z</time></trkpt><trkpt lat="43.9965" lon="12.60391"><ele>27.0</ele><time>2026-05-02T13:30:12.44Z</time></trkpt><trkpt lat="43.99653" lon="12.6040483"><ele>27.0</ele><time>2026-05-02T13:30:14.44Z</time></trkpt><trkpt lat="43.99655" lon="12.604195"><ele>27.000000000000004</ele><time>2026-05-02T13:30:16.443Z</time></trkpt><trkpt lat="43.9965817" lon="12.604335"><ele>27.000000000000004</ele><time>2026-05-02T13:30:18.443Z</time></trkpt><trkpt lat="43.99662" lon="12.60448"><ele>27.0</ele><time>2026-05-02T13:30:20.443Z</time></trkpt><trkpt lat="43.9966533" lon="12.60462"><ele>27.0</ele><time>2026-05-02T13:30:22.443Z</time></trkpt><trkpt lat="43.99669" lon="12.6047767"><ele>26.5</ele><time>2026-05-02T13:30:24.443Z</time></trkpt><trkpt lat="43.99672" lon="12.604935"><ele>26.0</ele><time>2026-05-02T13:30:26.44Z</time></trkpt><trkpt lat="43.9967567" lon="12.6050917"><ele>25.5</ele><time>2026-05-02T13:30:28.439Z</time></trkpt><trkpt lat="43.9967967" lon="12.60525"><ele>25.0</ele><time>2026-05-02T13:30:30.44Z</time></trkpt><trkpt lat="43.9968367" lon="12.6054083"><ele>25.0</ele><time>2026-05-02T13:30:32.44Z</time></trkpt><trkpt lat="43.9968783" lon="12.605565"><ele>25.0</ele><time>2026-05-02T13:30:34.439Z</time></trkpt><trkpt lat="43.99691" lon="12.6057183"><ele>25.0</ele><time>2026-05-02T13:30:36.439Z</time></trkpt><trkpt lat="43.99695" lon="12.6058717"><ele>25.0</ele><time>2026-05-02T13:30:38.44Z</time></trkpt><trkpt lat="43.996985" lon="12.606025"><ele>24.8</ele><time>2026-05-02T13:30:40.439Z</time></trkpt><trkpt lat="43.9970217" lon="12.6061783"><ele>24.6</ele><time>2026-05-02T13:30:42.44Z</time></trkpt><trkpt lat="43.99706" lon="12.606325"><ele>24.4</ele><time>2026-05-02T13:30:44.44Z</time></trkpt><trkpt lat="43.9970883" lon="12.606465"><ele>24.2</ele><time>2026-05-02T13:30:46.442Z</time></trkpt><trkpt lat="43.9971217" lon="12.6066017"><ele>24.0</ele><time>2026-05-02T13:30:48.442Z</time></trkpt><trkpt lat="43.99715" lon="12.6067433"><ele>24.0</ele><time>2026-05-02T13:30:50.443Z</time></trkpt><trkpt lat="43.99718" lon="12.60689"><ele>24.0</ele><time>2026-05-02T13:30:52.442Z</time></trkpt><trkpt lat="43.9972233" lon="12.6070333"><ele>24.0</ele><time>2026-05-02T13:30:54.442Z</time></trkpt><trkpt lat="43.9972583" lon="12.60717"><ele>24.0</ele><time>2026-05-02T13:30:56.44Z</time></trkpt><trkpt lat="43.9972833" lon="12.6073067"><ele>24.0</ele><time>2026-05-02T13:30:58.438Z</time></trkpt><trkpt lat="43.9973083" lon="12.60743"><ele>24.166666666666668</ele><time>2026-05-02T13:31:00.438Z</time></trkpt><trkpt lat="43.997345" lon="12.6075417"><ele>24.333333333333336</ele><time>2026-05-02T13:31:02.441Z</time></trkpt><trkpt lat="43.9973817" lon="12.6076483"><ele>24.5</ele><time>2026-05-02T13:31:04.439Z</time></trkpt><trkpt lat="43.9974183" lon="12.6077467"><ele>24.666666666666668</ele><time>2026-05-02T13:31:06.439Z</time></trkpt><trkpt lat="43.9974633" lon="12.6078633"><ele>24.833333333333336</ele><time>2026-05-02T13:31:08.44Z</time></trkpt><trkpt lat="43.9975083" lon="12.6079767"><ele>25.0</ele><time>2026-05-02T13:31:10.439Z</time></trkpt><trkpt lat="43.9975633" lon="12.608075"><ele>24.666666666666668</ele><time>2026-05-02T13:31:12.44Z</time></trkpt><trkpt lat="43.9976133" lon="12.60817"><ele>24.333333333333336</ele><time>2026-05-02T13:31:14.439Z</time></trkpt><trkpt lat="43.9976683" lon="12.608255"><ele>24.0</ele><time>2026-05-02T13:31:16.443Z</time></trkpt><trkpt lat="43.9977283" lon="12.608335"><ele>23.666666666666668</ele><time>2026-05-02T13:31:18.441Z</time></trkpt><trkpt lat="43.9977917" lon="12.6083967"><ele>23.333333333333336</ele><time>2026-05-02T13:31:20.442Z</time></trkpt><trkpt lat="43.9978583" lon="12.6084683"><ele>23.0</ele><time>2026-05-02T13:31:22.441Z</time></trkpt><trkpt lat="43.997935" lon="12.6085417"><ele>23.0</ele><time>2026-05-02T13:31:24.442Z</time></trkpt><trkpt lat="43.9980133" lon="12.6086117"><ele>23.0</ele><time>2026-05-02T13:31:26.44Z</time></trkpt><trkpt lat="43.9981" lon="12.60866"><ele>23.0</ele><time>2026-05-02T13:31:28.439Z</time></trkpt><trkpt lat="43.99819" lon="12.608705"><ele>23.0</ele><time>2026-05-02T13:31:30.44Z</time></trkpt><trkpt lat="43.9982667" lon="12.6087517"><ele>23.0</ele><time>2026-05-02T13:31:32.44Z</time></trkpt><trkpt lat="43.9983383" lon="12.6087867"><ele>23.0</ele><time>2026-05-02T13:31:34.438Z</time></trkpt><trkpt lat="43.9984067" lon="12.6088217"><ele>23.166666666666668</ele><time>2026-05-02T13:31:36.44Z</time></trkpt><trkpt lat="43.9984717" lon="12.608865"><ele>23.333333333333336</ele><time>2026-05-02T13:31:38.44Z</time></trkpt><trkpt lat="43.9985367" lon="12.6089067"><ele>23.5</ele><time>2026-05-02T13:31:40.439Z</time></trkpt><trkpt lat="43.9986" lon="12.608945"><ele>23.666666666666668</ele><time>2026-05-02T13:31:42.44Z</time></trkpt><trkpt lat="43.9986817" lon="12.60901"><ele>23.833333333333332</ele><time>2026-05-02T13:31:45.44Z</time></trkpt><trkpt lat="43.9987617" lon="12.609085"><ele>24.0</ele><time>2026-05-02T13:31:48.443Z</time></trkpt><trkpt lat="43.9988417" lon="12.6091533"><ele>24.0</ele><time>2026-05-02T13:31:51.443Z</time></trkpt><trkpt lat="43.9989133" lon="12.6092183"><ele>24.0</ele><time>2026-05-02T13:31:54.442Z</time></trkpt><trkpt lat="43.9989883" lon="12.6092883"><ele>24.0</ele><time>2026-05-02T13:31:57.439Z</time></trkpt><trkpt lat="43.9990617" lon="12.6093617"><ele>24.0</ele><time>2026-05-02T13:32:00.44Z</time></trkpt><trkpt lat="43.9991367" lon="12.6094283"><ele>24.0</ele><time>2026-05-02T13:32:03.439Z</time></trkpt><trkpt lat="43.99921" lon="12.6094867"><ele>24.0</ele><time>2026-05-02T13:32:06.44Z</time></trkpt><trkpt lat="43.9992733" lon="12.6095767"><ele>23.666666666666668</ele><time>2026-05-02T13:32:09.439Z</time></trkpt><trkpt lat="43.9993467" lon="12.6096617"><ele>23.333333333333332</ele><time>2026-05-02T13:32:12.439Z</time></trkpt><trkpt lat="43.99942" lon="12.6097467"><ele>23.0</ele><time>2026-05-02T13:32:15.44Z</time></trkpt><trkpt lat="43.9994783" lon="12.6098083"><ele>22.666666666666664</ele><time>2026-05-02T13:32:17.443Z</time></trkpt><trkpt lat="43.9995417" lon="12.6098717"><ele>22.333333333333332</ele><time>2026-05-02T13:32:19.443Z</time></trkpt><trkpt lat="43.9996067" lon="12.60994"><ele>22.0</ele><time>2026-05-02T13:32:21.443Z</time></trkpt><trkpt lat="43.9996733" lon="12.610005"><ele>22.0</ele><time>2026-05-02T13:32:23.442Z</time></trkpt><trkpt lat="43.999745" lon="12.61008"><ele>22.0</ele><time>2026-05-02T13:32:25.439Z</time></trkpt><trkpt lat="43.9998167" lon="12.6101667"><ele>22.0</ele><time>2026-05-02T13:32:27.441Z</time></trkpt><trkpt lat="43.9998967" lon="12.6102667"><ele>22.0</ele><time>2026-05-02T13:32:29.44Z</time></trkpt><trkpt lat="43.9999817" lon="12.6103783"><ele>22.0</ele><time>2026-05-02T13:32:31.44Z</time></trkpt><trkpt lat="44.000025" lon="12.610445"><ele>22.0</ele><time>2026-05-02T13:32:32.44Z</time></trkpt><trkpt lat="44.0000617" lon="12.6105167"><ele>22.0</ele><time>2026-05-02T13:32:33.439Z</time></trkpt><trkpt lat="44.0000933" lon="12.6105967"><ele>22.0</ele><time>2026-05-02T13:32:34.441Z</time></trkpt><trkpt lat="44.0001233" lon="12.6106867"><ele>22.0</ele><time>2026-05-02T13:32:35.439Z</time></trkpt><trkpt lat="44.0001533" lon="12.6107817"><ele>22.0</ele><time>2026-05-02T13:32:36.441Z</time></trkpt><trkpt lat="44.0001817" lon="12.6108817"><ele>22.0</ele><time>2026-05-02T13:32:37.442Z</time></trkpt><trkpt lat="44.000205" lon="12.6109917"><ele>22.0</ele><time>2026-05-02T13:32:38.44Z</time></trkpt><trkpt lat="44.0002233" lon="12.611105"><ele>22.0</ele><time>2026-05-02T13:32:39.44Z</time></trkpt><trkpt lat="44.0002333" lon="12.61122"><ele>22.0</ele><time>2026-05-02T13:32:40.439Z</time></trkpt><trkpt lat="44.0002333" lon="12.6113367"><ele>22.0</ele><time>2026-05-02T13:32:41.44Z</time></trkpt><trkpt lat="44.0002283" lon="12.611455"><ele>22.0</ele><time>2026-05-02T13:32:42.44Z</time></trkpt><trkpt lat="44.00021" lon="12.61157"><ele>22.0</ele><time>2026-05-02T13:32:43.442Z</time></trkpt><trkpt lat="44.00018" lon="12.6116733"><ele>22.0</ele><time>2026-05-02T13:32:44.44Z</time></trkpt><trkpt lat="44.0001517" lon="12.611775"><ele>22.0</ele><time>2026-05-02T13:32:45.439Z</time></trkpt><trkpt lat="44.0001433" lon="12.6118817"><ele>22.0</ele><time>2026-05-02T13:32:46.442Z</time></trkpt><trkpt lat="44.0001567" lon="12.61198"><ele>22.0</ele><time>2026-05-02T13:32:47.443Z</time></trkpt><trkpt lat="44.0001833" lon="12.612065"><ele>22.0</ele><time>2026-05-02T13:32:48.442Z</time></trkpt><trkpt lat="44.000225" lon="12.6121483"><ele>22.0</ele><time>2026-05-02T13:32:49.443Z</time></trkpt><trkpt lat="44.000265" lon="12.61223"><ele>22.0</ele><time>2026-05-02T13:32:50.439Z</time></trkpt><trkpt lat="44.000305" lon="12.6123117"><ele>22.0</ele><time>2026-05-02T13:32:51.443Z</time></trkpt><trkpt lat="44.00034" lon="12.6123883"><ele>21.8</ele><time>2026-05-02T13:32:52.443Z</time></trkpt><trkpt lat="44.0003817" lon="12.6124583"><ele>21.6</ele><time>2026-05-02T13:32:53.442Z</time></trkpt><trkpt lat="44.0004517" lon="12.6125967"><ele>21.400000000000002</ele><time>2026-05-02T13:32:55.44Z</time></trkpt><trkpt lat="44.00053" lon="12.6127283"><ele>21.200000000000003</ele><time>2026-05-02T13:32:57.439Z</time></trkpt><trkpt lat="44.0005983" lon="12.612865"><ele>21.0</ele><time>2026-05-02T13:32:59.441Z</time></trkpt><trkpt lat="44.00067" lon="12.6130067"><ele>21.0</ele><time>2026-05-02T13:33:01.438Z</time></trkpt><trkpt lat="44.00071" lon="12.61308"><ele>21.0</ele><time>2026-05-02T13:33:02.438Z</time></trkpt><trkpt lat="44.000745" lon="12.6131567"><ele>21.0</ele><time>2026-05-02T13:33:03.44Z</time></trkpt><trkpt lat="44.0007783" lon="12.6132333"><ele>21.0</ele><time>2026-05-02T13:33:04.439Z</time></trkpt><trkpt lat="44.0008367" lon="12.6133783"><ele>21.0</ele><time>2026-05-02T13:33:06.439Z</time></trkpt><trkpt lat="44.000895" lon="12.6135267"><ele>21.0</ele><time>2026-05-02T13:33:08.44Z</time></trkpt><trkpt lat="44.000955" lon="12.6136783"><ele>21.0</ele><time>2026-05-02T13:33:10.438Z</time></trkpt><trkpt lat="44.0010217" lon="12.6138183"><ele>21.0</ele><time>2026-05-02T13:33:12.439Z</time></trkpt><trkpt lat="44.0011033" lon="12.61395"><ele>21.0</ele><time>2026-05-02T13:33:14.438Z</time></trkpt><trkpt lat="44.00119" lon="12.614065"><ele>21.0</ele><time>2026-05-02T13:33:16.441Z</time></trkpt><trkpt lat="44.0012783" lon="12.6141717"><ele>21.0</ele><time>2026-05-02T13:33:18.442Z</time></trkpt><trkpt lat="44.0013633" lon="12.61429"><ele>21.0</ele><time>2026-05-02T13:33:20.441Z</time></trkpt><trkpt lat="44.0014417" lon="12.6144067"><ele>21.0</ele><time>2026-05-02T13:33:22.441Z</time></trkpt><trkpt lat="44.0015" lon="12.614545"><ele>21.0</ele><time>2026-05-02T13:33:24.441Z</time></trkpt><trkpt lat="44.0015433" lon="12.6147033"><ele>20.6</ele><time>2026-05-02T13:33:26.439Z</time></trkpt><trkpt lat="44.001575" lon="12.614855"><ele>20.200000000000003</ele><time>2026-05-02T13:33:28.439Z</time></trkpt><trkpt lat="44.0016" lon="12.615005"><ele>19.799999999999997</ele><time>2026-05-02T13:33:30.438Z</time></trkpt><trkpt lat="44.0016267" lon="12.6151567"><ele>19.4</ele><time>2026-05-02T13:33:32.439Z</time></trkpt><trkpt lat="44.00166" lon="12.615305"><ele>19.0</ele><time>2026-05-02T13:33:34.439Z</time></trkpt><trkpt lat="44.0016917" lon="12.61545"><ele>18.8</ele><time>2026-05-02T13:33:36.438Z</time></trkpt><trkpt lat="44.0017183" lon="12.6155983"><ele>18.599999999999998</ele><time>2026-05-02T13:33:38.44Z</time></trkpt><trkpt lat="44.0017483" lon="12.615745"><ele>18.4</ele><time>2026-05-02T13:33:40.438Z</time></trkpt><trkpt lat="44.0017817" lon="12.6158917"><ele>18.2</ele><time>2026-05-02T13:33:42.439Z</time></trkpt><trkpt lat="44.001815" lon="12.6160367"><ele>18.0</ele><time>2026-05-02T13:33:44.439Z</time></trkpt><trkpt lat="44.0018467" lon="12.61617"><ele>18.0</ele><time>2026-05-02T13:33:46.442Z</time></trkpt><trkpt lat="44.0018733" lon="12.6163033"><ele>18.0</ele><time>2026-05-02T13:33:48.439Z</time></trkpt><trkpt lat="44.0019083" lon="12.6164383"><ele>18.0</ele><time>2026-05-02T13:33:50.439Z</time></trkpt><trkpt lat="44.0019533" lon="12.61657"><ele>18.0</ele><time>2026-05-02T13:33:52.439Z</time></trkpt><trkpt lat="44.0020033" lon="12.6167067"><ele>18.0</ele><time>2026-05-02T13:33:54.44Z</time></trkpt><trkpt lat="44.0020567" lon="12.6168317"><ele>18.0</ele><time>2026-05-02T13:33:56.439Z</time></trkpt><trkpt lat="44.0021033" lon="12.6169683"><ele>18.0</ele><time>2026-05-02T13:33:58.442Z</time></trkpt><trkpt lat="44.0021517" lon="12.6171167"><ele>18.0</ele><time>2026-05-02T13:34:00.44Z</time></trkpt><trkpt lat="44.0022017" lon="12.6172617"><ele>18.0</ele><time>2026-05-02T13:34:02.438Z</time></trkpt><trkpt lat="44.0022483" lon="12.6174067"><ele>18.0</ele><time>2026-05-02T13:34:04.44Z</time></trkpt><trkpt lat="44.0022867" lon="12.6175517"><ele>18.0</ele><time>2026-05-02T13:34:06.44Z</time></trkpt><trkpt lat="44.002325" lon="12.6177017"><ele>18.0</ele><time>2026-05-02T13:34:08.44Z</time></trkpt><trkpt lat="44.0023617" lon="12.6178483"><ele>18.0</ele><time>2026-05-02T13:34:10.44Z</time></trkpt><trkpt lat="44.0023933" lon="12.6179933"><ele>18.0</ele><time>2026-05-02T13:34:12.439Z</time></trkpt><trkpt lat="44.0024217" lon="12.618145"><ele>18.0</ele><time>2026-05-02T13:34:14.44Z</time></trkpt><trkpt lat="44.00246" lon="12.618295"><ele>18.0</ele><time>2026-05-02T13:34:16.44Z</time></trkpt><trkpt lat="44.0024933" lon="12.61844"><ele>18.0</ele><time>2026-05-02T13:34:18.439Z</time></trkpt><trkpt lat="44.0025283" lon="12.6185883"><ele>18.0</ele><time>2026-05-02T13:34:20.438Z</time></trkpt><trkpt lat="44.00256" lon="12.6187367"><ele>18.0</ele><time>2026-05-02T13:34:22.44Z</time></trkpt><trkpt lat="44.0025967" lon="12.61888"><ele>18.0</ele><time>2026-05-02T13:34:24.438Z</time></trkpt><trkpt lat="44.00263" lon="12.61903"><ele>18.0</ele><time>2026-05-02T13:34:26.439Z</time></trkpt><trkpt lat="44.0026633" lon="12.6191733"><ele>18.0</ele><time>2026-05-02T13:34:28.44Z</time></trkpt><trkpt lat="44.0026967" lon="12.61932"><ele>18.0</ele><time>2026-05-02T13:34:30.439Z</time></trkpt><trkpt lat="44.0027267" lon="12.6194683"><ele>18.0</ele><time>2026-05-02T13:34:32.438Z</time></trkpt><trkpt lat="44.0027433" lon="12.61962"><ele>17.8</ele><time>2026-05-02T13:34:34.438Z</time></trkpt><trkpt lat="44.0027083" lon="12.619765"><ele>17.6</ele><time>2026-05-02T13:34:36.439Z</time></trkpt><trkpt lat="44.0026267" lon="12.619865"><ele>17.4</ele><time>2026-05-02T13:34:38.44Z</time></trkpt><trkpt lat="44.0025417" lon="12.61996"><ele>17.2</ele><time>2026-05-02T13:34:40.439Z</time></trkpt><trkpt lat="44.0024633" lon="12.6200617"><ele>17.0</ele><time>2026-05-02T13:34:42.44Z</time></trkpt><trkpt lat="44.0023733" lon="12.6201333"><ele>16.8</ele><time>2026-05-02T13:34:44.439Z</time></trkpt><trkpt lat="44.0022817" lon="12.62021"><ele>16.6</ele><time>2026-05-02T13:34:46.443Z</time></trkpt><trkpt lat="44.0022483" lon="12.6203483"><ele>16.400000000000002</ele><time>2026-05-02T13:34:48.442Z</time></trkpt><trkpt lat="44.0022667" lon="12.62049"><ele>16.2</ele><time>2026-05-02T13:34:50.44Z</time></trkpt><trkpt lat="44.0023233" lon="12.6206167"><ele>16.0</ele><time>2026-05-02T13:34:52.44Z</time></trkpt><trkpt lat="44.00238" lon="12.6207333"><ele>15.8</ele><time>2026-05-02T13:34:54.441Z</time></trkpt><trkpt lat="44.0024333" lon="12.62085"><ele>15.600000000000001</ele><time>2026-05-02T13:34:56.44Z</time></trkpt><trkpt lat="44.00249" lon="12.620955"><ele>15.4</ele><time>2026-05-02T13:34:58.44Z</time></trkpt><trkpt lat="44.0025433" lon="12.6210483"><ele>15.2</ele><time>2026-05-02T13:35:00.44Z</time></trkpt><trkpt lat="44.002595" lon="12.6211483"><ele>15.0</ele><time>2026-05-02T13:35:02.441Z</time></trkpt><trkpt lat="44.00265" lon="12.62126"><ele>15.4</ele><time>2026-05-02T13:35:04.44Z</time></trkpt><trkpt lat="44.0027" lon="12.6213733"><ele>15.8</ele><time>2026-05-02T13:35:06.441Z</time></trkpt><trkpt lat="44.00275" lon="12.6214767"><ele>16.2</ele><time>2026-05-02T13:35:08.439Z</time></trkpt><trkpt lat="44.0028017" lon="12.62158"><ele>16.6</ele><time>2026-05-02T13:35:10.44Z</time></trkpt><trkpt lat="44.0028517" lon="12.6216917"><ele>17.0</ele><time>2026-05-02T13:35:12.44Z</time></trkpt><trkpt lat="44.002905" lon="12.6217983"><ele>17.0</ele><time>2026-05-02T13:35:14.44Z</time></trkpt><trkpt lat="44.00296" lon="12.6219117"><ele>17.0</ele><time>2026-05-02T13:35:16.443Z</time></trkpt><trkpt lat="44.003015" lon="12.622025"><ele>17.0</ele><time>2026-05-02T13:35:18.442Z</time></trkpt><trkpt lat="44.0030717" lon="12.62214"><ele>17.0</ele><time>2026-05-02T13:35:20.439Z</time></trkpt><trkpt lat="44.0031317" lon="12.6222633"><ele>17.0</ele><time>2026-05-02T13:35:22.439Z</time></trkpt><trkpt lat="44.00319" lon="12.6223817"><ele>17.2</ele><time>2026-05-02T13:35:24.441Z</time></trkpt><trkpt lat="44.0032533" lon="12.6225083"><ele>17.4</ele><time>2026-05-02T13:35:26.441Z</time></trkpt><trkpt lat="44.0033183" lon="12.622635"><ele>17.6</ele><time>2026-05-02T13:35:28.44Z</time></trkpt><trkpt lat="44.0033817" lon="12.622765"><ele>17.8</ele><time>2026-05-02T13:35:30.44Z</time></trkpt><trkpt lat="44.0034433" lon="12.6228933"><ele>18.0</ele><time>2026-05-02T13:35:32.44Z</time></trkpt><trkpt lat="44.0035083" lon="12.6230183"><ele>18.0</ele><time>2026-05-02T13:35:34.44Z</time></trkpt><trkpt lat="44.0035717" lon="12.6231433"><ele>18.0</ele><time>2026-05-02T13:35:36.441Z</time></trkpt><trkpt lat="44.0036317" lon="12.6232717"><ele>18.0</ele><time>2026-05-02T13:35:38.44Z</time></trkpt><trkpt lat="44.003695" lon="12.623395"><ele>18.0</ele><time>2026-05-02T13:35:40.44Z</time></trkpt><trkpt lat="44.00376" lon="12.6235117"><ele>18.0</ele><time>2026-05-02T13:35:42.439Z</time></trkpt><trkpt lat="44.003815" lon="12.623625"><ele>18.0</ele><time>2026-05-02T13:35:44.441Z</time></trkpt><trkpt lat="44.003875" lon="12.6237383"><ele>18.0</ele><time>2026-05-02T13:35:46.443Z</time></trkpt><trkpt lat="44.00393" lon="12.62386"><ele>18.0</ele><time>2026-05-02T13:35:48.442Z</time></trkpt><trkpt lat="44.0039883" lon="12.6239783"><ele>18.0</ele><time>2026-05-02T13:35:50.44Z</time></trkpt><trkpt lat="44.0040483" lon="12.6240983"><ele>18.0</ele><time>2026-05-02T13:35:52.44Z</time></trkpt><trkpt lat="44.0041067" lon="12.6242233"><ele>17.6</ele><time>2026-05-02T13:35:54.44Z</time></trkpt><trkpt lat="44.004165" lon="12.6243483"><ele>17.200000000000003</ele><time>2026-05-02T13:35:56.44Z</time></trkpt><trkpt lat="44.0042233" lon="12.62447"><ele>16.8</ele><time>2026-05-02T13:35:58.441Z</time></trkpt><trkpt lat="44.004285" lon="12.624595"><ele>16.400000000000002</ele><time>2026-05-02T13:36:00.44Z</time></trkpt><trkpt lat="44.0043533" lon="12.624715"><ele>16.0</ele><time>2026-05-02T13:36:02.439Z</time></trkpt><trkpt lat="44.0044133" lon="12.6248333"><ele>16.0</ele><time>2026-05-02T13:36:04.441Z</time></trkpt><trkpt lat="44.0044717" lon="12.6249583"><ele>16.0</ele><time>2026-05-02T13:36:06.44Z</time></trkpt><trkpt lat="44.0045317" lon="12.625085"><ele>16.0</ele><time>2026-05-02T13:36:08.44Z</time></trkpt><trkpt lat="44.00459" lon="12.62521"><ele>16.0</ele><time>2026-05-02T13:36:10.44Z</time></trkpt><trkpt lat="44.0046517" lon="12.6253433"><ele>16.0</ele><time>2026-05-02T13:36:12.44Z</time></trkpt><trkpt lat="44.0047267" lon="12.6254617"><ele>15.4</ele><time>2026-05-02T13:36:14.442Z</time></trkpt><trkpt lat="44.0048267" lon="12.6255317"><ele>14.8</ele><time>2026-05-02T13:36:16.442Z</time></trkpt><trkpt lat="44.0049333" lon="12.625545"><ele>14.200000000000001</ele><time>2026-05-02T13:36:18.44Z</time></trkpt><trkpt lat="44.00503" lon="12.6255733"><ele>13.600000000000001</ele><time>2026-05-02T13:36:20.44Z</time></trkpt><trkpt lat="44.005085" lon="12.6256717"><ele>13.0</ele><time>2026-05-02T13:36:22.44Z</time></trkpt><trkpt lat="44.00509" lon="12.6257933"><ele>13.0</ele><time>2026-05-02T13:36:24.441Z</time></trkpt><trkpt lat="44.0050383" lon="12.6258817"><ele>13.0</ele><time>2026-05-02T13:36:26.444Z</time></trkpt><trkpt lat="44.0049483" lon="12.625945"><ele>13.0</ele><time>2026-05-02T13:36:28.44Z</time></trkpt><trkpt lat="44.00485" lon="12.6260483"><ele>13.0</ele><time>2026-05-02T13:36:30.44Z</time></trkpt><trkpt lat="44.0047983" lon="12.62611"><ele>13.0</ele><time>2026-05-02T13:36:31.44Z</time></trkpt><trkpt lat="44.004725" lon="12.62622"><ele>11.4</ele><time>2026-05-02T13:36:33.441Z</time></trkpt><trkpt lat="44.0046867" lon="12.62632"><ele>9.8</ele><time>2026-05-02T13:36:56.439Z</time></trkpt><trkpt lat="44.0046867" lon="12.62645"><ele>8.2</ele><time>2026-05-02T13:36:58.439Z</time></trkpt><trkpt lat="44.0046683" lon="12.6266033"><ele>6.6</ele><time>2026-05-02T13:37:00.439Z</time></trkpt><trkpt lat="44.004635" lon="12.6267583"><ele>5.0</ele><time>2026-05-02T13:37:02.439Z</time></trkpt><trkpt lat="44.0045967" lon="12.626915"><ele>5.8</ele><time>2026-05-02T13:37:04.44Z</time></trkpt><trkpt lat="44.0045667" lon="12.6269967"><ele>6.6</ele><time>2026-05-02T13:37:05.44Z</time></trkpt><trkpt lat="44.0045133" lon="12.627145"><ele>7.4</ele><time>2026-05-02T13:37:07.439Z</time></trkpt><trkpt lat="44.0044583" lon="12.627275"><ele>8.2</ele><time>2026-05-02T13:37:09.441Z</time></trkpt><trkpt lat="44.0043933" lon="12.6274067"><ele>9.0</ele><time>2026-05-02T13:37:11.44Z</time></trkpt><trkpt lat="44.0043333" lon="12.6275517"><ele>9.0</ele><time>2026-05-02T13:37:13.439Z</time></trkpt><trkpt lat="44.0042883" lon="12.6277033"><ele>9.0</ele><time>2026-05-02T13:37:15.441Z</time></trkpt><trkpt lat="44.0042433" lon="12.627835"><ele>9.0</ele><time>2026-05-02T13:37:17.442Z</time></trkpt><trkpt lat="44.0042" lon="12.627955"><ele>9.0</ele><time>2026-05-02T13:37:19.441Z</time></trkpt><trkpt lat="44.0041583" lon="12.6280617"><ele>9.0</ele><time>2026-05-02T13:37:21.44Z</time></trkpt><trkpt lat="44.004125" lon="12.62815"><ele>9.714285714285715</ele><time>2026-05-02T13:37:23.44Z</time></trkpt><trkpt lat="44.0041017" lon="12.6282383"><ele>10.428571428571429</ele><time>2026-05-02T13:37:25.44Z</time></trkpt><trkpt lat="44.0040767" lon="12.6283383"><ele>11.142857142857142</ele><time>2026-05-02T13:37:28.44Z</time></trkpt><trkpt lat="44.0040683" lon="12.6284267"><ele>11.857142857142858</ele><time>2026-05-02T13:37:32.439Z</time></trkpt><trkpt lat="44.0040867" lon="12.6285383"><ele>12.571428571428571</ele><time>2026-05-02T13:37:37.44Z</time></trkpt><trkpt lat="44.0040583" lon="12.6286283"><ele>13.285714285714286</ele><time>2026-05-02T13:37:41.441Z</time></trkpt><trkpt lat="44.0040467" lon="12.6287283"><ele>14.0</ele><time>2026-05-02T13:37:46.443Z</time></trkpt><trkpt lat="44.0040283" lon="12.6288283"><ele>14.285714285714285</ele><time>2026-05-02T13:37:51.443Z</time></trkpt><trkpt lat="44.00399" lon="12.6289217"><ele>14.571428571428571</ele><time>2026-05-02T13:37:56.441Z</time></trkpt><trkpt lat="44.0039483" lon="12.629005"><ele>14.857142857142858</ele><time>2026-05-02T13:38:00.44Z</time></trkpt><trkpt lat="44.0039033" lon="12.6290717"><ele>15.142857142857142</ele><time>2026-05-02T13:38:04.438Z</time></trkpt><trkpt lat="44.003855" lon="12.6291433"><ele>15.428571428571427</ele><time>2026-05-02T13:38:07.44Z</time></trkpt><trkpt lat="44.003805" lon="12.6291983"><ele>15.714285714285714</ele><time>2026-05-02T13:38:10.438Z</time></trkpt><trkpt lat="44.00375" lon="12.6292783"><ele>16.0</ele><time>2026-05-02T13:38:13.441Z</time></trkpt><trkpt lat="44.0037033" lon="12.6293583"><ele>16.0</ele><time>2026-05-02T13:38:16.442Z</time></trkpt><trkpt lat="44.003655" lon="12.62944"><ele>15.999999999999998</ele><time>2026-05-02T13:38:19.439Z</time></trkpt><trkpt lat="44.0036067" lon="12.6295083"><ele>16.0</ele><time>2026-05-02T13:38:21.442Z</time></trkpt><trkpt lat="44.003555" lon="12.6295833"><ele>16.0</ele><time>2026-05-02T13:38:23.442Z</time></trkpt><trkpt lat="44.0035183" lon="12.629655"><ele>15.999999999999998</ele><time>2026-05-02T13:38:25.439Z</time></trkpt><trkpt lat="44.0034633" lon="12.6297383"><ele>16.0</ele><time>2026-05-02T13:38:28.439Z</time></trkpt><trkpt lat="44.00341" lon="12.629805"><ele>16.0</ele><time>2026-05-02T13:38:30.439Z</time></trkpt><trkpt lat="44.0033617" lon="12.629895"><ele>15.833333333333332</ele><time>2026-05-02T13:38:32.439Z</time></trkpt><trkpt lat="44.0033117" lon="12.6299833"><ele>15.666666666666666</ele><time>2026-05-02T13:38:34.438Z</time></trkpt><trkpt lat="44.003255" lon="12.63004"><ele>15.5</ele><time>2026-05-02T13:38:36.438Z</time></trkpt><trkpt lat="44.0032017" lon="12.63009"><ele>15.333333333333332</ele><time>2026-05-02T13:38:38.438Z</time></trkpt><trkpt lat="44.003145" lon="12.6301483"><ele>15.166666666666666</ele><time>2026-05-02T13:38:40.439Z</time></trkpt><trkpt lat="44.0030883" lon="12.63023"><ele>15.0</ele><time>2026-05-02T13:38:42.439Z</time></trkpt><trkpt lat="44.0030167" lon="12.6302967"><ele>15.0</ele><time>2026-05-02T13:38:44.439Z</time></trkpt><trkpt lat="44.0029517" lon="12.630365"><ele>15.0</ele><time>2026-05-02T13:38:46.441Z</time></trkpt><trkpt lat="44.0028933" lon="12.63044"><ele>15.0</ele><time>2026-05-02T13:38:48.441Z</time></trkpt><trkpt lat="44.0028367" lon="12.63053"><ele>15.0</ele><time>2026-05-02T13:38:50.442Z</time></trkpt><trkpt lat="44.002775" lon="12.630625"><ele>15.0</ele><time>2026-05-02T13:38:52.442Z</time></trkpt><trkpt lat="44.0027067" lon="12.6307083"><ele>15.0</ele><time>2026-05-02T13:38:54.441Z</time></trkpt><trkpt lat="44.0026417" lon="12.6308067"><ele>15.0</ele><time>2026-05-02T13:38:56.44Z</time></trkpt><trkpt lat="44.00258" lon="12.6309167"><ele>15.0</ele><time>2026-05-02T13:38:58.439Z</time></trkpt><trkpt lat="44.0025317" lon="12.6310283"><ele>15.0</ele><time>2026-05-02T13:39:00.441Z</time></trkpt><trkpt lat="44.00247" lon="12.6311217"><ele>15.0</ele><time>2026-05-02T13:39:02.44Z</time></trkpt><trkpt lat="44.0024117" lon="12.6312233"><ele>15.0</ele><time>2026-05-02T13:39:04.44Z</time></trkpt><trkpt lat="44.0023567" lon="12.6313333"><ele>14.6</ele><time>2026-05-02T13:39:06.439Z</time></trkpt><trkpt lat="44.002305" lon="12.6314433"><ele>14.2</ele><time>2026-05-02T13:39:08.44Z</time></trkpt><trkpt lat="44.0022617" lon="12.6315817"><ele>13.8</ele><time>2026-05-02T13:39:10.441Z</time></trkpt><trkpt lat="44.0022267" lon="12.6317183"><ele>13.4</ele><time>2026-05-02T13:39:12.441Z</time></trkpt><trkpt lat="44.0021933" lon="12.6318567"><ele>13.0</ele><time>2026-05-02T13:39:14.441Z</time></trkpt><trkpt lat="44.002175" lon="12.6319967"><ele>13.0</ele><time>2026-05-02T13:39:16.441Z</time></trkpt><trkpt lat="44.0021683" lon="12.6321433"><ele>13.0</ele><time>2026-05-02T13:39:18.537Z</time></trkpt><trkpt lat="44.002165" lon="12.63227"><ele>13.0</ele><time>2026-05-02T13:39:20.44Z</time></trkpt><trkpt lat="44.00217" lon="12.6324133"><ele>13.0</ele><time>2026-05-02T13:39:22.44Z</time></trkpt><trkpt lat="44.002175" lon="12.6325533"><ele>13.0</ele><time>2026-05-02T13:39:24.439Z</time></trkpt><trkpt lat="44.0021867" lon="12.6327033"><ele>12.999999999999998</ele><time>2026-05-02T13:39:26.44Z</time></trkpt><trkpt lat="44.002205" lon="12.63285"><ele>13.0</ele><time>2026-05-02T13:39:28.44Z</time></trkpt><trkpt lat="44.0022267" lon="12.6329667"><ele>13.0</ele><time>2026-05-02T13:39:30.44Z</time></trkpt><trkpt lat="44.002255" lon="12.6330583"><ele>13.0</ele><time>2026-05-02T13:39:32.441Z</time></trkpt><trkpt lat="44.00232" lon="12.633095"><ele>12.999999999999998</ele><time>2026-05-02T13:39:34.442Z</time></trkpt><trkpt lat="44.0023983" lon="12.6330667"><ele>13.0</ele><time>2026-05-02T13:39:37.439Z</time></trkpt><trkpt lat="44.0024767" lon="12.63307"><ele>12.999999999999998</ele><time>2026-05-02T13:39:40.44Z</time></trkpt><trkpt lat="44.0025483" lon="12.63307"><ele>13.0</ele><time>2026-05-02T13:39:42.439Z</time></trkpt><trkpt lat="44.002625" lon="12.6330733"><ele>13.0</ele><time>2026-05-02T13:39:44.439Z</time></trkpt><trkpt lat="44.0027" lon="12.6330667"><ele>13.0</ele><time>2026-05-02T13:39:46.439Z</time></trkpt><trkpt lat="44.0027867" lon="12.6330633"><ele>12.999999999999998</ele><time>2026-05-02T13:39:48.439Z</time></trkpt><trkpt lat="44.0028833" lon="12.6330617"><ele>13.0</ele><time>2026-05-02T13:39:50.44Z</time></trkpt><trkpt lat="44.0029917" lon="12.6330567"><ele>13.0</ele><time>2026-05-02T13:39:52.439Z</time></trkpt><trkpt lat="44.0030983" lon="12.6330467"><ele>13.0</ele><time>2026-05-02T13:39:54.439Z</time></trkpt><trkpt lat="44.003195" lon="12.63304"><ele>13.0</ele><time>2026-05-02T13:39:56.441Z</time></trkpt><trkpt lat="44.0032883" lon="12.63303"><ele>13.0</ele><time>2026-05-02T13:39:58.44Z</time></trkpt><trkpt lat="44.0033783" lon="12.6330183"><ele>13.0</ele><time>2026-05-02T13:40:00.441Z</time></trkpt><trkpt lat="44.0034683" lon="12.6330067"><ele>13.142857142857142</ele><time>2026-05-02T13:40:02.439Z</time></trkpt><trkpt lat="44.0035433" lon="12.633"><ele>13.285714285714286</ele><time>2026-05-02T13:40:04.439Z</time></trkpt><trkpt lat="44.00361" lon="12.6329983"><ele>13.428571428571429</ele><time>2026-05-02T13:40:06.442Z</time></trkpt><trkpt lat="44.0036817" lon="12.6329883"><ele>13.571428571428571</ele><time>2026-05-02T13:40:09.44Z</time></trkpt><trkpt lat="44.003755" lon="12.632975"><ele>13.714285714285715</ele><time>2026-05-02T13:40:12.441Z</time></trkpt><trkpt lat="44.0038367" lon="12.6329517"><ele>13.857142857142858</ele><time>2026-05-02T13:40:15.441Z</time></trkpt><trkpt lat="44.0039017" lon="12.63295"><ele>14.0</ele><time>2026-05-02T13:40:18.442Z</time></trkpt><trkpt lat="44.0038333" lon="12.6329183"><ele>14.0</ele><time>2026-05-02T13:40:25.44Z</time></trkpt><trkpt lat="44.00376" lon="12.632925"><ele>14.0</ele><time>2026-05-02T13:40:28.441Z</time></trkpt><trkpt lat="44.0036917" lon="12.6329417"><ele>14.0</ele><time>2026-05-02T13:40:31.441Z</time></trkpt><trkpt lat="44.00365" lon="12.63302"><ele>14.0</ele><time>2026-05-02T13:40:35.44Z</time></trkpt><trkpt lat="44.003665" lon="12.6331067"><ele>14.0</ele><time>2026-05-02T13:40:40.439Z</time></trkpt><trkpt lat="44.0036617" lon="12.6332233"><ele>14.0</ele><time>2026-05-02T13:40:44.44Z</time></trkpt><trkpt lat="44.0036767" lon="12.63333"><ele>14.0</ele><time>2026-05-02T13:40:48.441Z</time></trkpt><trkpt lat="44.0036917" lon="12.6334567"><ele>14.000000000000002</ele><time>2026-05-02T13:40:51.44Z</time></trkpt><trkpt lat="44.0037133" lon="12.6335783"><ele>14.0</ele><time>2026-05-02T13:40:54.441Z</time></trkpt><trkpt lat="44.003735" lon="12.6337533"><ele>14.0</ele><time>2026-05-02T13:41:03.442Z</time></trkpt><trkpt lat="44.0037767" lon="12.6338567"><ele>14.0</ele><time>2026-05-02T13:41:07.441Z</time></trkpt><trkpt lat="44.0037417" lon="12.63395"><ele>14.000000000000002</ele><time>2026-05-02T13:41:11.441Z</time></trkpt><trkpt lat="44.003675" lon="12.633965"><ele>14.0</ele><time>2026-05-02T13:41:13.44Z</time></trkpt><trkpt lat="44.0036067" lon="12.6339683"><ele>13.799999999999999</ele><time>2026-05-02T13:41:15.44Z</time></trkpt><trkpt lat="44.0035317" lon="12.6339883"><ele>13.599999999999998</ele><time>2026-05-02T13:41:17.442Z</time></trkpt><trkpt lat="44.0034417" lon="12.633995"><ele>13.4</ele><time>2026-05-02T13:41:19.441Z</time></trkpt><trkpt lat="44.003335" lon="12.63401"><ele>13.2</ele><time>2026-05-02T13:41:21.441Z</time></trkpt><trkpt lat="44.003235" lon="12.63409"><ele>13.0</ele><time>2026-05-02T13:41:23.441Z</time></trkpt><trkpt lat="44.0031917" lon="12.6342117"><ele>12.999999999999998</ele><time>2026-05-02T13:41:25.441Z</time></trkpt><trkpt lat="44.00319" lon="12.6343433"><ele>13.0</ele><time>2026-05-02T13:41:27.441Z</time></trkpt><trkpt lat="44.0032217" lon="12.6344617"><ele>13.0</ele><time>2026-05-02T13:41:29.442Z</time></trkpt><trkpt lat="44.00331" lon="12.63448"><ele>13.0</ele><time>2026-05-02T13:41:31.44Z</time></trkpt><trkpt lat="44.0033717" lon="12.63446"><ele>12.999999999999998</ele><time>2026-05-02T13:41:32.444Z</time></trkpt><trkpt lat="44.0034683" lon="12.6344167"><ele>13.0</ele><time>2026-05-02T13:41:34.441Z</time></trkpt><trkpt lat="44.0035483" lon="12.6343933"><ele>12.999999999999998</ele><time>2026-05-02T13:41:36.44Z</time></trkpt><trkpt lat="44.0036133" lon="12.6344033"><ele>13.0</ele><time>2026-05-02T13:41:38.44Z</time></trkpt><trkpt lat="44.0036817" lon="12.6344333"><ele>13.0</ele><time>2026-05-02T13:41:40.44Z</time></trkpt><trkpt lat="44.0037583" lon="12.634455"><ele>13.0</ele><time>2026-05-02T13:41:42.44Z</time></trkpt><trkpt lat="44.0038283" lon="12.634465"><ele>12.999999999999998</ele><time>2026-05-02T13:41:44.441Z</time></trkpt><trkpt lat="44.003905" lon="12.63449"><ele>13.0</ele><time>2026-05-02T13:41:46.439Z</time></trkpt><trkpt lat="44.004" lon="12.634485"><ele>12.999999999999998</ele><time>2026-05-02T13:41:48.44Z</time></trkpt><trkpt lat="44.004085" lon="12.6344667"><ele>13.0</ele><time>2026-05-02T13:41:50.44Z</time></trkpt><trkpt lat="44.0041617" lon="12.634435"><ele>13.0</ele><time>2026-05-02T13:41:52.439Z</time></trkpt><trkpt lat="44.004225" lon="12.6344017"><ele>13.0</ele><time>2026-05-02T13:41:54.44Z</time></trkpt><trkpt lat="44.0043017" lon="12.63437"><ele>12.999999999999998</ele><time>2026-05-02T13:41:56.44Z</time></trkpt><trkpt lat="44.0043983" lon="12.634335"><ele>13.0</ele><time>2026-05-02T13:41:58.439Z</time></trkpt><trkpt lat="44.0044983" lon="12.6343417"><ele>12.8</ele><time>2026-05-02T13:42:00.441Z</time></trkpt><trkpt lat="44.0046033" lon="12.6343917"><ele>12.600000000000001</ele><time>2026-05-02T13:42:02.44Z</time></trkpt><trkpt lat="44.0046933" lon="12.634485"><ele>12.399999999999999</ele><time>2026-05-02T13:42:04.44Z</time></trkpt><trkpt lat="44.0047667" lon="12.6346"><ele>12.2</ele><time>2026-05-02T13:42:06.44Z</time></trkpt><trkpt lat="44.0048317" lon="12.6347183"><ele>12.0</ele><time>2026-05-02T13:42:08.443Z</time></trkpt><trkpt lat="44.0048833" lon="12.6348567"><ele>11.8</ele><time>2026-05-02T13:42:10.439Z</time></trkpt><trkpt lat="44.0049167" lon="12.6349967"><ele>11.6</ele><time>2026-05-02T13:42:12.44Z</time></trkpt><trkpt lat="44.0049383" lon="12.6351433"><ele>11.4</ele><time>2026-05-02T13:42:14.44Z</time></trkpt><trkpt lat="44.0049617" lon="12.6352783"><ele>11.200000000000001</ele><time>2026-05-02T13:42:16.443Z</time></trkpt><trkpt lat="44.0050083" lon="12.6354033"><ele>11.0</ele><time>2026-05-02T13:42:18.443Z</time></trkpt><trkpt lat="44.0050433" lon="12.6355283"><ele>11.600000000000001</ele><time>2026-05-02T13:42:20.442Z</time></trkpt><trkpt lat="44.00508" lon="12.635655"><ele>12.2</ele><time>2026-05-02T13:42:22.443Z</time></trkpt><trkpt lat="44.0051283" lon="12.6357567"><ele>12.799999999999999</ele><time>2026-05-02T13:42:24.442Z</time></trkpt><trkpt lat="44.0051733" lon="12.6358517"><ele>13.399999999999999</ele><time>2026-05-02T13:42:26.44Z</time></trkpt><trkpt lat="44.0052183" lon="12.6359683"><ele>14.0</ele><time>2026-05-02T13:42:28.442Z</time></trkpt><trkpt lat="44.0052783" lon="12.636095"><ele>13.799999999999999</ele><time>2026-05-02T13:42:30.441Z</time></trkpt><trkpt lat="44.00534" lon="12.6362183"><ele>13.599999999999998</ele><time>2026-05-02T13:42:32.441Z</time></trkpt><trkpt lat="44.005395" lon="12.6363367"><ele>13.4</ele><time>2026-05-02T13:42:34.441Z</time></trkpt><trkpt lat="44.0054333" lon="12.6364533"><ele>13.2</ele><time>2026-05-02T13:42:36.441Z</time></trkpt><trkpt lat="44.0054433" lon="12.6365683"><ele>13.0</ele><time>2026-05-02T13:42:38.441Z</time></trkpt><trkpt lat="44.0054733" lon="12.6366717"><ele>13.0</ele><time>2026-05-02T13:42:40.44Z</time></trkpt><trkpt lat="44.0055067" lon="12.6367467"><ele>13.0</ele><time>2026-05-02T13:42:42.441Z</time></trkpt><trkpt lat="44.0054867" lon="12.6368317"><ele>13.0</ele><time>2026-05-02T13:42:45.441Z</time></trkpt><trkpt lat="44.00543" lon="12.6368833"><ele>13.0</ele><time>2026-05-02T13:42:47.443Z</time></trkpt><trkpt lat="44.0053833" lon="12.6369567"><ele>13.0</ele><time>2026-05-02T13:42:49.442Z</time></trkpt><trkpt lat="44.005325" lon="12.6370217"><ele>13.0</ele><time>2026-05-02T13:42:51.443Z</time></trkpt><trkpt lat="44.0052433" lon="12.6370967"><ele>13.0</ele><time>2026-05-02T13:42:53.442Z</time></trkpt><trkpt lat="44.0051533" lon="12.6371633"><ele>13.0</ele><time>2026-05-02T13:42:55.439Z</time></trkpt><trkpt lat="44.0050717" lon="12.637225"><ele>13.0</ele><time>2026-05-02T13:42:57.439Z</time></trkpt><trkpt lat="44.0049983" lon="12.637285"><ele>13.0</ele><time>2026-05-02T13:42:59.439Z</time></trkpt><trkpt lat="44.0049267" lon="12.637345"><ele>13.0</ele><time>2026-05-02T13:43:01.438Z</time></trkpt><trkpt lat="44.0048583" lon="12.6374083"><ele>13.0</ele><time>2026-05-02T13:43:03.439Z</time></trkpt><trkpt lat="44.0047667" lon="12.6374833"><ele>13.0</ele><time>2026-05-02T13:43:05.439Z</time></trkpt><trkpt lat="44.0046733" lon="12.6375667"><ele>13.0</ele><time>2026-05-02T13:43:07.438Z</time></trkpt><trkpt lat="44.00458" lon="12.6376467"><ele>13.0</ele><time>2026-05-02T13:43:09.44Z</time></trkpt><trkpt lat="44.004485" lon="12.637725"><ele>13.0</ele><time>2026-05-02T13:43:11.438Z</time></trkpt><trkpt lat="44.00439" lon="12.6378117"><ele>13.0</ele><time>2026-05-02T13:43:13.439Z</time></trkpt><trkpt lat="44.004295" lon="12.6378867"><ele>13.0</ele><time>2026-05-02T13:43:15.44Z</time></trkpt><trkpt lat="44.0041967" lon="12.6379683"><ele>13.0</ele><time>2026-05-02T13:43:17.442Z</time></trkpt><trkpt lat="44.0041067" lon="12.6380467"><ele>13.0</ele><time>2026-05-02T13:43:19.441Z</time></trkpt><trkpt lat="44.004025" lon="12.6381283"><ele>13.0</ele><time>2026-05-02T13:43:21.443Z</time></trkpt><trkpt lat="44.00395" lon="12.6382067"><ele>13.0</ele><time>2026-05-02T13:43:23.441Z</time></trkpt><trkpt lat="44.00387" lon="12.6382767"><ele>12.499999999999998</ele><time>2026-05-02T13:43:25.438Z</time></trkpt><trkpt lat="44.0037883" lon="12.6383417"><ele>12.0</ele><time>2026-05-02T13:43:27.439Z</time></trkpt><trkpt lat="44.00372" lon="12.6384033"><ele>11.5</ele><time>2026-05-02T13:43:29.438Z</time></trkpt><trkpt lat="44.0036783" lon="12.6384783"><ele>11.0</ele><time>2026-05-02T13:43:31.439Z</time></trkpt><trkpt lat="44.00376" lon="12.638475"><ele>10.5</ele><time>2026-05-02T13:43:38.441Z</time></trkpt><trkpt lat="44.0038367" lon="12.638395"><ele>10.0</ele><time>2026-05-02T13:43:41.442Z</time></trkpt><trkpt lat="44.0038933" lon="12.63834"><ele>10.0</ele><time>2026-05-02T13:43:43.439Z</time></trkpt><trkpt lat="44.0039667" lon="12.6383333"><ele>10.0</ele><time>2026-05-02T13:43:46.442Z</time></trkpt><trkpt lat="44.0040267" lon="12.6384183"><ele>10.0</ele><time>2026-05-02T13:43:49.439Z</time></trkpt><trkpt lat="44.004075" lon="12.6385133"><ele>10.0</ele><time>2026-05-02T13:43:51.443Z</time></trkpt><trkpt lat="44.0041283" lon="12.6386017"><ele>10.0</ele><time>2026-05-02T13:43:53.44Z</time></trkpt><trkpt lat="44.0041783" lon="12.638715"><ele>10.0</ele><time>2026-05-02T13:43:56.442Z</time></trkpt><trkpt lat="44.00423" lon="12.6388217"><ele>10.2</ele><time>2026-05-02T13:43:58.438Z</time></trkpt><trkpt lat="44.004285" lon="12.6389317"><ele>10.4</ele><time>2026-05-02T13:44:00.439Z</time></trkpt><trkpt lat="44.004345" lon="12.6390467"><ele>10.600000000000001</ele><time>2026-05-02T13:44:02.44Z</time></trkpt><trkpt lat="44.0044067" lon="12.6391567"><ele>10.8</ele><time>2026-05-02T13:44:04.439Z</time></trkpt><trkpt lat="44.004455" lon="12.6392633"><ele>11.0</ele><time>2026-05-02T13:44:06.439Z</time></trkpt><trkpt lat="44.00449" lon="12.639375"><ele>11.200000000000001</ele><time>2026-05-02T13:44:08.44Z</time></trkpt><trkpt lat="44.0045383" lon="12.6394767"><ele>11.4</ele><time>2026-05-02T13:44:10.438Z</time></trkpt><trkpt lat="44.004585" lon="12.6396033"><ele>11.6</ele><time>2026-05-02T13:44:12.44Z</time></trkpt><trkpt lat="44.00464" lon="12.6397417"><ele>11.8</ele><time>2026-05-02T13:44:14.44Z</time></trkpt><trkpt lat="44.0046933" lon="12.63987"><ele>12.0</ele><time>2026-05-02T13:44:16.438Z</time></trkpt><trkpt lat="44.0047517" lon="12.6400017"><ele>12.0</ele><time>2026-05-02T13:44:18.442Z</time></trkpt><trkpt lat="44.0048067" lon="12.6401367"><ele>12.0</ele><time>2026-05-02T13:44:20.441Z</time></trkpt><trkpt lat="44.0048633" lon="12.6402533"><ele>12.0</ele><time>2026-05-02T13:44:22.442Z</time></trkpt><trkpt lat="44.00492" lon="12.6403533"><ele>12.0</ele><time>2026-05-02T13:44:24.442Z</time></trkpt><trkpt lat="44.00498" lon="12.640455"><ele>12.0</ele><time>2026-05-02T13:44:26.439Z</time></trkpt><trkpt lat="44.0050383" lon="12.6405433"><ele>12.0</ele><time>2026-05-02T13:44:28.438Z</time></trkpt><trkpt lat="44.00507" lon="12.64063"><ele>12.0</ele><time>2026-05-02T13:44:30.44Z</time></trkpt><trkpt lat="44.0050333" lon="12.640715"><ele>12.0</ele><time>2026-05-02T13:44:33.44Z</time></trkpt><trkpt lat="44.00496" lon="12.64077"><ele>12.0</ele><time>2026-05-02T13:44:35.438Z</time></trkpt><trkpt lat="44.0048933" lon="12.6408333"><ele>12.0</ele><time>2026-05-02T13:44:37.439Z</time></trkpt><trkpt lat="44.0048217" lon="12.6408767"><ele>12.0</ele><time>2026-05-02T13:44:39.44Z</time></trkpt><trkpt lat="44.0047533" lon="12.6409333"><ele>11.833333333333334</ele><time>2026-05-02T13:44:41.439Z</time></trkpt><trkpt lat="44.0046817" lon="12.640985"><ele>11.666666666666666</ele><time>2026-05-02T13:44:43.44Z</time></trkpt><trkpt lat="44.0046117" lon="12.6410383"><ele>11.5</ele><time>2026-05-02T13:44:45.441Z</time></trkpt><trkpt lat="44.0045367" lon="12.6410867"><ele>11.333333333333332</ele><time>2026-05-02T13:44:47.441Z</time></trkpt><trkpt lat="44.0044617" lon="12.6411333"><ele>11.166666666666666</ele><time>2026-05-02T13:44:49.442Z</time></trkpt><trkpt lat="44.0043933" lon="12.6411783"><ele>11.0</ele><time>2026-05-02T13:44:51.443Z</time></trkpt><trkpt lat="44.004335" lon="12.64123"><ele>11.0</ele><time>2026-05-02T13:44:53.444Z</time></trkpt><trkpt lat="44.0043117" lon="12.641335"><ele>11.0</ele><time>2026-05-02T13:44:56.441Z</time></trkpt><trkpt lat="44.004325" lon="12.641435"><ele>11.0</ele><time>2026-05-02T13:45:00.44Z</time></trkpt><trkpt lat="44.0043717" lon="12.6415267"><ele>11.0</ele><time>2026-05-02T13:45:03.442Z</time></trkpt><trkpt lat="44.004425" lon="12.64163"><ele>11.0</ele><time>2026-05-02T13:45:06.441Z</time></trkpt><trkpt lat="44.004465" lon="12.64175"><ele>11.0</ele><time>2026-05-02T13:45:09.441Z</time></trkpt><trkpt lat="44.0045017" lon="12.641825"><ele>11.0</ele><time>2026-05-02T13:45:11.441Z</time></trkpt><trkpt lat="44.0045383" lon="12.6419033"><ele>11.0</ele><time>2026-05-02T13:45:13.44Z</time></trkpt><trkpt lat="44.0045583" lon="12.64199"><ele>11.0</ele><time>2026-05-02T13:45:15.44Z</time></trkpt><trkpt lat="44.0045917" lon="12.64208"><ele>11.0</ele><time>2026-05-02T13:45:17.44Z</time></trkpt><trkpt lat="44.00463" lon="12.6421767"><ele>11.0</ele><time>2026-05-02T13:45:19.442Z</time></trkpt><trkpt lat="44.0046567" lon="12.6422733"><ele>11.0</ele><time>2026-05-02T13:45:21.443Z</time></trkpt><trkpt lat="44.0046867" lon="12.6423683"><ele>11.0</ele><time>2026-05-02T13:45:23.442Z</time></trkpt><trkpt lat="44.0047133" lon="12.642475"><ele>11.333333333333332</ele><time>2026-05-02T13:45:25.441Z</time></trkpt><trkpt lat="44.0047083" lon="12.6425883"><ele>11.666666666666666</ele><time>2026-05-02T13:45:27.44Z</time></trkpt><trkpt lat="44.0046983" lon="12.642685"><ele>12.0</ele><time>2026-05-02T13:45:29.439Z</time></trkpt><trkpt lat="44.0046783" lon="12.6427717"><ele>12.333333333333332</ele><time>2026-05-02T13:45:31.439Z</time></trkpt><trkpt lat="44.0046383" lon="12.6428667"><ele>12.666666666666666</ele><time>2026-05-02T13:45:33.44Z</time></trkpt><trkpt lat="44.0045767" lon="12.6429683"><ele>13.0</ele><time>2026-05-02T13:45:35.439Z</time></trkpt><trkpt lat="44.0045083" lon="12.6430417"><ele>13.0</ele><time>2026-05-02T13:45:37.439Z</time></trkpt><trkpt lat="44.0044383" lon="12.6430817"><ele>13.0</ele><time>2026-05-02T13:45:39.439Z</time></trkpt><trkpt lat="44.0043533" lon="12.6431383"><ele>13.0</ele><time>2026-05-02T13:45:41.44Z</time></trkpt><trkpt lat="44.0042683" lon="12.6432083"><ele>13.0</ele><time>2026-05-02T13:45:43.44Z</time></trkpt><trkpt lat="44.004175" lon="12.64326"><ele>13.0</ele><time>2026-05-02T13:45:45.439Z</time></trkpt><trkpt lat="44.0040717" lon="12.6433483"><ele>13.0</ele><time>2026-05-02T13:45:47.442Z</time></trkpt><trkpt lat="44.0039783" lon="12.64342"><ele>13.0</ele><time>2026-05-02T13:45:49.441Z</time></trkpt><trkpt lat="44.0038783" lon="12.6434917"><ele>13.0</ele><time>2026-05-02T13:45:51.44Z</time></trkpt><trkpt lat="44.0037733" lon="12.6435817"><ele>13.0</ele><time>2026-05-02T13:45:53.44Z</time></trkpt><trkpt lat="44.0036767" lon="12.64366"><ele>12.4</ele><time>2026-05-02T13:45:55.439Z</time></trkpt><trkpt lat="44.00358" lon="12.6437283"><ele>11.8</ele><time>2026-05-02T13:45:57.44Z</time></trkpt><trkpt lat="44.0034933" lon="12.64379"><ele>11.2</ele><time>2026-05-02T13:45:59.439Z</time></trkpt><trkpt lat="44.0034" lon="12.64384"><ele>10.6</ele><time>2026-05-02T13:46:01.438Z</time></trkpt><trkpt lat="44.003315" lon="12.643905"><ele>10.0</ele><time>2026-05-02T13:46:03.439Z</time></trkpt><trkpt lat="44.0032267" lon="12.64397"><ele>10.0</ele><time>2026-05-02T13:46:05.439Z</time></trkpt><trkpt lat="44.0031483" lon="12.644035"><ele>10.0</ele><time>2026-05-02T13:46:07.441Z</time></trkpt><trkpt lat="44.0030767" lon="12.64409"><ele>10.0</ele><time>2026-05-02T13:46:09.439Z</time></trkpt><trkpt lat="44.0030117" lon="12.6441517"><ele>10.0</ele><time>2026-05-02T13:46:11.44Z</time></trkpt><trkpt lat="44.0029633" lon="12.6442483"><ele>10.0</ele><time>2026-05-02T13:46:14.44Z</time></trkpt><trkpt lat="44.0029233" lon="12.644445"><ele>10.2</ele><time>2026-05-02T13:46:26.44Z</time></trkpt><trkpt lat="44.00282" lon="12.64447"><ele>10.4</ele><time>2026-05-02T13:46:28.439Z</time></trkpt><trkpt lat="44.0027333" lon="12.644535"><ele>10.600000000000001</ele><time>2026-05-02T13:46:30.44Z</time></trkpt><trkpt lat="44.002665" lon="12.6446083"><ele>10.8</ele><time>2026-05-02T13:46:32.443Z</time></trkpt><trkpt lat="44.0025983" lon="12.644665"><ele>11.0</ele><time>2026-05-02T13:46:34.439Z</time></trkpt><trkpt lat="44.0025167" lon="12.644745"><ele>10.833333333333332</ele><time>2026-05-02T13:46:36.44Z</time></trkpt><trkpt lat="44.0024317" lon="12.6448233"><ele>10.666666666666666</ele><time>2026-05-02T13:46:38.439Z</time></trkpt><trkpt lat="44.0023617" lon="12.6448867"><ele>10.5</ele><time>2026-05-02T13:46:40.44Z</time></trkpt><trkpt lat="44.0022883" lon="12.644935"><ele>10.333333333333334</ele><time>2026-05-02T13:46:42.44Z</time></trkpt><trkpt lat="44.0022183" lon="12.6449917"><ele>10.166666666666668</ele><time>2026-05-02T13:46:44.44Z</time></trkpt><trkpt lat="44.0021583" lon="12.645045"><ele>10.0</ele><time>2026-05-02T13:46:46.443Z</time></trkpt><trkpt lat="44.0020983" lon="12.645085"><ele>10.0</ele><time>2026-05-02T13:46:48.44Z</time></trkpt><trkpt lat="44.00203" lon="12.6451333"><ele>10.0</ele><time>2026-05-02T13:46:50.44Z</time></trkpt><trkpt lat="44.0019767" lon="12.6451817"><ele>10.0</ele><time>2026-05-02T13:46:52.44Z</time></trkpt><trkpt lat="44.0019217" lon="12.6452383"><ele>10.0</ele><time>2026-05-02T13:46:55.44Z</time></trkpt><trkpt lat="44.0019717" lon="12.6451517"><ele>10.0</ele><time>2026-05-02T13:47:03.44Z</time></trkpt><trkpt lat="44.0020383" lon="12.6451083"><ele>10.0</ele><time>2026-05-02T13:47:06.44Z</time></trkpt><trkpt lat="44.00205" lon="12.645235"><ele>9.833333333333334</ele><time>2026-05-02T13:47:10.441Z</time></trkpt><trkpt lat="44.00201" lon="12.6453167"><ele>9.666666666666668</ele><time>2026-05-02T13:47:12.44Z</time></trkpt><trkpt lat="44.00196" lon="12.6454217"><ele>9.5</ele><time>2026-05-02T13:47:14.44Z</time></trkpt><trkpt lat="44.0018867" lon="12.64551"><ele>9.333333333333334</ele><time>2026-05-02T13:47:17.443Z</time></trkpt><trkpt lat="44.0018233" lon="12.6455883"><ele>9.166666666666666</ele><time>2026-05-02T13:47:19.441Z</time></trkpt><trkpt lat="44.0017583" lon="12.6456183"><ele>9.0</ele><time>2026-05-02T13:47:21.441Z</time></trkpt><trkpt lat="44.001695" lon="12.6455767"><ele>8.2</ele><time>2026-05-02T13:47:23.442Z</time></trkpt><trkpt lat="44.0016467" lon="12.645455"><ele>7.4</ele><time>2026-05-02T13:47:25.441Z</time></trkpt><trkpt lat="44.00159" lon="12.645325"><ele>6.6</ele><time>2026-05-02T13:47:27.44Z</time></trkpt><trkpt lat="44.001525" lon="12.6451967"><ele>5.8</ele><time>2026-05-02T13:47:29.443Z</time></trkpt><trkpt lat="44.001465" lon="12.6450683"><ele>5.0</ele><time>2026-05-02T13:47:31.441Z</time></trkpt><trkpt lat="44.0014267" lon="12.6449917"><ele>5.0</ele><time>2026-05-02T13:47:32.439Z</time></trkpt><trkpt lat="44.0013483" lon="12.6448467"><ele>5.0</ele><time>2026-05-02T13:47:34.439Z</time></trkpt><trkpt lat="44.001305" lon="12.644765"><ele>5.0</ele><time>2026-05-02T13:47:35.441Z</time></trkpt><trkpt lat="44.00127" lon="12.6446833"><ele>5.0</ele><time>2026-05-02T13:47:36.444Z</time></trkpt><trkpt lat="44.0012283" lon="12.6446017"><ele>5.0</ele><time>2026-05-02T13:47:37.442Z</time></trkpt><trkpt lat="44.001195" lon="12.6445133"><ele>5.0</ele><time>2026-05-02T13:47:38.443Z</time></trkpt><trkpt lat="44.0011683" lon="12.64443"><ele>5.0</ele><time>2026-05-02T13:47:39.441Z</time></trkpt><trkpt lat="44.0011133" lon="12.6442717"><ele>5.0</ele><time>2026-05-02T13:47:41.443Z</time></trkpt><trkpt lat="44.0010617" lon="12.6441267"><ele>5.0</ele><time>2026-05-02T13:47:43.443Z</time></trkpt><trkpt lat="44.0010083" lon="12.6439783"><ele>5.0</ele><time>2026-05-02T13:47:45.44Z</time></trkpt><trkpt lat="44.0009533" lon="12.6438333"><ele>5.0</ele><time>2026-05-02T13:47:47.441Z</time></trkpt><trkpt lat="44.0008967" lon="12.6436967"><ele>5.0</ele><time>2026-05-02T13:47:49.441Z</time></trkpt><trkpt lat="44.0008483" lon="12.6435517"><ele>5.0</ele><time>2026-05-02T13:47:51.441Z</time></trkpt><trkpt lat="44.0008083" lon="12.6434117"><ele>5.0</ele><time>2026-05-02T13:47:53.441Z</time></trkpt><trkpt lat="44.00077" lon="12.6432733"><ele>5.0</ele><time>2026-05-02T13:47:55.44Z</time></trkpt><trkpt lat="44.0007217" lon="12.64312"><ele>5.0</ele><time>2026-05-02T13:47:57.44Z</time></trkpt><trkpt lat="44.0006817" lon="12.6429783"><ele>5.0</ele><time>2026-05-02T13:47:59.44Z</time></trkpt><trkpt lat="44.0006467" lon="12.6428333"><ele>5.0</ele><time>2026-05-02T13:48:01.442Z</time></trkpt><trkpt lat="44.0006083" lon="12.6427"><ele>5.0</ele><time>2026-05-02T13:48:03.442Z</time></trkpt><trkpt lat="44.0005617" lon="12.6425867"><ele>5.0</ele><time>2026-05-02T13:48:05.442Z</time></trkpt><trkpt lat="44.0004883" lon="12.6425133"><ele>5.0</ele><time>2026-05-02T13:48:07.439Z</time></trkpt><trkpt lat="44.0004167" lon="12.6424983"><ele>5.0</ele><time>2026-05-02T13:48:09.439Z</time></trkpt><trkpt lat="44.0003617" lon="12.6425633"><ele>5.0</ele><time>2026-05-02T13:48:11.439Z</time></trkpt><trkpt lat="44.0003267" lon="12.6426583"><ele>5.0</ele><time>2026-05-02T13:48:13.44Z</time></trkpt><trkpt lat="44.0002883" lon="12.6427567"><ele>5.0</ele><time>2026-05-02T13:48:15.44Z</time></trkpt><trkpt lat="44.000255" lon="12.6428533"><ele>5.0</ele><time>2026-05-02T13:48:17.442Z</time></trkpt><trkpt lat="44.0002167" lon="12.6429633"><ele>5.166666666666667</ele><time>2026-05-02T13:48:19.44Z</time></trkpt><trkpt lat="44.00018" lon="12.6430733"><ele>5.333333333333334</ele><time>2026-05-02T13:48:21.441Z</time></trkpt><trkpt lat="44.0001317" lon="12.6431783"><ele>5.5</ele><time>2026-05-02T13:48:23.439Z</time></trkpt><trkpt lat="44.0000833" lon="12.643285"><ele>5.666666666666667</ele><time>2026-05-02T13:48:25.44Z</time></trkpt><trkpt lat="44.00005" lon="12.643395"><ele>5.833333333333333</ele><time>2026-05-02T13:48:27.439Z</time></trkpt><trkpt lat="44.00001" lon="12.643505"><ele>6.0</ele><time>2026-05-02T13:48:29.439Z</time></trkpt><trkpt lat="43.999965" lon="12.643615"><ele>5.666666666666667</ele><time>2026-05-02T13:48:31.44Z</time></trkpt><trkpt lat="43.9999333" lon="12.64372"><ele>5.333333333333333</ele><time>2026-05-02T13:48:33.439Z</time></trkpt><trkpt lat="43.9998967" lon="12.6438333"><ele>5.0</ele><time>2026-05-02T13:48:35.438Z</time></trkpt><trkpt lat="43.9998783" lon="12.6439467"><ele>4.666666666666666</ele><time>2026-05-02T13:48:37.44Z</time></trkpt><trkpt lat="43.9998517" lon="12.6440633"><ele>4.333333333333333</ele><time>2026-05-02T13:48:39.44Z</time></trkpt><trkpt lat="43.999825" lon="12.64416"><ele>4.0</ele><time>2026-05-02T13:48:41.44Z</time></trkpt><trkpt lat="43.9998217" lon="12.6442967"><ele>3.9999999999999996</ele><time>2026-05-02T13:48:44.442Z</time></trkpt><trkpt lat="43.9998567" lon="12.6443983"><ele>4.0</ele><time>2026-05-02T13:48:46.441Z</time></trkpt><trkpt lat="43.99989" lon="12.6444883"><ele>4.0</ele><time>2026-05-02T13:48:48.439Z</time></trkpt><trkpt lat="43.9999317" lon="12.644595"><ele>4.0</ele><time>2026-05-02T13:48:50.438Z</time></trkpt><trkpt lat="43.99998" lon="12.6447033"><ele>3.9999999999999996</ele><time>2026-05-02T13:48:52.439Z</time></trkpt><trkpt lat="44.0000233" lon="12.6448117"><ele>4.0</ele><time>2026-05-02T13:48:54.439Z</time></trkpt><trkpt lat="44.0000567" lon="12.64492"><ele>3.8000000000000003</ele><time>2026-05-02T13:48:56.438Z</time></trkpt><trkpt lat="44.0001033" lon="12.6450317"><ele>3.6000000000000005</ele><time>2026-05-02T13:48:58.439Z</time></trkpt><trkpt lat="44.0001683" lon="12.6451383"><ele>3.4</ele><time>2026-05-02T13:49:00.439Z</time></trkpt><trkpt lat="44.0002483" lon="12.645225"><ele>3.2</ele><time>2026-05-02T13:49:02.439Z</time></trkpt><trkpt lat="44.0003267" lon="12.6453"><ele>3.0</ele><time>2026-05-02T13:49:04.44Z</time></trkpt><trkpt lat="44.00039" lon="12.6453717"><ele>3.5999999999999996</ele><time>2026-05-02T13:49:06.44Z</time></trkpt><trkpt lat="44.000425" lon="12.6454867"><ele>4.199999999999999</ele><time>2026-05-02T13:49:08.439Z</time></trkpt><trkpt lat="44.0004667" lon="12.645605"><ele>4.8</ele><time>2026-05-02T13:49:10.439Z</time></trkpt><trkpt lat="44.0005117" lon="12.64573"><ele>5.3999999999999995</ele><time>2026-05-02T13:49:12.44Z</time></trkpt><trkpt lat="44.00056" lon="12.645865"><ele>6.0</ele><time>2026-05-02T13:49:14.438Z</time></trkpt><trkpt lat="44.000615" lon="12.6460033"><ele>6.0</ele><time>2026-05-02T13:49:16.442Z</time></trkpt><trkpt lat="44.000645" lon="12.64615"><ele>6.0</ele><time>2026-05-02T13:49:18.439Z</time></trkpt><trkpt lat="44.0006183" lon="12.6462933"><ele>6.0</ele><time>2026-05-02T13:49:20.439Z</time></trkpt><trkpt lat="44.0005733" lon="12.6464183"><ele>6.0</ele><time>2026-05-02T13:49:22.441Z</time></trkpt><trkpt lat="44.0005267" lon="12.646535"><ele>6.0</ele><time>2026-05-02T13:49:24.44Z</time></trkpt><trkpt lat="44.0004733" lon="12.646655"><ele>6.0</ele><time>2026-05-02T13:49:26.439Z</time></trkpt><trkpt lat="44.0004117" lon="12.64678"><ele>6.0</ele><time>2026-05-02T13:49:28.44Z</time></trkpt><trkpt lat="44.0003633" lon="12.6469033"><ele>6.0</ele><time>2026-05-02T13:49:30.439Z</time></trkpt><trkpt lat="44.0003117" lon="12.64704"><ele>6.0</ele><time>2026-05-02T13:49:32.44Z</time></trkpt><trkpt lat="44.0002517" lon="12.6471933"><ele>6.0</ele><time>2026-05-02T13:49:34.44Z</time></trkpt><trkpt lat="44.000225" lon="12.6472767"><ele>5.7142857142857135</ele><time>2026-05-02T13:49:35.44Z</time></trkpt><trkpt lat="44.0001967" lon="12.6473633"><ele>5.428571428571429</ele><time>2026-05-02T13:49:36.44Z</time></trkpt><trkpt lat="44.0001633" lon="12.647445"><ele>5.142857142857142</ele><time>2026-05-02T13:49:37.44Z</time></trkpt><trkpt lat="44.00013" lon="12.6475267"><ele>4.857142857142857</ele><time>2026-05-02T13:49:38.44Z</time></trkpt><trkpt lat="44.0000967" lon="12.6476167"><ele>4.571428571428571</ele><time>2026-05-02T13:49:39.439Z</time></trkpt><trkpt lat="44.0000717" lon="12.6477067"><ele>4.285714285714286</ele><time>2026-05-02T13:49:40.44Z</time></trkpt><trkpt lat="44.00005" lon="12.647795"><ele>4.0</ele><time>2026-05-02T13:49:41.44Z</time></trkpt><trkpt lat="44.0000267" lon="12.6478817"><ele>3.6</ele><time>2026-05-02T13:49:42.441Z</time></trkpt><trkpt lat="43.9999983" lon="12.6479633"><ele>3.2</ele><time>2026-05-02T13:49:43.44Z</time></trkpt><trkpt lat="43.9999633" lon="12.648125"><ele>2.8000000000000003</ele><time>2026-05-02T13:49:45.439Z</time></trkpt><trkpt lat="43.9999583" lon="12.6482933"><ele>2.4000000000000004</ele><time>2026-05-02T13:49:47.442Z</time></trkpt><trkpt lat="43.99997" lon="12.64845"><ele>2.0</ele><time>2026-05-02T13:49:49.439Z</time></trkpt><trkpt lat="44.0000067" lon="12.6485983"><ele>2.0</ele><time>2026-05-02T13:49:51.443Z</time></trkpt><trkpt lat="44.0000483" lon="12.64874"><ele>2.0</ele><time>2026-05-02T13:49:53.439Z</time></trkpt><trkpt lat="44.0001" lon="12.64889"><ele>2.0</ele><time>2026-05-02T13:49:55.439Z</time></trkpt><trkpt lat="44.0001667" lon="12.649025"><ele>2.0</ele><time>2026-05-02T13:49:57.439Z</time></trkpt><trkpt lat="44.00023" lon="12.64917"><ele>2.0</ele><time>2026-05-02T13:49:59.44Z</time></trkpt><trkpt lat="44.0002983" lon="12.64931"><ele>2.0</ele><time>2026-05-02T13:50:01.44Z</time></trkpt><trkpt lat="44.0003333" lon="12.6493833"><ele>2.0</ele><time>2026-05-02T13:50:02.441Z</time></trkpt><trkpt lat="44.0003717" lon="12.649455"><ele>2.0</ele><time>2026-05-02T13:50:03.44Z</time></trkpt><trkpt lat="44.000435" lon="12.6495917"><ele>2.0</ele><time>2026-05-02T13:50:05.44Z</time></trkpt><trkpt lat="44.0004817" lon="12.6497183"><ele>2.2</ele><time>2026-05-02T13:50:07.441Z</time></trkpt><trkpt lat="44.0005267" lon="12.6498317"><ele>2.4000000000000004</ele><time>2026-05-02T13:50:09.44Z</time></trkpt><trkpt lat="44.000565" lon="12.649955"><ele>2.5999999999999996</ele><time>2026-05-02T13:50:11.439Z</time></trkpt><trkpt lat="44.000615" lon="12.6500833"><ele>2.8</ele><time>2026-05-02T13:50:13.441Z</time></trkpt><trkpt lat="44.00067" lon="12.6502133"><ele>3.0</ele><time>2026-05-02T13:50:15.44Z</time></trkpt><trkpt lat="44.00072" lon="12.6503483"><ele>3.2</ele><time>2026-05-02T13:50:17.44Z</time></trkpt><trkpt lat="44.0007783" lon="12.650475"><ele>3.4</ele><time>2026-05-02T13:50:19.44Z</time></trkpt><trkpt lat="44.0008267" lon="12.650605"><ele>3.6000000000000005</ele><time>2026-05-02T13:50:21.441Z</time></trkpt><trkpt lat="44.000875" lon="12.65074"><ele>3.8000000000000003</ele><time>2026-05-02T13:50:23.442Z</time></trkpt><trkpt lat="44.0009233" lon="12.650875"><ele>4.0</ele><time>2026-05-02T13:50:25.441Z</time></trkpt><trkpt lat="44.0009733" lon="12.65098"><ele>4.0</ele><time>2026-05-02T13:50:27.44Z</time></trkpt><trkpt lat="44.0010217" lon="12.6510733"><ele>4.0</ele><time>2026-05-02T13:50:29.44Z</time></trkpt><trkpt lat="44.0010683" lon="12.6511817"><ele>4.0</ele><time>2026-05-02T13:50:31.44Z</time></trkpt><trkpt lat="44.0011217" lon="12.65129"><ele>4.0</ele><time>2026-05-02T13:50:33.44Z</time></trkpt><trkpt lat="44.00119" lon="12.6513833"><ele>4.0</ele><time>2026-05-02T13:50:35.439Z</time></trkpt><trkpt lat="44.0012733" lon="12.6514617"><ele>4.0</ele><time>2026-05-02T13:50:37.439Z</time></trkpt><trkpt lat="44.0013583" lon="12.6515383"><ele>4.0</ele><time>2026-05-02T13:50:39.44Z</time></trkpt><trkpt lat="44.0014433" lon="12.6516217"><ele>4.0</ele><time>2026-05-02T13:50:41.443Z</time></trkpt><trkpt lat="44.00153" lon="12.6517"><ele>4.0</ele><time>2026-05-02T13:50:43.44Z</time></trkpt><trkpt lat="44.00161" lon="12.651785"><ele>4.0</ele><time>2026-05-02T13:50:45.439Z</time></trkpt><trkpt lat="44.001685" lon="12.651865"><ele>3.8000000000000003</ele><time>2026-05-02T13:50:47.442Z</time></trkpt><trkpt lat="44.0017467" lon="12.6519367"><ele>3.6000000000000005</ele><time>2026-05-02T13:50:49.442Z</time></trkpt><trkpt lat="44.0018133" lon="12.6520133"><ele>3.4</ele><time>2026-05-02T13:50:51.443Z</time></trkpt><trkpt lat="44.0018867" lon="12.6520867"><ele>3.2</ele><time>2026-05-02T13:50:53.44Z</time></trkpt><trkpt lat="44.0019717" lon="12.6521667"><ele>3.0</ele><time>2026-05-02T13:50:55.441Z</time></trkpt><trkpt lat="44.002055" lon="12.65225"><ele>2.6</ele><time>2026-05-02T13:50:57.44Z</time></trkpt><trkpt lat="44.0021533" lon="12.65233"><ele>2.1999999999999997</ele><time>2026-05-02T13:50:59.44Z</time></trkpt><trkpt lat="44.0022417" lon="12.6524167"><ele>1.8</ele><time>2026-05-02T13:51:01.441Z</time></trkpt><trkpt lat="44.0023267" lon="12.6525117"><ele>1.4</ele><time>2026-05-02T13:51:03.44Z</time></trkpt><trkpt lat="44.0024167" lon="12.6526033"><ele>1.0</ele><time>2026-05-02T13:51:05.44Z</time></trkpt><trkpt lat="44.0025" lon="12.6526817"><ele>0.9999999999999999</ele><time>2026-05-02T13:51:07.44Z</time></trkpt><trkpt lat="44.0025667" lon="12.652745"><ele>1.0</ele><time>2026-05-02T13:51:09.44Z</time></trkpt><trkpt lat="44.00263" lon="12.6528067"><ele>1.0</ele><time>2026-05-02T13:51:11.44Z</time></trkpt><trkpt lat="44.0027017" lon="12.652875"><ele>1.0</ele><time>2026-05-02T13:51:13.442Z</time></trkpt><trkpt lat="44.0027817" lon="12.6529517"><ele>0.9999999999999999</ele><time>2026-05-02T13:51:15.439Z</time></trkpt><trkpt lat="44.0028617" lon="12.6530383"><ele>1.0</ele><time>2026-05-02T13:51:17.442Z</time></trkpt><trkpt lat="44.0029317" lon="12.6531267"><ele>1.3333333333333333</ele><time>2026-05-02T13:51:19.44Z</time></trkpt><trkpt lat="44.0030033" lon="12.6532083"><ele>1.6666666666666665</ele><time>2026-05-02T13:51:21.44Z</time></trkpt><trkpt lat="44.0030767" lon="12.6532817"><ele>2.0</ele><time>2026-05-02T13:51:23.44Z</time></trkpt><trkpt lat="44.0031317" lon="12.6533633"><ele>2.3333333333333335</ele><time>2026-05-02T13:51:25.44Z</time></trkpt><trkpt lat="44.0031817" lon="12.6534383"><ele>2.6666666666666665</ele><time>2026-05-02T13:51:28.439Z</time></trkpt><trkpt lat="44.00325" lon="12.65352"><ele>3.0</ele><time>2026-05-02T13:51:34.443Z</time></trkpt><trkpt lat="44.0033017" lon="12.6535883"><ele>3.1666666666666665</ele><time>2026-05-02T13:51:38.44Z</time></trkpt><trkpt lat="44.0032967" lon="12.6536883"><ele>3.333333333333333</ele><time>2026-05-02T13:51:42.441Z</time></trkpt><trkpt lat="44.0033517" lon="12.6538067"><ele>3.5</ele><time>2026-05-02T13:51:49.441Z</time></trkpt><trkpt lat="44.00342" lon="12.6538583"><ele>3.6666666666666665</ele><time>2026-05-02T13:51:53.44Z</time></trkpt><trkpt lat="44.0035083" lon="12.6538883"><ele>3.833333333333333</ele><time>2026-05-02T13:51:56.439Z</time></trkpt><trkpt lat="44.0035933" lon="12.6539517"><ele>4.0</ele><time>2026-05-02T13:51:59.44Z</time></trkpt><trkpt lat="44.0036533" lon="12.6539983"><ele>4.142857142857142</ele><time>2026-05-02T13:52:01.441Z</time></trkpt><trkpt lat="44.0037117" lon="12.65405"><ele>4.285714285714286</ele><time>2026-05-02T13:52:03.442Z</time></trkpt><trkpt lat="44.0037733" lon="12.65411"><ele>4.428571428571429</ele><time>2026-05-02T13:52:05.443Z</time></trkpt><trkpt lat="44.00384" lon="12.6541767"><ele>4.571428571428571</ele><time>2026-05-02T13:52:07.438Z</time></trkpt><trkpt lat="44.00391" lon="12.6542283"><ele>4.714285714285714</ele><time>2026-05-02T13:52:09.443Z</time></trkpt><trkpt lat="44.0039667" lon="12.6542733"><ele>4.857142857142857</ele><time>2026-05-02T13:52:11.443Z</time></trkpt><trkpt lat="44.0040217" lon="12.65432"><ele>5.0</ele><time>2026-05-02T13:52:13.439Z</time></trkpt><trkpt lat="44.0040983" lon="12.65439"><ele>5.166666666666667</ele><time>2026-05-02T13:52:16.44Z</time></trkpt><trkpt lat="44.0041833" lon="12.6544667"><ele>5.333333333333334</ele><time>2026-05-02T13:52:19.439Z</time></trkpt><trkpt lat="44.004245" lon="12.6545167"><ele>5.5</ele><time>2026-05-02T13:52:21.438Z</time></trkpt><trkpt lat="44.00432" lon="12.6545767"><ele>5.666666666666667</ele><time>2026-05-02T13:52:24.44Z</time></trkpt><trkpt lat="44.0043717" lon="12.6546483"><ele>5.833333333333333</ele><time>2026-05-02T13:52:27.441Z</time></trkpt><trkpt lat="44.0044183" lon="12.6547117"><ele>6.0</ele><time>2026-05-02T13:52:29.44Z</time></trkpt><trkpt lat="44.00447" lon="12.65478"><ele>6.0</ele><time>2026-05-02T13:52:31.441Z</time></trkpt><trkpt lat="44.0045367" lon="12.654835"><ele>6.0</ele><time>2026-05-02T13:52:33.439Z</time></trkpt><trkpt lat="44.0046033" lon="12.6548933"><ele>6.0</ele><time>2026-05-02T13:52:35.44Z</time></trkpt><trkpt lat="44.0046667" lon="12.6549483"><ele>6.0</ele><time>2026-05-02T13:52:37.44Z</time></trkpt><trkpt lat="44.0047417" lon="12.6550067"><ele>6.0</ele><time>2026-05-02T13:52:40.44Z</time></trkpt><trkpt lat="44.0048083" lon="12.655065"><ele>6.0</ele><time>2026-05-02T13:52:43.44Z</time></trkpt><trkpt lat="44.0048567" lon="12.6551367"><ele>5.999999999999999</ele><time>2026-05-02T13:52:46.443Z</time></trkpt><trkpt lat="44.0048917" lon="12.65522"><ele>6.0</ele><time>2026-05-02T13:52:49.441Z</time></trkpt><trkpt lat="44.0049367" lon="12.6552883"><ele>6.0</ele><time>2026-05-02T13:52:51.441Z</time></trkpt><trkpt lat="44.0049933" lon="12.6553467"><ele>6.0</ele><time>2026-05-02T13:52:53.44Z</time></trkpt><trkpt lat="44.0050517" lon="12.6554083"><ele>6.0</ele><time>2026-05-02T13:52:55.44Z</time></trkpt><trkpt lat="44.0051267" lon="12.6554733"><ele>5.999999999999999</ele><time>2026-05-02T13:52:57.442Z</time></trkpt><trkpt lat="44.00519" lon="12.6555267"><ele>6.0</ele><time>2026-05-02T13:52:59.44Z</time></trkpt><trkpt lat="44.0052467" lon="12.6555717"><ele>6.0</ele><time>2026-05-02T13:53:01.441Z</time></trkpt><trkpt lat="44.0053017" lon="12.65562"><ele>6.0</ele><time>2026-05-02T13:53:03.442Z</time></trkpt><trkpt lat="44.0053617" lon="12.6556767"><ele>6.0</ele><time>2026-05-02T13:53:05.441Z</time></trkpt><trkpt lat="44.00544" lon="12.6557283"><ele>6.0</ele><time>2026-05-02T13:53:07.441Z</time></trkpt><trkpt lat="44.005505" lon="12.6558017"><ele>6.0</ele><time>2026-05-02T13:53:09.441Z</time></trkpt><trkpt lat="44.0055833" lon="12.6558633"><ele>6.0</ele><time>2026-05-02T13:53:12.44Z</time></trkpt><trkpt lat="44.005655" lon="12.6559283"><ele>6.0</ele><time>2026-05-02T13:53:15.443Z</time></trkpt><trkpt lat="44.005715" lon="12.6560017"><ele>6.0</ele><time>2026-05-02T13:53:18.439Z</time></trkpt><trkpt lat="44.00577" lon="12.65606"><ele>6.0</ele><time>2026-05-02T13:53:21.442Z</time></trkpt><trkpt lat="44.0058217" lon="12.6561117"><ele>6.0</ele><time>2026-05-02T13:53:25.441Z</time></trkpt><trkpt lat="44.0058783" lon="12.6562017"><ele>6.0</ele><time>2026-05-02T13:53:29.442Z</time></trkpt><trkpt lat="44.0059333" lon="12.6562983"><ele>6.0</ele><time>2026-05-02T13:53:32.441Z</time></trkpt><trkpt lat="44.0060033" lon="12.656385"><ele>5.5</ele><time>2026-05-02T13:53:35.441Z</time></trkpt><trkpt lat="44.0060567" lon="12.6564483"><ele>5.0</ele><time>2026-05-02T13:53:37.441Z</time></trkpt><trkpt lat="44.0061117" lon="12.6565067"><ele>4.5</ele><time>2026-05-02T13:53:39.439Z</time></trkpt><trkpt lat="44.006155" lon="12.6565983"><ele>4.0</ele><time>2026-05-02T13:53:41.439Z</time></trkpt><trkpt lat="44.0061667" lon="12.6567267"><ele>3.5</ele><time>2026-05-02T13:53:43.44Z</time></trkpt><trkpt lat="44.006115" lon="12.6568283"><ele>3.0</ele><time>2026-05-02T13:53:45.44Z</time></trkpt><trkpt lat="44.0060567" lon="12.656905"><ele>3.2</ele><time>2026-05-02T13:53:47.442Z</time></trkpt><trkpt lat="44.0059917" lon="12.656985"><ele>3.4</ele><time>2026-05-02T13:53:49.438Z</time></trkpt><trkpt lat="44.0059283" lon="12.6570717"><ele>3.6000000000000005</ele><time>2026-05-02T13:53:51.439Z</time></trkpt><trkpt lat="44.005865" lon="12.6571617"><ele>3.8000000000000003</ele><time>2026-05-02T13:53:53.439Z</time></trkpt><trkpt lat="44.005795" lon="12.6572567"><ele>4.0</ele><time>2026-05-02T13:53:55.439Z</time></trkpt><trkpt lat="44.0057317" lon="12.65735"><ele>4.0</ele><time>2026-05-02T13:53:57.44Z</time></trkpt><trkpt lat="44.0056683" lon="12.6574267"><ele>4.0</ele><time>2026-05-02T13:53:59.439Z</time></trkpt><trkpt lat="44.0056033" lon="12.657535"><ele>4.0</ele><time>2026-05-02T13:54:01.44Z</time></trkpt><trkpt lat="44.00552" lon="12.65764"><ele>4.0</ele><time>2026-05-02T13:54:03.438Z</time></trkpt><trkpt lat="44.00544" lon="12.6577567"><ele>4.0</ele><time>2026-05-02T13:54:05.44Z</time></trkpt><trkpt lat="44.0053667" lon="12.6578767"><ele>3.6</ele><time>2026-05-02T13:54:07.44Z</time></trkpt><trkpt lat="44.005305" lon="12.6580017"><ele>3.2</ele><time>2026-05-02T13:54:09.439Z</time></trkpt><trkpt lat="44.00524" lon="12.6581117"><ele>2.8000000000000003</ele><time>2026-05-02T13:54:11.44Z</time></trkpt><trkpt lat="44.0051633" lon="12.6581983"><ele>2.4000000000000004</ele><time>2026-05-02T13:54:13.44Z</time></trkpt><trkpt lat="44.005085" lon="12.6583067"><ele>2.0</ele><time>2026-05-02T13:54:15.44Z</time></trkpt><trkpt lat="44.0050033" lon="12.65841"><ele>2.2</ele><time>2026-05-02T13:54:17.442Z</time></trkpt><trkpt lat="44.0049267" lon="12.6585167"><ele>2.4000000000000004</ele><time>2026-05-02T13:54:19.443Z</time></trkpt><trkpt lat="44.0048533" lon="12.6586333"><ele>2.5999999999999996</ele><time>2026-05-02T13:54:21.443Z</time></trkpt><trkpt lat="44.004785" lon="12.6587583"><ele>2.8</ele><time>2026-05-02T13:54:23.442Z</time></trkpt><trkpt lat="44.004715" lon="12.65888"><ele>3.0</ele><time>2026-05-02T13:54:25.441Z</time></trkpt><trkpt lat="44.004645" lon="12.6590017"><ele>2.0</ele><time>2026-05-02T13:54:27.44Z</time></trkpt><trkpt lat="44.0045683" lon="12.6591267"><ele>1.0</ele><time>2026-05-02T13:54:29.44Z</time></trkpt><trkpt lat="44.004485" lon="12.6592533"><ele>0.0</ele><time>2026-05-02T13:54:31.44Z</time></trkpt><trkpt lat="44.0044067" lon="12.6593717"><ele>-1.0</ele><time>2026-05-02T13:54:33.441Z</time></trkpt><trkpt lat="44.0043317" lon="12.6594783"><ele>-1.0</ele><time>2026-05-02T13:54:35.439Z</time></trkpt><trkpt lat="44.0042583" lon="12.6596067"><ele>-1.0</ele><time>2026-05-02T13:54:37.44Z</time></trkpt><trkpt lat="44.0041883" lon="12.659745"><ele>-1.0</ele><time>2026-05-02T13:54:39.439Z</time></trkpt><trkpt lat="44.00411" lon="12.659865"><ele>-1.0</ele><time>2026-05-02T13:54:41.439Z</time></trkpt><trkpt lat="44.004025" lon="12.6599817"><ele>-0.25</ele><time>2026-05-02T13:54:43.442Z</time></trkpt><trkpt lat="44.0039433" lon="12.6601083"><ele>0.5</ele><time>2026-05-02T13:54:45.44Z</time></trkpt><trkpt lat="44.0038583" lon="12.6602183"><ele>1.25</ele><time>2026-05-02T13:54:47.443Z</time></trkpt><trkpt lat="44.00378" lon="12.6603383"><ele>2.0</ele><time>2026-05-02T13:54:49.441Z</time></trkpt><trkpt lat="44.0037083" lon="12.6604617"><ele>2.4285714285714284</ele><time>2026-05-02T13:54:51.439Z</time></trkpt><trkpt lat="44.003655" lon="12.6605417"><ele>2.8571428571428568</ele><time>2026-05-02T13:54:53.442Z</time></trkpt><trkpt lat="44.0036183" lon="12.660615"><ele>3.2857142857142856</ele><time>2026-05-02T13:54:55.439Z</time></trkpt><trkpt lat="44.0035783" lon="12.6606917"><ele>3.7142857142857144</ele><time>2026-05-02T13:54:57.439Z</time></trkpt><trkpt lat="44.003535" lon="12.6607617"><ele>4.142857142857143</ele><time>2026-05-02T13:54:59.438Z</time></trkpt><trkpt lat="44.0034733" lon="12.6608317"><ele>4.571428571428571</ele><time>2026-05-02T13:55:02.44Z</time></trkpt><trkpt lat="44.0034183" lon="12.6609033"><ele>5.0</ele><time>2026-05-02T13:55:05.439Z</time></trkpt><trkpt lat="44.003375" lon="12.6609933"><ele>5.0</ele><time>2026-05-02T13:55:08.439Z</time></trkpt><trkpt lat="44.003345" lon="12.6610767"><ele>5.0</ele><time>2026-05-02T13:55:10.44Z</time></trkpt><trkpt lat="44.0032917" lon="12.66115"><ele>5.0</ele><time>2026-05-02T13:55:12.44Z</time></trkpt><trkpt lat="44.0032367" lon="12.66121"><ele>5.0</ele><time>2026-05-02T13:55:14.439Z</time></trkpt><trkpt lat="44.00319" lon="12.66127"><ele>5.0</ele><time>2026-05-02T13:55:17.442Z</time></trkpt><trkpt lat="44.0031417" lon="12.6613467"><ele>5.0</ele><time>2026-05-02T13:55:20.442Z</time></trkpt><trkpt lat="44.0030917" lon="12.66142"><ele>5.0</ele><time>2026-05-02T13:55:23.442Z</time></trkpt><trkpt lat="44.003045" lon="12.6614817"><ele>5.333333333333334</ele><time>2026-05-02T13:55:25.439Z</time></trkpt><trkpt lat="44.0029917" lon="12.6615483"><ele>5.666666666666667</ele><time>2026-05-02T13:55:27.44Z</time></trkpt><trkpt lat="44.002935" lon="12.661615"><ele>6.0</ele><time>2026-05-02T13:55:29.44Z</time></trkpt><trkpt lat="44.0028783" lon="12.6617067"><ele>6.333333333333334</ele><time>2026-05-02T13:55:31.441Z</time></trkpt><trkpt lat="44.0028233" lon="12.6618"><ele>6.666666666666667</ele><time>2026-05-02T13:55:33.44Z</time></trkpt><trkpt lat="44.0027617" lon="12.6618867"><ele>7.0</ele><time>2026-05-02T13:55:35.439Z</time></trkpt><trkpt lat="44.0027" lon="12.661975"><ele>6.333333333333334</ele><time>2026-05-02T13:55:37.44Z</time></trkpt><trkpt lat="44.0026417" lon="12.6620633"><ele>5.666666666666667</ele><time>2026-05-02T13:55:39.44Z</time></trkpt><trkpt lat="44.00259" lon="12.6621583"><ele>5.0</ele><time>2026-05-02T13:55:41.439Z</time></trkpt><trkpt lat="44.00253" lon="12.6622483"><ele>4.333333333333334</ele><time>2026-05-02T13:55:43.439Z</time></trkpt><trkpt lat="44.0024667" lon="12.6623283"><ele>3.666666666666667</ele><time>2026-05-02T13:55:45.44Z</time></trkpt><trkpt lat="44.00241" lon="12.6624267"><ele>3.0</ele><time>2026-05-02T13:55:47.441Z</time></trkpt><trkpt lat="44.00235" lon="12.6625367"><ele>3.0</ele><time>2026-05-02T13:55:49.443Z</time></trkpt><trkpt lat="44.0022817" lon="12.6626433"><ele>3.0</ele><time>2026-05-02T13:55:51.443Z</time></trkpt><trkpt lat="44.002205" lon="12.66275"><ele>3.0</ele><time>2026-05-02T13:55:53.442Z</time></trkpt><trkpt lat="44.0021333" lon="12.6628583"><ele>3.0</ele><time>2026-05-02T13:55:55.44Z</time></trkpt><trkpt lat="44.0020583" lon="12.6629583"><ele>3.0</ele><time>2026-05-02T13:55:57.439Z</time></trkpt><trkpt lat="44.0019867" lon="12.6630567"><ele>3.0</ele><time>2026-05-02T13:55:59.44Z</time></trkpt><trkpt lat="44.00192" lon="12.66316"><ele>3.0</ele><time>2026-05-02T13:56:01.44Z</time></trkpt><trkpt lat="44.001855" lon="12.663275"><ele>3.0</ele><time>2026-05-02T13:56:03.439Z</time></trkpt><trkpt lat="44.0017883" lon="12.6633783"><ele>3.0</ele><time>2026-05-02T13:56:05.44Z</time></trkpt><trkpt lat="44.0017267" lon="12.6634883"><ele>3.0</ele><time>2026-05-02T13:56:07.439Z</time></trkpt><trkpt lat="44.0016633" lon="12.663595"><ele>3.2</ele><time>2026-05-02T13:56:09.439Z</time></trkpt><trkpt lat="44.0015933" lon="12.66369"><ele>3.4</ele><time>2026-05-02T13:56:11.439Z</time></trkpt><trkpt lat="44.0015217" lon="12.6637867"><ele>3.6000000000000005</ele><time>2026-05-02T13:56:13.44Z</time></trkpt><trkpt lat="44.0014567" lon="12.6638817"><ele>3.8000000000000003</ele><time>2026-05-02T13:56:15.439Z</time></trkpt><trkpt lat="44.0013933" lon="12.6639867"><ele>4.0</ele><time>2026-05-02T13:56:17.443Z</time></trkpt><trkpt lat="44.0013167" lon="12.6641"><ele>4.0</ele><time>2026-05-02T13:56:19.439Z</time></trkpt><trkpt lat="44.001235" lon="12.6641967"><ele>4.0</ele><time>2026-05-02T13:56:21.443Z</time></trkpt><trkpt lat="44.0011533" lon="12.6643117"><ele>4.0</ele><time>2026-05-02T13:56:23.442Z</time></trkpt><trkpt lat="44.001075" lon="12.6644183"><ele>4.0</ele><time>2026-05-02T13:56:25.44Z</time></trkpt><trkpt lat="44.0009967" lon="12.664525"><ele>4.0</ele><time>2026-05-02T13:56:27.441Z</time></trkpt><trkpt lat="44.000925" lon="12.6646467"><ele>4.4</ele><time>2026-05-02T13:56:29.44Z</time></trkpt><trkpt lat="44.0008633" lon="12.6647667"><ele>4.800000000000001</ele><time>2026-05-02T13:56:31.441Z</time></trkpt><trkpt lat="44.0007933" lon="12.6648817"><ele>5.199999999999999</ele><time>2026-05-02T13:56:33.439Z</time></trkpt><trkpt lat="44.0007167" lon="12.6649683"><ele>5.6</ele><time>2026-05-02T13:56:35.44Z</time></trkpt><trkpt lat="44.00064" lon="12.66506"><ele>6.0</ele><time>2026-05-02T13:56:37.44Z</time></trkpt><trkpt lat="44.0005767" lon="12.6651733"><ele>5.8</ele><time>2026-05-02T13:56:39.441Z</time></trkpt><trkpt lat="44.0005033" lon="12.665285"><ele>5.6</ele><time>2026-05-02T13:56:41.44Z</time></trkpt><trkpt lat="44.0004267" lon="12.665405"><ele>5.4</ele><time>2026-05-02T13:56:43.44Z</time></trkpt><trkpt lat="44.0003417" lon="12.6655167"><ele>5.2</ele><time>2026-05-02T13:56:45.44Z</time></trkpt><trkpt lat="44.000265" lon="12.6656167"><ele>5.0</ele><time>2026-05-02T13:56:47.442Z</time></trkpt><trkpt lat="44.0002" lon="12.6657367"><ele>5.0</ele><time>2026-05-02T13:56:49.439Z</time></trkpt><trkpt lat="44.0001433" lon="12.6658583"><ele>5.0</ele><time>2026-05-02T13:56:51.443Z</time></trkpt><trkpt lat="44.0000633" lon="12.6659667"><ele>5.0</ele><time>2026-05-02T13:56:53.443Z</time></trkpt><trkpt lat="43.9999967" lon="12.66607"><ele>5.0</ele><time>2026-05-02T13:56:55.44Z</time></trkpt><trkpt lat="43.99994" lon="12.6661367"><ele>5.0</ele><time>2026-05-02T13:56:57.44Z</time></trkpt><trkpt lat="43.99988" lon="12.6661967"><ele>4.2</ele><time>2026-05-02T13:56:59.44Z</time></trkpt><trkpt lat="43.9998217" lon="12.6662933"><ele>3.4</ele><time>2026-05-02T13:57:01.44Z</time></trkpt><trkpt lat="43.9997733" lon="12.66641"><ele>2.6</ele><time>2026-05-02T13:57:03.44Z</time></trkpt><trkpt lat="43.999715" lon="12.666525"><ele>1.8</ele><time>2026-05-02T13:57:05.441Z</time></trkpt><trkpt lat="43.9996417" lon="12.666635"><ele>1.0</ele><time>2026-05-02T13:57:07.44Z</time></trkpt><trkpt lat="43.9995717" lon="12.6667183"><ele>1.0</ele><time>2026-05-02T13:57:09.441Z</time></trkpt><trkpt lat="43.999495" lon="12.6668183"><ele>1.0</ele><time>2026-05-02T13:57:11.439Z</time></trkpt><trkpt lat="43.999425" lon="12.666925"><ele>1.0</ele><time>2026-05-02T13:57:13.44Z</time></trkpt><trkpt lat="43.9993533" lon="12.66703"><ele>1.0</ele><time>2026-05-02T13:57:15.442Z</time></trkpt><trkpt lat="43.9992833" lon="12.667135"><ele>1.0</ele><time>2026-05-02T13:57:17.443Z</time></trkpt><trkpt lat="43.99922" lon="12.6672417"><ele>1.0</ele><time>2026-05-02T13:57:19.443Z</time></trkpt><trkpt lat="43.9991617" lon="12.6673567"><ele>1.0</ele><time>2026-05-02T13:57:21.443Z</time></trkpt><trkpt lat="43.9990933" lon="12.66747"><ele>1.0</ele><time>2026-05-02T13:57:23.439Z</time></trkpt><trkpt lat="43.9990233" lon="12.6675717"><ele>1.0</ele><time>2026-05-02T13:57:25.439Z</time></trkpt><trkpt lat="43.9989467" lon="12.6676717"><ele>1.0</ele><time>2026-05-02T13:57:27.441Z</time></trkpt><trkpt lat="43.998875" lon="12.6677883"><ele>1.0</ele><time>2026-05-02T13:57:29.442Z</time></trkpt><trkpt lat="43.9987967" lon="12.667895"><ele>1.0</ele><time>2026-05-02T13:57:31.44Z</time></trkpt><trkpt lat="43.9987167" lon="12.6679967"><ele>1.0</ele><time>2026-05-02T13:57:33.439Z</time></trkpt><trkpt lat="43.9986383" lon="12.66811"><ele>1.0</ele><time>2026-05-02T13:57:35.44Z</time></trkpt><trkpt lat="43.998565" lon="12.6682233"><ele>1.0</ele><time>2026-05-02T13:57:37.44Z</time></trkpt><trkpt lat="43.9984883" lon="12.6683283"><ele>1.0</ele><time>2026-05-02T13:57:39.439Z</time></trkpt><trkpt lat="43.9984183" lon="12.6684367"><ele>1.0</ele><time>2026-05-02T13:57:41.439Z</time></trkpt><trkpt lat="43.9983517" lon="12.6685533"><ele>1.0</ele><time>2026-05-02T13:57:43.441Z</time></trkpt><trkpt lat="43.9982833" lon="12.6686617"><ele>1.0</ele><time>2026-05-02T13:57:45.444Z</time></trkpt><trkpt lat="43.99821" lon="12.668765"><ele>1.0</ele><time>2026-05-02T13:57:47.442Z</time></trkpt><trkpt lat="43.9981433" lon="12.66887"><ele>1.0</ele><time>2026-05-02T13:57:49.441Z</time></trkpt><trkpt lat="43.9980717" lon="12.6689933"><ele>1.0</ele><time>2026-05-02T13:57:51.439Z</time></trkpt><trkpt lat="43.9980083" lon="12.6690967"><ele>1.0</ele><time>2026-05-02T13:57:53.439Z</time></trkpt><trkpt lat="43.9979467" lon="12.6691817"><ele>1.0</ele><time>2026-05-02T13:57:55.441Z</time></trkpt><trkpt lat="43.99787" lon="12.6692983"><ele>1.0</ele><time>2026-05-02T13:57:57.44Z</time></trkpt><trkpt lat="43.9977917" lon="12.6694067"><ele>1.0</ele><time>2026-05-02T13:57:59.439Z</time></trkpt><trkpt lat="43.9977117" lon="12.66952"><ele>1.0</ele><time>2026-05-02T13:58:01.44Z</time></trkpt><trkpt lat="43.9976417" lon="12.6696"><ele>1.0</ele><time>2026-05-02T13:58:03.44Z</time></trkpt><trkpt lat="43.9975767" lon="12.6697167"><ele>1.0</ele><time>2026-05-02T13:58:05.439Z</time></trkpt><trkpt lat="43.9975083" lon="12.66984"><ele>1.0</ele><time>2026-05-02T13:58:07.441Z</time></trkpt><trkpt lat="43.9974383" lon="12.6699567"><ele>1.0</ele><time>2026-05-02T13:58:09.441Z</time></trkpt><trkpt lat="43.9973733" lon="12.6700667"><ele>1.0</ele><time>2026-05-02T13:58:11.439Z</time></trkpt><trkpt lat="43.9973083" lon="12.6701783"><ele>1.0</ele><time>2026-05-02T13:58:13.442Z</time></trkpt><trkpt lat="43.9972383" lon="12.6702783"><ele>1.0</ele><time>2026-05-02T13:58:15.44Z</time></trkpt><trkpt lat="43.9971817" lon="12.670375"><ele>1.0</ele><time>2026-05-02T13:58:17.442Z</time></trkpt><trkpt lat="43.99713" lon="12.6704633"><ele>0.8333333333333333</ele><time>2026-05-02T13:58:19.44Z</time></trkpt><trkpt lat="43.9970617" lon="12.670545"><ele>0.6666666666666666</ele><time>2026-05-02T13:58:22.44Z</time></trkpt><trkpt lat="43.9969633" lon="12.6705617"><ele>0.5</ele><time>2026-05-02T13:58:25.441Z</time></trkpt><trkpt lat="43.9969017" lon="12.6705967"><ele>0.3333333333333333</ele><time>2026-05-02T13:58:27.44Z</time></trkpt><trkpt lat="43.9968717" lon="12.670685"><ele>0.16666666666666666</ele><time>2026-05-02T13:58:29.441Z</time></trkpt><trkpt lat="43.99689" lon="12.6708183"><ele>0.0</ele><time>2026-05-02T13:58:31.441Z</time></trkpt><trkpt lat="43.9969317" lon="12.6709567"><ele>0.0</ele><time>2026-05-02T13:58:33.442Z</time></trkpt><trkpt lat="43.996925" lon="12.6710967"><ele>0.0</ele><time>2026-05-02T13:58:35.443Z</time></trkpt><trkpt lat="43.9968733" lon="12.6712067"><ele>0.0</ele><time>2026-05-02T13:58:37.443Z</time></trkpt><trkpt lat="43.9968" lon="12.6712733"><ele>0.0</ele><time>2026-05-02T13:58:39.443Z</time></trkpt><trkpt lat="43.9967183" lon="12.6713417"><ele>0.0</ele><time>2026-05-02T13:58:41.443Z</time></trkpt><trkpt lat="43.996625" lon="12.6714183"><ele>0.2</ele><time>2026-05-02T13:58:43.441Z</time></trkpt><trkpt lat="43.9965217" lon="12.6714733"><ele>0.4</ele><time>2026-05-02T13:58:45.442Z</time></trkpt><trkpt lat="43.9964167" lon="12.6715067"><ele>0.6000000000000001</ele><time>2026-05-02T13:58:47.443Z</time></trkpt><trkpt lat="43.9963067" lon="12.6715383"><ele>0.8</ele><time>2026-05-02T13:58:49.44Z</time></trkpt><trkpt lat="43.996195" lon="12.6715717"><ele>1.0</ele><time>2026-05-02T13:58:51.44Z</time></trkpt><trkpt lat="43.996075" lon="12.671615"><ele>1.0</ele><time>2026-05-02T13:58:53.44Z</time></trkpt><trkpt lat="43.9959633" lon="12.6716467"><ele>1.0</ele><time>2026-05-02T13:58:55.443Z</time></trkpt><trkpt lat="43.99586" lon="12.6716683"><ele>1.0</ele><time>2026-05-02T13:58:57.442Z</time></trkpt><trkpt lat="43.995765" lon="12.6716917"><ele>1.0</ele><time>2026-05-02T13:58:59.44Z</time></trkpt><trkpt lat="43.9957" lon="12.6717483"><ele>1.0</ele><time>2026-05-02T13:59:01.441Z</time></trkpt><trkpt lat="43.99564" lon="12.6718167"><ele>0.9999999999999999</ele><time>2026-05-02T13:59:04.439Z</time></trkpt><trkpt lat="43.9955983" lon="12.6719017"><ele>1.0</ele><time>2026-05-02T13:59:07.442Z</time></trkpt><trkpt lat="43.9955683" lon="12.6719983"><ele>1.0</ele><time>2026-05-02T13:59:10.44Z</time></trkpt><trkpt lat="43.9955367" lon="12.67209"><ele>1.0</ele><time>2026-05-02T13:59:12.441Z</time></trkpt><trkpt lat="43.9954933" lon="12.6721683"><ele>0.9999999999999999</ele><time>2026-05-02T13:59:14.439Z</time></trkpt><trkpt lat="43.99543" lon="12.672265"><ele>1.0</ele><time>2026-05-02T13:59:17.442Z</time></trkpt><trkpt lat="43.9953933" lon="12.6723617"><ele>0.8333333333333333</ele><time>2026-05-02T13:59:19.439Z</time></trkpt><trkpt lat="43.9953983" lon="12.6724633"><ele>0.6666666666666666</ele><time>2026-05-02T13:59:21.44Z</time></trkpt><trkpt lat="43.9954517" lon="12.672525"><ele>0.5</ele><time>2026-05-02T13:59:23.44Z</time></trkpt><trkpt lat="43.995525" lon="12.672595"><ele>0.3333333333333333</ele><time>2026-05-02T13:59:26.439Z</time></trkpt><trkpt lat="43.99556" lon="12.6726767"><ele>0.16666666666666666</ele><time>2026-05-02T13:59:29.44Z</time></trkpt><trkpt lat="43.99558" lon="12.6728267"><ele>0.0</ele><time>2026-05-02T13:59:43.439Z</time></trkpt><trkpt lat="43.9955467" lon="12.6729017"><ele>0.0</ele><time>2026-05-02T13:59:51.439Z</time></trkpt><trkpt lat="43.9955133" lon="12.6729817"><ele>0.0</ele><time>2026-05-02T13:59:53.44Z</time></trkpt><trkpt lat="43.995475" lon="12.6730617"><ele>0.0</ele><time>2026-05-02T13:59:55.44Z</time></trkpt><trkpt lat="43.9954417" lon="12.6731433"><ele>0.0</ele><time>2026-05-02T13:59:57.441Z</time></trkpt><trkpt lat="43.9954067" lon="12.6732467"><ele>0.0</ele><time>2026-05-02T14:00:00.439Z</time></trkpt><trkpt lat="43.9953583" lon="12.6733333"><ele>0.0</ele><time>2026-05-02T14:00:03.44Z</time></trkpt><trkpt lat="43.99531" lon="12.67344"><ele>0.0</ele><time>2026-05-02T14:00:11.44Z</time></trkpt><trkpt lat="43.9952483" lon="12.6735383"><ele>0.0</ele><time>2026-05-02T14:00:14.439Z</time></trkpt><trkpt lat="43.9951883" lon="12.6736283"><ele>0.0</ele><time>2026-05-02T14:00:17.443Z</time></trkpt><trkpt lat="43.99513" lon="12.673725"><ele>0.0</ele><time>2026-05-02T14:00:20.44Z</time></trkpt><trkpt lat="43.9950667" lon="12.673835"><ele>0.0</ele><time>2026-05-02T14:00:23.44Z</time></trkpt><trkpt lat="43.99501" lon="12.673935"><ele>0.0</ele><time>2026-05-02T14:00:25.439Z</time></trkpt><trkpt lat="43.9949583" lon="12.67403"><ele>0.0</ele><time>2026-05-02T14:00:27.44Z</time></trkpt><trkpt lat="43.9949067" lon="12.6741133"><ele>0.0</ele><time>2026-05-02T14:00:29.439Z</time></trkpt><trkpt lat="43.994855" lon="12.6741883"><ele>0.0</ele><time>2026-05-02T14:00:31.439Z</time></trkpt><trkpt lat="43.994795" lon="12.6742833"><ele>0.0</ele><time>2026-05-02T14:00:33.439Z</time></trkpt><trkpt lat="43.9947283" lon="12.6743767"><ele>0.0</ele><time>2026-05-02T14:00:35.44Z</time></trkpt><trkpt lat="43.9946683" lon="12.674475"><ele>0.0</ele><time>2026-05-02T14:00:37.44Z</time></trkpt><trkpt lat="43.9946117" lon="12.6745633"><ele>0.0</ele><time>2026-05-02T14:00:39.44Z</time></trkpt><trkpt lat="43.99456" lon="12.67465"><ele>0.0</ele><time>2026-05-02T14:00:41.44Z</time></trkpt><trkpt lat="43.9945067" lon="12.6747283"><ele>0.0</ele><time>2026-05-02T14:00:43.439Z</time></trkpt><trkpt lat="43.9944467" lon="12.6748117"><ele>0.0</ele><time>2026-05-02T14:00:45.44Z</time></trkpt><trkpt lat="43.9943933" lon="12.6748933"><ele>0.0</ele><time>2026-05-02T14:00:47.443Z</time></trkpt><trkpt lat="43.9943417" lon="12.67497"><ele>0.0</ele><time>2026-05-02T14:00:49.44Z</time></trkpt><trkpt lat="43.9942967" lon="12.6750517"><ele>0.0</ele><time>2026-05-02T14:00:51.44Z</time></trkpt><trkpt lat="43.9942633" lon="12.6751417"><ele>0.0</ele><time>2026-05-02T14:00:53.439Z</time></trkpt><trkpt lat="43.9942167" lon="12.6752133"><ele>0.0</ele><time>2026-05-02T14:00:55.439Z</time></trkpt><trkpt lat="43.9941633" lon="12.6753"><ele>0.0</ele><time>2026-05-02T14:00:57.44Z</time></trkpt><trkpt lat="43.9941133" lon="12.67537"><ele>0.0</ele><time>2026-05-02T14:00:59.44Z</time></trkpt><trkpt lat="43.994055" lon="12.675455"><ele>0.16666666666666666</ele><time>2026-05-02T14:01:01.439Z</time></trkpt><trkpt lat="43.993995" lon="12.6755417"><ele>0.3333333333333333</ele><time>2026-05-02T14:01:03.441Z</time></trkpt><trkpt lat="43.9939417" lon="12.67562"><ele>0.5</ele><time>2026-05-02T14:01:05.44Z</time></trkpt><trkpt lat="43.9938883" lon="12.675705"><ele>0.6666666666666666</ele><time>2026-05-02T14:01:07.44Z</time></trkpt><trkpt lat="43.9938367" lon="12.6757967"><ele>0.8333333333333333</ele><time>2026-05-02T14:01:09.44Z</time></trkpt><trkpt lat="43.9937817" lon="12.6758933"><ele>1.0</ele><time>2026-05-02T14:01:11.44Z</time></trkpt><trkpt lat="43.9937283" lon="12.6759817"><ele>0.9999999999999999</ele><time>2026-05-02T14:01:13.439Z</time></trkpt><trkpt lat="43.99368" lon="12.6760667"><ele>1.0</ele><time>2026-05-02T14:01:15.44Z</time></trkpt><trkpt lat="43.9936283" lon="12.6761483"><ele>1.0</ele><time>2026-05-02T14:01:17.439Z</time></trkpt><trkpt lat="43.9935717" lon="12.67623"><ele>1.0</ele><time>2026-05-02T14:01:19.44Z</time></trkpt><trkpt lat="43.9935283" lon="12.676315"><ele>0.9999999999999999</ele><time>2026-05-02T14:01:21.441Z</time></trkpt><trkpt lat="43.993485" lon="12.6763867"><ele>1.0</ele><time>2026-05-02T14:01:23.439Z</time></trkpt><trkpt lat="43.9934117" lon="12.6764567"><ele>0.9999999999999999</ele><time>2026-05-02T14:01:26.441Z</time></trkpt><trkpt lat="43.9933367" lon="12.6764483"><ele>1.0</ele><time>2026-05-02T14:01:30.441Z</time></trkpt><trkpt lat="43.9932733" lon="12.6764483"><ele>1.0</ele><time>2026-05-02T14:01:35.439Z</time></trkpt><trkpt lat="43.9932067" lon="12.6764017"><ele>1.0</ele><time>2026-05-02T14:01:38.44Z</time></trkpt><trkpt lat="43.9931467" lon="12.6764933"><ele>0.9999999999999999</ele><time>2026-05-02T14:01:41.44Z</time></trkpt><trkpt lat="43.9931" lon="12.6765667"><ele>1.0</ele><time>2026-05-02T14:01:43.441Z</time></trkpt><trkpt lat="43.99304" lon="12.6766567"><ele>0.9999999999999999</ele><time>2026-05-02T14:01:46.443Z</time></trkpt><trkpt lat="43.9929967" lon="12.676725"><ele>1.0</ele><time>2026-05-02T14:01:48.441Z</time></trkpt><trkpt lat="43.99294" lon="12.6768067"><ele>1.0</ele><time>2026-05-02T14:01:50.442Z</time></trkpt><trkpt lat="43.9928783" lon="12.676905"><ele>1.0</ele><time>2026-05-02T14:01:52.44Z</time></trkpt><trkpt lat="43.992825" lon="12.6770067"><ele>0.9999999999999999</ele><time>2026-05-02T14:01:54.443Z</time></trkpt><trkpt lat="43.99277" lon="12.6770933"><ele>1.0</ele><time>2026-05-02T14:01:56.439Z</time></trkpt><trkpt lat="43.9927267" lon="12.677175"><ele>0.8333333333333333</ele><time>2026-05-02T14:01:58.44Z</time></trkpt><trkpt lat="43.9926833" lon="12.67725"><ele>0.6666666666666666</ele><time>2026-05-02T14:02:00.44Z</time></trkpt><trkpt lat="43.9926317" lon="12.67735"><ele>0.5</ele><time>2026-05-02T14:02:03.44Z</time></trkpt><trkpt lat="43.99257" lon="12.6774233"><ele>0.3333333333333333</ele><time>2026-05-02T14:02:06.439Z</time></trkpt><trkpt lat="43.9925167" lon="12.6775117"><ele>0.16666666666666666</ele><time>2026-05-02T14:02:09.441Z</time></trkpt><trkpt lat="43.992485" lon="12.6775883"><ele>0.0</ele><time>2026-05-02T14:02:12.44Z</time></trkpt><trkpt lat="43.992425" lon="12.6776717"><ele>0.0</ele><time>2026-05-02T14:02:16.442Z</time></trkpt><trkpt lat="43.9923883" lon="12.6777433"><ele>0.0</ele><time>2026-05-02T14:02:18.44Z</time></trkpt><trkpt lat="43.9923533" lon="12.6778167"><ele>0.0</ele><time>2026-05-02T14:02:21.442Z</time></trkpt><trkpt lat="43.9923" lon="12.6779117"><ele>0.0</ele><time>2026-05-02T14:02:25.439Z</time></trkpt><trkpt lat="43.992245" lon="12.67799"><ele>0.0</ele><time>2026-05-02T14:02:28.44Z</time></trkpt><trkpt lat="43.9921933" lon="12.6780533"><ele>0.0</ele><time>2026-05-02T14:02:31.44Z</time></trkpt><trkpt lat="43.9921533" lon="12.6781267"><ele>0.0</ele><time>2026-05-02T14:02:33.44Z</time></trkpt><trkpt lat="43.9921117" lon="12.6781933"><ele>0.0</ele><time>2026-05-02T14:02:35.439Z</time></trkpt><trkpt lat="43.9920567" lon="12.6782867"><ele>0.0</ele><time>2026-05-02T14:02:38.44Z</time></trkpt><trkpt lat="43.992015" lon="12.678375"><ele>0.0</ele><time>2026-05-02T14:02:40.44Z</time></trkpt><trkpt lat="43.9919583" lon="12.6784617"><ele>0.0</ele><time>2026-05-02T14:02:42.44Z</time></trkpt><trkpt lat="43.991905" lon="12.678555"><ele>0.0</ele><time>2026-05-02T14:02:44.44Z</time></trkpt><trkpt lat="43.9918567" lon="12.6786267"><ele>0.0</ele><time>2026-05-02T14:02:46.44Z</time></trkpt><trkpt lat="43.9917967" lon="12.6787217"><ele>0.0</ele><time>2026-05-02T14:02:49.443Z</time></trkpt><trkpt lat="43.9917567" lon="12.67879"><ele>0.0</ele><time>2026-05-02T14:02:51.443Z</time></trkpt><trkpt lat="43.9917183" lon="12.678865"><ele>0.0</ele><time>2026-05-02T14:02:53.443Z</time></trkpt><trkpt lat="43.991675" lon="12.67893"><ele>0.0</ele><time>2026-05-02T14:02:56.442Z</time></trkpt><trkpt lat="43.9916167" lon="12.67902"><ele>0.0</ele><time>2026-05-02T14:03:01.439Z</time></trkpt><trkpt lat="43.9915617" lon="12.679115"><ele>0.0</ele><time>2026-05-02T14:03:04.44Z</time></trkpt><trkpt lat="43.9915067" lon="12.6792"><ele>0.0</ele><time>2026-05-02T14:03:08.441Z</time></trkpt><trkpt lat="43.9914617" lon="12.6792817"><ele>0.0</ele><time>2026-05-02T14:03:12.441Z</time></trkpt><trkpt lat="43.9914217" lon="12.67936"><ele>0.0</ele><time>2026-05-02T14:03:15.441Z</time></trkpt><trkpt lat="43.9913767" lon="12.6794467"><ele>0.0</ele><time>2026-05-02T14:03:18.44Z</time></trkpt><trkpt lat="43.991325" lon="12.6795217"><ele>0.0</ele><time>2026-05-02T14:03:21.44Z</time></trkpt><trkpt lat="43.9912667" lon="12.6796183"><ele>0.0</ele><time>2026-05-02T14:03:24.439Z</time></trkpt><trkpt lat="43.991215" lon="12.6796917"><ele>0.0</ele><time>2026-05-02T14:03:27.441Z</time></trkpt><trkpt lat="43.9911733" lon="12.6797683"><ele>0.0</ele><time>2026-05-02T14:03:30.44Z</time></trkpt><trkpt lat="43.99113" lon="12.6798583"><ele>0.0</ele><time>2026-05-02T14:03:32.443Z</time></trkpt><trkpt lat="43.9910817" lon="12.6799383"><ele>0.0</ele><time>2026-05-02T14:03:34.442Z</time></trkpt><trkpt lat="43.9910417" lon="12.6800067"><ele>0.0</ele><time>2026-05-02T14:03:36.44Z</time></trkpt><trkpt lat="43.9909867" lon="12.6800917"><ele>0.0</ele><time>2026-05-02T14:03:39.44Z</time></trkpt><trkpt lat="43.9909517" lon="12.680165"><ele>0.0</ele><time>2026-05-02T14:03:42.44Z</time></trkpt><trkpt lat="43.990895" lon="12.6802733"><ele>0.0</ele><time>2026-05-02T14:03:45.44Z</time></trkpt><trkpt lat="43.9908517" lon="12.6803583"><ele>0.0</ele><time>2026-05-02T14:03:48.442Z</time></trkpt><trkpt lat="43.9908117" lon="12.6804617"><ele>0.0</ele><time>2026-05-02T14:03:52.442Z</time></trkpt><trkpt lat="43.9907617" lon="12.6805383"><ele>0.0</ele><time>2026-05-02T14:03:55.441Z</time></trkpt><trkpt lat="43.990705" lon="12.6806133"><ele>0.0</ele><time>2026-05-02T14:03:58.442Z</time></trkpt><trkpt lat="43.9906567" lon="12.68069"><ele>0.0</ele><time>2026-05-02T14:04:01.441Z</time></trkpt><trkpt lat="43.9906117" lon="12.6807567"><ele>0.0</ele><time>2026-05-02T14:04:04.441Z</time></trkpt><trkpt lat="43.9905683" lon="12.6808367"><ele>0.0</ele><time>2026-05-02T14:04:07.442Z</time></trkpt><trkpt lat="43.99052" lon="12.6809233"><ele>0.0</ele><time>2026-05-02T14:04:10.439Z</time></trkpt><trkpt lat="43.99047" lon="12.6810117"><ele>0.0</ele><time>2026-05-02T14:04:13.441Z</time></trkpt><trkpt lat="43.9904167" lon="12.6810917"><ele>0.0</ele><time>2026-05-02T14:04:16.439Z</time></trkpt><trkpt lat="43.9903767" lon="12.6811667"><ele>0.0</ele><time>2026-05-02T14:04:19.439Z</time></trkpt><trkpt lat="43.990335" lon="12.6812467"><ele>0.0</ele><time>2026-05-02T14:04:22.439Z</time></trkpt><trkpt lat="43.9902883" lon="12.681325"><ele>0.0</ele><time>2026-05-02T14:04:25.439Z</time></trkpt><trkpt lat="43.9902483" lon="12.6814117"><ele>0.0</ele><time>2026-05-02T14:04:29.439Z</time></trkpt><trkpt lat="43.9902" lon="12.681485"><ele>0.0</ele><time>2026-05-02T14:04:32.44Z</time></trkpt><trkpt lat="43.9901483" lon="12.68158"><ele>0.0</ele><time>2026-05-02T14:04:35.439Z</time></trkpt><trkpt lat="43.990095" lon="12.681685"><ele>0.0</ele><time>2026-05-02T14:04:38.44Z</time></trkpt><trkpt lat="43.990055" lon="12.6817533"><ele>0.0</ele><time>2026-05-02T14:04:40.44Z</time></trkpt><trkpt lat="43.9900117" lon="12.681845"><ele>0.14285714285714285</ele><time>2026-05-02T14:04:43.439Z</time></trkpt><trkpt lat="43.98998" lon="12.68193"><ele>0.2857142857142857</ele><time>2026-05-02T14:04:46.442Z</time></trkpt><trkpt lat="43.98994" lon="12.6820017"><ele>0.42857142857142855</ele><time>2026-05-02T14:04:50.44Z</time></trkpt><trkpt lat="43.9898933" lon="12.6820883"><ele>0.5714285714285714</ele><time>2026-05-02T14:04:54.44Z</time></trkpt><trkpt lat="43.98984" lon="12.682195"><ele>0.7142857142857142</ele><time>2026-05-02T14:04:57.44Z</time></trkpt><trkpt lat="43.9897933" lon="12.6822683"><ele>0.8571428571428571</ele><time>2026-05-02T14:04:59.439Z</time></trkpt><trkpt lat="43.989755" lon="12.682345"><ele>1.0</ele><time>2026-05-02T14:05:01.44Z</time></trkpt><trkpt lat="43.9897183" lon="12.682425"><ele>0.9999999999999999</ele><time>2026-05-02T14:05:03.441Z</time></trkpt><trkpt lat="43.989675" lon="12.6824967"><ele>1.0</ele><time>2026-05-02T14:05:05.44Z</time></trkpt><trkpt lat="43.98959" lon="12.6825"><ele>1.0</ele><time>2026-05-02T14:05:08.44Z</time></trkpt><trkpt lat="43.9895217" lon="12.6824333"><ele>1.0</ele><time>2026-05-02T14:05:10.439Z</time></trkpt><trkpt lat="43.9894467" lon="12.6823683"><ele>0.9999999999999999</ele><time>2026-05-02T14:05:12.44Z</time></trkpt><trkpt lat="43.989385" lon="12.682295"><ele>1.0</ele><time>2026-05-02T14:05:14.44Z</time></trkpt><trkpt lat="43.9893283" lon="12.682255"><ele>0.9999999999999999</ele><time>2026-05-02T14:05:17.443Z</time></trkpt><trkpt lat="43.98927" lon="12.682315"><ele>1.0</ele><time>2026-05-02T14:05:20.442Z</time></trkpt><trkpt lat="43.98923" lon="12.682385"><ele>1.0</ele><time>2026-05-02T14:05:22.44Z</time></trkpt><trkpt lat="43.9891833" lon="12.682455"><ele>1.0</ele><time>2026-05-02T14:05:24.44Z</time></trkpt><trkpt lat="43.98915" lon="12.6825533"><ele>0.9999999999999999</ele><time>2026-05-02T14:05:26.44Z</time></trkpt><trkpt lat="43.989095" lon="12.682665"><ele>1.0</ele><time>2026-05-02T14:05:28.439Z</time></trkpt><trkpt lat="43.9890367" lon="12.682775"><ele>1.1666666666666665</ele><time>2026-05-02T14:05:30.44Z</time></trkpt><trkpt lat="43.9889817" lon="12.6828633"><ele>1.3333333333333333</ele><time>2026-05-02T14:05:32.44Z</time></trkpt><trkpt lat="43.9889417" lon="12.68294"><ele>1.5</ele><time>2026-05-02T14:05:34.439Z</time></trkpt><trkpt lat="43.98889" lon="12.683025"><ele>1.6666666666666665</ele><time>2026-05-02T14:05:37.441Z</time></trkpt><trkpt lat="43.988845" lon="12.6831"><ele>1.8333333333333333</ele><time>2026-05-02T14:05:39.44Z</time></trkpt><trkpt lat="43.9887967" lon="12.6831833"><ele>2.0</ele><time>2026-05-02T14:05:42.439Z</time></trkpt><trkpt lat="43.9887417" lon="12.683285"><ele>1.9999999999999998</ele><time>2026-05-02T14:05:45.443Z</time></trkpt><trkpt lat="43.988695" lon="12.6833617"><ele>2.0</ele><time>2026-05-02T14:05:47.44Z</time></trkpt><trkpt lat="43.988655" lon="12.6834317"><ele>2.0</ele><time>2026-05-02T14:05:49.441Z</time></trkpt><trkpt lat="43.9885767" lon="12.683525"><ele>2.0</ele><time>2026-05-02T14:05:52.442Z</time></trkpt><trkpt lat="43.98855" lon="12.6836333"><ele>1.9999999999999998</ele><time>2026-05-02T14:05:55.44Z</time></trkpt><trkpt lat="43.9885" lon="12.6837433"><ele>2.0</ele><time>2026-05-02T14:05:58.44Z</time></trkpt><trkpt lat="43.988455" lon="12.683805"><ele>1.6</ele><time>2026-05-02T14:06:00.44Z</time></trkpt><trkpt lat="43.9884" lon="12.6839083"><ele>1.2000000000000002</ele><time>2026-05-02T14:06:02.44Z</time></trkpt><trkpt lat="43.988345" lon="12.6840183"><ele>0.8</ele><time>2026-05-02T14:06:04.439Z</time></trkpt><trkpt lat="43.988295" lon="12.6841033"><ele>0.4</ele><time>2026-05-02T14:06:06.44Z</time></trkpt><trkpt lat="43.988235" lon="12.68419"><ele>0.0</ele><time>2026-05-02T14:06:08.44Z</time></trkpt><trkpt lat="43.9881783" lon="12.6842967"><ele>0.3333333333333333</ele><time>2026-05-02T14:06:10.439Z</time></trkpt><trkpt lat="43.9881317" lon="12.6843933"><ele>0.6666666666666666</ele><time>2026-05-02T14:06:12.439Z</time></trkpt><trkpt lat="43.98808" lon="12.6844683"><ele>1.0</ele><time>2026-05-02T14:06:14.44Z</time></trkpt><trkpt lat="43.988025" lon="12.6845733"><ele>1.3333333333333333</ele><time>2026-05-02T14:06:16.441Z</time></trkpt><trkpt lat="43.9879667" lon="12.6846783"><ele>1.6666666666666665</ele><time>2026-05-02T14:06:18.443Z</time></trkpt><trkpt lat="43.9879133" lon="12.6847733"><ele>2.0</ele><time>2026-05-02T14:06:20.441Z</time></trkpt><trkpt lat="43.9878617" lon="12.6848667"><ele>1.9999999999999998</ele><time>2026-05-02T14:06:22.439Z</time></trkpt><trkpt lat="43.98781" lon="12.6849617"><ele>2.0</ele><time>2026-05-02T14:06:24.442Z</time></trkpt><trkpt lat="43.9877567" lon="12.685065"><ele>2.0</ele><time>2026-05-02T14:06:26.44Z</time></trkpt><trkpt lat="43.9877067" lon="12.6851517"><ele>2.0</ele><time>2026-05-02T14:06:28.439Z</time></trkpt><trkpt lat="43.9876617" lon="12.68523"><ele>1.9999999999999998</ele><time>2026-05-02T14:06:30.439Z</time></trkpt><trkpt lat="43.987615" lon="12.6853133"><ele>2.0</ele><time>2026-05-02T14:06:32.439Z</time></trkpt><trkpt lat="43.9875783" lon="12.6853867"><ele>1.6666666666666665</ele><time>2026-05-02T14:06:34.439Z</time></trkpt><trkpt lat="43.9875317" lon="12.6854867"><ele>1.3333333333333333</ele><time>2026-05-02T14:06:36.441Z</time></trkpt><trkpt lat="43.987485" lon="12.68559"><ele>1.0</ele><time>2026-05-02T14:06:38.439Z</time></trkpt><trkpt lat="43.9874267" lon="12.6856867"><ele>0.6666666666666666</ele><time>2026-05-02T14:06:40.442Z</time></trkpt><trkpt lat="43.98737" lon="12.68578"><ele>0.3333333333333333</ele><time>2026-05-02T14:06:42.44Z</time></trkpt><trkpt lat="43.9873183" lon="12.6858583"><ele>0.0</ele><time>2026-05-02T14:06:44.439Z</time></trkpt><trkpt lat="43.9872767" lon="12.6859483"><ele>0.0</ele><time>2026-05-02T14:06:46.441Z</time></trkpt><trkpt lat="43.9872283" lon="12.6860383"><ele>0.0</ele><time>2026-05-02T14:06:48.44Z</time></trkpt><trkpt lat="43.987175" lon="12.6861517"><ele>0.0</ele><time>2026-05-02T14:06:50.443Z</time></trkpt><trkpt lat="43.9871033" lon="12.6862683"><ele>0.0</ele><time>2026-05-02T14:06:52.442Z</time></trkpt><trkpt lat="43.987035" lon="12.6863683"><ele>0.0</ele><time>2026-05-02T14:06:54.442Z</time></trkpt><trkpt lat="43.9869833" lon="12.68646"><ele>0.0</ele><time>2026-05-02T14:06:56.441Z</time></trkpt><trkpt lat="43.9869433" lon="12.6865367"><ele>0.0</ele><time>2026-05-02T14:06:58.44Z</time></trkpt><trkpt lat="43.98689" lon="12.686635"><ele>0.0</ele><time>2026-05-02T14:07:01.441Z</time></trkpt><trkpt lat="43.9868483" lon="12.6867167"><ele>0.0</ele><time>2026-05-02T14:07:04.44Z</time></trkpt><trkpt lat="43.986755" lon="12.686715"><ele>0.0</ele><time>2026-05-02T14:07:17.442Z</time></trkpt><trkpt lat="43.9866933" lon="12.686795"><ele>0.0</ele><time>2026-05-02T14:07:19.443Z</time></trkpt><trkpt lat="43.9866267" lon="12.6869117"><ele>-0.2</ele><time>2026-05-02T14:07:21.443Z</time></trkpt><trkpt lat="43.9865633" lon="12.6870283"><ele>-0.4</ele><time>2026-05-02T14:07:23.443Z</time></trkpt><trkpt lat="43.9864983" lon="12.68714"><ele>-0.6000000000000001</ele><time>2026-05-02T14:07:25.44Z</time></trkpt><trkpt lat="43.9864417" lon="12.6872383"><ele>-0.8</ele><time>2026-05-02T14:07:27.44Z</time></trkpt><trkpt lat="43.98639" lon="12.6873317"><ele>-1.0</ele><time>2026-05-02T14:07:29.44Z</time></trkpt><trkpt lat="43.98634" lon="12.6874333"><ele>-0.9999999999999999</ele><time>2026-05-02T14:07:31.441Z</time></trkpt><trkpt lat="43.9862883" lon="12.6875217"><ele>-1.0</ele><time>2026-05-02T14:07:33.44Z</time></trkpt><trkpt lat="43.9862267" lon="12.6875533"><ele>-1.0</ele><time>2026-05-02T14:07:35.439Z</time></trkpt><trkpt lat="43.98614" lon="12.68754"><ele>-1.0</ele><time>2026-05-02T14:07:38.441Z</time></trkpt><trkpt lat="43.9860667" lon="12.6875317"><ele>-0.9999999999999999</ele><time>2026-05-02T14:07:41.44Z</time></trkpt><trkpt lat="43.9860033" lon="12.68743"><ele>-1.0</ele><time>2026-05-02T14:08:09.44Z</time></trkpt><trkpt lat="43.9859967" lon="12.687315"><ele>-1.0</ele><time>2026-05-02T14:08:12.441Z</time></trkpt><trkpt lat="43.98595" lon="12.6872283"><ele>-0.9999999999999999</ele><time>2026-05-02T14:08:15.443Z</time></trkpt><trkpt lat="43.9858883" lon="12.6871633"><ele>-1.0</ele><time>2026-05-02T14:08:18.443Z</time></trkpt><trkpt lat="43.9858367" lon="12.687095"><ele>-1.0</ele><time>2026-05-02T14:08:21.442Z</time></trkpt><trkpt lat="43.985765" lon="12.6870567"><ele>-0.9999999999999999</ele><time>2026-05-02T14:08:24.442Z</time></trkpt><trkpt lat="43.9857067" lon="12.686995"><ele>-1.0</ele><time>2026-05-02T14:08:26.441Z</time></trkpt><trkpt lat="43.9856533" lon="12.6869283"><ele>-1.0</ele><time>2026-05-02T14:08:28.443Z</time></trkpt><trkpt lat="43.9856017" lon="12.68687"><ele>-0.6666666666666666</ele><time>2026-05-02T14:08:30.441Z</time></trkpt><trkpt lat="43.985535" lon="12.6868033"><ele>-0.3333333333333333</ele><time>2026-05-02T14:08:32.441Z</time></trkpt><trkpt lat="43.9854617" lon="12.68672"><ele>0.0</ele><time>2026-05-02T14:08:34.443Z</time></trkpt><trkpt lat="43.9853917" lon="12.686645"><ele>0.3333333333333333</ele><time>2026-05-02T14:08:36.442Z</time></trkpt><trkpt lat="43.9853317" lon="12.6865817"><ele>0.6666666666666666</ele><time>2026-05-02T14:08:38.441Z</time></trkpt><trkpt lat="43.9852733" lon="12.6865233"><ele>1.0</ele><time>2026-05-02T14:08:40.44Z</time></trkpt><trkpt lat="43.9852" lon="12.6864517"><ele>1.0</ele><time>2026-05-02T14:08:43.442Z</time></trkpt><trkpt lat="43.98515" lon="12.6863933"><ele>1.0</ele><time>2026-05-02T14:08:45.444Z</time></trkpt><trkpt lat="43.98508" lon="12.6863117"><ele>1.0</ele><time>2026-05-02T14:08:48.442Z</time></trkpt><trkpt lat="43.985025" lon="12.6862467"><ele>1.0</ele><time>2026-05-02T14:08:50.443Z</time></trkpt><trkpt lat="43.9850083" lon="12.68616"><ele>1.0</ele><time>2026-05-02T14:08:52.442Z</time></trkpt><trkpt lat="43.9850217" lon="12.6860167"><ele>1.0</ele><time>2026-05-02T14:09:05.441Z</time></trkpt></trkseg></trk></gpx>